<?xml version='1.0' encoding='UTF-8'?><gpx version="1.1" creator="JPX - https://github.com/jenetics/jpx" xmlns="http://www.topografix.com/GPX/1/1"><trk><trkseg><trkpt lat="32.06551662894192" lon="-5.936377274407613"><ele>1491.0</ele><time>2026-05-04T08:30:19Z</time></trkpt><trkpt lat="32.065434436762715" lon="-5.936342284449028"><ele>1491.0</ele><time>2026-05-04T08:30:21Z</time></trkpt><trkpt lat="32.065401051230175" lon="-5.936276478998273"><ele>1491.0</ele><time>2026-05-04T08:30:22Z</time></trkpt><trkpt lat="32.065367752793776" lon="-5.936212210866262"><ele>1491.0</ele><time>2026-05-04T08:30:23Z</time></trkpt><trkpt lat="32.06540273012159" lon="-5.936320644702529"><ele>1491.0</ele><time>2026-05-04T08:30:27Z</time></trkpt><trkpt lat="32.06556353211758" lon="-5.936369663594489"><ele>1491.0</ele><time>2026-05-04T08:31:01.446Z</time></trkpt><trkpt lat="32.06560632698772" lon="-5.936286483601233"><ele>1491.0</ele><time>2026-05-04T08:31:31.761Z</time></trkpt><trkpt lat="32.06557390812318" lon="-5.936221764186663"><ele>1491.0</ele><time>2026-05-04T08:31:34.761Z</time></trkpt><trkpt lat="32.065535005720804" lon="-5.936158061350465"><ele>1491.0</ele><time>2026-05-04T08:31:40Z</time></trkpt><trkpt lat="32.065503356490204" lon="-5.936082639063661"><ele>1491.0</ele><time>2026-05-04T08:31:45Z</time></trkpt><trkpt lat="32.06547400337336" lon="-5.936010428348222"><ele>1491.0</ele><time>2026-05-04T08:31:50Z</time></trkpt><trkpt lat="32.065458074207335" lon="-5.935937136487483"><ele>1491.0</ele><time>2026-05-04T08:31:55Z</time></trkpt><trkpt lat="32.06541460877702" lon="-5.935871526382578"><ele>1491.0</ele><time>2026-05-04T08:32:01Z</time></trkpt><trkpt lat="32.06547482753135" lon="-5.935921731180815"><ele>1491.0</ele><time>2026-05-04T08:36:44Z</time></trkpt><trkpt lat="32.065474217891314" lon="-5.936037816496244"><ele>1491.0</ele><time>2026-05-04T08:36:46Z</time></trkpt><trkpt lat="32.06552025720701" lon="-5.93612159472053"><ele>1491.0</ele><time>2026-05-04T08:36:48Z</time></trkpt><trkpt lat="32.06556227593457" lon="-5.936212152657557"><ele>1491.0</ele><time>2026-05-04T08:36:51Z</time></trkpt><trkpt lat="32.065496889938956" lon="-5.936262153085489"><ele>1491.0</ele><time>2026-05-04T08:36:54Z</time></trkpt><trkpt lat="32.065450608008106" lon="-5.936185585204825"><ele>1491.0</ele><time>2026-05-04T08:36:56Z</time></trkpt><trkpt lat="32.06540600431232" lon="-5.936079572917295"><ele>1491.0</ele><time>2026-05-04T08:36:58Z</time></trkpt><trkpt lat="32.065344685761936" lon="-5.935986337905515"><ele>1491.0</ele><time>2026-05-04T08:37:00Z</time></trkpt><trkpt lat="32.0652815447281" lon="-5.935900188115418"><ele>1491.0</ele><time>2026-05-04T08:37:02Z</time></trkpt><trkpt lat="32.06521511212204" lon="-5.935803560194889"><ele>1491.0</ele><time>2026-05-04T08:37:04Z</time></trkpt><trkpt lat="32.06513039334938" lon="-5.935723650448915"><ele>1492.1999999999998</ele><time>2026-05-04T08:37:06Z</time></trkpt><trkpt lat="32.06503721721769" lon="-5.9356486226550285"><ele>1493.3999999999999</ele><time>2026-05-04T08:37:08Z</time></trkpt><trkpt lat="32.06494647595209" lon="-5.935580609367267"><ele>1494.6</ele><time>2026-05-04T08:37:10Z</time></trkpt><trkpt lat="32.06484919245824" lon="-5.9355105540070285"><ele>1495.8</ele><time>2026-05-04T08:37:12Z</time></trkpt><trkpt lat="32.06475953965686" lon="-5.935452272368303"><ele>1497.0</ele><time>2026-05-04T08:37:14Z</time></trkpt><trkpt lat="32.0646869453371" lon="-5.93538212156903"><ele>1494.3333333333333</ele><time>2026-05-04T08:37:16Z</time></trkpt><trkpt lat="32.06462770919923" lon="-5.935336513038642"><ele>1491.6666666666667</ele><time>2026-05-04T08:37:18Z</time></trkpt><trkpt lat="32.06456527921603" lon="-5.935354720885631"><ele>1489.0</ele><time>2026-05-04T08:37:20Z</time></trkpt><trkpt lat="32.06447277897461" lon="-5.935381143589437"><ele>1486.3333333333335</ele><time>2026-05-04T08:37:28Z</time></trkpt><trkpt lat="32.06437071010316" lon="-5.935406593774381"><ele>1483.6666666666667</ele><time>2026-05-04T08:37:30Z</time></trkpt><trkpt lat="32.064281021877704" lon="-5.93542535969112"><ele>1481.0</ele><time>2026-05-04T08:37:32Z</time></trkpt><trkpt lat="32.06420398348133" lon="-5.935410811859931"><ele>1481.0</ele><time>2026-05-04T08:37:34Z</time></trkpt><trkpt lat="32.064156923777674" lon="-5.935361202856697"><ele>1481.0</ele><time>2026-05-04T08:37:36Z</time></trkpt><trkpt lat="32.064113870430326" lon="-5.935435836126603"><ele>1481.0</ele><time>2026-05-04T08:37:44Z</time></trkpt><trkpt lat="32.06416631761094" lon="-5.935534382358711"><ele>1481.0</ele><time>2026-05-04T08:37:46Z</time></trkpt><trkpt lat="32.064204675946385" lon="-5.935594364893488"><ele>1481.0</ele><time>2026-05-04T08:37:47Z</time></trkpt><trkpt lat="32.06425279911417" lon="-5.935744863138409"><ele>1481.0</ele><time>2026-05-04T08:37:49Z</time></trkpt><trkpt lat="32.064279255679544" lon="-5.935869119100408"><ele>1479.75</ele><time>2026-05-04T08:37:51Z</time></trkpt><trkpt lat="32.0643110723701" lon="-5.935995139947533"><ele>1478.5</ele><time>2026-05-04T08:37:53Z</time></trkpt><trkpt lat="32.064342780171245" lon="-5.93613514686081"><ele>1477.25</ele><time>2026-05-04T08:37:55Z</time></trkpt><trkpt lat="32.06438296916714" lon="-5.9362564889664355"><ele>1476.0</ele><time>2026-05-04T08:37:57Z</time></trkpt><trkpt lat="32.064411718258945" lon="-5.936380494731307"><ele>1476.0</ele><time>2026-05-04T08:37:59Z</time></trkpt><trkpt lat="32.06444910103684" lon="-5.9365140454041985"><ele>1476.0</ele><time>2026-05-04T08:38:01Z</time></trkpt><trkpt lat="32.064492240717534" lon="-5.936592042506389"><ele>1476.0</ele><time>2026-05-04T08:38:02Z</time></trkpt><trkpt lat="32.06453128354367" lon="-5.936683340596785"><ele>1476.0</ele><time>2026-05-04T08:38:03Z</time></trkpt><trkpt lat="32.06457991483861" lon="-5.9367848309981"><ele>1476.0</ele><time>2026-05-04T08:38:04Z</time></trkpt><trkpt lat="32.064631580893604" lon="-5.93688343798195"><ele>1475.3333333333333</ele><time>2026-05-04T08:38:05Z</time></trkpt><trkpt lat="32.06467333427007" lon="-5.9369654316598615"><ele>1474.6666666666667</ele><time>2026-05-04T08:38:06Z</time></trkpt><trkpt lat="32.06471282890605" lon="-5.937038629557889"><ele>1474.0</ele><time>2026-05-04T08:38:07Z</time></trkpt><trkpt lat="32.06476561077411" lon="-5.937123131635903"><ele>1473.3333333333335</ele><time>2026-05-04T08:38:08Z</time></trkpt><trkpt lat="32.064821055637104" lon="-5.937207710434594"><ele>1472.6666666666667</ele><time>2026-05-04T08:38:09Z</time></trkpt><trkpt lat="32.0648799994834" lon="-5.937295728959596"><ele>1472.0</ele><time>2026-05-04T08:38:10Z</time></trkpt><trkpt lat="32.06494345533461" lon="-5.9373802276114604"><ele>1471.6</ele><time>2026-05-04T08:38:11Z</time></trkpt><trkpt lat="32.0650060423113" lon="-5.937473567738992"><ele>1471.1999999999998</ele><time>2026-05-04T08:38:12Z</time></trkpt><trkpt lat="32.06506934482938" lon="-5.937567430287106"><ele>1470.8</ele><time>2026-05-04T08:38:13Z</time></trkpt><trkpt lat="32.06513395260931" lon="-5.937663809788423"><ele>1470.4</ele><time>2026-05-04T08:38:14Z</time></trkpt><trkpt lat="32.06520869803911" lon="-5.937751610610764"><ele>1470.0</ele><time>2026-05-04T08:38:15Z</time></trkpt><trkpt lat="32.065284454736066" lon="-5.937823011690783"><ele>1470.0</ele><time>2026-05-04T08:38:16Z</time></trkpt><trkpt lat="32.06535938549388" lon="-5.937881689585351"><ele>1470.0</ele><time>2026-05-04T08:38:17Z</time></trkpt><trkpt lat="32.06542493289241" lon="-5.937926961906435"><ele>1470.0</ele><time>2026-05-04T08:38:18Z</time></trkpt><trkpt lat="32.06549179399105" lon="-5.937978446187575"><ele>1470.0</ele><time>2026-05-04T08:38:19Z</time></trkpt><trkpt lat="32.06556347835725" lon="-5.93803842492871"><ele>1470.0</ele><time>2026-05-04T08:38:20Z</time></trkpt><trkpt lat="32.0656497205792" lon="-5.9381016990995255"><ele>1470.0</ele><time>2026-05-04T08:38:21Z</time></trkpt><trkpt lat="32.06572859677614" lon="-5.938162127081753"><ele>1470.2</ele><time>2026-05-04T08:38:22Z</time></trkpt><trkpt lat="32.06581061913712" lon="-5.938225876446258"><ele>1470.4</ele><time>2026-05-04T08:38:23Z</time></trkpt><trkpt lat="32.065900848829" lon="-5.938286756274502"><ele>1470.6</ele><time>2026-05-04T08:38:24Z</time></trkpt><trkpt lat="32.06599130522844" lon="-5.938348732341487"><ele>1470.8</ele><time>2026-05-04T08:38:25Z</time></trkpt><trkpt lat="32.06608587698175" lon="-5.938409606926558"><ele>1471.0</ele><time>2026-05-04T08:38:26Z</time></trkpt><trkpt lat="32.066176202034306" lon="-5.938465528342948"><ele>1471.0</ele><time>2026-05-04T08:38:27Z</time></trkpt><trkpt lat="32.06626664846988" lon="-5.938524307131597"><ele>1471.0</ele><time>2026-05-04T08:38:28Z</time></trkpt><trkpt lat="32.06635276579059" lon="-5.93858327385962"><ele>1471.0</ele><time>2026-05-04T08:38:29Z</time></trkpt><trkpt lat="32.06643450561549" lon="-5.938638613431423"><ele>1471.0</ele><time>2026-05-04T08:38:30Z</time></trkpt><trkpt lat="32.066522055607294" lon="-5.938696411311514"><ele>1471.0</ele><time>2026-05-04T08:38:31Z</time></trkpt><trkpt lat="32.066605992096484" lon="-5.938756628015474"><ele>1472.1999999999998</ele><time>2026-05-04T08:38:32Z</time></trkpt><trkpt lat="32.06668919698909" lon="-5.938816717760737"><ele>1473.3999999999999</ele><time>2026-05-04T08:38:33Z</time></trkpt><trkpt lat="32.066777085562954" lon="-5.938885825569852"><ele>1474.6</ele><time>2026-05-04T08:38:34Z</time></trkpt><trkpt lat="32.066869977322796" lon="-5.938944860505878"><ele>1475.8</ele><time>2026-05-04T08:38:35Z</time></trkpt><trkpt lat="32.066949371884384" lon="-5.9389873650593685"><ele>1477.0</ele><time>2026-05-04T08:38:36Z</time></trkpt><trkpt lat="32.06702252872184" lon="-5.938998918310762"><ele>1477.0</ele><time>2026-05-04T08:38:37Z</time></trkpt><trkpt lat="32.06710447018044" lon="-5.939031151579306"><ele>1477.0</ele><time>2026-05-04T08:38:38Z</time></trkpt><trkpt lat="32.067177285721826" lon="-5.939059794990625"><ele>1477.0</ele><time>2026-05-04T08:38:39Z</time></trkpt><trkpt lat="32.0672405885479" lon="-5.939084696389188"><ele>1477.0</ele><time>2026-05-04T08:38:40Z</time></trkpt><trkpt lat="32.06735849928093" lon="-5.939111109930157"><ele>1477.0</ele><time>2026-05-04T08:38:42Z</time></trkpt><trkpt lat="32.06742521982948" lon="-5.939108250551659"><ele>1477.0</ele><time>2026-05-04T08:38:43Z</time></trkpt><trkpt lat="32.06749372226059" lon="-5.939105458638886"><ele>1478.1666666666665</ele><time>2026-05-04T08:38:44Z</time></trkpt><trkpt lat="32.06761339986517" lon="-5.939092633574827"><ele>1479.3333333333333</ele><time>2026-05-04T08:38:46Z</time></trkpt><trkpt lat="32.06767410845122" lon="-5.939060094738996"><ele>1480.5</ele><time>2026-05-04T08:38:47Z</time></trkpt><trkpt lat="32.067735561976036" lon="-5.939023677193885"><ele>1481.6666666666667</ele><time>2026-05-04T08:38:48Z</time></trkpt><trkpt lat="32.067799891104315" lon="-5.938995719348319"><ele>1482.8333333333335</ele><time>2026-05-04T08:38:49Z</time></trkpt><trkpt lat="32.067860582768084" lon="-5.938975688358556"><ele>1484.0</ele><time>2026-05-04T08:38:50Z</time></trkpt><trkpt lat="32.067983044247036" lon="-5.938925696493696"><ele>1484.0</ele><time>2026-05-04T08:38:52Z</time></trkpt><trkpt lat="32.06804579039976" lon="-5.938891462920629"><ele>1484.0</ele><time>2026-05-04T08:38:53Z</time></trkpt><trkpt lat="32.06811097692203" lon="-5.938865969047119"><ele>1484.0</ele><time>2026-05-04T08:38:54Z</time></trkpt><trkpt lat="32.068181343587824" lon="-5.938838970931182"><ele>1484.0</ele><time>2026-05-04T08:38:55Z</time></trkpt><trkpt lat="32.06825237556895" lon="-5.9388081436805455"><ele>1484.0</ele><time>2026-05-04T08:38:56Z</time></trkpt><trkpt lat="32.06831754430613" lon="-5.938779865366567"><ele>1484.0</ele><time>2026-05-04T08:38:57Z</time></trkpt><trkpt lat="32.06842802956717" lon="-5.9387341491479955"><ele>1484.0</ele><time>2026-05-04T08:38:59Z</time></trkpt><trkpt lat="32.06852828771396" lon="-5.938691375011"><ele>1484.0</ele><time>2026-05-04T08:39:01Z</time></trkpt><trkpt lat="32.06863660013258" lon="-5.938642604579243"><ele>1484.0</ele><time>2026-05-04T08:39:03Z</time></trkpt><trkpt lat="32.06875114333226" lon="-5.938597699846117"><ele>1484.0</ele><time>2026-05-04T08:39:05Z</time></trkpt><trkpt lat="32.06881641182104" lon="-5.938564868712039"><ele>1484.0</ele><time>2026-05-04T08:39:06Z</time></trkpt><trkpt lat="32.068891110353725" lon="-5.938527681501692"><ele>1484.0</ele><time>2026-05-04T08:39:07Z</time></trkpt><trkpt lat="32.06896326373246" lon="-5.938512741226155"><ele>1484.0</ele><time>2026-05-04T08:39:08Z</time></trkpt><trkpt lat="32.06905319791841" lon="-5.938527507096884"><ele>1484.0</ele><time>2026-05-04T08:39:09Z</time></trkpt><trkpt lat="32.06914647213372" lon="-5.938548925312116"><ele>1484.0</ele><time>2026-05-04T08:39:10Z</time></trkpt><trkpt lat="32.069228147797105" lon="-5.938542366799028"><ele>1484.0</ele><time>2026-05-04T08:39:11Z</time></trkpt><trkpt lat="32.06929048025209" lon="-5.938497426940239"><ele>1484.0</ele><time>2026-05-04T08:39:12Z</time></trkpt><trkpt lat="32.06937090814233" lon="-5.9384507420026855"><ele>1484.2</ele><time>2026-05-04T08:39:13Z</time></trkpt><trkpt lat="32.06945685349244" lon="-5.938400742670805"><ele>1484.4</ele><time>2026-05-04T08:39:14Z</time></trkpt><trkpt lat="32.06953824094426" lon="-5.938353342146961"><ele>1484.6</ele><time>2026-05-04T08:39:15Z</time></trkpt><trkpt lat="32.06962746166023" lon="-5.938346308497971"><ele>1484.8</ele><time>2026-05-04T08:39:16Z</time></trkpt><trkpt lat="32.06971659255654" lon="-5.938339493589535"><ele>1485.0</ele><time>2026-05-04T08:39:17Z</time></trkpt><trkpt lat="32.0698078172697" lon="-5.938347304982714"><ele>1485.0</ele><time>2026-05-04T08:39:18Z</time></trkpt><trkpt lat="32.06990016114004" lon="-5.93836292580253"><ele>1485.0</ele><time>2026-05-04T08:39:19Z</time></trkpt><trkpt lat="32.0699848398755" lon="-5.938392972441353"><ele>1485.0</ele><time>2026-05-04T08:39:20Z</time></trkpt><trkpt lat="32.070060490022826" lon="-5.938428960289561"><ele>1485.0</ele><time>2026-05-04T08:39:21Z</time></trkpt><trkpt lat="32.07013151191273" lon="-5.938471552032584"><ele>1485.0</ele><time>2026-05-04T08:39:22Z</time></trkpt><trkpt lat="32.070202265475196" lon="-5.938522858273642"><ele>1485.0</ele><time>2026-05-04T08:39:23Z</time></trkpt><trkpt lat="32.07028575508372" lon="-5.9385711495521765"><ele>1481.6666666666667</ele><time>2026-05-04T08:39:24Z</time></trkpt><trkpt lat="32.070369310251344" lon="-5.938617372757927"><ele>1478.3333333333333</ele><time>2026-05-04T08:39:25Z</time></trkpt><trkpt lat="32.07044927609197" lon="-5.93865514577511"><ele>1475.0</ele><time>2026-05-04T08:39:26Z</time></trkpt><trkpt lat="32.070518449907" lon="-5.938699670689834"><ele>1471.6666666666665</ele><time>2026-05-04T08:39:27Z</time></trkpt><trkpt lat="32.0705935614249" lon="-5.9387574770633975"><ele>1468.3333333333333</ele><time>2026-05-04T08:39:28Z</time></trkpt><trkpt lat="32.070682000360605" lon="-5.938788666913814"><ele>1465.0</ele><time>2026-05-04T08:39:29Z</time></trkpt><trkpt lat="32.07075807955818" lon="-5.938831507812411"><ele>1465.3333333333333</ele><time>2026-05-04T08:39:30Z</time></trkpt><trkpt lat="32.070835343387074" lon="-5.938876235988431"><ele>1465.6666666666665</ele><time>2026-05-04T08:39:31Z</time></trkpt><trkpt lat="32.070910002414365" lon="-5.93891964612436"><ele>1466.0</ele><time>2026-05-04T08:39:32Z</time></trkpt><trkpt lat="32.070974807483246" lon="-5.93895724905417"><ele>1466.3333333333333</ele><time>2026-05-04T08:39:33Z</time></trkpt><trkpt lat="32.07103465764981" lon="-5.938991976732294"><ele>1466.6666666666667</ele><time>2026-05-04T08:39:34Z</time></trkpt><trkpt lat="32.07105778988433" lon="-5.939108051291209"><ele>1467.0</ele><time>2026-05-04T08:39:35Z</time></trkpt><trkpt lat="32.071106815026404" lon="-5.939167828050481"><ele>1466.3333333333333</ele><time>2026-05-04T08:39:36Z</time></trkpt><trkpt lat="32.07114988121153" lon="-5.939237783122161"><ele>1465.6666666666667</ele><time>2026-05-04T08:39:37Z</time></trkpt><trkpt lat="32.071206230784306" lon="-5.939291944306425"><ele>1465.0</ele><time>2026-05-04T08:39:38Z</time></trkpt><trkpt lat="32.07126483439945" lon="-5.939361328174316"><ele>1464.3333333333335</ele><time>2026-05-04T08:39:39Z</time></trkpt><trkpt lat="32.07132571024027" lon="-5.939434026485016"><ele>1463.6666666666667</ele><time>2026-05-04T08:39:40Z</time></trkpt><trkpt lat="32.0713901280667" lon="-5.939511277091601"><ele>1463.0</ele><time>2026-05-04T08:39:41Z</time></trkpt><trkpt lat="32.07145438211308" lon="-5.93959315812036"><ele>1463.0</ele><time>2026-05-04T08:39:42Z</time></trkpt><trkpt lat="32.07150816927794" lon="-5.939683393881379"><ele>1463.0</ele><time>2026-05-04T08:39:43Z</time></trkpt><trkpt lat="32.07157076180325" lon="-5.939759096107563"><ele>1463.0</ele><time>2026-05-04T08:39:44Z</time></trkpt><trkpt lat="32.071634108846965" lon="-5.939831271932726"><ele>1463.0</ele><time>2026-05-04T08:39:45Z</time></trkpt><trkpt lat="32.07169572881851" lon="-5.93989925206621"><ele>1463.0</ele><time>2026-05-04T08:39:46Z</time></trkpt><trkpt lat="32.071755923225446" lon="-5.939966339698341"><ele>1463.0</ele><time>2026-05-04T08:39:47Z</time></trkpt><trkpt lat="32.0718247722694" lon="-5.940028210199581"><ele>1462.8333333333335</ele><time>2026-05-04T08:39:48Z</time></trkpt><trkpt lat="32.07188123825234" lon="-5.94010922294451"><ele>1462.6666666666667</ele><time>2026-05-04T08:39:49Z</time></trkpt><trkpt lat="32.0719451623532" lon="-5.940185827441338"><ele>1462.5</ele><time>2026-05-04T08:39:50Z</time></trkpt><trkpt lat="32.07200813571278" lon="-5.940260091140714"><ele>1462.3333333333333</ele><time>2026-05-04T08:39:51Z</time></trkpt><trkpt lat="32.07206947930989" lon="-5.94033245365354"><ele>1462.1666666666665</ele><time>2026-05-04T08:39:52Z</time></trkpt><trkpt lat="32.07212744346316" lon="-5.940398262838034"><ele>1462.0</ele><time>2026-05-04T08:39:53Z</time></trkpt><trkpt lat="32.07218078256716" lon="-5.940458774678205"><ele>1462.0</ele><time>2026-05-04T08:39:54Z</time></trkpt><trkpt lat="32.072234681650194" lon="-5.940519921801963"><ele>1462.0</ele><time>2026-05-04T08:39:55Z</time></trkpt><trkpt lat="32.072283658594024" lon="-5.940575488126753"><ele>1462.0</ele><time>2026-05-04T08:39:56Z</time></trkpt><trkpt lat="32.07233477137337" lon="-5.940633492988679"><ele>1462.0</ele><time>2026-05-04T08:39:57Z</time></trkpt><trkpt lat="32.07238980443008" lon="-5.940695946749127"><ele>1462.0</ele><time>2026-05-04T08:39:58Z</time></trkpt><trkpt lat="32.07244301909341" lon="-5.940757358813412"><ele>1462.0</ele><time>2026-05-04T08:39:59Z</time></trkpt><trkpt lat="32.072498344087215" lon="-5.940818955814886"><ele>1462.0</ele><time>2026-05-04T08:40:00Z</time></trkpt><trkpt lat="32.0725737309001" lon="-5.94087271178442"><ele>1465.0</ele><time>2026-05-04T08:40:01Z</time></trkpt><trkpt lat="32.072639916377746" lon="-5.9409182274754"><ele>1468.0</ele><time>2026-05-04T08:40:02Z</time></trkpt><trkpt lat="32.07269772284447" lon="-5.940957828930582"><ele>1471.0</ele><time>2026-05-04T08:40:03Z</time></trkpt><trkpt lat="32.07276252950747" lon="-5.940977919396768"><ele>1474.0</ele><time>2026-05-04T08:40:04Z</time></trkpt><trkpt lat="32.0728508462124" lon="-5.941014203487351"><ele>1477.0</ele><time>2026-05-04T08:40:06Z</time></trkpt><trkpt lat="32.07293270882953" lon="-5.941048941854237"><ele>1480.0</ele><time>2026-05-04T08:40:25Z</time></trkpt><trkpt lat="32.0730461788592" lon="-5.9410962425047655"><ele>1480.0</ele><time>2026-05-04T08:40:27Z</time></trkpt><trkpt lat="32.07312480831919" lon="-5.941128834654023"><ele>1480.0</ele><time>2026-05-04T08:40:28Z</time></trkpt><trkpt lat="32.073211258864056" lon="-5.941165409844124"><ele>1480.0</ele><time>2026-05-04T08:40:29Z</time></trkpt><trkpt lat="32.073288826732174" lon="-5.941222918582378"><ele>1480.0</ele><time>2026-05-04T08:40:30Z</time></trkpt><trkpt lat="32.0733804998082" lon="-5.941286624443749"><ele>1480.0</ele><time>2026-05-04T08:40:31Z</time></trkpt><trkpt lat="32.07347389262108" lon="-5.941351525360255"><ele>1479.2</ele><time>2026-05-04T08:40:32Z</time></trkpt><trkpt lat="32.07356674725893" lon="-5.941420397530217"><ele>1478.4</ele><time>2026-05-04T08:40:33Z</time></trkpt><trkpt lat="32.07360889017283" lon="-5.9415188249042385"><ele>1477.6</ele><time>2026-05-04T08:40:34Z</time></trkpt><trkpt lat="32.07367928309623" lon="-5.941614652569319"><ele>1476.8</ele><time>2026-05-04T08:40:35Z</time></trkpt><trkpt lat="32.07374361050478" lon="-5.941706251173369"><ele>1476.0</ele><time>2026-05-04T08:40:36Z</time></trkpt><trkpt lat="32.07380737780318" lon="-5.941796051354632"><ele>1478.8</ele><time>2026-05-04T08:40:37Z</time></trkpt><trkpt lat="32.07386921138675" lon="-5.941883268620798"><ele>1481.6</ele><time>2026-05-04T08:40:38Z</time></trkpt><trkpt lat="32.07392867370499" lon="-5.941967140763583"><ele>1484.4</ele><time>2026-05-04T08:40:39Z</time></trkpt><trkpt lat="32.07401654818047" lon="-5.942048304682791"><ele>1487.2</ele><time>2026-05-04T08:40:40Z</time></trkpt><trkpt lat="32.074092371014885" lon="-5.942115762011404"><ele>1490.0</ele><time>2026-05-04T08:40:41Z</time></trkpt><trkpt lat="32.07417368128912" lon="-5.942188101466839"><ele>1490.0</ele><time>2026-05-04T08:40:42Z</time></trkpt><trkpt lat="32.07425873004373" lon="-5.9422633854719"><ele>1490.0</ele><time>2026-05-04T08:40:43Z</time></trkpt><trkpt lat="32.074347710824135" lon="-5.942341698994978"><ele>1490.0</ele><time>2026-05-04T08:40:44Z</time></trkpt><trkpt lat="32.0744383625634" lon="-5.942421781365059"><ele>1490.0</ele><time>2026-05-04T08:40:45Z</time></trkpt><trkpt lat="32.074532236779866" lon="-5.942504751628666"><ele>1490.0</ele><time>2026-05-04T08:40:46Z</time></trkpt><trkpt lat="32.07462083871955" lon="-5.9425822716939125"><ele>1489.0</ele><time>2026-05-04T08:40:47Z</time></trkpt><trkpt lat="32.07470405974012" lon="-5.9426556376401"><ele>1488.0</ele><time>2026-05-04T08:40:48Z</time></trkpt><trkpt lat="32.07479301764512" lon="-5.942734433763062"><ele>1487.0</ele><time>2026-05-04T08:40:49Z</time></trkpt><trkpt lat="32.07488457249517" lon="-5.942814767725203"><ele>1486.0</ele><time>2026-05-04T08:40:50Z</time></trkpt><trkpt lat="32.07496395496937" lon="-5.942890798787658"><ele>1485.0</ele><time>2026-05-04T08:40:51Z</time></trkpt><trkpt lat="32.075041233238636" lon="-5.942965154475671"><ele>1485.0</ele><time>2026-05-04T08:40:52Z</time></trkpt><trkpt lat="32.0751172182833" lon="-5.943037616545774"><ele>1485.0</ele><time>2026-05-04T08:40:53Z</time></trkpt><trkpt lat="32.075193632051096" lon="-5.943111648519637"><ele>1485.0</ele><time>2026-05-04T08:40:54Z</time></trkpt><trkpt lat="32.0752704062422" lon="-5.943186024555945"><ele>1485.0</ele><time>2026-05-04T08:40:55Z</time></trkpt><trkpt lat="32.07534379404357" lon="-5.943255177537612"><ele>1485.0</ele><time>2026-05-04T08:40:56Z</time></trkpt><trkpt lat="32.07541796982358" lon="-5.943328263021896"><ele>1489.1666666666667</ele><time>2026-05-04T08:40:57Z</time></trkpt><trkpt lat="32.07546861941992" lon="-5.943392229600427"><ele>1493.3333333333333</ele><time>2026-05-04T08:40:58Z</time></trkpt><trkpt lat="32.07551595406855" lon="-5.943481121099408"><ele>1497.5</ele><time>2026-05-04T08:40:59Z</time></trkpt><trkpt lat="32.07556047386532" lon="-5.943564774516654"><ele>1501.6666666666665</ele><time>2026-05-04T08:41:00Z</time></trkpt><trkpt lat="32.07560201110728" lon="-5.943645063338743"><ele>1505.8333333333333</ele><time>2026-05-04T08:41:01Z</time></trkpt><trkpt lat="32.0756416261236" lon="-5.943718965881703"><ele>1510.0</ele><time>2026-05-04T08:41:02Z</time></trkpt><trkpt lat="32.0756835918406" lon="-5.9437979978560955"><ele>1510.0</ele><time>2026-05-04T08:41:03Z</time></trkpt><trkpt lat="32.07572652771576" lon="-5.9438790998904905"><ele>1510.0</ele><time>2026-05-04T08:41:04Z</time></trkpt><trkpt lat="32.07577428498406" lon="-5.943968980206787"><ele>1510.0</ele><time>2026-05-04T08:41:05Z</time></trkpt><trkpt lat="32.07582550849916" lon="-5.944065863585105"><ele>1510.0</ele><time>2026-05-04T08:41:06Z</time></trkpt><trkpt lat="32.07587656935078" lon="-5.944162280593643"><ele>1510.0</ele><time>2026-05-04T08:41:07Z</time></trkpt><trkpt lat="32.07594100409556" lon="-5.944248793285066"><ele>1501.6</ele><time>2026-05-04T08:41:08Z</time></trkpt><trkpt lat="32.075968613576265" lon="-5.944364897600704"><ele>1493.2</ele><time>2026-05-04T08:41:09Z</time></trkpt><trkpt lat="32.075995195857175" lon="-5.944485875809967"><ele>1484.8000000000002</ele><time>2026-05-04T08:41:10Z</time></trkpt><trkpt lat="32.07603630144318" lon="-5.944592604503179"><ele>1476.4</ele><time>2026-05-04T08:41:11Z</time></trkpt><trkpt lat="32.076064703957094" lon="-5.944702395078583"><ele>1468.0</ele><time>2026-05-04T08:41:12Z</time></trkpt><trkpt lat="32.076043874661096" lon="-5.94483262438626"><ele>1468.0</ele><time>2026-05-04T08:41:13Z</time></trkpt><trkpt lat="32.07603613049716" lon="-5.944947101470203"><ele>1468.0</ele><time>2026-05-04T08:41:14Z</time></trkpt><trkpt lat="32.076023919616574" lon="-5.945058919595379"><ele>1468.0</ele><time>2026-05-04T08:41:15Z</time></trkpt><trkpt lat="32.076012338254884" lon="-5.945167385956475"><ele>1468.0</ele><time>2026-05-04T08:41:16Z</time></trkpt><trkpt lat="32.07600828197208" lon="-5.945271657003997"><ele>1468.0</ele><time>2026-05-04T08:41:17Z</time></trkpt><trkpt lat="32.075999806280656" lon="-5.945370652230813"><ele>1468.1666666666665</ele><time>2026-05-04T08:41:18Z</time></trkpt><trkpt lat="32.07599373323591" lon="-5.94546242877022"><ele>1468.3333333333333</ele><time>2026-05-04T08:41:19Z</time></trkpt><trkpt lat="32.07599448816473" lon="-5.9455426723224365"><ele>1468.5</ele><time>2026-05-04T08:41:20Z</time></trkpt><trkpt lat="32.07597762327001" lon="-5.945653516122016"><ele>1468.6666666666667</ele><time>2026-05-04T08:41:22Z</time></trkpt><trkpt lat="32.075982162027096" lon="-5.945769506092837"><ele>1468.8333333333335</ele><time>2026-05-04T08:41:24Z</time></trkpt><trkpt lat="32.075959813396096" lon="-5.945849462240845"><ele>1469.0</ele><time>2026-05-04T08:41:25Z</time></trkpt><trkpt lat="32.07592676227445" lon="-5.945941960292269"><ele>1469.0</ele><time>2026-05-04T08:41:26Z</time></trkpt><trkpt lat="32.07591806838175" lon="-5.946040627851558"><ele>1469.0</ele><time>2026-05-04T08:41:27Z</time></trkpt><trkpt lat="32.075895095662545" lon="-5.946143864670006"><ele>1469.0</ele><time>2026-05-04T08:41:28Z</time></trkpt><trkpt lat="32.07587053815292" lon="-5.946254635291428"><ele>1469.0</ele><time>2026-05-04T08:41:29Z</time></trkpt><trkpt lat="32.075837099531086" lon="-5.946356555621627"><ele>1469.0</ele><time>2026-05-04T08:41:30Z</time></trkpt><trkpt lat="32.075814801061505" lon="-5.946451385653287"><ele>1469.0</ele><time>2026-05-04T08:41:31Z</time></trkpt><trkpt lat="32.075799981585064" lon="-5.946541334623325"><ele>1469.0</ele><time>2026-05-04T08:41:32Z</time></trkpt><trkpt lat="32.07578389648835" lon="-5.946635736734543"><ele>1469.0</ele><time>2026-05-04T08:41:33Z</time></trkpt><trkpt lat="32.07579779863433" lon="-5.9467158458759455"><ele>1469.0</ele><time>2026-05-04T08:41:34Z</time></trkpt><trkpt lat="32.07580502429217" lon="-5.946808955474907"><ele>1469.0</ele><time>2026-05-04T08:41:35Z</time></trkpt><trkpt lat="32.075803082177494" lon="-5.946917517007394"><ele>1469.0</ele><time>2026-05-04T08:41:36Z</time></trkpt><trkpt lat="32.07582286756283" lon="-5.947026086212162"><ele>1469.0</ele><time>2026-05-04T08:41:37Z</time></trkpt><trkpt lat="32.07581857076627" lon="-5.947180782550764"><ele>1468.25</ele><time>2026-05-04T08:41:38Z</time></trkpt><trkpt lat="32.07586361772201" lon="-5.947301688121721"><ele>1467.5</ele><time>2026-05-04T08:41:39Z</time></trkpt><trkpt lat="32.07591218421144" lon="-5.947430246852098"><ele>1466.75</ele><time>2026-05-04T08:41:40Z</time></trkpt><trkpt lat="32.07596073677611" lon="-5.947556761508162"><ele>1466.0</ele><time>2026-05-04T08:41:41Z</time></trkpt><trkpt lat="32.07600574018409" lon="-5.947675900218159"><ele>1465.1999999999998</ele><time>2026-05-04T08:41:42Z</time></trkpt><trkpt lat="32.07604353728792" lon="-5.9477824117325655"><ele>1464.3999999999999</ele><time>2026-05-04T08:41:43Z</time></trkpt><trkpt lat="32.07606161653176" lon="-5.947893996803143"><ele>1463.6</ele><time>2026-05-04T08:41:44Z</time></trkpt><trkpt lat="32.07608165094938" lon="-5.9480191498663215"><ele>1462.8</ele><time>2026-05-04T08:41:45Z</time></trkpt><trkpt lat="32.07610070917887" lon="-5.948137759604223"><ele>1462.0</ele><time>2026-05-04T08:41:46Z</time></trkpt><trkpt lat="32.076111083917475" lon="-5.9482509032253095"><ele>1464.8</ele><time>2026-05-04T08:41:47Z</time></trkpt><trkpt lat="32.076137113087405" lon="-5.948379837191321"><ele>1467.6</ele><time>2026-05-04T08:41:48Z</time></trkpt><trkpt lat="32.076146037832466" lon="-5.948508365059965"><ele>1470.3999999999999</ele><time>2026-05-04T08:41:49Z</time></trkpt><trkpt lat="32.076142794690114" lon="-5.9486353216667425"><ele>1473.1999999999998</ele><time>2026-05-04T08:41:50Z</time></trkpt><trkpt lat="32.076148584246994" lon="-5.9487524662563"><ele>1476.0</ele><time>2026-05-04T08:41:51Z</time></trkpt><trkpt lat="32.07615300006365" lon="-5.948839427190482"><ele>1476.0</ele><time>2026-05-04T08:41:52Z</time></trkpt><trkpt lat="32.07615836756879" lon="-5.948941767209122"><ele>1476.0</ele><time>2026-05-04T08:41:53Z</time></trkpt><trkpt lat="32.0760948978726" lon="-5.9490937986602805"><ele>1476.0</ele><time>2026-05-04T08:41:55Z</time></trkpt><trkpt lat="32.07609075605275" lon="-5.949219529629424"><ele>1476.0</ele><time>2026-05-04T08:41:56Z</time></trkpt><trkpt lat="32.076089039308364" lon="-5.949337813678095"><ele>1476.0</ele><time>2026-05-04T08:41:57Z</time></trkpt><trkpt lat="32.0760878463719" lon="-5.94944719751447"><ele>1478.4</ele><time>2026-05-04T08:41:58Z</time></trkpt><trkpt lat="32.076086968402095" lon="-5.949557092052507"><ele>1480.8</ele><time>2026-05-04T08:41:59Z</time></trkpt><trkpt lat="32.076065389530605" lon="-5.949663265546634"><ele>1483.2</ele><time>2026-05-04T08:42:00Z</time></trkpt><trkpt lat="32.07604337483733" lon="-5.949767098835972"><ele>1485.6000000000001</ele><time>2026-05-04T08:42:01Z</time></trkpt><trkpt lat="32.076020751621606" lon="-5.94987495040215"><ele>1488.0</ele><time>2026-05-04T08:42:02Z</time></trkpt><trkpt lat="32.07599910943746" lon="-5.94997802049903"><ele>1491.0</ele><time>2026-05-04T08:42:03Z</time></trkpt><trkpt lat="32.07597826343574" lon="-5.950071195431898"><ele>1494.0</ele><time>2026-05-04T08:42:04Z</time></trkpt><trkpt lat="32.075958765720394" lon="-5.950166368198601"><ele>1497.0</ele><time>2026-05-04T08:42:05Z</time></trkpt><trkpt lat="32.07593924462502" lon="-5.950259399911254"><ele>1500.0</ele><time>2026-05-04T08:42:06Z</time></trkpt><trkpt lat="32.07591852720979" lon="-5.950357766442604"><ele>1503.0</ele><time>2026-05-04T08:42:07Z</time></trkpt><trkpt lat="32.07589877743027" lon="-5.9504581886088195"><ele>1506.0</ele><time>2026-05-04T08:42:08Z</time></trkpt><trkpt lat="32.07588065364966" lon="-5.950558958346233"><ele>1506.0</ele><time>2026-05-04T08:42:09Z</time></trkpt><trkpt lat="32.07586291617016" lon="-5.95066022124292"><ele>1506.0</ele><time>2026-05-04T08:42:10Z</time></trkpt><trkpt lat="32.07586567000927" lon="-5.950776903257926"><ele>1506.0</ele><time>2026-05-04T08:42:11Z</time></trkpt><trkpt lat="32.075874427905546" lon="-5.950874150918421"><ele>1506.0</ele><time>2026-05-04T08:42:12Z</time></trkpt><trkpt lat="32.07588237182229" lon="-5.950962360217749"><ele>1506.0</ele><time>2026-05-04T08:42:13Z</time></trkpt><trkpt lat="32.07589239683796" lon="-5.951047544349734"><ele>1506.0</ele><time>2026-05-04T08:42:14Z</time></trkpt><trkpt lat="32.07590716574598" lon="-5.95114013620556"><ele>1501.4</ele><time>2026-05-04T08:42:15Z</time></trkpt><trkpt lat="32.075902150349414" lon="-5.951223021457319"><ele>1496.8</ele><time>2026-05-04T08:42:16Z</time></trkpt><trkpt lat="32.07590309432498" lon="-5.951347711764049"><ele>1492.2</ele><time>2026-05-04T08:42:18Z</time></trkpt><trkpt lat="32.07592335050436" lon="-5.951492373255819"><ele>1487.6000000000001</ele><time>2026-05-04T08:42:20Z</time></trkpt><trkpt lat="32.0759668160154" lon="-5.951628458058449"><ele>1483.0</ele><time>2026-05-04T08:42:22Z</time></trkpt><trkpt lat="32.075989154829166" lon="-5.951710203406334"><ele>1481.0</ele><time>2026-05-04T08:42:23Z</time></trkpt><trkpt lat="32.076009865854004" lon="-5.951785992099118"><ele>1479.0</ele><time>2026-05-04T08:42:24Z</time></trkpt><trkpt lat="32.07603338683588" lon="-5.951875267951788"><ele>1477.0</ele><time>2026-05-04T08:42:25Z</time></trkpt><trkpt lat="32.076090772224156" lon="-5.952014753899159"><ele>1475.0</ele><time>2026-05-04T08:42:27Z</time></trkpt><trkpt lat="32.07611880741033" lon="-5.952088785415203"><ele>1473.0</ele><time>2026-05-04T08:42:28Z</time></trkpt><trkpt lat="32.0761522198743" lon="-5.952174633163569"><ele>1471.0</ele><time>2026-05-04T08:42:29Z</time></trkpt><trkpt lat="32.076169318296856" lon="-5.9522796314915265"><ele>1471.0</ele><time>2026-05-04T08:42:30Z</time></trkpt><trkpt lat="32.076186767764995" lon="-5.952380024926598"><ele>1471.0</ele><time>2026-05-04T08:42:31Z</time></trkpt><trkpt lat="32.07620437802131" lon="-5.952477628053618"><ele>1471.0</ele><time>2026-05-04T08:42:32Z</time></trkpt><trkpt lat="32.07622262957449" lon="-5.952575541819689"><ele>1471.0</ele><time>2026-05-04T08:42:33Z</time></trkpt><trkpt lat="32.076277076977945" lon="-5.9526634828762655"><ele>1471.0</ele><time>2026-05-04T08:42:34Z</time></trkpt><trkpt lat="32.07632503104433" lon="-5.952750914937177"><ele>1471.0</ele><time>2026-05-04T08:42:35Z</time></trkpt><trkpt lat="32.07637905478654" lon="-5.952840811492505"><ele>1469.5</ele><time>2026-05-04T08:42:36Z</time></trkpt><trkpt lat="32.07643288511196" lon="-5.952929931927133"><ele>1468.0</ele><time>2026-05-04T08:42:37Z</time></trkpt><trkpt lat="32.07648504916147" lon="-5.953016236466304"><ele>1466.5</ele><time>2026-05-04T08:42:38Z</time></trkpt><trkpt lat="32.07653618634365" lon="-5.953095126812373"><ele>1465.0</ele><time>2026-05-04T08:42:39Z</time></trkpt><trkpt lat="32.076587928520894" lon="-5.953174012424878"><ele>1463.5</ele><time>2026-05-04T08:42:40Z</time></trkpt><trkpt lat="32.07663857258504" lon="-5.953251223860289"><ele>1462.0</ele><time>2026-05-04T08:42:41Z</time></trkpt><trkpt lat="32.076691900821324" lon="-5.953332527608129"><ele>1465.3333333333333</ele><time>2026-05-04T08:42:42Z</time></trkpt><trkpt lat="32.076747113899316" lon="-5.9534166344183"><ele>1468.6666666666665</ele><time>2026-05-04T08:42:43Z</time></trkpt><trkpt lat="32.076804144663804" lon="-5.9535034938534235"><ele>1472.0</ele><time>2026-05-04T08:42:44Z</time></trkpt><trkpt lat="32.076851086500184" lon="-5.953594089483169"><ele>1475.3333333333333</ele><time>2026-05-04T08:42:45Z</time></trkpt><trkpt lat="32.076903941529615" lon="-5.953672490679907"><ele>1478.6666666666667</ele><time>2026-05-04T08:42:46Z</time></trkpt><trkpt lat="32.076958784494906" lon="-5.953753375890952"><ele>1482.0</ele><time>2026-05-04T08:42:47Z</time></trkpt><trkpt lat="32.07702480741971" lon="-5.953824522632206"><ele>1482.0</ele><time>2026-05-04T08:42:48Z</time></trkpt><trkpt lat="32.07708417256759" lon="-5.953898252651281"><ele>1482.0</ele><time>2026-05-04T08:42:49Z</time></trkpt><trkpt lat="32.07714730589355" lon="-5.953967166455034"><ele>1482.0</ele><time>2026-05-04T08:42:50Z</time></trkpt><trkpt lat="32.077202960593596" lon="-5.954034445595888"><ele>1482.0</ele><time>2026-05-04T08:42:51Z</time></trkpt><trkpt lat="32.0772439282656" lon="-5.9541252478147655"><ele>1482.0</ele><time>2026-05-04T08:42:52Z</time></trkpt><trkpt lat="32.07727129158583" lon="-5.954222877446945"><ele>1482.0</ele><time>2026-05-04T08:42:53Z</time></trkpt><trkpt lat="32.0773221066614" lon="-5.95430664799044"><ele>1478.1999999999998</ele><time>2026-05-04T08:42:54Z</time></trkpt><trkpt lat="32.07735276890794" lon="-5.9544076250558735"><ele>1474.4</ele><time>2026-05-04T08:42:55Z</time></trkpt><trkpt lat="32.0774208061339" lon="-5.954503809511733"><ele>1470.6</ele><time>2026-05-04T08:42:56Z</time></trkpt><trkpt lat="32.07748953421504" lon="-5.954603624383268"><ele>1466.8000000000002</ele><time>2026-05-04T08:42:57Z</time></trkpt><trkpt lat="32.07755262756298" lon="-5.9547035770526575"><ele>1463.0</ele><time>2026-05-04T08:42:58Z</time></trkpt><trkpt lat="32.07760846602565" lon="-5.954804459135103"><ele>1467.2</ele><time>2026-05-04T08:42:59Z</time></trkpt><trkpt lat="32.077672565593" lon="-5.954901576334435"><ele>1471.4</ele><time>2026-05-04T08:43:00Z</time></trkpt><trkpt lat="32.07773772463524" lon="-5.955000955341931"><ele>1475.6000000000001</ele><time>2026-05-04T08:43:01Z</time></trkpt><trkpt lat="32.07780036042901" lon="-5.95510102073811"><ele>1479.8000000000002</ele><time>2026-05-04T08:43:02Z</time></trkpt><trkpt lat="32.07786208810429" lon="-5.955191350892625"><ele>1484.0</ele><time>2026-05-04T08:43:03Z</time></trkpt><trkpt lat="32.077916383059126" lon="-5.955290188840378"><ele>1484.0</ele><time>2026-05-04T08:43:04Z</time></trkpt><trkpt lat="32.07798339591178" lon="-5.95537589660566"><ele>1484.0</ele><time>2026-05-04T08:43:05Z</time></trkpt><trkpt lat="32.07804369511984" lon="-5.9554657497990755"><ele>1484.0</ele><time>2026-05-04T08:43:06Z</time></trkpt><trkpt lat="32.078103074131" lon="-5.955552355038798"><ele>1484.0</ele><time>2026-05-04T08:43:07Z</time></trkpt><trkpt lat="32.078142475195506" lon="-5.9556537482111525"><ele>1484.0</ele><time>2026-05-04T08:43:08Z</time></trkpt><trkpt lat="32.0781855843406" lon="-5.955751132978103"><ele>1484.0</ele><time>2026-05-04T08:43:09Z</time></trkpt><trkpt lat="32.078223125413565" lon="-5.955848345786873"><ele>1484.0</ele><time>2026-05-04T08:43:10Z</time></trkpt><trkpt lat="32.078246555645244" lon="-5.955944454851104"><ele>1484.0</ele><time>2026-05-04T08:43:11Z</time></trkpt><trkpt lat="32.078267714329506" lon="-5.956029995465243"><ele>1484.0</ele><time>2026-05-04T08:43:12Z</time></trkpt><trkpt lat="32.07828851806353" lon="-5.956117170175659"><ele>1484.0</ele><time>2026-05-04T08:43:13Z</time></trkpt><trkpt lat="32.07830882246575" lon="-5.956203162015965"><ele>1484.0</ele><time>2026-05-04T08:43:14Z</time></trkpt><trkpt lat="32.078323276361516" lon="-5.956285047078738"><ele>1489.8333333333335</ele><time>2026-05-04T08:43:15Z</time></trkpt><trkpt lat="32.07833419113844" lon="-5.956371496297846"><ele>1495.6666666666667</ele><time>2026-05-04T08:43:16Z</time></trkpt><trkpt lat="32.07836780235148" lon="-5.956449270575245"><ele>1501.5</ele><time>2026-05-04T08:43:17Z</time></trkpt><trkpt lat="32.07837424442216" lon="-5.95653133990365"><ele>1507.3333333333333</ele><time>2026-05-04T08:43:18Z</time></trkpt><trkpt lat="32.07840355184036" lon="-5.956606190146829"><ele>1513.1666666666665</ele><time>2026-05-04T08:43:19Z</time></trkpt><trkpt lat="32.07845891294458" lon="-5.956715972471745"><ele>1519.0</ele><time>2026-05-04T08:43:21Z</time></trkpt><trkpt lat="32.078474404209715" lon="-5.9568036203105175"><ele>1519.0</ele><time>2026-05-04T08:43:23Z</time></trkpt><trkpt lat="32.078469632905026" lon="-5.956882963736309"><ele>1519.0</ele><time>2026-05-04T08:43:25Z</time></trkpt><trkpt lat="32.07845779692361" lon="-5.956964099001687"><ele>1519.0</ele><time>2026-05-04T08:43:27Z</time></trkpt><trkpt lat="32.07844640484982" lon="-5.957041939654317"><ele>1519.0</ele><time>2026-05-04T08:43:28Z</time></trkpt><trkpt lat="32.0784353653403" lon="-5.957138763887163"><ele>1519.0</ele><time>2026-05-04T08:43:29Z</time></trkpt><trkpt lat="32.07842965912823" lon="-5.957232931089277"><ele>1519.0</ele><time>2026-05-04T08:43:30Z</time></trkpt><trkpt lat="32.07843379212399" lon="-5.957333806907948"><ele>1519.0</ele><time>2026-05-04T08:43:31Z</time></trkpt><trkpt lat="32.078449885588995" lon="-5.957435977592134"><ele>1519.0</ele><time>2026-05-04T08:43:32Z</time></trkpt><trkpt lat="32.0784764822569" lon="-5.957533226171771"><ele>1519.0</ele><time>2026-05-04T08:43:33Z</time></trkpt><trkpt lat="32.07848386925957" lon="-5.95763237502755"><ele>1519.0</ele><time>2026-05-04T08:43:34Z</time></trkpt><trkpt lat="32.07850998336982" lon="-5.957723670384018"><ele>1519.0</ele><time>2026-05-04T08:43:35Z</time></trkpt><trkpt lat="32.078530356507486" lon="-5.957827271090984"><ele>1519.0</ele><time>2026-05-04T08:43:36Z</time></trkpt><trkpt lat="32.07854997390068" lon="-5.957932907045021"><ele>1516.8000000000002</ele><time>2026-05-04T08:43:37Z</time></trkpt><trkpt lat="32.07857150306937" lon="-5.958038263397297"><ele>1514.6000000000001</ele><time>2026-05-04T08:43:38Z</time></trkpt><trkpt lat="32.0785956218781" lon="-5.958148074130735"><ele>1512.4</ele><time>2026-05-04T08:43:39Z</time></trkpt><trkpt lat="32.07862458769966" lon="-5.9582539689193945"><ele>1510.2</ele><time>2026-05-04T08:43:40Z</time></trkpt><trkpt lat="32.078684141999055" lon="-5.958348653046481"><ele>1508.0</ele><time>2026-05-04T08:43:41Z</time></trkpt><trkpt lat="32.0787303836046" lon="-5.958454715141663"><ele>1505.5</ele><time>2026-05-04T08:43:42Z</time></trkpt><trkpt lat="32.07877653142521" lon="-5.958560562144552"><ele>1503.0</ele><time>2026-05-04T08:43:43Z</time></trkpt><trkpt lat="32.07881609864209" lon="-5.958670326231708"><ele>1500.5</ele><time>2026-05-04T08:43:44Z</time></trkpt><trkpt lat="32.078838433317664" lon="-5.958761940113725"><ele>1498.0</ele><time>2026-05-04T08:43:45Z</time></trkpt><trkpt lat="32.07886110783287" lon="-5.958853655912676"><ele>1495.5</ele><time>2026-05-04T08:43:46Z</time></trkpt><trkpt lat="32.07887997621043" lon="-5.958951663189869"><ele>1493.0</ele><time>2026-05-04T08:43:47Z</time></trkpt><trkpt lat="32.0789277324534" lon="-5.959029781075683"><ele>1493.0</ele><time>2026-05-04T08:43:48Z</time></trkpt><trkpt lat="32.07897547319393" lon="-5.959086416611053"><ele>1493.0</ele><time>2026-05-04T08:43:49Z</time></trkpt><trkpt lat="32.07897586917177" lon="-5.959184949757624"><ele>1493.0</ele><time>2026-05-04T08:43:50Z</time></trkpt><trkpt lat="32.0789837144837" lon="-5.959285823976566"><ele>1493.0</ele><time>2026-05-04T08:43:51Z</time></trkpt><trkpt lat="32.07902667352466" lon="-5.959382616795374"><ele>1493.0</ele><time>2026-05-04T08:43:52Z</time></trkpt><trkpt lat="32.07906187643619" lon="-5.9594879224849375"><ele>1493.0</ele><time>2026-05-04T08:43:53Z</time></trkpt><trkpt lat="32.07911712314585" lon="-5.959581082627364"><ele>1495.2</ele><time>2026-05-04T08:43:54Z</time></trkpt><trkpt lat="32.07917483217514" lon="-5.959686208429246"><ele>1497.4</ele><time>2026-05-04T08:43:55Z</time></trkpt><trkpt lat="32.079234406383875" lon="-5.959794854329511"><ele>1499.6000000000001</ele><time>2026-05-04T08:43:56Z</time></trkpt><trkpt lat="32.07929419420602" lon="-5.95990446306481"><ele>1501.8000000000002</ele><time>2026-05-04T08:43:57Z</time></trkpt><trkpt lat="32.07935401809907" lon="-5.960014552991676"><ele>1504.0</ele><time>2026-05-04T08:43:58Z</time></trkpt><trkpt lat="32.079413551834605" lon="-5.9601231118301135"><ele>1504.0</ele><time>2026-05-04T08:43:59Z</time></trkpt><trkpt lat="32.079462143762264" lon="-5.960235099309531"><ele>1504.0</ele><time>2026-05-04T08:44:00Z</time></trkpt><trkpt lat="32.07954454714121" lon="-5.960315750221112"><ele>1504.0</ele><time>2026-05-04T08:44:01Z</time></trkpt><trkpt lat="32.07961406867201" lon="-5.9604067921453225"><ele>1504.0</ele><time>2026-05-04T08:44:02Z</time></trkpt><trkpt lat="32.07967195543339" lon="-5.96049918377884"><ele>1504.0</ele><time>2026-05-04T08:44:03Z</time></trkpt><trkpt lat="32.079763781458034" lon="-5.960509054370708"><ele>1504.0</ele><time>2026-05-04T08:44:04Z</time></trkpt><trkpt lat="32.079854349599685" lon="-5.960546545417849"><ele>1504.0</ele><time>2026-05-04T08:44:05Z</time></trkpt><trkpt lat="32.079948998273345" lon="-5.9605864724768"><ele>1504.0</ele><time>2026-05-04T08:44:06Z</time></trkpt><trkpt lat="32.080039405566616" lon="-5.960624611270754"><ele>1504.0</ele><time>2026-05-04T08:44:07Z</time></trkpt><trkpt lat="32.080130618921444" lon="-5.960667211204876"><ele>1504.0</ele><time>2026-05-04T08:44:08Z</time></trkpt><trkpt lat="32.080202884561054" lon="-5.960706142287241"><ele>1506.5</ele><time>2026-05-04T08:44:09Z</time></trkpt><trkpt lat="32.08032292116605" lon="-5.960743939121271"><ele>1509.0</ele><time>2026-05-04T08:44:11Z</time></trkpt><trkpt lat="32.08042332159152" lon="-5.960785742480012"><ele>1511.5</ele><time>2026-05-04T08:44:13Z</time></trkpt><trkpt lat="32.08038993492473" lon="-5.960944950648454"><ele>1514.0</ele><time>2026-05-04T08:44:14Z</time></trkpt><trkpt lat="32.080391955321026" lon="-5.961050838146879"><ele>1514.0</ele><time>2026-05-04T08:44:15Z</time></trkpt><trkpt lat="32.08039749063628" lon="-5.9611679208888475"><ele>1514.0</ele><time>2026-05-04T08:44:16Z</time></trkpt><trkpt lat="32.08039374612073" lon="-5.961265223486678"><ele>1514.0</ele><time>2026-05-04T08:44:17Z</time></trkpt><trkpt lat="32.08039492054794" lon="-5.961359748697496"><ele>1514.0</ele><time>2026-05-04T08:44:18Z</time></trkpt><trkpt lat="32.08037921479404" lon="-5.9614484512175405"><ele>1514.0</ele><time>2026-05-04T08:44:19Z</time></trkpt><trkpt lat="32.08040992770439" lon="-5.961529420687097"><ele>1514.0</ele><time>2026-05-04T08:44:20Z</time></trkpt><trkpt lat="32.080496959995216" lon="-5.961545342091331"><ele>1514.0</ele><time>2026-05-04T08:44:21Z</time></trkpt><trkpt lat="32.0805571588885" lon="-5.9616042443941275"><ele>1514.0</ele><time>2026-05-04T08:44:22Z</time></trkpt><trkpt lat="32.080604286486185" lon="-5.961672867799992"><ele>1514.0</ele><time>2026-05-04T08:44:23Z</time></trkpt><trkpt lat="32.080662485457864" lon="-5.961721243405443"><ele>1514.0</ele><time>2026-05-04T08:44:24Z</time></trkpt><trkpt lat="32.08071681912587" lon="-5.961763063397144"><ele>1514.0</ele><time>2026-05-04T08:44:25Z</time></trkpt><trkpt lat="32.08072274497619" lon="-5.961890137382511"><ele>1514.0</ele><time>2026-05-04T08:44:26Z</time></trkpt><trkpt lat="32.08073767467934" lon="-5.962000378205521"><ele>1520.0</ele><time>2026-05-04T08:44:27Z</time></trkpt><trkpt lat="32.080746838879705" lon="-5.962113138023979"><ele>1526.0</ele><time>2026-05-04T08:44:28Z</time></trkpt><trkpt lat="32.08076785842023" lon="-5.962225082221705"><ele>1532.0</ele><time>2026-05-04T08:44:29Z</time></trkpt><trkpt lat="32.08080293364628" lon="-5.962330851675255"><ele>1538.0</ele><time>2026-05-04T08:44:30Z</time></trkpt><trkpt lat="32.080815272892316" lon="-5.962422915052261"><ele>1544.0</ele><time>2026-05-04T08:44:31Z</time></trkpt><trkpt lat="32.08094307374685" lon="-5.96240113248528"><ele>1544.0</ele><time>2026-05-04T08:44:32Z</time></trkpt><trkpt lat="32.081003159203085" lon="-5.9624450989595426"><ele>1544.0</ele><time>2026-05-04T08:44:33Z</time></trkpt><trkpt lat="32.08107560696749" lon="-5.962498613630598"><ele>1544.0</ele><time>2026-05-04T08:44:34Z</time></trkpt><trkpt lat="32.08116540136172" lon="-5.96256502153945"><ele>1544.0</ele><time>2026-05-04T08:44:35Z</time></trkpt><trkpt lat="32.08126300247327" lon="-5.962631227364051"><ele>1544.0</ele><time>2026-05-04T08:44:36Z</time></trkpt><trkpt lat="32.081340832994" lon="-5.9626947601327345"><ele>1548.8333333333333</ele><time>2026-05-04T08:44:37Z</time></trkpt><trkpt lat="32.081417786357264" lon="-5.962743757404147"><ele>1553.6666666666665</ele><time>2026-05-04T08:44:38Z</time></trkpt><trkpt lat="32.08148225060871" lon="-5.9628036846109165"><ele>1558.5</ele><time>2026-05-04T08:44:39Z</time></trkpt><trkpt lat="32.081511513028445" lon="-5.9628939056062205"><ele>1563.3333333333335</ele><time>2026-05-04T08:44:40Z</time></trkpt><trkpt lat="32.08156822625811" lon="-5.962976005084931"><ele>1568.1666666666667</ele><time>2026-05-04T08:44:41Z</time></trkpt><trkpt lat="32.081612331757825" lon="-5.9630692258481135"><ele>1573.0</ele><time>2026-05-04T08:44:42Z</time></trkpt><trkpt lat="32.081641702769225" lon="-5.963149328320262"><ele>1573.0</ele><time>2026-05-04T08:44:43Z</time></trkpt><trkpt lat="32.081680169006034" lon="-5.9632127326754185"><ele>1573.0</ele><time>2026-05-04T08:44:44Z</time></trkpt><trkpt lat="32.081761632591395" lon="-5.9633132234106085"><ele>1573.0</ele><time>2026-05-04T08:44:46Z</time></trkpt><trkpt lat="32.08177237323528" lon="-5.963465643568157"><ele>1573.0</ele><time>2026-05-04T08:44:48Z</time></trkpt><trkpt lat="32.08175228941106" lon="-5.9635835652023355"><ele>1573.0</ele><time>2026-05-04T08:44:49Z</time></trkpt><trkpt lat="32.0817260922924" lon="-5.9636810817422825"><ele>1570.5000000000002</ele><time>2026-05-04T08:44:50Z</time></trkpt><trkpt lat="32.081695467016246" lon="-5.963747073071809"><ele>1568.0</ele><time>2026-05-04T08:44:51Z</time></trkpt><trkpt lat="32.08179252885826" lon="-5.963850023776051"><ele>1565.5</ele><time>2026-05-04T08:44:53Z</time></trkpt><trkpt lat="32.081845648020206" lon="-5.963910420376686"><ele>1563.0</ele><time>2026-05-04T08:44:54Z</time></trkpt><trkpt lat="32.081895852978505" lon="-5.963982758160206"><ele>1560.5000000000002</ele><time>2026-05-04T08:44:55Z</time></trkpt><trkpt lat="32.081963328256236" lon="-5.964049920842345"><ele>1558.0</ele><time>2026-05-04T08:44:56Z</time></trkpt><trkpt lat="32.08203435212178" lon="-5.964125448041337"><ele>1558.0</ele><time>2026-05-04T08:44:57Z</time></trkpt><trkpt lat="32.0820882884755" lon="-5.96418667538235"><ele>1558.0</ele><time>2026-05-04T08:44:58Z</time></trkpt><trkpt lat="32.08213787564791" lon="-5.964243310033022"><ele>1558.0</ele><time>2026-05-04T08:44:59Z</time></trkpt><trkpt lat="32.08216109405716" lon="-5.9643700835857025"><ele>1558.0</ele><time>2026-05-04T08:45:01Z</time></trkpt><trkpt lat="32.0821865980331" lon="-5.964508343075851"><ele>1558.0</ele><time>2026-05-04T08:45:03Z</time></trkpt><trkpt lat="32.082155627675775" lon="-5.964590438975646"><ele>1557.8333333333335</ele><time>2026-05-04T08:45:04Z</time></trkpt><trkpt lat="32.08212482322535" lon="-5.964666630000679"><ele>1557.6666666666667</ele><time>2026-05-04T08:45:05Z</time></trkpt><trkpt lat="32.08207911194465" lon="-5.964750869163862"><ele>1557.5</ele><time>2026-05-04T08:45:06Z</time></trkpt><trkpt lat="32.08202222717311" lon="-5.964823737115656"><ele>1557.3333333333335</ele><time>2026-05-04T08:45:07Z</time></trkpt><trkpt lat="32.0819689336571" lon="-5.964892004792234"><ele>1557.1666666666667</ele><time>2026-05-04T08:45:08Z</time></trkpt><trkpt lat="32.081925375795265" lon="-5.9649478917291106"><ele>1557.0</ele><time>2026-05-04T08:45:09Z</time></trkpt><trkpt lat="32.08189231946832" lon="-5.965102645427139"><ele>1557.0</ele><time>2026-05-04T08:45:11Z</time></trkpt><trkpt lat="32.08193087633248" lon="-5.965179979402497"><ele>1557.0</ele><time>2026-05-04T08:45:12Z</time></trkpt><trkpt lat="32.08196984361298" lon="-5.965281779645512"><ele>1557.0</ele><time>2026-05-04T08:45:13Z</time></trkpt><trkpt lat="32.082006843924674" lon="-5.965378438776328"><ele>1557.0</ele><time>2026-05-04T08:45:14Z</time></trkpt><trkpt lat="32.082042060563694" lon="-5.965470438340148"><ele>1557.0</ele><time>2026-05-04T08:45:15Z</time></trkpt><trkpt lat="32.08207259735594" lon="-5.965551307093521"><ele>1557.0</ele><time>2026-05-04T08:45:16Z</time></trkpt><trkpt lat="32.08204488356459" lon="-5.96570536263601"><ele>1557.0</ele><time>2026-05-04T08:45:17Z</time></trkpt><trkpt lat="32.08201032445875" lon="-5.965820675492187"><ele>1557.0</ele><time>2026-05-04T08:45:18Z</time></trkpt><trkpt lat="32.08197837268012" lon="-5.965926552618471"><ele>1557.0</ele><time>2026-05-04T08:45:19Z</time></trkpt><trkpt lat="32.08195033903886" lon="-5.966016729597715"><ele>1557.0</ele><time>2026-05-04T08:45:20Z</time></trkpt><trkpt lat="32.081938216363945" lon="-5.966132525367076"><ele>1557.0</ele><time>2026-05-04T08:45:21Z</time></trkpt><trkpt lat="32.081926223276" lon="-5.9662526166511265"><ele>1558.1999999999998</ele><time>2026-05-04T08:45:22Z</time></trkpt><trkpt lat="32.081913327359736" lon="-5.966373248353031"><ele>1559.4</ele><time>2026-05-04T08:45:23Z</time></trkpt><trkpt lat="32.08190030824597" lon="-5.966494560295868"><ele>1560.6</ele><time>2026-05-04T08:45:24Z</time></trkpt><trkpt lat="32.08191035873444" lon="-5.966609802644467"><ele>1561.8000000000002</ele><time>2026-05-04T08:45:25Z</time></trkpt><trkpt lat="32.081920679765425" lon="-5.9667285144506135"><ele>1563.0</ele><time>2026-05-04T08:45:26Z</time></trkpt><trkpt lat="32.081930007525465" lon="-5.966840218383342"><ele>1564.4</ele><time>2026-05-04T08:45:27Z</time></trkpt><trkpt lat="32.08193848912519" lon="-5.966943494352331"><ele>1565.8000000000002</ele><time>2026-05-04T08:45:28Z</time></trkpt><trkpt lat="32.08194645920214" lon="-5.96704054171956"><ele>1567.2</ele><time>2026-05-04T08:45:29Z</time></trkpt><trkpt lat="32.08195425433786" lon="-5.967135458804663"><ele>1568.6</ele><time>2026-05-04T08:45:30Z</time></trkpt><trkpt lat="32.0819620086174" lon="-5.967221302762635"><ele>1570.0</ele><time>2026-05-04T08:45:31Z</time></trkpt><trkpt lat="32.08188905883757" lon="-5.967348652809677"><ele>1570.0000000000002</ele><time>2026-05-04T08:45:32Z</time></trkpt><trkpt lat="32.08184142111038" lon="-5.967411364332471"><ele>1570.0</ele><time>2026-05-04T08:45:33Z</time></trkpt><trkpt lat="32.081803555976556" lon="-5.9674823989968235"><ele>1570.0</ele><time>2026-05-04T08:45:34Z</time></trkpt><trkpt lat="32.0817798320077" lon="-5.967588245434321"><ele>1570.0</ele><time>2026-05-04T08:45:35Z</time></trkpt><trkpt lat="32.08173845763748" lon="-5.9676942162769375"><ele>1570.0000000000002</ele><time>2026-05-04T08:45:36Z</time></trkpt><trkpt lat="32.08172649369825" lon="-5.96780779267073"><ele>1570.0</ele><time>2026-05-04T08:45:37Z</time></trkpt><trkpt lat="32.081741993575626" lon="-5.967916154111988"><ele>1574.0</ele><time>2026-05-04T08:45:38Z</time></trkpt><trkpt lat="32.081744556724914" lon="-5.968021423304441"><ele>1578.0</ele><time>2026-05-04T08:45:39Z</time></trkpt><trkpt lat="32.08174709195585" lon="-5.968120553582434"><ele>1582.0</ele><time>2026-05-04T08:45:40Z</time></trkpt><trkpt lat="32.08174924984389" lon="-5.968213157745681"><ele>1586.0</ele><time>2026-05-04T08:45:41Z</time></trkpt><trkpt lat="32.081716049912075" lon="-5.96836524993831"><ele>1590.0</ele><time>2026-05-04T08:45:42Z</time></trkpt><trkpt lat="32.08167134433048" lon="-5.9684577087928234"><ele>1582.4</ele><time>2026-05-04T08:45:43Z</time></trkpt><trkpt lat="32.08162519040202" lon="-5.968553674171548"><ele>1574.8</ele><time>2026-05-04T08:45:44Z</time></trkpt><trkpt lat="32.081578747168884" lon="-5.9686498958697625"><ele>1567.1999999999998</ele><time>2026-05-04T08:45:45Z</time></trkpt><trkpt lat="32.08153440208643" lon="-5.968746357115606"><ele>1559.6</ele><time>2026-05-04T08:45:46Z</time></trkpt><trkpt lat="32.08148754694719" lon="-5.968852091191976"><ele>1552.0</ele><time>2026-05-04T08:45:47Z</time></trkpt><trkpt lat="32.08152839058228" lon="-5.968919465562462"><ele>1552.0</ele><time>2026-05-04T08:45:48Z</time></trkpt><trkpt lat="32.08151651855022" lon="-5.969018875094441"><ele>1552.0</ele><time>2026-05-04T08:45:49Z</time></trkpt><trkpt lat="32.08150610354062" lon="-5.969104569961693"><ele>1552.0</ele><time>2026-05-04T08:45:50Z</time></trkpt><trkpt lat="32.08148885211731" lon="-5.969176454101914"><ele>1552.0</ele><time>2026-05-04T08:45:51Z</time></trkpt><trkpt lat="32.08104135201865" lon="-5.969227513626767"><ele>1564.3999999999999</ele><time>2026-05-04T08:45:53Z</time></trkpt><trkpt lat="32.080972658298734" lon="-5.969261114302782"><ele>1576.8</ele><time>2026-05-04T08:45:54Z</time></trkpt><trkpt lat="32.080910993086896" lon="-5.96928446594955"><ele>1589.2</ele><time>2026-05-04T08:45:55Z</time></trkpt><trkpt lat="32.08085009969313" lon="-5.96931466676575"><ele>1601.6</ele><time>2026-05-04T08:45:56Z</time></trkpt><trkpt lat="32.08079142271686" lon="-5.969366774817152"><ele>1614.0</ele><time>2026-05-04T08:45:57Z</time></trkpt><trkpt lat="32.08082215848202" lon="-5.96956731425498"><ele>1601.0</ele><time>2026-05-04T08:45:58Z</time></trkpt><trkpt lat="32.080757171521306" lon="-5.969626140581462"><ele>1588.0</ele><time>2026-05-04T08:45:59Z</time></trkpt><trkpt lat="32.08071453206727" lon="-5.969752519102369"><ele>1575.0</ele><time>2026-05-04T08:46:01Z</time></trkpt><trkpt lat="32.08066846338674" lon="-5.969839987801079"><ele>1562.0</ele><time>2026-05-04T08:46:02Z</time></trkpt><trkpt lat="32.08057883540292" lon="-5.969981572170724"><ele>1549.0</ele><time>2026-05-04T08:46:03Z</time></trkpt><trkpt lat="32.080511353109394" lon="-5.970049773681381"><ele>1549.0000000000002</ele><time>2026-05-04T08:46:04Z</time></trkpt><trkpt lat="32.08044550551824" lon="-5.970116943941051"><ele>1549.0</ele><time>2026-05-04T08:46:05Z</time></trkpt><trkpt lat="32.0803794309809" lon="-5.970184345658125"><ele>1549.0</ele><time>2026-05-04T08:46:06Z</time></trkpt><trkpt lat="32.080317191469796" lon="-5.97024783530158"><ele>1549.0</ele><time>2026-05-04T08:46:07Z</time></trkpt><trkpt lat="32.08025686620356" lon="-5.9703086763866295"><ele>1549.0000000000002</ele><time>2026-05-04T08:46:08Z</time></trkpt><trkpt lat="32.08019673044196" lon="-5.970369325314378"><ele>1549.0</ele><time>2026-05-04T08:46:09Z</time></trkpt><trkpt lat="32.080138795896445" lon="-5.970427754246481"><ele>1549.0</ele><time>2026-05-04T08:46:10Z</time></trkpt><trkpt lat="32.08008091680014" lon="-5.9704712656666485"><ele>1549.0</ele><time>2026-05-04T08:46:11Z</time></trkpt><trkpt lat="32.08003612361099" lon="-5.970551264607272"><ele>1549.0</ele><time>2026-05-04T08:46:12Z</time></trkpt><trkpt lat="32.079997912224826" lon="-5.97061950892462"><ele>1549.0</ele><time>2026-05-04T08:46:13Z</time></trkpt><trkpt lat="32.079951587305516" lon="-5.970688006071864"><ele>1549.0</ele><time>2026-05-04T08:46:14Z</time></trkpt><trkpt lat="32.07993856803717" lon="-5.970769504455603"><ele>1549.0</ele><time>2026-05-04T08:46:15Z</time></trkpt><trkpt lat="32.07993883224791" lon="-5.970853694114891"><ele>1549.0</ele><time>2026-05-04T08:46:16Z</time></trkpt><trkpt lat="32.07996096548088" lon="-5.97094451298394"><ele>1541.3333333333335</ele><time>2026-05-04T08:46:17Z</time></trkpt><trkpt lat="32.0799931087456" lon="-5.971033262270323"><ele>1533.6666666666667</ele><time>2026-05-04T08:46:18Z</time></trkpt><trkpt lat="32.08003027635358" lon="-5.971111414490826"><ele>1526.0</ele><time>2026-05-04T08:46:19Z</time></trkpt><trkpt lat="32.08008261518136" lon="-5.9711807204255445"><ele>1518.3333333333335</ele><time>2026-05-04T08:46:20Z</time></trkpt><trkpt lat="32.08014831310213" lon="-5.971246936971565"><ele>1510.6666666666667</ele><time>2026-05-04T08:46:21Z</time></trkpt><trkpt lat="32.080231012889854" lon="-5.971295328188548"><ele>1503.0</ele><time>2026-05-04T08:46:22Z</time></trkpt><trkpt lat="32.080289044521244" lon="-5.971357149325948"><ele>1503.0</ele><time>2026-05-04T08:46:23Z</time></trkpt><trkpt lat="32.080355198375386" lon="-5.971384665066731"><ele>1503.0</ele><time>2026-05-04T08:46:24Z</time></trkpt><trkpt lat="32.080431990033034" lon="-5.971403217518274"><ele>1503.0</ele><time>2026-05-04T08:46:25Z</time></trkpt><trkpt lat="32.08050923010105" lon="-5.971442193864867"><ele>1503.0</ele><time>2026-05-04T08:46:26Z</time></trkpt><trkpt lat="32.08057572719279" lon="-5.971482189531806"><ele>1503.0</ele><time>2026-05-04T08:46:27Z</time></trkpt><trkpt lat="32.08064953191032" lon="-5.971491680246763"><ele>1503.0</ele><time>2026-05-04T08:46:28Z</time></trkpt><trkpt lat="32.080707900403965" lon="-5.971528443347297"><ele>1503.0</ele><time>2026-05-04T08:46:29Z</time></trkpt><trkpt lat="32.08078026380093" lon="-5.9716018398797415"><ele>1505.0</ele><time>2026-05-04T08:46:30Z</time></trkpt><trkpt lat="32.08081221333912" lon="-5.971698183696207"><ele>1507.0</ele><time>2026-05-04T08:46:31Z</time></trkpt><trkpt lat="32.08084562895563" lon="-5.971816253509404"><ele>1509.0</ele><time>2026-05-04T08:46:32Z</time></trkpt><trkpt lat="32.08087856578285" lon="-5.971928841789304"><ele>1511.0</ele><time>2026-05-04T08:46:33Z</time></trkpt><trkpt lat="32.08092731333417" lon="-5.972020042898444"><ele>1513.0</ele><time>2026-05-04T08:46:34Z</time></trkpt><trkpt lat="32.08098225775014" lon="-5.972127279508031"><ele>1513.0</ele><time>2026-05-04T08:46:35Z</time></trkpt><trkpt lat="32.08103643925744" lon="-5.972246504590709"><ele>1513.0</ele><time>2026-05-04T08:46:36Z</time></trkpt><trkpt lat="32.08110218179534" lon="-5.972345507282558"><ele>1513.0</ele><time>2026-05-04T08:46:37Z</time></trkpt><trkpt lat="32.081142920550676" lon="-5.972443361302929"><ele>1513.0</ele><time>2026-05-04T08:46:38Z</time></trkpt><trkpt lat="32.081199533012644" lon="-5.972523298899209"><ele>1513.0</ele><time>2026-05-04T08:46:39Z</time></trkpt><trkpt lat="32.08126003138084" lon="-5.972614951807071"><ele>1506.3333333333333</ele><time>2026-05-04T08:46:40Z</time></trkpt><trkpt lat="32.08132550878335" lon="-5.972664618155408"><ele>1499.6666666666665</ele><time>2026-05-04T08:46:41Z</time></trkpt><trkpt lat="32.081381743898156" lon="-5.972707274065386"><ele>1493.0</ele><time>2026-05-04T08:46:42Z</time></trkpt><trkpt lat="32.08143487005883" lon="-5.972749704707802"><ele>1486.3333333333333</ele><time>2026-05-04T08:46:43Z</time></trkpt><trkpt lat="32.081529456058306" lon="-5.97283954933742"><ele>1479.6666666666667</ele><time>2026-05-04T08:46:44Z</time></trkpt><trkpt lat="32.08159671615161" lon="-5.972866978244544"><ele>1473.0</ele><time>2026-05-04T08:46:45Z</time></trkpt><trkpt lat="32.081705035352094" lon="-5.972909864199984"><ele>1489.2</ele><time>2026-05-04T08:46:47Z</time></trkpt><trkpt lat="32.08178625254989" lon="-5.972941962781726"><ele>1505.4</ele><time>2026-05-04T08:46:49Z</time></trkpt><trkpt lat="32.08185172828161" lon="-5.972887090038908"><ele>1521.6000000000001</ele><time>2026-05-04T08:46:51Z</time></trkpt><trkpt lat="32.08182808998084" lon="-5.9730127092645455"><ele>1537.8000000000002</ele><time>2026-05-04T08:46:52Z</time></trkpt><trkpt lat="32.08179716885943" lon="-5.973138831180386"><ele>1554.0</ele><time>2026-05-04T08:46:53Z</time></trkpt><trkpt lat="32.08176344973685" lon="-5.9732581390965525"><ele>1549.3333333333333</ele><time>2026-05-04T08:46:54Z</time></trkpt><trkpt lat="32.08173600411304" lon="-5.973373157965095"><ele>1544.6666666666667</ele><time>2026-05-04T08:46:55Z</time></trkpt><trkpt lat="32.081718331869226" lon="-5.97347597219793"><ele>1540.0</ele><time>2026-05-04T08:46:56Z</time></trkpt><trkpt lat="32.08170074044086" lon="-5.973568726816613"><ele>1535.3333333333335</ele><time>2026-05-04T08:46:57Z</time></trkpt><trkpt lat="32.081696481082915" lon="-5.973656677469435"><ele>1530.6666666666667</ele><time>2026-05-04T08:46:58Z</time></trkpt><trkpt lat="32.08172194154919" lon="-5.973743006197968"><ele>1526.0</ele><time>2026-05-04T08:46:59Z</time></trkpt><trkpt lat="32.08176958183229" lon="-5.9738412193607076"><ele>1526.0</ele><time>2026-05-04T08:47:00Z</time></trkpt><trkpt lat="32.081831885767706" lon="-5.973951219457954"><ele>1526.0</ele><time>2026-05-04T08:47:01Z</time></trkpt><trkpt lat="32.08196314063095" lon="-5.9740066406710035"><ele>1526.0</ele><time>2026-05-04T08:47:02Z</time></trkpt><trkpt lat="32.08201015934086" lon="-5.97410260214449"><ele>1526.0</ele><time>2026-05-04T08:47:03Z</time></trkpt><trkpt lat="32.082052454202724" lon="-5.974186572030606"><ele>1526.0</ele><time>2026-05-04T08:47:04Z</time></trkpt><trkpt lat="32.08209375920577" lon="-5.97426878157899"><ele>1522.0</ele><time>2026-05-04T08:47:05Z</time></trkpt><trkpt lat="32.082132990378625" lon="-5.974346863616715"><ele>1518.0</ele><time>2026-05-04T08:47:06Z</time></trkpt><trkpt lat="32.082167810187876" lon="-5.97441803910068"><ele>1514.0</ele><time>2026-05-04T08:47:07Z</time></trkpt><trkpt lat="32.0822039305484" lon="-5.974488449208483"><ele>1510.0</ele><time>2026-05-04T08:47:08Z</time></trkpt><trkpt lat="32.082259348635944" lon="-5.974596476045268"><ele>1506.0</ele><time>2026-05-04T08:47:10Z</time></trkpt><trkpt lat="32.082321328175254" lon="-5.974722579686433"><ele>1502.0</ele><time>2026-05-04T08:47:12Z</time></trkpt><trkpt lat="32.082358800269816" lon="-5.9747969170640705"><ele>1502.0</ele><time>2026-05-04T08:47:13Z</time></trkpt><trkpt lat="32.08239621823406" lon="-5.974871232773817"><ele>1502.0</ele><time>2026-05-04T08:47:14Z</time></trkpt><trkpt lat="32.08243054197588" lon="-5.974939402909143"><ele>1502.0</ele><time>2026-05-04T08:47:15Z</time></trkpt><trkpt lat="32.082463562454045" lon="-5.97500723883415"><ele>1502.0</ele><time>2026-05-04T08:47:16Z</time></trkpt><trkpt lat="32.082400214299334" lon="-5.975132244859148"><ele>1502.0</ele><time>2026-05-04T08:47:17Z</time></trkpt><trkpt lat="32.082356514436306" lon="-5.975229662547714"><ele>1502.0</ele><time>2026-05-04T08:47:18Z</time></trkpt><trkpt lat="32.082305030853355" lon="-5.975306423637804"><ele>1502.1666666666667</ele><time>2026-05-04T08:47:19Z</time></trkpt><trkpt lat="32.08225057367221" lon="-5.9753738296915095"><ele>1502.3333333333335</ele><time>2026-05-04T08:47:20Z</time></trkpt><trkpt lat="32.08220848655812" lon="-5.975440569794961"><ele>1502.5</ele><time>2026-05-04T08:47:21Z</time></trkpt><trkpt lat="32.08218833952217" lon="-5.975514676546182"><ele>1502.6666666666667</ele><time>2026-05-04T08:47:22Z</time></trkpt><trkpt lat="32.0821865621894" lon="-5.975597089639804"><ele>1502.8333333333333</ele><time>2026-05-04T08:47:23Z</time></trkpt><trkpt lat="32.08219015976757" lon="-5.975692399126761"><ele>1503.0</ele><time>2026-05-04T08:47:24Z</time></trkpt><trkpt lat="32.08220436972204" lon="-5.975804505355208"><ele>1501.6000000000001</ele><time>2026-05-04T08:47:25Z</time></trkpt><trkpt lat="32.08222458123603" lon="-5.975921746084432"><ele>1500.2</ele><time>2026-05-04T08:47:26Z</time></trkpt><trkpt lat="32.08224316846572" lon="-5.976035673280251"><ele>1498.8</ele><time>2026-05-04T08:47:27Z</time></trkpt><trkpt lat="32.08226061913971" lon="-5.976144827915693"><ele>1497.4</ele><time>2026-05-04T08:47:28Z</time></trkpt><trkpt lat="32.08228664303938" lon="-5.976258482484716"><ele>1496.0</ele><time>2026-05-04T08:47:29Z</time></trkpt><trkpt lat="32.08231097699658" lon="-5.97636554977416"><ele>1496.0</ele><time>2026-05-04T08:47:30Z</time></trkpt><trkpt lat="32.08232601024371" lon="-5.9764657935607675"><ele>1496.0</ele><time>2026-05-04T08:47:31Z</time></trkpt><trkpt lat="32.082331152689164" lon="-5.976568232475556"><ele>1496.0</ele><time>2026-05-04T08:47:32Z</time></trkpt><trkpt lat="32.082322566131296" lon="-5.976667609047911"><ele>1496.0</ele><time>2026-05-04T08:47:33Z</time></trkpt><trkpt lat="32.08230743615094" lon="-5.976762511935391"><ele>1496.0</ele><time>2026-05-04T08:47:34Z</time></trkpt><trkpt lat="32.08229987466567" lon="-5.976860152760926"><ele>1496.0</ele><time>2026-05-04T08:47:35Z</time></trkpt><trkpt lat="32.08230445513424" lon="-5.976949976765152"><ele>1496.1666666666667</ele><time>2026-05-04T08:47:36Z</time></trkpt><trkpt lat="32.082315646739566" lon="-5.977033895572393"><ele>1496.3333333333335</ele><time>2026-05-04T08:47:37Z</time></trkpt><trkpt lat="32.08232518234813" lon="-5.977124480627644"><ele>1496.5</ele><time>2026-05-04T08:47:38Z</time></trkpt><trkpt lat="32.08234357260228" lon="-5.977217140222469"><ele>1496.6666666666667</ele><time>2026-05-04T08:47:39Z</time></trkpt><trkpt lat="32.08235089686352" lon="-5.977314608475982"><ele>1496.8333333333333</ele><time>2026-05-04T08:47:40Z</time></trkpt><trkpt lat="32.082335055283714" lon="-5.977408756357312"><ele>1497.0</ele><time>2026-05-04T08:47:41Z</time></trkpt><trkpt lat="32.08230944997656" lon="-5.977499550625235"><ele>1497.1666666666667</ele><time>2026-05-04T08:47:42Z</time></trkpt><trkpt lat="32.082274644082204" lon="-5.977587986110753"><ele>1497.3333333333333</ele><time>2026-05-04T08:47:43Z</time></trkpt><trkpt lat="32.0822404619948" lon="-5.977675244944975"><ele>1497.5</ele><time>2026-05-04T08:47:44Z</time></trkpt><trkpt lat="32.0822215177682" lon="-5.977775453227019"><ele>1497.6666666666665</ele><time>2026-05-04T08:47:45Z</time></trkpt><trkpt lat="32.08220490141694" lon="-5.977879127293219"><ele>1497.8333333333333</ele><time>2026-05-04T08:47:46Z</time></trkpt><trkpt lat="32.08219183851835" lon="-5.977985652237699"><ele>1498.0</ele><time>2026-05-04T08:47:47Z</time></trkpt><trkpt lat="32.08217658156894" lon="-5.978087189835438"><ele>1498.0</ele><time>2026-05-04T08:47:48Z</time></trkpt><trkpt lat="32.08215280601439" lon="-5.978191057887806"><ele>1498.0</ele><time>2026-05-04T08:47:49Z</time></trkpt><trkpt lat="32.082133162369814" lon="-5.9782929204615485"><ele>1498.0</ele><time>2026-05-04T08:47:50Z</time></trkpt><trkpt lat="32.082120077986566" lon="-5.978394218782651"><ele>1498.0</ele><time>2026-05-04T08:47:51Z</time></trkpt><trkpt lat="32.08211033899364" lon="-5.978499523496555"><ele>1498.0</ele><time>2026-05-04T08:47:52Z</time></trkpt><trkpt lat="32.08210193877262" lon="-5.978611164515196"><ele>1499.6000000000001</ele><time>2026-05-04T08:47:53Z</time></trkpt><trkpt lat="32.082093788685455" lon="-5.9787225284827334"><ele>1501.2</ele><time>2026-05-04T08:47:54Z</time></trkpt><trkpt lat="32.08207965946612" lon="-5.978831965775728"><ele>1502.8</ele><time>2026-05-04T08:47:55Z</time></trkpt><trkpt lat="32.08205257816325" lon="-5.9789376570884025"><ele>1504.4</ele><time>2026-05-04T08:47:56Z</time></trkpt><trkpt lat="32.082015875024474" lon="-5.979038745938378"><ele>1506.0</ele><time>2026-05-04T08:47:57Z</time></trkpt><trkpt lat="32.08198056321827" lon="-5.979134974174728"><ele>1507.1666666666667</ele><time>2026-05-04T08:47:58Z</time></trkpt><trkpt lat="32.081952056485946" lon="-5.9792300822728786"><ele>1508.3333333333333</ele><time>2026-05-04T08:47:59Z</time></trkpt><trkpt lat="32.08193683689793" lon="-5.979322784101124"><ele>1509.5</ele><time>2026-05-04T08:48:00Z</time></trkpt><trkpt lat="32.081937275975676" lon="-5.979419674060026"><ele>1510.6666666666665</ele><time>2026-05-04T08:48:01Z</time></trkpt><trkpt lat="32.08194903065493" lon="-5.979521267209732"><ele>1511.8333333333333</ele><time>2026-05-04T08:48:02Z</time></trkpt><trkpt lat="32.08195161365799" lon="-5.979636909840094"><ele>1513.0</ele><time>2026-05-04T08:48:03Z</time></trkpt><trkpt lat="32.0819434302119" lon="-5.979754180567248"><ele>1513.0</ele><time>2026-05-04T08:48:04Z</time></trkpt><trkpt lat="32.08193090501014" lon="-5.979867414913072"><ele>1513.0</ele><time>2026-05-04T08:48:05Z</time></trkpt><trkpt lat="32.08191326566026" lon="-5.9799794205754235"><ele>1513.0</ele><time>2026-05-04T08:48:06Z</time></trkpt><trkpt lat="32.08189239042578" lon="-5.980101507971558"><ele>1513.0</ele><time>2026-05-04T08:48:07Z</time></trkpt><trkpt lat="32.08187384753022" lon="-5.980227453709823"><ele>1513.0</ele><time>2026-05-04T08:48:08Z</time></trkpt><trkpt lat="32.08186707058504" lon="-5.98034088645407"><ele>1511.0</ele><time>2026-05-04T08:48:09Z</time></trkpt><trkpt lat="32.081875685775" lon="-5.98044229733697"><ele>1509.0</ele><time>2026-05-04T08:48:10Z</time></trkpt><trkpt lat="32.08189732261213" lon="-5.9805463317480045"><ele>1507.0</ele><time>2026-05-04T08:48:11Z</time></trkpt><trkpt lat="32.08192290942074" lon="-5.980638333131839"><ele>1505.0</ele><time>2026-05-04T08:48:12Z</time></trkpt><trkpt lat="32.08196400287585" lon="-5.9807232694998085"><ele>1503.0</ele><time>2026-05-04T08:48:13Z</time></trkpt><trkpt lat="32.08201542647932" lon="-5.9807741560566"><ele>1501.0</ele><time>2026-05-04T08:48:14Z</time></trkpt><trkpt lat="32.082080041143094" lon="-5.980813242100151"><ele>1501.0</ele><time>2026-05-04T08:48:15Z</time></trkpt><trkpt lat="32.08216374693737" lon="-5.980842931657327"><ele>1501.0</ele><time>2026-05-04T08:48:16Z</time></trkpt><trkpt lat="32.082265556256594" lon="-5.980851155127569"><ele>1501.0</ele><time>2026-05-04T08:48:17Z</time></trkpt><trkpt lat="32.082374747681115" lon="-5.980860413958413"><ele>1501.0</ele><time>2026-05-04T08:48:18Z</time></trkpt><trkpt lat="32.08249059155234" lon="-5.980882384809399"><ele>1501.0</ele><time>2026-05-04T08:48:19Z</time></trkpt><trkpt lat="32.082609370990156" lon="-5.9809032776385855"><ele>1496.0</ele><time>2026-05-04T08:48:20Z</time></trkpt><trkpt lat="32.08273060022206" lon="-5.980912369024582"><ele>1491.0</ele><time>2026-05-04T08:48:21Z</time></trkpt><trkpt lat="32.08284553028208" lon="-5.980912752119897"><ele>1486.0</ele><time>2026-05-04T08:48:22Z</time></trkpt><trkpt lat="32.08295347683308" lon="-5.980912924045678"><ele>1481.0</ele><time>2026-05-04T08:48:23Z</time></trkpt><trkpt lat="32.08305711875504" lon="-5.980921539597768"><ele>1476.0</ele><time>2026-05-04T08:48:24Z</time></trkpt><trkpt lat="32.08316016090234" lon="-5.98093170720477"><ele>1476.0</ele><time>2026-05-04T08:48:25Z</time></trkpt><trkpt lat="32.083263982651225" lon="-5.9809401622191665"><ele>1476.0</ele><time>2026-05-04T08:48:26Z</time></trkpt><trkpt lat="32.08336097407597" lon="-5.980954313909575"><ele>1476.0</ele><time>2026-05-04T08:48:27Z</time></trkpt><trkpt lat="32.08345012425278" lon="-5.980969269043041"><ele>1476.0</ele><time>2026-05-04T08:48:28Z</time></trkpt><trkpt lat="32.0835371649402" lon="-5.980968548749849"><ele>1476.0</ele><time>2026-05-04T08:48:29Z</time></trkpt><trkpt lat="32.08362254500338" lon="-5.980952772340356"><ele>1477.8333333333333</ele><time>2026-05-04T08:48:30Z</time></trkpt><trkpt lat="32.08369630868034" lon="-5.980923361758158"><ele>1479.6666666666667</ele><time>2026-05-04T08:48:31Z</time></trkpt><trkpt lat="32.08376442405423" lon="-5.980875097389533"><ele>1481.5</ele><time>2026-05-04T08:48:32Z</time></trkpt><trkpt lat="32.08382748051893" lon="-5.980812746320402"><ele>1483.3333333333335</ele><time>2026-05-04T08:48:33Z</time></trkpt><trkpt lat="32.08389293675889" lon="-5.980746165032189"><ele>1485.1666666666667</ele><time>2026-05-04T08:48:34Z</time></trkpt><trkpt lat="32.083960909954165" lon="-5.980691262332514"><ele>1487.0</ele><time>2026-05-04T08:48:35Z</time></trkpt><trkpt lat="32.084027584467144" lon="-5.980647481686867"><ele>1492.5</ele><time>2026-05-04T08:48:36Z</time></trkpt><trkpt lat="32.08408836588662" lon="-5.980614632225402"><ele>1498.0</ele><time>2026-05-04T08:48:37Z</time></trkpt><trkpt lat="32.084183754855566" lon="-5.980560206240597"><ele>1503.5</ele><time>2026-05-04T08:48:39Z</time></trkpt><trkpt lat="32.0842420077501" lon="-5.980521196347662"><ele>1509.0</ele><time>2026-05-04T08:48:41Z</time></trkpt><trkpt lat="32.08430686510463" lon="-5.980546490972051"><ele>1514.5</ele><time>2026-05-04T08:48:49Z</time></trkpt><trkpt lat="32.084363155092376" lon="-5.9806431785847884"><ele>1520.0</ele><time>2026-05-04T08:48:52Z</time></trkpt><trkpt lat="32.08436193241256" lon="-5.980741733977168"><ele>1519.6</ele><time>2026-05-04T08:48:54Z</time></trkpt><trkpt lat="32.084303182540964" lon="-5.980854257525084"><ele>1519.2</ele><time>2026-05-04T08:48:56Z</time></trkpt><trkpt lat="32.0842284141009" lon="-5.980954488689297"><ele>1518.8000000000002</ele><time>2026-05-04T08:48:58Z</time></trkpt><trkpt lat="32.08420060616428" lon="-5.9810405687161765"><ele>1518.4</ele><time>2026-05-04T08:48:59Z</time></trkpt><trkpt lat="32.08417657388432" lon="-5.981126781616498"><ele>1518.0</ele><time>2026-05-04T08:49:00Z</time></trkpt><trkpt lat="32.08416059331228" lon="-5.981210394857878"><ele>1518.0</ele><time>2026-05-04T08:49:01Z</time></trkpt><trkpt lat="32.08413358122787" lon="-5.981289613217451"><ele>1518.0</ele><time>2026-05-04T08:49:02Z</time></trkpt><trkpt lat="32.084100833133675" lon="-5.981359998896713"><ele>1518.0</ele><time>2026-05-04T08:49:03Z</time></trkpt><trkpt lat="32.084058315778975" lon="-5.981428127479118"><ele>1518.0</ele><time>2026-05-04T08:49:04Z</time></trkpt><trkpt lat="32.08400491064984" lon="-5.981498193548665"><ele>1518.0</ele><time>2026-05-04T08:49:05Z</time></trkpt><trkpt lat="32.083941418392875" lon="-5.981564465130936"><ele>1518.0</ele><time>2026-05-04T08:49:06Z</time></trkpt><trkpt lat="32.08387037095791" lon="-5.981623487943687"><ele>1523.5</ele><time>2026-05-04T08:49:07Z</time></trkpt><trkpt lat="32.083807176787936" lon="-5.981690275363477"><ele>1529.0</ele><time>2026-05-04T08:49:08Z</time></trkpt><trkpt lat="32.083737006781575" lon="-5.981752970024026"><ele>1534.5</ele><time>2026-05-04T08:49:09Z</time></trkpt><trkpt lat="32.08366911708567" lon="-5.981800150024589"><ele>1540.0</ele><time>2026-05-04T08:49:10Z</time></trkpt><trkpt lat="32.08360256713335" lon="-5.981847866919569"><ele>1545.5</ele><time>2026-05-04T08:49:11Z</time></trkpt><trkpt lat="32.083538082190515" lon="-5.98189300897203"><ele>1551.0</ele><time>2026-05-04T08:49:12Z</time></trkpt><trkpt lat="32.08347587279705" lon="-5.981935914947647"><ele>1551.0</ele><time>2026-05-04T08:49:13Z</time></trkpt><trkpt lat="32.083402665559056" lon="-5.9819851103859545"><ele>1551.0</ele><time>2026-05-04T08:49:14Z</time></trkpt><trkpt lat="32.08332619784391" lon="-5.982033096700246"><ele>1551.0</ele><time>2026-05-04T08:49:15Z</time></trkpt><trkpt lat="32.083244217778336" lon="-5.982069443621842"><ele>1551.0</ele><time>2026-05-04T08:49:16Z</time></trkpt><trkpt lat="32.08316701483987" lon="-5.982105142249933"><ele>1551.0</ele><time>2026-05-04T08:49:17Z</time></trkpt><trkpt lat="32.08309172513683" lon="-5.982143708992305"><ele>1551.0</ele><time>2026-05-04T08:49:18Z</time></trkpt><trkpt lat="32.08301781939955" lon="-5.982188290564015"><ele>1541.5</ele><time>2026-05-04T08:49:19Z</time></trkpt><trkpt lat="32.08294589352746" lon="-5.982235829222458"><ele>1532.0</ele><time>2026-05-04T08:49:20Z</time></trkpt><trkpt lat="32.08286841737058" lon="-5.982274693409926"><ele>1522.5</ele><time>2026-05-04T08:49:21Z</time></trkpt><trkpt lat="32.08279030710181" lon="-5.982303468492174"><ele>1513.0</ele><time>2026-05-04T08:49:22Z</time></trkpt><trkpt lat="32.082709385979165" lon="-5.982329214687671"><ele>1503.5</ele><time>2026-05-04T08:49:23Z</time></trkpt><trkpt lat="32.08262770143656" lon="-5.982351741470262"><ele>1494.0</ele><time>2026-05-04T08:49:24Z</time></trkpt><trkpt lat="32.0825455546962" lon="-5.982374943456303"><ele>1494.0</ele><time>2026-05-04T08:49:25Z</time></trkpt><trkpt lat="32.08246941468935" lon="-5.98240010265951"><ele>1494.0</ele><time>2026-05-04T08:49:26Z</time></trkpt><trkpt lat="32.08239378100027" lon="-5.982426050619074"><ele>1494.0</ele><time>2026-05-04T08:49:27Z</time></trkpt><trkpt lat="32.082317753493655" lon="-5.982465494194823"><ele>1494.0</ele><time>2026-05-04T08:49:28Z</time></trkpt><trkpt lat="32.08225094130748" lon="-5.982519831240972"><ele>1494.0</ele><time>2026-05-04T08:49:29Z</time></trkpt><trkpt lat="32.08219118309383" lon="-5.982584312399568"><ele>1494.0</ele><time>2026-05-04T08:49:30Z</time></trkpt><trkpt lat="32.082132929854424" lon="-5.982670798803376"><ele>1492.5</ele><time>2026-05-04T08:49:31Z</time></trkpt><trkpt lat="32.08207858509266" lon="-5.982774455212987"><ele>1491.0</ele><time>2026-05-04T08:49:32Z</time></trkpt><trkpt lat="32.082022178321054" lon="-5.982869932610009"><ele>1489.5</ele><time>2026-05-04T08:49:33Z</time></trkpt><trkpt lat="32.08195747849776" lon="-5.98294928660507"><ele>1488.0</ele><time>2026-05-04T08:49:34Z</time></trkpt><trkpt lat="32.08190361974005" lon="-5.983019866565401"><ele>1486.5</ele><time>2026-05-04T08:49:35Z</time></trkpt><trkpt lat="32.081852120785825" lon="-5.983072849519814"><ele>1485.0</ele><time>2026-05-04T08:49:36Z</time></trkpt><trkpt lat="32.0817667565011" lon="-5.983174909064457"><ele>1485.0</ele><time>2026-05-04T08:49:38Z</time></trkpt><trkpt lat="32.081678821461665" lon="-5.983258665672443"><ele>1485.0</ele><time>2026-05-04T08:49:40Z</time></trkpt><trkpt lat="32.081612685932264" lon="-5.983367965372751"><ele>1485.0</ele><time>2026-05-04T08:49:42Z</time></trkpt><trkpt lat="32.081596678094755" lon="-5.9834428213421464"><ele>1485.0</ele><time>2026-05-04T08:49:43Z</time></trkpt><trkpt lat="32.08159105447095" lon="-5.9835277811651295"><ele>1485.0</ele><time>2026-05-04T08:49:44Z</time></trkpt><trkpt lat="32.081598422949156" lon="-5.983611877537491"><ele>1485.0</ele><time>2026-05-04T08:49:45Z</time></trkpt><trkpt lat="32.081615635637036" lon="-5.983697155689335"><ele>1482.6666666666667</ele><time>2026-05-04T08:49:46Z</time></trkpt><trkpt lat="32.08163924524912" lon="-5.983794988536392"><ele>1480.3333333333333</ele><time>2026-05-04T08:49:47Z</time></trkpt><trkpt lat="32.08166330954731" lon="-5.983898176064695"><ele>1478.0</ele><time>2026-05-04T08:49:48Z</time></trkpt><trkpt lat="32.0816915388904" lon="-5.983993811814669"><ele>1475.6666666666665</ele><time>2026-05-04T08:49:49Z</time></trkpt><trkpt lat="32.081716165729965" lon="-5.984092389615478"><ele>1473.3333333333333</ele><time>2026-05-04T08:49:50Z</time></trkpt><trkpt lat="32.081746562422666" lon="-5.984189140225337"><ele>1471.0</ele><time>2026-05-04T08:49:51Z</time></trkpt><trkpt lat="32.0817825275753" lon="-5.984287702233159"><ele>1466.1666666666665</ele><time>2026-05-04T08:49:52Z</time></trkpt><trkpt lat="32.08182135688495" lon="-5.984388171170831"><ele>1461.3333333333333</ele><time>2026-05-04T08:49:53Z</time></trkpt><trkpt lat="32.08186136909921" lon="-5.984487427463408"><ele>1456.5</ele><time>2026-05-04T08:49:54Z</time></trkpt><trkpt lat="32.0819006939582" lon="-5.984585138127299"><ele>1451.6666666666667</ele><time>2026-05-04T08:49:55Z</time></trkpt><trkpt lat="32.08194158063726" lon="-5.984672977022417"><ele>1446.8333333333335</ele><time>2026-05-04T08:49:56Z</time></trkpt><trkpt lat="32.08198301040349" lon="-5.984759254781858"><ele>1442.0</ele><time>2026-05-04T08:49:57Z</time></trkpt><trkpt lat="32.08202181785597" lon="-5.9848383757519334"><ele>1442.0</ele><time>2026-05-04T08:49:58Z</time></trkpt><trkpt lat="32.0820640540799" lon="-5.984912965133576"><ele>1442.0</ele><time>2026-05-04T08:49:59Z</time></trkpt><trkpt lat="32.08211020408644" lon="-5.98498621397861"><ele>1442.0</ele><time>2026-05-04T08:50:00Z</time></trkpt><trkpt lat="32.082155322089" lon="-5.985054293890026"><ele>1442.0</ele><time>2026-05-04T08:50:01Z</time></trkpt><trkpt lat="32.08220540645052" lon="-5.985122896292098"><ele>1442.0</ele><time>2026-05-04T08:50:02Z</time></trkpt><trkpt lat="32.082256859149105" lon="-5.985194348159694"><ele>1442.0</ele><time>2026-05-04T08:50:03Z</time></trkpt><trkpt lat="32.08231603844459" lon="-5.985274424829887"><ele>1442.3999999999999</ele><time>2026-05-04T08:50:04Z</time></trkpt><trkpt lat="32.082364979722044" lon="-5.985367005776511"><ele>1442.8</ele><time>2026-05-04T08:50:05Z</time></trkpt><trkpt lat="32.0824237733785" lon="-5.985452648034544"><ele>1443.2</ele><time>2026-05-04T08:50:06Z</time></trkpt><trkpt lat="32.08248177771091" lon="-5.985535988932082"><ele>1443.6</ele><time>2026-05-04T08:50:07Z</time></trkpt><trkpt lat="32.082539744129946" lon="-5.985620049782669"><ele>1444.0</ele><time>2026-05-04T08:50:08Z</time></trkpt><trkpt lat="32.08259448509411" lon="-5.9857000604266775"><ele>1444.0</ele><time>2026-05-04T08:50:09Z</time></trkpt><trkpt lat="32.082650934555865" lon="-5.985785654977166"><ele>1444.0</ele><time>2026-05-04T08:50:10Z</time></trkpt><trkpt lat="32.08270895789099" lon="-5.985873309014426"><ele>1444.0</ele><time>2026-05-04T08:50:11Z</time></trkpt><trkpt lat="32.08276623921898" lon="-5.985959679376406"><ele>1444.0</ele><time>2026-05-04T08:50:12Z</time></trkpt><trkpt lat="32.08282565759019" lon="-5.98605026117649"><ele>1444.0</ele><time>2026-05-04T08:50:13Z</time></trkpt><trkpt lat="32.082886530135085" lon="-5.9861430599070085"><ele>1439.0</ele><time>2026-05-04T08:50:14Z</time></trkpt><trkpt lat="32.082947566283444" lon="-5.986235594823251"><ele>1434.0</ele><time>2026-05-04T08:50:15Z</time></trkpt><trkpt lat="32.08300905321989" lon="-5.986327557402621"><ele>1429.0</ele><time>2026-05-04T08:50:16Z</time></trkpt><trkpt lat="32.08307041052578" lon="-5.986421135929881"><ele>1424.0</ele><time>2026-05-04T08:50:17Z</time></trkpt><trkpt lat="32.083166549206446" lon="-5.986495341425257"><ele>1419.0</ele><time>2026-05-04T08:50:18Z</time></trkpt><trkpt lat="32.08325063152099" lon="-5.986544291057119"><ele>1420.3333333333333</ele><time>2026-05-04T08:50:18.999Z</time></trkpt><trkpt lat="32.083303364477885" lon="-5.986627655510397"><ele>1421.6666666666667</ele><time>2026-05-04T08:50:19.999Z</time></trkpt><trkpt lat="32.08332848331706" lon="-5.986723871753824"><ele>1423.0</ele><time>2026-05-04T08:50:20.999Z</time></trkpt><trkpt lat="32.083359493897824" lon="-5.98681535480979"><ele>1424.3333333333335</ele><time>2026-05-04T08:50:21.999Z</time></trkpt><trkpt lat="32.08338998411753" lon="-5.9869046335837774"><ele>1425.6666666666667</ele><time>2026-05-04T08:50:22.999Z</time></trkpt><trkpt lat="32.08345096784232" lon="-5.986967482179933"><ele>1427.0</ele><time>2026-05-04T08:50:23.999Z</time></trkpt><trkpt lat="32.08349340790311" lon="-5.987049128708464"><ele>1427.0</ele><time>2026-05-04T08:50:24.999Z</time></trkpt><trkpt lat="32.08354176691548" lon="-5.987129284546383"><ele>1427.0</ele><time>2026-05-04T08:50:25.999Z</time></trkpt><trkpt lat="32.08358505959993" lon="-5.987220582862927"><ele>1427.0</ele><time>2026-05-04T08:50:27Z</time></trkpt><trkpt lat="32.083647567732484" lon="-5.9873027313438465"><ele>1427.0</ele><time>2026-05-04T08:50:28Z</time></trkpt><trkpt lat="32.08369114654047" lon="-5.9874059654697795"><ele>1427.0</ele><time>2026-05-04T08:50:29Z</time></trkpt><trkpt lat="32.08375298399306" lon="-5.987509515266009"><ele>1425.1999999999998</ele><time>2026-05-04T08:50:30Z</time></trkpt><trkpt lat="32.083792258660864" lon="-5.9876234526310474"><ele>1423.4</ele><time>2026-05-04T08:50:31Z</time></trkpt><trkpt lat="32.08385668960399" lon="-5.987702789926338"><ele>1421.6</ele><time>2026-05-04T08:50:32Z</time></trkpt><trkpt lat="32.083908117433666" lon="-5.987789048803622"><ele>1419.8000000000002</ele><time>2026-05-04T08:50:33Z</time></trkpt><trkpt lat="32.083956005087884" lon="-5.987870529252377"><ele>1418.0</ele><time>2026-05-04T08:50:34Z</time></trkpt><trkpt lat="32.08400382722172" lon="-5.987952043985853"><ele>1418.0</ele><time>2026-05-04T08:50:35Z</time></trkpt><trkpt lat="32.08397626540105" lon="-5.988084430061715"><ele>1418.0</ele><time>2026-05-04T08:50:36Z</time></trkpt><trkpt lat="32.0840127791922" lon="-5.988183058461841"><ele>1418.0</ele><time>2026-05-04T08:50:37Z</time></trkpt><trkpt lat="32.08403420056185" lon="-5.988282099475702"><ele>1418.0</ele><time>2026-05-04T08:50:38Z</time></trkpt><trkpt lat="32.08406968012676" lon="-5.9883676897416525"><ele>1418.0</ele><time>2026-05-04T08:50:39Z</time></trkpt><trkpt lat="32.08410703861697" lon="-5.988431931560905"><ele>1418.0</ele><time>2026-05-04T08:50:40Z</time></trkpt><trkpt lat="32.08414974576568" lon="-5.988520525770281"><ele>1417.1428571428573</ele><time>2026-05-04T08:50:42Z</time></trkpt><trkpt lat="32.084137539337625" lon="-5.988632972585583"><ele>1416.2857142857142</ele><time>2026-05-04T08:50:44Z</time></trkpt><trkpt lat="32.084124228585424" lon="-5.988712062198343"><ele>1415.4285714285716</ele><time>2026-05-04T08:50:45Z</time></trkpt><trkpt lat="32.084120898413715" lon="-5.988802335902999"><ele>1414.5714285714287</ele><time>2026-05-04T08:50:46Z</time></trkpt><trkpt lat="32.08411837913505" lon="-5.988881301140782"><ele>1413.7142857142858</ele><time>2026-05-04T08:50:47Z</time></trkpt><trkpt lat="32.084112555923646" lon="-5.988965917803031"><ele>1412.857142857143</ele><time>2026-05-04T08:50:48Z</time></trkpt><trkpt lat="32.08412236080592" lon="-5.989040057401757"><ele>1412.0</ele><time>2026-05-04T08:50:49Z</time></trkpt><trkpt lat="32.08409274747739" lon="-5.989169524897822"><ele>1412.0</ele><time>2026-05-04T08:50:51Z</time></trkpt><trkpt lat="32.08408747535631" lon="-5.9893105897306125"><ele>1412.0</ele><time>2026-05-04T08:50:53Z</time></trkpt><trkpt lat="32.084039651534916" lon="-5.989456393438285"><ele>1412.0</ele><time>2026-05-04T08:50:55Z</time></trkpt><trkpt lat="32.08401406860948" lon="-5.989547063356647"><ele>1412.0</ele><time>2026-05-04T08:50:56Z</time></trkpt><trkpt lat="32.08398449576235" lon="-5.989640302983425"><ele>1412.0</ele><time>2026-05-04T08:50:57Z</time></trkpt><trkpt lat="32.083958476194304" lon="-5.9897232025541145"><ele>1412.0</ele><time>2026-05-04T08:50:58Z</time></trkpt><trkpt lat="32.08393153260038" lon="-5.989807726464003"><ele>1412.0</ele><time>2026-05-04T08:50:59Z</time></trkpt><trkpt lat="32.08390532327256" lon="-5.98988665781738"><ele>1412.0</ele><time>2026-05-04T08:51:00Z</time></trkpt><trkpt lat="32.08389257508336" lon="-5.98996869043263"><ele>1412.0</ele><time>2026-05-04T08:51:01Z</time></trkpt><trkpt lat="32.08382946110578" lon="-5.990025312709258"><ele>1412.0</ele><time>2026-05-04T08:51:02Z</time></trkpt><trkpt lat="32.08378407856265" lon="-5.990098237155112"><ele>1412.0</ele><time>2026-05-04T08:51:03Z</time></trkpt><trkpt lat="32.08373448062455" lon="-5.990176644947582"><ele>1416.8333333333335</ele><time>2026-05-04T08:51:04Z</time></trkpt><trkpt lat="32.08375102167521" lon="-5.99029403832416"><ele>1421.6666666666667</ele><time>2026-05-04T08:51:05Z</time></trkpt><trkpt lat="32.08370980966793" lon="-5.990382045721055"><ele>1426.5</ele><time>2026-05-04T08:51:06Z</time></trkpt><trkpt lat="32.08366929585235" lon="-5.990468414244911"><ele>1431.3333333333333</ele><time>2026-05-04T08:51:07Z</time></trkpt><trkpt lat="32.08361380244812" lon="-5.990548165677178"><ele>1436.1666666666665</ele><time>2026-05-04T08:51:08Z</time></trkpt><trkpt lat="32.08356823270867" lon="-5.9906350485095565"><ele>1441.0</ele><time>2026-05-04T08:51:09Z</time></trkpt><trkpt lat="32.08352707020544" lon="-5.990716944021376"><ele>1441.0</ele><time>2026-05-04T08:51:10Z</time></trkpt><trkpt lat="32.08347485100204" lon="-5.990798021884523"><ele>1441.0</ele><time>2026-05-04T08:51:11Z</time></trkpt><trkpt lat="32.08342429071754" lon="-5.990876524010303"><ele>1441.0</ele><time>2026-05-04T08:51:12Z</time></trkpt><trkpt lat="32.08337526130569" lon="-5.9909559290114975"><ele>1441.0</ele><time>2026-05-04T08:51:13Z</time></trkpt><trkpt lat="32.08332009971107" lon="-5.991035424226798"><ele>1441.0</ele><time>2026-05-04T08:51:14Z</time></trkpt><trkpt lat="32.08326657388611" lon="-5.991112975064758"><ele>1441.0</ele><time>2026-05-04T08:51:15Z</time></trkpt><trkpt lat="32.08321166093378" lon="-5.991194307313972"><ele>1438.0</ele><time>2026-05-04T08:51:16Z</time></trkpt><trkpt lat="32.08315709619699" lon="-5.991274572620765"><ele>1435.0</ele><time>2026-05-04T08:51:17Z</time></trkpt><trkpt lat="32.083098902880494" lon="-5.99135632627831"><ele>1432.0</ele><time>2026-05-04T08:51:18Z</time></trkpt><trkpt lat="32.08303637037025" lon="-5.991449282756207"><ele>1429.0</ele><time>2026-05-04T08:51:19Z</time></trkpt><trkpt lat="32.08296679742122" lon="-5.991550366942995"><ele>1426.0</ele><time>2026-05-04T08:51:20Z</time></trkpt><trkpt lat="32.08289648221555" lon="-5.991651955436721"><ele>1438.0</ele><time>2026-05-04T08:51:21Z</time></trkpt><trkpt lat="32.08279602762065" lon="-5.991769635022289"><ele>1450.0</ele><time>2026-05-04T08:51:22Z</time></trkpt><trkpt lat="32.082707390521605" lon="-5.991855111981928"><ele>1462.0</ele><time>2026-05-04T08:51:23Z</time></trkpt><trkpt lat="32.08262562460353" lon="-5.991933445751896"><ele>1474.0</ele><time>2026-05-04T08:51:24Z</time></trkpt><trkpt lat="32.08254654153794" lon="-5.992009978864715"><ele>1474.0</ele><time>2026-05-04T08:51:25Z</time></trkpt><trkpt lat="32.08247389479294" lon="-5.9920795854947775"><ele>1474.0</ele><time>2026-05-04T08:51:26Z</time></trkpt><trkpt lat="32.08240827953085" lon="-5.992150659960303"><ele>1474.0</ele><time>2026-05-04T08:51:27Z</time></trkpt><trkpt lat="32.082332117199726" lon="-5.9922374012401765"><ele>1474.0</ele><time>2026-05-04T08:51:28Z</time></trkpt><trkpt lat="32.082253565247974" lon="-5.9923270068967245"><ele>1474.0</ele><time>2026-05-04T08:51:29Z</time></trkpt><trkpt lat="32.08217890004385" lon="-5.9924121788932405"><ele>1466.1666666666665</ele><time>2026-05-04T08:51:30Z</time></trkpt><trkpt lat="32.08210672562896" lon="-5.992494756854182"><ele>1458.3333333333333</ele><time>2026-05-04T08:51:31Z</time></trkpt><trkpt lat="32.08207346576582" lon="-5.992577074002923"><ele>1450.5</ele><time>2026-05-04T08:51:32Z</time></trkpt><trkpt lat="32.08203568208441" lon="-5.992676094331774"><ele>1442.6666666666667</ele><time>2026-05-04T08:51:33Z</time></trkpt><trkpt lat="32.08200293945508" lon="-5.992761398882977"><ele>1434.8333333333335</ele><time>2026-05-04T08:51:34Z</time></trkpt><trkpt lat="32.0820329408288" lon="-5.992849981551833"><ele>1427.0</ele><time>2026-05-04T08:51:35Z</time></trkpt><trkpt lat="32.08204474071226" lon="-5.992964092234857"><ele>1425.8</ele><time>2026-05-04T08:51:36Z</time></trkpt><trkpt lat="32.08205732362251" lon="-5.993079502667376"><ele>1424.6</ele><time>2026-05-04T08:51:37Z</time></trkpt><trkpt lat="32.082071849237316" lon="-5.993212818870553"><ele>1423.3999999999999</ele><time>2026-05-04T08:51:38Z</time></trkpt><trkpt lat="32.0820851076891" lon="-5.993348721549179"><ele>1422.1999999999998</ele><time>2026-05-04T08:51:39Z</time></trkpt><trkpt lat="32.0820924694654" lon="-5.993484084950421"><ele>1421.0</ele><time>2026-05-04T08:51:40Z</time></trkpt><trkpt lat="32.08210059571673" lon="-5.993630235039589"><ele>1419.75</ele><time>2026-05-04T08:51:41Z</time></trkpt><trkpt lat="32.082109269056076" lon="-5.993782805488231"><ele>1418.5</ele><time>2026-05-04T08:51:42Z</time></trkpt><trkpt lat="32.08211784881916" lon="-5.993939846895792"><ele>1417.25</ele><time>2026-05-04T08:51:43Z</time></trkpt><trkpt lat="32.082105951993114" lon="-5.994098094658611"><ele>1416.0</ele><time>2026-05-04T08:51:44Z</time></trkpt><trkpt lat="32.082094342816575" lon="-5.994232776766872"><ele>1415.6</ele><time>2026-05-04T08:51:45Z</time></trkpt><trkpt lat="32.08207920378229" lon="-5.99435563245396"><ele>1415.1999999999998</ele><time>2026-05-04T08:51:46Z</time></trkpt><trkpt lat="32.08206070705755" lon="-5.994468928876068"><ele>1414.8000000000002</ele><time>2026-05-04T08:51:47Z</time></trkpt><trkpt lat="32.08204834890607" lon="-5.994590886806361"><ele>1414.4</ele><time>2026-05-04T08:51:48Z</time></trkpt><trkpt lat="32.08204425762318" lon="-5.994704013057525"><ele>1414.0</ele><time>2026-05-04T08:51:49Z</time></trkpt><trkpt lat="32.08202740828285" lon="-5.9948043490409955"><ele>1414.0</ele><time>2026-05-04T08:51:50Z</time></trkpt><trkpt lat="32.0820353210039" lon="-5.994889393356223"><ele>1414.0</ele><time>2026-05-04T08:51:51Z</time></trkpt><trkpt lat="32.082025752998284" lon="-5.994964183048231"><ele>1414.0</ele><time>2026-05-04T08:51:52Z</time></trkpt><trkpt lat="32.08204270375564" lon="-5.995097179119348"><ele>1414.0</ele><time>2026-05-04T08:51:54Z</time></trkpt><trkpt lat="32.082045190820715" lon="-5.995187408361363"><ele>1414.0</ele><time>2026-05-04T08:51:55Z</time></trkpt><trkpt lat="32.08204775691719" lon="-5.995276786131316"><ele>1414.0</ele><time>2026-05-04T08:51:56Z</time></trkpt><trkpt lat="32.08205129225385" lon="-5.995390224236663"><ele>1413.8333333333333</ele><time>2026-05-04T08:51:57Z</time></trkpt><trkpt lat="32.08205507705425" lon="-5.995504028437409"><ele>1413.6666666666665</ele><time>2026-05-04T08:51:58Z</time></trkpt><trkpt lat="32.08205823410509" lon="-5.995627436398626"><ele>1413.5</ele><time>2026-05-04T08:51:59Z</time></trkpt><trkpt lat="32.08208591774338" lon="-5.995729192598236"><ele>1413.3333333333333</ele><time>2026-05-04T08:52:00Z</time></trkpt><trkpt lat="32.082113263309765" lon="-5.9958140691813675"><ele>1413.1666666666667</ele><time>2026-05-04T08:52:01Z</time></trkpt><trkpt lat="32.08213805969091" lon="-5.995889296669972"><ele>1413.0</ele><time>2026-05-04T08:52:02Z</time></trkpt><trkpt lat="32.08216383260117" lon="-5.995970018633543"><ele>1415.8333333333333</ele><time>2026-05-04T08:52:03Z</time></trkpt><trkpt lat="32.08218357503593" lon="-5.9960597546798855"><ele>1418.6666666666667</ele><time>2026-05-04T08:52:04Z</time></trkpt><trkpt lat="32.08220127711323" lon="-5.996143386937718"><ele>1421.5</ele><time>2026-05-04T08:52:05Z</time></trkpt><trkpt lat="32.08222037726164" lon="-5.9962316371739535"><ele>1424.3333333333335</ele><time>2026-05-04T08:52:06Z</time></trkpt><trkpt lat="32.0822472174311" lon="-5.99635610366955"><ele>1427.1666666666667</ele><time>2026-05-04T08:52:07Z</time></trkpt><trkpt lat="32.08225805777226" lon="-5.9964802335770955"><ele>1430.0</ele><time>2026-05-04T08:52:08Z</time></trkpt><trkpt lat="32.0822704405805" lon="-5.996622085078395"><ele>1432.0</ele><time>2026-05-04T08:52:08.999Z</time></trkpt><trkpt lat="32.08227630915702" lon="-5.996751405695032"><ele>1434.0</ele><time>2026-05-04T08:52:09.999Z</time></trkpt><trkpt lat="32.082315917902406" lon="-5.996888018233577"><ele>1436.0</ele><time>2026-05-04T08:52:10.999Z</time></trkpt><trkpt lat="32.082355004606036" lon="-5.99701946569537"><ele>1438.0</ele><time>2026-05-04T08:52:11.999Z</time></trkpt><trkpt lat="32.08237687242421" lon="-5.997132222709389"><ele>1440.0</ele><time>2026-05-04T08:52:12.999Z</time></trkpt><trkpt lat="32.08241886846235" lon="-5.997238026164453"><ele>1437.1666666666667</ele><time>2026-05-04T08:52:13.999Z</time></trkpt><trkpt lat="32.08245202139137" lon="-5.997351594829982"><ele>1434.3333333333333</ele><time>2026-05-04T08:52:14.999Z</time></trkpt><trkpt lat="32.08248378107759" lon="-5.997459835406699"><ele>1431.5</ele><time>2026-05-04T08:52:15.999Z</time></trkpt><trkpt lat="32.08250698309206" lon="-5.997559514813987"><ele>1428.6666666666665</ele><time>2026-05-04T08:52:16.999Z</time></trkpt><trkpt lat="32.08252252575095" lon="-5.997646875198883"><ele>1425.8333333333333</ele><time>2026-05-04T08:52:17.999Z</time></trkpt><trkpt lat="32.0825377215313" lon="-5.997731969764614"><ele>1423.0</ele><time>2026-05-04T08:52:18.999Z</time></trkpt><trkpt lat="32.08255467135936" lon="-5.997825300545606"><ele>1422.0</ele><time>2026-05-04T08:52:19.999Z</time></trkpt><trkpt lat="32.082576152926" lon="-5.99794473156659"><ele>1421.0</ele><time>2026-05-04T08:52:20.999Z</time></trkpt><trkpt lat="32.08259906723676" lon="-5.9980741767423496"><ele>1420.0</ele><time>2026-05-04T08:52:21.999Z</time></trkpt><trkpt lat="32.08261887122569" lon="-5.998186050716433"><ele>1419.0</ele><time>2026-05-04T08:52:22.999Z</time></trkpt><trkpt lat="32.08263823728576" lon="-5.998295450797918"><ele>1418.0</ele><time>2026-05-04T08:52:23.999Z</time></trkpt><trkpt lat="32.082556556756145" lon="-5.998436215853966"><ele>1417.6000000000001</ele><time>2026-05-04T08:52:24.999Z</time></trkpt><trkpt lat="32.0825392762354" lon="-5.998566950969979"><ele>1417.2</ele><time>2026-05-04T08:52:25.999Z</time></trkpt><trkpt lat="32.082511077586695" lon="-5.998682683090179"><ele>1416.8</ele><time>2026-05-04T08:52:26.999Z</time></trkpt><trkpt lat="32.08248346075608" lon="-5.998791100903288"><ele>1416.4</ele><time>2026-05-04T08:52:27.999Z</time></trkpt><trkpt lat="32.08246701194901" lon="-5.998913323384213"><ele>1416.0</ele><time>2026-05-04T08:52:28.999Z</time></trkpt><trkpt lat="32.0824636537873" lon="-5.999044541877587"><ele>1415.75</ele><time>2026-05-04T08:52:29.999Z</time></trkpt><trkpt lat="32.082453896765934" lon="-5.999181343917016"><ele>1415.5</ele><time>2026-05-04T08:52:30.999Z</time></trkpt><trkpt lat="32.082435688019956" lon="-5.999323115525185"><ele>1415.25</ele><time>2026-05-04T08:52:31.999Z</time></trkpt><trkpt lat="32.082411194332565" lon="-5.999459777948516"><ele>1415.0</ele><time>2026-05-04T08:52:33Z</time></trkpt><trkpt lat="32.08238382584194" lon="-5.999593890461687"><ele>1415.0</ele><time>2026-05-04T08:52:34Z</time></trkpt><trkpt lat="32.082364202567696" lon="-5.999724591438019"><ele>1415.0</ele><time>2026-05-04T08:52:35Z</time></trkpt><trkpt lat="32.08245171137845" lon="-5.999877897177364"><ele>1415.0</ele><time>2026-05-04T08:52:36Z</time></trkpt><trkpt lat="32.082427915909506" lon="-6.000001636138772"><ele>1415.0</ele><time>2026-05-04T08:52:37Z</time></trkpt><trkpt lat="32.082406874320895" lon="-6.000113260607165"><ele>1415.0</ele><time>2026-05-04T08:52:38Z</time></trkpt><trkpt lat="32.08238529719343" lon="-6.000224212861847"><ele>1415.0</ele><time>2026-05-04T08:52:39Z</time></trkpt><trkpt lat="32.08236585582501" lon="-6.000326885581522"><ele>1415.0</ele><time>2026-05-04T08:52:40Z</time></trkpt><trkpt lat="32.08234322166789" lon="-6.000446331519347"><ele>1415.0</ele><time>2026-05-04T08:52:41Z</time></trkpt><trkpt lat="32.082317647406896" lon="-6.0005676021305865"><ele>1415.0</ele><time>2026-05-04T08:52:42Z</time></trkpt><trkpt lat="32.082294036077535" lon="-6.000669869059014"><ele>1415.0</ele><time>2026-05-04T08:52:43Z</time></trkpt><trkpt lat="32.08227167762022" lon="-6.000763638161728"><ele>1415.0</ele><time>2026-05-04T08:52:44Z</time></trkpt><trkpt lat="32.0822492234937" lon="-6.000859672335725"><ele>1415.0</ele><time>2026-05-04T08:52:45Z</time></trkpt><trkpt lat="32.08222402962883" lon="-6.000967424024582"><ele>1415.0</ele><time>2026-05-04T08:52:46Z</time></trkpt><trkpt lat="32.0821967902422" lon="-6.001083924256808"><ele>1415.0</ele><time>2026-05-04T08:52:47Z</time></trkpt><trkpt lat="32.08216723729908" lon="-6.001211419053349"><ele>1413.0</ele><time>2026-05-04T08:52:48Z</time></trkpt><trkpt lat="32.08215618265182" lon="-6.001319296404588"><ele>1411.0</ele><time>2026-05-04T08:52:49Z</time></trkpt><trkpt lat="32.08215106555608" lon="-6.001440311229371"><ele>1409.0</ele><time>2026-05-04T08:52:50Z</time></trkpt><trkpt lat="32.082146368152856" lon="-6.001552010037212"><ele>1407.0</ele><time>2026-05-04T08:52:51Z</time></trkpt><trkpt lat="32.08214145788084" lon="-6.0016700136502426"><ele>1405.0</ele><time>2026-05-04T08:52:52Z</time></trkpt><trkpt lat="32.08213666760223" lon="-6.001785133615705"><ele>1403.4</ele><time>2026-05-04T08:52:53Z</time></trkpt><trkpt lat="32.082131693809714" lon="-6.0018975042163145"><ele>1401.8</ele><time>2026-05-04T08:52:54Z</time></trkpt><trkpt lat="32.08215744496797" lon="-6.002028570385597"><ele>1400.1999999999998</ele><time>2026-05-04T08:52:55Z</time></trkpt><trkpt lat="32.08218421031589" lon="-6.0021648551159466"><ele>1398.6</ele><time>2026-05-04T08:52:56Z</time></trkpt><trkpt lat="32.08221208796279" lon="-6.00230122420025"><ele>1397.0</ele><time>2026-05-04T08:52:57Z</time></trkpt><trkpt lat="32.082229004446695" lon="-6.002433173293401"><ele>1398.0</ele><time>2026-05-04T08:52:58Z</time></trkpt><trkpt lat="32.08228185171862" lon="-6.002557222955029"><ele>1399.0</ele><time>2026-05-04T08:52:59Z</time></trkpt><trkpt lat="32.08233861567609" lon="-6.002677679829324"><ele>1400.0</ele><time>2026-05-04T08:53:00Z</time></trkpt><trkpt lat="32.082395500457295" lon="-6.002782112477286"><ele>1401.0</ele><time>2026-05-04T08:53:01Z</time></trkpt><trkpt lat="32.082437809461844" lon="-6.002886830626159"><ele>1402.0</ele><time>2026-05-04T08:53:02Z</time></trkpt><trkpt lat="32.08248838572343" lon="-6.002987959166771"><ele>1402.6</ele><time>2026-05-04T08:53:03Z</time></trkpt><trkpt lat="32.08254525334075" lon="-6.003095351507895"><ele>1403.1999999999998</ele><time>2026-05-04T08:53:04Z</time></trkpt><trkpt lat="32.08260331502456" lon="-6.003210065667944"><ele>1403.8</ele><time>2026-05-04T08:53:05Z</time></trkpt><trkpt lat="32.08265649148375" lon="-6.003319354572434"><ele>1404.4</ele><time>2026-05-04T08:53:06Z</time></trkpt><trkpt lat="32.08270570363253" lon="-6.003416103902156"><ele>1405.0</ele><time>2026-05-04T08:53:07Z</time></trkpt><trkpt lat="32.082760194463155" lon="-6.003516156628687"><ele>1402.0</ele><time>2026-05-04T08:53:08Z</time></trkpt><trkpt lat="32.08281733168485" lon="-6.00363035097987"><ele>1399.0</ele><time>2026-05-04T08:53:09Z</time></trkpt><trkpt lat="32.082885061087765" lon="-6.003740280051962"><ele>1396.0</ele><time>2026-05-04T08:53:10Z</time></trkpt><trkpt lat="32.082975935207514" lon="-6.00383301757973"><ele>1393.0</ele><time>2026-05-04T08:53:11Z</time></trkpt><trkpt lat="32.0830368423838" lon="-6.003932294440816"><ele>1393.0</ele><time>2026-05-04T08:53:12Z</time></trkpt><trkpt lat="32.08309863349025" lon="-6.004022892363318"><ele>1393.0</ele><time>2026-05-04T08:53:13Z</time></trkpt><trkpt lat="32.08316458338116" lon="-6.004100694307797"><ele>1393.0</ele><time>2026-05-04T08:53:14Z</time></trkpt><trkpt lat="32.08323816076975" lon="-6.004183743944286"><ele>1393.0</ele><time>2026-05-04T08:53:15Z</time></trkpt><trkpt lat="32.08331326890427" lon="-6.004266995654018"><ele>1393.0</ele><time>2026-05-04T08:53:16Z</time></trkpt><trkpt lat="32.08337620211855" lon="-6.0043560694924905"><ele>1394.0</ele><time>2026-05-04T08:53:17Z</time></trkpt><trkpt lat="32.083445041838964" lon="-6.004429053113274"><ele>1395.0</ele><time>2026-05-04T08:53:18Z</time></trkpt><trkpt lat="32.083513473458744" lon="-6.004501855782802"><ele>1396.0</ele><time>2026-05-04T08:53:19Z</time></trkpt><trkpt lat="32.08358280490361" lon="-6.0045760426226895"><ele>1397.0</ele><time>2026-05-04T08:53:20Z</time></trkpt><trkpt lat="32.08367478754224" lon="-6.004649639961659"><ele>1398.0</ele><time>2026-05-04T08:53:21Z</time></trkpt><trkpt lat="32.08375839351098" lon="-6.0047071601666415"><ele>1398.0</ele><time>2026-05-04T08:53:22Z</time></trkpt><trkpt lat="32.08384148462207" lon="-6.004763581938139"><ele>1398.0</ele><time>2026-05-04T08:53:23Z</time></trkpt><trkpt lat="32.083922134561064" lon="-6.004819335065971"><ele>1398.0</ele><time>2026-05-04T08:53:24Z</time></trkpt><trkpt lat="32.08400547806999" lon="-6.004876950280858"><ele>1398.0</ele><time>2026-05-04T08:53:25Z</time></trkpt><trkpt lat="32.08409897062561" lon="-6.004941054781709"><ele>1398.0</ele><time>2026-05-04T08:53:26Z</time></trkpt><trkpt lat="32.08419735159822" lon="-6.005008085190611"><ele>1397.8000000000002</ele><time>2026-05-04T08:53:27Z</time></trkpt><trkpt lat="32.084298671780424" lon="-6.005077147498975"><ele>1397.6</ele><time>2026-05-04T08:53:28Z</time></trkpt><trkpt lat="32.08438148108917" lon="-6.005144482733045"><ele>1397.4</ele><time>2026-05-04T08:53:29Z</time></trkpt><trkpt lat="32.084465416021054" lon="-6.005213467242931"><ele>1397.1999999999998</ele><time>2026-05-04T08:53:30Z</time></trkpt><trkpt lat="32.08455014021742" lon="-6.005283066750206"><ele>1397.0</ele><time>2026-05-04T08:53:31Z</time></trkpt><trkpt lat="32.08461422948694" lon="-6.005336357325456"><ele>1397.0000000000002</ele><time>2026-05-04T08:53:32Z</time></trkpt><trkpt lat="32.08467009244275" lon="-6.005382989550659"><ele>1397.0</ele><time>2026-05-04T08:53:33Z</time></trkpt><trkpt lat="32.084735081736845" lon="-6.005427792157548"><ele>1397.0</ele><time>2026-05-04T08:53:34Z</time></trkpt><trkpt lat="32.08479238936894" lon="-6.005495847946206"><ele>1397.0</ele><time>2026-05-04T08:53:35Z</time></trkpt><trkpt lat="32.08484670918913" lon="-6.005561252480466"><ele>1397.0</ele><time>2026-05-04T08:53:36Z</time></trkpt><trkpt lat="32.084894127594396" lon="-6.005627129553995"><ele>1397.0000000000002</ele><time>2026-05-04T08:53:37Z</time></trkpt><trkpt lat="32.08493618559389" lon="-6.00569658727172"><ele>1397.0</ele><time>2026-05-04T08:53:38Z</time></trkpt><trkpt lat="32.084962546336925" lon="-6.005764452439131"><ele>1396.1666666666667</ele><time>2026-05-04T08:53:39Z</time></trkpt><trkpt lat="32.08497862100824" lon="-6.005837680426971"><ele>1395.3333333333335</ele><time>2026-05-04T08:53:40Z</time></trkpt><trkpt lat="32.084996520142624" lon="-6.005926901373539"><ele>1394.5</ele><time>2026-05-04T08:53:41Z</time></trkpt><trkpt lat="32.08501918157813" lon="-6.006019445900388"><ele>1393.6666666666667</ele><time>2026-05-04T08:53:42Z</time></trkpt><trkpt lat="32.085020542270684" lon="-6.006126304263895"><ele>1392.8333333333333</ele><time>2026-05-04T08:53:43Z</time></trkpt><trkpt lat="32.08505192991836" lon="-6.006236052953767"><ele>1392.0</ele><time>2026-05-04T08:53:44Z</time></trkpt><trkpt lat="32.08506900307096" lon="-6.006347916234699"><ele>1392.0</ele><time>2026-05-04T08:53:45Z</time></trkpt><trkpt lat="32.085086821592014" lon="-6.006463327905906"><ele>1392.0</ele><time>2026-05-04T08:53:46Z</time></trkpt><trkpt lat="32.085093979452516" lon="-6.00657187264401"><ele>1392.0</ele><time>2026-05-04T08:53:47Z</time></trkpt><trkpt lat="32.08509754278147" lon="-6.006686455337355"><ele>1392.0</ele><time>2026-05-04T08:53:48Z</time></trkpt><trkpt lat="32.0851152509681" lon="-6.006802427326252"><ele>1392.0</ele><time>2026-05-04T08:53:49Z</time></trkpt><trkpt lat="32.08513466716852" lon="-6.006924831656146"><ele>1390.6</ele><time>2026-05-04T08:53:50Z</time></trkpt><trkpt lat="32.08516972855482" lon="-6.007050006579983"><ele>1389.1999999999998</ele><time>2026-05-04T08:53:51Z</time></trkpt><trkpt lat="32.08517890698551" lon="-6.007183003667026"><ele>1387.8</ele><time>2026-05-04T08:53:52Z</time></trkpt><trkpt lat="32.085197612178945" lon="-6.007311485868917"><ele>1386.4</ele><time>2026-05-04T08:53:53Z</time></trkpt><trkpt lat="32.085208857346615" lon="-6.007437347488292"><ele>1385.0</ele><time>2026-05-04T08:53:54Z</time></trkpt><trkpt lat="32.085219992166564" lon="-6.0075647916004575"><ele>1384.25</ele><time>2026-05-04T08:53:55Z</time></trkpt><trkpt lat="32.0852371462639" lon="-6.007708181262513"><ele>1383.5</ele><time>2026-05-04T08:53:56Z</time></trkpt><trkpt lat="32.08522626918566" lon="-6.007836967307032"><ele>1382.75</ele><time>2026-05-04T08:53:57Z</time></trkpt><trkpt lat="32.08521551020992" lon="-6.00796435339622"><ele>1382.0</ele><time>2026-05-04T08:53:58Z</time></trkpt><trkpt lat="32.08520045959901" lon="-6.0080952544985164"><ele>1382.0</ele><time>2026-05-04T08:53:59Z</time></trkpt><trkpt lat="32.08518258800562" lon="-6.008221791137483"><ele>1382.0</ele><time>2026-05-04T08:54:00Z</time></trkpt><trkpt lat="32.08517230388113" lon="-6.008338894119051"><ele>1382.0</ele><time>2026-05-04T08:54:01Z</time></trkpt><trkpt lat="32.08518198475451" lon="-6.008453168598582"><ele>1382.0</ele><time>2026-05-04T08:54:02Z</time></trkpt><trkpt lat="32.085181161999635" lon="-6.0085626667754335"><ele>1382.0</ele><time>2026-05-04T08:54:03Z</time></trkpt><trkpt lat="32.085195572032084" lon="-6.008662499292578"><ele>1382.0</ele><time>2026-05-04T08:54:04Z</time></trkpt><trkpt lat="32.08521489629807" lon="-6.008775526371785"><ele>1382.0</ele><time>2026-05-04T08:54:05Z</time></trkpt><trkpt lat="32.0852225032246" lon="-6.008894517708328"><ele>1382.0</ele><time>2026-05-04T08:54:06Z</time></trkpt><trkpt lat="32.08525136995456" lon="-6.009019446201909"><ele>1382.0</ele><time>2026-05-04T08:54:07Z</time></trkpt><trkpt lat="32.08526889703571" lon="-6.009136892986872"><ele>1382.0</ele><time>2026-05-04T08:54:08Z</time></trkpt><trkpt lat="32.08530959257128" lon="-6.00925942634158"><ele>1382.0</ele><time>2026-05-04T08:54:09Z</time></trkpt><trkpt lat="32.085336449558895" lon="-6.00937851251271"><ele>1382.0</ele><time>2026-05-04T08:54:09.999Z</time></trkpt><trkpt lat="32.08537365850975" lon="-6.009501442474267"><ele>1382.0</ele><time>2026-05-04T08:54:10.999Z</time></trkpt><trkpt lat="32.08540780138828" lon="-6.009611392960415"><ele>1382.0</ele><time>2026-05-04T08:54:11.999Z</time></trkpt><trkpt lat="32.08543417204383" lon="-6.009716010153556"><ele>1382.0</ele><time>2026-05-04T08:54:12.999Z</time></trkpt><trkpt lat="32.08554297794906" lon="-6.009795051363695"><ele>1382.0</ele><time>2026-05-04T08:54:13.999Z</time></trkpt><trkpt lat="32.08559234407224" lon="-6.0098955944935755"><ele>1382.0</ele><time>2026-05-04T08:54:14.999Z</time></trkpt><trkpt lat="32.0856440127683" lon="-6.009985676303296"><ele>1382.0</ele><time>2026-05-04T08:54:15.999Z</time></trkpt><trkpt lat="32.08569961771126" lon="-6.0100548953551085"><ele>1382.0</ele><time>2026-05-04T08:54:16.999Z</time></trkpt><trkpt lat="32.08574679296243" lon="-6.010126832505278"><ele>1382.0</ele><time>2026-05-04T08:54:17.999Z</time></trkpt><trkpt lat="32.08578662778989" lon="-6.010215586811459"><ele>1382.0</ele><time>2026-05-04T08:54:18.999Z</time></trkpt><trkpt lat="32.0858118515243" lon="-6.010312960530033"><ele>1383.6</ele><time>2026-05-04T08:54:19.999Z</time></trkpt><trkpt lat="32.085828771952514" lon="-6.01041603071933"><ele>1385.1999999999998</ele><time>2026-05-04T08:54:20.999Z</time></trkpt><trkpt lat="32.085841334030405" lon="-6.0105338255394845"><ele>1386.8</ele><time>2026-05-04T08:54:21.999Z</time></trkpt><trkpt lat="32.08585634398722" lon="-6.010667368924584"><ele>1388.4</ele><time>2026-05-04T08:54:22.999Z</time></trkpt><trkpt lat="32.08586832460326" lon="-6.01080687687266"><ele>1390.0</ele><time>2026-05-04T08:54:23.999Z</time></trkpt><trkpt lat="32.08587745974586" lon="-6.010942379547023"><ele>1390.0</ele><time>2026-05-04T08:54:24.999Z</time></trkpt><trkpt lat="32.08588203797938" lon="-6.011066872023067"><ele>1390.0</ele><time>2026-05-04T08:54:25.999Z</time></trkpt><trkpt lat="32.08588399310325" lon="-6.011185298727955"><ele>1390.0</ele><time>2026-05-04T08:54:26.999Z</time></trkpt><trkpt lat="32.08587172431364" lon="-6.011292490591204"><ele>1390.0</ele><time>2026-05-04T08:54:27.999Z</time></trkpt><trkpt lat="32.085851753902425" lon="-6.011408423787792"><ele>1390.0</ele><time>2026-05-04T08:54:28.999Z</time></trkpt><trkpt lat="32.08583308931877" lon="-6.011534477068526"><ele>1390.4</ele><time>2026-05-04T08:54:29.999Z</time></trkpt><trkpt lat="32.085825315853526" lon="-6.011661275257974"><ele>1390.8</ele><time>2026-05-04T08:54:30.999Z</time></trkpt><trkpt lat="32.08581339768859" lon="-6.011783483025631"><ele>1391.1999999999998</ele><time>2026-05-04T08:54:31.999Z</time></trkpt><trkpt lat="32.08579767703534" lon="-6.011904593901836"><ele>1391.6</ele><time>2026-05-04T08:54:32.999Z</time></trkpt><trkpt lat="32.08578536521622" lon="-6.012016198993419"><ele>1392.0</ele><time>2026-05-04T08:54:33.999Z</time></trkpt><trkpt lat="32.085777932448316" lon="-6.0121234749692425"><ele>1390.8</ele><time>2026-05-04T08:54:34.999Z</time></trkpt><trkpt lat="32.08575787271772" lon="-6.012218750433532"><ele>1389.6</ele><time>2026-05-04T08:54:35.999Z</time></trkpt><trkpt lat="32.085718587886774" lon="-6.012320738270984"><ele>1388.3999999999999</ele><time>2026-05-04T08:54:36.999Z</time></trkpt><trkpt lat="32.08568098167476" lon="-6.0124300113594815"><ele>1387.1999999999998</ele><time>2026-05-04T08:54:37.999Z</time></trkpt><trkpt lat="32.08564686586876" lon="-6.012536695950357"><ele>1386.0</ele><time>2026-05-04T08:54:39Z</time></trkpt><trkpt lat="32.08561989810305" lon="-6.0126399788008715"><ele>1384.3333333333333</ele><time>2026-05-04T08:54:40Z</time></trkpt><trkpt lat="32.0855918415757" lon="-6.012740067270282"><ele>1382.6666666666667</ele><time>2026-05-04T08:54:41Z</time></trkpt><trkpt lat="32.08555516600957" lon="-6.012835087024859"><ele>1381.0</ele><time>2026-05-04T08:54:42Z</time></trkpt><trkpt lat="32.08551024363893" lon="-6.0129309748878725"><ele>1379.3333333333335</ele><time>2026-05-04T08:54:43Z</time></trkpt><trkpt lat="32.08546009438745" lon="-6.013021148729939"><ele>1377.6666666666667</ele><time>2026-05-04T08:54:44Z</time></trkpt><trkpt lat="32.08540600567579" lon="-6.013096359462194"><ele>1376.0</ele><time>2026-05-04T08:54:45Z</time></trkpt><trkpt lat="32.08534848586056" lon="-6.013166986124393"><ele>1376.0</ele><time>2026-05-04T08:54:46Z</time></trkpt><trkpt lat="32.08528607282617" lon="-6.013216817270304"><ele>1376.0</ele><time>2026-05-04T08:54:47Z</time></trkpt><trkpt lat="32.08521619502645" lon="-6.013277708674805"><ele>1376.0</ele><time>2026-05-04T08:54:48Z</time></trkpt><trkpt lat="32.08514926974922" lon="-6.013332210370943"><ele>1376.0</ele><time>2026-05-04T08:54:49Z</time></trkpt><trkpt lat="32.085082661814276" lon="-6.013393608648398"><ele>1376.0</ele><time>2026-05-04T08:54:50Z</time></trkpt><trkpt lat="32.08502481625102" lon="-6.0134449054611165"><ele>1376.0</ele><time>2026-05-04T08:54:51Z</time></trkpt><trkpt lat="32.0849734233113" lon="-6.013493977889029"><ele>1375.1999999999998</ele><time>2026-05-04T08:54:52Z</time></trkpt><trkpt lat="32.084899278618096" lon="-6.013572816860904"><ele>1374.3999999999999</ele><time>2026-05-04T08:54:54Z</time></trkpt><trkpt lat="32.0848372758571" lon="-6.013625283344332"><ele>1373.6</ele><time>2026-05-04T08:54:56Z</time></trkpt><trkpt lat="32.08478685608872" lon="-6.013704233251227"><ele>1372.8</ele><time>2026-05-04T08:55:57Z</time></trkpt><trkpt lat="32.08470019344973" lon="-6.013790435345426"><ele>1372.0</ele><time>2026-05-04T08:55:59Z</time></trkpt><trkpt lat="32.0846064837731" lon="-6.013865456112014"><ele>1372.0</ele><time>2026-05-04T08:56:00Z</time></trkpt><trkpt lat="32.084543156275565" lon="-6.01391806673046"><ele>1372.0</ele><time>2026-05-04T08:56:00.999Z</time></trkpt><trkpt lat="32.084473114709574" lon="-6.013983389506413"><ele>1372.0</ele><time>2026-05-04T08:56:01.999Z</time></trkpt><trkpt lat="32.08439381279921" lon="-6.0140450057567465"><ele>1372.0</ele><time>2026-05-04T08:56:02.999Z</time></trkpt><trkpt lat="32.08431259192552" lon="-6.014098224381145"><ele>1372.0</ele><time>2026-05-04T08:56:03.999Z</time></trkpt><trkpt lat="32.08421284422733" lon="-6.014124351874701"><ele>1372.0</ele><time>2026-05-04T08:56:04.999Z</time></trkpt><trkpt lat="32.08412359132728" lon="-6.014150135047161"><ele>1372.0</ele><time>2026-05-04T08:56:05.999Z</time></trkpt><trkpt lat="32.084040774706786" lon="-6.014172031739291"><ele>1372.0</ele><time>2026-05-04T08:56:06.999Z</time></trkpt><trkpt lat="32.08395604084796" lon="-6.01420871627441"><ele>1372.0</ele><time>2026-05-04T08:56:07.999Z</time></trkpt><trkpt lat="32.08387899927899" lon="-6.01425582454547"><ele>1372.0</ele><time>2026-05-04T08:56:08.999Z</time></trkpt><trkpt lat="32.08380741748239" lon="-6.014296315688731"><ele>1372.0</ele><time>2026-05-04T08:56:09.999Z</time></trkpt><trkpt lat="32.08373022044881" lon="-6.014335850202657"><ele>1372.0</ele><time>2026-05-04T08:56:10.999Z</time></trkpt><trkpt lat="32.08365222811357" lon="-6.01438913892856"><ele>1372.0</ele><time>2026-05-04T08:56:11.999Z</time></trkpt><trkpt lat="32.083571617828994" lon="-6.01445260533219"><ele>1372.0</ele><time>2026-05-04T08:56:12.999Z</time></trkpt><trkpt lat="32.083492589384726" lon="-6.014524381772321"><ele>1372.0</ele><time>2026-05-04T08:56:13.999Z</time></trkpt><trkpt lat="32.08340881047724" lon="-6.014593741107363"><ele>1372.0</ele><time>2026-05-04T08:56:14.999Z</time></trkpt><trkpt lat="32.08332672895986" lon="-6.0146650348764235"><ele>1372.0</ele><time>2026-05-04T08:56:15.999Z</time></trkpt><trkpt lat="32.083240648948696" lon="-6.014733524314612"><ele>1372.0</ele><time>2026-05-04T08:56:16.999Z</time></trkpt><trkpt lat="32.083151510045774" lon="-6.0148012911489825"><ele>1372.0</ele><time>2026-05-04T08:56:17.999Z</time></trkpt><trkpt lat="32.08306322551938" lon="-6.014870368111416"><ele>1372.0</ele><time>2026-05-04T08:56:18.999Z</time></trkpt><trkpt lat="32.082971641436565" lon="-6.01493301445175"><ele>1372.0</ele><time>2026-05-04T08:56:19.999Z</time></trkpt><trkpt lat="32.082879415118285" lon="-6.014987766677434"><ele>1372.0</ele><time>2026-05-04T08:56:20.999Z</time></trkpt><trkpt lat="32.08278325802953" lon="-6.0150408713160655"><ele>1372.0</ele><time>2026-05-04T08:56:21.999Z</time></trkpt><trkpt lat="32.08268770290726" lon="-6.015096010043279"><ele>1372.0</ele><time>2026-05-04T08:56:22.999Z</time></trkpt><trkpt lat="32.08259435846613" lon="-6.015151211682434"><ele>1372.0</ele><time>2026-05-04T08:56:23.999Z</time></trkpt><trkpt lat="32.08249833547788" lon="-6.015209165240844"><ele>1372.0</ele><time>2026-05-04T08:56:24.999Z</time></trkpt><trkpt lat="32.08240020237719" lon="-6.015264803320538"><ele>1372.0</ele><time>2026-05-04T08:56:25.999Z</time></trkpt><trkpt lat="32.08229716637358" lon="-6.015303264902979"><ele>1372.0</ele><time>2026-05-04T08:56:26.999Z</time></trkpt><trkpt lat="32.08219688988409" lon="-6.015336269614695"><ele>1372.0</ele><time>2026-05-04T08:56:27.999Z</time></trkpt><trkpt lat="32.08209414996618" lon="-6.015365851842398"><ele>1372.0</ele><time>2026-05-04T08:56:28.999Z</time></trkpt><trkpt lat="32.08199300436156" lon="-6.0153972652048635"><ele>1372.0</ele><time>2026-05-04T08:56:29.999Z</time></trkpt><trkpt lat="32.081889441333594" lon="-6.015429763809838"><ele>1378.8</ele><time>2026-05-04T08:56:30.999Z</time></trkpt><trkpt lat="32.08178885556813" lon="-6.0154577517233765"><ele>1385.6</ele><time>2026-05-04T08:56:31.999Z</time></trkpt><trkpt lat="32.08169830909063" lon="-6.015489017319819"><ele>1392.3999999999999</ele><time>2026-05-04T08:56:32.999Z</time></trkpt><trkpt lat="32.08159625579923" lon="-6.015543643367584"><ele>1399.1999999999998</ele><time>2026-05-04T08:56:33.999Z</time></trkpt><trkpt lat="32.08150249218806" lon="-6.015608963243867"><ele>1406.0</ele><time>2026-05-04T08:56:34.999Z</time></trkpt><trkpt lat="32.08141359311368" lon="-6.015685456765305"><ele>1406.0</ele><time>2026-05-04T08:56:35.999Z</time></trkpt><trkpt lat="32.08132010771487" lon="-6.015756404997453"><ele>1406.0</ele><time>2026-05-04T08:56:36.999Z</time></trkpt><trkpt lat="32.081224653745075" lon="-6.015799058591408"><ele>1406.0</ele><time>2026-05-04T08:56:37.999Z</time></trkpt><trkpt lat="32.08113569749926" lon="-6.015822245119048"><ele>1406.0</ele><time>2026-05-04T08:56:38.999Z</time></trkpt><trkpt lat="32.08105076332102" lon="-6.0158537665187"><ele>1406.0</ele><time>2026-05-04T08:56:39.999Z</time></trkpt><trkpt lat="32.08095892731156" lon="-6.015892409459193"><ele>1398.5</ele><time>2026-05-04T08:56:40.999Z</time></trkpt><trkpt lat="32.0808674627242" lon="-6.01594972572626"><ele>1391.0</ele><time>2026-05-04T08:56:41.999Z</time></trkpt><trkpt lat="32.08076305892845" lon="-6.016002572531836"><ele>1383.5</ele><time>2026-05-04T08:56:42.999Z</time></trkpt><trkpt lat="32.08065063632415" lon="-6.016044248781221"><ele>1376.0</ele><time>2026-05-04T08:56:43.999Z</time></trkpt><trkpt lat="32.08053619868756" lon="-6.016084104420676"><ele>1375.4</ele><time>2026-05-04T08:56:45Z</time></trkpt><trkpt lat="32.08042922837792" lon="-6.016110974891528"><ele>1374.8</ele><time>2026-05-04T08:56:46Z</time></trkpt><trkpt lat="32.08032698942646" lon="-6.016145969706694"><ele>1374.2</ele><time>2026-05-04T08:56:47Z</time></trkpt><trkpt lat="32.08023135474117" lon="-6.01620244011153"><ele>1373.6000000000001</ele><time>2026-05-04T08:56:48Z</time></trkpt><trkpt lat="32.08013265114463" lon="-6.016263906267282"><ele>1373.0</ele><time>2026-05-04T08:56:49Z</time></trkpt><trkpt lat="32.080039762190346" lon="-6.0163253377027095"><ele>1373.0</ele><time>2026-05-04T08:56:50Z</time></trkpt><trkpt lat="32.07995378219601" lon="-6.016391614046519"><ele>1373.0</ele><time>2026-05-04T08:56:51Z</time></trkpt><trkpt lat="32.07987505810504" lon="-6.016472530611701"><ele>1373.0</ele><time>2026-05-04T08:56:52Z</time></trkpt><trkpt lat="32.07979293819208" lon="-6.016550299333083"><ele>1373.0</ele><time>2026-05-04T08:56:53Z</time></trkpt><trkpt lat="32.07970858549681" lon="-6.01661929582654"><ele>1373.0</ele><time>2026-05-04T08:56:54Z</time></trkpt><trkpt lat="32.07962546964523" lon="-6.016680865090506"><ele>1373.6000000000001</ele><time>2026-05-04T08:56:55Z</time></trkpt><trkpt lat="32.079536492993945" lon="-6.016744840020684"><ele>1374.2</ele><time>2026-05-04T08:56:56Z</time></trkpt><trkpt lat="32.07945062132046" lon="-6.016816781651367"><ele>1374.8</ele><time>2026-05-04T08:56:57Z</time></trkpt><trkpt lat="32.07936830594387" lon="-6.016903371663829"><ele>1375.4</ele><time>2026-05-04T08:56:58Z</time></trkpt><trkpt lat="32.079291859340884" lon="-6.017003583430548"><ele>1376.0</ele><time>2026-05-04T08:56:59Z</time></trkpt><trkpt lat="32.07922363480864" lon="-6.017120012314574"><ele>1376.0</ele><time>2026-05-04T08:57:00Z</time></trkpt><trkpt lat="32.079160453857405" lon="-6.017236063261542"><ele>1376.0</ele><time>2026-05-04T08:57:01Z</time></trkpt><trkpt lat="32.07909856772461" lon="-6.017340405010792"><ele>1376.0</ele><time>2026-05-04T08:57:02Z</time></trkpt><trkpt lat="32.0790339033008" lon="-6.017433234237019"><ele>1376.0</ele><time>2026-05-04T08:57:03Z</time></trkpt><trkpt lat="32.078976287755076" lon="-6.017526691295735"><ele>1376.0</ele><time>2026-05-04T08:57:04Z</time></trkpt><trkpt lat="32.07893144641801" lon="-6.01761402117121"><ele>1386.1999999999998</ele><time>2026-05-04T08:57:05Z</time></trkpt><trkpt lat="32.07889546061056" lon="-6.017713258985527"><ele>1396.3999999999999</ele><time>2026-05-04T08:57:06Z</time></trkpt><trkpt lat="32.07887027349018" lon="-6.017835873017101"><ele>1406.6</ele><time>2026-05-04T08:57:07Z</time></trkpt><trkpt lat="32.078854923762854" lon="-6.017961494077018"><ele>1416.8</ele><time>2026-05-04T08:57:08Z</time></trkpt><trkpt lat="32.078841819563884" lon="-6.018070199754758"><ele>1427.0</ele><time>2026-05-04T08:57:09Z</time></trkpt><trkpt lat="32.07882693010206" lon="-6.018161586866856"><ele>1427.0</ele><time>2026-05-04T08:57:10Z</time></trkpt><trkpt lat="32.0788005343957" lon="-6.018284440262691"><ele>1427.0</ele><time>2026-05-04T08:57:12Z</time></trkpt><trkpt lat="32.07878535667165" lon="-6.018360503971687"><ele>1427.0</ele><time>2026-05-04T08:57:15Z</time></trkpt><trkpt lat="32.0787602401263" lon="-6.018486865998425"><ele>1427.0</ele><time>2026-05-04T08:57:23Z</time></trkpt><trkpt lat="32.07874776958065" lon="-6.018570432409376"><ele>1427.0</ele><time>2026-05-04T08:57:24Z</time></trkpt><trkpt lat="32.07873167571295" lon="-6.018658489689845"><ele>1427.0</ele><time>2026-05-04T08:57:25Z</time></trkpt><trkpt lat="32.078732334510214" lon="-6.018762199717569"><ele>1422.6</ele><time>2026-05-04T08:57:26Z</time></trkpt><trkpt lat="32.07873465522834" lon="-6.018870261922528"><ele>1418.1999999999998</ele><time>2026-05-04T08:57:27Z</time></trkpt><trkpt lat="32.078739645615535" lon="-6.018979658756632"><ele>1413.8</ele><time>2026-05-04T08:57:28Z</time></trkpt><trkpt lat="32.07874931548342" lon="-6.019089180646026"><ele>1409.4</ele><time>2026-05-04T08:57:29Z</time></trkpt><trkpt lat="32.07875379000535" lon="-6.01919886239255"><ele>1405.0</ele><time>2026-05-04T08:57:30Z</time></trkpt><trkpt lat="32.07876166748616" lon="-6.0193189487530425"><ele>1400.75</ele><time>2026-05-04T08:57:31Z</time></trkpt><trkpt lat="32.07878429361855" lon="-6.019453602998441"><ele>1396.5</ele><time>2026-05-04T08:57:32Z</time></trkpt><trkpt lat="32.07881359792383" lon="-6.019595091121422"><ele>1392.25</ele><time>2026-05-04T08:57:33Z</time></trkpt><trkpt lat="32.07884097138462" lon="-6.019736080893413"><ele>1388.0</ele><time>2026-05-04T08:57:34Z</time></trkpt><trkpt lat="32.07885994121826" lon="-6.019870869370457"><ele>1384.6000000000001</ele><time>2026-05-04T08:57:35Z</time></trkpt><trkpt lat="32.0788712026169" lon="-6.019991117925845"><ele>1381.2</ele><time>2026-05-04T08:57:36Z</time></trkpt><trkpt lat="32.078870736239715" lon="-6.020109445795468"><ele>1377.8</ele><time>2026-05-04T08:57:37Z</time></trkpt><trkpt lat="32.07886320281843" lon="-6.02023224022624"><ele>1374.4</ele><time>2026-05-04T08:57:38Z</time></trkpt><trkpt lat="32.07885011678373" lon="-6.020360315023003"><ele>1371.0</ele><time>2026-05-04T08:57:39Z</time></trkpt><trkpt lat="32.07884476877703" lon="-6.020491829792352"><ele>1371.0</ele><time>2026-05-04T08:57:40Z</time></trkpt><trkpt lat="32.07884895375522" lon="-6.020624182155822"><ele>1371.0</ele><time>2026-05-04T08:57:41Z</time></trkpt><trkpt lat="32.0788564336827" lon="-6.02075547201058"><ele>1371.0</ele><time>2026-05-04T08:57:42Z</time></trkpt><trkpt lat="32.07886647853126" lon="-6.020883412488627"><ele>1371.0</ele><time>2026-05-04T08:57:43Z</time></trkpt><trkpt lat="32.078872510860315" lon="-6.021006826694637"><ele>1371.0</ele><time>2026-05-04T08:57:43.999Z</time></trkpt><trkpt lat="32.07887234340463" lon="-6.021131138847718"><ele>1371.6</ele><time>2026-05-04T08:57:44.999Z</time></trkpt><trkpt lat="32.07887351005912" lon="-6.021255251250641"><ele>1372.1999999999998</ele><time>2026-05-04T08:57:45.999Z</time></trkpt><trkpt lat="32.0788805176682" lon="-6.021380099577943"><ele>1372.8000000000002</ele><time>2026-05-04T08:57:46.999Z</time></trkpt><trkpt lat="32.078882607836434" lon="-6.021502887659463"><ele>1373.4</ele><time>2026-05-04T08:57:47.999Z</time></trkpt><trkpt lat="32.0788758997393" lon="-6.021622403682356"><ele>1374.0</ele><time>2026-05-04T08:57:48.999Z</time></trkpt><trkpt lat="32.07887414723107" lon="-6.021732068548225"><ele>1373.3333333333333</ele><time>2026-05-04T08:57:49.999Z</time></trkpt><trkpt lat="32.07887914848764" lon="-6.02183265563098"><ele>1372.6666666666667</ele><time>2026-05-04T08:57:50.999Z</time></trkpt><trkpt lat="32.07888937356072" lon="-6.021913108109118"><ele>1372.0</ele><time>2026-05-04T08:57:51.999Z</time></trkpt><trkpt lat="32.078919320692755" lon="-6.021988816034449"><ele>1371.3333333333335</ele><time>2026-05-04T08:57:52.999Z</time></trkpt><trkpt lat="32.0789707059646" lon="-6.022069858344116"><ele>1370.6666666666667</ele><time>2026-05-04T08:57:53.999Z</time></trkpt><trkpt lat="32.07904466711174" lon="-6.022154728608174"><ele>1370.0</ele><time>2026-05-04T08:57:54.999Z</time></trkpt><trkpt lat="32.079116999270134" lon="-6.02223330645712"><ele>1370.0</ele><time>2026-05-04T08:57:55.999Z</time></trkpt><trkpt lat="32.0791843902458" lon="-6.022299334147576"><ele>1370.0</ele><time>2026-05-04T08:57:56.999Z</time></trkpt><trkpt lat="32.079252029823984" lon="-6.022355750196033"><ele>1370.0</ele><time>2026-05-04T08:57:57.999Z</time></trkpt><trkpt lat="32.07931283636494" lon="-6.0224063511629415"><ele>1370.0</ele><time>2026-05-04T08:57:58.999Z</time></trkpt><trkpt lat="32.0793700328746" lon="-6.022461307639565"><ele>1370.0</ele><time>2026-05-04T08:57:59.999Z</time></trkpt><trkpt lat="32.079420814075725" lon="-6.022514207699745"><ele>1370.0</ele><time>2026-05-04T08:58:00.999Z</time></trkpt><trkpt lat="32.07951751918605" lon="-6.0226123712653905"><ele>1371.0</ele><time>2026-05-04T08:58:02.999Z</time></trkpt><trkpt lat="32.079577147567" lon="-6.022650926742595"><ele>1372.0</ele><time>2026-05-04T08:58:03.999Z</time></trkpt><trkpt lat="32.079639644141366" lon="-6.022701462639741"><ele>1373.0</ele><time>2026-05-04T08:58:04.999Z</time></trkpt><trkpt lat="32.07971142310886" lon="-6.022747080677183"><ele>1374.0</ele><time>2026-05-04T08:58:05.999Z</time></trkpt><trkpt lat="32.079784531206734" lon="-6.022783662357886"><ele>1375.0</ele><time>2026-05-04T08:58:06.999Z</time></trkpt><trkpt lat="32.079864618311" lon="-6.022816487825571"><ele>1376.0</ele><time>2026-05-04T08:58:07.999Z</time></trkpt><trkpt lat="32.07994679964924" lon="-6.022840225070848"><ele>1376.0</ele><time>2026-05-04T08:58:08.999Z</time></trkpt><trkpt lat="32.080033394834174" lon="-6.022856713881874"><ele>1376.0</ele><time>2026-05-04T08:58:09.999Z</time></trkpt><trkpt lat="32.08012076712447" lon="-6.022863457920545"><ele>1376.0</ele><time>2026-05-04T08:58:10.999Z</time></trkpt><trkpt lat="32.080205335387916" lon="-6.022868077547816"><ele>1376.0</ele><time>2026-05-04T08:58:11.999Z</time></trkpt><trkpt lat="32.0802900307939" lon="-6.0228704835879014"><ele>1376.0</ele><time>2026-05-04T08:58:12.999Z</time></trkpt><trkpt lat="32.08038103211913" lon="-6.022869975963677"><ele>1376.0</ele><time>2026-05-04T08:58:13.999Z</time></trkpt><trkpt lat="32.0804689089273" lon="-6.02286468300476"><ele>1376.0</ele><time>2026-05-04T08:58:14.999Z</time></trkpt><trkpt lat="32.08055146222699" lon="-6.022862835857309"><ele>1376.0</ele><time>2026-05-04T08:58:15.999Z</time></trkpt><trkpt lat="32.080654199301364" lon="-6.02286232938311"><ele>1376.0</ele><time>2026-05-04T08:58:16.999Z</time></trkpt><trkpt lat="32.08076192697287" lon="-6.022847400924199"><ele>1376.0</ele><time>2026-05-04T08:58:17.999Z</time></trkpt><trkpt lat="32.08087232376215" lon="-6.022842810884501"><ele>1376.0</ele><time>2026-05-04T08:58:18.999Z</time></trkpt><trkpt lat="32.08097703678374" lon="-6.022844134628379"><ele>1379.3333333333335</ele><time>2026-05-04T08:58:19.999Z</time></trkpt><trkpt lat="32.081078022110646" lon="-6.022847204158391"><ele>1382.6666666666667</ele><time>2026-05-04T08:58:20.999Z</time></trkpt><trkpt lat="32.08117318041768" lon="-6.022853243849697"><ele>1386.0</ele><time>2026-05-04T08:58:21.999Z</time></trkpt><trkpt lat="32.081255987496576" lon="-6.022854621159134"><ele>1389.3333333333333</ele><time>2026-05-04T08:58:22.999Z</time></trkpt><trkpt lat="32.08133286696607" lon="-6.02285374984222"><ele>1392.6666666666665</ele><time>2026-05-04T08:58:23.999Z</time></trkpt><trkpt lat="32.08141069232908" lon="-6.022844970495849"><ele>1396.0</ele><time>2026-05-04T08:58:24.999Z</time></trkpt><trkpt lat="32.08149338305316" lon="-6.022826568021386"><ele>1396.0</ele><time>2026-05-04T08:58:25.999Z</time></trkpt><trkpt lat="32.08157187149628" lon="-6.02279813183792"><ele>1396.0</ele><time>2026-05-04T08:58:26.999Z</time></trkpt><trkpt lat="32.081660026127466" lon="-6.022777311365222"><ele>1396.0</ele><time>2026-05-04T08:58:27.999Z</time></trkpt><trkpt lat="32.08175536918889" lon="-6.02275885443989"><ele>1396.0</ele><time>2026-05-04T08:58:28.999Z</time></trkpt><trkpt lat="32.081849632877706" lon="-6.022742941748103"><ele>1396.0</ele><time>2026-05-04T08:58:29.999Z</time></trkpt><trkpt lat="32.0819389647284" lon="-6.022736467182586"><ele>1394.8</ele><time>2026-05-04T08:58:30.999Z</time></trkpt><trkpt lat="32.08203542506677" lon="-6.022735674659076"><ele>1393.6</ele><time>2026-05-04T08:58:31.999Z</time></trkpt><trkpt lat="32.08213531898446" lon="-6.022737223377293"><ele>1392.4</ele><time>2026-05-04T08:58:32.999Z</time></trkpt><trkpt lat="32.08224200109925" lon="-6.022735724138377"><ele>1391.2</ele><time>2026-05-04T08:58:33.999Z</time></trkpt><trkpt lat="32.082347110481955" lon="-6.022729863651445"><ele>1390.0</ele><time>2026-05-04T08:58:34.999Z</time></trkpt><trkpt lat="32.08244562888667" lon="-6.022717671339964"><ele>1389.0</ele><time>2026-05-04T08:58:35.999Z</time></trkpt><trkpt lat="32.08253784432466" lon="-6.022695158693191"><ele>1388.0</ele><time>2026-05-04T08:58:36.999Z</time></trkpt><trkpt lat="32.082621895366785" lon="-6.022657825251561"><ele>1387.0</ele><time>2026-05-04T08:58:37.999Z</time></trkpt><trkpt lat="32.08269372265454" lon="-6.022600382183226"><ele>1386.0</ele><time>2026-05-04T08:58:38.999Z</time></trkpt><trkpt lat="32.08275453602912" lon="-6.022539373008561"><ele>1385.0</ele><time>2026-05-04T08:58:39.999Z</time></trkpt><trkpt lat="32.08284315812155" lon="-6.022462522645723"><ele>1385.0</ele><time>2026-05-04T08:58:41.999Z</time></trkpt><trkpt lat="32.08291714772968" lon="-6.022485512521784"><ele>1385.0</ele><time>2026-05-04T08:58:43.999Z</time></trkpt><trkpt lat="32.08300374792568" lon="-6.022618085980051"><ele>1385.0</ele><time>2026-05-04T08:58:45.999Z</time></trkpt><trkpt lat="32.08305065064397" lon="-6.022689123013809"><ele>1385.0</ele><time>2026-05-04T08:58:46.999Z</time></trkpt><trkpt lat="32.08310741514013" lon="-6.022734388515861"><ele>1385.0</ele><time>2026-05-04T08:58:47.999Z</time></trkpt><trkpt lat="32.083185968680596" lon="-6.022758203593484"><ele>1385.0</ele><time>2026-05-04T08:58:48.999Z</time></trkpt><trkpt lat="32.08327803809246" lon="-6.0227789939399985"><ele>1384.6666666666667</ele><time>2026-05-04T08:58:49.999Z</time></trkpt><trkpt lat="32.08334713450861" lon="-6.022822767519572"><ele>1384.3333333333335</ele><time>2026-05-04T08:58:51Z</time></trkpt><trkpt lat="32.08341786918285" lon="-6.0228826382836385"><ele>1384.0</ele><time>2026-05-04T08:58:52Z</time></trkpt><trkpt lat="32.083490492754734" lon="-6.0229369647730016"><ele>1383.6666666666667</ele><time>2026-05-04T08:58:53Z</time></trkpt><trkpt lat="32.083570247919056" lon="-6.022989544592439"><ele>1383.3333333333333</ele><time>2026-05-04T08:58:54Z</time></trkpt><trkpt lat="32.08365027911458" lon="-6.02304671597126"><ele>1383.0</ele><time>2026-05-04T08:58:55Z</time></trkpt><trkpt lat="32.083726480585476" lon="-6.023107709901946"><ele>1383.0</ele><time>2026-05-04T08:58:56Z</time></trkpt><trkpt lat="32.08379800939258" lon="-6.023177740313756"><ele>1383.0</ele><time>2026-05-04T08:58:57Z</time></trkpt><trkpt lat="32.08386649271088" lon="-6.0232493668455245"><ele>1383.0</ele><time>2026-05-04T08:58:58Z</time></trkpt><trkpt lat="32.083933644732554" lon="-6.023315841334131"><ele>1383.0</ele><time>2026-05-04T08:58:59Z</time></trkpt><trkpt lat="32.08400025999352" lon="-6.023378704055842"><ele>1383.0</ele><time>2026-05-04T08:59:00Z</time></trkpt><trkpt lat="32.08405927042359" lon="-6.023456016873685"><ele>1383.0</ele><time>2026-05-04T08:59:01Z</time></trkpt><trkpt lat="32.08411331852002" lon="-6.023538928614958"><ele>1382.4</ele><time>2026-05-04T08:59:02Z</time></trkpt><trkpt lat="32.084175127561686" lon="-6.02361791725744"><ele>1381.8000000000002</ele><time>2026-05-04T08:59:03Z</time></trkpt><trkpt lat="32.0842380946614" lon="-6.023703216859918"><ele>1381.2</ele><time>2026-05-04T08:59:04Z</time></trkpt><trkpt lat="32.084295672193164" lon="-6.023789213470337"><ele>1380.6</ele><time>2026-05-04T08:59:05Z</time></trkpt><trkpt lat="32.08434358240138" lon="-6.023876906023348"><ele>1380.0</ele><time>2026-05-04T08:59:06Z</time></trkpt><trkpt lat="32.084391187704895" lon="-6.023969375612363"><ele>1380.0</ele><time>2026-05-04T08:59:07Z</time></trkpt><trkpt lat="32.084443903882175" lon="-6.024072549175738"><ele>1380.0</ele><time>2026-05-04T08:59:08Z</time></trkpt><trkpt lat="32.084488877844564" lon="-6.024155038644874"><ele>1380.0</ele><time>2026-05-04T08:59:09Z</time></trkpt><trkpt lat="32.08453153733881" lon="-6.024240377262292"><ele>1380.0</ele><time>2026-05-04T08:59:10Z</time></trkpt><trkpt lat="32.08456593979757" lon="-6.02432784052452"><ele>1380.0</ele><time>2026-05-04T08:59:11Z</time></trkpt><trkpt lat="32.084589728880495" lon="-6.024422470563419"><ele>1380.0</ele><time>2026-05-04T08:59:12Z</time></trkpt><trkpt lat="32.08460656391353" lon="-6.0245276062305395"><ele>1374.2</ele><time>2026-05-04T08:59:13Z</time></trkpt><trkpt lat="32.084622175926945" lon="-6.024635600535383"><ele>1368.4</ele><time>2026-05-04T08:59:14Z</time></trkpt><trkpt lat="32.08463109567134" lon="-6.024748887476563"><ele>1362.6</ele><time>2026-05-04T08:59:15Z</time></trkpt><trkpt lat="32.08464856785416" lon="-6.0248709034721095"><ele>1356.8</ele><time>2026-05-04T08:59:16Z</time></trkpt><trkpt lat="32.08466550663312" lon="-6.0249893913653665"><ele>1351.0</ele><time>2026-05-04T08:59:17Z</time></trkpt><trkpt lat="32.08468353366537" lon="-6.0250918391869055"><ele>1350.5</ele><time>2026-05-04T08:59:18Z</time></trkpt><trkpt lat="32.08470013279699" lon="-6.025187458213287"><ele>1350.0</ele><time>2026-05-04T08:59:19Z</time></trkpt><trkpt lat="32.08470127536972" lon="-6.025277616438203"><ele>1349.5</ele><time>2026-05-04T08:59:20Z</time></trkpt><trkpt lat="32.08468248756715" lon="-6.025377453076969"><ele>1349.0</ele><time>2026-05-04T08:59:21Z</time></trkpt><trkpt lat="32.08467995228713" lon="-6.025476311063351"><ele>1348.5</ele><time>2026-05-04T08:59:22Z</time></trkpt><trkpt lat="32.0846944456627" lon="-6.025576341173093"><ele>1348.0</ele><time>2026-05-04T08:59:23Z</time></trkpt><trkpt lat="32.08471422279592" lon="-6.025684194189144"><ele>1348.0</ele><time>2026-05-04T08:59:24Z</time></trkpt><trkpt lat="32.08473455563434" lon="-6.025788503758977"><ele>1348.0</ele><time>2026-05-04T08:59:25Z</time></trkpt><trkpt lat="32.08474300434764" lon="-6.025891399653439"><ele>1348.0</ele><time>2026-05-04T08:59:26Z</time></trkpt><trkpt lat="32.08474551475618" lon="-6.025991833717766"><ele>1348.0</ele><time>2026-05-04T08:59:27Z</time></trkpt><trkpt lat="32.084749615219536" lon="-6.026090427906179"><ele>1348.0</ele><time>2026-05-04T08:59:28Z</time></trkpt><trkpt lat="32.0847493574994" lon="-6.026187838872496"><ele>1348.0</ele><time>2026-05-04T08:59:29Z</time></trkpt><trkpt lat="32.08475428341613" lon="-6.02627555606531"><ele>1348.8333333333333</ele><time>2026-05-04T08:59:30Z</time></trkpt><trkpt lat="32.08476327336629" lon="-6.026377794577869"><ele>1349.6666666666665</ele><time>2026-05-04T08:59:31Z</time></trkpt><trkpt lat="32.08477109769935" lon="-6.026481357874128"><ele>1350.5</ele><time>2026-05-04T08:59:32Z</time></trkpt><trkpt lat="32.08477286219041" lon="-6.026592043724062"><ele>1351.3333333333333</ele><time>2026-05-04T08:59:33Z</time></trkpt><trkpt lat="32.0847673128499" lon="-6.026695444374121"><ele>1352.1666666666667</ele><time>2026-05-04T08:59:34Z</time></trkpt><trkpt lat="32.08475765456408" lon="-6.026797473374005"><ele>1353.0</ele><time>2026-05-04T08:59:35Z</time></trkpt><trkpt lat="32.08476186305852" lon="-6.026901573769061"><ele>1353.6000000000001</ele><time>2026-05-04T08:59:36Z</time></trkpt><trkpt lat="32.08476620487058" lon="-6.027005287074745"><ele>1354.2</ele><time>2026-05-04T08:59:37Z</time></trkpt><trkpt lat="32.08475559270566" lon="-6.027122710496707"><ele>1354.8</ele><time>2026-05-04T08:59:38Z</time></trkpt><trkpt lat="32.084741018593874" lon="-6.027246872558433"><ele>1355.4</ele><time>2026-05-04T08:59:39Z</time></trkpt><trkpt lat="32.084716295639325" lon="-6.027361930354126"><ele>1356.0</ele><time>2026-05-04T08:59:40Z</time></trkpt><trkpt lat="32.08468486729826" lon="-6.027476107541155"><ele>1354.4</ele><time>2026-05-04T08:59:41Z</time></trkpt><trkpt lat="32.084645872074205" lon="-6.027590836190238"><ele>1352.8</ele><time>2026-05-04T08:59:42Z</time></trkpt><trkpt lat="32.08461790064855" lon="-6.027714551770795"><ele>1351.2</ele><time>2026-05-04T08:59:43Z</time></trkpt><trkpt lat="32.08460449502648" lon="-6.027835496699377"><ele>1349.6000000000001</ele><time>2026-05-04T08:59:44Z</time></trkpt><trkpt lat="32.08458530777448" lon="-6.027964950403266"><ele>1348.0</ele><time>2026-05-04T08:59:45Z</time></trkpt><trkpt lat="32.084559673636825" lon="-6.028077742217354"><ele>1348.0</ele><time>2026-05-04T08:59:46Z</time></trkpt><trkpt lat="32.08454166680964" lon="-6.028195337083885"><ele>1348.0</ele><time>2026-05-04T08:59:47Z</time></trkpt><trkpt lat="32.08452659658753" lon="-6.02831178999842"><ele>1348.0</ele><time>2026-05-04T08:59:48Z</time></trkpt><trkpt lat="32.08451311300594" lon="-6.0284188181958624"><ele>1348.0</ele><time>2026-05-04T08:59:49Z</time></trkpt><trkpt lat="32.0844926103206" lon="-6.0285316810014"><ele>1348.0</ele><time>2026-05-04T08:59:50Z</time></trkpt><trkpt lat="32.0844605784139" lon="-6.028646266838567"><ele>1348.6000000000001</ele><time>2026-05-04T08:59:51Z</time></trkpt><trkpt lat="32.0844231691384" lon="-6.028755454643853"><ele>1349.2</ele><time>2026-05-04T08:59:52Z</time></trkpt><trkpt lat="32.084390757691715" lon="-6.028861279752485"><ele>1349.8</ele><time>2026-05-04T08:59:53Z</time></trkpt><trkpt lat="32.08436733178442" lon="-6.028979440952073"><ele>1350.4</ele><time>2026-05-04T08:59:54Z</time></trkpt><trkpt lat="32.084344590053725" lon="-6.029107192287244"><ele>1351.0</ele><time>2026-05-04T08:59:55Z</time></trkpt><trkpt lat="32.08431457409437" lon="-6.02922939530414"><ele>1351.0</ele><time>2026-05-04T08:59:56Z</time></trkpt><trkpt lat="32.08427659634627" lon="-6.029330899956707"><ele>1351.0</ele><time>2026-05-04T08:59:57Z</time></trkpt><trkpt lat="32.08422876103351" lon="-6.029418472490094"><ele>1351.0</ele><time>2026-05-04T08:59:58Z</time></trkpt><trkpt lat="32.08418552637403" lon="-6.029499492362858"><ele>1351.0</ele><time>2026-05-04T08:59:59Z</time></trkpt><trkpt lat="32.08415263860378" lon="-6.029574825580279"><ele>1351.0</ele><time>2026-05-04T09:00:00Z</time></trkpt><trkpt lat="32.084138204910445" lon="-6.029654601657307"><ele>1351.0</ele><time>2026-05-04T09:00:01Z</time></trkpt><trkpt lat="32.084138761337165" lon="-6.02974877601936"><ele>1351.0</ele><time>2026-05-04T09:00:02Z</time></trkpt><trkpt lat="32.084144720375456" lon="-6.029850441574518"><ele>1351.0</ele><time>2026-05-04T09:00:03Z</time></trkpt><trkpt lat="32.084157403880816" lon="-6.029953519048369"><ele>1351.0</ele><time>2026-05-04T09:00:04Z</time></trkpt><trkpt lat="32.084176778201495" lon="-6.0300502905691395"><ele>1351.0</ele><time>2026-05-04T09:00:05Z</time></trkpt><trkpt lat="32.08420201394539" lon="-6.030151860506315"><ele>1351.0</ele><time>2026-05-04T09:00:06Z</time></trkpt><trkpt lat="32.08422963592743" lon="-6.030255949204173"><ele>1351.0</ele><time>2026-05-04T09:00:07Z</time></trkpt><trkpt lat="32.084257792301905" lon="-6.030362368799603"><ele>1352.2857142857142</ele><time>2026-05-04T09:00:08Z</time></trkpt><trkpt lat="32.084272172623784" lon="-6.030450766725374"><ele>1353.5714285714284</ele><time>2026-05-04T09:00:09Z</time></trkpt><trkpt lat="32.08427716914531" lon="-6.030535906704825"><ele>1354.857142857143</ele><time>2026-05-04T09:00:10Z</time></trkpt><trkpt lat="32.08426772372018" lon="-6.0306217602235614"><ele>1356.142857142857</ele><time>2026-05-04T09:00:11Z</time></trkpt><trkpt lat="32.084249199616735" lon="-6.0307037631329825"><ele>1357.4285714285713</ele><time>2026-05-04T09:00:12Z</time></trkpt><trkpt lat="32.08421982676246" lon="-6.030782430811731"><ele>1358.7142857142858</ele><time>2026-05-04T09:00:13Z</time></trkpt><trkpt lat="32.084202094722826" lon="-6.030872860089415"><ele>1360.0</ele><time>2026-05-04T09:00:14Z</time></trkpt><trkpt lat="32.084189272470795" lon="-6.03096846625166"><ele>1360.0</ele><time>2026-05-04T09:00:15Z</time></trkpt><trkpt lat="32.084180892739234" lon="-6.031066320276922"><ele>1360.0</ele><time>2026-05-04T09:00:16Z</time></trkpt><trkpt lat="32.08418725983834" lon="-6.031154974962132"><ele>1360.0</ele><time>2026-05-04T09:00:17Z</time></trkpt><trkpt lat="32.08419700674944" lon="-6.031242805771673"><ele>1360.0</ele><time>2026-05-04T09:00:18Z</time></trkpt><trkpt lat="32.08420524511977" lon="-6.031329376735413"><ele>1360.0</ele><time>2026-05-04T09:00:19Z</time></trkpt><trkpt lat="32.08422001633319" lon="-6.031411453370818"><ele>1360.0</ele><time>2026-05-04T09:00:20Z</time></trkpt><trkpt lat="32.08423746828451" lon="-6.031492136089037"><ele>1360.0</ele><time>2026-05-04T09:00:20.999Z</time></trkpt><trkpt lat="32.084252231798715" lon="-6.031567679387064"><ele>1358.6</ele><time>2026-05-04T09:00:21.999Z</time></trkpt><trkpt lat="32.084307620649064" lon="-6.031691119008867"><ele>1357.2</ele><time>2026-05-04T09:00:23.999Z</time></trkpt><trkpt lat="32.0843567616787" lon="-6.0317982739480405"><ele>1355.8000000000002</ele><time>2026-05-04T09:00:25.999Z</time></trkpt><trkpt lat="32.08434890021741" lon="-6.031919695341869"><ele>1354.4</ele><time>2026-05-04T09:00:27.999Z</time></trkpt><trkpt lat="32.0842865905645" lon="-6.03202189253736"><ele>1353.0</ele><time>2026-05-04T09:00:29.999Z</time></trkpt><trkpt lat="32.08424649514901" lon="-6.032096259915858"><ele>1353.0</ele><time>2026-05-04T09:00:30.999Z</time></trkpt><trkpt lat="32.084208285613336" lon="-6.03218967958631"><ele>1353.0</ele><time>2026-05-04T09:00:31.999Z</time></trkpt><trkpt lat="32.084183765894316" lon="-6.032279688215138"><ele>1353.0</ele><time>2026-05-04T09:00:32.999Z</time></trkpt><trkpt lat="32.0841696945257" lon="-6.032365494053161"><ele>1353.0</ele><time>2026-05-04T09:00:33.999Z</time></trkpt><trkpt lat="32.084173523081446" lon="-6.032443607829494"><ele>1353.0</ele><time>2026-05-04T09:00:34.999Z</time></trkpt><trkpt lat="32.08420729577549" lon="-6.032562626357293"><ele>1353.0</ele><time>2026-05-04T09:00:36.999Z</time></trkpt><trkpt lat="32.08421379752197" lon="-6.032662858494493"><ele>1354.8000000000002</ele><time>2026-05-04T09:00:38.999Z</time></trkpt><trkpt lat="32.08419052001967" lon="-6.032754342193054"><ele>1356.6</ele><time>2026-05-04T09:00:40.999Z</time></trkpt><trkpt lat="32.084079642648376" lon="-6.032844263149635"><ele>1358.4</ele><time>2026-05-04T09:00:42.999Z</time></trkpt><trkpt lat="32.08402533845263" lon="-6.032913225789689"><ele>1360.1999999999998</ele><time>2026-05-04T09:00:43.999Z</time></trkpt><trkpt lat="32.083979183352206" lon="-6.032988922078031"><ele>1362.0</ele><time>2026-05-04T09:00:44.999Z</time></trkpt><trkpt lat="32.0839277051307" lon="-6.033077471622991"><ele>1358.3999999999999</ele><time>2026-05-04T09:00:45.999Z</time></trkpt><trkpt lat="32.08387756807372" lon="-6.033177996349188"><ele>1354.8</ele><time>2026-05-04T09:00:46.999Z</time></trkpt><trkpt lat="32.083832146380104" lon="-6.033276187991619"><ele>1351.2</ele><time>2026-05-04T09:00:47.999Z</time></trkpt><trkpt lat="32.0837841170586" lon="-6.033367562287041"><ele>1347.6</ele><time>2026-05-04T09:00:48.999Z</time></trkpt><trkpt lat="32.08373698914145" lon="-6.0334506887896895"><ele>1344.0</ele><time>2026-05-04T09:00:49.999Z</time></trkpt><trkpt lat="32.083683315539076" lon="-6.0335327395888445"><ele>1342.2</ele><time>2026-05-04T09:00:50.999Z</time></trkpt><trkpt lat="32.08362342806517" lon="-6.033604037528848"><ele>1340.4</ele><time>2026-05-04T09:00:51.999Z</time></trkpt><trkpt lat="32.08355526848663" lon="-6.033665537769739"><ele>1338.6</ele><time>2026-05-04T09:00:52.999Z</time></trkpt><trkpt lat="32.0834848807201" lon="-6.033731979368872"><ele>1336.8</ele><time>2026-05-04T09:00:53.999Z</time></trkpt><trkpt lat="32.083403403149255" lon="-6.033799240107696"><ele>1335.0</ele><time>2026-05-04T09:00:54.999Z</time></trkpt><trkpt lat="32.08332023426037" lon="-6.033862030641028"><ele>1339.1666666666667</ele><time>2026-05-04T09:00:55.999Z</time></trkpt><trkpt lat="32.08323930778314" lon="-6.033912413469915"><ele>1343.3333333333333</ele><time>2026-05-04T09:00:57Z</time></trkpt><trkpt lat="32.083160066494806" lon="-6.033951443185283"><ele>1347.5</ele><time>2026-05-04T09:00:58Z</time></trkpt><trkpt lat="32.08308070608032" lon="-6.033992926560352"><ele>1351.6666666666665</ele><time>2026-05-04T09:00:59Z</time></trkpt><trkpt lat="32.08299633136671" lon="-6.034029238181014"><ele>1355.8333333333333</ele><time>2026-05-04T09:01:00Z</time></trkpt><trkpt lat="32.08292013175187" lon="-6.034049687859575"><ele>1360.0</ele><time>2026-05-04T09:01:01Z</time></trkpt><trkpt lat="32.082845015821476" lon="-6.034058442600986"><ele>1360.0</ele><time>2026-05-04T09:01:02Z</time></trkpt><trkpt lat="32.08276440069028" lon="-6.0340606559381085"><ele>1360.0</ele><time>2026-05-04T09:01:03Z</time></trkpt><trkpt lat="32.082691589225576" lon="-6.0340658998946575"><ele>1360.0</ele><time>2026-05-04T09:01:04Z</time></trkpt><trkpt lat="32.08262435522331" lon="-6.034082163327348"><ele>1360.0</ele><time>2026-05-04T09:01:05Z</time></trkpt><trkpt lat="32.08255552914365" lon="-6.034112731774663"><ele>1360.0</ele><time>2026-05-04T09:01:06Z</time></trkpt><trkpt lat="32.08246921706131" lon="-6.034146166758437"><ele>1360.0</ele><time>2026-05-04T09:01:07Z</time></trkpt><trkpt lat="32.08238756321904" lon="-6.034185468832571"><ele>1360.0</ele><time>2026-05-04T09:01:08Z</time></trkpt><trkpt lat="32.08231286098053" lon="-6.03421952135557"><ele>1360.0</ele><time>2026-05-04T09:01:09Z</time></trkpt><trkpt lat="32.08223319716156" lon="-6.034236777590181"><ele>1360.0</ele><time>2026-05-04T09:01:10Z</time></trkpt><trkpt lat="32.082149414092406" lon="-6.034231899950882"><ele>1360.0</ele><time>2026-05-04T09:01:11Z</time></trkpt><trkpt lat="32.08206822757345" lon="-6.034222358077261"><ele>1360.0</ele><time>2026-05-04T09:01:12Z</time></trkpt><trkpt lat="32.08198406739592" lon="-6.034217067389702"><ele>1360.0</ele><time>2026-05-04T09:01:13Z</time></trkpt><trkpt lat="32.08190108755994" lon="-6.03421638146996"><ele>1360.0</ele><time>2026-05-04T09:01:14Z</time></trkpt><trkpt lat="32.08182689772361" lon="-6.034214088967857"><ele>1360.0</ele><time>2026-05-04T09:01:15Z</time></trkpt><trkpt lat="32.081750593333815" lon="-6.0342021838091195"><ele>1360.0</ele><time>2026-05-04T09:01:16Z</time></trkpt><trkpt lat="32.08168393001592" lon="-6.034190031185607"><ele>1360.0</ele><time>2026-05-04T09:01:17Z</time></trkpt><trkpt lat="32.08161144259058" lon="-6.034188412060821"><ele>1360.0</ele><time>2026-05-04T09:01:18Z</time></trkpt><trkpt lat="32.08153695400663" lon="-6.034190753830025"><ele>1360.0</ele><time>2026-05-04T09:01:19Z</time></trkpt><trkpt lat="32.08145846838856" lon="-6.034193094884297"><ele>1360.0</ele><time>2026-05-04T09:01:20Z</time></trkpt><trkpt lat="32.08137640798917" lon="-6.034200772093513"><ele>1360.0</ele><time>2026-05-04T09:01:21Z</time></trkpt><trkpt lat="32.081273451105645" lon="-6.034199490858019"><ele>1360.0</ele><time>2026-05-04T09:01:22Z</time></trkpt><trkpt lat="32.08117216226202" lon="-6.034216440413443"><ele>1360.0</ele><time>2026-05-04T09:01:23Z</time></trkpt><trkpt lat="32.08106715660581" lon="-6.034212656569779"><ele>1360.0</ele><time>2026-05-04T09:01:24Z</time></trkpt><trkpt lat="32.08097311728271" lon="-6.034214157403437"><ele>1360.0</ele><time>2026-05-04T09:01:25Z</time></trkpt><trkpt lat="32.080888184226254" lon="-6.034223836152906"><ele>1354.0</ele><time>2026-05-04T09:01:26Z</time></trkpt><trkpt lat="32.08079942508573" lon="-6.034219194363943"><ele>1348.0</ele><time>2026-05-04T09:01:27Z</time></trkpt><trkpt lat="32.080716371609185" lon="-6.034224712383403"><ele>1342.0</ele><time>2026-05-04T09:01:28Z</time></trkpt><trkpt lat="32.08064083979061" lon="-6.034240403373291"><ele>1336.0</ele><time>2026-05-04T09:01:29Z</time></trkpt><trkpt lat="32.08056674235654" lon="-6.0342649418861125"><ele>1330.0</ele><time>2026-05-04T09:01:30Z</time></trkpt><trkpt lat="32.080476386533675" lon="-6.034269276109895"><ele>1324.0</ele><time>2026-05-04T09:01:31Z</time></trkpt><trkpt lat="32.08039458293764" lon="-6.034289730480864"><ele>1324.0</ele><time>2026-05-04T09:01:32Z</time></trkpt><trkpt lat="32.08030297066499" lon="-6.034314159905914"><ele>1324.0</ele><time>2026-05-04T09:01:33Z</time></trkpt><trkpt lat="32.080219720105205" lon="-6.034346887594953"><ele>1324.0</ele><time>2026-05-04T09:01:34Z</time></trkpt><trkpt lat="32.08013108880445" lon="-6.034393639004692"><ele>1324.0</ele><time>2026-05-04T09:01:35Z</time></trkpt><trkpt lat="32.08004707036385" lon="-6.034444293710046"><ele>1324.0</ele><time>2026-05-04T09:01:36Z</time></trkpt><trkpt lat="32.07996547304155" lon="-6.034504623067556"><ele>1328.2</ele><time>2026-05-04T09:01:37Z</time></trkpt><trkpt lat="32.0798815923167" lon="-6.03456735478733"><ele>1332.4</ele><time>2026-05-04T09:01:38Z</time></trkpt><trkpt lat="32.07980219641826" lon="-6.034633226204941"><ele>1336.6</ele><time>2026-05-04T09:01:39Z</time></trkpt><trkpt lat="32.07971919196577" lon="-6.0346999920654865"><ele>1340.8</ele><time>2026-05-04T09:01:40Z</time></trkpt><trkpt lat="32.0796415152922" lon="-6.0347643332538805"><ele>1345.0</ele><time>2026-05-04T09:01:41Z</time></trkpt><trkpt lat="32.0795567502592" lon="-6.034816186752694"><ele>1345.0</ele><time>2026-05-04T09:01:42Z</time></trkpt><trkpt lat="32.07949796875398" lon="-6.03489914402243"><ele>1345.0</ele><time>2026-05-04T09:01:43Z</time></trkpt><trkpt lat="32.07944431717156" lon="-6.034970920353249"><ele>1345.0</ele><time>2026-05-04T09:01:44Z</time></trkpt><trkpt lat="32.07939336753495" lon="-6.0350383932247205"><ele>1345.0</ele><time>2026-05-04T09:01:45Z</time></trkpt><trkpt lat="32.07932414421331" lon="-6.035106147224116"><ele>1345.0</ele><time>2026-05-04T09:01:46Z</time></trkpt><trkpt lat="32.07925603213594" lon="-6.0351886049400285"><ele>1345.0</ele><time>2026-05-04T09:01:47Z</time></trkpt><trkpt lat="32.07919201627956" lon="-6.035279214409263"><ele>1347.6666666666665</ele><time>2026-05-04T09:01:48Z</time></trkpt><trkpt lat="32.07912921339901" lon="-6.035359218545813"><ele>1350.3333333333333</ele><time>2026-05-04T09:01:49Z</time></trkpt><trkpt lat="32.079065382866055" lon="-6.035429648646719"><ele>1353.0</ele><time>2026-05-04T09:01:50Z</time></trkpt><trkpt lat="32.07900244344822" lon="-6.035489226055736"><ele>1355.6666666666667</ele><time>2026-05-04T09:01:51Z</time></trkpt><trkpt lat="32.078943952289656" lon="-6.035554219546737"><ele>1358.3333333333335</ele><time>2026-05-04T09:01:52Z</time></trkpt><trkpt lat="32.078888069329174" lon="-6.035615813421036"><ele>1361.0</ele><time>2026-05-04T09:01:53Z</time></trkpt><trkpt lat="32.07883472181264" lon="-6.035688977064153"><ele>1361.0</ele><time>2026-05-04T09:01:54Z</time></trkpt><trkpt lat="32.07878329459049" lon="-6.035756084421076"><ele>1361.0</ele><time>2026-05-04T09:01:55Z</time></trkpt><trkpt lat="32.07871895787228" lon="-6.035824745981715"><ele>1361.0</ele><time>2026-05-04T09:01:56Z</time></trkpt><trkpt lat="32.07865578894726" lon="-6.035880925661432"><ele>1361.0</ele><time>2026-05-04T09:01:57Z</time></trkpt><trkpt lat="32.07860028902724" lon="-6.035939027286737"><ele>1361.0</ele><time>2026-05-04T09:01:58Z</time></trkpt><trkpt lat="32.078550531305424" lon="-6.035999496034022"><ele>1361.0</ele><time>2026-05-04T09:01:59Z</time></trkpt><trkpt lat="32.07849855061068" lon="-6.036080421846648"><ele>1365.8</ele><time>2026-05-04T09:02:00Z</time></trkpt><trkpt lat="32.078438331876875" lon="-6.036175609962605"><ele>1370.6</ele><time>2026-05-04T09:02:01Z</time></trkpt><trkpt lat="32.07838297059457" lon="-6.036276908388983"><ele>1375.4</ele><time>2026-05-04T09:02:02Z</time></trkpt><trkpt lat="32.078331742447766" lon="-6.036368747545426"><ele>1380.2</ele><time>2026-05-04T09:02:03Z</time></trkpt><trkpt lat="32.07828421632565" lon="-6.036454242924677"><ele>1385.0</ele><time>2026-05-04T09:02:04Z</time></trkpt><trkpt lat="32.07822854929127" lon="-6.036533924019218"><ele>1385.0</ele><time>2026-05-04T09:02:05Z</time></trkpt><trkpt lat="32.07817097923217" lon="-6.036597249822595"><ele>1385.0</ele><time>2026-05-04T09:02:06Z</time></trkpt><trkpt lat="32.07811098438327" lon="-6.036666949396179"><ele>1385.0</ele><time>2026-05-04T09:02:07Z</time></trkpt><trkpt lat="32.07805322811245" lon="-6.036720137275875"><ele>1385.0</ele><time>2026-05-04T09:02:08Z</time></trkpt><trkpt lat="32.0779874903191" lon="-6.036760034576193"><ele>1385.0</ele><time>2026-05-04T09:02:09Z</time></trkpt><trkpt lat="32.07793627817304" lon="-6.036809025449785"><ele>1385.0</ele><time>2026-05-04T09:02:10Z</time></trkpt><trkpt lat="32.07783141772236" lon="-6.036866988149809"><ele>1384.2</ele><time>2026-05-04T09:02:12Z</time></trkpt><trkpt lat="32.07772428979692" lon="-6.036924388916655"><ele>1383.4</ele><time>2026-05-04T09:02:14Z</time></trkpt><trkpt lat="32.077667874105266" lon="-6.036961872976208"><ele>1382.6</ele><time>2026-05-04T09:02:15Z</time></trkpt><trkpt lat="32.07756799134651" lon="-6.037058872158594"><ele>1381.8</ele><time>2026-05-04T09:02:17Z</time></trkpt><trkpt lat="32.07751931905042" lon="-6.037112825254327"><ele>1381.0</ele><time>2026-05-04T09:02:18Z</time></trkpt><trkpt lat="32.077434287705785" lon="-6.037227779102293"><ele>1381.0</ele><time>2026-05-04T09:02:20Z</time></trkpt><trkpt lat="32.0773814435014" lon="-6.037283226520867"><ele>1381.0</ele><time>2026-05-04T09:02:21Z</time></trkpt><trkpt lat="32.07732515676045" lon="-6.037331099729633"><ele>1381.0</ele><time>2026-05-04T09:02:22Z</time></trkpt><trkpt lat="32.07727810069971" lon="-6.037391024938439"><ele>1381.0</ele><time>2026-05-04T09:02:23Z</time></trkpt><trkpt lat="32.07723493809776" lon="-6.0374631669822385"><ele>1381.0</ele><time>2026-05-04T09:02:24Z</time></trkpt><trkpt lat="32.07720158633023" lon="-6.037532437760663"><ele>1381.0</ele><time>2026-05-04T09:02:25Z</time></trkpt><trkpt lat="32.07716699650495" lon="-6.037600280961576"><ele>1381.0</ele><time>2026-05-04T09:02:26Z</time></trkpt><trkpt lat="32.077115447333696" lon="-6.037660152507959"><ele>1373.1666666666665</ele><time>2026-05-04T09:02:27Z</time></trkpt><trkpt lat="32.07706512085381" lon="-6.037709985671061"><ele>1365.3333333333333</ele><time>2026-05-04T09:02:28Z</time></trkpt><trkpt lat="32.07696065774792" lon="-6.03777518002267"><ele>1357.5</ele><time>2026-05-04T09:02:29.999Z</time></trkpt><trkpt lat="32.07689473355766" lon="-6.037797698972856"><ele>1349.6666666666667</ele><time>2026-05-04T09:02:30.999Z</time></trkpt><trkpt lat="32.07682461191072" lon="-6.037805720698147"><ele>1341.8333333333335</ele><time>2026-05-04T09:02:31.999Z</time></trkpt><trkpt lat="32.076754411107316" lon="-6.0378185283174055"><ele>1334.0</ele><time>2026-05-04T09:02:32.999Z</time></trkpt><trkpt lat="32.07667619352045" lon="-6.03784389542299"><ele>1335.2857142857144</ele><time>2026-05-04T09:02:33.999Z</time></trkpt><trkpt lat="32.07660243467465" lon="-6.03787764730632"><ele>1336.5714285714287</ele><time>2026-05-04T09:02:34.999Z</time></trkpt><trkpt lat="32.07652771046833" lon="-6.037912969615799"><ele>1337.857142857143</ele><time>2026-05-04T09:02:35.999Z</time></trkpt><trkpt lat="32.07646371540909" lon="-6.037946381462259"><ele>1339.1428571428573</ele><time>2026-05-04T09:02:36.999Z</time></trkpt><trkpt lat="32.076401779386856" lon="-6.0379923786651695"><ele>1340.4285714285716</ele><time>2026-05-04T09:02:37.999Z</time></trkpt><trkpt lat="32.076334572492605" lon="-6.038030993424256"><ele>1341.7142857142858</ele><time>2026-05-04T09:02:38.999Z</time></trkpt><trkpt lat="32.07627300084907" lon="-6.038054543724515"><ele>1343.0</ele><time>2026-05-04T09:02:39.999Z</time></trkpt><trkpt lat="32.076166114984176" lon="-6.038056194380114"><ele>1343.0</ele><time>2026-05-04T09:02:41.999Z</time></trkpt><trkpt lat="32.07605116651848" lon="-6.038111984288699"><ele>1343.0</ele><time>2026-05-04T09:02:43.999Z</time></trkpt><trkpt lat="32.075989711300956" lon="-6.038169735207568"><ele>1343.0</ele><time>2026-05-04T09:02:44.999Z</time></trkpt><trkpt lat="32.07592262753128" lon="-6.038227693961554"><ele>1343.0</ele><time>2026-05-04T09:02:45.999Z</time></trkpt><trkpt lat="32.07584853241863" lon="-6.03827974314789"><ele>1343.0</ele><time>2026-05-04T09:02:46.999Z</time></trkpt><trkpt lat="32.07575763522997" lon="-6.038327382480399"><ele>1340.3333333333335</ele><time>2026-05-04T09:02:47.999Z</time></trkpt><trkpt lat="32.07567754318662" lon="-6.038348213843354"><ele>1337.6666666666667</ele><time>2026-05-04T09:02:48.999Z</time></trkpt><trkpt lat="32.07560172237561" lon="-6.038363473401024"><ele>1335.0</ele><time>2026-05-04T09:02:49.999Z</time></trkpt><trkpt lat="32.07553327996308" lon="-6.0383857034197606"><ele>1332.3333333333333</ele><time>2026-05-04T09:02:50.999Z</time></trkpt><trkpt lat="32.07546913340257" lon="-6.038404193825104"><ele>1329.6666666666665</ele><time>2026-05-04T09:02:51.999Z</time></trkpt><trkpt lat="32.07536030000938" lon="-6.038433154702118"><ele>1327.0</ele><time>2026-05-04T09:02:53.999Z</time></trkpt><trkpt lat="32.07528793452378" lon="-6.038435743065181"><ele>1327.0000000000002</ele><time>2026-05-04T09:02:54.999Z</time></trkpt><trkpt lat="32.07521788821903" lon="-6.038439241596986"><ele>1327.0</ele><time>2026-05-04T09:02:55.999Z</time></trkpt><trkpt lat="32.07514673004504" lon="-6.038444705861458"><ele>1327.0</ele><time>2026-05-04T09:02:56.999Z</time></trkpt><trkpt lat="32.075079929400616" lon="-6.038458962743373"><ele>1327.0</ele><time>2026-05-04T09:02:57.999Z</time></trkpt><trkpt lat="32.07501803235259" lon="-6.03848448870331"><ele>1327.0</ele><time>2026-05-04T09:02:58.999Z</time></trkpt><trkpt lat="32.074954304605754" lon="-6.038517342909608"><ele>1327.0000000000002</ele><time>2026-05-04T09:02:59.999Z</time></trkpt><trkpt lat="32.074883240816895" lon="-6.038567323919557"><ele>1327.0</ele><time>2026-05-04T09:03:00.999Z</time></trkpt><trkpt lat="32.07481473633214" lon="-6.038616315354929"><ele>1327.5714285714287</ele><time>2026-05-04T09:03:02Z</time></trkpt><trkpt lat="32.07475333321086" lon="-6.038658366142705"><ele>1328.142857142857</ele><time>2026-05-04T09:03:03Z</time></trkpt><trkpt lat="32.07469018221237" lon="-6.0386932708810335"><ele>1328.7142857142858</ele><time>2026-05-04T09:03:04Z</time></trkpt><trkpt lat="32.07462097131337" lon="-6.038711179449237"><ele>1329.2857142857142</ele><time>2026-05-04T09:03:05Z</time></trkpt><trkpt lat="32.074545263754715" lon="-6.038712274309175"><ele>1329.857142857143</ele><time>2026-05-04T09:03:06Z</time></trkpt><trkpt lat="32.074469271328105" lon="-6.038731697794548"><ele>1330.4285714285716</ele><time>2026-05-04T09:03:07Z</time></trkpt><trkpt lat="32.07439116932207" lon="-6.038757545871814"><ele>1331.0</ele><time>2026-05-04T09:03:08Z</time></trkpt><trkpt lat="32.07432376977713" lon="-6.038784949226248"><ele>1331.0</ele><time>2026-05-04T09:03:09Z</time></trkpt><trkpt lat="32.07425983004318" lon="-6.0388207175693"><ele>1331.0</ele><time>2026-05-04T09:03:10Z</time></trkpt><trkpt lat="32.0741731096404" lon="-6.0389100629641845"><ele>1331.0</ele><time>2026-05-04T09:03:12Z</time></trkpt><trkpt lat="32.074112018892215" lon="-6.0389402183387"><ele>1331.0</ele><time>2026-05-04T09:03:13Z</time></trkpt><trkpt lat="32.074014720892514" lon="-6.038953042496806"><ele>1331.0</ele><time>2026-05-04T09:03:15Z</time></trkpt><trkpt lat="32.07392483021932" lon="-6.038959818237758"><ele>1331.0</ele><time>2026-05-04T09:03:17Z</time></trkpt><trkpt lat="32.073825093244416" lon="-6.038980069263314"><ele>1328.5</ele><time>2026-05-04T09:03:19Z</time></trkpt><trkpt lat="32.07373917131423" lon="-6.039017310951381"><ele>1326.0</ele><time>2026-05-04T09:03:22Z</time></trkpt><trkpt lat="32.073676823778044" lon="-6.039050666154311"><ele>1323.5</ele><time>2026-05-04T09:03:25Z</time></trkpt><trkpt lat="32.07371708890187" lon="-6.039238365273097"><ele>1321.0</ele><time>2026-05-04T09:03:26Z</time></trkpt><trkpt lat="32.07358753911966" lon="-6.039097287373378"><ele>1321.0</ele><time>2026-05-04T09:04:18Z</time></trkpt><trkpt lat="32.073520882035304" lon="-6.039316712370202"><ele>1321.0</ele><time>2026-05-04T09:04:20Z</time></trkpt><trkpt lat="32.073384079464546" lon="-6.039397114284558"><ele>1321.0</ele><time>2026-05-04T09:04:22Z</time></trkpt><trkpt lat="32.0732977594315" lon="-6.039459625384777"><ele>1327.4</ele><time>2026-05-04T09:04:23Z</time></trkpt><trkpt lat="32.073234940269046" lon="-6.039522187454011"><ele>1333.8</ele><time>2026-05-04T09:04:24Z</time></trkpt><trkpt lat="32.07316952918013" lon="-6.039596967300785"><ele>1340.2</ele><time>2026-05-04T09:04:25Z</time></trkpt><trkpt lat="32.07311035876329" lon="-6.039664962518983"><ele>1346.6000000000001</ele><time>2026-05-04T09:04:26Z</time></trkpt><trkpt lat="32.07305794574015" lon="-6.039725013737428"><ele>1353.0</ele><time>2026-05-04T09:04:27Z</time></trkpt><trkpt lat="32.072991681687" lon="-6.039871083255431"><ele>1348.6666666666667</ele><time>2026-05-04T09:04:29Z</time></trkpt><trkpt lat="32.07298107930151" lon="-6.0399736174603635"><ele>1344.3333333333333</ele><time>2026-05-04T09:04:30Z</time></trkpt><trkpt lat="32.07296953061362" lon="-6.0400596653246525"><ele>1340.0</ele><time>2026-05-04T09:04:31Z</time></trkpt><trkpt lat="32.0729603803831" lon="-6.040201114178105"><ele>1335.6666666666665</ele><time>2026-05-04T09:04:33Z</time></trkpt><trkpt lat="32.07297752697478" lon="-6.040282690736538"><ele>1331.3333333333333</ele><time>2026-05-04T09:04:33.999Z</time></trkpt><trkpt lat="32.073006086833914" lon="-6.040355698950967"><ele>1327.0</ele><time>2026-05-04T09:04:34.999Z</time></trkpt><trkpt lat="32.07303888148189" lon="-6.040420449086039"><ele>1327.0</ele><time>2026-05-04T09:04:35.999Z</time></trkpt><trkpt lat="32.07308618520744" lon="-6.0405419722230445"><ele>1327.0</ele><time>2026-05-04T09:04:37.999Z</time></trkpt><trkpt lat="32.073107090011376" lon="-6.0406711562978765"><ele>1327.0</ele><time>2026-05-04T09:04:39.999Z</time></trkpt><trkpt lat="32.07311356415534" lon="-6.040747235966946"><ele>1327.0</ele><time>2026-05-04T09:04:40.999Z</time></trkpt><trkpt lat="32.0731257663519" lon="-6.040878974288255"><ele>1327.0</ele><time>2026-05-04T09:04:42.999Z</time></trkpt><trkpt lat="32.07310692389019" lon="-6.041001851849193"><ele>1325.3999999999999</ele><time>2026-05-04T09:04:44.999Z</time></trkpt><trkpt lat="32.07304862011717" lon="-6.041082933928557"><ele>1323.8</ele><time>2026-05-04T09:04:46.999Z</time></trkpt><trkpt lat="32.07301268523013" lon="-6.0411922361808585"><ele>1322.2</ele><time>2026-05-04T09:04:48.999Z</time></trkpt><trkpt lat="32.07300387542669" lon="-6.041318838933718"><ele>1320.6</ele><time>2026-05-04T09:04:50.999Z</time></trkpt><trkpt lat="32.07302736084296" lon="-6.041459035493804"><ele>1319.0</ele><time>2026-05-04T09:04:52.999Z</time></trkpt><trkpt lat="32.07303693650489" lon="-6.0415431949373195"><ele>1318.9999999999998</ele><time>2026-05-04T09:04:53.999Z</time></trkpt><trkpt lat="32.07304405792551" lon="-6.04162668533993"><ele>1319.0</ele><time>2026-05-04T09:04:54.999Z</time></trkpt><trkpt lat="32.07306295995287" lon="-6.041727738761815"><ele>1319.0</ele><time>2026-05-04T09:04:55.999Z</time></trkpt><trkpt lat="32.07308051115919" lon="-6.0418163753406695"><ele>1319.0</ele><time>2026-05-04T09:04:56.999Z</time></trkpt><trkpt lat="32.07307940391277" lon="-6.041892973776731"><ele>1319.0</ele><time>2026-05-04T09:04:57.999Z</time></trkpt><trkpt lat="32.07306382699978" lon="-6.0419670389179965"><ele>1318.9999999999998</ele><time>2026-05-04T09:04:58.999Z</time></trkpt><trkpt lat="32.07306494733776" lon="-6.042050001200954"><ele>1319.0</ele><time>2026-05-04T09:04:59.999Z</time></trkpt><trkpt lat="32.07308601211936" lon="-6.042144255694626"><ele>1320.6666666666667</ele><time>2026-05-04T09:05:00.999Z</time></trkpt><trkpt lat="32.073115494932196" lon="-6.042245723922381"><ele>1322.3333333333335</ele><time>2026-05-04T09:05:01.999Z</time></trkpt><trkpt lat="32.07313464463199" lon="-6.042341470130812"><ele>1324.0</ele><time>2026-05-04T09:05:02.999Z</time></trkpt><trkpt lat="32.073144194073706" lon="-6.042436851437029"><ele>1325.6666666666667</ele><time>2026-05-04T09:05:03.999Z</time></trkpt><trkpt lat="32.07315502782129" lon="-6.0425379704626385"><ele>1327.3333333333333</ele><time>2026-05-04T09:05:04.999Z</time></trkpt><trkpt lat="32.07316323834451" lon="-6.0426410988667065"><ele>1329.0</ele><time>2026-05-04T09:05:05.999Z</time></trkpt><trkpt lat="32.07317547471832" lon="-6.042740195455489"><ele>1330.0</ele><time>2026-05-04T09:05:06.999Z</time></trkpt><trkpt lat="32.073186430110916" lon="-6.042844148551571"><ele>1331.0</ele><time>2026-05-04T09:05:08Z</time></trkpt><trkpt lat="32.07319843346961" lon="-6.042942348854251"><ele>1332.0</ele><time>2026-05-04T09:05:09Z</time></trkpt><trkpt lat="32.073210150707496" lon="-6.0430363379088226"><ele>1333.0</ele><time>2026-05-04T09:05:10Z</time></trkpt><trkpt lat="32.07322184946291" lon="-6.043127540202144"><ele>1334.0</ele><time>2026-05-04T09:05:11Z</time></trkpt><trkpt lat="32.073243089750534" lon="-6.043215917466904"><ele>1335.0</ele><time>2026-05-04T09:05:12Z</time></trkpt><trkpt lat="32.073267016785366" lon="-6.043293642713416"><ele>1333.4</ele><time>2026-05-04T09:05:13Z</time></trkpt><trkpt lat="32.07328669646893" lon="-6.043368655376325"><ele>1331.8</ele><time>2026-05-04T09:05:14Z</time></trkpt><trkpt lat="32.07329648337107" lon="-6.043449734223845"><ele>1330.1999999999998</ele><time>2026-05-04T09:05:15Z</time></trkpt><trkpt lat="32.073322850453046" lon="-6.0436151805886285"><ele>1328.6</ele><time>2026-05-04T09:05:17Z</time></trkpt><trkpt lat="32.07331657584669" lon="-6.043716436223806"><ele>1327.0</ele><time>2026-05-04T09:05:18Z</time></trkpt><trkpt lat="32.07330174276097" lon="-6.04383029763455"><ele>1327.0</ele><time>2026-05-04T09:05:19Z</time></trkpt><trkpt lat="32.07328423531477" lon="-6.043932974980044"><ele>1327.0</ele><time>2026-05-04T09:05:20Z</time></trkpt><trkpt lat="32.07326902399352" lon="-6.044022502733918"><ele>1327.0</ele><time>2026-05-04T09:05:21Z</time></trkpt><trkpt lat="32.07324121907296" lon="-6.0441080507035485"><ele>1327.0</ele><time>2026-05-04T09:05:22Z</time></trkpt><trkpt lat="32.07321641872691" lon="-6.044180918717831"><ele>1327.0</ele><time>2026-05-04T09:05:23Z</time></trkpt><trkpt lat="32.073191141682464" lon="-6.044259581047151"><ele>1327.0</ele><time>2026-05-04T09:05:24Z</time></trkpt><trkpt lat="32.07314015854988" lon="-6.044338835605056"><ele>1329.8333333333333</ele><time>2026-05-04T09:05:25Z</time></trkpt><trkpt lat="32.07311115433348" lon="-6.044411428703975"><ele>1332.6666666666665</ele><time>2026-05-04T09:05:26Z</time></trkpt><trkpt lat="32.07306855299253" lon="-6.04447719444856"><ele>1335.5</ele><time>2026-05-04T09:05:27Z</time></trkpt><trkpt lat="32.073063980059715" lon="-6.044574154540668"><ele>1338.3333333333333</ele><time>2026-05-04T09:05:28Z</time></trkpt><trkpt lat="32.07306398006151" lon="-6.044665502534604"><ele>1341.1666666666667</ele><time>2026-05-04T09:05:29Z</time></trkpt><trkpt lat="32.07306459989161" lon="-6.044762332428888"><ele>1344.0</ele><time>2026-05-04T09:05:30Z</time></trkpt><trkpt lat="32.07308016212121" lon="-6.044868048761643"><ele>1341.5</ele><time>2026-05-04T09:05:31Z</time></trkpt><trkpt lat="32.073076633791324" lon="-6.044971498674402"><ele>1339.0</ele><time>2026-05-04T09:05:32Z</time></trkpt><trkpt lat="32.07307736945471" lon="-6.045083296329207"><ele>1336.5</ele><time>2026-05-04T09:05:33Z</time></trkpt><trkpt lat="32.07305816930984" lon="-6.045183916911699"><ele>1334.0</ele><time>2026-05-04T09:05:34Z</time></trkpt><trkpt lat="32.07304949493761" lon="-6.045285785587137"><ele>1331.5</ele><time>2026-05-04T09:05:35Z</time></trkpt><trkpt lat="32.07305373282726" lon="-6.045384842045612"><ele>1329.0</ele><time>2026-05-04T09:05:36Z</time></trkpt><trkpt lat="32.07303654307071" lon="-6.04547657205587"><ele>1329.0</ele><time>2026-05-04T09:05:37Z</time></trkpt><trkpt lat="32.07302613387407" lon="-6.045568980389009"><ele>1329.0</ele><time>2026-05-04T09:05:38Z</time></trkpt><trkpt lat="32.07301735560388" lon="-6.045670298809588"><ele>1329.0</ele><time>2026-05-04T09:05:39Z</time></trkpt><trkpt lat="32.07298806385507" lon="-6.0457773290520835"><ele>1329.0</ele><time>2026-05-04T09:05:40Z</time></trkpt><trkpt lat="32.072976139613296" lon="-6.045877965150098"><ele>1329.0</ele><time>2026-05-04T09:05:41Z</time></trkpt><trkpt lat="32.07296570826865" lon="-6.045960493503831"><ele>1329.0</ele><time>2026-05-04T09:05:42Z</time></trkpt><trkpt lat="32.072972795223706" lon="-6.046035108590269"><ele>1326.3333333333333</ele><time>2026-05-04T09:05:43Z</time></trkpt><trkpt lat="32.072955059364425" lon="-6.046118350572111"><ele>1323.6666666666667</ele><time>2026-05-04T09:05:44Z</time></trkpt><trkpt lat="32.07292882910567" lon="-6.046190105725321"><ele>1321.0</ele><time>2026-05-04T09:05:45Z</time></trkpt><trkpt lat="32.07292589424748" lon="-6.046269780488263"><ele>1318.3333333333335</ele><time>2026-05-04T09:05:46Z</time></trkpt><trkpt lat="32.07291226878513" lon="-6.046370591047913"><ele>1315.6666666666667</ele><time>2026-05-04T09:05:47Z</time></trkpt><trkpt lat="32.07287098098888" lon="-6.04645731058063"><ele>1313.0</ele><time>2026-05-04T09:05:48Z</time></trkpt><trkpt lat="32.072823912640494" lon="-6.0465626862077455"><ele>1312.1428571428573</ele><time>2026-05-04T09:05:49Z</time></trkpt><trkpt lat="32.07278151036009" lon="-6.046657615550146"><ele>1311.2857142857142</ele><time>2026-05-04T09:05:50Z</time></trkpt><trkpt lat="32.072752123872974" lon="-6.0467392226117695"><ele>1310.4285714285716</ele><time>2026-05-04T09:05:51Z</time></trkpt><trkpt lat="32.072721775460614" lon="-6.046821655647864"><ele>1309.5714285714287</ele><time>2026-05-04T09:05:52Z</time></trkpt><trkpt lat="32.07269595583552" lon="-6.046898950175872"><ele>1308.7142857142858</ele><time>2026-05-04T09:05:53Z</time></trkpt><trkpt lat="32.072669598988696" lon="-6.046973931770005"><ele>1307.857142857143</ele><time>2026-05-04T09:05:54Z</time></trkpt><trkpt lat="32.07264500905466" lon="-6.047045750707412"><ele>1307.0</ele><time>2026-05-04T09:05:55Z</time></trkpt><trkpt lat="32.072599271941414" lon="-6.047158726288368"><ele>1307.0</ele><time>2026-05-04T09:05:56Z</time></trkpt><trkpt lat="32.07252935565175" lon="-6.047285060989893"><ele>1307.0</ele><time>2026-05-04T09:05:58Z</time></trkpt><trkpt lat="32.07249066807977" lon="-6.047364343317762"><ele>1307.0</ele><time>2026-05-04T09:05:59Z</time></trkpt><trkpt lat="32.07243596419481" lon="-6.047480862935169"><ele>1307.0</ele><time>2026-05-04T09:06:01Z</time></trkpt><trkpt lat="32.07238531465025" lon="-6.047587142718279"><ele>1307.0</ele><time>2026-05-04T09:06:03Z</time></trkpt><trkpt lat="32.07231647177765" lon="-6.047685346882471"><ele>1307.0</ele><time>2026-05-04T09:06:05Z</time></trkpt><trkpt lat="32.07223891302723" lon="-6.047777714305196"><ele>1307.0</ele><time>2026-05-04T09:06:07Z</time></trkpt><trkpt lat="32.07215863093758" lon="-6.047884509825654"><ele>1307.0</ele><time>2026-05-04T09:06:09Z</time></trkpt><trkpt lat="32.072057123144454" lon="-6.047991911037173"><ele>1307.0</ele><time>2026-05-04T09:06:11Z</time></trkpt><trkpt lat="32.07201486699425" lon="-6.048060740053291"><ele>1307.0</ele><time>2026-05-04T09:06:12Z</time></trkpt><trkpt lat="32.07196746415266" lon="-6.048121312683796"><ele>1307.0</ele><time>2026-05-04T09:06:13Z</time></trkpt><trkpt lat="32.071918072561274" lon="-6.048189198689156"><ele>1307.0</ele><time>2026-05-04T09:06:14Z</time></trkpt><trkpt lat="32.07185279024633" lon="-6.0482805926502605"><ele>1307.0</ele><time>2026-05-04T09:06:16Z</time></trkpt><trkpt lat="32.071779507880244" lon="-6.048375358458669"><ele>1307.0</ele><time>2026-05-04T09:06:18Z</time></trkpt><trkpt lat="32.07170616662608" lon="-6.048470785414679"><ele>1307.0</ele><time>2026-05-04T09:06:20Z</time></trkpt><trkpt lat="32.07166291403112" lon="-6.048535603938659"><ele>1307.5</ele><time>2026-05-04T09:06:21Z</time></trkpt><trkpt lat="32.071616351763616" lon="-6.048605439034531"><ele>1308.0</ele><time>2026-05-04T09:06:22Z</time></trkpt><trkpt lat="32.07156571031443" lon="-6.048681693486975"><ele>1308.5</ele><time>2026-05-04T09:06:23Z</time></trkpt><trkpt lat="32.0715151453074" lon="-6.048758065254044"><ele>1309.0</ele><time>2026-05-04T09:06:23.999Z</time></trkpt><trkpt lat="32.07146853932176" lon="-6.048828424728935"><ele>1309.5</ele><time>2026-05-04T09:06:24.999Z</time></trkpt><trkpt lat="32.07142586253234" lon="-6.04889381541679"><ele>1310.0</ele><time>2026-05-04T09:06:25.999Z</time></trkpt><trkpt lat="32.07138166679686" lon="-6.048959633967865"><ele>1308.5</ele><time>2026-05-04T09:06:26.999Z</time></trkpt><trkpt lat="32.07133297570523" lon="-6.0490328775324205"><ele>1307.0</ele><time>2026-05-04T09:06:27.999Z</time></trkpt><trkpt lat="32.07128736480347" lon="-6.049101895792821"><ele>1305.5</ele><time>2026-05-04T09:06:28.999Z</time></trkpt><trkpt lat="32.071244163873246" lon="-6.049166941367054"><ele>1304.0</ele><time>2026-05-04T09:06:29.999Z</time></trkpt><trkpt lat="32.07119980077034" lon="-6.049233445062682"><ele>1302.5</ele><time>2026-05-04T09:06:30.999Z</time></trkpt><trkpt lat="32.0711482910353" lon="-6.049310797148613"><ele>1301.0</ele><time>2026-05-04T09:06:31.999Z</time></trkpt><trkpt lat="32.07112026498877" lon="-6.04940666864874"><ele>1301.0</ele><time>2026-05-04T09:06:32.999Z</time></trkpt><trkpt lat="32.071089177147684" lon="-6.0494795731696325"><ele>1301.0</ele><time>2026-05-04T09:06:33.999Z</time></trkpt><trkpt lat="32.07105899130307" lon="-6.049550166278594"><ele>1301.0</ele><time>2026-05-04T09:06:34.999Z</time></trkpt><trkpt lat="32.07103187321089" lon="-6.049637438307208"><ele>1301.0</ele><time>2026-05-04T09:06:35.999Z</time></trkpt><trkpt lat="32.07099579837436" lon="-6.04971235255791"><ele>1301.0</ele><time>2026-05-04T09:06:36.999Z</time></trkpt><trkpt lat="32.070961809070525" lon="-6.049775168437007"><ele>1301.0</ele><time>2026-05-04T09:06:37.999Z</time></trkpt><trkpt lat="32.07091746838205" lon="-6.049838203279058"><ele>1301.0</ele><time>2026-05-04T09:06:38.999Z</time></trkpt><trkpt lat="32.07087406319847" lon="-6.049907686304683"><ele>1302.6666666666667</ele><time>2026-05-04T09:06:39.999Z</time></trkpt><trkpt lat="32.07083220204027" lon="-6.049973622752089"><ele>1304.3333333333335</ele><time>2026-05-04T09:06:40.999Z</time></trkpt><trkpt lat="32.07079129685725" lon="-6.050041233124763"><ele>1306.0</ele><time>2026-05-04T09:06:41.999Z</time></trkpt><trkpt lat="32.07076169028921" lon="-6.050116272080976"><ele>1307.6666666666667</ele><time>2026-05-04T09:06:42.999Z</time></trkpt><trkpt lat="32.07071504614758" lon="-6.050192681431299"><ele>1309.3333333333333</ele><time>2026-05-04T09:06:43.999Z</time></trkpt><trkpt lat="32.0706699384729" lon="-6.0502614540590915"><ele>1311.0</ele><time>2026-05-04T09:06:44.999Z</time></trkpt><trkpt lat="32.07066181833795" lon="-6.050365095130667"><ele>1309.1999999999998</ele><time>2026-05-04T09:06:45.999Z</time></trkpt><trkpt lat="32.070634186660804" lon="-6.0504622401970405"><ele>1307.3999999999999</ele><time>2026-05-04T09:06:46.999Z</time></trkpt><trkpt lat="32.07060256437811" lon="-6.050565577352816"><ele>1305.6</ele><time>2026-05-04T09:06:47.999Z</time></trkpt><trkpt lat="32.07057212080944" lon="-6.05067071335662"><ele>1303.8</ele><time>2026-05-04T09:06:48.999Z</time></trkpt><trkpt lat="32.07054653340038" lon="-6.0507787015802"><ele>1302.0</ele><time>2026-05-04T09:06:49.999Z</time></trkpt><trkpt lat="32.07051967160239" lon="-6.050893154428837"><ele>1302.0</ele><time>2026-05-04T09:06:50.999Z</time></trkpt><trkpt lat="32.07049225284448" lon="-6.05100350212758"><ele>1302.0</ele><time>2026-05-04T09:06:51.999Z</time></trkpt><trkpt lat="32.070464830389994" lon="-6.051116441268763"><ele>1302.0</ele><time>2026-05-04T09:06:52.999Z</time></trkpt><trkpt lat="32.070440107355616" lon="-6.051218682490881"><ele>1302.0</ele><time>2026-05-04T09:06:53.999Z</time></trkpt><trkpt lat="32.07041646152549" lon="-6.051316736327658"><ele>1302.0</ele><time>2026-05-04T09:06:54.999Z</time></trkpt><trkpt lat="32.07039032151599" lon="-6.051434936219488"><ele>1302.0</ele><time>2026-05-04T09:06:55.999Z</time></trkpt><trkpt lat="32.07034128029473" lon="-6.051541802205396"><ele>1302.0</ele><time>2026-05-04T09:06:56.999Z</time></trkpt><trkpt lat="32.07029706196856" lon="-6.051638645272033"><ele>1302.0</ele><time>2026-05-04T09:06:57.999Z</time></trkpt><trkpt lat="32.07025399451247" lon="-6.051733271933514"><ele>1302.0</ele><time>2026-05-04T09:06:58.999Z</time></trkpt><trkpt lat="32.07020967204263" lon="-6.051830656133609"><ele>1302.0</ele><time>2026-05-04T09:06:59.999Z</time></trkpt><trkpt lat="32.070166158338736" lon="-6.051926263336318"><ele>1302.0</ele><time>2026-05-04T09:07:00.999Z</time></trkpt><trkpt lat="32.07014608455736" lon="-6.052023014460976"><ele>1302.0</ele><time>2026-05-04T09:07:01.999Z</time></trkpt><trkpt lat="32.07012046726182" lon="-6.052135999524019"><ele>1302.0</ele><time>2026-05-04T09:07:02.999Z</time></trkpt><trkpt lat="32.07009674631428" lon="-6.05223935225299"><ele>1302.0</ele><time>2026-05-04T09:07:03.999Z</time></trkpt><trkpt lat="32.070055654062976" lon="-6.052400411369737"><ele>1302.0</ele><time>2026-05-04T09:07:04.999Z</time></trkpt><trkpt lat="32.07000320629311" lon="-6.052485151781946"><ele>1301.1999999999998</ele><time>2026-05-04T09:07:05.999Z</time></trkpt><trkpt lat="32.06995943561803" lon="-6.052556890421071"><ele>1300.4</ele><time>2026-05-04T09:07:06.999Z</time></trkpt><trkpt lat="32.069904549745345" lon="-6.052647358663972"><ele>1299.6</ele><time>2026-05-04T09:07:07.999Z</time></trkpt><trkpt lat="32.06982497435245" lon="-6.052750377258815"><ele>1298.8000000000002</ele><time>2026-05-04T09:07:08.999Z</time></trkpt><trkpt lat="32.06976095371639" lon="-6.052825911851408"><ele>1298.0</ele><time>2026-05-04T09:07:09.999Z</time></trkpt><trkpt lat="32.06969317720183" lon="-6.052905959323904"><ele>1298.0</ele><time>2026-05-04T09:07:10.999Z</time></trkpt><trkpt lat="32.069624743093705" lon="-6.052986783659937"><ele>1298.0</ele><time>2026-05-04T09:07:11.999Z</time></trkpt><trkpt lat="32.06955676019155" lon="-6.05306707509804"><ele>1298.0</ele><time>2026-05-04T09:07:12.999Z</time></trkpt><trkpt lat="32.069493487623134" lon="-6.053141803382925"><ele>1298.0</ele><time>2026-05-04T09:07:14Z</time></trkpt><trkpt lat="32.069340166950944" lon="-6.053098019685057"><ele>1298.0</ele><time>2026-05-04T09:07:15Z</time></trkpt><trkpt lat="32.06927298935376" lon="-6.053152667529374"><ele>1298.0</ele><time>2026-05-04T09:07:16Z</time></trkpt><trkpt lat="32.06920247040395" lon="-6.0531974552749865"><ele>1298.0</ele><time>2026-05-04T09:07:17Z</time></trkpt><trkpt lat="32.06913623891368" lon="-6.053240463744446"><ele>1298.0</ele><time>2026-05-04T09:07:18Z</time></trkpt><trkpt lat="32.069080460741326" lon="-6.05328926519123"><ele>1298.0</ele><time>2026-05-04T09:07:19Z</time></trkpt><trkpt lat="32.06902709976106" lon="-6.053350070234265"><ele>1298.0</ele><time>2026-05-04T09:07:20Z</time></trkpt><trkpt lat="32.06898191236184" lon="-6.053423652355324"><ele>1298.0</ele><time>2026-05-04T09:07:21Z</time></trkpt><trkpt lat="32.06893291875165" lon="-6.053500948727248"><ele>1298.6666666666667</ele><time>2026-05-04T09:07:22Z</time></trkpt><trkpt lat="32.06887061799485" lon="-6.053568273988636"><ele>1299.3333333333335</ele><time>2026-05-04T09:07:23Z</time></trkpt><trkpt lat="32.0688061185321" lon="-6.053630268687376"><ele>1300.0</ele><time>2026-05-04T09:07:24Z</time></trkpt><trkpt lat="32.068736553677944" lon="-6.053684791545575"><ele>1300.6666666666667</ele><time>2026-05-04T09:07:25Z</time></trkpt><trkpt lat="32.068658730318134" lon="-6.053734293227749"><ele>1301.3333333333333</ele><time>2026-05-04T09:07:26Z</time></trkpt><trkpt lat="32.06858640540954" lon="-6.053772792522439"><ele>1302.0</ele><time>2026-05-04T09:07:27Z</time></trkpt><trkpt lat="32.06852161778567" lon="-6.053797042609529"><ele>1302.0</ele><time>2026-05-04T09:07:28Z</time></trkpt><trkpt lat="32.068440370226874" lon="-6.05382791006772"><ele>1302.0</ele><time>2026-05-04T09:07:30Z</time></trkpt><trkpt lat="32.068349991966706" lon="-6.053922435166103"><ele>1302.0</ele><time>2026-05-04T09:07:32Z</time></trkpt><trkpt lat="32.06824498167076" lon="-6.053980938738989"><ele>1302.0</ele><time>2026-05-04T09:07:34Z</time></trkpt><trkpt lat="32.0681801512659" lon="-6.054005960955004"><ele>1302.0</ele><time>2026-05-04T09:07:35Z</time></trkpt><trkpt lat="32.06807137360165" lon="-6.054041764329545"><ele>1300.8</ele><time>2026-05-04T09:07:37Z</time></trkpt><trkpt lat="32.067953355510994" lon="-6.054058481655421"><ele>1299.6</ele><time>2026-05-04T09:07:39Z</time></trkpt><trkpt lat="32.06784830567843" lon="-6.054088965725074"><ele>1298.3999999999999</ele><time>2026-05-04T09:07:41Z</time></trkpt><trkpt lat="32.067738901301446" lon="-6.054081368701319"><ele>1297.1999999999998</ele><time>2026-05-04T09:07:43Z</time></trkpt><trkpt lat="32.06767594256919" lon="-6.054084903835389"><ele>1296.0</ele><time>2026-05-04T09:07:44Z</time></trkpt><trkpt lat="32.067612618243174" lon="-6.054092541881019"><ele>1296.0</ele><time>2026-05-04T09:07:45Z</time></trkpt><trkpt lat="32.06754151648448" lon="-6.054103081838095"><ele>1296.0</ele><time>2026-05-04T09:07:46Z</time></trkpt><trkpt lat="32.06742779805452" lon="-6.054127165111492"><ele>1296.0</ele><time>2026-05-04T09:07:48Z</time></trkpt><trkpt lat="32.06736429566215" lon="-6.054167841678734"><ele>1296.0</ele><time>2026-05-04T09:07:49Z</time></trkpt><trkpt lat="32.067300595498395" lon="-6.05421679626784"><ele>1296.0</ele><time>2026-05-04T09:07:50Z</time></trkpt><trkpt lat="32.06723957512662" lon="-6.054254927555891"><ele>1296.0</ele><time>2026-05-04T09:07:51Z</time></trkpt><trkpt lat="32.067131547327705" lon="-6.054349226150339"><ele>1295.0</ele><time>2026-05-04T09:07:53Z</time></trkpt><trkpt lat="32.06707842602046" lon="-6.054414634204021"><ele>1294.0</ele><time>2026-05-04T09:07:54Z</time></trkpt><trkpt lat="32.06703138295141" lon="-6.054500576410723"><ele>1293.0</ele><time>2026-05-04T09:07:55Z</time></trkpt><trkpt lat="32.06698018590155" lon="-6.054577247701006"><ele>1292.0</ele><time>2026-05-04T09:07:56Z</time></trkpt><trkpt lat="32.066921171877425" lon="-6.0546493244662"><ele>1291.0</ele><time>2026-05-04T09:07:57Z</time></trkpt><trkpt lat="32.06686879672732" lon="-6.054721283639774"><ele>1290.0</ele><time>2026-05-04T09:07:58Z</time></trkpt><trkpt lat="32.06682781853745" lon="-6.054785938062126"><ele>1290.0</ele><time>2026-05-04T09:07:59Z</time></trkpt><trkpt lat="32.066796103412315" lon="-6.054862152757494"><ele>1290.0</ele><time>2026-05-04T09:08:00Z</time></trkpt><trkpt lat="32.066777659913214" lon="-6.05494857127259"><ele>1290.0</ele><time>2026-05-04T09:08:01Z</time></trkpt><trkpt lat="32.06676621658117" lon="-6.0550378685608885"><ele>1290.0</ele><time>2026-05-04T09:08:02Z</time></trkpt><trkpt lat="32.06675433783818" lon="-6.055128035243643"><ele>1290.0</ele><time>2026-05-04T09:08:03Z</time></trkpt><trkpt lat="32.066740654507825" lon="-6.055231597710026"><ele>1290.0</ele><time>2026-05-04T09:08:04Z</time></trkpt><trkpt lat="32.06672640694893" lon="-6.055331874849281"><ele>1289.857142857143</ele><time>2026-05-04T09:08:05Z</time></trkpt><trkpt lat="32.06671710261803" lon="-6.055420902795478"><ele>1289.7142857142856</ele><time>2026-05-04T09:08:06Z</time></trkpt><trkpt lat="32.06670363225761" lon="-6.055504288933269"><ele>1289.5714285714284</ele><time>2026-05-04T09:08:07Z</time></trkpt><trkpt lat="32.066689935140154" lon="-6.055582932338583"><ele>1289.4285714285716</ele><time>2026-05-04T09:08:08Z</time></trkpt><trkpt lat="32.066653742026546" lon="-6.0556593651219"><ele>1289.2857142857142</ele><time>2026-05-04T09:08:09Z</time></trkpt><trkpt lat="32.06660004648761" lon="-6.055725204663385"><ele>1289.142857142857</ele><time>2026-05-04T09:08:10Z</time></trkpt><trkpt lat="32.06654088102354" lon="-6.05578035981241"><ele>1289.0</ele><time>2026-05-04T09:08:11Z</time></trkpt><trkpt lat="32.06648076528732" lon="-6.055845844811607"><ele>1289.0</ele><time>2026-05-04T09:08:12Z</time></trkpt><trkpt lat="32.06642183178912" lon="-6.0559074489058915"><ele>1289.0</ele><time>2026-05-04T09:08:13Z</time></trkpt><trkpt lat="32.06636217179959" lon="-6.055961990898206"><ele>1289.0</ele><time>2026-05-04T09:08:14Z</time></trkpt><trkpt lat="32.06630168474792" lon="-6.05602364022646"><ele>1289.0</ele><time>2026-05-04T09:08:15Z</time></trkpt><trkpt lat="32.06624546367175" lon="-6.056082095567314"><ele>1289.0</ele><time>2026-05-04T09:08:16Z</time></trkpt><trkpt lat="32.0661885403241" lon="-6.056141568527904"><ele>1289.0</ele><time>2026-05-04T09:08:17Z</time></trkpt><trkpt lat="32.0661321310095" lon="-6.056191716069204"><ele>1289.0</ele><time>2026-05-04T09:08:18Z</time></trkpt><trkpt lat="32.06606677190922" lon="-6.056242112053065"><ele>1289.0</ele><time>2026-05-04T09:08:19Z</time></trkpt><trkpt lat="32.06600066247734" lon="-6.056285858088445"><ele>1289.0</ele><time>2026-05-04T09:08:20Z</time></trkpt><trkpt lat="32.06592655729368" lon="-6.056326582292348"><ele>1289.0</ele><time>2026-05-04T09:08:21Z</time></trkpt><trkpt lat="32.06586014319263" lon="-6.056372136974092"><ele>1289.0</ele><time>2026-05-04T09:08:22Z</time></trkpt><trkpt lat="32.065793896562774" lon="-6.056424035957818"><ele>1289.0</ele><time>2026-05-04T09:08:23Z</time></trkpt><trkpt lat="32.06572306662795" lon="-6.056477866106003"><ele>1289.0</ele><time>2026-05-04T09:08:24Z</time></trkpt><trkpt lat="32.06565817326824" lon="-6.05652715817154"><ele>1289.0</ele><time>2026-05-04T09:08:25Z</time></trkpt><trkpt lat="32.06557956864822" lon="-6.056571295200101"><ele>1289.0</ele><time>2026-05-04T09:08:26Z</time></trkpt><trkpt lat="32.06550923221831" lon="-6.056612288837568"><ele>1289.0</ele><time>2026-05-04T09:08:27Z</time></trkpt><trkpt lat="32.06544218295046" lon="-6.056655614711883"><ele>1289.0</ele><time>2026-05-04T09:08:27.999Z</time></trkpt><trkpt lat="32.06538191123484" lon="-6.056712777820633"><ele>1289.0</ele><time>2026-05-04T09:08:28.999Z</time></trkpt><trkpt lat="32.06533006020376" lon="-6.05676624003545"><ele>1289.0</ele><time>2026-05-04T09:08:29.999Z</time></trkpt><trkpt lat="32.06528246484895" lon="-6.056834318266371"><ele>1289.0</ele><time>2026-05-04T09:08:30.999Z</time></trkpt><trkpt lat="32.06527289043055" lon="-6.056935736697183"><ele>1289.0</ele><time>2026-05-04T09:08:31.999Z</time></trkpt><trkpt lat="32.06523900993247" lon="-6.057024446257315"><ele>1289.0</ele><time>2026-05-04T09:08:32.999Z</time></trkpt><trkpt lat="32.06520561236455" lon="-6.057114380456526"><ele>1289.0</ele><time>2026-05-04T09:08:33.999Z</time></trkpt><trkpt lat="32.065178086894704" lon="-6.057203623795442"><ele>1289.0</ele><time>2026-05-04T09:08:34.999Z</time></trkpt><trkpt lat="32.065151880530024" lon="-6.0572867065979406"><ele>1289.0</ele><time>2026-05-04T09:08:35.999Z</time></trkpt><trkpt lat="32.06512840564033" lon="-6.057361129742603"><ele>1289.0</ele><time>2026-05-04T09:08:36.999Z</time></trkpt><trkpt lat="32.065106502301425" lon="-6.057432413867203"><ele>1289.0</ele><time>2026-05-04T09:08:37.999Z</time></trkpt><trkpt lat="32.0650746421504" lon="-6.057578630433082"><ele>1289.0</ele><time>2026-05-04T09:08:39.999Z</time></trkpt><trkpt lat="32.06504070960575" lon="-6.057727695150068"><ele>1289.0</ele><time>2026-05-04T09:08:41.999Z</time></trkpt><trkpt lat="32.06501253778974" lon="-6.057868447248512"><ele>1292.0</ele><time>2026-05-04T09:08:43.999Z</time></trkpt><trkpt lat="32.064984573781345" lon="-6.057940005466427"><ele>1295.0</ele><time>2026-05-04T09:08:44.999Z</time></trkpt><trkpt lat="32.06498222934433" lon="-6.058026858297686"><ele>1298.0</ele><time>2026-05-04T09:08:45.999Z</time></trkpt><trkpt lat="32.06499446512697" lon="-6.058111740062303"><ele>1301.0</ele><time>2026-05-04T09:08:46.999Z</time></trkpt><trkpt lat="32.06500103232146" lon="-6.058189550847868"><ele>1304.0</ele><time>2026-05-04T09:08:47.999Z</time></trkpt><trkpt lat="32.064994445653156" lon="-6.058288470595741"><ele>1307.0</ele><time>2026-05-04T09:08:49.999Z</time></trkpt><trkpt lat="32.06503336453581" lon="-6.058385915576648"><ele>1307.3333333333335</ele><time>2026-05-04T09:08:53.999Z</time></trkpt><trkpt lat="32.06505115120196" lon="-6.058475733279878"><ele>1307.6666666666667</ele><time>2026-05-04T09:08:56.999Z</time></trkpt><trkpt lat="32.0650591813352" lon="-6.058552439736414"><ele>1308.0</ele><time>2026-05-04T09:08:59.999Z</time></trkpt><trkpt lat="32.065065508629644" lon="-6.058649387305201"><ele>1308.3333333333333</ele><time>2026-05-04T09:09:02.999Z</time></trkpt><trkpt lat="32.06509721009941" lon="-6.058724475400884"><ele>1308.6666666666665</ele><time>2026-05-04T09:09:04.999Z</time></trkpt><trkpt lat="32.0651364586386" lon="-6.058810509312406"><ele>1309.0</ele><time>2026-05-04T09:09:06.999Z</time></trkpt><trkpt lat="32.06519002606644" lon="-6.058897844373176"><ele>1309.0</ele><time>2026-05-04T09:09:08.999Z</time></trkpt><trkpt lat="32.06523734408221" lon="-6.058999267354345"><ele>1309.0</ele><time>2026-05-04T09:09:10.999Z</time></trkpt><trkpt lat="32.06529617922919" lon="-6.05911946804732"><ele>1309.0</ele><time>2026-05-04T09:09:12.999Z</time></trkpt><trkpt lat="32.06533598918478" lon="-6.0591861747738935"><ele>1309.0</ele><time>2026-05-04T09:09:13.999Z</time></trkpt><trkpt lat="32.065377992831976" lon="-6.059241828133449"><ele>1309.0</ele><time>2026-05-04T09:09:14.999Z</time></trkpt><trkpt lat="32.06542640369063" lon="-6.05929504277369"><ele>1309.0</ele><time>2026-05-04T09:09:15.999Z</time></trkpt><trkpt lat="32.065515788661955" lon="-6.059394204983513"><ele>1312.0</ele><time>2026-05-04T09:09:17.999Z</time></trkpt><trkpt lat="32.065604956741545" lon="-6.059481398340544"><ele>1315.0</ele><time>2026-05-04T09:09:20Z</time></trkpt><trkpt lat="32.065684822880065" lon="-6.059559825691771"><ele>1318.0</ele><time>2026-05-04T09:09:22Z</time></trkpt><trkpt lat="32.065750609071706" lon="-6.0596267719545684"><ele>1321.0</ele><time>2026-05-04T09:09:24Z</time></trkpt><trkpt lat="32.06581190961567" lon="-6.059689567625906"><ele>1324.0</ele><time>2026-05-04T09:09:26Z</time></trkpt><trkpt lat="32.06588576763074" lon="-6.05976522706127"><ele>1324.0</ele><time>2026-05-04T09:09:28Z</time></trkpt><trkpt lat="32.065933562282474" lon="-6.059817800206939"><ele>1324.0</ele><time>2026-05-04T09:09:29Z</time></trkpt><trkpt lat="32.06601912563437" lon="-6.059889735578902"><ele>1324.0</ele><time>2026-05-04T09:09:31Z</time></trkpt><trkpt lat="32.06607138981816" lon="-6.059934578429996"><ele>1324.0</ele><time>2026-05-04T09:09:32Z</time></trkpt><trkpt lat="32.06617221823397" lon="-6.060020884623882"><ele>1324.0</ele><time>2026-05-04T09:09:34Z</time></trkpt><trkpt lat="32.06622549321642" lon="-6.0600664864483145"><ele>1324.0</ele><time>2026-05-04T09:09:35Z</time></trkpt><trkpt lat="32.06628453729032" lon="-6.0601144811230885"><ele>1320.8000000000002</ele><time>2026-05-04T09:09:36Z</time></trkpt><trkpt lat="32.06638902587833" lon="-6.060196748000319"><ele>1317.6000000000001</ele><time>2026-05-04T09:09:38Z</time></trkpt><trkpt lat="32.06649178279756" lon="-6.060279224403085"><ele>1314.4</ele><time>2026-05-04T09:09:40Z</time></trkpt><trkpt lat="32.06654730821713" lon="-6.0603197415405266"><ele>1311.2</ele><time>2026-05-04T09:09:41Z</time></trkpt><trkpt lat="32.0665966772745" lon="-6.0603745429327045"><ele>1308.0</ele><time>2026-05-04T09:09:42Z</time></trkpt><trkpt lat="32.066646908186215" lon="-6.060430301010556"><ele>1308.0</ele><time>2026-05-04T09:09:43Z</time></trkpt><trkpt lat="32.06672675135053" lon="-6.060550724671981"><ele>1308.0</ele><time>2026-05-04T09:09:45Z</time></trkpt><trkpt lat="32.06675786065466" lon="-6.060629217093805"><ele>1308.0</ele><time>2026-05-04T09:09:46Z</time></trkpt><trkpt lat="32.066799915747396" lon="-6.0607679859851995"><ele>1308.0</ele><time>2026-05-04T09:09:48Z</time></trkpt><trkpt lat="32.066816091488775" lon="-6.060844958995306"><ele>1308.0</ele><time>2026-05-04T09:09:49Z</time></trkpt><trkpt lat="32.0668191865981" lon="-6.060929549443061"><ele>1304.6666666666667</ele><time>2026-05-04T09:09:50Z</time></trkpt><trkpt lat="32.06683766683196" lon="-6.061020493298412"><ele>1301.3333333333333</ele><time>2026-05-04T09:09:51Z</time></trkpt><trkpt lat="32.06682789944808" lon="-6.061107159622386"><ele>1298.0</ele><time>2026-05-04T09:09:52Z</time></trkpt><trkpt lat="32.06681985795233" lon="-6.061190722672053"><ele>1294.6666666666665</ele><time>2026-05-04T09:09:53Z</time></trkpt><trkpt lat="32.066811409818406" lon="-6.0612698520185235"><ele>1291.3333333333333</ele><time>2026-05-04T09:09:54Z</time></trkpt><trkpt lat="32.066789818890115" lon="-6.061381956067717"><ele>1288.0</ele><time>2026-05-04T09:09:55Z</time></trkpt><trkpt lat="32.06672732458897" lon="-6.061516102814455"><ele>1287.25</ele><time>2026-05-04T09:09:57Z</time></trkpt><trkpt lat="32.06666944769786" lon="-6.061640699863521"><ele>1286.5</ele><time>2026-05-04T09:09:59Z</time></trkpt><trkpt lat="32.0665859821698" lon="-6.0617512423928295"><ele>1285.75</ele><time>2026-05-04T09:10:01Z</time></trkpt><trkpt lat="32.066511351856775" lon="-6.061839381196215"><ele>1285.0</ele><time>2026-05-04T09:10:03Z</time></trkpt><trkpt lat="32.06642155684762" lon="-6.061926505315187"><ele>1285.0000000000002</ele><time>2026-05-04T09:10:05Z</time></trkpt><trkpt lat="32.06638763187827" lon="-6.061991358133447"><ele>1285.0</ele><time>2026-05-04T09:10:06Z</time></trkpt><trkpt lat="32.06634108687387" lon="-6.062051798245751"><ele>1285.0</ele><time>2026-05-04T09:10:07Z</time></trkpt><trkpt lat="32.06629500319267" lon="-6.062111644876351"><ele>1285.0</ele><time>2026-05-04T09:10:08Z</time></trkpt><trkpt lat="32.06624720254933" lon="-6.06217379052668"><ele>1285.0</ele><time>2026-05-04T09:10:09Z</time></trkpt><trkpt lat="32.066153165065415" lon="-6.062209426744336"><ele>1285.0000000000002</ele><time>2026-05-04T09:10:10Z</time></trkpt><trkpt lat="32.066078649696266" lon="-6.062206140388353"><ele>1285.0</ele><time>2026-05-04T09:10:11Z</time></trkpt><trkpt lat="32.06602714860091" lon="-6.062257860886882"><ele>1285.0000000000002</ele><time>2026-05-04T09:10:12Z</time></trkpt><trkpt lat="32.0659667179654" lon="-6.062295960220944"><ele>1285.0</ele><time>2026-05-04T09:10:13Z</time></trkpt><trkpt lat="32.06590141304743" lon="-6.062336680998919"><ele>1285.0</ele><time>2026-05-04T09:10:14Z</time></trkpt><trkpt lat="32.06582405581981" lon="-6.062362805778587"><ele>1285.0</ele><time>2026-05-04T09:10:15Z</time></trkpt><trkpt lat="32.06574558783298" lon="-6.062375416486881"><ele>1285.0</ele><time>2026-05-04T09:10:16Z</time></trkpt><trkpt lat="32.06568503145415" lon="-6.0624187272137755"><ele>1285.0000000000002</ele><time>2026-05-04T09:10:17Z</time></trkpt><trkpt lat="32.065614048718686" lon="-6.062429906228592"><ele>1285.0</ele><time>2026-05-04T09:10:18Z</time></trkpt><trkpt lat="32.065543054409964" lon="-6.062445358373477"><ele>1286.7142857142858</ele><time>2026-05-04T09:10:19Z</time></trkpt><trkpt lat="32.065468536470426" lon="-6.062465089700608"><ele>1288.4285714285716</ele><time>2026-05-04T09:10:20Z</time></trkpt><trkpt lat="32.06539248021687" lon="-6.062471645505379"><ele>1290.1428571428573</ele><time>2026-05-04T09:10:21Z</time></trkpt><trkpt lat="32.06532620305928" lon="-6.0624773583874605"><ele>1291.857142857143</ele><time>2026-05-04T09:10:22Z</time></trkpt><trkpt lat="32.06525790415766" lon="-6.062483214638355"><ele>1293.5714285714284</ele><time>2026-05-04T09:10:23Z</time></trkpt><trkpt lat="32.06518471090236" lon="-6.062489330341243"><ele>1295.2857142857144</ele><time>2026-05-04T09:10:24Z</time></trkpt><trkpt lat="32.06512090634889" lon="-6.062494523753073"><ele>1297.0</ele><time>2026-05-04T09:10:25Z</time></trkpt><trkpt lat="32.06505161523373" lon="-6.062500049257039"><ele>1297.0</ele><time>2026-05-04T09:10:26Z</time></trkpt><trkpt lat="32.06497837809029" lon="-6.06250588943104"><ele>1297.0</ele><time>2026-05-04T09:10:27Z</time></trkpt><trkpt lat="32.06490735936116" lon="-6.062511550301461"><ele>1297.0</ele><time>2026-05-04T09:10:27.999Z</time></trkpt><trkpt lat="32.0648420012228" lon="-6.062517020113916"><ele>1297.0</ele><time>2026-05-04T09:10:28.999Z</time></trkpt><trkpt lat="32.06477084669122" lon="-6.0625241422249765"><ele>1297.0</ele><time>2026-05-04T09:10:29.999Z</time></trkpt><trkpt lat="32.064698274503556" lon="-6.062530605335703"><ele>1297.0</ele><time>2026-05-04T09:10:30.999Z</time></trkpt><trkpt lat="32.06463449609504" lon="-6.062535444712481"><ele>1297.0</ele><time>2026-05-04T09:10:31.999Z</time></trkpt><trkpt lat="32.064559526842714" lon="-6.062543481410072"><ele>1296.4285714285716</ele><time>2026-05-04T09:10:32.999Z</time></trkpt><trkpt lat="32.06449513274496" lon="-6.062574420202305"><ele>1295.8571428571427</ele><time>2026-05-04T09:10:33.999Z</time></trkpt><trkpt lat="32.064420728962524" lon="-6.062606440131171"><ele>1295.2857142857142</ele><time>2026-05-04T09:10:34.999Z</time></trkpt><trkpt lat="32.06434799979071" lon="-6.062638042688583"><ele>1294.7142857142858</ele><time>2026-05-04T09:10:35.999Z</time></trkpt><trkpt lat="32.06427360680393" lon="-6.062669263815232"><ele>1294.1428571428573</ele><time>2026-05-04T09:10:36.999Z</time></trkpt><trkpt lat="32.064204023262086" lon="-6.062693274363871"><ele>1293.5714285714284</ele><time>2026-05-04T09:10:37.999Z</time></trkpt><trkpt lat="32.064139742174845" lon="-6.06271468456247"><ele>1293.0</ele><time>2026-05-04T09:10:38.999Z</time></trkpt><trkpt lat="32.064075510416416" lon="-6.0627257284100144"><ele>1291.3333333333333</ele><time>2026-05-04T09:10:39.999Z</time></trkpt><trkpt lat="32.06400775487169" lon="-6.062744430462503"><ele>1289.6666666666667</ele><time>2026-05-04T09:10:40.999Z</time></trkpt><trkpt lat="32.06394250972791" lon="-6.062777515527544"><ele>1288.0</ele><time>2026-05-04T09:10:41.999Z</time></trkpt><trkpt lat="32.06387981518352" lon="-6.062811790701916"><ele>1286.3333333333335</ele><time>2026-05-04T09:10:42.999Z</time></trkpt><trkpt lat="32.063763494919286" lon="-6.062869808751889"><ele>1284.6666666666667</ele><time>2026-05-04T09:10:44.999Z</time></trkpt><trkpt lat="32.06370652552763" lon="-6.062910908183303"><ele>1283.0</ele><time>2026-05-04T09:10:45.999Z</time></trkpt><trkpt lat="32.06364291184044" lon="-6.062941863893018"><ele>1283.0</ele><time>2026-05-04T09:10:46.999Z</time></trkpt><trkpt lat="32.06360540824248" lon="-6.063023554103488"><ele>1283.0</ele><time>2026-05-04T09:10:47.999Z</time></trkpt><trkpt lat="32.06354512814581" lon="-6.063061234030688"><ele>1283.0</ele><time>2026-05-04T09:10:48.999Z</time></trkpt><trkpt lat="32.06348616908506" lon="-6.0630980882682355"><ele>1283.0</ele><time>2026-05-04T09:10:49.999Z</time></trkpt><trkpt lat="32.06342242489827" lon="-6.063137933620021"><ele>1283.0</ele><time>2026-05-04T09:10:50.999Z</time></trkpt><trkpt lat="32.0633524402639" lon="-6.063176046084514"><ele>1283.0</ele><time>2026-05-04T09:10:51.999Z</time></trkpt><trkpt lat="32.063292690313126" lon="-6.063203446356416"><ele>1283.0</ele><time>2026-05-04T09:10:52.999Z</time></trkpt><trkpt lat="32.06322590523668" lon="-6.063234550824522"><ele>1282.6000000000001</ele><time>2026-05-04T09:10:53.999Z</time></trkpt><trkpt lat="32.06311674635933" lon="-6.063301620161165"><ele>1282.2</ele><time>2026-05-04T09:10:55.999Z</time></trkpt><trkpt lat="32.063057520253054" lon="-6.063337747209733"><ele>1281.8</ele><time>2026-05-04T09:10:56.999Z</time></trkpt><trkpt lat="32.06295167109269" lon="-6.063423134044698"><ele>1281.4</ele><time>2026-05-04T09:10:58.999Z</time></trkpt><trkpt lat="32.062892281272816" lon="-6.0634751241219185"><ele>1281.0</ele><time>2026-05-04T09:10:59.999Z</time></trkpt><trkpt lat="32.06278821673273" lon="-6.06357876974985"><ele>1281.0</ele><time>2026-05-04T09:11:01.999Z</time></trkpt><trkpt lat="32.06273666075098" lon="-6.0636483075494745"><ele>1281.0</ele><time>2026-05-04T09:11:02.999Z</time></trkpt><trkpt lat="32.06268517624596" lon="-6.063717809871146"><ele>1281.0</ele><time>2026-05-04T09:11:03.999Z</time></trkpt><trkpt lat="32.06263070061319" lon="-6.063784697850714"><ele>1281.0</ele><time>2026-05-04T09:11:04.999Z</time></trkpt><trkpt lat="32.06259649069142" lon="-6.063870478683642"><ele>1281.0</ele><time>2026-05-04T09:11:05.999Z</time></trkpt><trkpt lat="32.06256313524692" lon="-6.063953821803108"><ele>1281.0</ele><time>2026-05-04T09:11:06.999Z</time></trkpt><trkpt lat="32.06253378194813" lon="-6.064035955734856"><ele>1282.8333333333333</ele><time>2026-05-04T09:11:07.999Z</time></trkpt><trkpt lat="32.06249738366016" lon="-6.064119897869268"><ele>1284.6666666666667</ele><time>2026-05-04T09:11:08.999Z</time></trkpt><trkpt lat="32.06245637491997" lon="-6.064210516341697"><ele>1286.5</ele><time>2026-05-04T09:11:09.999Z</time></trkpt><trkpt lat="32.062417093545136" lon="-6.064301766538629"><ele>1288.3333333333335</ele><time>2026-05-04T09:11:10.999Z</time></trkpt><trkpt lat="32.06237162283092" lon="-6.064401804783825"><ele>1290.1666666666667</ele><time>2026-05-04T09:11:11.999Z</time></trkpt><trkpt lat="32.06233860229742" lon="-6.064503016589368"><ele>1292.0</ele><time>2026-05-04T09:11:12.999Z</time></trkpt><trkpt lat="32.06230304522615" lon="-6.064605520054851"><ele>1292.0</ele><time>2026-05-04T09:11:13.999Z</time></trkpt><trkpt lat="32.06227087991236" lon="-6.064698044210735"><ele>1292.0</ele><time>2026-05-04T09:11:14.999Z</time></trkpt><trkpt lat="32.06225103578407" lon="-6.0647870364769725"><ele>1292.0</ele><time>2026-05-04T09:11:15.999Z</time></trkpt><trkpt lat="32.0622132634714" lon="-6.064855089503699"><ele>1292.0</ele><time>2026-05-04T09:11:16.999Z</time></trkpt><trkpt lat="32.06220653344703" lon="-6.064932800040019"><ele>1292.0</ele><time>2026-05-04T09:11:17.999Z</time></trkpt><trkpt lat="32.06219123260837" lon="-6.06500945637344"><ele>1292.0</ele><time>2026-05-04T09:11:18.999Z</time></trkpt><trkpt lat="32.06216162595359" lon="-6.065162271728987"><ele>1289.8</ele><time>2026-05-04T09:11:20.999Z</time></trkpt><trkpt lat="32.06213272761097" lon="-6.0652436842377835"><ele>1287.6</ele><time>2026-05-04T09:11:21.999Z</time></trkpt><trkpt lat="32.06209680499443" lon="-6.065399373407997"><ele>1285.3999999999999</ele><time>2026-05-04T09:11:23.999Z</time></trkpt><trkpt lat="32.062056155791566" lon="-6.06547881193111"><ele>1283.1999999999998</ele><time>2026-05-04T09:11:24.999Z</time></trkpt><trkpt lat="32.062028107773685" lon="-6.065574532444669"><ele>1281.0</ele><time>2026-05-04T09:11:26Z</time></trkpt><trkpt lat="32.0620220320613" lon="-6.065668880499558"><ele>1281.0</ele><time>2026-05-04T09:11:27Z</time></trkpt><trkpt lat="32.06200267566352" lon="-6.065753120714198"><ele>1281.0</ele><time>2026-05-04T09:11:28Z</time></trkpt><trkpt lat="32.06200154532965" lon="-6.0658393354249585"><ele>1281.0</ele><time>2026-05-04T09:11:29Z</time></trkpt><trkpt lat="32.06198421355098" lon="-6.065935447993637"><ele>1281.0</ele><time>2026-05-04T09:11:30Z</time></trkpt><trkpt lat="32.061967977230836" lon="-6.0660236475772775"><ele>1281.0</ele><time>2026-05-04T09:11:31Z</time></trkpt><trkpt lat="32.06194803149865" lon="-6.066116450926152"><ele>1281.0</ele><time>2026-05-04T09:11:32Z</time></trkpt><trkpt lat="32.061929909594504" lon="-6.066199992693695"><ele>1282.1666666666667</ele><time>2026-05-04T09:11:33Z</time></trkpt><trkpt lat="32.06191097442748" lon="-6.066287283572659"><ele>1283.3333333333333</ele><time>2026-05-04T09:11:34Z</time></trkpt><trkpt lat="32.06189179530926" lon="-6.066375699096769"><ele>1284.5</ele><time>2026-05-04T09:11:35Z</time></trkpt><trkpt lat="32.061872894076934" lon="-6.0664625164761015"><ele>1285.6666666666665</ele><time>2026-05-04T09:11:36Z</time></trkpt><trkpt lat="32.06185269457137" lon="-6.066551291972772"><ele>1286.8333333333333</ele><time>2026-05-04T09:11:37Z</time></trkpt><trkpt lat="32.06183237702901" lon="-6.066639111395431"><ele>1288.0</ele><time>2026-05-04T09:11:38Z</time></trkpt><trkpt lat="32.061804661881666" lon="-6.0667415459168765"><ele>1288.0</ele><time>2026-05-04T09:11:39Z</time></trkpt><trkpt lat="32.06177700959598" lon="-6.066835077080273"><ele>1288.0</ele><time>2026-05-04T09:11:40Z</time></trkpt><trkpt lat="32.06175232342887" lon="-6.066918418794333"><ele>1288.0</ele><time>2026-05-04T09:11:41Z</time></trkpt><trkpt lat="32.06172858500226" lon="-6.066998391576608"><ele>1288.0</ele><time>2026-05-04T09:11:42Z</time></trkpt><trkpt lat="32.06170118017172" lon="-6.067122808107335"><ele>1288.0</ele><time>2026-05-04T09:11:44Z</time></trkpt><trkpt lat="32.06170118017144" lon="-6.067211396107861"><ele>1288.0</ele><time>2026-05-04T09:11:45Z</time></trkpt><trkpt lat="32.06170118017221" lon="-6.067302753864914"><ele>1288.0</ele><time>2026-05-04T09:11:46Z</time></trkpt><trkpt lat="32.06171901576327" lon="-6.0673783662727985"><ele>1288.0</ele><time>2026-05-04T09:11:47Z</time></trkpt><trkpt lat="32.06176755433662" lon="-6.067474865991363"><ele>1288.0</ele><time>2026-05-04T09:11:48Z</time></trkpt><trkpt lat="32.06180656003522" lon="-6.067582115389475"><ele>1288.0</ele><time>2026-05-04T09:11:49Z</time></trkpt><trkpt lat="32.06183262416721" lon="-6.0676873284149755"><ele>1288.0</ele><time>2026-05-04T09:11:50Z</time></trkpt><trkpt lat="32.06186028206541" lon="-6.067783604804521"><ele>1288.0</ele><time>2026-05-04T09:11:51Z</time></trkpt><trkpt lat="32.06189783166527" lon="-6.067875700107719"><ele>1286.5</ele><time>2026-05-04T09:11:52Z</time></trkpt><trkpt lat="32.06191335068493" lon="-6.067958905866448"><ele>1285.0</ele><time>2026-05-04T09:11:53Z</time></trkpt><trkpt lat="32.061915824375255" lon="-6.068038765126174"><ele>1283.5</ele><time>2026-05-04T09:11:54Z</time></trkpt><trkpt lat="32.06190776983459" lon="-6.068199160751576"><ele>1282.0</ele><time>2026-05-04T09:11:56Z</time></trkpt><trkpt lat="32.061895967202496" lon="-6.068290334150192"><ele>1280.5</ele><time>2026-05-04T09:11:57Z</time></trkpt><trkpt lat="32.06188806454799" lon="-6.068382632755089"><ele>1279.0</ele><time>2026-05-04T09:11:58Z</time></trkpt><trkpt lat="32.06185456731497" lon="-6.068485624605816"><ele>1278.1666666666665</ele><time>2026-05-04T09:11:59Z</time></trkpt><trkpt lat="32.06182187566835" lon="-6.068559177166116"><ele>1277.3333333333333</ele><time>2026-05-04T09:12:00Z</time></trkpt><trkpt lat="32.06178704840806" lon="-6.068631416464176"><ele>1276.5</ele><time>2026-05-04T09:12:01Z</time></trkpt><trkpt lat="32.061744753188925" lon="-6.0687099334637145"><ele>1275.6666666666667</ele><time>2026-05-04T09:12:02Z</time></trkpt><trkpt lat="32.06170250884707" lon="-6.068788896566985"><ele>1274.8333333333335</ele><time>2026-05-04T09:12:03Z</time></trkpt><trkpt lat="32.061658987290926" lon="-6.068873411777157"><ele>1274.0</ele><time>2026-05-04T09:12:04Z</time></trkpt><trkpt lat="32.06161466621959" lon="-6.068960575062974"><ele>1275.0</ele><time>2026-05-04T09:12:05Z</time></trkpt><trkpt lat="32.061569846676214" lon="-6.069050379107737"><ele>1276.0</ele><time>2026-05-04T09:12:06Z</time></trkpt><trkpt lat="32.06151538896563" lon="-6.0691561522507875"><ele>1277.0</ele><time>2026-05-04T09:12:07Z</time></trkpt><trkpt lat="32.061449072434975" lon="-6.069251806097777"><ele>1278.0</ele><time>2026-05-04T09:12:08Z</time></trkpt><trkpt lat="32.06136857638676" lon="-6.069344587259907"><ele>1279.0</ele><time>2026-05-04T09:12:09Z</time></trkpt><trkpt lat="32.06131354905576" lon="-6.069428631096105"><ele>1279.0</ele><time>2026-05-04T09:12:10Z</time></trkpt><trkpt lat="32.06129314367491" lon="-6.06954504665399"><ele>1279.0</ele><time>2026-05-04T09:12:11Z</time></trkpt><trkpt lat="32.06124945921425" lon="-6.069658517994769"><ele>1279.0</ele><time>2026-05-04T09:12:12Z</time></trkpt><trkpt lat="32.061210495074306" lon="-6.069771195537841"><ele>1279.0</ele><time>2026-05-04T09:12:13Z</time></trkpt><trkpt lat="32.06120370635014" lon="-6.0698815276361175"><ele>1279.0</ele><time>2026-05-04T09:12:14Z</time></trkpt><trkpt lat="32.061181818700874" lon="-6.069983538341138"><ele>1278.8</ele><time>2026-05-04T09:12:15Z</time></trkpt><trkpt lat="32.06115355474782" lon="-6.070091444405491"><ele>1278.6000000000001</ele><time>2026-05-04T09:12:16Z</time></trkpt><trkpt lat="32.061138782450286" lon="-6.070206032801762"><ele>1278.4</ele><time>2026-05-04T09:12:17Z</time></trkpt><trkpt lat="32.06113076623191" lon="-6.07033791480379"><ele>1278.2</ele><time>2026-05-04T09:12:18Z</time></trkpt><trkpt lat="32.061128707262554" lon="-6.070454811584728"><ele>1278.0</ele><time>2026-05-04T09:12:19Z</time></trkpt><trkpt lat="32.06112800909621" lon="-6.070559949035169"><ele>1278.0</ele><time>2026-05-04T09:12:20Z</time></trkpt><trkpt lat="32.061127263936314" lon="-6.070672163691273"><ele>1278.0</ele><time>2026-05-04T09:12:21Z</time></trkpt><trkpt lat="32.06112718018372" lon="-6.070796488548145"><ele>1278.0</ele><time>2026-05-04T09:12:22Z</time></trkpt><trkpt lat="32.06113455461388" lon="-6.070913336447461"><ele>1278.0</ele><time>2026-05-04T09:12:23Z</time></trkpt><trkpt lat="32.0611413081082" lon="-6.071020266832253"><ele>1278.0</ele><time>2026-05-04T09:12:24Z</time></trkpt><trkpt lat="32.06114842015693" lon="-6.071132874265964"><ele>1276.8</ele><time>2026-05-04T09:12:24.999Z</time></trkpt><trkpt lat="32.06114998051203" lon="-6.0712590166653815"><ele>1275.6</ele><time>2026-05-04T09:12:25.999Z</time></trkpt><trkpt lat="32.061156862016674" lon="-6.0713893055054164"><ele>1274.4</ele><time>2026-05-04T09:12:26.999Z</time></trkpt><trkpt lat="32.06116528498316" lon="-6.071519000124495"><ele>1273.2</ele><time>2026-05-04T09:12:27.999Z</time></trkpt><trkpt lat="32.06117744447624" lon="-6.071644498418077"><ele>1272.0</ele><time>2026-05-04T09:12:28.999Z</time></trkpt><trkpt lat="32.061185817154346" lon="-6.071768105912971"><ele>1272.0</ele><time>2026-05-04T09:12:29.999Z</time></trkpt><trkpt lat="32.06118864664747" lon="-6.071884714353534"><ele>1272.0</ele><time>2026-05-04T09:12:30.999Z</time></trkpt><trkpt lat="32.06119729408647" lon="-6.071993212715714"><ele>1272.0</ele><time>2026-05-04T09:12:31.999Z</time></trkpt><trkpt lat="32.061198396596716" lon="-6.072098660208091"><ele>1272.0</ele><time>2026-05-04T09:12:32.999Z</time></trkpt><trkpt lat="32.06120485006061" lon="-6.072197023246188"><ele>1272.0</ele><time>2026-05-04T09:12:33.999Z</time></trkpt><trkpt lat="32.06121149253668" lon="-6.0722958804500236"><ele>1272.0</ele><time>2026-05-04T09:12:34.999Z</time></trkpt><trkpt lat="32.06121944115713" lon="-6.072387314186161"><ele>1271.8333333333333</ele><time>2026-05-04T09:12:35.999Z</time></trkpt><trkpt lat="32.061240640172215" lon="-6.072487369396705"><ele>1271.6666666666667</ele><time>2026-05-04T09:12:36.999Z</time></trkpt><trkpt lat="32.06121709722178" lon="-6.072575080734612"><ele>1271.5</ele><time>2026-05-04T09:12:37.999Z</time></trkpt><trkpt lat="32.06122827079958" lon="-6.07267096222823"><ele>1271.3333333333335</ele><time>2026-05-04T09:12:38.999Z</time></trkpt><trkpt lat="32.06120456147198" lon="-6.072760265413955"><ele>1271.1666666666667</ele><time>2026-05-04T09:12:39.999Z</time></trkpt><trkpt lat="32.06120848465251" lon="-6.072839219547126"><ele>1271.0</ele><time>2026-05-04T09:12:40.999Z</time></trkpt><trkpt lat="32.06118153069315" lon="-6.0729304726706035"><ele>1271.0</ele><time>2026-05-04T09:12:41.999Z</time></trkpt><trkpt lat="32.06118424393556" lon="-6.073039383088672"><ele>1271.0</ele><time>2026-05-04T09:12:42.999Z</time></trkpt><trkpt lat="32.061164340061985" lon="-6.073204874218148"><ele>1271.0</ele><time>2026-05-04T09:12:44.999Z</time></trkpt><trkpt lat="32.061153286626656" lon="-6.073296679040179"><ele>1271.0</ele><time>2026-05-04T09:12:45.999Z</time></trkpt><trkpt lat="32.06107199202797" lon="-6.073405465469676"><ele>1271.0</ele><time>2026-05-04T09:12:46.999Z</time></trkpt><trkpt lat="32.06102136652815" lon="-6.073488796901326"><ele>1271.2</ele><time>2026-05-04T09:12:47.999Z</time></trkpt><trkpt lat="32.0609646197149" lon="-6.073579822023171"><ele>1271.3999999999999</ele><time>2026-05-04T09:12:48.999Z</time></trkpt><trkpt lat="32.06090636994947" lon="-6.073666639677233"><ele>1271.6</ele><time>2026-05-04T09:12:49.999Z</time></trkpt><trkpt lat="32.06084890252365" lon="-6.073749938149612"><ele>1271.8</ele><time>2026-05-04T09:12:50.999Z</time></trkpt><trkpt lat="32.06078184232949" lon="-6.0738201766766196"><ele>1272.0</ele><time>2026-05-04T09:12:51.999Z</time></trkpt><trkpt lat="32.06072654190277" lon="-6.073899921315062"><ele>1272.0</ele><time>2026-05-04T09:12:52.999Z</time></trkpt><trkpt lat="32.06068733616451" lon="-6.07398622049291"><ele>1272.0</ele><time>2026-05-04T09:12:53.999Z</time></trkpt><trkpt lat="32.0606448828748" lon="-6.074047839581205"><ele>1272.0</ele><time>2026-05-04T09:12:54.999Z</time></trkpt><trkpt lat="32.060597181060096" lon="-6.074116299997786"><ele>1272.0</ele><time>2026-05-04T09:12:55.999Z</time></trkpt><trkpt lat="32.06055189639284" lon="-6.074181284855449"><ele>1272.0</ele><time>2026-05-04T09:12:56.999Z</time></trkpt><trkpt lat="32.06054103467834" lon="-6.074306469162894"><ele>1272.0</ele><time>2026-05-04T09:12:58.999Z</time></trkpt><trkpt lat="32.06048569455549" lon="-6.074447113572906"><ele>1271.4</ele><time>2026-05-04T09:13:00.999Z</time></trkpt><trkpt lat="32.06039422741604" lon="-6.07454003677035"><ele>1270.8000000000002</ele><time>2026-05-04T09:13:01.999Z</time></trkpt><trkpt lat="32.060343194838445" lon="-6.074596441210435"><ele>1270.2</ele><time>2026-05-04T09:13:02.999Z</time></trkpt><trkpt lat="32.06025361216692" lon="-6.07469680136653"><ele>1269.6000000000001</ele><time>2026-05-04T09:13:04.999Z</time></trkpt><trkpt lat="32.06020737674543" lon="-6.0747477902979865"><ele>1269.0</ele><time>2026-05-04T09:13:05.999Z</time></trkpt><trkpt lat="32.060157700194544" lon="-6.074811782125805"><ele>1269.0</ele><time>2026-05-04T09:13:06.999Z</time></trkpt><trkpt lat="32.060104864989455" lon="-6.074879529298676"><ele>1269.0</ele><time>2026-05-04T09:13:07.999Z</time></trkpt><trkpt lat="32.060053272856194" lon="-6.074947977455432"><ele>1269.0</ele><time>2026-05-04T09:13:08.999Z</time></trkpt><trkpt lat="32.05999596305217" lon="-6.075022808806284"><ele>1269.0</ele><time>2026-05-04T09:13:09.999Z</time></trkpt><trkpt lat="32.05993391826939" lon="-6.075090563671066"><ele>1269.0</ele><time>2026-05-04T09:13:10.999Z</time></trkpt><trkpt lat="32.059880686641236" lon="-6.075156732547156"><ele>1269.0</ele><time>2026-05-04T09:13:11.999Z</time></trkpt><trkpt lat="32.059842352071655" lon="-6.075235075784711"><ele>1268.4285714285716</ele><time>2026-05-04T09:13:12.999Z</time></trkpt><trkpt lat="32.05979663007584" lon="-6.075311230001357"><ele>1267.8571428571427</ele><time>2026-05-04T09:13:13.999Z</time></trkpt><trkpt lat="32.05974946980861" lon="-6.07538883535387"><ele>1267.2857142857142</ele><time>2026-05-04T09:13:14.999Z</time></trkpt><trkpt lat="32.05971403726819" lon="-6.075470925895368"><ele>1266.7142857142858</ele><time>2026-05-04T09:13:15.999Z</time></trkpt><trkpt lat="32.05966405006374" lon="-6.075527317063165"><ele>1266.1428571428573</ele><time>2026-05-04T09:13:16.999Z</time></trkpt><trkpt lat="32.059642296797115" lon="-6.0756025830202995"><ele>1265.5714285714284</ele><time>2026-05-04T09:13:17.999Z</time></trkpt><trkpt lat="32.059593086410295" lon="-6.075664643656214"><ele>1265.0</ele><time>2026-05-04T09:13:18.999Z</time></trkpt><trkpt lat="32.059557526506104" lon="-6.075742929206727"><ele>1267.5</ele><time>2026-05-04T09:13:19.999Z</time></trkpt><trkpt lat="32.05952228585562" lon="-6.075813388014401"><ele>1270.0</ele><time>2026-05-04T09:13:20.999Z</time></trkpt><trkpt lat="32.05948596798961" lon="-6.075888679288831"><ele>1272.5</ele><time>2026-05-04T09:13:21.999Z</time></trkpt><trkpt lat="32.05944395633893" lon="-6.075965860059645"><ele>1275.0</ele><time>2026-05-04T09:13:22.999Z</time></trkpt><trkpt lat="32.05941309164116" lon="-6.076048226482667"><ele>1277.5</ele><time>2026-05-04T09:13:23.999Z</time></trkpt><trkpt lat="32.05935982236819" lon="-6.0761199289292875"><ele>1280.0</ele><time>2026-05-04T09:13:24.999Z</time></trkpt><trkpt lat="32.0593162614507" lon="-6.076201371739032"><ele>1280.0</ele><time>2026-05-04T09:13:25.999Z</time></trkpt><trkpt lat="32.05926057264987" lon="-6.076270764907501"><ele>1280.0</ele><time>2026-05-04T09:13:26.999Z</time></trkpt><trkpt lat="32.05922890535923" lon="-6.076362677212706"><ele>1280.0</ele><time>2026-05-04T09:13:27.999Z</time></trkpt><trkpt lat="32.05918442245446" lon="-6.076444014025374"><ele>1280.0</ele><time>2026-05-04T09:13:28.999Z</time></trkpt><trkpt lat="32.05912474179828" lon="-6.0765176450294645"><ele>1280.0</ele><time>2026-05-04T09:13:29.999Z</time></trkpt><trkpt lat="32.059085353611735" lon="-6.076608397373235"><ele>1280.0</ele><time>2026-05-04T09:13:30.999Z</time></trkpt><trkpt lat="32.05903308500876" lon="-6.076690831688883"><ele>1277.8333333333335</ele><time>2026-05-04T09:13:32Z</time></trkpt><trkpt lat="32.0589817309277" lon="-6.076772253751063"><ele>1275.6666666666667</ele><time>2026-05-04T09:13:33Z</time></trkpt><trkpt lat="32.05893289508601" lon="-6.076849683137724"><ele>1273.5</ele><time>2026-05-04T09:13:34Z</time></trkpt><trkpt lat="32.058887002993245" lon="-6.076922259280185"><ele>1271.3333333333333</ele><time>2026-05-04T09:13:35Z</time></trkpt><trkpt lat="32.05884914987064" lon="-6.076981928634907"><ele>1269.1666666666665</ele><time>2026-05-04T09:13:36Z</time></trkpt><trkpt lat="32.05877354665432" lon="-6.077071754718612"><ele>1267.0</ele><time>2026-05-04T09:13:38Z</time></trkpt><trkpt lat="32.058769295606375" lon="-6.0771907194732355"><ele>1267.0</ele><time>2026-05-04T09:13:40Z</time></trkpt><trkpt lat="32.058765758588855" lon="-6.077265859988144"><ele>1267.0</ele><time>2026-05-04T09:13:41Z</time></trkpt><trkpt lat="32.05869128308736" lon="-6.077384896019452"><ele>1267.0</ele><time>2026-05-04T09:13:43Z</time></trkpt><trkpt lat="32.058655672998235" lon="-6.077456913931859"><ele>1267.0</ele><time>2026-05-04T09:13:44Z</time></trkpt><trkpt lat="32.05860840688715" lon="-6.07751175066211"><ele>1267.0</ele><time>2026-05-04T09:13:45Z</time></trkpt><trkpt lat="32.058578118987874" lon="-6.077589605735365"><ele>1267.0</ele><time>2026-05-04T09:13:46Z</time></trkpt><trkpt lat="32.05854513432166" lon="-6.0776570029524235"><ele>1268.4</ele><time>2026-05-04T09:13:47Z</time></trkpt><trkpt lat="32.05848480126883" lon="-6.077755130923963"><ele>1269.8000000000002</ele><time>2026-05-04T09:13:49Z</time></trkpt><trkpt lat="32.05853637998285" lon="-6.077827889982065"><ele>1271.2</ele><time>2026-05-04T09:13:52Z</time></trkpt><trkpt lat="32.0586383621877" lon="-6.077842773011108"><ele>1272.6000000000001</ele><time>2026-05-04T09:13:55Z</time></trkpt><trkpt lat="32.058782286202444" lon="-6.0778360540984435"><ele>1274.0</ele><time>2026-05-04T09:13:57Z</time></trkpt><trkpt lat="32.05885407991544" lon="-6.0778313769826"><ele>1274.0</ele><time>2026-05-04T09:13:58Z</time></trkpt><trkpt lat="32.058917212560935" lon="-6.077845485113667"><ele>1274.0</ele><time>2026-05-04T09:13:59Z</time></trkpt><trkpt lat="32.05902855822077" lon="-6.0778234674363905"><ele>1274.0</ele><time>2026-05-04T09:14:01Z</time></trkpt><trkpt lat="32.05912488536188" lon="-6.077807295309368"><ele>1274.0</ele><time>2026-05-04T09:14:03Z</time></trkpt><trkpt lat="32.05920258297733" lon="-6.077889248842133"><ele>1274.0</ele><time>2026-05-04T09:14:05Z</time></trkpt><trkpt lat="32.059253903711934" lon="-6.07793547801002"><ele>1274.0</ele><time>2026-05-04T09:14:06Z</time></trkpt><trkpt lat="32.05931107596259" lon="-6.077978854189656"><ele>1277.6666666666667</ele><time>2026-05-04T09:14:07Z</time></trkpt><trkpt lat="32.059363307663915" lon="-6.078040195299723"><ele>1281.3333333333335</ele><time>2026-05-04T09:14:08Z</time></trkpt><trkpt lat="32.059424066144985" lon="-6.078083670410874"><ele>1285.0</ele><time>2026-05-04T09:14:09Z</time></trkpt><trkpt lat="32.059487312442656" lon="-6.078111894066334"><ele>1288.6666666666667</ele><time>2026-05-04T09:14:10Z</time></trkpt><trkpt lat="32.05959088662319" lon="-6.078082878375332"><ele>1292.3333333333333</ele><time>2026-05-04T09:14:12Z</time></trkpt><trkpt lat="32.05963598098933" lon="-6.078010396343095"><ele>1296.0</ele><time>2026-05-04T09:14:14Z</time></trkpt><trkpt lat="32.05968756592546" lon="-6.07788568345192"><ele>1296.0</ele><time>2026-05-04T09:14:16Z</time></trkpt><trkpt lat="32.05972908098858" lon="-6.077787708000393"><ele>1296.0</ele><time>2026-05-04T09:14:18Z</time></trkpt><trkpt lat="32.05985174048408" lon="-6.077775852836165"><ele>1296.0</ele><time>2026-05-04T09:14:20Z</time></trkpt><trkpt lat="32.05990461275558" lon="-6.077857517286053"><ele>1296.0</ele><time>2026-05-04T09:14:22Z</time></trkpt><trkpt lat="32.059890087472645" lon="-6.077978278876288"><ele>1296.0</ele><time>2026-05-04T09:14:24Z</time></trkpt><trkpt lat="32.05987447090367" lon="-6.078071633249844"><ele>1296.0</ele><time>2026-05-04T09:14:25Z</time></trkpt><trkpt lat="32.05986010869574" lon="-6.078178904612769"><ele>1296.0</ele><time>2026-05-04T09:14:26Z</time></trkpt><trkpt lat="32.059822664924646" lon="-6.078276719329055"><ele>1296.0</ele><time>2026-05-04T09:14:27Z</time></trkpt><trkpt lat="32.059798815510966" lon="-6.078370947906372"><ele>1296.0</ele><time>2026-05-04T09:14:28Z</time></trkpt><trkpt lat="32.05977694317621" lon="-6.0784589552279975"><ele>1296.0</ele><time>2026-05-04T09:14:29Z</time></trkpt><trkpt lat="32.05976199567605" lon="-6.0785422082871445"><ele>1296.0</ele><time>2026-05-04T09:14:30Z</time></trkpt><trkpt lat="32.05974771371489" lon="-6.078625906845084"><ele>1291.8333333333333</ele><time>2026-05-04T09:14:31Z</time></trkpt><trkpt lat="32.05972518282233" lon="-6.078696454397137"><ele>1287.6666666666667</ele><time>2026-05-04T09:14:32Z</time></trkpt><trkpt lat="32.059756321487484" lon="-6.07881491222997"><ele>1283.5</ele><time>2026-05-04T09:14:34Z</time></trkpt><trkpt lat="32.05980561699074" lon="-6.078944806379826"><ele>1279.3333333333335</ele><time>2026-05-04T09:14:35.999Z</time></trkpt><trkpt lat="32.05984236670043" lon="-6.079011031806626"><ele>1275.1666666666667</ele><time>2026-05-04T09:14:36.999Z</time></trkpt><trkpt lat="32.05987727094871" lon="-6.079079509086582"><ele>1271.0</ele><time>2026-05-04T09:14:37.999Z</time></trkpt><trkpt lat="32.059902212064" lon="-6.079151680937137"><ele>1269.1428571428573</ele><time>2026-05-04T09:14:38.999Z</time></trkpt><trkpt lat="32.05992474516371" lon="-6.07922792041993"><ele>1267.2857142857142</ele><time>2026-05-04T09:14:39.999Z</time></trkpt><trkpt lat="32.05994316430894" lon="-6.079303327793924"><ele>1265.4285714285716</ele><time>2026-05-04T09:14:40.999Z</time></trkpt><trkpt lat="32.05995731856378" lon="-6.079380394926333"><ele>1263.5714285714287</ele><time>2026-05-04T09:14:41.999Z</time></trkpt><trkpt lat="32.059957789020274" lon="-6.079471273585849"><ele>1261.7142857142858</ele><time>2026-05-04T09:14:42.999Z</time></trkpt><trkpt lat="32.05995398528927" lon="-6.079553884265563"><ele>1259.857142857143</ele><time>2026-05-04T09:14:43.999Z</time></trkpt><trkpt lat="32.05996428018857" lon="-6.0796364417446895"><ele>1258.0</ele><time>2026-05-04T09:14:44.999Z</time></trkpt><trkpt lat="32.05994870408886" lon="-6.079712644267621"><ele>1258.0</ele><time>2026-05-04T09:14:45.999Z</time></trkpt><trkpt lat="32.05994438113383" lon="-6.079807664536656"><ele>1258.0</ele><time>2026-05-04T09:14:46.999Z</time></trkpt><trkpt lat="32.05994705965079" lon="-6.0799103598060835"><ele>1258.0</ele><time>2026-05-04T09:14:47.999Z</time></trkpt><trkpt lat="32.05994183151415" lon="-6.080003042936207"><ele>1258.0</ele><time>2026-05-04T09:14:48.999Z</time></trkpt><trkpt lat="32.059939522459274" lon="-6.0800989949004105"><ele>1258.0</ele><time>2026-05-04T09:14:49.999Z</time></trkpt><trkpt lat="32.0598867283454" lon="-6.08019251263527"><ele>1258.0</ele><time>2026-05-04T09:14:50.999Z</time></trkpt><trkpt lat="32.0598766355093" lon="-6.0802933577599365"><ele>1257.8</ele><time>2026-05-04T09:14:51.999Z</time></trkpt><trkpt lat="32.05984831104008" lon="-6.080397011907828"><ele>1257.6</ele><time>2026-05-04T09:14:52.999Z</time></trkpt><trkpt lat="32.05982166398124" lon="-6.080494527538015"><ele>1257.4</ele><time>2026-05-04T09:14:53.999Z</time></trkpt><trkpt lat="32.05978019341073" lon="-6.080607787149682"><ele>1257.2</ele><time>2026-05-04T09:14:54.999Z</time></trkpt><trkpt lat="32.059738479338634" lon="-6.080708044291246"><ele>1257.0</ele><time>2026-05-04T09:14:55.999Z</time></trkpt><trkpt lat="32.05969864838458" lon="-6.0808040920275275"><ele>1257.0</ele><time>2026-05-04T09:14:56.999Z</time></trkpt><trkpt lat="32.05965177210317" lon="-6.080894921319335"><ele>1257.0</ele><time>2026-05-04T09:14:57.999Z</time></trkpt><trkpt lat="32.05962594440161" lon="-6.081013003563776"><ele>1257.0</ele><time>2026-05-04T09:14:58.999Z</time></trkpt><trkpt lat="32.059615386780045" lon="-6.08113741663611"><ele>1257.0</ele><time>2026-05-04T09:14:59.999Z</time></trkpt><trkpt lat="32.05957722008664" lon="-6.08125267432883"><ele>1257.0</ele><time>2026-05-04T09:15:00.999Z</time></trkpt><trkpt lat="32.05955630310312" lon="-6.081360004115671"><ele>1257.0</ele><time>2026-05-04T09:15:01.999Z</time></trkpt><trkpt lat="32.05954895836189" lon="-6.0814671228086095"><ele>1257.0</ele><time>2026-05-04T09:15:02.999Z</time></trkpt><trkpt lat="32.05951528431615" lon="-6.081574102557223"><ele>1257.0</ele><time>2026-05-04T09:15:03.999Z</time></trkpt><trkpt lat="32.05949503825248" lon="-6.08168494238601"><ele>1257.0</ele><time>2026-05-04T09:15:04.999Z</time></trkpt><trkpt lat="32.05946951806189" lon="-6.081793457205728"><ele>1257.0</ele><time>2026-05-04T09:15:05.999Z</time></trkpt><trkpt lat="32.05944389544747" lon="-6.0818998387739756"><ele>1258.0</ele><time>2026-05-04T09:15:06.999Z</time></trkpt><trkpt lat="32.05942132234996" lon="-6.081997851872304"><ele>1259.0</ele><time>2026-05-04T09:15:07.999Z</time></trkpt><trkpt lat="32.05938629387029" lon="-6.082084284004505"><ele>1260.0</ele><time>2026-05-04T09:15:08.999Z</time></trkpt><trkpt lat="32.05935014468047" lon="-6.0821834706532165"><ele>1261.0</ele><time>2026-05-04T09:15:09.999Z</time></trkpt><trkpt lat="32.0593106826946" lon="-6.082291656536609"><ele>1262.0</ele><time>2026-05-04T09:15:10.999Z</time></trkpt><trkpt lat="32.05926959190591" lon="-6.082404307819225"><ele>1262.2</ele><time>2026-05-04T09:15:11.999Z</time></trkpt><trkpt lat="32.05922797499554" lon="-6.082521277248355"><ele>1262.4</ele><time>2026-05-04T09:15:12.999Z</time></trkpt><trkpt lat="32.05918913523418" lon="-6.082640358675408"><ele>1262.6</ele><time>2026-05-04T09:15:13.999Z</time></trkpt><trkpt lat="32.05915203844001" lon="-6.082763213728664"><ele>1262.8</ele><time>2026-05-04T09:15:14.999Z</time></trkpt><trkpt lat="32.059119012318696" lon="-6.08287256383046"><ele>1263.0</ele><time>2026-05-04T09:15:15.999Z</time></trkpt><trkpt lat="32.059086177520655" lon="-6.082980816981363"><ele>1263.0</ele><time>2026-05-04T09:15:16.999Z</time></trkpt><trkpt lat="32.059052031800555" lon="-6.083092426455848"><ele>1263.0</ele><time>2026-05-04T09:15:17.999Z</time></trkpt><trkpt lat="32.05902062827608" lon="-6.08319960595384"><ele>1263.0</ele><time>2026-05-04T09:15:18.999Z</time></trkpt><trkpt lat="32.05897518409247" lon="-6.083300622627238"><ele>1263.0</ele><time>2026-05-04T09:15:19.999Z</time></trkpt><trkpt lat="32.058938465636835" lon="-6.083383178457807"><ele>1263.0</ele><time>2026-05-04T09:15:20.999Z</time></trkpt><trkpt lat="32.05890290251825" lon="-6.083464520308673"><ele>1262.6666666666667</ele><time>2026-05-04T09:15:21.999Z</time></trkpt><trkpt lat="32.05887277093505" lon="-6.083533438774426"><ele>1262.3333333333333</ele><time>2026-05-04T09:15:22.999Z</time></trkpt><trkpt lat="32.058787403937245" lon="-6.08365860711565"><ele>1262.0</ele><time>2026-05-04T09:15:24.999Z</time></trkpt><trkpt lat="32.05874846024392" lon="-6.083722462718526"><ele>1261.6666666666665</ele><time>2026-05-04T09:15:25.999Z</time></trkpt><trkpt lat="32.05870286950511" lon="-6.083779085822178"><ele>1261.3333333333333</ele><time>2026-05-04T09:15:26.999Z</time></trkpt><trkpt lat="32.058649817292405" lon="-6.083840373790988"><ele>1261.0</ele><time>2026-05-04T09:15:27.999Z</time></trkpt><trkpt lat="32.0586134032046" lon="-6.083906719551972"><ele>1261.0</ele><time>2026-05-04T09:15:28.999Z</time></trkpt><trkpt lat="32.058562423852" lon="-6.083958749333654"><ele>1261.0</ele><time>2026-05-04T09:15:29.999Z</time></trkpt><trkpt lat="32.05850100978214" lon="-6.08409673702273"><ele>1261.0</ele><time>2026-05-04T09:15:31.999Z</time></trkpt><trkpt lat="32.05848170374835" lon="-6.084183792258147"><ele>1261.0</ele><time>2026-05-04T09:15:32.999Z</time></trkpt><trkpt lat="32.058473398498435" lon="-6.084272373623539"><ele>1261.0</ele><time>2026-05-04T09:15:33.999Z</time></trkpt><trkpt lat="32.05845511117286" lon="-6.084355990621936"><ele>1261.0</ele><time>2026-05-04T09:15:34.999Z</time></trkpt><trkpt lat="32.05843859209315" lon="-6.084452198584214"><ele>1264.0</ele><time>2026-05-04T09:15:35.999Z</time></trkpt><trkpt lat="32.058428109585364" lon="-6.084528265999743"><ele>1267.0</ele><time>2026-05-04T09:15:37Z</time></trkpt><trkpt lat="32.05840454602091" lon="-6.084610744401171"><ele>1270.0</ele><time>2026-05-04T09:15:38Z</time></trkpt><trkpt lat="32.05843993010044" lon="-6.084692742267731"><ele>1273.0</ele><time>2026-05-04T09:15:39Z</time></trkpt><trkpt lat="32.05847283595933" lon="-6.084839953094253"><ele>1276.0</ele><time>2026-05-04T09:15:41Z</time></trkpt><trkpt lat="32.058505572716335" lon="-6.084903767611757"><ele>1279.0</ele><time>2026-05-04T09:15:42Z</time></trkpt><trkpt lat="32.05860752963087" lon="-6.084986809609738"><ele>1279.0</ele><time>2026-05-04T09:15:44Z</time></trkpt><trkpt lat="32.058671983776804" lon="-6.08501277682474"><ele>1279.0</ele><time>2026-05-04T09:15:45Z</time></trkpt><trkpt lat="32.05873180490479" lon="-6.085042619359681"><ele>1279.0</ele><time>2026-05-04T09:15:46Z</time></trkpt><trkpt lat="32.05878728448123" lon="-6.085082519269019"><ele>1279.0</ele><time>2026-05-04T09:15:47Z</time></trkpt><trkpt lat="32.058843071867116" lon="-6.085124182574799"><ele>1279.0</ele><time>2026-05-04T09:15:48Z</time></trkpt><trkpt lat="32.058898517676475" lon="-6.085164666336552"><ele>1279.0</ele><time>2026-05-04T09:15:49Z</time></trkpt><trkpt lat="32.05895558688305" lon="-6.085206878010524"><ele>1279.0</ele><time>2026-05-04T09:15:50Z</time></trkpt><trkpt lat="32.05901114568838" lon="-6.08526132267817"><ele>1279.0</ele><time>2026-05-04T09:15:51Z</time></trkpt><trkpt lat="32.0590676264168" lon="-6.08530186135055"><ele>1279.0</ele><time>2026-05-04T09:15:52Z</time></trkpt><trkpt lat="32.05911229637445" lon="-6.085356834105419"><ele>1279.0</ele><time>2026-05-04T09:15:53Z</time></trkpt><trkpt lat="32.05921440321386" lon="-6.085447005895326"><ele>1279.0</ele><time>2026-05-04T09:15:55Z</time></trkpt><trkpt lat="32.05927343707698" lon="-6.085478077892512"><ele>1279.0</ele><time>2026-05-04T09:15:56Z</time></trkpt><trkpt lat="32.05938416733896" lon="-6.085536359870115"><ele>1279.0</ele><time>2026-05-04T09:15:58Z</time></trkpt><trkpt lat="32.05948890321261" lon="-6.085612595379595"><ele>1276.8</ele><time>2026-05-04T09:16:00Z</time></trkpt><trkpt lat="32.05958391795574" lon="-6.085683608642746"><ele>1274.6000000000001</ele><time>2026-05-04T09:16:02Z</time></trkpt><trkpt lat="32.05967262191621" lon="-6.085754196336919"><ele>1272.4</ele><time>2026-05-04T09:16:04Z</time></trkpt><trkpt lat="32.05975677718965" lon="-6.08582142430828"><ele>1270.2</ele><time>2026-05-04T09:16:06Z</time></trkpt><trkpt lat="32.05984326558853" lon="-6.085854431473385"><ele>1268.0</ele><time>2026-05-04T09:16:08Z</time></trkpt><trkpt lat="32.059938056474294" lon="-6.085875654614115"><ele>1271.5</ele><time>2026-05-04T09:16:10Z</time></trkpt><trkpt lat="32.06003155689965" lon="-6.085915141450394"><ele>1275.0</ele><time>2026-05-04T09:16:12Z</time></trkpt><trkpt lat="32.06010244978193" lon="-6.085958774868859"><ele>1278.5</ele><time>2026-05-04T09:16:14Z</time></trkpt><trkpt lat="32.06015757206453" lon="-6.086032138104504"><ele>1282.0</ele><time>2026-05-04T09:16:17Z</time></trkpt><trkpt lat="32.06021657644254" lon="-6.086113146134503"><ele>1285.5</ele><time>2026-05-04T09:16:20Z</time></trkpt><trkpt lat="32.06028187639036" lon="-6.086178955452544"><ele>1289.0</ele><time>2026-05-04T09:16:22Z</time></trkpt><trkpt lat="32.06034817870025" lon="-6.086248450012413"><ele>1289.0</ele><time>2026-05-04T09:16:24Z</time></trkpt><trkpt lat="32.06040748456539" lon="-6.086331809211718"><ele>1289.0</ele><time>2026-05-04T09:16:26Z</time></trkpt><trkpt lat="32.0604550126089" lon="-6.0864678041033535"><ele>1289.0</ele><time>2026-05-04T09:16:28Z</time></trkpt><trkpt lat="32.06047892619029" lon="-6.086596931856725"><ele>1289.0</ele><time>2026-05-04T09:16:30Z</time></trkpt><trkpt lat="32.06049413715576" lon="-6.086730181514945"><ele>1289.0</ele><time>2026-05-04T09:16:31.999Z</time></trkpt><trkpt lat="32.06049901793926" lon="-6.0868655234124525"><ele>1281.0</ele><time>2026-05-04T09:16:33.999Z</time></trkpt><trkpt lat="32.06050593782842" lon="-6.087002688907669"><ele>1273.0</ele><time>2026-05-04T09:16:35.999Z</time></trkpt><trkpt lat="32.060526436339536" lon="-6.087133599061641"><ele>1265.0</ele><time>2026-05-04T09:16:37.999Z</time></trkpt><trkpt lat="32.06053141750218" lon="-6.087255407891872"><ele>1257.0</ele><time>2026-05-04T09:16:39.999Z</time></trkpt><trkpt lat="32.060534844806966" lon="-6.087395962837428"><ele>1256.5714285714287</ele><time>2026-05-04T09:16:41.999Z</time></trkpt><trkpt lat="32.06053630661398" lon="-6.087470946547487"><ele>1256.142857142857</ele><time>2026-05-04T09:16:42.999Z</time></trkpt><trkpt lat="32.06052754415805" lon="-6.087553721491113"><ele>1255.7142857142858</ele><time>2026-05-04T09:16:43.999Z</time></trkpt><trkpt lat="32.06051454270716" lon="-6.087634006856587"><ele>1255.2857142857142</ele><time>2026-05-04T09:16:44.999Z</time></trkpt><trkpt lat="32.06050148277248" lon="-6.0877176070691394"><ele>1254.857142857143</ele><time>2026-05-04T09:16:45.999Z</time></trkpt><trkpt lat="32.06048264600801" lon="-6.087796274822395"><ele>1254.4285714285716</ele><time>2026-05-04T09:16:46.999Z</time></trkpt><trkpt lat="32.06046590527481" lon="-6.08787160330078"><ele>1254.0</ele><time>2026-05-04T09:16:47.999Z</time></trkpt><trkpt lat="32.06044508318006" lon="-6.087957151147071"><ele>1254.0</ele><time>2026-05-04T09:16:48.999Z</time></trkpt><trkpt lat="32.06040850810475" lon="-6.088037412276361"><ele>1254.0</ele><time>2026-05-04T09:16:49.999Z</time></trkpt><trkpt lat="32.06038420797846" lon="-6.088114558407677"><ele>1254.0</ele><time>2026-05-04T09:16:50.999Z</time></trkpt><trkpt lat="32.0603612953613" lon="-6.088186853631789"><ele>1254.0</ele><time>2026-05-04T09:16:51.999Z</time></trkpt><trkpt lat="32.06035212864106" lon="-6.088261598352167"><ele>1254.0</ele><time>2026-05-04T09:16:52.999Z</time></trkpt><trkpt lat="32.06032083729426" lon="-6.088330014858563"><ele>1254.0</ele><time>2026-05-04T09:16:53.999Z</time></trkpt><trkpt lat="32.060286996119" lon="-6.088393447245057"><ele>1254.0</ele><time>2026-05-04T09:16:54.999Z</time></trkpt><trkpt lat="32.060246940429344" lon="-6.088542818752132"><ele>1254.0</ele><time>2026-05-04T09:16:56.999Z</time></trkpt><trkpt lat="32.06016945106827" lon="-6.088611914171025"><ele>1254.0</ele><time>2026-05-04T09:16:57.999Z</time></trkpt><trkpt lat="32.06014053067694" lon="-6.088695219903415"><ele>1254.0</ele><time>2026-05-04T09:16:58.999Z</time></trkpt><trkpt lat="32.06009641643284" lon="-6.088767675056883"><ele>1254.0</ele><time>2026-05-04T09:16:59.999Z</time></trkpt><trkpt lat="32.060097671581495" lon="-6.08886959596043"><ele>1254.0</ele><time>2026-05-04T09:17:00.999Z</time></trkpt><trkpt lat="32.060092323226876" lon="-6.088967505726266"><ele>1254.0</ele><time>2026-05-04T09:17:01.999Z</time></trkpt><trkpt lat="32.06006516456657" lon="-6.089047204334575"><ele>1253.3333333333333</ele><time>2026-05-04T09:17:02.999Z</time></trkpt><trkpt lat="32.060039142021786" lon="-6.089123569051721"><ele>1252.6666666666667</ele><time>2026-05-04T09:17:03.999Z</time></trkpt><trkpt lat="32.060009195584904" lon="-6.089209448829404"><ele>1252.0</ele><time>2026-05-04T09:17:04.999Z</time></trkpt><trkpt lat="32.0599804958376" lon="-6.089293238614916"><ele>1251.3333333333335</ele><time>2026-05-04T09:17:05.999Z</time></trkpt><trkpt lat="32.0599497686166" lon="-6.089382592626441"><ele>1250.6666666666667</ele><time>2026-05-04T09:17:06.999Z</time></trkpt><trkpt lat="32.059916950313195" lon="-6.089479127865959"><ele>1250.0</ele><time>2026-05-04T09:17:07.999Z</time></trkpt><trkpt lat="32.059884462358305" lon="-6.089573137057021"><ele>1250.0</ele><time>2026-05-04T09:17:08.999Z</time></trkpt><trkpt lat="32.05984600199923" lon="-6.089676705421175"><ele>1250.0</ele><time>2026-05-04T09:17:09.999Z</time></trkpt><trkpt lat="32.059804897260676" lon="-6.089766704625843"><ele>1250.0</ele><time>2026-05-04T09:17:10.999Z</time></trkpt><trkpt lat="32.05976487594353" lon="-6.08985433167129"><ele>1250.0</ele><time>2026-05-04T09:17:11.999Z</time></trkpt><trkpt lat="32.05972660304736" lon="-6.089938606261901"><ele>1250.0</ele><time>2026-05-04T09:17:12.999Z</time></trkpt><trkpt lat="32.059690607475105" lon="-6.090018544046926"><ele>1250.0</ele><time>2026-05-04T09:17:13.999Z</time></trkpt><trkpt lat="32.05965558195019" lon="-6.0900963275829465"><ele>1250.0</ele><time>2026-05-04T09:17:14.999Z</time></trkpt><trkpt lat="32.05961286240316" lon="-6.090183092037975"><ele>1250.0</ele><time>2026-05-04T09:17:15.999Z</time></trkpt><trkpt lat="32.0595757754295" lon="-6.090253763670495"><ele>1250.0</ele><time>2026-05-04T09:17:16.999Z</time></trkpt><trkpt lat="32.05953744827688" lon="-6.090323829014044"><ele>1250.0</ele><time>2026-05-04T09:17:17.999Z</time></trkpt><trkpt lat="32.05949586024918" lon="-6.090400363756073"><ele>1250.0</ele><time>2026-05-04T09:17:18.999Z</time></trkpt><trkpt lat="32.05943772223254" lon="-6.090494177182573"><ele>1250.0</ele><time>2026-05-04T09:17:19.999Z</time></trkpt><trkpt lat="32.059374399779045" lon="-6.090573079969343"><ele>1250.0</ele><time>2026-05-04T09:17:20.999Z</time></trkpt><trkpt lat="32.059308943124826" lon="-6.090654082505838"><ele>1250.0</ele><time>2026-05-04T09:17:21.999Z</time></trkpt><trkpt lat="32.0592398941917" lon="-6.090739893357458"><ele>1250.0</ele><time>2026-05-04T09:17:22.999Z</time></trkpt><trkpt lat="32.05915331852182" lon="-6.090818228762494"><ele>1250.0</ele><time>2026-05-04T09:17:23.999Z</time></trkpt><trkpt lat="32.059085332198464" lon="-6.09087316329328"><ele>1250.0</ele><time>2026-05-04T09:17:24.999Z</time></trkpt><trkpt lat="32.05902313233846" lon="-6.090922966991645"><ele>1250.3333333333335</ele><time>2026-05-04T09:17:25.999Z</time></trkpt><trkpt lat="32.05896107568152" lon="-6.090972809543703"><ele>1250.6666666666667</ele><time>2026-05-04T09:17:26.999Z</time></trkpt><trkpt lat="32.05886952637025" lon="-6.091003430388249"><ele>1251.0</ele><time>2026-05-04T09:17:27.999Z</time></trkpt><trkpt lat="32.05879911046258" lon="-6.091032417065141"><ele>1251.3333333333333</ele><time>2026-05-04T09:17:28.999Z</time></trkpt><trkpt lat="32.058731875676926" lon="-6.091060118164089"><ele>1251.6666666666665</ele><time>2026-05-04T09:17:29.999Z</time></trkpt><trkpt lat="32.058625709450894" lon="-6.091063387166984"><ele>1252.0</ele><time>2026-05-04T09:17:30.999Z</time></trkpt><trkpt lat="32.05854916884658" lon="-6.091063387167213"><ele>1252.0</ele><time>2026-05-04T09:17:31.999Z</time></trkpt><trkpt lat="32.058471629001254" lon="-6.091063387166831"><ele>1252.0</ele><time>2026-05-04T09:17:32.999Z</time></trkpt><trkpt lat="32.05840807796244" lon="-6.091063387167995"><ele>1252.0</ele><time>2026-05-04T09:17:33.999Z</time></trkpt><trkpt lat="32.05833558861674" lon="-6.091035878940364"><ele>1252.0</ele><time>2026-05-04T09:17:34.999Z</time></trkpt><trkpt lat="32.05825830761369" lon="-6.091007944622378"><ele>1252.0</ele><time>2026-05-04T09:17:36.999Z</time></trkpt><trkpt lat="32.05816433666195" lon="-6.090973488636571"><ele>1252.0</ele><time>2026-05-04T09:17:38.999Z</time></trkpt><trkpt lat="32.058086481794106" lon="-6.0909746304633465"><ele>1251.4</ele><time>2026-05-04T09:17:40.999Z</time></trkpt><trkpt lat="32.057963903333665" lon="-6.091010032025777"><ele>1250.8000000000002</ele><time>2026-05-04T09:17:43Z</time></trkpt><trkpt lat="32.057882202699325" lon="-6.091022475240784"><ele>1250.2</ele><time>2026-05-04T09:17:44Z</time></trkpt><trkpt lat="32.05781142375894" lon="-6.091065397610356"><ele>1249.6000000000001</ele><time>2026-05-04T09:17:45Z</time></trkpt><trkpt lat="32.0577318901337" lon="-6.0910941414375"><ele>1249.0</ele><time>2026-05-04T09:17:46Z</time></trkpt><trkpt lat="32.05765399341574" lon="-6.091122293680108"><ele>1249.0</ele><time>2026-05-04T09:17:47Z</time></trkpt><trkpt lat="32.057578138343736" lon="-6.091149708063439"><ele>1249.0</ele><time>2026-05-04T09:17:48Z</time></trkpt><trkpt lat="32.05750044333182" lon="-6.091190475622691"><ele>1249.0</ele><time>2026-05-04T09:17:49Z</time></trkpt><trkpt lat="32.05743006413794" lon="-6.091227806924464"><ele>1249.0</ele><time>2026-05-04T09:17:50Z</time></trkpt><trkpt lat="32.05735818968436" lon="-6.091265931359166"><ele>1249.0</ele><time>2026-05-04T09:17:51Z</time></trkpt><trkpt lat="32.05729233908828" lon="-6.091300466021504"><ele>1249.0</ele><time>2026-05-04T09:17:52Z</time></trkpt><trkpt lat="32.057224894979335" lon="-6.091350185467454"><ele>1249.6666666666665</ele><time>2026-05-04T09:17:53Z</time></trkpt><trkpt lat="32.057149321542" lon="-6.091365951640956"><ele>1250.3333333333333</ele><time>2026-05-04T09:17:54Z</time></trkpt><trkpt lat="32.0570736427339" lon="-6.091382481720725"><ele>1251.0</ele><time>2026-05-04T09:17:55Z</time></trkpt><trkpt lat="32.05698984551773" lon="-6.0914012381153455"><ele>1251.6666666666667</ele><time>2026-05-04T09:17:56Z</time></trkpt><trkpt lat="32.05690908531485" lon="-6.091419431280549"><ele>1252.3333333333335</ele><time>2026-05-04T09:17:57Z</time></trkpt><trkpt lat="32.05681511425995" lon="-6.0914137132942034"><ele>1253.0</ele><time>2026-05-04T09:17:58Z</time></trkpt><trkpt lat="32.05673164589664" lon="-6.091408372972638"><ele>1253.0</ele><time>2026-05-04T09:17:59Z</time></trkpt><trkpt lat="32.056644900620036" lon="-6.091402287176119"><ele>1253.0</ele><time>2026-05-04T09:18:00Z</time></trkpt><trkpt lat="32.05656735453178" lon="-6.091395107253259"><ele>1253.0</ele><time>2026-05-04T09:18:01Z</time></trkpt><trkpt lat="32.0564954269155" lon="-6.091330635398955"><ele>1253.0</ele><time>2026-05-04T09:18:02Z</time></trkpt><trkpt lat="32.056425279575876" lon="-6.0912987616892424"><ele>1253.0</ele><time>2026-05-04T09:18:03Z</time></trkpt><trkpt lat="32.0563517547977" lon="-6.091261616539873"><ele>1253.0</ele><time>2026-05-04T09:18:04Z</time></trkpt><trkpt lat="32.05626703125202" lon="-6.091245713057634"><ele>1254.4</ele><time>2026-05-04T09:18:05Z</time></trkpt><trkpt lat="32.056190683780436" lon="-6.091195206841409"><ele>1255.8</ele><time>2026-05-04T09:18:06Z</time></trkpt><trkpt lat="32.05610500912914" lon="-6.0911574546585525"><ele>1257.2</ele><time>2026-05-04T09:18:07Z</time></trkpt><trkpt lat="32.056014419936304" lon="-6.091119081485438"><ele>1258.6</ele><time>2026-05-04T09:18:08Z</time></trkpt><trkpt lat="32.05591747222985" lon="-6.091101056360061"><ele>1260.0</ele><time>2026-05-04T09:18:09Z</time></trkpt><trkpt lat="32.05582013546799" lon="-6.091063689418448"><ele>1261.8</ele><time>2026-05-04T09:18:10Z</time></trkpt><trkpt lat="32.05572252174188" lon="-6.091027166297506"><ele>1263.6</ele><time>2026-05-04T09:18:11Z</time></trkpt><trkpt lat="32.05563695350192" lon="-6.090958092019422"><ele>1265.4</ele><time>2026-05-04T09:18:12Z</time></trkpt><trkpt lat="32.055559062921354" lon="-6.090898871978026"><ele>1267.2</ele><time>2026-05-04T09:18:13Z</time></trkpt><trkpt lat="32.05548720632634" lon="-6.0908121911735185"><ele>1269.0</ele><time>2026-05-04T09:18:14Z</time></trkpt><trkpt lat="32.055403829131635" lon="-6.090740555302331"><ele>1269.0</ele><time>2026-05-04T09:18:15Z</time></trkpt><trkpt lat="32.0553353684524" lon="-6.090667701144907"><ele>1269.0</ele><time>2026-05-04T09:18:16Z</time></trkpt><trkpt lat="32.0552718003773" lon="-6.090592172467724"><ele>1269.0</ele><time>2026-05-04T09:18:17Z</time></trkpt><trkpt lat="32.055202260256806" lon="-6.090505057063037"><ele>1269.0</ele><time>2026-05-04T09:18:18Z</time></trkpt><trkpt lat="32.055152663002296" lon="-6.09040369161066"><ele>1269.0</ele><time>2026-05-04T09:18:19Z</time></trkpt><trkpt lat="32.0550863661517" lon="-6.090300410850719"><ele>1269.0</ele><time>2026-05-04T09:18:20Z</time></trkpt><trkpt lat="32.05502603836528" lon="-6.0902055323053474"><ele>1269.0</ele><time>2026-05-04T09:18:21Z</time></trkpt><trkpt lat="32.05496884005798" lon="-6.0901167709444985"><ele>1269.0</ele><time>2026-05-04T09:18:22Z</time></trkpt><trkpt lat="32.05492848381663" lon="-6.090026608024529"><ele>1269.0</ele><time>2026-05-04T09:18:23Z</time></trkpt><trkpt lat="32.05488930441119" lon="-6.089936409858759"><ele>1269.0</ele><time>2026-05-04T09:18:24Z</time></trkpt><trkpt lat="32.05485390044295" lon="-6.0898550653585675"><ele>1269.0</ele><time>2026-05-04T09:18:25Z</time></trkpt><trkpt lat="32.054814737724634" lon="-6.089776141031624"><ele>1269.8</ele><time>2026-05-04T09:18:26Z</time></trkpt><trkpt lat="32.05477507502235" lon="-6.0896959042370264"><ele>1270.6000000000001</ele><time>2026-05-04T09:18:26.999Z</time></trkpt><trkpt lat="32.054732212000076" lon="-6.089602919650582"><ele>1271.4</ele><time>2026-05-04T09:18:27.999Z</time></trkpt><trkpt lat="32.05468129234313" lon="-6.089516538236433"><ele>1272.2</ele><time>2026-05-04T09:18:28.999Z</time></trkpt><trkpt lat="32.05462426357287" lon="-6.089422329907994"><ele>1273.0</ele><time>2026-05-04T09:18:29.999Z</time></trkpt><trkpt lat="32.05457404811621" lon="-6.089326551679838"><ele>1273.0</ele><time>2026-05-04T09:18:30.999Z</time></trkpt><trkpt lat="32.054513605155016" lon="-6.089249023954563"><ele>1273.0</ele><time>2026-05-04T09:18:31.999Z</time></trkpt><trkpt lat="32.05446329892173" lon="-6.08916565712263"><ele>1273.0</ele><time>2026-05-04T09:18:32.999Z</time></trkpt><trkpt lat="32.05439737312951" lon="-6.089096826428934"><ele>1273.0</ele><time>2026-05-04T09:18:33.999Z</time></trkpt><trkpt lat="32.054343333046674" lon="-6.08902432951869"><ele>1273.0</ele><time>2026-05-04T09:18:34.999Z</time></trkpt><trkpt lat="32.05428648934939" lon="-6.088951822225488"><ele>1273.0</ele><time>2026-05-04T09:18:35.999Z</time></trkpt><trkpt lat="32.05423621720791" lon="-6.0888876972424955"><ele>1269.4</ele><time>2026-05-04T09:18:36.999Z</time></trkpt><trkpt lat="32.054146195815015" lon="-6.088881222113842"><ele>1265.8</ele><time>2026-05-04T09:18:38.999Z</time></trkpt><trkpt lat="32.054053769774136" lon="-6.088851440352777"><ele>1262.2</ele><time>2026-05-04T09:18:40.999Z</time></trkpt><trkpt lat="32.05398831760958" lon="-6.088936699542489"><ele>1258.6</ele><time>2026-05-04T09:18:42.999Z</time></trkpt><trkpt lat="32.053879260630715" lon="-6.089042284922914"><ele>1255.0</ele><time>2026-05-04T09:18:44.999Z</time></trkpt><trkpt lat="32.05382896209274" lon="-6.0891255778989795"><ele>1255.0</ele><time>2026-05-04T09:18:45.999Z</time></trkpt><trkpt lat="32.05377458209168" lon="-6.089207734984959"><ele>1255.0</ele><time>2026-05-04T09:18:46.999Z</time></trkpt><trkpt lat="32.05371488887224" lon="-6.089291382142366"><ele>1255.0</ele><time>2026-05-04T09:18:47.999Z</time></trkpt><trkpt lat="32.05366188900011" lon="-6.089379456503423"><ele>1255.0</ele><time>2026-05-04T09:18:48.999Z</time></trkpt><trkpt lat="32.053605176371754" lon="-6.08945980827105"><ele>1255.0</ele><time>2026-05-04T09:18:49.999Z</time></trkpt><trkpt lat="32.05356599297413" lon="-6.08955007238418"><ele>1255.0</ele><time>2026-05-04T09:18:50.999Z</time></trkpt><trkpt lat="32.05351747570839" lon="-6.089621568723935"><ele>1255.0</ele><time>2026-05-04T09:18:51.999Z</time></trkpt><trkpt lat="32.05347030226445" lon="-6.089691084762539"><ele>1255.0</ele><time>2026-05-04T09:18:52.999Z</time></trkpt><trkpt lat="32.05342196156585" lon="-6.089763133418258"><ele>1255.0</ele><time>2026-05-04T09:18:53.999Z</time></trkpt><trkpt lat="32.05336784570987" lon="-6.089834695464808"><ele>1255.0</ele><time>2026-05-04T09:18:54.999Z</time></trkpt><trkpt lat="32.05333007717765" lon="-6.089932632928175"><ele>1255.0</ele><time>2026-05-04T09:18:55.999Z</time></trkpt><trkpt lat="32.05328935026094" lon="-6.090028761032627"><ele>1255.0</ele><time>2026-05-04T09:18:56.999Z</time></trkpt><trkpt lat="32.05325124062274" lon="-6.090107587021013"><ele>1252.6666666666665</ele><time>2026-05-04T09:18:57.999Z</time></trkpt><trkpt lat="32.053199365592675" lon="-6.090176270276408"><ele>1250.3333333333333</ele><time>2026-05-04T09:18:58.999Z</time></trkpt><trkpt lat="32.053157346020996" lon="-6.090262235756723"><ele>1248.0</ele><time>2026-05-04T09:18:59.999Z</time></trkpt><trkpt lat="32.05313026313795" lon="-6.090364389849441"><ele>1245.6666666666667</ele><time>2026-05-04T09:19:00.999Z</time></trkpt><trkpt lat="32.053083098201206" lon="-6.09045669358753"><ele>1243.3333333333335</ele><time>2026-05-04T09:19:01.999Z</time></trkpt><trkpt lat="32.05304506905539" lon="-6.09054330945511"><ele>1241.0</ele><time>2026-05-04T09:19:02.999Z</time></trkpt><trkpt lat="32.053007227263706" lon="-6.090618211237766"><ele>1241.0</ele><time>2026-05-04T09:19:03.999Z</time></trkpt><trkpt lat="32.05297028485592" lon="-6.090690021411772"><ele>1241.0</ele><time>2026-05-04T09:19:04.999Z</time></trkpt><trkpt lat="32.05294661840179" lon="-6.090770033390721"><ele>1241.0</ele><time>2026-05-04T09:19:05.999Z</time></trkpt><trkpt lat="32.052912380632165" lon="-6.090841817928692"><ele>1241.0</ele><time>2026-05-04T09:19:06.999Z</time></trkpt><trkpt lat="32.052887757732094" lon="-6.090911589077757"><ele>1241.0</ele><time>2026-05-04T09:19:07.999Z</time></trkpt><trkpt lat="32.05286116855966" lon="-6.090994373841204"><ele>1241.0</ele><time>2026-05-04T09:19:08.999Z</time></trkpt><trkpt lat="32.05281974248002" lon="-6.091133086749858"><ele>1242.2</ele><time>2026-05-04T09:19:10.999Z</time></trkpt><trkpt lat="32.05279301091183" lon="-6.091205093980294"><ele>1243.3999999999999</ele><time>2026-05-04T09:19:11.999Z</time></trkpt><trkpt lat="32.05277548894678" lon="-6.091340713714672"><ele>1244.6</ele><time>2026-05-04T09:19:13.999Z</time></trkpt><trkpt lat="32.052757263140855" lon="-6.091415187326639"><ele>1245.8</ele><time>2026-05-04T09:19:14.999Z</time></trkpt><trkpt lat="32.05272880995013" lon="-6.091529596605143"><ele>1247.0</ele><time>2026-05-04T09:19:16.999Z</time></trkpt><trkpt lat="32.052690072912995" lon="-6.091655394468955"><ele>1249.2</ele><time>2026-05-04T09:19:18.999Z</time></trkpt><trkpt lat="32.05265824403204" lon="-6.091779206914585"><ele>1251.4</ele><time>2026-05-04T09:19:20.999Z</time></trkpt><trkpt lat="32.052635834512714" lon="-6.091902239480403"><ele>1253.6</ele><time>2026-05-04T09:19:22.999Z</time></trkpt><trkpt lat="32.052603778598105" lon="-6.092030003435847"><ele>1255.8</ele><time>2026-05-04T09:19:24.999Z</time></trkpt><trkpt lat="32.05258186417252" lon="-6.092116928092334"><ele>1258.0</ele><time>2026-05-04T09:19:25.999Z</time></trkpt><trkpt lat="32.052563015138254" lon="-6.092191693735389"><ele>1258.0</ele><time>2026-05-04T09:19:26.999Z</time></trkpt><trkpt lat="32.05254343963622" lon="-6.09226800395875"><ele>1258.0</ele><time>2026-05-04T09:19:27.999Z</time></trkpt><trkpt lat="32.05253841432427" lon="-6.092348230795409"><ele>1258.0</ele><time>2026-05-04T09:19:28.999Z</time></trkpt><trkpt lat="32.05251366614935" lon="-6.092424953538297"><ele>1258.0</ele><time>2026-05-04T09:19:29.999Z</time></trkpt><trkpt lat="32.05245862094559" lon="-6.092560490438415"><ele>1258.0</ele><time>2026-05-04T09:19:31.999Z</time></trkpt><trkpt lat="32.05243999180877" lon="-6.092635917702165"><ele>1258.0</ele><time>2026-05-04T09:19:32.999Z</time></trkpt><trkpt lat="32.05243466887827" lon="-6.092714576161502"><ele>1256.0</ele><time>2026-05-04T09:19:33.999Z</time></trkpt><trkpt lat="32.0524161787342" lon="-6.092790504822018"><ele>1254.0</ele><time>2026-05-04T09:19:34.999Z</time></trkpt><trkpt lat="32.05238419450985" lon="-6.092873801565079"><ele>1252.0</ele><time>2026-05-04T09:19:35.999Z</time></trkpt><trkpt lat="32.05236487367478" lon="-6.092967340247641"><ele>1250.0</ele><time>2026-05-04T09:19:36.999Z</time></trkpt><trkpt lat="32.05234216985476" lon="-6.0930532649995"><ele>1248.0</ele><time>2026-05-04T09:19:37.999Z</time></trkpt><trkpt lat="32.052319530116016" lon="-6.0931413735497095"><ele>1246.0</ele><time>2026-05-04T09:19:38.999Z</time></trkpt><trkpt lat="32.05230434361466" lon="-6.0932349018844505"><ele>1245.3333333333333</ele><time>2026-05-04T09:19:39.999Z</time></trkpt><trkpt lat="32.05227127636916" lon="-6.0933132030390365"><ele>1244.6666666666665</ele><time>2026-05-04T09:19:40.999Z</time></trkpt><trkpt lat="32.05224817194619" lon="-6.093382473211243"><ele>1244.0</ele><time>2026-05-04T09:19:41.999Z</time></trkpt><trkpt lat="32.05223632779635" lon="-6.093459015864612"><ele>1243.3333333333333</ele><time>2026-05-04T09:19:42.999Z</time></trkpt><trkpt lat="32.05219503103296" lon="-6.093590322422808"><ele>1242.6666666666667</ele><time>2026-05-04T09:19:44.999Z</time></trkpt><trkpt lat="32.052162919440654" lon="-6.093719558604137"><ele>1242.0</ele><time>2026-05-04T09:19:46.999Z</time></trkpt><trkpt lat="32.052146780248584" lon="-6.093846021431983"><ele>1241.9999999999998</ele><time>2026-05-04T09:19:49Z</time></trkpt><trkpt lat="32.052149505350556" lon="-6.0939314001823215"><ele>1242.0</ele><time>2026-05-04T09:19:50Z</time></trkpt><trkpt lat="32.05213692870604" lon="-6.094015570433974"><ele>1242.0</ele><time>2026-05-04T09:19:51Z</time></trkpt><trkpt lat="32.05212339822319" lon="-6.09409832937514"><ele>1242.0</ele><time>2026-05-04T09:19:52Z</time></trkpt><trkpt lat="32.05211117137197" lon="-6.0941786725528955"><ele>1242.0</ele><time>2026-05-04T09:19:53Z</time></trkpt><trkpt lat="32.05207266337301" lon="-6.094264384889342"><ele>1241.9999999999998</ele><time>2026-05-04T09:19:54Z</time></trkpt><trkpt lat="32.05203023945954" lon="-6.094333372525573"><ele>1242.0</ele><time>2026-05-04T09:19:55Z</time></trkpt><trkpt lat="32.05200305825526" lon="-6.094407647614916"><ele>1241.4</ele><time>2026-05-04T09:19:56Z</time></trkpt><trkpt lat="32.05200440516752" lon="-6.09452433814623"><ele>1240.8000000000002</ele><time>2026-05-04T09:19:58Z</time></trkpt><trkpt lat="32.05201323857438" lon="-6.094630395489006"><ele>1240.2</ele><time>2026-05-04T09:20:00Z</time></trkpt><trkpt lat="32.05206113624245" lon="-6.094728847639504"><ele>1239.6000000000001</ele><time>2026-05-04T09:20:02Z</time></trkpt><trkpt lat="32.05214658312907" lon="-6.0948088171384605"><ele>1239.0</ele><time>2026-05-04T09:20:04Z</time></trkpt><trkpt lat="32.05222159528988" lon="-6.094926428930638"><ele>1238.2857142857142</ele><time>2026-05-04T09:20:06Z</time></trkpt><trkpt lat="32.05226869516596" lon="-6.094984191592381"><ele>1237.5714285714284</ele><time>2026-05-04T09:20:07Z</time></trkpt><trkpt lat="32.05232363388617" lon="-6.095040668626376"><ele>1236.857142857143</ele><time>2026-05-04T09:20:08Z</time></trkpt><trkpt lat="32.052361172156445" lon="-6.095124047988361"><ele>1236.142857142857</ele><time>2026-05-04T09:20:09Z</time></trkpt><trkpt lat="32.05239912526878" lon="-6.0952010179947065"><ele>1235.4285714285713</ele><time>2026-05-04T09:20:10Z</time></trkpt><trkpt lat="32.052442242080566" lon="-6.09527109011478"><ele>1234.7142857142858</ele><time>2026-05-04T09:20:11Z</time></trkpt><trkpt lat="32.05247038650379" lon="-6.095354344192602"><ele>1234.0</ele><time>2026-05-04T09:20:12Z</time></trkpt><trkpt lat="32.052507887025605" lon="-6.095422579506227"><ele>1236.8333333333333</ele><time>2026-05-04T09:20:13Z</time></trkpt><trkpt lat="32.052543624252856" lon="-6.095491486873348"><ele>1239.6666666666665</ele><time>2026-05-04T09:20:14Z</time></trkpt><trkpt lat="32.052577669731384" lon="-6.09556663343786"><ele>1242.5</ele><time>2026-05-04T09:20:15Z</time></trkpt><trkpt lat="32.05261752084679" lon="-6.0956427502529"><ele>1245.3333333333333</ele><time>2026-05-04T09:20:16Z</time></trkpt><trkpt lat="32.0526625049158" lon="-6.095704090714886"><ele>1248.1666666666667</ele><time>2026-05-04T09:20:17Z</time></trkpt><trkpt lat="32.052695626712286" lon="-6.095769686357952"><ele>1251.0</ele><time>2026-05-04T09:20:18Z</time></trkpt><trkpt lat="32.052745496140155" lon="-6.095898072779273"><ele>1251.0</ele><time>2026-05-04T09:20:20Z</time></trkpt><trkpt lat="32.0527858347453" lon="-6.096004879185177"><ele>1251.0</ele><time>2026-05-04T09:20:22Z</time></trkpt><trkpt lat="32.05283707981007" lon="-6.096132694558291"><ele>1251.0</ele><time>2026-05-04T09:20:24Z</time></trkpt><trkpt lat="32.05286727677782" lon="-6.096216915161448"><ele>1251.0</ele><time>2026-05-04T09:20:25Z</time></trkpt><trkpt lat="32.052878665781755" lon="-6.096305787543457"><ele>1251.0</ele><time>2026-05-04T09:20:26Z</time></trkpt><trkpt lat="32.052888354825704" lon="-6.09638139450977"><ele>1251.0</ele><time>2026-05-04T09:20:27Z</time></trkpt><trkpt lat="32.05289850781742" lon="-6.09646777998689"><ele>1250.3333333333333</ele><time>2026-05-04T09:20:28Z</time></trkpt><trkpt lat="32.052897088843984" lon="-6.096618667441129"><ele>1249.6666666666667</ele><time>2026-05-04T09:20:29Z</time></trkpt><trkpt lat="32.05287644317682" lon="-6.096697630623678"><ele>1249.0</ele><time>2026-05-04T09:20:30Z</time></trkpt><trkpt lat="32.052854544565925" lon="-6.0967791686863455"><ele>1248.3333333333335</ele><time>2026-05-04T09:20:30.999Z</time></trkpt><trkpt lat="32.05282844215184" lon="-6.0968612203086225"><ele>1247.6666666666667</ele><time>2026-05-04T09:20:31.999Z</time></trkpt><trkpt lat="32.052806202465874" lon="-6.096933155187429"><ele>1247.0</ele><time>2026-05-04T09:20:32.999Z</time></trkpt><trkpt lat="32.052773015677516" lon="-6.097023935086579"><ele>1247.0</ele><time>2026-05-04T09:20:33.999Z</time></trkpt><trkpt lat="32.052740722732366" lon="-6.0971070225699995"><ele>1247.0</ele><time>2026-05-04T09:20:34.999Z</time></trkpt><trkpt lat="32.05271449380331" lon="-6.097178710358885"><ele>1247.0</ele><time>2026-05-04T09:20:35.999Z</time></trkpt><trkpt lat="32.05268835668092" lon="-6.097260754957118"><ele>1247.0</ele><time>2026-05-04T09:20:36.999Z</time></trkpt><trkpt lat="32.05266059204379" lon="-6.097347908353328"><ele>1247.0</ele><time>2026-05-04T09:20:37.999Z</time></trkpt><trkpt lat="32.05260041590817" lon="-6.0974684523833"><ele>1247.0</ele><time>2026-05-04T09:20:38.999Z</time></trkpt><trkpt lat="32.05255370734596" lon="-6.097551567198322"><ele>1246.3333333333335</ele><time>2026-05-04T09:20:39.999Z</time></trkpt><trkpt lat="32.052509467582425" lon="-6.097624308142495"><ele>1245.6666666666667</ele><time>2026-05-04T09:20:40.999Z</time></trkpt><trkpt lat="32.05246901019142" lon="-6.097691391731292"><ele>1245.0</ele><time>2026-05-04T09:20:41.999Z</time></trkpt><trkpt lat="32.05242747212807" lon="-6.097756773139034"><ele>1244.3333333333333</ele><time>2026-05-04T09:20:42.999Z</time></trkpt><trkpt lat="32.052350855285084" lon="-6.097876746355726"><ele>1243.6666666666665</ele><time>2026-05-04T09:20:44.999Z</time></trkpt><trkpt lat="32.05231916693207" lon="-6.097951530876214"><ele>1243.0</ele><time>2026-05-04T09:20:45.999Z</time></trkpt><trkpt lat="32.052284589538786" lon="-6.098033136514806"><ele>1243.0</ele><time>2026-05-04T09:20:46.999Z</time></trkpt><trkpt lat="32.0522513159751" lon="-6.09811299356292"><ele>1243.0</ele><time>2026-05-04T09:20:47.999Z</time></trkpt><trkpt lat="32.05221889246402" lon="-6.098191169602639"><ele>1243.0</ele><time>2026-05-04T09:20:48.999Z</time></trkpt><trkpt lat="32.05219279881916" lon="-6.098266343187867"><ele>1243.0</ele><time>2026-05-04T09:20:49.999Z</time></trkpt><trkpt lat="32.052165802843454" lon="-6.098341743321318"><ele>1243.0</ele><time>2026-05-04T09:20:50.999Z</time></trkpt><trkpt lat="32.0521365239279" lon="-6.098428894174589"><ele>1243.0</ele><time>2026-05-04T09:20:51.999Z</time></trkpt><trkpt lat="32.05210809029829" lon="-6.098521601685122"><ele>1242.0000000000002</ele><time>2026-05-04T09:20:52.999Z</time></trkpt><trkpt lat="32.05208082498401" lon="-6.098611350004951"><ele>1241.0</ele><time>2026-05-04T09:20:53.999Z</time></trkpt><trkpt lat="32.052057805903964" lon="-6.098688042185621"><ele>1240.0</ele><time>2026-05-04T09:20:54.999Z</time></trkpt><trkpt lat="32.05203943765601" lon="-6.098781672252446"><ele>1239.0</ele><time>2026-05-04T09:20:55.999Z</time></trkpt><trkpt lat="32.05202443954596" lon="-6.098858123426308"><ele>1238.0</ele><time>2026-05-04T09:20:56.999Z</time></trkpt><trkpt lat="32.05200684874532" lon="-6.0989462485551655"><ele>1237.0000000000002</ele><time>2026-05-04T09:20:57.999Z</time></trkpt><trkpt lat="32.05199060082912" lon="-6.099026538069167"><ele>1236.0</ele><time>2026-05-04T09:20:58.999Z</time></trkpt><trkpt lat="32.05201480263241" lon="-6.099182804317702"><ele>1236.0</ele><time>2026-05-04T09:21:00.999Z</time></trkpt><trkpt lat="32.052021230432466" lon="-6.099273455224922"><ele>1236.0</ele><time>2026-05-04T09:21:01.999Z</time></trkpt><trkpt lat="32.0520275691855" lon="-6.099362850300957"><ele>1236.0</ele><time>2026-05-04T09:21:02.999Z</time></trkpt><trkpt lat="32.05204691522836" lon="-6.099438058092598"><ele>1236.0</ele><time>2026-05-04T09:21:03.999Z</time></trkpt><trkpt lat="32.0520685581562" lon="-6.099526487580488"><ele>1236.0</ele><time>2026-05-04T09:21:04.999Z</time></trkpt><trkpt lat="32.052091407915505" lon="-6.099617423005129"><ele>1236.0</ele><time>2026-05-04T09:21:05.999Z</time></trkpt><trkpt lat="32.05211372646895" lon="-6.099706594368114"><ele>1236.0</ele><time>2026-05-04T09:21:06.999Z</time></trkpt><trkpt lat="32.052131719953266" lon="-6.099780683600491"><ele>1236.0</ele><time>2026-05-04T09:21:07.999Z</time></trkpt><trkpt lat="32.052151738447876" lon="-6.099865929974569"><ele>1236.0</ele><time>2026-05-04T09:21:08.999Z</time></trkpt><trkpt lat="32.0522218398481" lon="-6.0999948373978565"><ele>1236.0</ele><time>2026-05-04T09:21:10.999Z</time></trkpt><trkpt lat="32.05226215486579" lon="-6.100086625519071"><ele>1236.0</ele><time>2026-05-04T09:21:12.999Z</time></trkpt><trkpt lat="32.05236523774521" lon="-6.100138577005686"><ele>1236.1666666666667</ele><time>2026-05-04T09:21:14.999Z</time></trkpt><trkpt lat="32.05243166167462" lon="-6.100151748643663"><ele>1236.3333333333333</ele><time>2026-05-04T09:21:15.999Z</time></trkpt><trkpt lat="32.05256686121315" lon="-6.10014971041955"><ele>1236.5</ele><time>2026-05-04T09:21:17.999Z</time></trkpt><trkpt lat="32.05264334298006" lon="-6.100149023162214"><ele>1236.6666666666665</ele><time>2026-05-04T09:21:18.999Z</time></trkpt><trkpt lat="32.052720556162164" lon="-6.100147933226206"><ele>1236.8333333333333</ele><time>2026-05-04T09:21:19.999Z</time></trkpt><trkpt lat="32.052784161889626" lon="-6.100146547147116"><ele>1237.0</ele><time>2026-05-04T09:21:20.999Z</time></trkpt><trkpt lat="32.05290274795739" lon="-6.100145250507723"><ele>1238.1666666666665</ele><time>2026-05-04T09:21:22.999Z</time></trkpt><trkpt lat="32.05297013472636" lon="-6.100144527116443"><ele>1239.3333333333333</ele><time>2026-05-04T09:21:23.999Z</time></trkpt><trkpt lat="32.05304402533804" lon="-6.10014373390557"><ele>1240.5</ele><time>2026-05-04T09:21:24.999Z</time></trkpt><trkpt lat="32.05312931489307" lon="-6.100114345337965"><ele>1241.6666666666667</ele><time>2026-05-04T09:21:25.999Z</time></trkpt><trkpt lat="32.05319774425756" lon="-6.10008471879809"><ele>1242.8333333333335</ele><time>2026-05-04T09:21:26.999Z</time></trkpt><trkpt lat="32.0532725626455" lon="-6.10005248210773"><ele>1244.0</ele><time>2026-05-04T09:21:27.999Z</time></trkpt><trkpt lat="32.05334147550933" lon="-6.100022789899897"><ele>1244.1666666666667</ele><time>2026-05-04T09:21:28.999Z</time></trkpt><trkpt lat="32.0534092177389" lon="-6.099993602080016"><ele>1244.3333333333335</ele><time>2026-05-04T09:21:29.999Z</time></trkpt><trkpt lat="32.05347927842633" lon="-6.099963654143468"><ele>1244.5</ele><time>2026-05-04T09:21:30.999Z</time></trkpt><trkpt lat="32.0535514057597" lon="-6.099932889860652"><ele>1244.6666666666667</ele><time>2026-05-04T09:21:31.999Z</time></trkpt><trkpt lat="32.05362114572767" lon="-6.099902893613254"><ele>1244.8333333333333</ele><time>2026-05-04T09:21:32.999Z</time></trkpt><trkpt lat="32.053691489632044" lon="-6.099872637603403"><ele>1245.0</ele><time>2026-05-04T09:21:33.999Z</time></trkpt><trkpt lat="32.05376663501046" lon="-6.099840241561581"><ele>1250.0</ele><time>2026-05-04T09:21:34.999Z</time></trkpt><trkpt lat="32.053848258250554" lon="-6.099804629585813"><ele>1255.0</ele><time>2026-05-04T09:21:35.999Z</time></trkpt><trkpt lat="32.05392361071218" lon="-6.099771753534931"><ele>1260.0</ele><time>2026-05-04T09:21:36.999Z</time></trkpt><trkpt lat="32.05398605774717" lon="-6.099744873769043"><ele>1265.0</ele><time>2026-05-04T09:21:37.999Z</time></trkpt><trkpt lat="32.05404768430825" lon="-6.099718516758686"><ele>1270.0</ele><time>2026-05-04T09:21:38.999Z</time></trkpt><trkpt lat="32.05410779973271" lon="-6.09969280603984"><ele>1275.0</ele><time>2026-05-04T09:21:39.999Z</time></trkpt><trkpt lat="32.05422908779902" lon="-6.099597875557586"><ele>1275.0</ele><time>2026-05-04T09:21:41.999Z</time></trkpt><trkpt lat="32.05428235801386" lon="-6.099535363036567"><ele>1275.0</ele><time>2026-05-04T09:21:42.999Z</time></trkpt><trkpt lat="32.054324914928394" lon="-6.0994574542600235"><ele>1275.0</ele><time>2026-05-04T09:21:43.999Z</time></trkpt><trkpt lat="32.05437930293127" lon="-6.0993966360262935"><ele>1275.0</ele><time>2026-05-04T09:21:44.999Z</time></trkpt><trkpt lat="32.05445370846633" lon="-6.099382955882389"><ele>1275.0</ele><time>2026-05-04T09:21:45.999Z</time></trkpt><trkpt lat="32.05212339822319" lon="-6.09409832937514"><ele>1269.0</ele><time>2026-05-04T09:19:52Z</time></trkpt><trkpt lat="32.05211117137197" lon="-6.0941786725528955"><ele>1263.0</ele><time>2026-05-04T09:19:53Z</time></trkpt><trkpt lat="32.05207266337301" lon="-6.094264384889342"><ele>1257.0</ele><time>2026-05-04T09:19:54Z</time></trkpt><trkpt lat="32.05203023945954" lon="-6.094333372525573"><ele>1251.0</ele><time>2026-05-04T09:19:55Z</time></trkpt><trkpt lat="32.05200305825526" lon="-6.094407647614916"><ele>1245.0</ele><time>2026-05-04T09:19:56Z</time></trkpt><trkpt lat="32.05200440516752" lon="-6.09452433814623"><ele>1239.0</ele><time>2026-05-04T09:19:58Z</time></trkpt><trkpt lat="32.05201323857438" lon="-6.094630395489006"><ele>1239.0</ele><time>2026-05-04T09:20:00Z</time></trkpt><trkpt lat="32.05206113624245" lon="-6.094728847639504"><ele>1239.0</ele><time>2026-05-04T09:20:02Z</time></trkpt><trkpt lat="32.05214658312907" lon="-6.0948088171384605"><ele>1239.0</ele><time>2026-05-04T09:20:04Z</time></trkpt><trkpt lat="32.05222159528988" lon="-6.094926428930638"><ele>1239.0</ele><time>2026-05-04T09:20:06Z</time></trkpt><trkpt lat="32.05226869516596" lon="-6.094984191592381"><ele>1239.0</ele><time>2026-05-04T09:20:07Z</time></trkpt><trkpt lat="32.05232363388617" lon="-6.095040668626376"><ele>1238.2857142857142</ele><time>2026-05-04T09:20:08Z</time></trkpt><trkpt lat="32.052361172156445" lon="-6.095124047988361"><ele>1237.5714285714284</ele><time>2026-05-04T09:20:09Z</time></trkpt><trkpt lat="32.05239912526878" lon="-6.0952010179947065"><ele>1236.857142857143</ele><time>2026-05-04T09:20:10Z</time></trkpt><trkpt lat="32.052442242080566" lon="-6.09527109011478"><ele>1236.142857142857</ele><time>2026-05-04T09:20:11Z</time></trkpt><trkpt lat="32.05247038650379" lon="-6.095354344192602"><ele>1235.4285714285713</ele><time>2026-05-04T09:20:12Z</time></trkpt><trkpt lat="32.052507887025605" lon="-6.095422579506227"><ele>1234.7142857142858</ele><time>2026-05-04T09:20:13Z</time></trkpt><trkpt lat="32.052543624252856" lon="-6.095491486873348"><ele>1234.0</ele><time>2026-05-04T09:20:14Z</time></trkpt><trkpt lat="32.052577669731384" lon="-6.09556663343786"><ele>1236.8333333333333</ele><time>2026-05-04T09:20:15Z</time></trkpt><trkpt lat="32.05261752084679" lon="-6.0956427502529"><ele>1239.6666666666665</ele><time>2026-05-04T09:20:16Z</time></trkpt><trkpt lat="32.0526625049158" lon="-6.095704090714886"><ele>1242.5</ele><time>2026-05-04T09:20:17Z</time></trkpt><trkpt lat="32.052695626712286" lon="-6.095769686357952"><ele>1245.3333333333333</ele><time>2026-05-04T09:20:18Z</time></trkpt><trkpt lat="32.052745496140155" lon="-6.095898072779273"><ele>1248.1666666666667</ele><time>2026-05-04T09:20:20Z</time></trkpt><trkpt lat="32.0527858347453" lon="-6.096004879185177"><ele>1251.0</ele><time>2026-05-04T09:20:22Z</time></trkpt><trkpt lat="32.05283707981007" lon="-6.096132694558291"><ele>1251.0</ele><time>2026-05-04T09:20:24Z</time></trkpt><trkpt lat="32.05286727677782" lon="-6.096216915161448"><ele>1251.0</ele><time>2026-05-04T09:20:25Z</time></trkpt><trkpt lat="32.052878665781755" lon="-6.096305787543457"><ele>1251.0</ele><time>2026-05-04T09:20:26Z</time></trkpt><trkpt lat="32.052888354825704" lon="-6.09638139450977"><ele>1251.0</ele><time>2026-05-04T09:20:27Z</time></trkpt><trkpt lat="32.05289850781742" lon="-6.09646777998689"><ele>1251.0</ele><time>2026-05-04T09:20:28Z</time></trkpt><trkpt lat="32.052897088843984" lon="-6.096618667441129"><ele>1251.0</ele><time>2026-05-04T09:20:29Z</time></trkpt><trkpt lat="32.05287644317682" lon="-6.096697630623678"><ele>1250.4285714285713</ele><time>2026-05-04T09:20:30Z</time></trkpt><trkpt lat="32.052854544565925" lon="-6.0967791686863455"><ele>1249.857142857143</ele><time>2026-05-04T09:20:30.999Z</time></trkpt><trkpt lat="32.05282844215184" lon="-6.0968612203086225"><ele>1249.2857142857142</ele><time>2026-05-04T09:20:31.999Z</time></trkpt><trkpt lat="32.052806202465874" lon="-6.096933155187429"><ele>1248.7142857142858</ele><time>2026-05-04T09:20:32.999Z</time></trkpt><trkpt lat="32.052773015677516" lon="-6.097023935086579"><ele>1248.142857142857</ele><time>2026-05-04T09:20:33.999Z</time></trkpt><trkpt lat="32.052740722732366" lon="-6.0971070225699995"><ele>1247.5714285714287</ele><time>2026-05-04T09:20:34.999Z</time></trkpt><trkpt lat="32.05271449380331" lon="-6.097178710358885"><ele>1247.0</ele><time>2026-05-04T09:20:35.999Z</time></trkpt><trkpt lat="32.05268835668092" lon="-6.097260754957118"><ele>1247.0</ele><time>2026-05-04T09:20:36.999Z</time></trkpt><trkpt lat="32.05266059204379" lon="-6.097347908353328"><ele>1247.0</ele><time>2026-05-04T09:20:37.999Z</time></trkpt><trkpt lat="32.05260041590817" lon="-6.0974684523833"><ele>1247.0</ele><time>2026-05-04T09:20:38.999Z</time></trkpt><trkpt lat="32.05255370734596" lon="-6.097551567198322"><ele>1247.0</ele><time>2026-05-04T09:20:39.999Z</time></trkpt><trkpt lat="32.052509467582425" lon="-6.097624308142495"><ele>1247.0</ele><time>2026-05-04T09:20:40.999Z</time></trkpt><trkpt lat="32.05246901019142" lon="-6.097691391731292"><ele>1247.0</ele><time>2026-05-04T09:20:41.999Z</time></trkpt><trkpt lat="32.05242747212807" lon="-6.097756773139034"><ele>1246.3333333333335</ele><time>2026-05-04T09:20:42.999Z</time></trkpt><trkpt lat="32.052350855285084" lon="-6.097876746355726"><ele>1245.6666666666667</ele><time>2026-05-04T09:20:44.999Z</time></trkpt><trkpt lat="32.05231916693207" lon="-6.097951530876214"><ele>1245.0</ele><time>2026-05-04T09:20:45.999Z</time></trkpt><trkpt lat="32.052284589538786" lon="-6.098033136514806"><ele>1244.3333333333333</ele><time>2026-05-04T09:20:46.999Z</time></trkpt><trkpt lat="32.0522513159751" lon="-6.09811299356292"><ele>1243.6666666666665</ele><time>2026-05-04T09:20:47.999Z</time></trkpt><trkpt lat="32.05221889246402" lon="-6.098191169602639"><ele>1243.0</ele><time>2026-05-04T09:20:48.999Z</time></trkpt><trkpt lat="32.05219279881916" lon="-6.098266343187867"><ele>1241.6666666666665</ele><time>2026-05-04T09:20:49.999Z</time></trkpt><trkpt lat="32.052165802843454" lon="-6.098341743321318"><ele>1240.3333333333333</ele><time>2026-05-04T09:20:50.999Z</time></trkpt><trkpt lat="32.0521365239279" lon="-6.098428894174589"><ele>1239.0</ele><time>2026-05-04T09:20:51.999Z</time></trkpt><trkpt lat="32.05210809029829" lon="-6.098521601685122"><ele>1237.6666666666667</ele><time>2026-05-04T09:20:52.999Z</time></trkpt><trkpt lat="32.05208082498401" lon="-6.098611350004951"><ele>1236.3333333333335</ele><time>2026-05-04T09:20:53.999Z</time></trkpt><trkpt lat="32.052057805903964" lon="-6.098688042185621"><ele>1235.0</ele><time>2026-05-04T09:20:54.999Z</time></trkpt><trkpt lat="32.05203943765601" lon="-6.098781672252446"><ele>1235.0</ele><time>2026-05-04T09:20:55.999Z</time></trkpt><trkpt lat="32.05202443954596" lon="-6.098858123426308"><ele>1235.0</ele><time>2026-05-04T09:20:56.999Z</time></trkpt><trkpt lat="32.05200684874532" lon="-6.0989462485551655"><ele>1235.0</ele><time>2026-05-04T09:20:57.999Z</time></trkpt><trkpt lat="32.05199060082912" lon="-6.099026538069167"><ele>1235.0</ele><time>2026-05-04T09:20:58.999Z</time></trkpt><trkpt lat="32.05201480263241" lon="-6.099182804317702"><ele>1235.0</ele><time>2026-05-04T09:21:00.999Z</time></trkpt><trkpt lat="32.052021230432466" lon="-6.099273455224922"><ele>1235.0</ele><time>2026-05-04T09:21:01.999Z</time></trkpt><trkpt lat="32.0520275691855" lon="-6.099362850300957"><ele>1235.142857142857</ele><time>2026-05-04T09:21:02.999Z</time></trkpt><trkpt lat="32.05204691522836" lon="-6.099438058092598"><ele>1235.2857142857142</ele><time>2026-05-04T09:21:03.999Z</time></trkpt><trkpt lat="32.0520685581562" lon="-6.099526487580488"><ele>1235.4285714285716</ele><time>2026-05-04T09:21:04.999Z</time></trkpt><trkpt lat="32.052091407915505" lon="-6.099617423005129"><ele>1235.5714285714284</ele><time>2026-05-04T09:21:05.999Z</time></trkpt><trkpt lat="32.05211372646895" lon="-6.099706594368114"><ele>1235.7142857142858</ele><time>2026-05-04T09:21:06.999Z</time></trkpt><trkpt lat="32.052131719953266" lon="-6.099780683600491"><ele>1235.857142857143</ele><time>2026-05-04T09:21:07.999Z</time></trkpt><trkpt lat="32.052151738447876" lon="-6.099865929974569"><ele>1236.0</ele><time>2026-05-04T09:21:08.999Z</time></trkpt><trkpt lat="32.0522218398481" lon="-6.0999948373978565"><ele>1236.2</ele><time>2026-05-04T09:21:10.999Z</time></trkpt><trkpt lat="32.05226215486579" lon="-6.100086625519071"><ele>1236.3999999999999</ele><time>2026-05-04T09:21:12.999Z</time></trkpt><trkpt lat="32.05236523774521" lon="-6.100138577005686"><ele>1236.6</ele><time>2026-05-04T09:21:14.999Z</time></trkpt><trkpt lat="32.05243166167462" lon="-6.100151748643663"><ele>1236.8</ele><time>2026-05-04T09:21:15.999Z</time></trkpt><trkpt lat="32.05256686121315" lon="-6.10014971041955"><ele>1237.0</ele><time>2026-05-04T09:21:17.999Z</time></trkpt><trkpt lat="32.05264334298006" lon="-6.100149023162214"><ele>1238.1666666666665</ele><time>2026-05-04T09:21:18.999Z</time></trkpt><trkpt lat="32.052720556162164" lon="-6.100147933226206"><ele>1239.3333333333333</ele><time>2026-05-04T09:21:19.999Z</time></trkpt><trkpt lat="32.052784161889626" lon="-6.100146547147116"><ele>1240.5</ele><time>2026-05-04T09:21:20.999Z</time></trkpt><trkpt lat="32.05290274795739" lon="-6.100145250507723"><ele>1241.6666666666667</ele><time>2026-05-04T09:21:22.999Z</time></trkpt><trkpt lat="32.05297013472636" lon="-6.100144527116443"><ele>1242.8333333333335</ele><time>2026-05-04T09:21:23.999Z</time></trkpt><trkpt lat="32.05304402533804" lon="-6.10014373390557"><ele>1244.0</ele><time>2026-05-04T09:21:24.999Z</time></trkpt><trkpt lat="32.05312931489307" lon="-6.100114345337965"><ele>1244.0</ele><time>2026-05-04T09:21:25.999Z</time></trkpt><trkpt lat="32.05319774425756" lon="-6.10008471879809"><ele>1244.0</ele><time>2026-05-04T09:21:26.999Z</time></trkpt><trkpt lat="32.0532725626455" lon="-6.10005248210773"><ele>1244.0</ele><time>2026-05-04T09:21:27.999Z</time></trkpt><trkpt lat="32.05334147550933" lon="-6.100022789899897"><ele>1244.0</ele><time>2026-05-04T09:21:28.999Z</time></trkpt><trkpt lat="32.0534092177389" lon="-6.099993602080016"><ele>1244.0</ele><time>2026-05-04T09:21:29.999Z</time></trkpt><trkpt lat="32.05347927842633" lon="-6.099963654143468"><ele>1244.0</ele><time>2026-05-04T09:21:30.999Z</time></trkpt><trkpt lat="32.0535514057597" lon="-6.099932889860652"><ele>1244.0</ele><time>2026-05-04T09:21:31.999Z</time></trkpt><trkpt lat="32.05362114572767" lon="-6.099902893613254"><ele>1249.6666666666667</ele><time>2026-05-04T09:21:32.999Z</time></trkpt><trkpt lat="32.053691489632044" lon="-6.099872637603403"><ele>1255.3333333333335</ele><time>2026-05-04T09:21:33.999Z</time></trkpt><trkpt lat="32.05376663501046" lon="-6.099840241561581"><ele>1261.0</ele><time>2026-05-04T09:21:34.999Z</time></trkpt><trkpt lat="32.053848258250554" lon="-6.099804629585813"><ele>1266.6666666666667</ele><time>2026-05-04T09:21:35.999Z</time></trkpt><trkpt lat="32.05392361071218" lon="-6.099771753534931"><ele>1272.3333333333333</ele><time>2026-05-04T09:21:36.999Z</time></trkpt><trkpt lat="32.05398605774717" lon="-6.099744873769043"><ele>1278.0</ele><time>2026-05-04T09:21:37.999Z</time></trkpt><trkpt lat="32.05404768430825" lon="-6.099718516758686"><ele>1278.0</ele><time>2026-05-04T09:21:38.999Z</time></trkpt><trkpt lat="32.05410779973271" lon="-6.09969280603984"><ele>1278.0</ele><time>2026-05-04T09:21:39.999Z</time></trkpt><trkpt lat="32.05422908779902" lon="-6.099597875557586"><ele>1278.0</ele><time>2026-05-04T09:21:41.999Z</time></trkpt><trkpt lat="32.05428235801386" lon="-6.099535363036567"><ele>1278.0</ele><time>2026-05-04T09:21:42.999Z</time></trkpt><trkpt lat="32.054324914928394" lon="-6.0994574542600235"><ele>1278.0</ele><time>2026-05-04T09:21:43.999Z</time></trkpt><trkpt lat="32.05437930293127" lon="-6.0993966360262935"><ele>1278.0</ele><time>2026-05-04T09:21:44.999Z</time></trkpt><trkpt lat="32.05445370846633" lon="-6.099382955882389"><ele>1277.5714285714287</ele><time>2026-05-04T09:21:45.999Z</time></trkpt><trkpt lat="32.054517907075805" lon="-6.0993438597872816"><ele>1277.142857142857</ele><time>2026-05-04T09:21:46.999Z</time></trkpt><trkpt lat="32.054581786444295" lon="-6.099304937143405"><ele>1276.7142857142858</ele><time>2026-05-04T09:21:47.999Z</time></trkpt><trkpt lat="32.054640452239624" lon="-6.099258230669889"><ele>1276.2857142857142</ele><time>2026-05-04T09:21:48.999Z</time></trkpt><trkpt lat="32.05470702698557" lon="-6.099224733440875"><ele>1275.857142857143</ele><time>2026-05-04T09:21:49.999Z</time></trkpt><trkpt lat="32.054772240999945" lon="-6.099182210816375"><ele>1275.4285714285716</ele><time>2026-05-04T09:21:50.999Z</time></trkpt><trkpt lat="32.054841475013625" lon="-6.0991702141990025"><ele>1275.0</ele><time>2026-05-04T09:21:51.999Z</time></trkpt><trkpt lat="32.0549049763575" lon="-6.099122364998193"><ele>1272.6666666666667</ele><time>2026-05-04T09:21:52.999Z</time></trkpt><trkpt lat="32.05498418334233" lon="-6.099127414856909"><ele>1270.3333333333333</ele><time>2026-05-04T09:21:53.999Z</time></trkpt><trkpt lat="32.05506200242955" lon="-6.099114386120386"><ele>1268.0</ele><time>2026-05-04T09:21:55Z</time></trkpt><trkpt lat="32.05512889474928" lon="-6.099103186783694"><ele>1265.6666666666665</ele><time>2026-05-04T09:21:56Z</time></trkpt><trkpt lat="32.05519126980812" lon="-6.099092488057517"><ele>1263.3333333333333</ele><time>2026-05-04T09:21:57Z</time></trkpt><trkpt lat="32.055312042434444" lon="-6.099076606559824"><ele>1261.0</ele><time>2026-05-04T09:21:59Z</time></trkpt><trkpt lat="32.05537634195773" lon="-6.09908846433048"><ele>1261.0</ele><time>2026-05-04T09:22:00Z</time></trkpt><trkpt lat="32.05544173819209" lon="-6.0990644570455945"><ele>1261.0</ele><time>2026-05-04T09:22:01Z</time></trkpt><trkpt lat="32.055514890604385" lon="-6.099059869872944"><ele>1261.0</ele><time>2026-05-04T09:22:02Z</time></trkpt><trkpt lat="32.05558647421314" lon="-6.099077510272638"><ele>1261.0</ele><time>2026-05-04T09:22:03Z</time></trkpt><trkpt lat="32.05565636877998" lon="-6.099076008878031"><ele>1261.0</ele><time>2026-05-04T09:22:04Z</time></trkpt><trkpt lat="32.05572260102919" lon="-6.099084349306058"><ele>1261.0</ele><time>2026-05-04T09:22:05Z</time></trkpt><trkpt lat="32.05578774300742" lon="-6.099076357131155"><ele>1261.0</ele><time>2026-05-04T09:22:06Z</time></trkpt><trkpt lat="32.05590875817521" lon="-6.099078930982037"><ele>1259.3999999999999</ele><time>2026-05-04T09:22:08Z</time></trkpt><trkpt lat="32.056010107759626" lon="-6.099089594310562"><ele>1257.8</ele><time>2026-05-04T09:22:10Z</time></trkpt><trkpt lat="32.056069469744884" lon="-6.099121792952807"><ele>1256.1999999999998</ele><time>2026-05-04T09:22:11Z</time></trkpt><trkpt lat="32.05618250996894" lon="-6.0991539922210976"><ele>1254.6</ele><time>2026-05-04T09:22:13Z</time></trkpt><trkpt lat="32.05629201838314" lon="-6.099195895075431"><ele>1253.0</ele><time>2026-05-04T09:22:15Z</time></trkpt><trkpt lat="32.05639242482358" lon="-6.099215666300564"><ele>1253.0</ele><time>2026-05-04T09:22:17Z</time></trkpt><trkpt lat="32.05651556301433" lon="-6.099197909593583"><ele>1253.0</ele><time>2026-05-04T09:22:19Z</time></trkpt><trkpt lat="32.05658844970074" lon="-6.0992065436647"><ele>1253.0</ele><time>2026-05-04T09:22:20Z</time></trkpt><trkpt lat="32.056661858242435" lon="-6.099200375007504"><ele>1253.0</ele><time>2026-05-04T09:22:21Z</time></trkpt><trkpt lat="32.05673657690738" lon="-6.099253160724731"><ele>1253.0</ele><time>2026-05-04T09:22:22Z</time></trkpt><trkpt lat="32.056808949290684" lon="-6.099286944005994"><ele>1253.0</ele><time>2026-05-04T09:22:23Z</time></trkpt><trkpt lat="32.0568769533557" lon="-6.0993288338936384"><ele>1253.1666666666667</ele><time>2026-05-04T09:22:24Z</time></trkpt><trkpt lat="32.056944588971675" lon="-6.0993654051602615"><ele>1253.3333333333335</ele><time>2026-05-04T09:22:25Z</time></trkpt><trkpt lat="32.05700853409807" lon="-6.0994042410455505"><ele>1253.5</ele><time>2026-05-04T09:22:26Z</time></trkpt><trkpt lat="32.057073586669205" lon="-6.099458094541195"><ele>1253.6666666666667</ele><time>2026-05-04T09:22:27Z</time></trkpt><trkpt lat="32.05714699368207" lon="-6.099508869842935"><ele>1253.8333333333333</ele><time>2026-05-04T09:22:28Z</time></trkpt><trkpt lat="32.05722646428483" lon="-6.099551167686681"><ele>1254.0</ele><time>2026-05-04T09:22:29Z</time></trkpt><trkpt lat="32.05729814787082" lon="-6.0996021507639115"><ele>1254.0</ele><time>2026-05-04T09:22:30Z</time></trkpt><trkpt lat="32.05736248894016" lon="-6.099647877819252"><ele>1254.0</ele><time>2026-05-04T09:22:31Z</time></trkpt><trkpt lat="32.0574270257479" lon="-6.099693718337295"><ele>1254.0</ele><time>2026-05-04T09:22:32Z</time></trkpt><trkpt lat="32.05749140627139" lon="-6.099746517009192"><ele>1254.0</ele><time>2026-05-04T09:22:33Z</time></trkpt><trkpt lat="32.057559440110005" lon="-6.099817325079858"><ele>1254.0</ele><time>2026-05-04T09:22:33.999Z</time></trkpt><trkpt lat="32.057620632055745" lon="-6.099879232204181"><ele>1254.0</ele><time>2026-05-04T09:22:34.999Z</time></trkpt><trkpt lat="32.05767852596545" lon="-6.099939590278008"><ele>1250.4</ele><time>2026-05-04T09:22:35.999Z</time></trkpt><trkpt lat="32.05773459458514" lon="-6.0999972069476955"><ele>1246.8000000000002</ele><time>2026-05-04T09:22:36.999Z</time></trkpt><trkpt lat="32.05784161096404" lon="-6.10010622135093"><ele>1243.1999999999998</ele><time>2026-05-04T09:22:38.999Z</time></trkpt><trkpt lat="32.05787607018553" lon="-6.100202165418187"><ele>1239.6</ele><time>2026-05-04T09:22:39.999Z</time></trkpt><trkpt lat="32.05792436241623" lon="-6.100276686452593"><ele>1236.0</ele><time>2026-05-04T09:22:40.999Z</time></trkpt><trkpt lat="32.05798468535072" lon="-6.100342334260609"><ele>1236.0</ele><time>2026-05-04T09:22:41.999Z</time></trkpt><trkpt lat="32.05802962325968" lon="-6.100430547945791"><ele>1236.0</ele><time>2026-05-04T09:22:42.999Z</time></trkpt><trkpt lat="32.05808163212649" lon="-6.100513189399483"><ele>1236.0</ele><time>2026-05-04T09:22:43.999Z</time></trkpt><trkpt lat="32.05813427377095" lon="-6.100588332982474"><ele>1236.0</ele><time>2026-05-04T09:22:44.999Z</time></trkpt><trkpt lat="32.0581888933729" lon="-6.100650435162077"><ele>1236.0</ele><time>2026-05-04T09:22:45.999Z</time></trkpt><trkpt lat="32.0582486917027" lon="-6.100716468714986"><ele>1236.0</ele><time>2026-05-04T09:22:46.999Z</time></trkpt><trkpt lat="32.05829984665626" lon="-6.100798537041393"><ele>1237.3333333333333</ele><time>2026-05-04T09:22:47.999Z</time></trkpt><trkpt lat="32.05834509623146" lon="-6.100895856690015"><ele>1238.6666666666667</ele><time>2026-05-04T09:22:48.999Z</time></trkpt><trkpt lat="32.0583829355703" lon="-6.1009867608366495"><ele>1240.0</ele><time>2026-05-04T09:22:49.999Z</time></trkpt><trkpt lat="32.05841267794102" lon="-6.101094781447627"><ele>1241.3333333333335</ele><time>2026-05-04T09:22:50.999Z</time></trkpt><trkpt lat="32.058438925068636" lon="-6.101191381941819"><ele>1242.6666666666667</ele><time>2026-05-04T09:22:51.999Z</time></trkpt><trkpt lat="32.05845926580675" lon="-6.1012879141492835"><ele>1244.0</ele><time>2026-05-04T09:22:52.999Z</time></trkpt><trkpt lat="32.058473237018674" lon="-6.1013920870362615"><ele>1244.0</ele><time>2026-05-04T09:22:53.999Z</time></trkpt><trkpt lat="32.0584746160662" lon="-6.101487780926199"><ele>1244.0</ele><time>2026-05-04T09:22:54.999Z</time></trkpt><trkpt lat="32.05847597682074" lon="-6.101582204730537"><ele>1244.0</ele><time>2026-05-04T09:22:55.999Z</time></trkpt><trkpt lat="32.05841038578419" lon="-6.101672060274164"><ele>1244.0</ele><time>2026-05-04T09:22:56.999Z</time></trkpt><trkpt lat="32.058399585370225" lon="-6.101755543054342"><ele>1244.0</ele><time>2026-05-04T09:22:57.999Z</time></trkpt><trkpt lat="32.05836168730766" lon="-6.10186002395925"><ele>1244.0</ele><time>2026-05-04T09:22:58.999Z</time></trkpt><trkpt lat="32.05835781015239" lon="-6.101974747442929"><ele>1242.8333333333335</ele><time>2026-05-04T09:22:59.999Z</time></trkpt><trkpt lat="32.05836088937014" lon="-6.102073560208997"><ele>1241.6666666666667</ele><time>2026-05-04T09:23:00.999Z</time></trkpt><trkpt lat="32.05836572688381" lon="-6.10216653851388"><ele>1240.5</ele><time>2026-05-04T09:23:01.999Z</time></trkpt><trkpt lat="32.058384024073376" lon="-6.1022473580337815"><ele>1239.3333333333333</ele><time>2026-05-04T09:23:02.999Z</time></trkpt><trkpt lat="32.058378072845315" lon="-6.102353286693198"><ele>1238.1666666666665</ele><time>2026-05-04T09:23:03.999Z</time></trkpt><trkpt lat="32.058391016125874" lon="-6.102457553401093"><ele>1237.0</ele><time>2026-05-04T09:23:04.999Z</time></trkpt><trkpt lat="32.05839644272714" lon="-6.102557680908694"><ele>1236.5</ele><time>2026-05-04T09:23:05.999Z</time></trkpt><trkpt lat="32.05839814787784" lon="-6.102661721681133"><ele>1236.0</ele><time>2026-05-04T09:23:06.999Z</time></trkpt><trkpt lat="32.058406187396464" lon="-6.102755169202554"><ele>1235.5</ele><time>2026-05-04T09:23:07.999Z</time></trkpt><trkpt lat="32.058413172036204" lon="-6.102844824658322"><ele>1235.0</ele><time>2026-05-04T09:23:08.999Z</time></trkpt><trkpt lat="32.058435424912005" lon="-6.10293167308588"><ele>1234.5</ele><time>2026-05-04T09:23:09.999Z</time></trkpt><trkpt lat="32.058428752339914" lon="-6.103022566528528"><ele>1234.0</ele><time>2026-05-04T09:23:10.999Z</time></trkpt><trkpt lat="32.05846384720853" lon="-6.10310647482748"><ele>1234.0</ele><time>2026-05-04T09:23:11.999Z</time></trkpt><trkpt lat="32.0584820464747" lon="-6.103180490243829"><ele>1234.0</ele><time>2026-05-04T09:23:12.999Z</time></trkpt><trkpt lat="32.058485787950026" lon="-6.103258738863197"><ele>1234.0</ele><time>2026-05-04T09:23:13.999Z</time></trkpt><trkpt lat="32.0585242749612" lon="-6.103337760030359"><ele>1234.0</ele><time>2026-05-04T09:23:14.999Z</time></trkpt><trkpt lat="32.058550860843305" lon="-6.103420969561177"><ele>1234.0</ele><time>2026-05-04T09:23:15.999Z</time></trkpt><trkpt lat="32.0585768866937" lon="-6.103503314225415"><ele>1234.0</ele><time>2026-05-04T09:23:16.999Z</time></trkpt><trkpt lat="32.05859038144456" lon="-6.103592169599763"><ele>1234.0</ele><time>2026-05-04T09:23:17.999Z</time></trkpt><trkpt lat="32.05862399798115" lon="-6.103669304533103"><ele>1234.0</ele><time>2026-05-04T09:23:18.999Z</time></trkpt><trkpt lat="32.05865548681233" lon="-6.103751746400181"><ele>1234.0</ele><time>2026-05-04T09:23:19.999Z</time></trkpt><trkpt lat="32.05869855215629" lon="-6.103827145435625"><ele>1234.0</ele><time>2026-05-04T09:23:20.999Z</time></trkpt><trkpt lat="32.05872528332316" lon="-6.103895685582016"><ele>1234.0</ele><time>2026-05-04T09:23:21.999Z</time></trkpt><trkpt lat="32.05873957448583" lon="-6.103972836903258"><ele>1234.0</ele><time>2026-05-04T09:23:22.999Z</time></trkpt><trkpt lat="32.05880564488971" lon="-6.104097895992193"><ele>1234.0</ele><time>2026-05-04T09:23:24.999Z</time></trkpt><trkpt lat="32.05882818625057" lon="-6.104235036064691"><ele>1234.0</ele><time>2026-05-04T09:23:26.999Z</time></trkpt><trkpt lat="32.0588228282826" lon="-6.10432746492667"><ele>1234.0</ele><time>2026-05-04T09:23:27.999Z</time></trkpt><trkpt lat="32.05884812198715" lon="-6.104433336205371"><ele>1234.0</ele><time>2026-05-04T09:23:28.999Z</time></trkpt><trkpt lat="32.05885432759474" lon="-6.1045394676790385"><ele>1234.0</ele><time>2026-05-04T09:23:29.999Z</time></trkpt><trkpt lat="32.05886666870415" lon="-6.104648501479958"><ele>1234.0</ele><time>2026-05-04T09:23:30.999Z</time></trkpt><trkpt lat="32.0588638398823" lon="-6.1047363058351705"><ele>1234.0</ele><time>2026-05-04T09:23:31.999Z</time></trkpt><trkpt lat="32.058861065504026" lon="-6.104822420317638"><ele>1234.0</ele><time>2026-05-04T09:23:32.999Z</time></trkpt><trkpt lat="32.058858241790844" lon="-6.104910066207774"><ele>1234.0</ele><time>2026-05-04T09:23:33.999Z</time></trkpt><trkpt lat="32.05885563681709" lon="-6.105011968903084"><ele>1234.0</ele><time>2026-05-04T09:23:34.999Z</time></trkpt><trkpt lat="32.058848661115185" lon="-6.105115845419787"><ele>1234.0</ele><time>2026-05-04T09:23:35.999Z</time></trkpt><trkpt lat="32.0588399478688" lon="-6.10521910261697"><ele>1234.0</ele><time>2026-05-04T09:23:36.999Z</time></trkpt><trkpt lat="32.0588321784338" lon="-6.1053255357493015"><ele>1234.0</ele><time>2026-05-04T09:23:37.999Z</time></trkpt><trkpt lat="32.05881466709082" lon="-6.105435787209148"><ele>1235.0</ele><time>2026-05-04T09:23:38.999Z</time></trkpt><trkpt lat="32.05878134384059" lon="-6.105560447938364"><ele>1236.0</ele><time>2026-05-04T09:23:39.999Z</time></trkpt><trkpt lat="32.05875012551072" lon="-6.105662615095511"><ele>1237.0</ele><time>2026-05-04T09:23:40.999Z</time></trkpt><trkpt lat="32.058718722794616" lon="-6.105764015881949"><ele>1238.0</ele><time>2026-05-04T09:23:41.999Z</time></trkpt><trkpt lat="32.05868294655129" lon="-6.105866373175103"><ele>1239.0</ele><time>2026-05-04T09:23:42.999Z</time></trkpt><trkpt lat="32.058645728138735" lon="-6.105963898929207"><ele>1239.0</ele><time>2026-05-04T09:23:43.999Z</time></trkpt><trkpt lat="32.05861132943048" lon="-6.106056492721439"><ele>1239.0</ele><time>2026-05-04T09:23:44.999Z</time></trkpt><trkpt lat="32.05857862956817" lon="-6.106143613236836"><ele>1239.0</ele><time>2026-05-04T09:23:45.999Z</time></trkpt><trkpt lat="32.058543266339406" lon="-6.106237566206844"><ele>1239.0</ele><time>2026-05-04T09:23:46.999Z</time></trkpt><trkpt lat="32.058510224467945" lon="-6.106324814418371"><ele>1239.0</ele><time>2026-05-04T09:23:47.999Z</time></trkpt><trkpt lat="32.058476486970065" lon="-6.106414042380819"><ele>1239.0</ele><time>2026-05-04T09:23:48.999Z</time></trkpt><trkpt lat="32.05844091884322" lon="-6.10650980292328"><ele>1240.1666666666667</ele><time>2026-05-04T09:23:49.999Z</time></trkpt><trkpt lat="32.05840399231593" lon="-6.106605987244243"><ele>1241.3333333333333</ele><time>2026-05-04T09:23:50.999Z</time></trkpt><trkpt lat="32.05836835399065" lon="-6.106699146072974"><ele>1242.5</ele><time>2026-05-04T09:23:51.999Z</time></trkpt><trkpt lat="32.0583317336481" lon="-6.106797063555537"><ele>1243.6666666666665</ele><time>2026-05-04T09:23:52.999Z</time></trkpt><trkpt lat="32.05829883755817" lon="-6.106886434972581"><ele>1244.8333333333333</ele><time>2026-05-04T09:23:53.999Z</time></trkpt><trkpt lat="32.05826127674069" lon="-6.106979426409185"><ele>1246.0</ele><time>2026-05-04T09:23:54.999Z</time></trkpt><trkpt lat="32.05823667890188" lon="-6.10707482679189"><ele>1250.1666666666665</ele><time>2026-05-04T09:23:55.999Z</time></trkpt><trkpt lat="32.05821433624322" lon="-6.1071792011273915"><ele>1254.3333333333333</ele><time>2026-05-04T09:23:56.999Z</time></trkpt><trkpt lat="32.05821644236516" lon="-6.107284209261417"><ele>1258.5</ele><time>2026-05-04T09:23:57.999Z</time></trkpt><trkpt lat="32.058206125184064" lon="-6.107394798907652"><ele>1262.6666666666667</ele><time>2026-05-04T09:23:58.999Z</time></trkpt><trkpt lat="32.05818660642852" lon="-6.107493864636115"><ele>1266.8333333333335</ele><time>2026-05-04T09:23:59.999Z</time></trkpt><trkpt lat="32.05819578400234" lon="-6.107587936878794"><ele>1271.0</ele><time>2026-05-04T09:24:01Z</time></trkpt><trkpt lat="32.05819106410482" lon="-6.107673589146206"><ele>1271.0</ele><time>2026-05-04T09:24:02Z</time></trkpt><trkpt lat="32.05819676579126" lon="-6.1077526298213405"><ele>1271.0</ele><time>2026-05-04T09:24:03Z</time></trkpt><trkpt lat="32.05820297201766" lon="-6.107846544143509"><ele>1271.0</ele><time>2026-05-04T09:24:04Z</time></trkpt><trkpt lat="32.05820878670398" lon="-6.107961210737955"><ele>1271.0</ele><time>2026-05-04T09:24:05Z</time></trkpt><trkpt lat="32.058216050114474" lon="-6.108076900712146"><ele>1271.0</ele><time>2026-05-04T09:24:06Z</time></trkpt><trkpt lat="32.05822421763879" lon="-6.108188298427647"><ele>1271.0</ele><time>2026-05-04T09:24:07Z</time></trkpt><trkpt lat="32.05824297513403" lon="-6.108284605052659"><ele>1269.8</ele><time>2026-05-04T09:24:08Z</time></trkpt><trkpt lat="32.05825891711676" lon="-6.1083641334690455"><ele>1268.6</ele><time>2026-05-04T09:24:09Z</time></trkpt><trkpt lat="32.058285859827585" lon="-6.108507383440196"><ele>1267.4</ele><time>2026-05-04T09:24:11Z</time></trkpt><trkpt lat="32.05832964786401" lon="-6.1086322544447755"><ele>1266.2</ele><time>2026-05-04T09:24:13Z</time></trkpt><trkpt lat="32.05838607947806" lon="-6.108692347901454"><ele>1265.0</ele><time>2026-05-04T09:24:14Z</time></trkpt><trkpt lat="32.058425167143206" lon="-6.1087548280800394"><ele>1260.6</ele><time>2026-05-04T09:24:15Z</time></trkpt><trkpt lat="32.05850865213644" lon="-6.108805814935101"><ele>1256.2</ele><time>2026-05-04T09:24:16Z</time></trkpt><trkpt lat="32.05854110648205" lon="-6.108945637769409"><ele>1251.8</ele><time>2026-05-04T09:24:18Z</time></trkpt><trkpt lat="32.05856102842742" lon="-6.109029292221302"><ele>1247.4</ele><time>2026-05-04T09:24:19Z</time></trkpt><trkpt lat="32.0585724698409" lon="-6.10913600432498"><ele>1243.0</ele><time>2026-05-04T09:24:20Z</time></trkpt><trkpt lat="32.058580657766996" lon="-6.1092250662301595"><ele>1242.0</ele><time>2026-05-04T09:24:21Z</time></trkpt><trkpt lat="32.05858947085084" lon="-6.10932071419296"><ele>1241.0</ele><time>2026-05-04T09:24:22Z</time></trkpt><trkpt lat="32.05857302804837" lon="-6.109432141531284"><ele>1240.0</ele><time>2026-05-04T09:24:23Z</time></trkpt><trkpt lat="32.05856513698074" lon="-6.109514273917601"><ele>1239.0</ele><time>2026-05-04T09:24:24Z</time></trkpt><trkpt lat="32.05853796916426" lon="-6.109609360078438"><ele>1238.0</ele><time>2026-05-04T09:24:25Z</time></trkpt><trkpt lat="32.058500970857416" lon="-6.109750546066677"><ele>1238.0</ele><time>2026-05-04T09:24:27Z</time></trkpt><trkpt lat="32.05846736767607" lon="-6.109832806630583"><ele>1238.0</ele><time>2026-05-04T09:24:28Z</time></trkpt><trkpt lat="32.05843155279532" lon="-6.109924139284605"><ele>1238.0</ele><time>2026-05-04T09:24:29Z</time></trkpt><trkpt lat="32.05839275042548" lon="-6.110002125145205"><ele>1238.0</ele><time>2026-05-04T09:24:30Z</time></trkpt><trkpt lat="32.058364759037076" lon="-6.110092369332267"><ele>1238.0</ele><time>2026-05-04T09:24:31Z</time></trkpt><trkpt lat="32.05835731899866" lon="-6.1101822875602885"><ele>1238.0</ele><time>2026-05-04T09:24:32Z</time></trkpt><trkpt lat="32.05832551609951" lon="-6.110268507860994"><ele>1238.3333333333335</ele><time>2026-05-04T09:24:33Z</time></trkpt><trkpt lat="32.05832762496777" lon="-6.110360189072275"><ele>1238.6666666666667</ele><time>2026-05-04T09:24:34Z</time></trkpt><trkpt lat="32.05830859392646" lon="-6.110449865446712"><ele>1239.0</ele><time>2026-05-04T09:24:35Z</time></trkpt><trkpt lat="32.05830266308947" lon="-6.110540650647324"><ele>1239.3333333333333</ele><time>2026-05-04T09:24:36Z</time></trkpt><trkpt lat="32.05827956738052" lon="-6.110636367231463"><ele>1239.6666666666665</ele><time>2026-05-04T09:24:37Z</time></trkpt><trkpt lat="32.058276907716575" lon="-6.110736069598444"><ele>1240.0</ele><time>2026-05-04T09:24:38Z</time></trkpt><trkpt lat="32.058269417575865" lon="-6.110843580920715"><ele>1243.1666666666665</ele><time>2026-05-04T09:24:38.999Z</time></trkpt><trkpt lat="32.058262953916405" lon="-6.110956832195656"><ele>1246.3333333333333</ele><time>2026-05-04T09:24:39.999Z</time></trkpt><trkpt lat="32.058256571935495" lon="-6.111041331138357"><ele>1249.5</ele><time>2026-05-04T09:24:40.999Z</time></trkpt><trkpt lat="32.058238251359704" lon="-6.111185589452379"><ele>1252.6666666666667</ele><time>2026-05-04T09:24:42.999Z</time></trkpt><trkpt lat="32.058244503321944" lon="-6.111268793176062"><ele>1255.8333333333335</ele><time>2026-05-04T09:24:43.999Z</time></trkpt><trkpt lat="32.058237999319964" lon="-6.1113572923741115"><ele>1259.0</ele><time>2026-05-04T09:24:44.999Z</time></trkpt><trkpt lat="32.05823045550261" lon="-6.111452943655332"><ele>1259.0</ele><time>2026-05-04T09:24:45.999Z</time></trkpt><trkpt lat="32.05820668583079" lon="-6.1115495934447015"><ele>1259.0</ele><time>2026-05-04T09:24:46.999Z</time></trkpt><trkpt lat="32.05818554871915" lon="-6.1116349037035995"><ele>1259.0</ele><time>2026-05-04T09:24:47.999Z</time></trkpt><trkpt lat="32.058168491949544" lon="-6.11171172865198"><ele>1259.0</ele><time>2026-05-04T09:24:48.999Z</time></trkpt><trkpt lat="32.058148972165974" lon="-6.111807577597364"><ele>1259.0</ele><time>2026-05-04T09:24:49.999Z</time></trkpt><trkpt lat="32.058130951131936" lon="-6.111895297628697"><ele>1259.0</ele><time>2026-05-04T09:24:50.999Z</time></trkpt><trkpt lat="32.05810403126092" lon="-6.1119772380351485"><ele>1254.6666666666667</ele><time>2026-05-04T09:24:51.999Z</time></trkpt><trkpt lat="32.05807813875354" lon="-6.11205423104919"><ele>1250.3333333333335</ele><time>2026-05-04T09:24:52.999Z</time></trkpt><trkpt lat="32.058052845884724" lon="-6.1121308505713685"><ele>1246.0</ele><time>2026-05-04T09:24:53.999Z</time></trkpt><trkpt lat="32.05796307417988" lon="-6.112184586391089"><ele>1241.6666666666667</ele><time>2026-05-04T09:24:54.999Z</time></trkpt><trkpt lat="32.0579061623459" lon="-6.112221226050115"><ele>1237.3333333333333</ele><time>2026-05-04T09:24:55.999Z</time></trkpt><trkpt lat="32.05785342798652" lon="-6.112275511740933"><ele>1233.0</ele><time>2026-05-04T09:24:56.999Z</time></trkpt><trkpt lat="32.05780971570103" lon="-6.1123513220999515"><ele>1232.3333333333333</ele><time>2026-05-04T09:24:57.999Z</time></trkpt><trkpt lat="32.05775801135702" lon="-6.11242115582966"><ele>1231.6666666666667</ele><time>2026-05-04T09:24:58.999Z</time></trkpt><trkpt lat="32.05770434290679" lon="-6.112494555034573"><ele>1231.0</ele><time>2026-05-04T09:24:59.999Z</time></trkpt><trkpt lat="32.05763725487671" lon="-6.1125692454820255"><ele>1230.3333333333335</ele><time>2026-05-04T09:25:00.999Z</time></trkpt><trkpt lat="32.05757669851885" lon="-6.112650804980591"><ele>1229.6666666666667</ele><time>2026-05-04T09:25:01.999Z</time></trkpt><trkpt lat="32.0575503523068" lon="-6.11274275091844"><ele>1229.0</ele><time>2026-05-04T09:25:02.999Z</time></trkpt><trkpt lat="32.05751336312894" lon="-6.112819022575022"><ele>1229.0</ele><time>2026-05-04T09:25:03.999Z</time></trkpt><trkpt lat="32.05746294841931" lon="-6.112883053451441"><ele>1229.0</ele><time>2026-05-04T09:25:05.999Z</time></trkpt><trkpt lat="32.05743969516697" lon="-6.112966595072131"><ele>1229.0</ele><time>2026-05-04T09:25:09.999Z</time></trkpt><trkpt lat="32.057377700633445" lon="-6.113055787581674"><ele>1229.0</ele><time>2026-05-04T09:26:31.999Z</time></trkpt><trkpt lat="32.05735156607277" lon="-6.113130773112197"><ele>1229.0</ele><time>2026-05-04T09:26:32.999Z</time></trkpt><trkpt lat="32.05732327670642" lon="-6.113225932903724"><ele>1229.0</ele><time>2026-05-04T09:26:33.999Z</time></trkpt><trkpt lat="32.05734708053846" lon="-6.113350220046684"><ele>1232.6000000000001</ele><time>2026-05-04T09:26:34.999Z</time></trkpt><trkpt lat="32.057328722692354" lon="-6.113474539150354"><ele>1236.2</ele><time>2026-05-04T09:26:35.999Z</time></trkpt><trkpt lat="32.05730159424762" lon="-6.113611644290982"><ele>1239.8000000000002</ele><time>2026-05-04T09:26:36.999Z</time></trkpt><trkpt lat="32.05726778772242" lon="-6.113728674460057"><ele>1243.4</ele><time>2026-05-04T09:26:37.999Z</time></trkpt><trkpt lat="32.057219978594226" lon="-6.113854576993492"><ele>1247.0</ele><time>2026-05-04T09:26:38.999Z</time></trkpt><trkpt lat="32.057171000755915" lon="-6.113954821742069"><ele>1247.0</ele><time>2026-05-04T09:26:39.999Z</time></trkpt><trkpt lat="32.05705582027198" lon="-6.1140011391968185"><ele>1247.0</ele><time>2026-05-04T09:26:40.999Z</time></trkpt><trkpt lat="32.057022526544124" lon="-6.114085232047825"><ele>1247.0</ele><time>2026-05-04T09:26:41.999Z</time></trkpt><trkpt lat="32.057003356024914" lon="-6.11415643699037"><ele>1247.0</ele><time>2026-05-04T09:26:42.999Z</time></trkpt><trkpt lat="32.05700334341579" lon="-6.114231441934364"><ele>1247.0</ele><time>2026-05-04T09:26:43.999Z</time></trkpt><trkpt lat="32.057010974846165" lon="-6.114311018966094"><ele>1247.0</ele><time>2026-05-04T09:26:44.999Z</time></trkpt><trkpt lat="32.05700353508815" lon="-6.114388900356134"><ele>1244.4</ele><time>2026-05-04T09:26:45.999Z</time></trkpt><trkpt lat="32.056960057471194" lon="-6.11451866768909"><ele>1241.8000000000002</ele><time>2026-05-04T09:26:47.999Z</time></trkpt><trkpt lat="32.0569437801289" lon="-6.11466341124664"><ele>1239.2</ele><time>2026-05-04T09:26:49.999Z</time></trkpt><trkpt lat="32.05693545845138" lon="-6.114803360544413"><ele>1236.6000000000001</ele><time>2026-05-04T09:26:51.999Z</time></trkpt><trkpt lat="32.05692588413515" lon="-6.114877925266361"><ele>1234.0</ele><time>2026-05-04T09:26:52.999Z</time></trkpt><trkpt lat="32.05691295540035" lon="-6.115035008939394"><ele>1232.5</ele><time>2026-05-04T09:26:54.999Z</time></trkpt><trkpt lat="32.05695871848494" lon="-6.115130008846668"><ele>1231.0</ele><time>2026-05-04T09:26:55.999Z</time></trkpt><trkpt lat="32.05695528003008" lon="-6.11520802664561"><ele>1229.5</ele><time>2026-05-04T09:26:56.999Z</time></trkpt><trkpt lat="32.056955008348545" lon="-6.115287876428562"><ele>1228.0</ele><time>2026-05-04T09:26:57.999Z</time></trkpt><trkpt lat="32.05695474118637" lon="-6.115366398073269"><ele>1226.5</ele><time>2026-05-04T09:26:58.999Z</time></trkpt><trkpt lat="32.056954136952825" lon="-6.1155212013906555"><ele>1225.0</ele><time>2026-05-04T09:27:00.999Z</time></trkpt><trkpt lat="32.05695354373907" lon="-6.115601104704223"><ele>1225.0</ele><time>2026-05-04T09:27:01.999Z</time></trkpt><trkpt lat="32.056952921499324" lon="-6.115684917788789"><ele>1225.0</ele><time>2026-05-04T09:27:02.999Z</time></trkpt><trkpt lat="32.056949357521255" lon="-6.115774399629262"><ele>1225.0</ele><time>2026-05-04T09:27:03.999Z</time></trkpt><trkpt lat="32.056940117123055" lon="-6.115871194245645"><ele>1225.0</ele><time>2026-05-04T09:27:04.999Z</time></trkpt><trkpt lat="32.05695656072634" lon="-6.115964961553396"><ele>1225.0</ele><time>2026-05-04T09:27:05.999Z</time></trkpt><trkpt lat="32.05695949411419" lon="-6.116058425874002"><ele>1225.0</ele><time>2026-05-04T09:27:06.999Z</time></trkpt><trkpt lat="32.05696459285513" lon="-6.116148981407504"><ele>1225.0</ele><time>2026-05-04T09:27:07.999Z</time></trkpt><trkpt lat="32.05696665415849" lon="-6.116231836735826"><ele>1225.0</ele><time>2026-05-04T09:27:08.999Z</time></trkpt><trkpt lat="32.05696648569049" lon="-6.116312442457177"><ele>1225.0</ele><time>2026-05-04T09:27:09.999Z</time></trkpt><trkpt lat="32.05698765332997" lon="-6.116388998783322"><ele>1225.0</ele><time>2026-05-04T09:27:10.999Z</time></trkpt><trkpt lat="32.05699203532824" lon="-6.116463176746667"><ele>1225.0</ele><time>2026-05-04T09:27:11.999Z</time></trkpt><trkpt lat="32.05700887991058" lon="-6.116535304120058"><ele>1225.0</ele><time>2026-05-04T09:27:12.999Z</time></trkpt><trkpt lat="32.05703107890298" lon="-6.116617389536474"><ele>1225.0</ele><time>2026-05-04T09:27:13.999Z</time></trkpt><trkpt lat="32.05705515394334" lon="-6.116706526975825"><ele>1225.5</ele><time>2026-05-04T09:27:14.999Z</time></trkpt><trkpt lat="32.057079668179874" lon="-6.116794319448155"><ele>1226.0</ele><time>2026-05-04T09:27:15.999Z</time></trkpt><trkpt lat="32.05711610349582" lon="-6.116874410376732"><ele>1226.5</ele><time>2026-05-04T09:27:16.999Z</time></trkpt><trkpt lat="32.057147467705214" lon="-6.116947414626059"><ele>1227.0</ele><time>2026-05-04T09:27:17.999Z</time></trkpt><trkpt lat="32.057180017248314" lon="-6.117024615827093"><ele>1227.5</ele><time>2026-05-04T09:27:18.999Z</time></trkpt><trkpt lat="32.05721004057928" lon="-6.117098443281836"><ele>1228.0</ele><time>2026-05-04T09:27:19.999Z</time></trkpt><trkpt lat="32.057245503049074" lon="-6.117240565284607"><ele>1228.0</ele><time>2026-05-04T09:27:21.999Z</time></trkpt><trkpt lat="32.057289206574495" lon="-6.11731258084805"><ele>1228.0</ele><time>2026-05-04T09:27:22.999Z</time></trkpt><trkpt lat="32.057328687290294" lon="-6.11744802559747"><ele>1228.0</ele><time>2026-05-04T09:27:24.999Z</time></trkpt><trkpt lat="32.0573473097651" lon="-6.117601548807687"><ele>1228.0</ele><time>2026-05-04T09:27:26.999Z</time></trkpt><trkpt lat="32.05737765710841" lon="-6.117672247597498"><ele>1228.0</ele><time>2026-05-04T09:27:27.999Z</time></trkpt><trkpt lat="32.05737611283732" lon="-6.117761170496261"><ele>1226.9999999999998</ele><time>2026-05-04T09:27:28.999Z</time></trkpt><trkpt lat="32.05737056046107" lon="-6.117853168507854"><ele>1226.0</ele><time>2026-05-04T09:27:29.999Z</time></trkpt><trkpt lat="32.05735151741647" lon="-6.117942676995409"><ele>1225.0</ele><time>2026-05-04T09:27:30.999Z</time></trkpt><trkpt lat="32.057336186911186" lon="-6.118036139786575"><ele>1224.0</ele><time>2026-05-04T09:27:31.999Z</time></trkpt><trkpt lat="32.05732340568028" lon="-6.118114279816549"><ele>1223.0</ele><time>2026-05-04T09:27:32.999Z</time></trkpt><trkpt lat="32.05729145060366" lon="-6.118184752351271"><ele>1221.9999999999998</ele><time>2026-05-04T09:27:33.999Z</time></trkpt><trkpt lat="32.05725880582194" lon="-6.1182586951779045"><ele>1221.0</ele><time>2026-05-04T09:27:34.999Z</time></trkpt><trkpt lat="32.057221027566506" lon="-6.1183288639995705"><ele>1221.0</ele><time>2026-05-04T09:27:35.999Z</time></trkpt><trkpt lat="32.05717044656001" lon="-6.118397220998999"><ele>1221.0</ele><time>2026-05-04T09:27:36.999Z</time></trkpt><trkpt lat="32.05711165789048" lon="-6.118456451946735"><ele>1221.0</ele><time>2026-05-04T09:27:37.999Z</time></trkpt><trkpt lat="32.057045539046925" lon="-6.11851288240642"><ele>1221.0</ele><time>2026-05-04T09:27:38.999Z</time></trkpt><trkpt lat="32.0569909098486" lon="-6.1185589648678675"><ele>1221.0</ele><time>2026-05-04T09:27:39.999Z</time></trkpt><trkpt lat="32.05691646974523" lon="-6.118654971073467"><ele>1221.0</ele><time>2026-05-04T09:27:41.999Z</time></trkpt><trkpt lat="32.05679825738749" lon="-6.118700523800191"><ele>1221.0</ele><time>2026-05-04T09:27:43.999Z</time></trkpt><trkpt lat="32.056711448713784" lon="-6.1187625881705445"><ele>1221.0</ele><time>2026-05-04T09:27:45.999Z</time></trkpt><trkpt lat="32.05665965901525" lon="-6.118821490711035"><ele>1221.0</ele><time>2026-05-04T09:27:46.999Z</time></trkpt><trkpt lat="32.05660085871157" lon="-6.118871415654245"><ele>1221.0</ele><time>2026-05-04T09:27:47.999Z</time></trkpt><trkpt lat="32.05654525155407" lon="-6.118936306939722"><ele>1221.0</ele><time>2026-05-04T09:27:48.998Z</time></trkpt><trkpt lat="32.05649092183877" lon="-6.11901592097093"><ele>1221.0</ele><time>2026-05-04T09:27:49.998Z</time></trkpt><trkpt lat="32.05643688468744" lon="-6.11909709908997"><ele>1219.3999999999999</ele><time>2026-05-04T09:27:50.998Z</time></trkpt><trkpt lat="32.05638149543032" lon="-6.119171948205469"><ele>1217.8</ele><time>2026-05-04T09:27:51.998Z</time></trkpt><trkpt lat="32.05631451528343" lon="-6.119253049108183"><ele>1216.1999999999998</ele><time>2026-05-04T09:27:52.998Z</time></trkpt><trkpt lat="32.05625039986162" lon="-6.119334985818892"><ele>1214.6</ele><time>2026-05-04T09:27:53.998Z</time></trkpt><trkpt lat="32.05618473238492" lon="-6.119412020603297"><ele>1213.0</ele><time>2026-05-04T09:27:54.998Z</time></trkpt><trkpt lat="32.05610930162754" lon="-6.119497153050082"><ele>1213.0</ele><time>2026-05-04T09:27:55.998Z</time></trkpt><trkpt lat="32.05602395156931" lon="-6.119587837423749"><ele>1213.0</ele><time>2026-05-04T09:27:56.998Z</time></trkpt><trkpt lat="32.055934110341674" lon="-6.119679127812106"><ele>1213.0</ele><time>2026-05-04T09:27:57.998Z</time></trkpt><trkpt lat="32.05585393156303" lon="-6.11975279492507"><ele>1213.0</ele><time>2026-05-04T09:27:58.998Z</time></trkpt><trkpt lat="32.055790490283336" lon="-6.119819340287072"><ele>1213.0</ele><time>2026-05-04T09:27:59.998Z</time></trkpt><trkpt lat="32.05573333558508" lon="-6.119878529825614"><ele>1215.4</ele><time>2026-05-04T09:28:00.998Z</time></trkpt><trkpt lat="32.055684918465914" lon="-6.119943918705118"><ele>1217.8</ele><time>2026-05-04T09:28:01.998Z</time></trkpt><trkpt lat="32.055635725374124" lon="-6.120037607126357"><ele>1220.2</ele><time>2026-05-04T09:28:02.998Z</time></trkpt><trkpt lat="32.05558474934272" lon="-6.120143369375193"><ele>1222.6</ele><time>2026-05-04T09:28:03.998Z</time></trkpt><trkpt lat="32.05552735761631" lon="-6.1202384135903705"><ele>1225.0</ele><time>2026-05-04T09:28:04.998Z</time></trkpt><trkpt lat="32.055460985280156" lon="-6.120342393881568"><ele>1225.0</ele><time>2026-05-04T09:28:05.998Z</time></trkpt><trkpt lat="32.055400822205186" lon="-6.120442060696481"><ele>1225.0</ele><time>2026-05-04T09:28:06.998Z</time></trkpt><trkpt lat="32.05534227457241" lon="-6.120529706984472"><ele>1225.0</ele><time>2026-05-04T09:28:07.998Z</time></trkpt><trkpt lat="32.05528563592262" lon="-6.120614422441691"><ele>1225.0</ele><time>2026-05-04T09:28:08.998Z</time></trkpt><trkpt lat="32.0552309112218" lon="-6.120699226532929"><ele>1225.0</ele><time>2026-05-04T09:28:09.998Z</time></trkpt><trkpt lat="32.05517381047499" lon="-6.120800948138957"><ele>1223.0</ele><time>2026-05-04T09:28:10.998Z</time></trkpt><trkpt lat="32.05512594801491" lon="-6.120907786462406"><ele>1221.0</ele><time>2026-05-04T09:28:11.999Z</time></trkpt><trkpt lat="32.05508066682673" lon="-6.121025145436816"><ele>1219.0</ele><time>2026-05-04T09:28:12.999Z</time></trkpt><trkpt lat="32.055041816758106" lon="-6.12113222639402"><ele>1217.0</ele><time>2026-05-04T09:28:13.999Z</time></trkpt><trkpt lat="32.055008558281195" lon="-6.121216618339237"><ele>1215.0</ele><time>2026-05-04T09:28:14.999Z</time></trkpt><trkpt lat="32.0549748875674" lon="-6.121304560461742"><ele>1217.1666666666667</ele><time>2026-05-04T09:28:15.999Z</time></trkpt><trkpt lat="32.054937426565765" lon="-6.121374459243976"><ele>1219.3333333333333</ele><time>2026-05-04T09:28:16.999Z</time></trkpt><trkpt lat="32.05489801817304" lon="-6.121447928849981"><ele>1221.5</ele><time>2026-05-04T09:28:17.999Z</time></trkpt><trkpt lat="32.05485324403779" lon="-6.121514783356485"><ele>1223.6666666666665</ele><time>2026-05-04T09:28:18.999Z</time></trkpt><trkpt lat="32.05479750151394" lon="-6.121572120419154"><ele>1225.8333333333333</ele><time>2026-05-04T09:28:19.999Z</time></trkpt><trkpt lat="32.054723752367074" lon="-6.121619660922611"><ele>1228.0</ele><time>2026-05-04T09:28:20.999Z</time></trkpt><trkpt lat="32.054652104077995" lon="-6.121669607965253"><ele>1228.4</ele><time>2026-05-04T09:28:21.999Z</time></trkpt><trkpt lat="32.0545950915969" lon="-6.121718247575209"><ele>1228.8</ele><time>2026-05-04T09:28:22.999Z</time></trkpt><trkpt lat="32.0544945929231" lon="-6.121787336021687"><ele>1229.2</ele><time>2026-05-04T09:28:24.999Z</time></trkpt><trkpt lat="32.05438920295954" lon="-6.121723252602641"><ele>1229.6</ele><time>2026-05-04T09:28:26.999Z</time></trkpt><trkpt lat="32.054334369395704" lon="-6.121686296917997"><ele>1230.0</ele><time>2026-05-04T09:28:27.999Z</time></trkpt><trkpt lat="32.05424860914235" lon="-6.121664975785666"><ele>1230.0</ele><time>2026-05-04T09:28:29.999Z</time></trkpt><trkpt lat="32.0541333862989" lon="-6.121690527615636"><ele>1230.0</ele><time>2026-05-04T09:28:31.999Z</time></trkpt><trkpt lat="32.054057664323786" lon="-6.1217187450889154"><ele>1230.0</ele><time>2026-05-04T09:28:32.999Z</time></trkpt><trkpt lat="32.05397278378706" lon="-6.121735890659091"><ele>1230.0</ele><time>2026-05-04T09:28:33.999Z</time></trkpt><trkpt lat="32.053898837149184" lon="-6.121760591032827"><ele>1230.0</ele><time>2026-05-04T09:28:34.999Z</time></trkpt><trkpt lat="32.053831560564845" lon="-6.121780077455199"><ele>1230.0</ele><time>2026-05-04T09:28:35.999Z</time></trkpt><trkpt lat="32.053738054361176" lon="-6.121819957147606"><ele>1227.2</ele><time>2026-05-04T09:28:37.999Z</time></trkpt><trkpt lat="32.05364105012145" lon="-6.121833584932235"><ele>1224.4</ele><time>2026-05-04T09:28:45.999Z</time></trkpt><trkpt lat="32.05353427628579" lon="-6.121879494649027"><ele>1221.6</ele><time>2026-05-04T09:28:47.999Z</time></trkpt><trkpt lat="32.05346881135229" lon="-6.121899922578356"><ele>1218.8</ele><time>2026-05-04T09:28:48.999Z</time></trkpt><trkpt lat="32.053386794747844" lon="-6.121952916423319"><ele>1216.0</ele><time>2026-05-04T09:28:49.999Z</time></trkpt><trkpt lat="32.05330266167121" lon="-6.1220050642230435"><ele>1221.3999999999999</ele><time>2026-05-04T09:28:50.999Z</time></trkpt><trkpt lat="32.05321655528676" lon="-6.122055922073525"><ele>1226.8</ele><time>2026-05-04T09:28:51.999Z</time></trkpt><trkpt lat="32.05312759702663" lon="-6.122122052081592"><ele>1232.1999999999998</ele><time>2026-05-04T09:28:52.999Z</time></trkpt><trkpt lat="32.05304463594575" lon="-6.122196414755045"><ele>1237.6</ele><time>2026-05-04T09:28:53.999Z</time></trkpt><trkpt lat="32.05297360705712" lon="-6.122267137227772"><ele>1243.0</ele><time>2026-05-04T09:28:54.999Z</time></trkpt><trkpt lat="32.05292073523255" lon="-6.122335439969048"><ele>1239.5</ele><time>2026-05-04T09:28:55.999Z</time></trkpt><trkpt lat="32.052869810355325" lon="-6.1224299868886725"><ele>1236.0</ele><time>2026-05-04T09:28:56.999Z</time></trkpt><trkpt lat="32.05281988170085" lon="-6.122535217587591"><ele>1232.5</ele><time>2026-05-04T09:28:57.999Z</time></trkpt><trkpt lat="32.052781161173776" lon="-6.122632229655224"><ele>1229.0</ele><time>2026-05-04T09:28:58.999Z</time></trkpt><trkpt lat="32.052756261872" lon="-6.12271706133211"><ele>1225.5</ele><time>2026-05-04T09:28:59.999Z</time></trkpt><trkpt lat="32.05275415708217" lon="-6.1228006451405115"><ele>1222.0</ele><time>2026-05-04T09:29:00.999Z</time></trkpt><trkpt lat="32.05275992838836" lon="-6.122906358186406"><ele>1222.0</ele><time>2026-05-04T09:29:01.999Z</time></trkpt><trkpt lat="32.05276807665911" lon="-6.123022435495792"><ele>1222.0</ele><time>2026-05-04T09:29:02.999Z</time></trkpt><trkpt lat="32.05276754004197" lon="-6.123127490674017"><ele>1222.0</ele><time>2026-05-04T09:29:03.999Z</time></trkpt><trkpt lat="32.052747536557355" lon="-6.12322411316053"><ele>1222.0</ele><time>2026-05-04T09:29:04.999Z</time></trkpt><trkpt lat="32.05273860945356" lon="-6.1233348040603985"><ele>1222.0</ele><time>2026-05-04T09:29:05.999Z</time></trkpt><trkpt lat="32.052736538629695" lon="-6.123437269446287"><ele>1221.1666666666665</ele><time>2026-05-04T09:29:06.999Z</time></trkpt><trkpt lat="32.05273374646053" lon="-6.123525529581227"><ele>1220.3333333333333</ele><time>2026-05-04T09:29:07.999Z</time></trkpt><trkpt lat="32.05273948610496" lon="-6.123605789704172"><ele>1219.5</ele><time>2026-05-04T09:29:08.999Z</time></trkpt><trkpt lat="32.052721146553694" lon="-6.123687585720881"><ele>1218.6666666666667</ele><time>2026-05-04T09:29:09.999Z</time></trkpt><trkpt lat="32.05267979309122" lon="-6.1237708885662006"><ele>1217.8333333333335</ele><time>2026-05-04T09:29:10.999Z</time></trkpt><trkpt lat="32.05263310937005" lon="-6.123856716374366"><ele>1217.0</ele><time>2026-05-04T09:29:11.999Z</time></trkpt><trkpt lat="32.05260208076594" lon="-6.123935650942289"><ele>1217.0</ele><time>2026-05-04T09:29:12.999Z</time></trkpt><trkpt lat="32.052563872437645" lon="-6.124017768251621"><ele>1217.0</ele><time>2026-05-04T09:29:13.999Z</time></trkpt><trkpt lat="32.05250980682332" lon="-6.124085702718602"><ele>1217.0</ele><time>2026-05-04T09:29:14.999Z</time></trkpt><trkpt lat="32.052446301188496" lon="-6.124138593012871"><ele>1217.0</ele><time>2026-05-04T09:29:15.999Z</time></trkpt><trkpt lat="32.05238716323863" lon="-6.124191871946206"><ele>1217.0</ele><time>2026-05-04T09:29:16.999Z</time></trkpt><trkpt lat="32.0523312788343" lon="-6.124277477180989"><ele>1217.0</ele><time>2026-05-04T09:29:17.999Z</time></trkpt><trkpt lat="32.05227217573316" lon="-6.12436967286507"><ele>1216.4</ele><time>2026-05-04T09:29:18.999Z</time></trkpt><trkpt lat="32.05221154052501" lon="-6.124451811431326"><ele>1215.8000000000002</ele><time>2026-05-04T09:29:19.999Z</time></trkpt><trkpt lat="32.05213804055046" lon="-6.124539576339538"><ele>1215.2</ele><time>2026-05-04T09:29:20.999Z</time></trkpt><trkpt lat="32.05206380141131" lon="-6.124621551943407"><ele>1214.6000000000001</ele><time>2026-05-04T09:29:21.999Z</time></trkpt><trkpt lat="32.05199427680941" lon="-6.124694646883913"><ele>1214.0</ele><time>2026-05-04T09:29:22.999Z</time></trkpt><trkpt lat="32.05193142092589" lon="-6.124755034995167"><ele>1214.0</ele><time>2026-05-04T09:29:23.999Z</time></trkpt><trkpt lat="32.051873118166974" lon="-6.124818017976897"><ele>1214.0</ele><time>2026-05-04T09:29:24.999Z</time></trkpt><trkpt lat="32.05180238251848" lon="-6.124869323346796"><ele>1214.0</ele><time>2026-05-04T09:29:25.999Z</time></trkpt><trkpt lat="32.05171370249896" lon="-6.124916456258699"><ele>1214.0</ele><time>2026-05-04T09:29:26.999Z</time></trkpt><trkpt lat="32.05162715372687" lon="-6.124966399082813"><ele>1214.0</ele><time>2026-05-04T09:29:27.999Z</time></trkpt><trkpt lat="32.051550393419724" lon="-6.125024837053207"><ele>1214.0</ele><time>2026-05-04T09:29:28.999Z</time></trkpt><trkpt lat="32.05147186608338" lon="-6.125097475890142"><ele>1213.4</ele><time>2026-05-04T09:29:29.999Z</time></trkpt><trkpt lat="32.051398444975035" lon="-6.125169671508405"><ele>1212.8000000000002</ele><time>2026-05-04T09:29:30.999Z</time></trkpt><trkpt lat="32.05133682655147" lon="-6.125225654182223"><ele>1212.1999999999998</ele><time>2026-05-04T09:29:31.999Z</time></trkpt><trkpt lat="32.05123685954123" lon="-6.1253055115160215"><ele>1211.6</ele><time>2026-05-04T09:29:33.999Z</time></trkpt><trkpt lat="32.05117412289352" lon="-6.125291690313111"><ele>1211.0</ele><time>2026-05-04T09:29:34.999Z</time></trkpt><trkpt lat="32.05106599983547" lon="-6.125371928298246"><ele>1211.0</ele><time>2026-05-04T09:29:36.999Z</time></trkpt><trkpt lat="32.05100017224119" lon="-6.125392713863156"><ele>1211.0</ele><time>2026-05-04T09:29:37.999Z</time></trkpt><trkpt lat="32.05096056222584" lon="-6.125472886068251"><ele>1211.0</ele><time>2026-05-04T09:29:38.999Z</time></trkpt><trkpt lat="32.050897953073914" lon="-6.125521144462268"><ele>1211.0</ele><time>2026-05-04T09:29:39.999Z</time></trkpt><trkpt lat="32.05084201139346" lon="-6.125581718042521"><ele>1211.0</ele><time>2026-05-04T09:29:40.999Z</time></trkpt><trkpt lat="32.05077677078797" lon="-6.1256536309646545"><ele>1211.0</ele><time>2026-05-04T09:29:41.999Z</time></trkpt><trkpt lat="32.050718799041036" lon="-6.125726538011329"><ele>1211.6666666666667</ele><time>2026-05-04T09:29:42.999Z</time></trkpt><trkpt lat="32.05066291851519" lon="-6.125813915332569"><ele>1212.3333333333335</ele><time>2026-05-04T09:29:43.999Z</time></trkpt><trkpt lat="32.050604220893995" lon="-6.125875191851189"><ele>1213.0</ele><time>2026-05-04T09:29:44.999Z</time></trkpt><trkpt lat="32.050537496844846" lon="-6.125929118261204"><ele>1213.6666666666667</ele><time>2026-05-04T09:29:45.999Z</time></trkpt><trkpt lat="32.05047803051665" lon="-6.125988132229344"><ele>1214.3333333333333</ele><time>2026-05-04T09:29:46.999Z</time></trkpt><trkpt lat="32.05043518061801" lon="-6.126059057367953"><ele>1215.0</ele><time>2026-05-04T09:29:47.999Z</time></trkpt><trkpt lat="32.05037145847793" lon="-6.126096175192249"><ele>1215.0</ele><time>2026-05-04T09:29:48.999Z</time></trkpt><trkpt lat="32.05028802688257" lon="-6.126176418659727"><ele>1215.0</ele><time>2026-05-04T09:29:50.999Z</time></trkpt><trkpt lat="32.050188337392946" lon="-6.126225073074684"><ele>1215.0</ele><time>2026-05-04T09:29:52.999Z</time></trkpt><trkpt lat="32.05012693352699" lon="-6.1262435878115475"><ele>1215.0</ele><time>2026-05-04T09:29:53.999Z</time></trkpt><trkpt lat="32.05001635798988" lon="-6.126303385120809"><ele>1215.0</ele><time>2026-05-04T09:29:55.999Z</time></trkpt><trkpt lat="32.04995827147857" lon="-6.12634779446381"><ele>1214.5714285714287</ele><time>2026-05-04T09:29:56.999Z</time></trkpt><trkpt lat="32.049900497359815" lon="-6.126378716583917"><ele>1214.142857142857</ele><time>2026-05-04T09:29:57.999Z</time></trkpt><trkpt lat="32.049837375217685" lon="-6.126420544738091"><ele>1213.7142857142858</ele><time>2026-05-04T09:29:58.999Z</time></trkpt><trkpt lat="32.04977830281091" lon="-6.126480083575491"><ele>1213.2857142857142</ele><time>2026-05-04T09:29:59.999Z</time></trkpt><trkpt lat="32.04972611017145" lon="-6.126546365493994"><ele>1212.857142857143</ele><time>2026-05-04T09:30:00.999Z</time></trkpt><trkpt lat="32.049664914761756" lon="-6.126592243270397"><ele>1212.4285714285716</ele><time>2026-05-04T09:30:01.999Z</time></trkpt><trkpt lat="32.04959963095281" lon="-6.126639582356762"><ele>1212.0</ele><time>2026-05-04T09:30:02.999Z</time></trkpt><trkpt lat="32.04952958969579" lon="-6.126689121043107"><ele>1212.0</ele><time>2026-05-04T09:30:03.999Z</time></trkpt><trkpt lat="32.04946155478924" lon="-6.126727292022005"><ele>1212.0</ele><time>2026-05-04T09:30:04.999Z</time></trkpt><trkpt lat="32.049394929160414" lon="-6.1267606846165705"><ele>1212.0</ele><time>2026-05-04T09:30:05.999Z</time></trkpt><trkpt lat="32.04932551330566" lon="-6.126767768671405"><ele>1212.0</ele><time>2026-05-04T09:30:06.999Z</time></trkpt><trkpt lat="32.0492285332713" lon="-6.126827792407701"><ele>1212.0</ele><time>2026-05-04T09:30:08.999Z</time></trkpt><trkpt lat="32.04913176547241" lon="-6.126875564940014"><ele>1212.0</ele><time>2026-05-04T09:30:10.999Z</time></trkpt><trkpt lat="32.04907843005008" lon="-6.126916449236266"><ele>1212.8333333333333</ele><time>2026-05-04T09:30:11.999Z</time></trkpt><trkpt lat="32.0490033871426" lon="-6.126955563533114"><ele>1213.6666666666667</ele><time>2026-05-04T09:30:12.999Z</time></trkpt><trkpt lat="32.04893103615218" lon="-6.126981741192965"><ele>1214.5</ele><time>2026-05-04T09:30:13.999Z</time></trkpt><trkpt lat="32.048888408709736" lon="-6.127043771614207"><ele>1215.3333333333335</ele><time>2026-05-04T09:30:14.999Z</time></trkpt><trkpt lat="32.048837796121425" lon="-6.127087993324176"><ele>1216.1666666666667</ele><time>2026-05-04T09:30:15.999Z</time></trkpt><trkpt lat="32.04878526869898" lon="-6.127133738221311"><ele>1217.0</ele><time>2026-05-04T09:30:16.999Z</time></trkpt><trkpt lat="32.04876807081224" lon="-6.127266817528181"><ele>1217.0</ele><time>2026-05-04T09:30:19Z</time></trkpt><trkpt lat="32.048823658688825" lon="-6.1273693142495"><ele>1217.0</ele><time>2026-05-04T09:30:21Z</time></trkpt><trkpt lat="32.04879774770262" lon="-6.127456336339294"><ele>1217.0</ele><time>2026-05-04T09:30:23Z</time></trkpt><trkpt lat="32.048721525398584" lon="-6.127535818096656"><ele>1217.0</ele><time>2026-05-04T09:30:25Z</time></trkpt><trkpt lat="32.04866552333039" lon="-6.127598042472958"><ele>1217.0</ele><time>2026-05-04T09:30:26Z</time></trkpt><trkpt lat="32.04862362014962" lon="-6.127679969173174"><ele>1217.0</ele><time>2026-05-04T09:30:27Z</time></trkpt><trkpt lat="32.04857832085454" lon="-6.127761813248604"><ele>1217.5</ele><time>2026-05-04T09:30:28Z</time></trkpt><trkpt lat="32.048533937407996" lon="-6.127844575905903"><ele>1218.0</ele><time>2026-05-04T09:30:29Z</time></trkpt><trkpt lat="32.0484879964658" lon="-6.127920892254002"><ele>1218.5</ele><time>2026-05-04T09:30:30Z</time></trkpt><trkpt lat="32.04843975235634" lon="-6.127993567273857"><ele>1219.0</ele><time>2026-05-04T09:30:31Z</time></trkpt><trkpt lat="32.048394867779166" lon="-6.128062496947215"><ele>1219.5</ele><time>2026-05-04T09:30:32Z</time></trkpt><trkpt lat="32.048337221160246" lon="-6.128124216590781"><ele>1220.0</ele><time>2026-05-04T09:30:33Z</time></trkpt><trkpt lat="32.048284276143" lon="-6.128194685771047"><ele>1218.1666666666667</ele><time>2026-05-04T09:30:34Z</time></trkpt><trkpt lat="32.048229990582" lon="-6.128269331875088"><ele>1216.3333333333335</ele><time>2026-05-04T09:30:35Z</time></trkpt><trkpt lat="32.048194592649956" lon="-6.128358022951964"><ele>1214.5</ele><time>2026-05-04T09:30:36Z</time></trkpt><trkpt lat="32.04815406049376" lon="-6.128432205044207"><ele>1212.6666666666667</ele><time>2026-05-04T09:30:36.999Z</time></trkpt><trkpt lat="32.04812059713392" lon="-6.128496439605834"><ele>1210.8333333333333</ele><time>2026-05-04T09:30:37.999Z</time></trkpt><trkpt lat="32.04807168281816" lon="-6.128565347511246"><ele>1209.0</ele><time>2026-05-04T09:30:38.999Z</time></trkpt><trkpt lat="32.048041883849486" lon="-6.1286477085406"><ele>1209.0</ele><time>2026-05-04T09:30:39.999Z</time></trkpt><trkpt lat="32.04801282047207" lon="-6.128729620869937"><ele>1209.0</ele><time>2026-05-04T09:30:40.999Z</time></trkpt><trkpt lat="32.047983993505575" lon="-6.1288101084601365"><ele>1209.0</ele><time>2026-05-04T09:30:41.999Z</time></trkpt><trkpt lat="32.04795503326345" lon="-6.128890386260788"><ele>1209.0</ele><time>2026-05-04T09:30:42.999Z</time></trkpt><trkpt lat="32.04792492857922" lon="-6.128973932978587"><ele>1209.0</ele><time>2026-05-04T09:30:43.999Z</time></trkpt><trkpt lat="32.047894688566586" lon="-6.129059422845471"><ele>1209.0</ele><time>2026-05-04T09:30:44.999Z</time></trkpt><trkpt lat="32.047859970313375" lon="-6.129232093449384"><ele>1209.0</ele><time>2026-05-04T09:30:46.999Z</time></trkpt><trkpt lat="32.04781428262988" lon="-6.129323771489375"><ele>1209.0</ele><time>2026-05-04T09:30:47.999Z</time></trkpt><trkpt lat="32.04778483726284" lon="-6.1294216941413895"><ele>1209.0</ele><time>2026-05-04T09:30:48.999Z</time></trkpt><trkpt lat="32.04775634514733" lon="-6.129514548856917"><ele>1209.0</ele><time>2026-05-04T09:30:49.999Z</time></trkpt><trkpt lat="32.04773212168764" lon="-6.1295980915736825"><ele>1209.0</ele><time>2026-05-04T09:30:50.999Z</time></trkpt><trkpt lat="32.04770901232499" lon="-6.129676589458679"><ele>1209.0</ele><time>2026-05-04T09:30:51.999Z</time></trkpt><trkpt lat="32.0476530668323" lon="-6.129798271187034"><ele>1209.0</ele><time>2026-05-04T09:30:53.999Z</time></trkpt><trkpt lat="32.04761953004196" lon="-6.1298721071517095"><ele>1209.0</ele><time>2026-05-04T09:30:54.999Z</time></trkpt><trkpt lat="32.04758169236268" lon="-6.129955412132214"><ele>1209.0</ele><time>2026-05-04T09:30:55.999Z</time></trkpt><trkpt lat="32.04754387855328" lon="-6.130038664879475"><ele>1209.0</ele><time>2026-05-04T09:30:56.999Z</time></trkpt><trkpt lat="32.04746748624621" lon="-6.130123402570469"><ele>1209.0</ele><time>2026-05-04T09:30:58.999Z</time></trkpt><trkpt lat="32.04738571094478" lon="-6.130201176627145"><ele>1209.0</ele><time>2026-05-04T09:31:01.999Z</time></trkpt><trkpt lat="32.04732514280417" lon="-6.130232259210156"><ele>1214.0</ele><time>2026-05-04T09:31:02.999Z</time></trkpt><trkpt lat="32.047267437185454" lon="-6.130262992027916"><ele>1219.0</ele><time>2026-05-04T09:31:03.999Z</time></trkpt><trkpt lat="32.0471560841937" lon="-6.130259385415226"><ele>1224.0</ele><time>2026-05-04T09:31:05.999Z</time></trkpt><trkpt lat="32.04704121317442" lon="-6.130248485227079"><ele>1229.0</ele><time>2026-05-04T09:31:07.999Z</time></trkpt><trkpt lat="32.04697396476846" lon="-6.1302827724232705"><ele>1234.0</ele><time>2026-05-04T09:31:08.999Z</time></trkpt><trkpt lat="32.04687994302848" lon="-6.130313763206898"><ele>1234.0</ele><time>2026-05-04T09:31:10.999Z</time></trkpt><trkpt lat="32.04676190399007" lon="-6.130386128548258"><ele>1234.0</ele><time>2026-05-04T09:31:12.999Z</time></trkpt><trkpt lat="32.04668703224722" lon="-6.130422825897232"><ele>1234.0</ele><time>2026-05-04T09:31:13.999Z</time></trkpt><trkpt lat="32.04660756178273" lon="-6.130460675085274"><ele>1234.0</ele><time>2026-05-04T09:31:14.999Z</time></trkpt><trkpt lat="32.046528459958026" lon="-6.130483913136992"><ele>1234.0</ele><time>2026-05-04T09:31:15.999Z</time></trkpt><trkpt lat="32.046467209011865" lon="-6.130527903978843"><ele>1235.8</ele><time>2026-05-04T09:31:16.999Z</time></trkpt><trkpt lat="32.04634841926652" lon="-6.130569527896495"><ele>1237.6000000000001</ele><time>2026-05-04T09:31:18.999Z</time></trkpt><trkpt lat="32.04627517792384" lon="-6.130595513887036"><ele>1239.4</ele><time>2026-05-04T09:31:19.999Z</time></trkpt><trkpt lat="32.04620019171132" lon="-6.130621289432048"><ele>1241.2</ele><time>2026-05-04T09:31:20.999Z</time></trkpt><trkpt lat="32.04610038411996" lon="-6.1305938458426965"><ele>1243.0</ele><time>2026-05-04T09:31:21.999Z</time></trkpt><trkpt lat="32.046033525937446" lon="-6.130568528750144"><ele>1243.0</ele><time>2026-05-04T09:31:22.999Z</time></trkpt><trkpt lat="32.04596892602255" lon="-6.13059199321568"><ele>1243.0</ele><time>2026-05-04T09:31:23.999Z</time></trkpt><trkpt lat="32.045843031586394" lon="-6.130618323288529"><ele>1243.0</ele><time>2026-05-04T09:31:25.999Z</time></trkpt><trkpt lat="32.04576640176914" lon="-6.130633436909749"><ele>1243.0</ele><time>2026-05-04T09:31:26.999Z</time></trkpt><trkpt lat="32.04569012746058" lon="-6.13064873800421"><ele>1243.0</ele><time>2026-05-04T09:31:27.999Z</time></trkpt><trkpt lat="32.04561660374931" lon="-6.130663674595823"><ele>1243.0</ele><time>2026-05-04T09:31:28.999Z</time></trkpt><trkpt lat="32.04554096343784" lon="-6.13068483144166"><ele>1239.8333333333333</ele><time>2026-05-04T09:31:29.999Z</time></trkpt><trkpt lat="32.04543337686855" lon="-6.13068765710094"><ele>1236.6666666666665</ele><time>2026-05-04T09:32:35.999Z</time></trkpt><trkpt lat="32.04536584135337" lon="-6.130689430853987"><ele>1233.5</ele><time>2026-05-04T09:32:36.999Z</time></trkpt><trkpt lat="32.04528937860217" lon="-6.130690439170256"><ele>1230.3333333333333</ele><time>2026-05-04T09:32:37.999Z</time></trkpt><trkpt lat="32.045185583318165" lon="-6.13068529207005"><ele>1227.1666666666667</ele><time>2026-05-04T09:32:38.999Z</time></trkpt><trkpt lat="32.045101554110495" lon="-6.130677198245414"><ele>1224.0</ele><time>2026-05-04T09:32:39.999Z</time></trkpt><trkpt lat="32.04501366263086" lon="-6.130668732396724"><ele>1226.0</ele><time>2026-05-04T09:32:40.999Z</time></trkpt><trkpt lat="32.04491902955364" lon="-6.130660103431766"><ele>1228.0</ele><time>2026-05-04T09:32:41.999Z</time></trkpt><trkpt lat="32.0448454005931" lon="-6.130647284227836"><ele>1230.0</ele><time>2026-05-04T09:32:42.999Z</time></trkpt><trkpt lat="32.04477906301567" lon="-6.1306358202948195"><ele>1232.0</ele><time>2026-05-04T09:32:43.999Z</time></trkpt><trkpt lat="32.04471564309384" lon="-6.130624860566705"><ele>1234.0</ele><time>2026-05-04T09:32:44.999Z</time></trkpt><trkpt lat="32.044622842030066" lon="-6.130608224654154"><ele>1236.0</ele><time>2026-05-04T09:32:46.999Z</time></trkpt><trkpt lat="32.04450257741643" lon="-6.130588630360542"><ele>1236.0</ele><time>2026-05-04T09:32:48.999Z</time></trkpt><trkpt lat="32.04441705752959" lon="-6.130553494746062"><ele>1236.0</ele><time>2026-05-04T09:32:49.999Z</time></trkpt><trkpt lat="32.04434052511775" lon="-6.13051811510507"><ele>1236.0</ele><time>2026-05-04T09:32:50.999Z</time></trkpt><trkpt lat="32.044258312731316" lon="-6.1304795683754145"><ele>1236.0</ele><time>2026-05-04T09:32:51.999Z</time></trkpt><trkpt lat="32.04418724456275" lon="-6.130443908158715"><ele>1236.0</ele><time>2026-05-04T09:32:52.999Z</time></trkpt><trkpt lat="32.044118965295695" lon="-6.130403569011758"><ele>1236.0</ele><time>2026-05-04T09:32:53.999Z</time></trkpt><trkpt lat="32.04404429035074" lon="-6.1303763783228336"><ele>1236.0000000000002</ele><time>2026-05-04T09:32:54.999Z</time></trkpt><trkpt lat="32.04398192617897" lon="-6.130332169690521"><ele>1236.0</ele><time>2026-05-04T09:32:55.999Z</time></trkpt><trkpt lat="32.04391775095918" lon="-6.130295345366801"><ele>1236.0</ele><time>2026-05-04T09:32:56.999Z</time></trkpt><trkpt lat="32.043848611687146" lon="-6.130256303378489"><ele>1236.0</ele><time>2026-05-04T09:32:57.999Z</time></trkpt><trkpt lat="32.04378528427179" lon="-6.130220155603504"><ele>1236.0</ele><time>2026-05-04T09:32:58.999Z</time></trkpt><trkpt lat="32.04371305537578" lon="-6.130180299121142"><ele>1236.0000000000002</ele><time>2026-05-04T09:32:59.999Z</time></trkpt><trkpt lat="32.0436425593904" lon="-6.130148315798354"><ele>1236.0</ele><time>2026-05-04T09:33:00.999Z</time></trkpt><trkpt lat="32.04356989681488" lon="-6.130105320402045"><ele>1236.0</ele><time>2026-05-04T09:33:01.999Z</time></trkpt><trkpt lat="32.043487707223655" lon="-6.130057372898684"><ele>1236.0</ele><time>2026-05-04T09:33:02.999Z</time></trkpt><trkpt lat="32.04340467586311" lon="-6.130009604075265"><ele>1236.0</ele><time>2026-05-04T09:33:03.999Z</time></trkpt><trkpt lat="32.043319201691155" lon="-6.1299771976414625"><ele>1236.0</ele><time>2026-05-04T09:33:04.999Z</time></trkpt><trkpt lat="32.04324338418947" lon="-6.129956889704555"><ele>1236.0</ele><time>2026-05-04T09:33:05.999Z</time></trkpt><trkpt lat="32.04316016571922" lon="-6.129923892971651"><ele>1236.0</ele><time>2026-05-04T09:33:06.999Z</time></trkpt><trkpt lat="32.043081298487934" lon="-6.129897488453809"><ele>1237.5</ele><time>2026-05-04T09:33:07.999Z</time></trkpt><trkpt lat="32.04299851977501" lon="-6.129869393586271"><ele>1239.0</ele><time>2026-05-04T09:33:08.999Z</time></trkpt><trkpt lat="32.042915207662155" lon="-6.129840960621786"><ele>1240.5</ele><time>2026-05-04T09:33:09.999Z</time></trkpt><trkpt lat="32.04282971621984" lon="-6.129811576842496"><ele>1242.0</ele><time>2026-05-04T09:33:10.999Z</time></trkpt><trkpt lat="32.04274709483024" lon="-6.129784569211553"><ele>1243.5</ele><time>2026-05-04T09:33:11.999Z</time></trkpt><trkpt lat="32.04266199222545" lon="-6.129755166757415"><ele>1245.0</ele><time>2026-05-04T09:33:12.999Z</time></trkpt><trkpt lat="32.042580545610775" lon="-6.129734837958896"><ele>1245.0</ele><time>2026-05-04T09:33:13.999Z</time></trkpt><trkpt lat="32.042496854302655" lon="-6.129713946313373"><ele>1245.0</ele><time>2026-05-04T09:33:14.999Z</time></trkpt><trkpt lat="32.04242661051948" lon="-6.1296969459820225"><ele>1245.0</ele><time>2026-05-04T09:33:15.999Z</time></trkpt><trkpt lat="32.04229921836865" lon="-6.129664767721502"><ele>1245.0</ele><time>2026-05-04T09:33:17.999Z</time></trkpt><trkpt lat="32.04222618573835" lon="-6.129647613285646"><ele>1245.0</ele><time>2026-05-04T09:33:18.999Z</time></trkpt><trkpt lat="32.04215362550448" lon="-6.129630261930467"><ele>1245.0</ele><time>2026-05-04T09:33:19.999Z</time></trkpt><trkpt lat="32.04208258344433" lon="-6.12961352166834"><ele>1239.5714285714284</ele><time>2026-05-04T09:33:21Z</time></trkpt><trkpt lat="32.042012452507784" lon="-6.129600381937168"><ele>1234.142857142857</ele><time>2026-05-04T09:33:22Z</time></trkpt><trkpt lat="32.04193880044916" lon="-6.129586854500698"><ele>1228.7142857142858</ele><time>2026-05-04T09:33:23Z</time></trkpt><trkpt lat="32.041873946249694" lon="-6.129574934803583"><ele>1223.2857142857142</ele><time>2026-05-04T09:33:24Z</time></trkpt><trkpt lat="32.04180325205763" lon="-6.129561754021394"><ele>1217.857142857143</ele><time>2026-05-04T09:33:25Z</time></trkpt><trkpt lat="32.04173387402135" lon="-6.129548818638911"><ele>1212.4285714285713</ele><time>2026-05-04T09:33:26Z</time></trkpt><trkpt lat="32.04166409792481" lon="-6.1295358090371925"><ele>1207.0</ele><time>2026-05-04T09:33:27Z</time></trkpt><trkpt lat="32.041534650657944" lon="-6.129511886635705"><ele>1207.0</ele><time>2026-05-04T09:33:29Z</time></trkpt><trkpt lat="32.04143584929151" lon="-6.1294928413365755"><ele>1207.0</ele><time>2026-05-04T09:33:31Z</time></trkpt><trkpt lat="32.04132187300019" lon="-6.129474347029456"><ele>1207.0</ele><time>2026-05-04T09:33:33Z</time></trkpt><trkpt lat="32.04124952829529" lon="-6.1294636104578695"><ele>1207.0</ele><time>2026-05-04T09:33:34Z</time></trkpt><trkpt lat="32.041124409871934" lon="-6.129444855785108"><ele>1207.0</ele><time>2026-05-04T09:33:36Z</time></trkpt><trkpt lat="32.04105750934496" lon="-6.129434292521078"><ele>1208.2857142857142</ele><time>2026-05-04T09:33:37Z</time></trkpt><trkpt lat="32.04099214281769" lon="-6.129424625044609"><ele>1209.5714285714284</ele><time>2026-05-04T09:33:38Z</time></trkpt><trkpt lat="32.040924610795976" lon="-6.129414798289237"><ele>1210.8571428571427</ele><time>2026-05-04T09:33:39Z</time></trkpt><trkpt lat="32.040854570152064" lon="-6.129404475534861"><ele>1212.142857142857</ele><time>2026-05-04T09:33:40Z</time></trkpt><trkpt lat="32.040786182543755" lon="-6.129394396431233"><ele>1213.4285714285716</ele><time>2026-05-04T09:33:41Z</time></trkpt><trkpt lat="32.04071576193988" lon="-6.129383697566492"><ele>1214.7142857142856</ele><time>2026-05-04T09:33:42Z</time></trkpt><trkpt lat="32.04065335289896" lon="-6.129373913972616"><ele>1216.0</ele><time>2026-05-04T09:33:43Z</time></trkpt><trkpt lat="32.04058274624938" lon="-6.129363408250898"><ele>1216.0</ele><time>2026-05-04T09:33:44Z</time></trkpt><trkpt lat="32.04051315203807" lon="-6.129353053167466"><ele>1216.0</ele><time>2026-05-04T09:33:45Z</time></trkpt><trkpt lat="32.04044691733923" lon="-6.129343418227362"><ele>1216.0</ele><time>2026-05-04T09:33:46Z</time></trkpt><trkpt lat="32.04037952543996" lon="-6.129333728798055"><ele>1216.0</ele><time>2026-05-04T09:33:47Z</time></trkpt><trkpt lat="32.040312891223465" lon="-6.129317847800424"><ele>1216.0</ele><time>2026-05-04T09:33:48Z</time></trkpt><trkpt lat="32.040188248629526" lon="-6.12929103034796"><ele>1216.0</ele><time>2026-05-04T09:33:50Z</time></trkpt><trkpt lat="32.040074168203795" lon="-6.1292663776849095"><ele>1215.6</ele><time>2026-05-04T09:33:52Z</time></trkpt><trkpt lat="32.03994841018738" lon="-6.12924054608283"><ele>1215.1999999999998</ele><time>2026-05-04T09:33:54Z</time></trkpt><trkpt lat="32.03988598736491" lon="-6.129226820314906"><ele>1214.8000000000002</ele><time>2026-05-04T09:33:55Z</time></trkpt><trkpt lat="32.03977588126594" lon="-6.129202590886669"><ele>1214.4</ele><time>2026-05-04T09:33:57Z</time></trkpt><trkpt lat="32.039659106050514" lon="-6.1291788708473485"><ele>1214.0</ele><time>2026-05-04T09:33:59Z</time></trkpt><trkpt lat="32.03958210648734" lon="-6.129169925191798"><ele>1213.9999999999998</ele><time>2026-05-04T09:34:00Z</time></trkpt><trkpt lat="32.03950851497461" lon="-6.129160680868189"><ele>1214.0</ele><time>2026-05-04T09:34:01Z</time></trkpt><trkpt lat="32.03943543225575" lon="-6.129152373886302"><ele>1214.0</ele><time>2026-05-04T09:34:02Z</time></trkpt><trkpt lat="32.03936227490002" lon="-6.129144085118003"><ele>1214.0</ele><time>2026-05-04T09:34:03Z</time></trkpt><trkpt lat="32.03929114214197" lon="-6.129135585408351"><ele>1214.0</ele><time>2026-05-04T09:34:04Z</time></trkpt><trkpt lat="32.039225249542476" lon="-6.129127871715026"><ele>1213.9999999999998</ele><time>2026-05-04T09:34:05Z</time></trkpt><trkpt lat="32.03914842366851" lon="-6.1291061510308245"><ele>1214.0</ele><time>2026-05-04T09:34:06Z</time></trkpt><trkpt lat="32.03906840401787" lon="-6.129119523963083"><ele>1212.5</ele><time>2026-05-04T09:34:07Z</time></trkpt><trkpt lat="32.03898810767576" lon="-6.129133407309555"><ele>1211.0</ele><time>2026-05-04T09:34:08Z</time></trkpt><trkpt lat="32.03891498353823" lon="-6.1291451137807345"><ele>1209.5</ele><time>2026-05-04T09:34:09Z</time></trkpt><trkpt lat="32.03884316491384" lon="-6.1291570147388486"><ele>1208.0</ele><time>2026-05-04T09:34:10Z</time></trkpt><trkpt lat="32.03876420478254" lon="-6.12916061537653"><ele>1206.5</ele><time>2026-05-04T09:34:11Z</time></trkpt><trkpt lat="32.03869435149404" lon="-6.129217410214941"><ele>1205.0</ele><time>2026-05-04T09:34:12Z</time></trkpt><trkpt lat="32.03862166476966" lon="-6.129262525160947"><ele>1205.0</ele><time>2026-05-04T09:34:13Z</time></trkpt><trkpt lat="32.038552757485405" lon="-6.1293170266321795"><ele>1205.0</ele><time>2026-05-04T09:34:14Z</time></trkpt><trkpt lat="32.03847218497882" lon="-6.129344773940037"><ele>1205.0</ele><time>2026-05-04T09:34:15Z</time></trkpt><trkpt lat="32.03840481901022" lon="-6.129405797111694"><ele>1205.0</ele><time>2026-05-04T09:34:16Z</time></trkpt><trkpt lat="32.03834137505733" lon="-6.129472983550418"><ele>1205.0</ele><time>2026-05-04T09:34:17Z</time></trkpt><trkpt lat="32.038273228306004" lon="-6.1295450557057904"><ele>1205.0</ele><time>2026-05-04T09:34:18Z</time></trkpt><trkpt lat="32.038206179174026" lon="-6.1296157039983985"><ele>1204.6666666666667</ele><time>2026-05-04T09:34:19Z</time></trkpt><trkpt lat="32.03814289498511" lon="-6.12968222010789"><ele>1204.3333333333335</ele><time>2026-05-04T09:34:20Z</time></trkpt><trkpt lat="32.03811693911312" lon="-6.129786297515629"><ele>1204.0</ele><time>2026-05-04T09:34:21Z</time></trkpt><trkpt lat="32.038093708362126" lon="-6.129868045514391"><ele>1203.6666666666667</ele><time>2026-05-04T09:34:22Z</time></trkpt><trkpt lat="32.038072710043224" lon="-6.129944288265767"><ele>1203.3333333333333</ele><time>2026-05-04T09:34:23Z</time></trkpt><trkpt lat="32.03804899842227" lon="-6.130029542163706"><ele>1203.0</ele><time>2026-05-04T09:34:24Z</time></trkpt><trkpt lat="32.038020430674344" lon="-6.130127114381434"><ele>1203.0</ele><time>2026-05-04T09:34:25Z</time></trkpt><trkpt lat="32.0379819143158" lon="-6.130213696217631"><ele>1203.0</ele><time>2026-05-04T09:34:26Z</time></trkpt><trkpt lat="32.03794207877544" lon="-6.130304809690197"><ele>1203.0</ele><time>2026-05-04T09:34:27Z</time></trkpt><trkpt lat="32.03790592063831" lon="-6.130392059488848"><ele>1203.0</ele><time>2026-05-04T09:34:28Z</time></trkpt><trkpt lat="32.03786930051453" lon="-6.130479684066292"><ele>1203.0</ele><time>2026-05-04T09:34:29Z</time></trkpt><trkpt lat="32.03783325941176" lon="-6.130565923097596"><ele>1203.0</ele><time>2026-05-04T09:34:30Z</time></trkpt><trkpt lat="32.03779786359221" lon="-6.130650618110967"><ele>1202.3333333333333</ele><time>2026-05-04T09:34:31Z</time></trkpt><trkpt lat="32.0377587514927" lon="-6.130742393982947"><ele>1201.6666666666667</ele><time>2026-05-04T09:34:32Z</time></trkpt><trkpt lat="32.0377222971355" lon="-6.130829035259381"><ele>1201.0</ele><time>2026-05-04T09:34:33Z</time></trkpt><trkpt lat="32.03768652201261" lon="-6.130914001386511"><ele>1200.3333333333335</ele><time>2026-05-04T09:34:34Z</time></trkpt><trkpt lat="32.0376532830468" lon="-6.130993516370584"><ele>1199.6666666666667</ele><time>2026-05-04T09:34:35Z</time></trkpt><trkpt lat="32.03761699604637" lon="-6.131064054814891"><ele>1199.0</ele><time>2026-05-04T09:34:36Z</time></trkpt><trkpt lat="32.03758038234434" lon="-6.131138144385479"><ele>1199.0</ele><time>2026-05-04T09:34:37Z</time></trkpt><trkpt lat="32.037542202327735" lon="-6.131217765112775"><ele>1199.0</ele><time>2026-05-04T09:34:38Z</time></trkpt><trkpt lat="32.037507265262" lon="-6.131288352154836"><ele>1199.0</ele><time>2026-05-04T09:34:39Z</time></trkpt><trkpt lat="32.03747117776703" lon="-6.1313665351785485"><ele>1199.0</ele><time>2026-05-04T09:34:40Z</time></trkpt><trkpt lat="32.03744164029865" lon="-6.131436269933483"><ele>1199.0</ele><time>2026-05-04T09:34:41Z</time></trkpt><trkpt lat="32.037410371047805" lon="-6.13151009317949"><ele>1199.0</ele><time>2026-05-04T09:34:42Z</time></trkpt><trkpt lat="32.03737992574515" lon="-6.131581971071972"><ele>1199.0</ele><time>2026-05-04T09:34:43Z</time></trkpt><trkpt lat="32.03735146734549" lon="-6.131649399486519"><ele>1198.6666666666667</ele><time>2026-05-04T09:34:44Z</time></trkpt><trkpt lat="32.037320678637535" lon="-6.131722584204315"><ele>1198.3333333333335</ele><time>2026-05-04T09:34:45Z</time></trkpt><trkpt lat="32.037286502031996" lon="-6.131803915631763"><ele>1198.0</ele><time>2026-05-04T09:34:46Z</time></trkpt><trkpt lat="32.037251104505486" lon="-6.131888246623855"><ele>1197.6666666666667</ele><time>2026-05-04T09:34:47Z</time></trkpt><trkpt lat="32.03721673343232" lon="-6.1319696097151555"><ele>1197.3333333333333</ele><time>2026-05-04T09:34:48Z</time></trkpt><trkpt lat="32.03718275405031" lon="-6.132059871327001"><ele>1197.0</ele><time>2026-05-04T09:34:49Z</time></trkpt><trkpt lat="32.03715221840919" lon="-6.13214638910821"><ele>1197.0</ele><time>2026-05-04T09:34:50Z</time></trkpt><trkpt lat="32.03712145164593" lon="-6.132233561610156"><ele>1197.0</ele><time>2026-05-04T09:34:51Z</time></trkpt><trkpt lat="32.03709061806466" lon="-6.132319880815994"><ele>1197.0</ele><time>2026-05-04T09:34:52Z</time></trkpt><trkpt lat="32.03706533999162" lon="-6.132420459730256"><ele>1197.0</ele><time>2026-05-04T09:34:53Z</time></trkpt><trkpt lat="32.03705406673025" lon="-6.1325148786557575"><ele>1197.0</ele><time>2026-05-04T09:34:54Z</time></trkpt><trkpt lat="32.037043564605185" lon="-6.132604010820189"><ele>1197.0</ele><time>2026-05-04T09:34:55Z</time></trkpt><trkpt lat="32.03703439548369" lon="-6.132681708041337"><ele>1195.2</ele><time>2026-05-04T09:34:56Z</time></trkpt><trkpt lat="32.03698486504797" lon="-6.132777581538201"><ele>1193.4</ele><time>2026-05-04T09:34:58Z</time></trkpt><trkpt lat="32.03694356153401" lon="-6.13288535737851"><ele>1191.6</ele><time>2026-05-04T09:35:00Z</time></trkpt><trkpt lat="32.03689166853125" lon="-6.133020765055312"><ele>1189.8</ele><time>2026-05-04T09:35:02Z</time></trkpt><trkpt lat="32.03685966498427" lon="-6.133103223081562"><ele>1188.0</ele><time>2026-05-04T09:35:03Z</time></trkpt><trkpt lat="32.036830235284796" lon="-6.1331782128897085"><ele>1190.6</ele><time>2026-05-04T09:35:04Z</time></trkpt><trkpt lat="32.03680385977524" lon="-6.133249283631712"><ele>1193.1999999999998</ele><time>2026-05-04T09:35:05Z</time></trkpt><trkpt lat="32.036755896039054" lon="-6.133373595583116"><ele>1195.8</ele><time>2026-05-04T09:35:07Z</time></trkpt><trkpt lat="32.036714281376945" lon="-6.13346190275541"><ele>1198.3999999999999</ele><time>2026-05-04T09:35:09Z</time></trkpt><trkpt lat="32.036669647250534" lon="-6.133562801452742"><ele>1201.0</ele><time>2026-05-04T09:35:11Z</time></trkpt><trkpt lat="32.036625750583106" lon="-6.133659690969117"><ele>1201.0</ele><time>2026-05-04T09:35:14Z</time></trkpt><trkpt lat="32.03666710247523" lon="-6.1335952894076895"><ele>1201.0</ele><time>2026-05-04T09:35:15Z</time></trkpt><trkpt lat="32.03657130925937" lon="-6.133668661045981"><ele>1201.0</ele><time>2026-05-04T09:35:17Z</time></trkpt><trkpt lat="32.03650801328219" lon="-6.133718601888222"><ele>1201.0</ele><time>2026-05-04T09:35:18Z</time></trkpt><trkpt lat="32.03644182031903" lon="-6.133765800704145"><ele>1201.0</ele><time>2026-05-04T09:35:19Z</time></trkpt><trkpt lat="32.03636165760234" lon="-6.133818890645834"><ele>1201.0</ele><time>2026-05-04T09:35:20Z</time></trkpt><trkpt lat="32.03626490345673" lon="-6.133978741625599"><ele>1205.1666666666665</ele><time>2026-05-04T09:35:21Z</time></trkpt><trkpt lat="32.03622042313106" lon="-6.134053969016071"><ele>1209.3333333333333</ele><time>2026-05-04T09:35:22Z</time></trkpt><trkpt lat="32.03617929853752" lon="-6.134151302577541"><ele>1213.5</ele><time>2026-05-04T09:35:23Z</time></trkpt><trkpt lat="32.03614145753676" lon="-6.134228930650936"><ele>1217.6666666666667</ele><time>2026-05-04T09:35:24Z</time></trkpt><trkpt lat="32.03610080073564" lon="-6.134332242886906"><ele>1221.8333333333335</ele><time>2026-05-04T09:35:25Z</time></trkpt><trkpt lat="32.03606541736387" lon="-6.1344229675461746"><ele>1226.0</ele><time>2026-05-04T09:35:26Z</time></trkpt><trkpt lat="32.03605915834391" lon="-6.134596790466474"><ele>1226.0</ele><time>2026-05-04T09:35:27Z</time></trkpt><trkpt lat="32.03605812913955" lon="-6.134686080647432"><ele>1226.0</ele><time>2026-05-04T09:35:28Z</time></trkpt><trkpt lat="32.03604439704535" lon="-6.134843542148426"><ele>1226.0</ele><time>2026-05-04T09:35:30Z</time></trkpt><trkpt lat="32.03602692110765" lon="-6.134928129007974"><ele>1226.0</ele><time>2026-05-04T09:35:31Z</time></trkpt><trkpt lat="32.036011509138675" lon="-6.135001862013661"><ele>1226.0</ele><time>2026-05-04T09:35:32Z</time></trkpt><trkpt lat="32.035986174951276" lon="-6.135123060368004"><ele>1226.0</ele><time>2026-05-04T09:35:34Z</time></trkpt><trkpt lat="32.03591572060635" lon="-6.135171144781715"><ele>1226.0</ele><time>2026-05-04T09:35:36Z</time></trkpt><trkpt lat="32.03581762561643" lon="-6.135285567365647"><ele>1226.0</ele><time>2026-05-04T09:35:38Z</time></trkpt><trkpt lat="32.03576254643757" lon="-6.135333971556387"><ele>1226.0</ele><time>2026-05-04T09:35:39Z</time></trkpt><trkpt lat="32.03567851208995" lon="-6.1353651130315505"><ele>1226.0</ele><time>2026-05-04T09:35:41Z</time></trkpt><trkpt lat="32.035567743306785" lon="-6.135319387366985"><ele>1226.0</ele><time>2026-05-04T09:35:43Z</time></trkpt><trkpt lat="32.03549646650884" lon="-6.135304163851503"><ele>1226.0</ele><time>2026-05-04T09:35:44Z</time></trkpt><trkpt lat="32.03542174961419" lon="-6.135284783098509"><ele>1226.0</ele><time>2026-05-04T09:35:45Z</time></trkpt><trkpt lat="32.035341967676544" lon="-6.135264701452333"><ele>1226.0</ele><time>2026-05-04T09:35:46Z</time></trkpt><trkpt lat="32.035271544300684" lon="-6.135227320252471"><ele>1226.0</ele><time>2026-05-04T09:35:47Z</time></trkpt><trkpt lat="32.03519758296638" lon="-6.135211016957426"><ele>1226.0</ele><time>2026-05-04T09:35:48Z</time></trkpt><trkpt lat="32.03512647074345" lon="-6.13519578163267"><ele>1226.0</ele><time>2026-05-04T09:35:49Z</time></trkpt><trkpt lat="32.03505433148958" lon="-6.135179908009065"><ele>1226.0</ele><time>2026-05-04T09:35:50Z</time></trkpt><trkpt lat="32.034980461923354" lon="-6.135162984042644"><ele>1226.0</ele><time>2026-05-04T09:35:51Z</time></trkpt><trkpt lat="32.03490717860402" lon="-6.1351429324615046"><ele>1226.0</ele><time>2026-05-04T09:35:52Z</time></trkpt><trkpt lat="32.034837256889396" lon="-6.1351209920805365"><ele>1226.0</ele><time>2026-05-04T09:35:53Z</time></trkpt><trkpt lat="32.03475937639658" lon="-6.135108117277865"><ele>1226.0</ele><time>2026-05-04T09:35:54Z</time></trkpt><trkpt lat="32.03467592266267" lon="-6.1351120839672975"><ele>1226.0</ele><time>2026-05-04T09:35:55Z</time></trkpt><trkpt lat="32.034592409819176" lon="-6.135105904678311"><ele>1226.0</ele><time>2026-05-04T09:35:56Z</time></trkpt><trkpt lat="32.03451160581394" lon="-6.135100000160508"><ele>1226.0</ele><time>2026-05-04T09:35:57Z</time></trkpt><trkpt lat="32.034445676139384" lon="-6.135127357350555"><ele>1226.0</ele><time>2026-05-04T09:35:58Z</time></trkpt><trkpt lat="32.034361972308446" lon="-6.135154866611271"><ele>1226.0</ele><time>2026-05-04T09:35:59Z</time></trkpt><trkpt lat="32.03428512196379" lon="-6.135180280923183"><ele>1226.0</ele><time>2026-05-04T09:36:00Z</time></trkpt><trkpt lat="32.034224326848474" lon="-6.135215601489523"><ele>1226.0</ele><time>2026-05-04T09:36:01Z</time></trkpt><trkpt lat="32.034147266656596" lon="-6.1352528729692"><ele>1226.0</ele><time>2026-05-04T09:36:02Z</time></trkpt><trkpt lat="32.03407312835483" lon="-6.135288730153215"><ele>1226.0</ele><time>2026-05-04T09:36:03Z</time></trkpt><trkpt lat="32.033995652832886" lon="-6.135326201994276"><ele>1226.0</ele><time>2026-05-04T09:36:04Z</time></trkpt><trkpt lat="32.03388703726657" lon="-6.135422727764448"><ele>1226.0</ele><time>2026-05-04T09:36:06Z</time></trkpt><trkpt lat="32.033818519272344" lon="-6.135475039621435"><ele>1224.0</ele><time>2026-05-04T09:36:07Z</time></trkpt><trkpt lat="32.03374927645152" lon="-6.135528017335823"><ele>1222.0</ele><time>2026-05-04T09:36:08Z</time></trkpt><trkpt lat="32.0336837180342" lon="-6.135578539213713"><ele>1220.0</ele><time>2026-05-04T09:36:09Z</time></trkpt><trkpt lat="32.03361825064878" lon="-6.135628814276001"><ele>1218.0</ele><time>2026-05-04T09:36:10Z</time></trkpt><trkpt lat="32.03356009548637" lon="-6.135676642190298"><ele>1216.0</ele><time>2026-05-04T09:36:11Z</time></trkpt><trkpt lat="32.0335019322006" lon="-6.135725647397359"><ele>1214.0</ele><time>2026-05-04T09:36:12Z</time></trkpt><trkpt lat="32.033432158280476" lon="-6.135782986598824"><ele>1214.0</ele><time>2026-05-04T09:36:13Z</time></trkpt><trkpt lat="32.03337465616711" lon="-6.135828483374236"><ele>1214.0</ele><time>2026-05-04T09:36:14Z</time></trkpt><trkpt lat="32.03331219629913" lon="-6.135879094397051"><ele>1214.0</ele><time>2026-05-04T09:36:15Z</time></trkpt><trkpt lat="32.03325169372769" lon="-6.135927355690957"><ele>1214.0</ele><time>2026-05-04T09:36:16Z</time></trkpt><trkpt lat="32.03319022078033" lon="-6.13597658119644"><ele>1214.0</ele><time>2026-05-04T09:36:17Z</time></trkpt><trkpt lat="32.03312477142097" lon="-6.136027529163036"><ele>1214.0</ele><time>2026-05-04T09:36:18Z</time></trkpt><trkpt lat="32.03305319572817" lon="-6.136083999295804"><ele>1221.3333333333335</ele><time>2026-05-04T09:36:19Z</time></trkpt><trkpt lat="32.03297444285753" lon="-6.13614720245173"><ele>1228.6666666666667</ele><time>2026-05-04T09:36:20Z</time></trkpt><trkpt lat="32.03290051987927" lon="-6.136204975514353"><ele>1236.0</ele><time>2026-05-04T09:36:21Z</time></trkpt><trkpt lat="32.03282497657123" lon="-6.136265508945853"><ele>1243.3333333333333</ele><time>2026-05-04T09:36:22Z</time></trkpt><trkpt lat="32.03275356363751" lon="-6.1363229563626"><ele>1250.6666666666665</ele><time>2026-05-04T09:36:23Z</time></trkpt><trkpt lat="32.0326896932043" lon="-6.136373622051228"><ele>1258.0</ele><time>2026-05-04T09:36:24Z</time></trkpt><trkpt lat="32.03262233225511" lon="-6.136426173100159"><ele>1258.0</ele><time>2026-05-04T09:36:25Z</time></trkpt><trkpt lat="32.03255374936286" lon="-6.136481060087387"><ele>1258.0</ele><time>2026-05-04T09:36:26Z</time></trkpt><trkpt lat="32.032478004952196" lon="-6.136538753565473"><ele>1258.0</ele><time>2026-05-04T09:36:27Z</time></trkpt><trkpt lat="32.0324114695613" lon="-6.136590399167413"><ele>1258.0</ele><time>2026-05-04T09:36:28Z</time></trkpt><trkpt lat="32.03234958634248" lon="-6.136638670604124"><ele>1258.0</ele><time>2026-05-04T09:36:29Z</time></trkpt><trkpt lat="32.03228275273568" lon="-6.136690028469201"><ele>1258.0</ele><time>2026-05-04T09:36:30Z</time></trkpt><trkpt lat="32.03221097548472" lon="-6.136725586867748"><ele>1253.1666666666665</ele><time>2026-05-04T09:36:31Z</time></trkpt><trkpt lat="32.03215378876047" lon="-6.13679110647322"><ele>1248.3333333333333</ele><time>2026-05-04T09:36:32Z</time></trkpt><trkpt lat="32.03208079233807" lon="-6.136826070110326"><ele>1243.5</ele><time>2026-05-04T09:36:33Z</time></trkpt><trkpt lat="32.03201622052764" lon="-6.136897280920772"><ele>1238.6666666666667</ele><time>2026-05-04T09:36:34Z</time></trkpt><trkpt lat="32.03193808263133" lon="-6.1369360298418405"><ele>1233.8333333333335</ele><time>2026-05-04T09:36:35Z</time></trkpt><trkpt lat="32.03186970368815" lon="-6.136994407408974"><ele>1229.0</ele><time>2026-05-04T09:36:36Z</time></trkpt><trkpt lat="32.031802797203376" lon="-6.137063842253225"><ele>1229.0</ele><time>2026-05-04T09:36:37Z</time></trkpt><trkpt lat="32.03173189081357" lon="-6.1371003260214865"><ele>1229.0</ele><time>2026-05-04T09:36:38Z</time></trkpt><trkpt lat="32.03166162980419" lon="-6.137150518857002"><ele>1229.0</ele><time>2026-05-04T09:36:39Z</time></trkpt><trkpt lat="32.031582902944194" lon="-6.137199848436978"><ele>1229.0</ele><time>2026-05-04T09:36:40Z</time></trkpt><trkpt lat="32.03150823609498" lon="-6.137245728697077"><ele>1229.0</ele><time>2026-05-04T09:36:41Z</time></trkpt><trkpt lat="32.031437347484136" lon="-6.137289972834669"><ele>1229.0</ele><time>2026-05-04T09:36:42Z</time></trkpt><trkpt lat="32.03136585755806" lon="-6.137334288927104"><ele>1225.3333333333335</ele><time>2026-05-04T09:36:43Z</time></trkpt><trkpt lat="32.03128923767998" lon="-6.137381794646617"><ele>1221.6666666666667</ele><time>2026-05-04T09:36:44Z</time></trkpt><trkpt lat="32.03121354301965" lon="-6.137428820414102"><ele>1218.0</ele><time>2026-05-04T09:36:45Z</time></trkpt><trkpt lat="32.03114250971637" lon="-6.13747689141249"><ele>1214.3333333333333</ele><time>2026-05-04T09:36:46Z</time></trkpt><trkpt lat="32.03107816429495" lon="-6.13752698224241"><ele>1210.6666666666665</ele><time>2026-05-04T09:36:47Z</time></trkpt><trkpt lat="32.03101928795422" lon="-6.137572815521564"><ele>1207.0</ele><time>2026-05-04T09:36:48Z</time></trkpt><trkpt lat="32.03096264935295" lon="-6.137615635655848"><ele>1207.0</ele><time>2026-05-04T09:36:49Z</time></trkpt><trkpt lat="32.03089621364676" lon="-6.137660077862455"><ele>1207.0</ele><time>2026-05-04T09:36:50Z</time></trkpt><trkpt lat="32.03082668423029" lon="-6.137705663996741"><ele>1207.0</ele><time>2026-05-04T09:36:51Z</time></trkpt><trkpt lat="32.03074047233815" lon="-6.137755824877256"><ele>1207.0</ele><time>2026-05-04T09:36:52Z</time></trkpt><trkpt lat="32.030682923848154" lon="-6.137813423130813"><ele>1207.0</ele><time>2026-05-04T09:36:53Z</time></trkpt><trkpt lat="32.030620170537304" lon="-6.1378755522350685"><ele>1207.0</ele><time>2026-05-04T09:36:54Z</time></trkpt><trkpt lat="32.03055682660829" lon="-6.137938575577936"><ele>1213.1666666666665</ele><time>2026-05-04T09:36:55Z</time></trkpt><trkpt lat="32.03049497981089" lon="-6.137994287974101"><ele>1219.3333333333333</ele><time>2026-05-04T09:36:56Z</time></trkpt><trkpt lat="32.03042785030133" lon="-6.13804872854846"><ele>1225.5</ele><time>2026-05-04T09:36:57Z</time></trkpt><trkpt lat="32.0303711254889" lon="-6.138100633717886"><ele>1231.6666666666667</ele><time>2026-05-04T09:36:58Z</time></trkpt><trkpt lat="32.030308539647336" lon="-6.1381386852269"><ele>1237.8333333333335</ele><time>2026-05-04T09:36:59Z</time></trkpt><trkpt lat="32.030248891831896" lon="-6.138174950924242"><ele>1244.0</ele><time>2026-05-04T09:37:00Z</time></trkpt><trkpt lat="32.03014706439381" lon="-6.138211240686734"><ele>1244.0</ele><time>2026-05-04T09:37:02Z</time></trkpt><trkpt lat="32.030068846023774" lon="-6.138167634855615"><ele>1244.0</ele><time>2026-05-04T09:37:04Z</time></trkpt><trkpt lat="32.030005945222676" lon="-6.138172640608269"><ele>1244.0</ele><time>2026-05-04T09:37:06Z</time></trkpt><trkpt lat="32.029955104658804" lon="-6.138256819464796"><ele>1244.0</ele><time>2026-05-04T09:37:08Z</time></trkpt><trkpt lat="32.02990152355431" lon="-6.138382517376423"><ele>1244.0</ele><time>2026-05-04T09:37:10Z</time></trkpt><trkpt lat="32.029850128139536" lon="-6.138443875379027"><ele>1244.0</ele><time>2026-05-04T09:37:11Z</time></trkpt><trkpt lat="32.02981483040689" lon="-6.138529947150416"><ele>1242.0</ele><time>2026-05-04T09:37:12Z</time></trkpt><trkpt lat="32.02976185799856" lon="-6.138590780751867"><ele>1240.0</ele><time>2026-05-04T09:37:13Z</time></trkpt><trkpt lat="32.029704613538065" lon="-6.138656367356601"><ele>1238.0</ele><time>2026-05-04T09:37:14Z</time></trkpt><trkpt lat="32.02960171200095" lon="-6.138659923935943"><ele>1236.0</ele><time>2026-05-04T09:37:15Z</time></trkpt><trkpt lat="32.02955299961497" lon="-6.138716200871521"><ele>1234.0</ele><time>2026-05-04T09:37:16Z</time></trkpt><trkpt lat="32.029504381611964" lon="-6.138782337621583"><ele>1232.0</ele><time>2026-05-04T09:37:17Z</time></trkpt><trkpt lat="32.029455993348215" lon="-6.138862646845566"><ele>1232.0</ele><time>2026-05-04T09:37:18Z</time></trkpt><trkpt lat="32.029411955764516" lon="-6.138950987785557"><ele>1232.0</ele><time>2026-05-04T09:37:19Z</time></trkpt><trkpt lat="32.029374389341775" lon="-6.139034624886033"><ele>1232.0</ele><time>2026-05-04T09:37:20Z</time></trkpt><trkpt lat="32.02933233572195" lon="-6.139108508660029"><ele>1232.0</ele><time>2026-05-04T09:37:21Z</time></trkpt><trkpt lat="32.02928995812734" lon="-6.139179913973662"><ele>1232.0</ele><time>2026-05-04T09:37:22Z</time></trkpt><trkpt lat="32.02924726726491" lon="-6.139260576762465"><ele>1232.0</ele><time>2026-05-04T09:37:23Z</time></trkpt><trkpt lat="32.02920824732786" lon="-6.139335007782845"><ele>1225.7142857142858</ele><time>2026-05-04T09:37:24Z</time></trkpt><trkpt lat="32.02918464893168" lon="-6.139404369337079"><ele>1219.4285714285716</ele><time>2026-05-04T09:37:25Z</time></trkpt><trkpt lat="32.02916165080707" lon="-6.139485324692668"><ele>1213.142857142857</ele><time>2026-05-04T09:37:26Z</time></trkpt><trkpt lat="32.02914270007428" lon="-6.139562035099073"><ele>1206.857142857143</ele><time>2026-05-04T09:37:27Z</time></trkpt><trkpt lat="32.02911337836277" lon="-6.1396352257692435"><ele>1200.5714285714287</ele><time>2026-05-04T09:37:28Z</time></trkpt><trkpt lat="32.029078671814936" lon="-6.1397066859090925"><ele>1194.2857142857142</ele><time>2026-05-04T09:37:29Z</time></trkpt><trkpt lat="32.02908487932046" lon="-6.139789131560613"><ele>1188.0</ele><time>2026-05-04T09:37:30Z</time></trkpt><trkpt lat="32.02907299007332" lon="-6.139870663175421"><ele>1207.5</ele><time>2026-05-04T09:37:31Z</time></trkpt><trkpt lat="32.02901297890827" lon="-6.139967360363139"><ele>1227.0</ele><time>2026-05-04T09:37:33Z</time></trkpt><trkpt lat="32.02895400688683" lon="-6.140059765418665"><ele>1246.5</ele><time>2026-05-04T09:37:35Z</time></trkpt><trkpt lat="32.02890198861973" lon="-6.140154227692878"><ele>1266.0</ele><time>2026-05-04T09:37:37Z</time></trkpt><trkpt lat="32.02888014304383" lon="-6.140232275633582"><ele>1285.5</ele><time>2026-05-04T09:37:38Z</time></trkpt><trkpt lat="32.02885709811217" lon="-6.140315382258925"><ele>1305.0</ele><time>2026-05-04T09:37:39Z</time></trkpt><trkpt lat="32.02883511789039" lon="-6.140391536216017"><ele>1304.9999999999998</ele><time>2026-05-04T09:37:40Z</time></trkpt><trkpt lat="32.02881436911299" lon="-6.14046467992092"><ele>1305.0</ele><time>2026-05-04T09:37:41Z</time></trkpt><trkpt lat="32.02879092837066" lon="-6.140547584918785"><ele>1305.0</ele><time>2026-05-04T09:37:42Z</time></trkpt><trkpt lat="32.028766131061246" lon="-6.140637122454352"><ele>1305.0</ele><time>2026-05-04T09:37:43Z</time></trkpt><trkpt lat="32.02874262857096" lon="-6.140717232148748"><ele>1305.0</ele><time>2026-05-04T09:37:44Z</time></trkpt><trkpt lat="32.028723916405205" lon="-6.14079802775268"><ele>1304.9999999999998</ele><time>2026-05-04T09:37:45Z</time></trkpt><trkpt lat="32.028708824560525" lon="-6.14087788508159"><ele>1305.0</ele><time>2026-05-04T09:37:46Z</time></trkpt><trkpt lat="32.02869415295006" lon="-6.140957629904341"><ele>1299.8333333333333</ele><time>2026-05-04T09:37:47Z</time></trkpt><trkpt lat="32.02867888083115" lon="-6.141037622384755"><ele>1294.6666666666667</ele><time>2026-05-04T09:37:48Z</time></trkpt><trkpt lat="32.028660684939425" lon="-6.141129139727459"><ele>1289.5</ele><time>2026-05-04T09:37:49Z</time></trkpt><trkpt lat="32.02864377439245" lon="-6.141221453197247"><ele>1284.3333333333335</ele><time>2026-05-04T09:37:50Z</time></trkpt><trkpt lat="32.028626402261374" lon="-6.141313761330656"><ele>1279.1666666666667</ele><time>2026-05-04T09:37:51Z</time></trkpt><trkpt lat="32.0286078063043" lon="-6.141407143213968"><ele>1274.0</ele><time>2026-05-04T09:37:52Z</time></trkpt><trkpt lat="32.028589582066495" lon="-6.141497474638571"><ele>1269.5</ele><time>2026-05-04T09:37:53Z</time></trkpt><trkpt lat="32.0285638608756" lon="-6.141583802166346"><ele>1265.0</ele><time>2026-05-04T09:37:54Z</time></trkpt><trkpt lat="32.02854489718545" lon="-6.141655867179082"><ele>1260.5</ele><time>2026-05-04T09:37:55Z</time></trkpt><trkpt lat="32.02851898790068" lon="-6.141789780162431"><ele>1256.0</ele><time>2026-05-04T09:37:57Z</time></trkpt><trkpt lat="32.02850291651534" lon="-6.14186715188005"><ele>1251.5</ele><time>2026-05-04T09:37:58Z</time></trkpt><trkpt lat="32.02849681021256" lon="-6.141976624428862"><ele>1247.0</ele><time>2026-05-04T09:38:00Z</time></trkpt><trkpt lat="32.02844202215688" lon="-6.141907275844588"><ele>1247.0</ele><time>2026-05-04T09:38:36Z</time></trkpt><trkpt lat="32.02842935357003" lon="-6.141982249306818"><ele>1247.0</ele><time>2026-05-04T09:39:01Z</time></trkpt><trkpt lat="32.028403378039336" lon="-6.142103710168611"><ele>1247.0</ele><time>2026-05-04T09:39:29Z</time></trkpt><trkpt lat="32.028381989923425" lon="-6.14218195576817"><ele>1247.0</ele><time>2026-05-04T09:39:30Z</time></trkpt><trkpt lat="32.02837946402033" lon="-6.1422638378050625"><ele>1247.0</ele><time>2026-05-04T09:39:31Z</time></trkpt><trkpt lat="32.02838565442506" lon="-6.142354287723142"><ele>1247.0</ele><time>2026-05-04T09:39:32Z</time></trkpt><trkpt lat="32.028398088273015" lon="-6.142438675187515"><ele>1243.0</ele><time>2026-05-04T09:39:33Z</time></trkpt><trkpt lat="32.02840726313298" lon="-6.142513144757057"><ele>1239.0</ele><time>2026-05-04T09:39:34Z</time></trkpt><trkpt lat="32.028448462724604" lon="-6.142639013977226"><ele>1235.0</ele><time>2026-05-04T09:39:36Z</time></trkpt><trkpt lat="32.02844854986226" lon="-6.142770983712978"><ele>1231.0</ele><time>2026-05-04T09:39:38Z</time></trkpt><trkpt lat="32.02844019225592" lon="-6.14284675861132"><ele>1227.0</ele><time>2026-05-04T09:39:39Z</time></trkpt><trkpt lat="32.02843006583943" lon="-6.142935837152396"><ele>1223.0</ele><time>2026-05-04T09:39:40Z</time></trkpt><trkpt lat="32.02841371831874" lon="-6.14302840092409"><ele>1223.0</ele><time>2026-05-04T09:39:41Z</time></trkpt><trkpt lat="32.02838703782834" lon="-6.143125206427997"><ele>1223.0</ele><time>2026-05-04T09:39:42Z</time></trkpt><trkpt lat="32.02837152602178" lon="-6.1432108146803355"><ele>1223.0</ele><time>2026-05-04T09:39:43Z</time></trkpt><trkpt lat="32.028395046228965" lon="-6.143357471747371"><ele>1223.0</ele><time>2026-05-04T09:39:45Z</time></trkpt><trkpt lat="32.02839067104219" lon="-6.143432434724507"><ele>1223.0</ele><time>2026-05-04T09:39:46Z</time></trkpt><trkpt lat="32.02838024848693" lon="-6.14351214225414"><ele>1223.0</ele><time>2026-05-04T09:39:47Z</time></trkpt><trkpt lat="32.02836084779446" lon="-6.143584622685168"><ele>1220.8333333333335</ele><time>2026-05-04T09:39:48Z</time></trkpt><trkpt lat="32.02834059370537" lon="-6.143666740031197"><ele>1218.6666666666667</ele><time>2026-05-04T09:39:49Z</time></trkpt><trkpt lat="32.02832518251984" lon="-6.1437520955244995"><ele>1216.5</ele><time>2026-05-04T09:39:50Z</time></trkpt><trkpt lat="32.02831788025646" lon="-6.143833297973735"><ele>1214.3333333333333</ele><time>2026-05-04T09:39:51Z</time></trkpt><trkpt lat="32.02830976935027" lon="-6.143910217788556"><ele>1212.1666666666665</ele><time>2026-05-04T09:39:52Z</time></trkpt><trkpt lat="32.02829440568671" lon="-6.14399083628113"><ele>1210.0</ele><time>2026-05-04T09:39:53Z</time></trkpt><trkpt lat="32.02825922686802" lon="-6.144132392185695"><ele>1218.4</ele><time>2026-05-04T09:39:55Z</time></trkpt><trkpt lat="32.028229539106654" lon="-6.144199885513286"><ele>1226.8</ele><time>2026-05-04T09:39:56Z</time></trkpt><trkpt lat="32.028178967583685" lon="-6.144331936269016"><ele>1235.2</ele><time>2026-05-04T09:39:58Z</time></trkpt><trkpt lat="32.028144450025216" lon="-6.144482975621191"><ele>1243.6</ele><time>2026-05-04T09:40:00Z</time></trkpt><trkpt lat="32.0281180732501" lon="-6.144567833571655"><ele>1252.0</ele><time>2026-05-04T09:40:01Z</time></trkpt><trkpt lat="32.02808364222338" lon="-6.14464588668763"><ele>1252.0</ele><time>2026-05-04T09:40:02Z</time></trkpt><trkpt lat="32.02805399835361" lon="-6.14472273395325"><ele>1252.0</ele><time>2026-05-04T09:40:03Z</time></trkpt><trkpt lat="32.028025396962015" lon="-6.144795144477131"><ele>1252.0</ele><time>2026-05-04T09:40:04Z</time></trkpt><trkpt lat="32.02799369543213" lon="-6.144863463344325"><ele>1252.0</ele><time>2026-05-04T09:40:05Z</time></trkpt><trkpt lat="32.02795596166372" lon="-6.145010707673859"><ele>1252.0</ele><time>2026-05-04T09:40:07Z</time></trkpt><trkpt lat="32.02793667310596" lon="-6.1450859705137555"><ele>1252.0</ele><time>2026-05-04T09:40:08Z</time></trkpt><trkpt lat="32.02791781514017" lon="-6.145162347403738"><ele>1248.1666666666665</ele><time>2026-05-04T09:40:09Z</time></trkpt><trkpt lat="32.02789717746146" lon="-6.14523963872654"><ele>1244.3333333333333</ele><time>2026-05-04T09:40:10Z</time></trkpt><trkpt lat="32.02787659987206" lon="-6.145314039550998"><ele>1240.5</ele><time>2026-05-04T09:40:11Z</time></trkpt><trkpt lat="32.027846991753016" lon="-6.145399982073916"><ele>1236.6666666666667</ele><time>2026-05-04T09:40:12Z</time></trkpt><trkpt lat="32.0278195048112" lon="-6.145481418009504"><ele>1232.8333333333335</ele><time>2026-05-04T09:40:13Z</time></trkpt><trkpt lat="32.02778199486339" lon="-6.145582934412739"><ele>1229.0</ele><time>2026-05-04T09:40:14Z</time></trkpt><trkpt lat="32.027756843054576" lon="-6.145682634673728"><ele>1226.7142857142858</ele><time>2026-05-04T09:40:15Z</time></trkpt><trkpt lat="32.027740396367214" lon="-6.145766323849756"><ele>1224.4285714285716</ele><time>2026-05-04T09:40:16Z</time></trkpt><trkpt lat="32.02773115705422" lon="-6.14584438867193"><ele>1222.1428571428573</ele><time>2026-05-04T09:40:17Z</time></trkpt><trkpt lat="32.027710626406034" lon="-6.145929819777296"><ele>1219.857142857143</ele><time>2026-05-04T09:40:18Z</time></trkpt><trkpt lat="32.0276864342333" lon="-6.146025013290287"><ele>1217.5714285714284</ele><time>2026-05-04T09:40:19Z</time></trkpt><trkpt lat="32.02766599785855" lon="-6.146106005693172"><ele>1215.2857142857144</ele><time>2026-05-04T09:40:20Z</time></trkpt><trkpt lat="32.027657329699586" lon="-6.146186335958005"><ele>1213.0</ele><time>2026-05-04T09:40:21Z</time></trkpt><trkpt lat="32.0276408718923" lon="-6.1462692432085815"><ele>1213.0</ele><time>2026-05-04T09:40:22Z</time></trkpt><trkpt lat="32.02762137020098" lon="-6.146352825791386"><ele>1213.0</ele><time>2026-05-04T09:40:23Z</time></trkpt><trkpt lat="32.027608418463025" lon="-6.146428443896557"><ele>1213.0</ele><time>2026-05-04T09:40:24Z</time></trkpt><trkpt lat="32.02760263776991" lon="-6.146502888175425"><ele>1213.0</ele><time>2026-05-04T09:40:25Z</time></trkpt><trkpt lat="32.027585205622735" lon="-6.146587751619389"><ele>1213.0</ele><time>2026-05-04T09:40:26Z</time></trkpt><trkpt lat="32.027563264005806" lon="-6.1466761299666945"><ele>1213.0</ele><time>2026-05-04T09:40:27Z</time></trkpt><trkpt lat="32.027536877355104" lon="-6.146764574403236"><ele>1213.0</ele><time>2026-05-04T09:40:28Z</time></trkpt><trkpt lat="32.02750958955071" lon="-6.146856677399033"><ele>1213.5</ele><time>2026-05-04T09:40:29Z</time></trkpt><trkpt lat="32.027478598077536" lon="-6.14694391414458"><ele>1214.0</ele><time>2026-05-04T09:40:30Z</time></trkpt><trkpt lat="32.027448916737484" lon="-6.14703486578927"><ele>1214.5</ele><time>2026-05-04T09:40:31Z</time></trkpt><trkpt lat="32.027405749795435" lon="-6.147131238651225"><ele>1215.0</ele><time>2026-05-04T09:40:32Z</time></trkpt><trkpt lat="32.02736265565846" lon="-6.14721092284908"><ele>1215.5</ele><time>2026-05-04T09:40:33Z</time></trkpt><trkpt lat="32.027316503018774" lon="-6.147301588581178"><ele>1216.0</ele><time>2026-05-04T09:40:34Z</time></trkpt><trkpt lat="32.02727897122569" lon="-6.147384752347451"><ele>1216.0</ele><time>2026-05-04T09:40:35Z</time></trkpt><trkpt lat="32.02724441468026" lon="-6.147470526339393"><ele>1216.0</ele><time>2026-05-04T09:40:36Z</time></trkpt><trkpt lat="32.02719003215411" lon="-6.147562153462693"><ele>1216.0</ele><time>2026-05-04T09:40:37Z</time></trkpt><trkpt lat="32.027136640774955" lon="-6.1476380930362255"><ele>1216.0</ele><time>2026-05-04T09:40:38Z</time></trkpt><trkpt lat="32.02707677637805" lon="-6.147703700738603"><ele>1216.0</ele><time>2026-05-04T09:40:39Z</time></trkpt><trkpt lat="32.027022825320415" lon="-6.147774779314595"><ele>1216.0</ele><time>2026-05-04T09:40:40Z</time></trkpt><trkpt lat="32.02697373207777" lon="-6.147846955677667"><ele>1216.0</ele><time>2026-05-04T09:40:41Z</time></trkpt><trkpt lat="32.026916410356634" lon="-6.147919950348918"><ele>1216.0</ele><time>2026-05-04T09:40:42Z</time></trkpt><trkpt lat="32.02685473313262" lon="-6.147994848473297"><ele>1216.0</ele><time>2026-05-04T09:40:43Z</time></trkpt><trkpt lat="32.02679567264968" lon="-6.148070698298127"><ele>1216.0</ele><time>2026-05-04T09:40:44Z</time></trkpt><trkpt lat="32.02673706581347" lon="-6.148142473901562"><ele>1216.0</ele><time>2026-05-04T09:40:45Z</time></trkpt><trkpt lat="32.026671237980096" lon="-6.148217739602872"><ele>1216.0</ele><time>2026-05-04T09:40:46Z</time></trkpt><trkpt lat="32.02661008721238" lon="-6.148277378433185"><ele>1217.8</ele><time>2026-05-04T09:40:47Z</time></trkpt><trkpt lat="32.02653013291518" lon="-6.1483405230758175"><ele>1219.6</ele><time>2026-05-04T09:40:48Z</time></trkpt><trkpt lat="32.026456663526055" lon="-6.148422301140103"><ele>1221.4</ele><time>2026-05-04T09:40:49Z</time></trkpt><trkpt lat="32.026384220390604" lon="-6.148511839521418"><ele>1223.2</ele><time>2026-05-04T09:40:50Z</time></trkpt><trkpt lat="32.026303314450914" lon="-6.148596383778711"><ele>1225.0</ele><time>2026-05-04T09:40:51Z</time></trkpt><trkpt lat="32.02622762404709" lon="-6.148672052320633"><ele>1225.0</ele><time>2026-05-04T09:40:52Z</time></trkpt><trkpt lat="32.02615790419125" lon="-6.1487478286458455"><ele>1225.0</ele><time>2026-05-04T09:40:53Z</time></trkpt><trkpt lat="32.02610089705835" lon="-6.148817618550636"><ele>1225.0</ele><time>2026-05-04T09:40:54Z</time></trkpt><trkpt lat="32.02604495300865" lon="-6.148888387692273"><ele>1225.0</ele><time>2026-05-04T09:40:55Z</time></trkpt><trkpt lat="32.02599534310302" lon="-6.148965645897677"><ele>1225.0</ele><time>2026-05-04T09:40:56Z</time></trkpt><trkpt lat="32.02594952587443" lon="-6.14904382131092"><ele>1225.0</ele><time>2026-05-04T09:40:57Z</time></trkpt><trkpt lat="32.02589298261971" lon="-6.1491253700582496"><ele>1225.1666666666665</ele><time>2026-05-04T09:40:58Z</time></trkpt><trkpt lat="32.02583458245047" lon="-6.149198233218989"><ele>1225.3333333333333</ele><time>2026-05-04T09:40:59Z</time></trkpt><trkpt lat="32.02576910164877" lon="-6.149254139332205"><ele>1225.5</ele><time>2026-05-04T09:41:00Z</time></trkpt><trkpt lat="32.025696099897885" lon="-6.14930897087648"><ele>1225.6666666666667</ele><time>2026-05-04T09:41:01Z</time></trkpt><trkpt lat="32.02562519864688" lon="-6.149358777887607"><ele>1225.8333333333335</ele><time>2026-05-04T09:41:02Z</time></trkpt><trkpt lat="32.02554938548712" lon="-6.1494113351021165"><ele>1226.0</ele><time>2026-05-04T09:41:03Z</time></trkpt><trkpt lat="32.02546099100245" lon="-6.149460697993651"><ele>1226.0</ele><time>2026-05-04T09:41:04Z</time></trkpt><trkpt lat="32.025373082479895" lon="-6.149519271533996"><ele>1226.0</ele><time>2026-05-04T09:41:05Z</time></trkpt><trkpt lat="32.02528250125308" lon="-6.149573665955762"><ele>1226.0</ele><time>2026-05-04T09:41:06Z</time></trkpt><trkpt lat="32.025197783321254" lon="-6.149631371911318"><ele>1226.0</ele><time>2026-05-04T09:41:07Z</time></trkpt><trkpt lat="32.025114773493215" lon="-6.149688748612263"><ele>1226.0</ele><time>2026-05-04T09:41:08Z</time></trkpt><trkpt lat="32.025028347401346" lon="-6.149751321644864"><ele>1225.2</ele><time>2026-05-04T09:41:09Z</time></trkpt><trkpt lat="32.02494413508752" lon="-6.149821706020964"><ele>1224.3999999999999</ele><time>2026-05-04T09:41:10Z</time></trkpt><trkpt lat="32.02485857897653" lon="-6.149882924996612"><ele>1223.6</ele><time>2026-05-04T09:41:11Z</time></trkpt><trkpt lat="32.0247775940192" lon="-6.149932470794129"><ele>1222.8</ele><time>2026-05-04T09:41:12Z</time></trkpt><trkpt lat="32.02469351353915" lon="-6.149989603205211"><ele>1222.0</ele><time>2026-05-04T09:41:13Z</time></trkpt><trkpt lat="32.02460811906212" lon="-6.150047786329672"><ele>1222.0</ele><time>2026-05-04T09:41:14Z</time></trkpt><trkpt lat="32.024525445686756" lon="-6.1501075728227566"><ele>1222.0</ele><time>2026-05-04T09:41:15Z</time></trkpt><trkpt lat="32.02444170575472" lon="-6.150169065118243"><ele>1222.0</ele><time>2026-05-04T09:41:16Z</time></trkpt><trkpt lat="32.024354346557374" lon="-6.150229852045365"><ele>1222.0</ele><time>2026-05-04T09:41:17Z</time></trkpt><trkpt lat="32.024265182361205" lon="-6.150284444601449"><ele>1222.0</ele><time>2026-05-04T09:41:18Z</time></trkpt><trkpt lat="32.02418029749834" lon="-6.150340231876178"><ele>1225.3333333333333</ele><time>2026-05-04T09:41:19Z</time></trkpt><trkpt lat="32.02410388019876" lon="-6.15040768857334"><ele>1228.6666666666665</ele><time>2026-05-04T09:41:20Z</time></trkpt><trkpt lat="32.02403417681961" lon="-6.150483096627935"><ele>1232.0</ele><time>2026-05-04T09:41:21Z</time></trkpt><trkpt lat="32.02398436597517" lon="-6.150556606710919"><ele>1235.3333333333333</ele><time>2026-05-04T09:41:22Z</time></trkpt><trkpt lat="32.023930980583714" lon="-6.150618790969848"><ele>1238.6666666666667</ele><time>2026-05-04T09:41:23Z</time></trkpt><trkpt lat="32.02387815761123" lon="-6.150672240715939"><ele>1242.0</ele><time>2026-05-04T09:41:24Z</time></trkpt><trkpt lat="32.02377104708939" lon="-6.15072462365909"><ele>1242.0</ele><time>2026-05-04T09:41:26Z</time></trkpt><trkpt lat="32.023645814991156" lon="-6.150681515120103"><ele>1242.0</ele><time>2026-05-04T09:41:28Z</time></trkpt><trkpt lat="32.02357399699349" lon="-6.15063220371227"><ele>1242.0</ele><time>2026-05-04T09:41:29Z</time></trkpt><trkpt lat="32.02348976053033" lon="-6.150581040587764"><ele>1242.0</ele><time>2026-05-04T09:41:30Z</time></trkpt><trkpt lat="32.023393230469324" lon="-6.150547507242491"><ele>1242.0</ele><time>2026-05-04T09:41:31Z</time></trkpt><trkpt lat="32.02329805717461" lon="-6.150530033974655"><ele>1244.4</ele><time>2026-05-04T09:41:32Z</time></trkpt><trkpt lat="32.02320070509622" lon="-6.1505160042660165"><ele>1246.8000000000002</ele><time>2026-05-04T09:41:33Z</time></trkpt><trkpt lat="32.023102199605184" lon="-6.150509898515067"><ele>1249.2</ele><time>2026-05-04T09:41:34Z</time></trkpt><trkpt lat="32.02300138150105" lon="-6.150519836506606"><ele>1251.6000000000001</ele><time>2026-05-04T09:41:35Z</time></trkpt><trkpt lat="32.022901932786084" lon="-6.150534567625395"><ele>1254.0</ele><time>2026-05-04T09:41:36Z</time></trkpt><trkpt lat="32.02280481142742" lon="-6.150559080753025"><ele>1254.0</ele><time>2026-05-04T09:41:37Z</time></trkpt><trkpt lat="32.02270845516929" lon="-6.150590817837357"><ele>1254.0</ele><time>2026-05-04T09:41:38Z</time></trkpt><trkpt lat="32.022608490614665" lon="-6.150631943842661"><ele>1254.0</ele><time>2026-05-04T09:41:39Z</time></trkpt><trkpt lat="32.022509694193545" lon="-6.150701224971288"><ele>1254.0</ele><time>2026-05-04T09:41:40Z</time></trkpt><trkpt lat="32.022416157818" lon="-6.1507386338878725"><ele>1254.0</ele><time>2026-05-04T09:41:41Z</time></trkpt><trkpt lat="32.022326413156414" lon="-6.150770962529567"><ele>1249.2</ele><time>2026-05-04T09:41:42Z</time></trkpt><trkpt lat="32.02222853610114" lon="-6.150805766698725"><ele>1244.4</ele><time>2026-05-04T09:41:43Z</time></trkpt><trkpt lat="32.022132471925495" lon="-6.1508435826278856"><ele>1239.6</ele><time>2026-05-04T09:41:44Z</time></trkpt><trkpt lat="32.02204439054763" lon="-6.150905306667072"><ele>1234.8</ele><time>2026-05-04T09:41:45Z</time></trkpt><trkpt lat="32.02196285054943" lon="-6.150970660254433"><ele>1230.0</ele><time>2026-05-04T09:41:46Z</time></trkpt><trkpt lat="32.02189635951583" lon="-6.151045311323448"><ele>1230.0</ele><time>2026-05-04T09:41:47Z</time></trkpt><trkpt lat="32.021836113771236" lon="-6.15113376675777"><ele>1230.0</ele><time>2026-05-04T09:41:48Z</time></trkpt><trkpt lat="32.021770859854215" lon="-6.151206822537532"><ele>1230.0</ele><time>2026-05-04T09:41:49Z</time></trkpt><trkpt lat="32.021701701073766" lon="-6.151253530294049"><ele>1230.0</ele><time>2026-05-04T09:41:50Z</time></trkpt><trkpt lat="32.021624170178896" lon="-6.1512805802269535"><ele>1230.0</ele><time>2026-05-04T09:41:51Z</time></trkpt><trkpt lat="32.02154049768203" lon="-6.151292355681638"><ele>1230.0</ele><time>2026-05-04T09:41:52Z</time></trkpt><trkpt lat="32.021446895102414" lon="-6.151286578810695"><ele>1229.5</ele><time>2026-05-04T09:41:53Z</time></trkpt><trkpt lat="32.021366907363685" lon="-6.151297884826728"><ele>1229.0</ele><time>2026-05-04T09:41:54Z</time></trkpt><trkpt lat="32.02129676286577" lon="-6.1512969869840415"><ele>1228.5</ele><time>2026-05-04T09:41:55Z</time></trkpt><trkpt lat="32.02123326130228" lon="-6.151294719061379"><ele>1228.0</ele><time>2026-05-04T09:41:56Z</time></trkpt><trkpt lat="32.02113072686009" lon="-6.151397954027565"><ele>1227.5</ele><time>2026-05-04T09:41:58Z</time></trkpt><trkpt lat="32.021112317264674" lon="-6.151497206913089"><ele>1227.0</ele><time>2026-05-04T09:41:59Z</time></trkpt><trkpt lat="32.02108703346149" lon="-6.151613372098615"><ele>1227.0</ele><time>2026-05-04T09:42:00Z</time></trkpt><trkpt lat="32.02108723320596" lon="-6.151727697152948"><ele>1227.0</ele><time>2026-05-04T09:42:01Z</time></trkpt><trkpt lat="32.021051128107196" lon="-6.151826810639737"><ele>1227.0</ele><time>2026-05-04T09:42:02Z</time></trkpt><trkpt lat="32.02100597097032" lon="-6.151921224841566"><ele>1227.0</ele><time>2026-05-04T09:42:03Z</time></trkpt><trkpt lat="32.02095620467715" lon="-6.152021166166052"><ele>1227.0</ele><time>2026-05-04T09:42:04Z</time></trkpt><trkpt lat="32.02088837711966" lon="-6.152117506821067"><ele>1227.0</ele><time>2026-05-04T09:42:05Z</time></trkpt><trkpt lat="32.02083123743532" lon="-6.152234489056633"><ele>1227.0</ele><time>2026-05-04T09:42:06Z</time></trkpt><trkpt lat="32.020763878024134" lon="-6.152340124115234"><ele>1227.0</ele><time>2026-05-04T09:42:07Z</time></trkpt><trkpt lat="32.020691778748045" lon="-6.152423064967952"><ele>1227.0</ele><time>2026-05-04T09:42:08Z</time></trkpt><trkpt lat="32.02062960583312" lon="-6.15252079896644"><ele>1227.0</ele><time>2026-05-04T09:42:09Z</time></trkpt><trkpt lat="32.0205699712646" lon="-6.152613544881886"><ele>1228.2</ele><time>2026-05-04T09:42:10Z</time></trkpt><trkpt lat="32.020508751546615" lon="-6.152708586628501"><ele>1229.4</ele><time>2026-05-04T09:42:11Z</time></trkpt><trkpt lat="32.02047457061371" lon="-6.15281241624979"><ele>1230.6</ele><time>2026-05-04T09:42:12Z</time></trkpt><trkpt lat="32.02043582382984" lon="-6.15289619216773"><ele>1231.8</ele><time>2026-05-04T09:42:13Z</time></trkpt><trkpt lat="32.02040264376263" lon="-6.1529761923814155"><ele>1233.0</ele><time>2026-05-04T09:42:14Z</time></trkpt><trkpt lat="32.020330108620335" lon="-6.153068084901964"><ele>1233.0</ele><time>2026-05-04T09:42:16Z</time></trkpt><trkpt lat="32.02022054591801" lon="-6.153063025709261"><ele>1233.0</ele><time>2026-05-04T09:42:18Z</time></trkpt><trkpt lat="32.02015623025407" lon="-6.153022614892374"><ele>1233.0</ele><time>2026-05-04T09:42:19Z</time></trkpt><trkpt lat="32.02008988582223" lon="-6.152969360271441"><ele>1233.0</ele><time>2026-05-04T09:42:20Z</time></trkpt><trkpt lat="32.02001396693676" lon="-6.152906122729135"><ele>1233.0</ele><time>2026-05-04T09:42:21Z</time></trkpt><trkpt lat="32.01993803519532" lon="-6.152838948315496"><ele>1229.5</ele><time>2026-05-04T09:42:22Z</time></trkpt><trkpt lat="32.019861708635716" lon="-6.152775418205642"><ele>1226.0</ele><time>2026-05-04T09:42:23Z</time></trkpt><trkpt lat="32.01978005243661" lon="-6.152725456342121"><ele>1222.5</ele><time>2026-05-04T09:42:24Z</time></trkpt><trkpt lat="32.01970298369926" lon="-6.152688845504736"><ele>1219.0</ele><time>2026-05-04T09:42:25Z</time></trkpt><trkpt lat="32.01963351867419" lon="-6.152646382723811"><ele>1215.5</ele><time>2026-05-04T09:42:26Z</time></trkpt><trkpt lat="32.01956891167718" lon="-6.152599799957413"><ele>1212.0</ele><time>2026-05-04T09:42:27Z</time></trkpt><trkpt lat="32.01949140508615" lon="-6.152566450935677"><ele>1212.0</ele><time>2026-05-04T09:42:28Z</time></trkpt><trkpt lat="32.01943147735675" lon="-6.15249491872167"><ele>1212.0</ele><time>2026-05-04T09:42:29Z</time></trkpt><trkpt lat="32.01936884764375" lon="-6.1524255088317235"><ele>1212.0</ele><time>2026-05-04T09:42:30Z</time></trkpt><trkpt lat="32.019291372962584" lon="-6.152409911962478"><ele>1212.0</ele><time>2026-05-04T09:42:31Z</time></trkpt><trkpt lat="32.019217453047844" lon="-6.152373811482283"><ele>1212.0</ele><time>2026-05-04T09:42:32Z</time></trkpt><trkpt lat="32.01914939146737" lon="-6.152341945063938"><ele>1212.0</ele><time>2026-05-04T09:42:33Z</time></trkpt><trkpt lat="32.01908873744697" lon="-6.152313238676506"><ele>1219.0</ele><time>2026-05-04T09:42:34Z</time></trkpt><trkpt lat="32.01902308412974" lon="-6.1522816454422165"><ele>1226.0</ele><time>2026-05-04T09:42:35Z</time></trkpt><trkpt lat="32.01895809826573" lon="-6.152251367192488"><ele>1233.0</ele><time>2026-05-04T09:42:36Z</time></trkpt><trkpt lat="32.01889289200547" lon="-6.152226028552731"><ele>1240.0</ele><time>2026-05-04T09:42:37Z</time></trkpt><trkpt lat="32.01879001499889" lon="-6.152179025679154"><ele>1247.0</ele><time>2026-05-04T09:42:39Z</time></trkpt><trkpt lat="32.01873467206251" lon="-6.152132256374607"><ele>1254.0</ele><time>2026-05-04T09:42:42Z</time></trkpt><trkpt lat="32.0186379168482" lon="-6.1521028022603685"><ele>1254.0</ele><time>2026-05-04T09:42:54Z</time></trkpt><trkpt lat="32.01855512535602" lon="-6.152118786988233"><ele>1254.0</ele><time>2026-05-04T09:42:56Z</time></trkpt><trkpt lat="32.01847464831953" lon="-6.152129342292946"><ele>1254.0</ele><time>2026-05-04T09:42:58Z</time></trkpt><trkpt lat="32.018361624450684" lon="-6.152146985046293"><ele>1254.0</ele><time>2026-05-04T09:43:00Z</time></trkpt><trkpt lat="32.018258992204174" lon="-6.152161642480102"><ele>1254.0</ele><time>2026-05-04T09:43:02Z</time></trkpt><trkpt lat="32.01814922329311" lon="-6.152167461194021"><ele>1249.2</ele><time>2026-05-04T09:43:04Z</time></trkpt><trkpt lat="32.01803813072635" lon="-6.152144644774885"><ele>1244.4</ele><time>2026-05-04T09:43:06Z</time></trkpt><trkpt lat="32.0179343816178" lon="-6.152103838220733"><ele>1239.6</ele><time>2026-05-04T09:43:08Z</time></trkpt><trkpt lat="32.01787237309356" lon="-6.152070947570854"><ele>1234.8</ele><time>2026-05-04T09:43:09Z</time></trkpt><trkpt lat="32.01778810465938" lon="-6.152019751449407"><ele>1230.0</ele><time>2026-05-04T09:43:11Z</time></trkpt><trkpt lat="32.01766903423681" lon="-6.151960627582397"><ele>1230.0</ele><time>2026-05-04T09:43:13Z</time></trkpt><trkpt lat="32.0175920619155" lon="-6.1519227237904"><ele>1230.0</ele><time>2026-05-04T09:43:14Z</time></trkpt><trkpt lat="32.01751510949533" lon="-6.151862922872187"><ele>1230.0</ele><time>2026-05-04T09:43:15Z</time></trkpt><trkpt lat="32.01744461231999" lon="-6.151812828506504"><ele>1230.0</ele><time>2026-05-04T09:43:16Z</time></trkpt><trkpt lat="32.01738868534711" lon="-6.151737961343401"><ele>1230.0</ele><time>2026-05-04T09:43:17Z</time></trkpt><trkpt lat="32.017332489768044" lon="-6.15166912459099"><ele>1230.0</ele><time>2026-05-04T09:43:18Z</time></trkpt><trkpt lat="32.01727940595534" lon="-6.1515876498280555"><ele>1231.1666666666667</ele><time>2026-05-04T09:43:19Z</time></trkpt><trkpt lat="32.017197093291024" lon="-6.151551355618414"><ele>1232.3333333333333</ele><time>2026-05-04T09:43:20Z</time></trkpt><trkpt lat="32.0171375878931" lon="-6.151513792940584"><ele>1233.5</ele><time>2026-05-04T09:43:21Z</time></trkpt><trkpt lat="32.01702103430384" lon="-6.151510302998713"><ele>1234.6666666666665</ele><time>2026-05-04T09:43:23Z</time></trkpt><trkpt lat="32.01700313726218" lon="-6.151589668001802"><ele>1235.8333333333333</ele><time>2026-05-04T09:43:24Z</time></trkpt><trkpt lat="32.016966248938786" lon="-6.1517005258363575"><ele>1237.0</ele><time>2026-05-04T09:43:26Z</time></trkpt><trkpt lat="32.01692094284081" lon="-6.151767006703008"><ele>1237.0</ele><time>2026-05-04T09:43:27Z</time></trkpt><trkpt lat="32.01687055962289" lon="-6.151841445125798"><ele>1237.0</ele><time>2026-05-04T09:43:28Z</time></trkpt><trkpt lat="32.01682265515317" lon="-6.151912571273912"><ele>1237.0</ele><time>2026-05-04T09:43:29Z</time></trkpt><trkpt lat="32.016748762011254" lon="-6.151968331856241"><ele>1237.0</ele><time>2026-05-04T09:43:30Z</time></trkpt><trkpt lat="32.016694406608295" lon="-6.152021571475833"><ele>1237.0</ele><time>2026-05-04T09:43:31Z</time></trkpt><trkpt lat="32.01663068471472" lon="-6.152083949637095"><ele>1237.0</ele><time>2026-05-04T09:43:32Z</time></trkpt><trkpt lat="32.016538857293725" lon="-6.15215103609666"><ele>1244.0</ele><time>2026-05-04T09:43:33Z</time></trkpt><trkpt lat="32.01642029528545" lon="-6.15222236863219"><ele>1251.0</ele><time>2026-05-04T09:43:34Z</time></trkpt><trkpt lat="32.016318830558575" lon="-6.152262969659478"><ele>1258.0</ele><time>2026-05-04T09:43:35Z</time></trkpt><trkpt lat="32.01622236920506" lon="-6.152296912269529"><ele>1265.0</ele><time>2026-05-04T09:43:36Z</time></trkpt><trkpt lat="32.016143502531044" lon="-6.152320766242508"><ele>1272.0</ele><time>2026-05-04T09:43:37Z</time></trkpt><trkpt lat="32.016083065596426" lon="-6.152346658929976"><ele>1272.8</ele><time>2026-05-04T09:43:38Z</time></trkpt><trkpt lat="32.01599575638905" lon="-6.1524035326616575"><ele>1273.6</ele><time>2026-05-04T09:43:39Z</time></trkpt><trkpt lat="32.01591694298225" lon="-6.152454029112399"><ele>1274.3999999999999</ele><time>2026-05-04T09:43:40Z</time></trkpt><trkpt lat="32.01584120430419" lon="-6.152581294074396"><ele>1275.2</ele><time>2026-05-04T09:43:42Z</time></trkpt><trkpt lat="32.015789530828364" lon="-6.152648614858633"><ele>1276.0</ele><time>2026-05-04T09:43:43Z</time></trkpt><trkpt lat="32.01573403832241" lon="-6.152720955092928"><ele>1276.0</ele><time>2026-05-04T09:43:44Z</time></trkpt><trkpt lat="32.015696736567044" lon="-6.152789068520986"><ele>1276.0</ele><time>2026-05-04T09:43:45Z</time></trkpt><trkpt lat="32.01565346164117" lon="-6.15285866970431"><ele>1276.0</ele><time>2026-05-04T09:43:46Z</time></trkpt><trkpt lat="32.015606245335455" lon="-6.1529342220058005"><ele>1276.0</ele><time>2026-05-04T09:43:47Z</time></trkpt><trkpt lat="32.01556062720129" lon="-6.153005012138775"><ele>1276.0</ele><time>2026-05-04T09:43:48Z</time></trkpt><trkpt lat="32.015525251703295" lon="-6.153074992240539"><ele>1276.0</ele><time>2026-05-04T09:43:49Z</time></trkpt><trkpt lat="32.01547839995686" lon="-6.15316467805493"><ele>1269.8</ele><time>2026-05-04T09:43:50Z</time></trkpt><trkpt lat="32.015427897708456" lon="-6.153259750738863"><ele>1263.6</ele><time>2026-05-04T09:43:51Z</time></trkpt><trkpt lat="32.01538173399643" lon="-6.153348660082377"><ele>1257.4</ele><time>2026-05-04T09:43:52Z</time></trkpt><trkpt lat="32.015347108553684" lon="-6.1534370892172365"><ele>1251.2</ele><time>2026-05-04T09:43:53Z</time></trkpt><trkpt lat="32.01530519047928" lon="-6.153546270009155"><ele>1245.0</ele><time>2026-05-04T09:43:54Z</time></trkpt><trkpt lat="32.01526717403832" lon="-6.1536444730229"><ele>1245.0</ele><time>2026-05-04T09:43:55Z</time></trkpt><trkpt lat="32.01523344702744" lon="-6.153732379985585"><ele>1245.0</ele><time>2026-05-04T09:43:56Z</time></trkpt><trkpt lat="32.01520009656523" lon="-6.153820029745864"><ele>1245.0</ele><time>2026-05-04T09:43:57Z</time></trkpt><trkpt lat="32.015170925489684" lon="-6.153897962984398"><ele>1245.0</ele><time>2026-05-04T09:43:58Z</time></trkpt><trkpt lat="32.0151397610276" lon="-6.153990378447868"><ele>1245.0</ele><time>2026-05-04T09:43:59Z</time></trkpt><trkpt lat="32.015110421438955" lon="-6.154076875693552"><ele>1245.0</ele><time>2026-05-04T09:44:00Z</time></trkpt><trkpt lat="32.01508144945526" lon="-6.154162289215105"><ele>1239.5</ele><time>2026-05-04T09:44:01Z</time></trkpt><trkpt lat="32.01505031920739" lon="-6.15425400472772"><ele>1234.0</ele><time>2026-05-04T09:44:02Z</time></trkpt><trkpt lat="32.01502318794673" lon="-6.154339951620898"><ele>1228.5</ele><time>2026-05-04T09:44:03Z</time></trkpt><trkpt lat="32.01499563705206" lon="-6.154431389635599"><ele>1223.0</ele><time>2026-05-04T09:44:04Z</time></trkpt><trkpt lat="32.0149716806992" lon="-6.154510897823186"><ele>1217.5</ele><time>2026-05-04T09:44:05Z</time></trkpt><trkpt lat="32.014931574549806" lon="-6.154642668694261"><ele>1212.0</ele><time>2026-05-04T09:44:07Z</time></trkpt><trkpt lat="32.014909794450034" lon="-6.154737157743877"><ele>1222.8</ele><time>2026-05-04T09:44:09Z</time></trkpt><trkpt lat="32.014897484453904" lon="-6.154812641096747"><ele>1233.6</ele><time>2026-05-04T09:44:10Z</time></trkpt><trkpt lat="32.014883981512554" lon="-6.154895439326134"><ele>1244.3999999999999</ele><time>2026-05-04T09:44:11Z</time></trkpt><trkpt lat="32.01486660847055" lon="-6.155016503218339"><ele>1255.2</ele><time>2026-05-04T09:44:13Z</time></trkpt><trkpt lat="32.01476176334394" lon="-6.155131781647626"><ele>1266.0</ele><time>2026-05-04T09:44:15Z</time></trkpt><trkpt lat="32.01473841967964" lon="-6.155251484441045"><ele>1266.0</ele><time>2026-05-04T09:44:17Z</time></trkpt><trkpt lat="32.014683930864365" lon="-6.15537750018985"><ele>1266.0</ele><time>2026-05-04T09:44:19Z</time></trkpt><trkpt lat="32.01465336490378" lon="-6.1554512658350395"><ele>1266.0</ele><time>2026-05-04T09:44:20Z</time></trkpt><trkpt lat="32.01459429907708" lon="-6.155564799253782"><ele>1266.0</ele><time>2026-05-04T09:44:22Z</time></trkpt><trkpt lat="32.014502293949164" lon="-6.155663033549779"><ele>1266.0</ele><time>2026-05-04T09:44:24Z</time></trkpt><trkpt lat="32.01442547059033" lon="-6.155707129881866"><ele>1259.3999999999999</ele><time>2026-05-04T09:44:25Z</time></trkpt><trkpt lat="32.01434180180413" lon="-6.155738283673994"><ele>1252.8</ele><time>2026-05-04T09:44:26Z</time></trkpt><trkpt lat="32.014250858639706" lon="-6.155762889436904"><ele>1246.1999999999998</ele><time>2026-05-04T09:44:27Z</time></trkpt><trkpt lat="32.01415142066349" lon="-6.1558059741394935"><ele>1239.6</ele><time>2026-05-04T09:44:28Z</time></trkpt><trkpt lat="32.01406211804084" lon="-6.155843411093873"><ele>1233.0</ele><time>2026-05-04T09:44:29Z</time></trkpt><trkpt lat="32.01396413214478" lon="-6.155883321424672"><ele>1233.0</ele><time>2026-05-04T09:44:30Z</time></trkpt><trkpt lat="32.01386755378177" lon="-6.155933333301742"><ele>1233.0</ele><time>2026-05-04T09:44:31Z</time></trkpt><trkpt lat="32.01378521829507" lon="-6.155977744040554"><ele>1233.0</ele><time>2026-05-04T09:44:32Z</time></trkpt><trkpt lat="32.01370876125973" lon="-6.156028961251152"><ele>1233.0</ele><time>2026-05-04T09:44:33Z</time></trkpt><trkpt lat="32.01364072190981" lon="-6.156081253000209"><ele>1233.0</ele><time>2026-05-04T09:44:34Z</time></trkpt><trkpt lat="32.01361887670514" lon="-6.156225457647308"><ele>1233.0</ele><time>2026-05-04T09:44:35Z</time></trkpt><trkpt lat="32.01352176354774" lon="-6.156271497550349"><ele>1233.0</ele><time>2026-05-04T09:44:37Z</time></trkpt><trkpt lat="32.01345511923818" lon="-6.156263074612684"><ele>1233.0</ele><time>2026-05-04T09:44:38Z</time></trkpt><trkpt lat="32.013365291373425" lon="-6.156241867917618"><ele>1233.0</ele><time>2026-05-04T09:44:39Z</time></trkpt><trkpt lat="32.013285828992665" lon="-6.156206353576271"><ele>1233.0</ele><time>2026-05-04T09:44:40Z</time></trkpt><trkpt lat="32.01321149719234" lon="-6.15615504361851"><ele>1233.0</ele><time>2026-05-04T09:44:41Z</time></trkpt><trkpt lat="32.01314377448905" lon="-6.156099326108228"><ele>1230.4</ele><time>2026-05-04T09:44:42Z</time></trkpt><trkpt lat="32.01308719691929" lon="-6.156047299470303"><ele>1227.8</ele><time>2026-05-04T09:44:43Z</time></trkpt><trkpt lat="32.013019930278574" lon="-6.155977897534579"><ele>1225.2</ele><time>2026-05-04T09:44:44Z</time></trkpt><trkpt lat="32.01294557825378" lon="-6.155910983934521"><ele>1222.6</ele><time>2026-05-04T09:44:45Z</time></trkpt><trkpt lat="32.012870097222525" lon="-6.155849064104211"><ele>1220.0</ele><time>2026-05-04T09:44:46Z</time></trkpt><trkpt lat="32.012740686878836" lon="-6.155783475947127"><ele>1220.0</ele><time>2026-05-04T09:44:48Z</time></trkpt><trkpt lat="32.01267089731147" lon="-6.155754384507939"><ele>1220.0</ele><time>2026-05-04T09:44:49Z</time></trkpt><trkpt lat="32.01260505432361" lon="-6.155758882894062"><ele>1220.0</ele><time>2026-05-04T09:44:50Z</time></trkpt><trkpt lat="32.01248463027254" lon="-6.155765753849259"><ele>1220.0</ele><time>2026-05-04T09:44:52Z</time></trkpt><trkpt lat="32.01238383825453" lon="-6.155787347728868"><ele>1220.0</ele><time>2026-05-04T09:44:54Z</time></trkpt><trkpt lat="32.01229471035347" lon="-6.155804867101682"><ele>1218.5</ele><time>2026-05-04T09:44:56Z</time></trkpt><trkpt lat="32.01220603842583" lon="-6.15582085672908"><ele>1217.0</ele><time>2026-05-04T09:44:58.001Z</time></trkpt><trkpt lat="32.012143786927275" lon="-6.155832082088534"><ele>1215.5</ele><time>2026-05-04T09:45:00.001Z</time></trkpt><trkpt lat="32.012077968856154" lon="-6.155843950598143"><ele>1214.0</ele><time>2026-05-04T09:45:03.001Z</time></trkpt><trkpt lat="32.01199359541589" lon="-6.155859424905068"><ele>1212.5</ele><time>2026-05-04T09:45:05.001Z</time></trkpt><trkpt lat="32.01187745320771" lon="-6.155881953702724"><ele>1211.0</ele><time>2026-05-04T09:45:07.001Z</time></trkpt><trkpt lat="32.01180656622437" lon="-6.155897924261952"><ele>1211.0</ele><time>2026-05-04T09:45:08.001Z</time></trkpt><trkpt lat="32.0117372986945" lon="-6.1559197354170765"><ele>1211.0</ele><time>2026-05-04T09:45:09.001Z</time></trkpt><trkpt lat="32.01161241640764" lon="-6.155943111291515"><ele>1211.0</ele><time>2026-05-04T09:45:11.001Z</time></trkpt><trkpt lat="32.0115121180578" lon="-6.155898964844987"><ele>1211.0</ele><time>2026-05-04T09:45:13.001Z</time></trkpt><trkpt lat="32.01146403363308" lon="-6.155788777074853"><ele>1211.0</ele><time>2026-05-04T09:45:14.001Z</time></trkpt><trkpt lat="32.011440740882655" lon="-6.155678421097038"><ele>1209.6</ele><time>2026-05-04T09:45:15.001Z</time></trkpt><trkpt lat="32.01142703030225" lon="-6.155591028804452"><ele>1208.1999999999998</ele><time>2026-05-04T09:45:16Z</time></trkpt><trkpt lat="32.01135149891837" lon="-6.155495911935608"><ele>1206.8000000000002</ele><time>2026-05-04T09:45:18Z</time></trkpt><trkpt lat="32.01122583870839" lon="-6.155476060456689"><ele>1205.4</ele><time>2026-05-04T09:45:20Z</time></trkpt><trkpt lat="32.01114163094527" lon="-6.15543008858578"><ele>1204.0</ele><time>2026-05-04T09:45:22Z</time></trkpt><trkpt lat="32.011105816512604" lon="-6.155332582468687"><ele>1204.0</ele><time>2026-05-04T09:45:23Z</time></trkpt><trkpt lat="32.01108212008806" lon="-6.155250017619633"><ele>1204.0</ele><time>2026-05-04T09:45:24Z</time></trkpt><trkpt lat="32.01106147524407" lon="-6.155170296817053"><ele>1204.0</ele><time>2026-05-04T09:45:25Z</time></trkpt><trkpt lat="32.01103860246847" lon="-6.155083786555319"><ele>1204.0</ele><time>2026-05-04T09:45:26Z</time></trkpt><trkpt lat="32.01101298880192" lon="-6.154989950761324"><ele>1204.0</ele><time>2026-05-04T09:45:27Z</time></trkpt><trkpt lat="32.010987445346416" lon="-6.154897762712158"><ele>1204.0</ele><time>2026-05-04T09:45:28Z</time></trkpt><trkpt lat="32.010959993600586" lon="-6.154802324834198"><ele>1207.0</ele><time>2026-05-04T09:45:29Z</time></trkpt><trkpt lat="32.01093309092278" lon="-6.154709087388351"><ele>1210.0</ele><time>2026-05-04T09:45:30Z</time></trkpt><trkpt lat="32.01090728928585" lon="-6.154618073106147"><ele>1213.0</ele><time>2026-05-04T09:45:31Z</time></trkpt><trkpt lat="32.01088482190472" lon="-6.1545385179524414"><ele>1216.0</ele><time>2026-05-04T09:45:32Z</time></trkpt><trkpt lat="32.01082888882555" lon="-6.1544082974750305"><ele>1219.0</ele><time>2026-05-04T09:45:34Z</time></trkpt><trkpt lat="32.01074135589999" lon="-6.154433238694033"><ele>1219.0</ele><time>2026-05-04T09:45:37Z</time></trkpt><trkpt lat="32.01067865090461" lon="-6.154471539026547"><ele>1219.0</ele><time>2026-05-04T09:45:39Z</time></trkpt><trkpt lat="32.010640481705906" lon="-6.154531391175007"><ele>1219.0</ele><time>2026-05-04T09:45:40Z</time></trkpt><trkpt lat="32.01059304920144" lon="-6.1546072254160835"><ele>1219.0</ele><time>2026-05-04T09:45:41Z</time></trkpt><trkpt lat="32.010551058462454" lon="-6.15467461519845"><ele>1219.0</ele><time>2026-05-04T09:45:42Z</time></trkpt><trkpt lat="32.01051157641852" lon="-6.154737982058841"><ele>1219.0</ele><time>2026-05-04T09:45:43Z</time></trkpt><trkpt lat="32.01046353184402" lon="-6.154811776590557"><ele>1219.0</ele><time>2026-05-04T09:45:44Z</time></trkpt><trkpt lat="32.010417859426404" lon="-6.154878420314508"><ele>1216.1666666666665</ele><time>2026-05-04T09:45:45Z</time></trkpt><trkpt lat="32.01037129890401" lon="-6.154945159436686"><ele>1213.3333333333333</ele><time>2026-05-04T09:45:46Z</time></trkpt><trkpt lat="32.01032024575156" lon="-6.155017378364246"><ele>1210.5</ele><time>2026-05-04T09:45:47Z</time></trkpt><trkpt lat="32.01025469314158" lon="-6.1550797777742865"><ele>1207.6666666666667</ele><time>2026-05-04T09:45:48Z</time></trkpt><trkpt lat="32.01018700856483" lon="-6.15512485821743"><ele>1204.8333333333335</ele><time>2026-05-04T09:45:49Z</time></trkpt><trkpt lat="32.010131030801325" lon="-6.155160970460161"><ele>1202.0</ele><time>2026-05-04T09:45:50Z</time></trkpt><trkpt lat="32.01004605833966" lon="-6.155172133310997"><ele>1201.0</ele><time>2026-05-04T09:45:51Z</time></trkpt><trkpt lat="32.0099696019601" lon="-6.155188102104829"><ele>1200.0</ele><time>2026-05-04T09:45:52Z</time></trkpt><trkpt lat="32.00988473695402" lon="-6.155194290203368"><ele>1199.0</ele><time>2026-05-04T09:45:53Z</time></trkpt><trkpt lat="32.00981072985511" lon="-6.1551968688703145"><ele>1198.0</ele><time>2026-05-04T09:45:54Z</time></trkpt><trkpt lat="32.00971816186134" lon="-6.155148920776014"><ele>1197.0</ele><time>2026-05-04T09:45:55Z</time></trkpt><trkpt lat="32.00965563666468" lon="-6.1551225063987145"><ele>1196.0</ele><time>2026-05-04T09:45:56Z</time></trkpt><trkpt lat="32.009544920850225" lon="-6.155076185862168"><ele>1196.0</ele><time>2026-05-04T09:45:58Z</time></trkpt><trkpt lat="32.009482660744034" lon="-6.15505271990793"><ele>1196.0</ele><time>2026-05-04T09:45:59Z</time></trkpt><trkpt lat="32.00941911865718" lon="-6.155032232992223"><ele>1196.0</ele><time>2026-05-04T09:46:00Z</time></trkpt><trkpt lat="32.0093468265389" lon="-6.1550658001834355"><ele>1196.0</ele><time>2026-05-04T09:46:02Z</time></trkpt><trkpt lat="32.009282992944534" lon="-6.155187846724677"><ele>1196.0</ele><time>2026-05-04T09:46:05Z</time></trkpt><trkpt lat="32.009197700486126" lon="-6.155296420894837"><ele>1194.0</ele><time>2026-05-04T09:46:07Z</time></trkpt><trkpt lat="32.00909202353644" lon="-6.155381750541046"><ele>1192.0</ele><time>2026-05-04T09:46:09Z</time></trkpt><trkpt lat="32.00901147013828" lon="-6.155405213824397"><ele>1190.0</ele><time>2026-05-04T09:46:10Z</time></trkpt><trkpt lat="32.008916324637" lon="-6.155386413880848"><ele>1188.0</ele><time>2026-05-04T09:46:11Z</time></trkpt><trkpt lat="32.0087952009745" lon="-6.155345280806468"><ele>1186.0</ele><time>2026-05-04T09:46:13Z</time></trkpt><trkpt lat="32.00873009432325" lon="-6.1553172057491174"><ele>1186.0</ele><time>2026-05-04T09:46:14Z</time></trkpt><trkpt lat="32.008608939719146" lon="-6.1552649802777255"><ele>1186.0</ele><time>2026-05-04T09:46:16Z</time></trkpt><trkpt lat="32.00854609735015" lon="-6.155237891241322"><ele>1186.0</ele><time>2026-05-04T09:46:17Z</time></trkpt><trkpt lat="32.00842674420362" lon="-6.155197631788397"><ele>1186.0</ele><time>2026-05-04T09:46:19Z</time></trkpt><trkpt lat="32.00830835537669" lon="-6.155149775806609"><ele>1186.0</ele><time>2026-05-04T09:46:21Z</time></trkpt><trkpt lat="32.00820623200486" lon="-6.15504130206812"><ele>1185.8</ele><time>2026-05-04T09:46:23Z</time></trkpt><trkpt lat="32.008168514093796" lon="-6.154971161366455"><ele>1185.6</ele><time>2026-05-04T09:46:24Z</time></trkpt><trkpt lat="32.00808883926712" lon="-6.154844034096097"><ele>1185.4</ele><time>2026-05-04T09:46:26Z</time></trkpt><trkpt lat="32.008046765915005" lon="-6.154772436230902"><ele>1185.2</ele><time>2026-05-04T09:46:27Z</time></trkpt><trkpt lat="32.008010229031335" lon="-6.154707421204793"><ele>1185.0</ele><time>2026-05-04T09:46:28Z</time></trkpt><trkpt lat="32.00793907127564" lon="-6.1545894923769415"><ele>1185.0</ele><time>2026-05-04T09:46:30Z</time></trkpt><trkpt lat="32.00786444273274" lon="-6.15449450630251"><ele>1185.0</ele><time>2026-05-04T09:46:32Z</time></trkpt><trkpt lat="32.00777315274282" lon="-6.15441073303975"><ele>1185.0</ele><time>2026-05-04T09:46:34Z</time></trkpt><trkpt lat="32.00771748118293" lon="-6.154368848508386"><ele>1185.0</ele><time>2026-05-04T09:46:35Z</time></trkpt><trkpt lat="32.007659673582474" lon="-6.154328658150702"><ele>1185.0</ele><time>2026-05-04T09:46:36Z</time></trkpt><trkpt lat="32.00759937491743" lon="-6.154289323936583"><ele>1185.0</ele><time>2026-05-04T09:46:37Z</time></trkpt><trkpt lat="32.007541632925296" lon="-6.154252083609595"><ele>1182.4</ele><time>2026-05-04T09:46:38Z</time></trkpt><trkpt lat="32.00748434563678" lon="-6.154211673096567"><ele>1179.8</ele><time>2026-05-04T09:46:39Z</time></trkpt><trkpt lat="32.00738445929621" lon="-6.154136824432563"><ele>1177.2</ele><time>2026-05-04T09:46:41Z</time></trkpt><trkpt lat="32.00729148050402" lon="-6.154159642129078"><ele>1174.6</ele><time>2026-05-04T09:46:43Z</time></trkpt><trkpt lat="32.00728955077133" lon="-6.15424986200591"><ele>1172.0</ele><time>2026-05-04T09:46:44Z</time></trkpt><trkpt lat="32.0072015908126" lon="-6.154327279943865"><ele>1172.0</ele><time>2026-05-04T09:46:46Z</time></trkpt><trkpt lat="32.007138192851365" lon="-6.154351784703013"><ele>1172.0</ele><time>2026-05-04T09:46:47Z</time></trkpt><trkpt lat="32.006997519505674" lon="-6.154358932064794"><ele>1172.0</ele><time>2026-05-04T09:46:49Z</time></trkpt><trkpt lat="32.006927992939126" lon="-6.1543506191499056"><ele>1172.0</ele><time>2026-05-04T09:46:50Z</time></trkpt><trkpt lat="32.006860904073505" lon="-6.154315059853073"><ele>1172.0</ele><time>2026-05-04T09:46:51Z</time></trkpt><trkpt lat="32.00679055065868" lon="-6.154316511873486"><ele>1172.0</ele><time>2026-05-04T09:46:52Z</time></trkpt><trkpt lat="32.006714537302216" lon="-6.154294698980722"><ele>1171.3333333333335</ele><time>2026-05-04T09:46:53Z</time></trkpt><trkpt lat="32.00664566027799" lon="-6.154268706218728"><ele>1170.6666666666667</ele><time>2026-05-04T09:46:54Z</time></trkpt><trkpt lat="32.006576587488986" lon="-6.154243402233693"><ele>1170.0</ele><time>2026-05-04T09:46:55Z</time></trkpt><trkpt lat="32.006505308784824" lon="-6.154235332271445"><ele>1169.3333333333333</ele><time>2026-05-04T09:46:56Z</time></trkpt><trkpt lat="32.00640197827002" lon="-6.154186113484032"><ele>1168.6666666666665</ele><time>2026-05-04T09:46:58Z</time></trkpt><trkpt lat="32.00629457202919" lon="-6.154129291950512"><ele>1168.0</ele><time>2026-05-04T09:47:00Z</time></trkpt><trkpt lat="32.0062215564575" lon="-6.153994040665434"><ele>1168.0</ele><time>2026-05-04T09:47:02Z</time></trkpt><trkpt lat="32.00618947779194" lon="-6.153858567898961"><ele>1168.0</ele><time>2026-05-04T09:47:04.001Z</time></trkpt><trkpt lat="32.00618017782263" lon="-6.153714058644112"><ele>1168.0</ele><time>2026-05-04T09:47:06.001Z</time></trkpt><trkpt lat="32.00618230756231" lon="-6.153570727577135"><ele>1168.0</ele><time>2026-05-04T09:47:08.001Z</time></trkpt><trkpt lat="32.006195899511106" lon="-6.153492815645689"><ele>1168.0</ele><time>2026-05-04T09:47:09.001Z</time></trkpt><trkpt lat="32.006221867617995" lon="-6.153346952846629"><ele>1168.0</ele><time>2026-05-04T09:47:11.001Z</time></trkpt><trkpt lat="32.00623611396254" lon="-6.153271171913203"><ele>1168.0</ele><time>2026-05-04T09:47:12.001Z</time></trkpt><trkpt lat="32.00625137150726" lon="-6.153193053754611"><ele>1168.0</ele><time>2026-05-04T09:47:13.001Z</time></trkpt><trkpt lat="32.00625848367062" lon="-6.153116772333278"><ele>1168.0</ele><time>2026-05-04T09:47:14.001Z</time></trkpt><trkpt lat="32.006264907079945" lon="-6.153038273270142"><ele>1168.0</ele><time>2026-05-04T09:47:15.001Z</time></trkpt><trkpt lat="32.00621573809636" lon="-6.152931266906588"><ele>1168.0</ele><time>2026-05-04T09:47:17.001Z</time></trkpt><trkpt lat="32.00611717361339" lon="-6.15286629275873"><ele>1169.8333333333333</ele><time>2026-05-04T09:47:19.001Z</time></trkpt><trkpt lat="32.00603784726483" lon="-6.152878293640251"><ele>1171.6666666666665</ele><time>2026-05-04T09:47:20.001Z</time></trkpt><trkpt lat="32.00595956467193" lon="-6.152908053834992"><ele>1173.5</ele><time>2026-05-04T09:47:21.001Z</time></trkpt><trkpt lat="32.00589214302544" lon="-6.152964169049471"><ele>1175.3333333333333</ele><time>2026-05-04T09:47:22Z</time></trkpt><trkpt lat="32.00583154803608" lon="-6.153038938794892"><ele>1177.1666666666667</ele><time>2026-05-04T09:47:23Z</time></trkpt><trkpt lat="32.00577546097824" lon="-6.153117841790756"><ele>1179.0</ele><time>2026-05-04T09:47:24Z</time></trkpt><trkpt lat="32.00571752994877" lon="-6.153176383029651"><ele>1177.142857142857</ele><time>2026-05-04T09:47:25Z</time></trkpt><trkpt lat="32.00566211933201" lon="-6.153222615272946"><ele>1175.2857142857142</ele><time>2026-05-04T09:47:26Z</time></trkpt><trkpt lat="32.00561643889704" lon="-6.153279658390438"><ele>1173.4285714285716</ele><time>2026-05-04T09:47:27Z</time></trkpt><trkpt lat="32.005557361027414" lon="-6.153334546273216"><ele>1171.5714285714284</ele><time>2026-05-04T09:47:28Z</time></trkpt><trkpt lat="32.005497519506065" lon="-6.153393294864551"><ele>1169.7142857142858</ele><time>2026-05-04T09:47:29Z</time></trkpt><trkpt lat="32.00543481731798" lon="-6.153445736427"><ele>1167.857142857143</ele><time>2026-05-04T09:47:30Z</time></trkpt><trkpt lat="32.00537312457766" lon="-6.153488962403618"><ele>1166.0</ele><time>2026-05-04T09:47:31Z</time></trkpt><trkpt lat="32.005305817245585" lon="-6.153528583170598"><ele>1166.0</ele><time>2026-05-04T09:47:32Z</time></trkpt><trkpt lat="32.005253110631635" lon="-6.15357412066885"><ele>1166.0</ele><time>2026-05-04T09:47:33Z</time></trkpt><trkpt lat="32.00519488275256" lon="-6.153610094677683"><ele>1166.0</ele><time>2026-05-04T09:47:34Z</time></trkpt><trkpt lat="32.005078413101955" lon="-6.153639608343727"><ele>1166.0</ele><time>2026-05-04T09:47:36Z</time></trkpt><trkpt lat="32.00496173414952" lon="-6.153604759461265"><ele>1166.0</ele><time>2026-05-04T09:47:38Z</time></trkpt><trkpt lat="32.00490996479882" lon="-6.153556069751699"><ele>1166.0</ele><time>2026-05-04T09:47:39Z</time></trkpt><trkpt lat="32.00487809896353" lon="-6.153470704303726"><ele>1168.8333333333335</ele><time>2026-05-04T09:47:40Z</time></trkpt><trkpt lat="32.00485654874619" lon="-6.153384291393327"><ele>1171.6666666666667</ele><time>2026-05-04T09:47:41Z</time></trkpt><trkpt lat="32.00483285666922" lon="-6.153291835671948"><ele>1174.5</ele><time>2026-05-04T09:47:42Z</time></trkpt><trkpt lat="32.00481099520333" lon="-6.153207360811772"><ele>1177.3333333333333</ele><time>2026-05-04T09:47:43Z</time></trkpt><trkpt lat="32.00473591449687" lon="-6.153133258352206"><ele>1180.1666666666665</ele><time>2026-05-04T09:47:45Z</time></trkpt><trkpt lat="32.004677719050804" lon="-6.153079628089094"><ele>1183.0</ele><time>2026-05-04T09:47:47Z</time></trkpt><trkpt lat="32.00459269879227" lon="-6.153148695116906"><ele>1183.0</ele><time>2026-05-04T09:47:50Z</time></trkpt><trkpt lat="32.00459680979329" lon="-6.153235836517424"><ele>1183.0</ele><time>2026-05-04T09:47:51Z</time></trkpt><trkpt lat="32.00457337577193" lon="-6.153368341452295"><ele>1183.0</ele><time>2026-05-04T09:47:53Z</time></trkpt><trkpt lat="32.00452315954865" lon="-6.153436008938825"><ele>1183.0</ele><time>2026-05-04T09:47:54Z</time></trkpt><trkpt lat="32.004469439943996" lon="-6.1535054402259615"><ele>1183.0</ele><time>2026-05-04T09:47:55Z</time></trkpt><trkpt lat="32.004393359810955" lon="-6.153545606452627"><ele>1183.0</ele><time>2026-05-04T09:47:56Z</time></trkpt><trkpt lat="32.00432537080393" lon="-6.153593707770238"><ele>1183.0</ele><time>2026-05-04T09:47:57Z</time></trkpt><trkpt lat="32.0042709559871" lon="-6.153657525340233"><ele>1183.0</ele><time>2026-05-04T09:47:58Z</time></trkpt><trkpt lat="32.00423804768909" lon="-6.153732746553476"><ele>1183.0</ele><time>2026-05-04T09:47:59Z</time></trkpt><trkpt lat="32.004228719557545" lon="-6.153825636963346"><ele>1183.0</ele><time>2026-05-04T09:48:00Z</time></trkpt><trkpt lat="32.00423534158494" lon="-6.153922009847061"><ele>1183.0</ele><time>2026-05-04T09:48:01Z</time></trkpt><trkpt lat="32.0042370334807" lon="-6.154000898590811"><ele>1183.0</ele><time>2026-05-04T09:48:02Z</time></trkpt><trkpt lat="32.004182755382224" lon="-6.154128463618957"><ele>1180.1666666666665</ele><time>2026-05-04T09:48:04Z</time></trkpt><trkpt lat="32.0041164860528" lon="-6.15416986125596"><ele>1177.3333333333333</ele><time>2026-05-04T09:48:05Z</time></trkpt><trkpt lat="32.00403395617447" lon="-6.154191470669264"><ele>1174.5</ele><time>2026-05-04T09:48:06Z</time></trkpt><trkpt lat="32.003947486991365" lon="-6.154201699265236"><ele>1171.6666666666667</ele><time>2026-05-04T09:48:07Z</time></trkpt><trkpt lat="32.00385308497348" lon="-6.154210046330955"><ele>1168.8333333333335</ele><time>2026-05-04T09:48:08Z</time></trkpt><trkpt lat="32.003758132375836" lon="-6.1542144181389835"><ele>1166.0</ele><time>2026-05-04T09:48:09Z</time></trkpt><trkpt lat="32.003673702177295" lon="-6.154209905042415"><ele>1166.0</ele><time>2026-05-04T09:48:10Z</time></trkpt><trkpt lat="32.00358660563384" lon="-6.154187691010949"><ele>1166.0</ele><time>2026-05-04T09:48:11Z</time></trkpt><trkpt lat="32.00349966640382" lon="-6.154156022767114"><ele>1166.0</ele><time>2026-05-04T09:48:12Z</time></trkpt><trkpt lat="32.003407977462814" lon="-6.1541320337354275"><ele>1166.0</ele><time>2026-05-04T09:48:13Z</time></trkpt><trkpt lat="32.00332561250954" lon="-6.154115971520311"><ele>1166.0</ele><time>2026-05-04T09:48:14Z</time></trkpt><trkpt lat="32.00324583503316" lon="-6.1540870213505885"><ele>1166.0</ele><time>2026-05-04T09:48:15Z</time></trkpt><trkpt lat="32.00316160475266" lon="-6.1540426539969255"><ele>1168.3999999999999</ele><time>2026-05-04T09:48:16Z</time></trkpt><trkpt lat="32.00308077749772" lon="-6.15398394579525"><ele>1170.8</ele><time>2026-05-04T09:48:17Z</time></trkpt><trkpt lat="32.00299608626224" lon="-6.153926299896688"><ele>1173.1999999999998</ele><time>2026-05-04T09:48:18Z</time></trkpt><trkpt lat="32.00291461358615" lon="-6.153868398630826"><ele>1175.6</ele><time>2026-05-04T09:48:19Z</time></trkpt><trkpt lat="32.00282379164231" lon="-6.153839336076297"><ele>1178.0</ele><time>2026-05-04T09:48:20Z</time></trkpt><trkpt lat="32.00274985777431" lon="-6.1537736584439555"><ele>1178.0</ele><time>2026-05-04T09:48:21Z</time></trkpt><trkpt lat="32.002678322282854" lon="-6.153717584745473"><ele>1178.0</ele><time>2026-05-04T09:48:22Z</time></trkpt><trkpt lat="32.00259613222096" lon="-6.1536732684191255"><ele>1178.0</ele><time>2026-05-04T09:48:23Z</time></trkpt><trkpt lat="32.002522596699635" lon="-6.153609265866505"><ele>1178.0</ele><time>2026-05-04T09:48:24Z</time></trkpt><trkpt lat="32.00244770161936" lon="-6.1535410006619236"><ele>1178.0</ele><time>2026-05-04T09:48:25Z</time></trkpt><trkpt lat="32.002380550862306" lon="-6.1534797944797015"><ele>1178.0</ele><time>2026-05-04T09:48:26Z</time></trkpt><trkpt lat="32.002320736321145" lon="-6.153394155065575"><ele>1177.0</ele><time>2026-05-04T09:48:27Z</time></trkpt><trkpt lat="32.00225319805499" lon="-6.1533238618722566"><ele>1176.0</ele><time>2026-05-04T09:48:28Z</time></trkpt><trkpt lat="32.00220014072904" lon="-6.153235483462339"><ele>1175.0</ele><time>2026-05-04T09:48:29Z</time></trkpt><trkpt lat="32.00213628698304" lon="-6.153153178330635"><ele>1174.0</ele><time>2026-05-04T09:48:30Z</time></trkpt><trkpt lat="32.0021212997101" lon="-6.153029398431548"><ele>1173.0</ele><time>2026-05-04T09:48:31Z</time></trkpt><trkpt lat="32.00208177880365" lon="-6.152934667398534"><ele>1173.0</ele><time>2026-05-04T09:48:32Z</time></trkpt><trkpt lat="32.00206043956278" lon="-6.152855379647301"><ele>1173.0</ele><time>2026-05-04T09:48:33Z</time></trkpt><trkpt lat="32.002032692569365" lon="-6.152754224918093"><ele>1173.0</ele><time>2026-05-04T09:48:34Z</time></trkpt><trkpt lat="32.00200388802485" lon="-6.1526541073135395"><ele>1173.0</ele><time>2026-05-04T09:48:35Z</time></trkpt><trkpt lat="32.00197678768817" lon="-6.152559913049875"><ele>1173.0</ele><time>2026-05-04T09:48:36Z</time></trkpt><trkpt lat="32.00194805454121" lon="-6.1524778841746794"><ele>1173.0</ele><time>2026-05-04T09:48:37Z</time></trkpt><trkpt lat="32.00191714509437" lon="-6.15239163132127"><ele>1172.6666666666667</ele><time>2026-05-04T09:48:38Z</time></trkpt><trkpt lat="32.00188667983691" lon="-6.152300039364372"><ele>1172.3333333333333</ele><time>2026-05-04T09:48:39Z</time></trkpt><trkpt lat="32.00185879130419" lon="-6.152198638600231"><ele>1172.0</ele><time>2026-05-04T09:48:40Z</time></trkpt><trkpt lat="32.001831561528135" lon="-6.152095692053441"><ele>1171.6666666666665</ele><time>2026-05-04T09:48:41Z</time></trkpt><trkpt lat="32.001807123579155" lon="-6.152006372628393"><ele>1171.3333333333333</ele><time>2026-05-04T09:48:42Z</time></trkpt><trkpt lat="32.00178511593382" lon="-6.151925951316914"><ele>1171.0</ele><time>2026-05-04T09:48:43Z</time></trkpt><trkpt lat="32.00176454899767" lon="-6.151850923128665"><ele>1171.0</ele><time>2026-05-04T09:48:44Z</time></trkpt><trkpt lat="32.001772433230535" lon="-6.151757952471895"><ele>1171.0</ele><time>2026-05-04T09:48:45Z</time></trkpt><trkpt lat="32.00178481576528" lon="-6.151683619784856"><ele>1171.0</ele><time>2026-05-04T09:48:46Z</time></trkpt><trkpt lat="32.00180933940932" lon="-6.151606924247353"><ele>1171.0</ele><time>2026-05-04T09:48:47Z</time></trkpt><trkpt lat="32.00183458336407" lon="-6.151528780995999"><ele>1171.0</ele><time>2026-05-04T09:48:48Z</time></trkpt><trkpt lat="32.00185927403267" lon="-6.151455697750181"><ele>1171.0</ele><time>2026-05-04T09:48:49Z</time></trkpt><trkpt lat="32.00190129272744" lon="-6.151334569988187"><ele>1170.3999999999999</ele><time>2026-05-04T09:48:51Z</time></trkpt><trkpt lat="32.00189313832722" lon="-6.151228351829016"><ele>1169.8</ele><time>2026-05-04T09:48:53Z</time></trkpt><trkpt lat="32.0018683341442" lon="-6.1511009765537334"><ele>1169.1999999999998</ele><time>2026-05-04T09:48:55Z</time></trkpt><trkpt lat="32.00183292578876" lon="-6.150969193542177"><ele>1168.6</ele><time>2026-05-04T09:48:57Z</time></trkpt><trkpt lat="32.00178853201418" lon="-6.150876184128041"><ele>1168.0</ele><time>2026-05-04T09:48:59Z</time></trkpt><trkpt lat="32.00168879526511" lon="-6.150782603574443"><ele>1167.0</ele><time>2026-05-04T09:49:01Z</time></trkpt><trkpt lat="32.001623349427135" lon="-6.150712205197437"><ele>1166.0</ele><time>2026-05-04T09:49:02Z</time></trkpt><trkpt lat="32.00154784488121" lon="-6.150658264761479"><ele>1165.0</ele><time>2026-05-04T09:49:03Z</time></trkpt><trkpt lat="32.00149462901038" lon="-6.150607000711295"><ele>1164.0</ele><time>2026-05-04T09:49:04Z</time></trkpt><trkpt lat="32.00138938185233" lon="-6.150532202322307"><ele>1163.0</ele><time>2026-05-04T09:49:06Z</time></trkpt><trkpt lat="32.00133626898413" lon="-6.150485614171273"><ele>1162.0</ele><time>2026-05-04T09:49:07Z</time></trkpt><trkpt lat="32.001277050161555" lon="-6.150433719768079"><ele>1162.0</ele><time>2026-05-04T09:49:08Z</time></trkpt><trkpt lat="32.00121578890771" lon="-6.150380209284732"><ele>1162.0</ele><time>2026-05-04T09:49:09Z</time></trkpt><trkpt lat="32.00115429982645" lon="-6.1503264999442715"><ele>1162.0</ele><time>2026-05-04T09:49:10.001Z</time></trkpt><trkpt lat="32.00109033869947" lon="-6.150252085199451"><ele>1162.0</ele><time>2026-05-04T09:49:11.001Z</time></trkpt><trkpt lat="32.00100656711261" lon="-6.150208990637898"><ele>1162.0</ele><time>2026-05-04T09:49:12.001Z</time></trkpt><trkpt lat="32.00093086162113" lon="-6.150161947311017"><ele>1162.0</ele><time>2026-05-04T09:49:13.001Z</time></trkpt><trkpt lat="32.0008704505035" lon="-6.150118681268494"><ele>1160.4</ele><time>2026-05-04T09:49:14.001Z</time></trkpt><trkpt lat="32.000815704943825" lon="-6.1500792590025135"><ele>1158.8000000000002</ele><time>2026-05-04T09:49:15.001Z</time></trkpt><trkpt lat="32.00071809209148" lon="-6.150013949687842"><ele>1157.2</ele><time>2026-05-04T09:49:17.001Z</time></trkpt><trkpt lat="32.00063735653927" lon="-6.1499359626194625"><ele>1155.6000000000001</ele><time>2026-05-04T09:49:19Z</time></trkpt><trkpt lat="32.00057230735758" lon="-6.149864490580286"><ele>1154.0</ele><time>2026-05-04T09:49:21Z</time></trkpt><trkpt lat="32.000489221548456" lon="-6.149823603364378"><ele>1153.8333333333335</ele><time>2026-05-04T09:49:23Z</time></trkpt><trkpt lat="32.00038846220193" lon="-6.149748178605006"><ele>1153.6666666666667</ele><time>2026-05-04T09:49:25Z</time></trkpt><trkpt lat="32.00034128476461" lon="-6.149692728629218"><ele>1153.5</ele><time>2026-05-04T09:49:26Z</time></trkpt><trkpt lat="32.00028012340274" lon="-6.149667190251592"><ele>1153.3333333333333</ele><time>2026-05-04T09:49:27Z</time></trkpt><trkpt lat="32.00022305134306" lon="-6.149627713343253"><ele>1153.1666666666665</ele><time>2026-05-04T09:49:28Z</time></trkpt><trkpt lat="32.00015777611595" lon="-6.149583957773786"><ele>1153.0</ele><time>2026-05-04T09:49:29Z</time></trkpt><trkpt lat="32.00008162368953" lon="-6.149555391261498"><ele>1153.0</ele><time>2026-05-04T09:49:30Z</time></trkpt><trkpt lat="31.999990899355996" lon="-6.149522688286354"><ele>1153.0</ele><time>2026-05-04T09:49:31Z</time></trkpt><trkpt lat="31.99989198630687" lon="-6.14946707827901"><ele>1153.0</ele><time>2026-05-04T09:49:32Z</time></trkpt><trkpt lat="31.99979126822281" lon="-6.149420484287485"><ele>1153.0</ele><time>2026-05-04T09:49:33Z</time></trkpt><trkpt lat="31.999701703157235" lon="-6.149373082909026"><ele>1153.0</ele><time>2026-05-04T09:49:34Z</time></trkpt><trkpt lat="31.999610015708218" lon="-6.149335398151238"><ele>1153.0</ele><time>2026-05-04T09:49:35Z</time></trkpt><trkpt lat="31.999510345769192" lon="-6.1493072437687495"><ele>1153.0</ele><time>2026-05-04T09:49:36Z</time></trkpt><trkpt lat="31.999408751058485" lon="-6.149277114730064"><ele>1153.0</ele><time>2026-05-04T09:49:37Z</time></trkpt><trkpt lat="31.999306426944536" lon="-6.14922790104663"><ele>1153.0</ele><time>2026-05-04T09:49:38Z</time></trkpt><trkpt lat="31.999218077008926" lon="-6.149186537605654"><ele>1153.0</ele><time>2026-05-04T09:49:39Z</time></trkpt><trkpt lat="31.999144085889398" lon="-6.149140813188256"><ele>1153.4</ele><time>2026-05-04T09:49:40Z</time></trkpt><trkpt lat="31.99906099829899" lon="-6.149080611781033"><ele>1153.8</ele><time>2026-05-04T09:49:41Z</time></trkpt><trkpt lat="31.99897812377566" lon="-6.1490139293445285"><ele>1154.2</ele><time>2026-05-04T09:49:42Z</time></trkpt><trkpt lat="31.998904466760756" lon="-6.148947938893494"><ele>1154.6</ele><time>2026-05-04T09:49:43Z</time></trkpt><trkpt lat="31.998826377958757" lon="-6.148893960452865"><ele>1155.0</ele><time>2026-05-04T09:49:44Z</time></trkpt><trkpt lat="31.998733551902262" lon="-6.148850216174983"><ele>1155.0</ele><time>2026-05-04T09:49:45Z</time></trkpt><trkpt lat="31.998635206538296" lon="-6.148812885301085"><ele>1155.0</ele><time>2026-05-04T09:49:46Z</time></trkpt><trkpt lat="31.9985483470876" lon="-6.1487817803473686"><ele>1155.0</ele><time>2026-05-04T09:49:47Z</time></trkpt><trkpt lat="31.998443822538718" lon="-6.148769636266806"><ele>1155.0</ele><time>2026-05-04T09:49:48Z</time></trkpt><trkpt lat="31.998344544135115" lon="-6.148746771738635"><ele>1155.0</ele><time>2026-05-04T09:49:49Z</time></trkpt><trkpt lat="31.998244464438166" lon="-6.148702330930541"><ele>1154.4</ele><time>2026-05-04T09:49:50Z</time></trkpt><trkpt lat="31.99813632649961" lon="-6.148654316448084"><ele>1153.8</ele><time>2026-05-04T09:49:51Z</time></trkpt><trkpt lat="31.998043952257873" lon="-6.148623845649834"><ele>1153.2</ele><time>2026-05-04T09:49:52Z</time></trkpt><trkpt lat="31.997959020731717" lon="-6.148613231994857"><ele>1152.6</ele><time>2026-05-04T09:49:53Z</time></trkpt><trkpt lat="31.997876281497657" lon="-6.14861287822272"><ele>1152.0</ele><time>2026-05-04T09:49:54Z</time></trkpt><trkpt lat="31.99779328477407" lon="-6.148601778106855"><ele>1152.0</ele><time>2026-05-04T09:49:55Z</time></trkpt><trkpt lat="31.997715735643997" lon="-6.148570772648154"><ele>1152.0</ele><time>2026-05-04T09:49:56Z</time></trkpt><trkpt lat="31.99763997786306" lon="-6.148526076456335"><ele>1152.0</ele><time>2026-05-04T09:49:57Z</time></trkpt><trkpt lat="31.997570541404237" lon="-6.148460680674546"><ele>1152.0</ele><time>2026-05-04T09:49:58Z</time></trkpt><trkpt lat="31.997505887881783" lon="-6.148378242296265"><ele>1152.0</ele><time>2026-05-04T09:49:59Z</time></trkpt><trkpt lat="31.997444865706854" lon="-6.148276348764811"><ele>1153.4</ele><time>2026-05-04T09:50:00Z</time></trkpt><trkpt lat="31.99739072641507" lon="-6.148169446118411"><ele>1154.8000000000002</ele><time>2026-05-04T09:50:01Z</time></trkpt><trkpt lat="31.99734341458196" lon="-6.148062170466457"><ele>1156.2</ele><time>2026-05-04T09:50:02Z</time></trkpt><trkpt lat="31.997291767040565" lon="-6.147960884023579"><ele>1157.6000000000001</ele><time>2026-05-04T09:50:03Z</time></trkpt><trkpt lat="31.99725444958101" lon="-6.147845364888571"><ele>1159.0</ele><time>2026-05-04T09:50:04Z</time></trkpt><trkpt lat="31.997216034662873" lon="-6.14772127996909"><ele>1159.0</ele><time>2026-05-04T09:50:05Z</time></trkpt><trkpt lat="31.997101670219745" lon="-6.147626531100113"><ele>1159.0</ele><time>2026-05-04T09:50:06Z</time></trkpt><trkpt lat="31.997052150375726" lon="-6.147509895772272"><ele>1159.0</ele><time>2026-05-04T09:50:07Z</time></trkpt><trkpt lat="31.997007702681067" lon="-6.147406292947723"><ele>1159.0</ele><time>2026-05-04T09:50:08Z</time></trkpt><trkpt lat="31.99695852493052" lon="-6.147296782395282"><ele>1161.2</ele><time>2026-05-04T09:50:09Z</time></trkpt><trkpt lat="31.996908300801522" lon="-6.147185405507267"><ele>1163.4</ele><time>2026-05-04T09:50:10Z</time></trkpt><trkpt lat="31.996856511996192" lon="-6.147088417342693"><ele>1165.6</ele><time>2026-05-04T09:50:11Z</time></trkpt><trkpt lat="31.996797543067885" lon="-6.146987980185888"><ele>1167.8</ele><time>2026-05-04T09:50:12Z</time></trkpt><trkpt lat="31.996736903238062" lon="-6.146888322001585"><ele>1170.0</ele><time>2026-05-04T09:50:13Z</time></trkpt><trkpt lat="31.996672657650546" lon="-6.146790188583325"><ele>1169.6</ele><time>2026-05-04T09:50:14Z</time></trkpt><trkpt lat="31.996601049640383" lon="-6.14669791163939"><ele>1169.2</ele><time>2026-05-04T09:50:15Z</time></trkpt><trkpt lat="31.996526321050897" lon="-6.146612966646719"><ele>1168.8</ele><time>2026-05-04T09:50:16Z</time></trkpt><trkpt lat="31.9964495103458" lon="-6.146536404592435"><ele>1168.4</ele><time>2026-05-04T09:50:17Z</time></trkpt><trkpt lat="31.996357053533508" lon="-6.146442498283425"><ele>1168.0</ele><time>2026-05-04T09:50:18Z</time></trkpt><trkpt lat="31.99629457345094" lon="-6.146348779064491"><ele>1168.0</ele><time>2026-05-04T09:50:19Z</time></trkpt><trkpt lat="31.99624099405883" lon="-6.14622920411306"><ele>1168.0</ele><time>2026-05-04T09:50:20Z</time></trkpt><trkpt lat="31.996172031048115" lon="-6.146120799070017"><ele>1168.0</ele><time>2026-05-04T09:50:21Z</time></trkpt><trkpt lat="31.99610860091646" lon="-6.146024898038645"><ele>1168.0</ele><time>2026-05-04T09:50:22Z</time></trkpt><trkpt lat="31.996047646539644" lon="-6.145935737882077"><ele>1168.0</ele><time>2026-05-04T09:50:23Z</time></trkpt><trkpt lat="31.995997537259896" lon="-6.145862450299283"><ele>1168.0</ele><time>2026-05-04T09:50:24Z</time></trkpt><trkpt lat="31.995948417651576" lon="-6.145800444981876"><ele>1168.0</ele><time>2026-05-04T09:50:25Z</time></trkpt><trkpt lat="31.995892109575724" lon="-6.145744948259587"><ele>1168.0</ele><time>2026-05-04T09:50:26Z</time></trkpt><trkpt lat="31.995817853878165" lon="-6.145728791708242"><ele>1168.0</ele><time>2026-05-04T09:50:27Z</time></trkpt><trkpt lat="31.99572888656194" lon="-6.145711281379827"><ele>1168.0</ele><time>2026-05-04T09:50:28Z</time></trkpt><trkpt lat="31.995643221702508" lon="-6.145694420947017"><ele>1168.0</ele><time>2026-05-04T09:50:29Z</time></trkpt><trkpt lat="31.995552340085506" lon="-6.145629260604928"><ele>1169.8</ele><time>2026-05-04T09:50:30Z</time></trkpt><trkpt lat="31.9954713321643" lon="-6.145560442097888"><ele>1171.6</ele><time>2026-05-04T09:50:31Z</time></trkpt><trkpt lat="31.995389235257445" lon="-6.145491583184766"><ele>1173.4</ele><time>2026-05-04T09:50:32Z</time></trkpt><trkpt lat="31.995317957642705" lon="-6.145451708282672"><ele>1175.2</ele><time>2026-05-04T09:50:33Z</time></trkpt><trkpt lat="31.99523834571679" lon="-6.1454091490769"><ele>1177.0</ele><time>2026-05-04T09:50:34Z</time></trkpt><trkpt lat="31.995148235804347" lon="-6.145360977927718"><ele>1177.0</ele><time>2026-05-04T09:50:35Z</time></trkpt><trkpt lat="31.995075387197843" lon="-6.145322453810546"><ele>1177.0</ele><time>2026-05-04T09:50:36Z</time></trkpt><trkpt lat="31.995008645404422" lon="-6.14528725160225"><ele>1177.0</ele><time>2026-05-04T09:50:37Z</time></trkpt><trkpt lat="31.99494165466393" lon="-6.145251917878258"><ele>1177.0</ele><time>2026-05-04T09:50:38Z</time></trkpt><trkpt lat="31.994877379003384" lon="-6.1452172985117635"><ele>1177.0</ele><time>2026-05-04T09:50:39Z</time></trkpt><trkpt lat="31.994812832725895" lon="-6.14518067844361"><ele>1177.0</ele><time>2026-05-04T09:50:40Z</time></trkpt><trkpt lat="31.99475766288375" lon="-6.145082012401345"><ele>1177.142857142857</ele><time>2026-05-04T09:50:41Z</time></trkpt><trkpt lat="31.994711973864515" lon="-6.145012071532801"><ele>1177.2857142857142</ele><time>2026-05-04T09:50:42Z</time></trkpt><trkpt lat="31.99466353014627" lon="-6.1449532953267365"><ele>1177.4285714285713</ele><time>2026-05-04T09:50:43Z</time></trkpt><trkpt lat="31.99460721616781" lon="-6.1448852885480605"><ele>1177.5714285714284</ele><time>2026-05-04T09:50:44Z</time></trkpt><trkpt lat="31.99455130118261" lon="-6.144836723986246"><ele>1177.7142857142856</ele><time>2026-05-04T09:50:45Z</time></trkpt><trkpt lat="31.994492076873446" lon="-6.144782378470435"><ele>1177.857142857143</ele><time>2026-05-04T09:50:46Z</time></trkpt><trkpt lat="31.994433406898576" lon="-6.144729142465107"><ele>1178.0</ele><time>2026-05-04T09:50:47Z</time></trkpt><trkpt lat="31.994379324637492" lon="-6.1446802169067185"><ele>1178.0</ele><time>2026-05-04T09:50:48Z</time></trkpt><trkpt lat="31.9943249744075" lon="-6.1446310488633795"><ele>1178.0</ele><time>2026-05-04T09:50:49Z</time></trkpt><trkpt lat="31.99422549365908" lon="-6.1445074294433235"><ele>1178.0</ele><time>2026-05-04T09:50:51Z</time></trkpt><trkpt lat="31.9941899184724" lon="-6.144442223668831"><ele>1178.0</ele><time>2026-05-04T09:50:52Z</time></trkpt><trkpt lat="31.994153527600194" lon="-6.1443755229828305"><ele>1178.0</ele><time>2026-05-04T09:50:53Z</time></trkpt><trkpt lat="31.994098518032413" lon="-6.144274898222423"><ele>1178.0</ele><time>2026-05-04T09:50:55Z</time></trkpt><trkpt lat="31.994033428345194" lon="-6.14415587322051"><ele>1174.0</ele><time>2026-05-04T09:51:26Z</time></trkpt><trkpt lat="31.993988078454198" lon="-6.144065455156683"><ele>1170.0</ele><time>2026-05-04T09:51:27Z</time></trkpt><trkpt lat="31.99395604424798" lon="-6.143947247062989"><ele>1166.0</ele><time>2026-05-04T09:51:28Z</time></trkpt><trkpt lat="31.993922694060352" lon="-6.143818740429756"><ele>1162.0</ele><time>2026-05-04T09:51:29Z</time></trkpt><trkpt lat="31.993884550389172" lon="-6.143677957627857"><ele>1158.0</ele><time>2026-05-04T09:51:30Z</time></trkpt><trkpt lat="31.99384745129837" lon="-6.143531063895345"><ele>1158.0</ele><time>2026-05-04T09:51:31Z</time></trkpt><trkpt lat="31.993826100903018" lon="-6.143395751839538"><ele>1158.0</ele><time>2026-05-04T09:51:32Z</time></trkpt><trkpt lat="31.99380648679925" lon="-6.143272999856391"><ele>1158.0</ele><time>2026-05-04T09:51:33Z</time></trkpt><trkpt lat="31.993785780096285" lon="-6.143143137228999"><ele>1158.0</ele><time>2026-05-04T09:51:34Z</time></trkpt><trkpt lat="31.993767922285038" lon="-6.143026514231411"><ele>1158.0</ele><time>2026-05-04T09:51:35Z</time></trkpt><trkpt lat="31.99375131644203" lon="-6.142919994962361"><ele>1158.5</ele><time>2026-05-04T09:51:36Z</time></trkpt><trkpt lat="31.993751619346718" lon="-6.142814810957856"><ele>1159.0</ele><time>2026-05-04T09:51:37Z</time></trkpt><trkpt lat="31.993748543095933" lon="-6.142728675940209"><ele>1159.5</ele><time>2026-05-04T09:51:38Z</time></trkpt><trkpt lat="31.99374677804546" lon="-6.142639559182509"><ele>1160.0</ele><time>2026-05-04T09:51:39Z</time></trkpt><trkpt lat="31.993785622904742" lon="-6.142526221949847"><ele>1160.5</ele><time>2026-05-04T09:51:40Z</time></trkpt><trkpt lat="31.99381659922997" lon="-6.142450841068566"><ele>1161.0</ele><time>2026-05-04T09:51:41Z</time></trkpt><trkpt lat="31.99383602316242" lon="-6.142361120343695"><ele>1161.0</ele><time>2026-05-04T09:51:42Z</time></trkpt><trkpt lat="31.9938617078226" lon="-6.142266460259545"><ele>1161.0</ele><time>2026-05-04T09:51:43Z</time></trkpt><trkpt lat="31.993826908140854" lon="-6.142150985207049"><ele>1161.0</ele><time>2026-05-04T09:51:44Z</time></trkpt><trkpt lat="31.993809088584353" lon="-6.142011281914461"><ele>1161.0</ele><time>2026-05-04T09:51:45Z</time></trkpt><trkpt lat="31.99382047692574" lon="-6.141878794565179"><ele>1161.0</ele><time>2026-05-04T09:51:46Z</time></trkpt><trkpt lat="31.99385185045526" lon="-6.141739716758418"><ele>1161.0</ele><time>2026-05-04T09:51:47Z</time></trkpt><trkpt lat="31.993881482355015" lon="-6.141627104022544"><ele>1161.0</ele><time>2026-05-04T09:51:48Z</time></trkpt><trkpt lat="31.993909933412603" lon="-6.141517563333325"><ele>1161.0</ele><time>2026-05-04T09:51:49Z</time></trkpt><trkpt lat="31.993939351631276" lon="-6.141408178963154"><ele>1161.0</ele><time>2026-05-04T09:51:50Z</time></trkpt><trkpt lat="31.993966194593717" lon="-6.1413070952709985"><ele>1161.0</ele><time>2026-05-04T09:51:51Z</time></trkpt><trkpt lat="31.99399056068445" lon="-6.141217675126939"><ele>1160.8</ele><time>2026-05-04T09:51:52Z</time></trkpt><trkpt lat="31.99401564957586" lon="-6.141125246140032"><ele>1160.6</ele><time>2026-05-04T09:51:53Z</time></trkpt><trkpt lat="31.99403141091556" lon="-6.1410332862964365"><ele>1160.4</ele><time>2026-05-04T09:51:54Z</time></trkpt><trkpt lat="31.994051840857917" lon="-6.140912132212832"><ele>1160.2</ele><time>2026-05-04T09:51:55Z</time></trkpt><trkpt lat="31.99407296601875" lon="-6.140782309655274"><ele>1160.0</ele><time>2026-05-04T09:51:56Z</time></trkpt><trkpt lat="31.99407277202045" lon="-6.140653436838342"><ele>1160.0</ele><time>2026-05-04T09:51:57Z</time></trkpt><trkpt lat="31.994070373073043" lon="-6.140518924922194"><ele>1160.0</ele><time>2026-05-04T09:51:58Z</time></trkpt><trkpt lat="31.99405737339079" lon="-6.140372357424742"><ele>1160.0</ele><time>2026-05-04T09:51:59Z</time></trkpt><trkpt lat="31.994044185505647" lon="-6.140225185154988"><ele>1160.0</ele><time>2026-05-04T09:52:00Z</time></trkpt><trkpt lat="31.99403191046251" lon="-6.140088229282146"><ele>1160.0</ele><time>2026-05-04T09:52:01Z</time></trkpt><trkpt lat="31.994020715670775" lon="-6.139919608982182"><ele>1160.0</ele><time>2026-05-04T09:52:02Z</time></trkpt><trkpt lat="31.994017137296957" lon="-6.1397706401618715"><ele>1160.0</ele><time>2026-05-04T09:52:03Z</time></trkpt><trkpt lat="31.994014210575056" lon="-6.139634983952749"><ele>1160.0</ele><time>2026-05-04T09:52:04Z</time></trkpt><trkpt lat="31.99401082778669" lon="-6.13952371657989"><ele>1160.8</ele><time>2026-05-04T09:52:05Z</time></trkpt><trkpt lat="31.99397802334771" lon="-6.1394079115610625"><ele>1161.6</ele><time>2026-05-04T09:52:06Z</time></trkpt><trkpt lat="31.993945806013556" lon="-6.139291942280636"><ele>1162.4</ele><time>2026-05-04T09:52:07Z</time></trkpt><trkpt lat="31.993904082283866" lon="-6.139233940569494"><ele>1163.2</ele><time>2026-05-04T09:52:08Z</time></trkpt><trkpt lat="31.99384915636407" lon="-6.139149075697076"><ele>1164.0</ele><time>2026-05-04T09:52:09Z</time></trkpt><trkpt lat="31.99378283343458" lon="-6.139046257139168"><ele>1166.4</ele><time>2026-05-04T09:52:10Z</time></trkpt><trkpt lat="31.993714397756808" lon="-6.138940159935921"><ele>1168.8000000000002</ele><time>2026-05-04T09:52:11Z</time></trkpt><trkpt lat="31.993645417819394" lon="-6.13883259394708"><ele>1171.1999999999998</ele><time>2026-05-04T09:52:12Z</time></trkpt><trkpt lat="31.993585779291855" lon="-6.138738408450412"><ele>1173.6</ele><time>2026-05-04T09:52:13Z</time></trkpt><trkpt lat="31.993528920782474" lon="-6.1386479407533345"><ele>1176.0</ele><time>2026-05-04T09:52:14Z</time></trkpt><trkpt lat="31.993473023670656" lon="-6.138558360305494"><ele>1176.0</ele><time>2026-05-04T09:52:15Z</time></trkpt><trkpt lat="31.993408326695228" lon="-6.138466316088076"><ele>1176.0</ele><time>2026-05-04T09:52:16Z</time></trkpt><trkpt lat="31.993327725233673" lon="-6.138370024350321"><ele>1176.0</ele><time>2026-05-04T09:52:17Z</time></trkpt><trkpt lat="31.99323578763586" lon="-6.138301838524223"><ele>1176.0</ele><time>2026-05-04T09:52:18Z</time></trkpt><trkpt lat="31.993170398386052" lon="-6.13822213470065"><ele>1176.0</ele><time>2026-05-04T09:52:19Z</time></trkpt><trkpt lat="31.993099955165476" lon="-6.138136269407912"><ele>1172.3333333333333</ele><time>2026-05-04T09:52:20Z</time></trkpt><trkpt lat="31.99303825869931" lon="-6.138019270766936"><ele>1168.6666666666667</ele><time>2026-05-04T09:52:21Z</time></trkpt><trkpt lat="31.992998434376563" lon="-6.1379379658987565"><ele>1165.0</ele><time>2026-05-04T09:52:22Z</time></trkpt><trkpt lat="31.992957543325854" lon="-6.137853553175729"><ele>1161.3333333333335</ele><time>2026-05-04T09:52:23Z</time></trkpt><trkpt lat="31.99292917721038" lon="-6.137769929963851"><ele>1157.6666666666667</ele><time>2026-05-04T09:52:24Z</time></trkpt><trkpt lat="31.992903708543544" lon="-6.137700040726437"><ele>1154.0</ele><time>2026-05-04T09:52:25Z</time></trkpt><trkpt lat="31.992878148806156" lon="-6.137629969576827"><ele>1154.0</ele><time>2026-05-04T09:52:26Z</time></trkpt><trkpt lat="31.992864537101674" lon="-6.137528641652487"><ele>1154.0</ele><time>2026-05-04T09:52:27Z</time></trkpt><trkpt lat="31.9928533210086" lon="-6.137451916426178"><ele>1154.0</ele><time>2026-05-04T09:52:28Z</time></trkpt><trkpt lat="31.992848280139505" lon="-6.137285030277538"><ele>1154.0</ele><time>2026-05-04T09:52:30Z</time></trkpt><trkpt lat="31.992852716762762" lon="-6.137210779067349"><ele>1154.0</ele><time>2026-05-04T09:52:31Z</time></trkpt><trkpt lat="31.992857764207344" lon="-6.137126304944975"><ele>1154.0</ele><time>2026-05-04T09:52:32Z</time></trkpt><trkpt lat="31.992874694634875" lon="-6.137029147241172"><ele>1155.75</ele><time>2026-05-04T09:52:33Z</time></trkpt><trkpt lat="31.99290430979377" lon="-6.136931360313172"><ele>1157.5</ele><time>2026-05-04T09:52:34Z</time></trkpt><trkpt lat="31.992919568434537" lon="-6.136795207293068"><ele>1159.25</ele><time>2026-05-04T09:52:35Z</time></trkpt><trkpt lat="31.992941271288892" lon="-6.136645752232668"><ele>1161.0</ele><time>2026-05-04T09:52:36Z</time></trkpt><trkpt lat="31.99296439227909" lon="-6.136458707430073"><ele>1162.5</ele><time>2026-05-04T09:52:37Z</time></trkpt><trkpt lat="31.992973833466582" lon="-6.136271107825966"><ele>1164.0</ele><time>2026-05-04T09:52:38Z</time></trkpt><trkpt lat="31.99296687723977" lon="-6.136106223903674"><ele>1165.5</ele><time>2026-05-04T09:52:39Z</time></trkpt><trkpt lat="31.99295049703056" lon="-6.135957656624827"><ele>1167.0</ele><time>2026-05-04T09:52:40Z</time></trkpt><trkpt lat="31.99292790990024" lon="-6.135823151749368"><ele>1170.0</ele><time>2026-05-04T09:52:41Z</time></trkpt><trkpt lat="31.992904088217074" lon="-6.1356966288425046"><ele>1173.0</ele><time>2026-05-04T09:52:42Z</time></trkpt><trkpt lat="31.992878802729496" lon="-6.13556600902477"><ele>1176.0</ele><time>2026-05-04T09:52:43Z</time></trkpt><trkpt lat="31.992857297606893" lon="-6.135433455246519"><ele>1179.0</ele><time>2026-05-04T09:52:44Z</time></trkpt><trkpt lat="31.992843661136273" lon="-6.135306298337615"><ele>1182.0</ele><time>2026-05-04T09:52:45Z</time></trkpt><trkpt lat="31.992831702334556" lon="-6.1351897631818035"><ele>1182.0</ele><time>2026-05-04T09:52:46Z</time></trkpt><trkpt lat="31.992813665220524" lon="-6.135081330078879"><ele>1182.0</ele><time>2026-05-04T09:52:47Z</time></trkpt><trkpt lat="31.992790938738928" lon="-6.134983278231958"><ele>1182.0</ele><time>2026-05-04T09:52:48Z</time></trkpt><trkpt lat="31.992771814648567" lon="-6.134889937940896"><ele>1182.0</ele><time>2026-05-04T09:52:49Z</time></trkpt><trkpt lat="31.992749722464584" lon="-6.134788317697981"><ele>1182.0</ele><time>2026-05-04T09:52:50Z</time></trkpt><trkpt lat="31.992725522211483" lon="-6.134685792389965"><ele>1182.0</ele><time>2026-05-04T09:52:51Z</time></trkpt><trkpt lat="31.992687926018522" lon="-6.134551022684296"><ele>1182.5</ele><time>2026-05-04T09:52:52Z</time></trkpt><trkpt lat="31.9926490036313" lon="-6.134398007789171"><ele>1183.0</ele><time>2026-05-04T09:52:53Z</time></trkpt><trkpt lat="31.992623610551085" lon="-6.134241151015992"><ele>1183.5</ele><time>2026-05-04T09:52:54Z</time></trkpt><trkpt lat="31.992616971175632" lon="-6.1341014773450375"><ele>1184.0</ele><time>2026-05-04T09:52:55Z</time></trkpt><trkpt lat="31.9926314826354" lon="-6.13397213877508"><ele>1182.8</ele><time>2026-05-04T09:52:56Z</time></trkpt><trkpt lat="31.992652024430367" lon="-6.133850587698792"><ele>1181.6000000000001</ele><time>2026-05-04T09:52:57Z</time></trkpt><trkpt lat="31.992670123123258" lon="-6.133741380313408"><ele>1180.4</ele><time>2026-05-04T09:52:58Z</time></trkpt><trkpt lat="31.99266660222085" lon="-6.133635803365133"><ele>1179.2</ele><time>2026-05-04T09:52:59Z</time></trkpt><trkpt lat="31.99263347068694" lon="-6.133527828184026"><ele>1178.0</ele><time>2026-05-04T09:53:00Z</time></trkpt><trkpt lat="31.99256616028879" lon="-6.133424822456596"><ele>1177.25</ele><time>2026-05-04T09:53:01Z</time></trkpt><trkpt lat="31.992467725957948" lon="-6.13331322445471"><ele>1176.5</ele><time>2026-05-04T09:53:02Z</time></trkpt><trkpt lat="31.992363268046336" lon="-6.133189868570213"><ele>1175.75</ele><time>2026-05-04T09:53:03Z</time></trkpt><trkpt lat="31.992291454538446" lon="-6.133071134643545"><ele>1175.0</ele><time>2026-05-04T09:53:04Z</time></trkpt><trkpt lat="31.992246573753963" lon="-6.1329410781794556"><ele>1175.0</ele><time>2026-05-04T09:53:05Z</time></trkpt><trkpt lat="31.992206781000352" lon="-6.1327967557359315"><ele>1175.0</ele><time>2026-05-04T09:53:06Z</time></trkpt><trkpt lat="31.99218025089157" lon="-6.132650436761712"><ele>1175.0</ele><time>2026-05-04T09:53:07Z</time></trkpt><trkpt lat="31.99216234919074" lon="-6.132518278820029"><ele>1175.0</ele><time>2026-05-04T09:53:08Z</time></trkpt><trkpt lat="31.992141602259515" lon="-6.132404568631272"><ele>1176.8</ele><time>2026-05-04T09:53:09Z</time></trkpt><trkpt lat="31.992108065494833" lon="-6.132300053635038"><ele>1178.6</ele><time>2026-05-04T09:53:10Z</time></trkpt><trkpt lat="31.9920488601793" lon="-6.132205825416046"><ele>1180.4</ele><time>2026-05-04T09:53:11Z</time></trkpt><trkpt lat="31.991962473637216" lon="-6.132124060523421"><ele>1182.2</ele><time>2026-05-04T09:53:12Z</time></trkpt><trkpt lat="31.99186186021488" lon="-6.132048851844762"><ele>1184.0</ele><time>2026-05-04T09:53:13Z</time></trkpt><trkpt lat="31.99177815914497" lon="-6.131980483894745"><ele>1184.0</ele><time>2026-05-04T09:53:14Z</time></trkpt><trkpt lat="31.991695354718534" lon="-6.13192170793257"><ele>1184.0</ele><time>2026-05-04T09:53:15Z</time></trkpt><trkpt lat="31.991612300542993" lon="-6.13188398593867"><ele>1184.0</ele><time>2026-05-04T09:53:16Z</time></trkpt><trkpt lat="31.991504660989865" lon="-6.131870172903523"><ele>1184.0</ele><time>2026-05-04T09:53:17Z</time></trkpt><trkpt lat="31.991406771029247" lon="-6.131845078546484"><ele>1184.0</ele><time>2026-05-04T09:53:18Z</time></trkpt><trkpt lat="31.991316087494624" lon="-6.131795253942569"><ele>1181.4</ele><time>2026-05-04T09:53:19Z</time></trkpt><trkpt lat="31.991230249146867" lon="-6.131730926836872"><ele>1178.8000000000002</ele><time>2026-05-04T09:53:20Z</time></trkpt><trkpt lat="31.991130395580626" lon="-6.131661003598811"><ele>1176.1999999999998</ele><time>2026-05-04T09:53:21Z</time></trkpt><trkpt lat="31.99104564492277" lon="-6.131595209019728"><ele>1173.6</ele><time>2026-05-04T09:53:22Z</time></trkpt><trkpt lat="31.990965527242164" lon="-6.131511871127456"><ele>1171.0</ele><time>2026-05-04T09:53:23Z</time></trkpt><trkpt lat="31.99088735995454" lon="-6.131413996613671"><ele>1172.2</ele><time>2026-05-04T09:53:24Z</time></trkpt><trkpt lat="31.990799239022927" lon="-6.1313239299147355"><ele>1173.3999999999999</ele><time>2026-05-04T09:53:25Z</time></trkpt><trkpt lat="31.990700411243083" lon="-6.131272009104499"><ele>1174.6</ele><time>2026-05-04T09:53:26Z</time></trkpt><trkpt lat="31.99061312802146" lon="-6.131223889042449"><ele>1175.8</ele><time>2026-05-04T09:53:27Z</time></trkpt><trkpt lat="31.990540245995877" lon="-6.131136176528633"><ele>1177.0</ele><time>2026-05-04T09:53:28Z</time></trkpt><trkpt lat="31.990487650878613" lon="-6.131026294606578"><ele>1177.0</ele><time>2026-05-04T09:53:29Z</time></trkpt><trkpt lat="31.99044527760203" lon="-6.130926134753756"><ele>1177.0</ele><time>2026-05-04T09:53:30Z</time></trkpt><trkpt lat="31.990414458779927" lon="-6.130836472095271"><ele>1177.0</ele><time>2026-05-04T09:53:31Z</time></trkpt><trkpt lat="31.99038685085767" lon="-6.130759492355702"><ele>1177.0</ele><time>2026-05-04T09:53:32Z</time></trkpt><trkpt lat="31.99036476764793" lon="-6.130671482931719"><ele>1177.0</ele><time>2026-05-04T09:53:33Z</time></trkpt><trkpt lat="31.99034616489983" lon="-6.130572490077503"><ele>1177.0</ele><time>2026-05-04T09:53:34Z</time></trkpt><trkpt lat="31.990312128150027" lon="-6.13045599759901"><ele>1181.75</ele><time>2026-05-04T09:53:35Z</time></trkpt><trkpt lat="31.990252112111193" lon="-6.130325009720352"><ele>1186.5</ele><time>2026-05-04T09:53:36Z</time></trkpt><trkpt lat="31.990183843535466" lon="-6.130173324988888"><ele>1191.25</ele><time>2026-05-04T09:53:37Z</time></trkpt><trkpt lat="31.990125287219673" lon="-6.130012187042455"><ele>1196.0</ele><time>2026-05-04T09:53:38Z</time></trkpt><trkpt lat="31.99008600706938" lon="-6.129836929448412"><ele>1201.3333333333335</ele><time>2026-05-04T09:53:39Z</time></trkpt><trkpt lat="31.99004938132435" lon="-6.129643964392287"><ele>1206.6666666666667</ele><time>2026-05-04T09:53:40Z</time></trkpt><trkpt lat="31.989999743095403" lon="-6.129444449911345"><ele>1212.0</ele><time>2026-05-04T09:53:41Z</time></trkpt><trkpt lat="31.98994044977636" lon="-6.129261150287972"><ele>1206.75</ele><time>2026-05-04T09:53:42Z</time></trkpt><trkpt lat="31.989879846636505" lon="-6.129089089891076"><ele>1201.5</ele><time>2026-05-04T09:53:43Z</time></trkpt><trkpt lat="31.989816585903927" lon="-6.128936319573725"><ele>1196.25</ele><time>2026-05-04T09:53:44Z</time></trkpt><trkpt lat="31.98975367915388" lon="-6.128785164887541"><ele>1191.0</ele><time>2026-05-04T09:53:45Z</time></trkpt><trkpt lat="31.989689148416428" lon="-6.128649746402525"><ele>1191.0</ele><time>2026-05-04T09:53:46Z</time></trkpt><trkpt lat="31.989626949315046" lon="-6.1285251631172875"><ele>1191.0</ele><time>2026-05-04T09:53:47Z</time></trkpt><trkpt lat="31.989578760278803" lon="-6.128397493631441"><ele>1191.0</ele><time>2026-05-04T09:53:48Z</time></trkpt><trkpt lat="31.989541614987754" lon="-6.128270192608259"><ele>1191.0</ele><time>2026-05-04T09:53:49Z</time></trkpt><trkpt lat="31.98950400229563" lon="-6.128161980436159"><ele>1189.75</ele><time>2026-05-04T09:53:50Z</time></trkpt><trkpt lat="31.989441542003043" lon="-6.1280642256968925"><ele>1188.5</ele><time>2026-05-04T09:53:51Z</time></trkpt><trkpt lat="31.98933431630638" lon="-6.127984486374752"><ele>1187.25</ele><time>2026-05-04T09:53:52Z</time></trkpt><trkpt lat="31.98920728501894" lon="-6.127925449317973"><ele>1186.0</ele><time>2026-05-04T09:53:53Z</time></trkpt><trkpt lat="31.989094965889223" lon="-6.127873232147743"><ele>1186.0</ele><time>2026-05-04T09:53:54Z</time></trkpt><trkpt lat="31.989033652856058" lon="-6.127792434573053"><ele>1186.0</ele><time>2026-05-04T09:53:55Z</time></trkpt><trkpt lat="31.98896381859471" lon="-6.127714500425024"><ele>1186.0</ele><time>2026-05-04T09:53:56Z</time></trkpt><trkpt lat="31.98886489066547" lon="-6.127622527854992"><ele>1186.0</ele><time>2026-05-04T09:53:57Z</time></trkpt><trkpt lat="31.988767057088367" lon="-6.1275084252161784"><ele>1186.0</ele><time>2026-05-04T09:53:58Z</time></trkpt><trkpt lat="31.988687895079906" lon="-6.127410097347096"><ele>1186.0</ele><time>2026-05-04T09:53:59Z</time></trkpt><trkpt lat="31.988625832906216" lon="-6.127327833842418"><ele>1186.0</ele><time>2026-05-04T09:54:00Z</time></trkpt><trkpt lat="31.98856792404969" lon="-6.127274040398955"><ele>1186.0</ele><time>2026-05-04T09:54:01Z</time></trkpt><trkpt lat="31.988488164521893" lon="-6.1272674969648655"><ele>1186.0</ele><time>2026-05-04T09:54:02Z</time></trkpt><trkpt lat="31.98840010572275" lon="-6.127281572189668"><ele>1187.8</ele><time>2026-05-04T09:54:03Z</time></trkpt><trkpt lat="31.988299970239936" lon="-6.127267730772613"><ele>1189.6</ele><time>2026-05-04T09:54:04Z</time></trkpt><trkpt lat="31.988190253465472" lon="-6.12727939478533"><ele>1191.4</ele><time>2026-05-04T09:54:05Z</time></trkpt><trkpt lat="31.988084459259095" lon="-6.127276722729295"><ele>1193.2</ele><time>2026-05-04T09:54:06Z</time></trkpt><trkpt lat="31.987984347348117" lon="-6.127279436129309"><ele>1195.0</ele><time>2026-05-04T09:54:07Z</time></trkpt><trkpt lat="31.987886779262855" lon="-6.127283303076901"><ele>1195.0</ele><time>2026-05-04T09:54:08Z</time></trkpt><trkpt lat="31.987793138451227" lon="-6.127281686439517"><ele>1195.0</ele><time>2026-05-04T09:54:09Z</time></trkpt><trkpt lat="31.987700104938398" lon="-6.127302076114649"><ele>1195.0</ele><time>2026-05-04T09:54:10Z</time></trkpt><trkpt lat="31.987612505047288" lon="-6.127306047994657"><ele>1195.0</ele><time>2026-05-04T09:54:11Z</time></trkpt><trkpt lat="31.98752932472857" lon="-6.127311422718423"><ele>1195.0</ele><time>2026-05-04T09:54:12Z</time></trkpt><trkpt lat="31.987449068021675" lon="-6.1272971348165175"><ele>1195.0</ele><time>2026-05-04T09:54:13Z</time></trkpt><trkpt lat="31.9873761032416" lon="-6.127309511015998"><ele>1191.6</ele><time>2026-05-04T09:54:14Z</time></trkpt><trkpt lat="31.98731099329784" lon="-6.127313213946226"><ele>1188.2</ele><time>2026-05-04T09:54:15Z</time></trkpt><trkpt lat="31.987204495111484" lon="-6.127282361795564"><ele>1184.8</ele><time>2026-05-04T09:54:17Z</time></trkpt><trkpt lat="31.98713633361781" lon="-6.127185292734682"><ele>1181.4</ele><time>2026-05-04T09:54:19Z</time></trkpt><trkpt lat="31.987117712819956" lon="-6.127038364046425"><ele>1178.0</ele><time>2026-05-04T09:54:21Z</time></trkpt><trkpt lat="31.987101135364018" lon="-6.12689160360397"><ele>1178.0</ele><time>2026-05-04T09:54:23Z</time></trkpt><trkpt lat="31.987095589085936" lon="-6.12681346266496"><ele>1178.0</ele><time>2026-05-04T09:54:24Z</time></trkpt><trkpt lat="31.987077626523124" lon="-6.126737256257986"><ele>1178.0</ele><time>2026-05-04T09:54:25Z</time></trkpt><trkpt lat="31.987070161556797" lon="-6.126659881423817"><ele>1178.0</ele><time>2026-05-04T09:54:26Z</time></trkpt><trkpt lat="31.987067137867868" lon="-6.126514635402037"><ele>1178.0</ele><time>2026-05-04T09:54:28Z</time></trkpt><trkpt lat="31.987082800757992" lon="-6.126383292500708"><ele>1178.0</ele><time>2026-05-04T09:54:30Z</time></trkpt><trkpt lat="31.987082421988116" lon="-6.126275320944936"><ele>1178.0</ele><time>2026-05-04T09:54:32Z</time></trkpt><trkpt lat="31.98710639951142" lon="-6.126178444031167"><ele>1178.0</ele><time>2026-05-04T09:54:34Z</time></trkpt><trkpt lat="31.987139647474216" lon="-6.126064011498529"><ele>1178.0</ele><time>2026-05-04T09:54:36Z</time></trkpt><trkpt lat="31.987178734153463" lon="-6.125964590210026"><ele>1178.0</ele><time>2026-05-04T09:54:38Z</time></trkpt><trkpt lat="31.9872141826326" lon="-6.1258614852174995"><ele>1178.0</ele><time>2026-05-04T09:54:40Z</time></trkpt><trkpt lat="31.98724789414705" lon="-6.125774697209058"><ele>1178.0</ele><time>2026-05-04T09:54:42Z</time></trkpt><trkpt lat="31.987276500230056" lon="-6.125698877083482"><ele>1178.0</ele><time>2026-05-04T09:54:44Z</time></trkpt><trkpt lat="31.987172377303974" lon="-6.125969816466254"><ele>1178.0</ele><time>2026-05-04T09:55:55Z</time></trkpt><trkpt lat="31.986981222884758" lon="-6.126004926293159"><ele>1178.0</ele><time>2026-05-04T09:55:56Z</time></trkpt><trkpt lat="31.987020430547016" lon="-6.126065158598562"><ele>1178.0</ele><time>2026-05-04T09:55:58Z</time></trkpt><trkpt lat="31.987130194738292" lon="-6.1262339927191105"><ele>1178.0</ele><time>2026-05-04T09:56:00Z</time></trkpt><trkpt lat="31.98711031562935" lon="-6.1263503625373215"><ele>1178.0</ele><time>2026-05-04T09:56:02Z</time></trkpt><trkpt lat="31.98709702156335" lon="-6.126463936611241"><ele>1178.0</ele><time>2026-05-04T09:56:04Z</time></trkpt><trkpt lat="31.987109905728694" lon="-6.126606633901882"><ele>1178.0</ele><time>2026-05-04T09:56:06Z</time></trkpt><trkpt lat="31.987122245140654" lon="-6.1267516466183665"><ele>1178.0</ele><time>2026-05-04T09:56:08Z</time></trkpt><trkpt lat="31.987134616710733" lon="-6.1268909205090365"><ele>1178.0</ele><time>2026-05-04T09:56:10Z</time></trkpt><trkpt lat="31.98714811318973" lon="-6.127045684683432"><ele>1178.0</ele><time>2026-05-04T09:56:12Z</time></trkpt><trkpt lat="31.987146456703563" lon="-6.127141607049136"><ele>1178.0</ele><time>2026-05-04T09:56:13Z</time></trkpt><trkpt lat="31.987157808075423" lon="-6.12723022648669"><ele>1178.0</ele><time>2026-05-04T09:56:14Z</time></trkpt><trkpt lat="31.987251037236412" lon="-6.1273227869082385"><ele>1178.0</ele><time>2026-05-04T09:56:16Z</time></trkpt><trkpt lat="31.987317868787294" lon="-6.127321139667572"><ele>1178.0</ele><time>2026-05-04T09:56:17Z</time></trkpt><trkpt lat="31.9874151265738" lon="-6.127303384223397"><ele>1178.0</ele><time>2026-05-04T09:56:18Z</time></trkpt><trkpt lat="31.98752403073244" lon="-6.12728231720922"><ele>1180.8333333333335</ele><time>2026-05-04T09:56:19Z</time></trkpt><trkpt lat="31.987617961957344" lon="-6.127272979232035"><ele>1183.6666666666667</ele><time>2026-05-04T09:56:20Z</time></trkpt><trkpt lat="31.987709066113613" lon="-6.1272696684231684"><ele>1186.5</ele><time>2026-05-04T09:56:21Z</time></trkpt><trkpt lat="31.98779381505175" lon="-6.12726985837596"><ele>1189.3333333333333</ele><time>2026-05-04T09:56:22Z</time></trkpt><trkpt lat="31.98787045814695" lon="-6.1272758241773"><ele>1192.1666666666665</ele><time>2026-05-04T09:56:23Z</time></trkpt><trkpt lat="31.98795152810562" lon="-6.127255338656082"><ele>1195.0</ele><time>2026-05-04T09:56:24Z</time></trkpt><trkpt lat="31.988028207865945" lon="-6.127252769907039"><ele>1195.0</ele><time>2026-05-04T09:56:25Z</time></trkpt><trkpt lat="31.988108648502447" lon="-6.127249983186408"><ele>1195.0</ele><time>2026-05-04T09:56:26Z</time></trkpt><trkpt lat="31.988193425254615" lon="-6.127265504542096"><ele>1195.0</ele><time>2026-05-04T09:56:27Z</time></trkpt><trkpt lat="31.988278443587358" lon="-6.12724432825694"><ele>1195.0</ele><time>2026-05-04T09:56:28Z</time></trkpt><trkpt lat="31.9883603943773" lon="-6.127259008244967"><ele>1195.0</ele><time>2026-05-04T09:56:29Z</time></trkpt><trkpt lat="31.988438031717358" lon="-6.1272559218916465"><ele>1195.0</ele><time>2026-05-04T09:56:30Z</time></trkpt><trkpt lat="31.988550847411947" lon="-6.127250297576044"><ele>1193.2</ele><time>2026-05-04T09:56:32Z</time></trkpt><trkpt lat="31.988666878923034" lon="-6.127320213293546"><ele>1191.4</ele><time>2026-05-04T09:56:40Z</time></trkpt><trkpt lat="31.988727854650232" lon="-6.127381187330362"><ele>1189.6</ele><time>2026-05-04T09:56:41Z</time></trkpt><trkpt lat="31.988781891794044" lon="-6.12744537229769"><ele>1187.8</ele><time>2026-05-04T09:56:42Z</time></trkpt><trkpt lat="31.988842480663333" lon="-6.127517339358277"><ele>1186.0</ele><time>2026-05-04T09:56:43Z</time></trkpt><trkpt lat="31.98890447681397" lon="-6.127591933086326"><ele>1186.0</ele><time>2026-05-04T09:56:44Z</time></trkpt><trkpt lat="31.988963107218083" lon="-6.127659230196149"><ele>1186.0</ele><time>2026-05-04T09:56:45Z</time></trkpt><trkpt lat="31.98901863273602" lon="-6.127722255504628"><ele>1186.0</ele><time>2026-05-04T09:56:46Z</time></trkpt><trkpt lat="31.98908277917218" lon="-6.12779506597507"><ele>1186.0</ele><time>2026-05-04T09:56:48Z</time></trkpt><trkpt lat="31.989004786318826" lon="-6.127706539008908"><ele>1186.0</ele><time>2026-05-04T09:56:54Z</time></trkpt><trkpt lat="31.989033983931677" lon="-6.1275267198083325"><ele>1186.0</ele><time>2026-05-04T09:56:55Z</time></trkpt><trkpt lat="31.9889961626765" lon="-6.127425342132307"><ele>1186.0</ele><time>2026-05-04T09:56:56Z</time></trkpt><trkpt lat="31.98895428986823" lon="-6.127334999550887"><ele>1186.0</ele><time>2026-05-04T09:56:57Z</time></trkpt><trkpt lat="31.988913109631586" lon="-6.127234169716352"><ele>1186.0</ele><time>2026-05-04T09:56:58Z</time></trkpt><trkpt lat="31.988852986332947" lon="-6.127159246482691"><ele>1186.0</ele><time>2026-05-04T09:56:59Z</time></trkpt><trkpt lat="31.988807196109814" lon="-6.127090558737752"><ele>1186.0</ele><time>2026-05-04T09:57:00Z</time></trkpt><trkpt lat="31.988783269205555" lon="-6.127005782713977"><ele>1190.5</ele><time>2026-05-04T09:57:01Z</time></trkpt><trkpt lat="31.98876644366359" lon="-6.126916724611637"><ele>1195.0</ele><time>2026-05-04T09:57:02Z</time></trkpt><trkpt lat="31.988726039545128" lon="-6.126838556696581"><ele>1199.5</ele><time>2026-05-04T09:57:03Z</time></trkpt><trkpt lat="31.98865505370167" lon="-6.126799943264166"><ele>1204.0</ele><time>2026-05-04T09:57:04Z</time></trkpt><trkpt lat="31.98857402020018" lon="-6.126766863621139"><ele>1208.5</ele><time>2026-05-04T09:57:05Z</time></trkpt><trkpt lat="31.988486844255526" lon="-6.126740919797158"><ele>1213.0</ele><time>2026-05-04T09:57:06Z</time></trkpt><trkpt lat="31.988407972042808" lon="-6.126715334929247"><ele>1210.8333333333333</ele><time>2026-05-04T09:57:07Z</time></trkpt><trkpt lat="31.988342145537338" lon="-6.126677167899498"><ele>1208.6666666666665</ele><time>2026-05-04T09:57:08Z</time></trkpt><trkpt lat="31.98828545967565" lon="-6.12663283945516"><ele>1206.5</ele><time>2026-05-04T09:57:09Z</time></trkpt><trkpt lat="31.988170288106325" lon="-6.126603379151705"><ele>1204.3333333333333</ele><time>2026-05-04T09:57:11Z</time></trkpt><trkpt lat="31.988084934666297" lon="-6.126547249571355"><ele>1202.1666666666667</ele><time>2026-05-04T09:57:13Z</time></trkpt><trkpt lat="31.988020690898296" lon="-6.126484399908971"><ele>1200.0</ele><time>2026-05-04T09:57:15Z</time></trkpt><trkpt lat="31.9881048842662" lon="-6.126248001411397"><ele>1200.0</ele><time>2026-05-04T09:57:18Z</time></trkpt><trkpt lat="31.988089862689247" lon="-6.126166757301459"><ele>1200.0</ele><time>2026-05-04T09:57:19Z</time></trkpt><trkpt lat="31.988070626616203" lon="-6.1260850230123385"><ele>1200.0</ele><time>2026-05-04T09:57:21Z</time></trkpt><trkpt lat="31.98808346110768" lon="-6.126180580579877"><ele>1200.0</ele><time>2026-05-04T09:57:33Z</time></trkpt><trkpt lat="31.988009759936492" lon="-6.126048167178581"><ele>1200.0</ele><time>2026-05-04T09:57:34Z</time></trkpt><trkpt lat="31.988113809169523" lon="-6.126307192117897"><ele>1200.0</ele><time>2026-05-04T09:57:35Z</time></trkpt><trkpt lat="31.988099995236706" lon="-6.126413928178579"><ele>1200.0</ele><time>2026-05-04T09:57:37Z</time></trkpt><trkpt lat="31.98805422601144" lon="-6.126474313129777"><ele>1200.0</ele><time>2026-05-04T09:57:39Z</time></trkpt><trkpt lat="31.98798311122043" lon="-6.12641359977049"><ele>1200.0</ele><time>2026-05-04T09:57:43Z</time></trkpt><trkpt lat="31.987954173460064" lon="-6.126340972404852"><ele>1200.0</ele><time>2026-05-04T09:57:44Z</time></trkpt><trkpt lat="31.98792918737425" lon="-6.126259048787785"><ele>1200.0</ele><time>2026-05-04T09:57:45Z</time></trkpt><trkpt lat="31.987895963073093" lon="-6.126189045449372"><ele>1200.0</ele><time>2026-05-04T09:57:46Z</time></trkpt><trkpt lat="31.987863867795685" lon="-6.126114957671504"><ele>1200.0</ele><time>2026-05-04T09:57:47Z</time></trkpt><trkpt lat="31.987846702661457" lon="-6.126035847215352"><ele>1200.0</ele><time>2026-05-04T09:57:48Z</time></trkpt><trkpt lat="31.987845902353673" lon="-6.125917368379339"><ele>1200.0</ele><time>2026-05-04T09:57:50Z</time></trkpt><trkpt lat="31.98785181563698" lon="-6.125798252344181"><ele>1200.0</ele><time>2026-05-04T09:57:52Z</time></trkpt><trkpt lat="31.987908754809393" lon="-6.125691174817132"><ele>1200.0</ele><time>2026-05-04T09:57:54Z</time></trkpt><trkpt lat="31.987959942381405" lon="-6.125592903499569"><ele>1198.3333333333333</ele><time>2026-05-04T09:57:56Z</time></trkpt><trkpt lat="31.988004605693767" lon="-6.1255032813182195"><ele>1196.6666666666667</ele><time>2026-05-04T09:57:58Z</time></trkpt><trkpt lat="31.988041725746758" lon="-6.1254141815399015"><ele>1195.0</ele><time>2026-05-04T09:58:00Z</time></trkpt><trkpt lat="31.988068629183086" lon="-6.1253300510168325"><ele>1193.3333333333335</ele><time>2026-05-04T09:58:02Z</time></trkpt><trkpt lat="31.988082844612585" lon="-6.125226749572038"><ele>1191.6666666666667</ele><time>2026-05-04T09:58:04Z</time></trkpt><trkpt lat="31.988080341430816" lon="-6.125114627528519"><ele>1190.0</ele><time>2026-05-04T09:58:06Z</time></trkpt><trkpt lat="31.988058894584096" lon="-6.12500517836256"><ele>1190.0</ele><time>2026-05-04T09:58:08Z</time></trkpt><trkpt lat="31.988031387011016" lon="-6.124896842847231"><ele>1190.0</ele><time>2026-05-04T09:58:10Z</time></trkpt><trkpt lat="31.988000555537816" lon="-6.124793460554125"><ele>1190.0</ele><time>2026-05-04T09:58:12Z</time></trkpt><trkpt lat="31.98796798560549" lon="-6.12468787740089"><ele>1190.0</ele><time>2026-05-04T09:58:14Z</time></trkpt><trkpt lat="31.98793489044811" lon="-6.124583466297531"><ele>1190.0</ele><time>2026-05-04T09:58:16Z</time></trkpt><trkpt lat="31.987921400406936" lon="-6.1244517887066525"><ele>1188.8</ele><time>2026-05-04T09:58:18Z</time></trkpt><trkpt lat="31.987947525858424" lon="-6.1243146327247"><ele>1187.6</ele><time>2026-05-04T09:58:20Z</time></trkpt><trkpt lat="31.987990054304042" lon="-6.124248239269315"><ele>1186.4</ele><time>2026-05-04T09:58:21Z</time></trkpt><trkpt lat="31.988132476827772" lon="-6.1241818938794905"><ele>1185.2</ele><time>2026-05-04T09:58:23Z</time></trkpt><trkpt lat="31.988198749059038" lon="-6.124185181716297"><ele>1184.0</ele><time>2026-05-04T09:58:24Z</time></trkpt><trkpt lat="31.98827990287722" lon="-6.124201126806588"><ele>1185.4</ele><time>2026-05-04T09:58:25Z</time></trkpt><trkpt lat="31.988363757263663" lon="-6.124222964986879"><ele>1186.8000000000002</ele><time>2026-05-04T09:58:26Z</time></trkpt><trkpt lat="31.98845017700637" lon="-6.124234577139646"><ele>1188.1999999999998</ele><time>2026-05-04T09:58:27Z</time></trkpt><trkpt lat="31.988542496187968" lon="-6.12423645886932"><ele>1189.6</ele><time>2026-05-04T09:58:28Z</time></trkpt><trkpt lat="31.98863658858011" lon="-6.1242449328984705"><ele>1191.0</ele><time>2026-05-04T09:58:29Z</time></trkpt><trkpt lat="31.988743803392076" lon="-6.124263399780395"><ele>1191.0</ele><time>2026-05-04T09:58:30Z</time></trkpt><trkpt lat="31.988865329590823" lon="-6.124286000240081"><ele>1191.0</ele><time>2026-05-04T09:58:31Z</time></trkpt><trkpt lat="31.988964135101607" lon="-6.124312210727335"><ele>1191.0</ele><time>2026-05-04T09:58:32Z</time></trkpt><trkpt lat="31.989048109215116" lon="-6.124334162442195"><ele>1191.0</ele><time>2026-05-04T09:58:33Z</time></trkpt><trkpt lat="31.989132552999358" lon="-6.1243343535660655"><ele>1191.0</ele><time>2026-05-04T09:58:34Z</time></trkpt><trkpt lat="31.989217446853115" lon="-6.124315822409448"><ele>1192.0</ele><time>2026-05-04T09:58:35Z</time></trkpt><trkpt lat="31.989303759707564" lon="-6.124272854411424"><ele>1193.0</ele><time>2026-05-04T09:58:36Z</time></trkpt><trkpt lat="31.989376186756342" lon="-6.124249431224195"><ele>1194.0</ele><time>2026-05-04T09:58:37Z</time></trkpt><trkpt lat="31.989446889271914" lon="-6.12421432271737"><ele>1195.0</ele><time>2026-05-04T09:58:38Z</time></trkpt><trkpt lat="31.989526344274786" lon="-6.124178702817793"><ele>1196.0</ele><time>2026-05-04T09:58:39Z</time></trkpt><trkpt lat="31.98960053255999" lon="-6.1241032960626045"><ele>1197.0</ele><time>2026-05-04T09:58:40Z</time></trkpt><trkpt lat="31.989687486208894" lon="-6.124029250635918"><ele>1197.0</ele><time>2026-05-04T09:58:41Z</time></trkpt><trkpt lat="31.989768198177753" lon="-6.123953899362581"><ele>1197.0</ele><time>2026-05-04T09:58:42Z</time></trkpt><trkpt lat="31.98985584328537" lon="-6.123872807825147"><ele>1197.0</ele><time>2026-05-04T09:58:43Z</time></trkpt><trkpt lat="31.989930408277438" lon="-6.123791045914923"><ele>1197.0</ele><time>2026-05-04T09:58:44Z</time></trkpt><trkpt lat="31.990005781549524" lon="-6.12369678672609"><ele>1197.0</ele><time>2026-05-04T09:58:45Z</time></trkpt><trkpt lat="31.990075272729857" lon="-6.12361022252335"><ele>1199.2</ele><time>2026-05-04T09:58:46Z</time></trkpt><trkpt lat="31.990140811241304" lon="-6.123522056630547"><ele>1201.4</ele><time>2026-05-04T09:58:47Z</time></trkpt><trkpt lat="31.990208352215447" lon="-6.123423466188477"><ele>1203.6</ele><time>2026-05-04T09:58:48Z</time></trkpt><trkpt lat="31.990269602508683" lon="-6.1233334843778735"><ele>1205.8</ele><time>2026-05-04T09:58:49Z</time></trkpt><trkpt lat="31.990322778553185" lon="-6.123256526128974"><ele>1208.0</ele><time>2026-05-04T09:58:50Z</time></trkpt><trkpt lat="31.990370779762927" lon="-6.123185676375057"><ele>1208.0</ele><time>2026-05-04T09:58:51Z</time></trkpt><trkpt lat="31.99040846419643" lon="-6.123110156912196"><ele>1208.0</ele><time>2026-05-04T09:58:52Z</time></trkpt><trkpt lat="31.99044698144224" lon="-6.123035937713898"><ele>1208.0</ele><time>2026-05-04T09:58:53Z</time></trkpt><trkpt lat="31.990487184924156" lon="-6.122958809306935"><ele>1208.0</ele><time>2026-05-04T09:58:54Z</time></trkpt><trkpt lat="31.990527836733595" lon="-6.1228789130838575"><ele>1208.0</ele><time>2026-05-04T09:58:55Z</time></trkpt><trkpt lat="31.990567231905178" lon="-6.122802142269069"><ele>1208.0</ele><time>2026-05-04T09:58:56Z</time></trkpt><trkpt lat="31.99060248298334" lon="-6.122726150469884"><ele>1208.0</ele><time>2026-05-04T09:58:57Z</time></trkpt><trkpt lat="31.99063813118095" lon="-6.122650057933313"><ele>1208.0</ele><time>2026-05-04T09:58:58Z</time></trkpt><trkpt lat="31.99066413556246" lon="-6.12258006310008"><ele>1208.0</ele><time>2026-05-04T09:58:59Z</time></trkpt><trkpt lat="31.99069046313651" lon="-6.122501514356937"><ele>1208.0</ele><time>2026-05-04T09:59:00Z</time></trkpt><trkpt lat="31.99071017880938" lon="-6.122418030493408"><ele>1208.0</ele><time>2026-05-04T09:59:01Z</time></trkpt><trkpt lat="31.99072169303012" lon="-6.122342282871393"><ele>1208.0</ele><time>2026-05-04T09:59:02Z</time></trkpt><trkpt lat="31.99070908123585" lon="-6.122192343494069"><ele>1208.1666666666667</ele><time>2026-05-04T09:59:04Z</time></trkpt><trkpt lat="31.990695206476598" lon="-6.122111617196673"><ele>1208.3333333333335</ele><time>2026-05-04T09:59:05Z</time></trkpt><trkpt lat="31.99068940478699" lon="-6.12202337159884"><ele>1208.5</ele><time>2026-05-04T09:59:06Z</time></trkpt><trkpt lat="31.990646336557393" lon="-6.1218937510701945"><ele>1208.6666666666667</ele><time>2026-05-04T09:59:08Z</time></trkpt><trkpt lat="31.990632015941124" lon="-6.121813628345731"><ele>1208.8333333333333</ele><time>2026-05-04T09:59:09Z</time></trkpt><trkpt lat="31.990614736585382" lon="-6.121728285107023"><ele>1209.0</ele><time>2026-05-04T09:59:10Z</time></trkpt><trkpt lat="31.99059589654403" lon="-6.12161816827743"><ele>1210.0</ele><time>2026-05-04T09:59:11Z</time></trkpt><trkpt lat="31.990578932303755" lon="-6.12150719739771"><ele>1211.0</ele><time>2026-05-04T09:59:12Z</time></trkpt><trkpt lat="31.9905976619067" lon="-6.121373409041962"><ele>1212.0</ele><time>2026-05-04T09:59:13Z</time></trkpt><trkpt lat="31.99064241307437" lon="-6.121243631776429"><ele>1213.0</ele><time>2026-05-04T09:59:14Z</time></trkpt><trkpt lat="31.990711261319714" lon="-6.121118004283903"><ele>1213.0</ele><time>2026-05-04T09:59:15Z</time></trkpt><trkpt lat="31.99077008779001" lon="-6.120996593137141"><ele>1213.0</ele><time>2026-05-04T09:59:16Z</time></trkpt><trkpt lat="31.990819368504678" lon="-6.120874827923183"><ele>1213.0</ele><time>2026-05-04T09:59:17Z</time></trkpt><trkpt lat="31.990863166687067" lon="-6.120749090572913"><ele>1213.0</ele><time>2026-05-04T09:59:18Z</time></trkpt><trkpt lat="31.99087592356413" lon="-6.120629454488222"><ele>1222.0</ele><time>2026-05-04T09:59:19Z</time></trkpt><trkpt lat="31.99088335293911" lon="-6.120496994096159"><ele>1231.0</ele><time>2026-05-04T09:59:20Z</time></trkpt><trkpt lat="31.99088691944744" lon="-6.120363539671184"><ele>1240.0</ele><time>2026-05-04T09:59:21Z</time></trkpt><trkpt lat="31.99088691944958" lon="-6.120220801062891"><ele>1249.0</ele><time>2026-05-04T09:59:22Z</time></trkpt><trkpt lat="31.990885753035883" lon="-6.12008135191015"><ele>1249.0</ele><time>2026-05-04T09:59:23Z</time></trkpt><trkpt lat="31.9908833647884" lon="-6.1199418250824404"><ele>1249.0</ele><time>2026-05-04T09:59:24Z</time></trkpt><trkpt lat="31.990877024493727" lon="-6.119816666262573"><ele>1249.0</ele><time>2026-05-04T09:59:25Z</time></trkpt><trkpt lat="31.990868236624753" lon="-6.1196971675270175"><ele>1249.0</ele><time>2026-05-04T09:59:26Z</time></trkpt><trkpt lat="31.990848448538976" lon="-6.119612452484313"><ele>1249.0</ele><time>2026-05-04T09:59:27Z</time></trkpt><trkpt lat="31.990820887685594" lon="-6.119520071429033"><ele>1244.4</ele><time>2026-05-04T09:59:28Z</time></trkpt><trkpt lat="31.990708209459203" lon="-6.119445629226625"><ele>1239.8000000000002</ele><time>2026-05-04T09:59:29.999Z</time></trkpt><trkpt lat="31.99062337486959" lon="-6.119489689505032"><ele>1235.1999999999998</ele><time>2026-05-04T09:59:30.999Z</time></trkpt><trkpt lat="31.99054599335752" lon="-6.1194971690548865"><ele>1230.6</ele><time>2026-05-04T09:59:31.999Z</time></trkpt><trkpt lat="31.990436228787622" lon="-6.119568655949524"><ele>1226.0</ele><time>2026-05-04T09:59:33.999Z</time></trkpt><trkpt lat="31.990410615339492" lon="-6.119654210364956"><ele>1226.0</ele><time>2026-05-04T09:59:34.999Z</time></trkpt><trkpt lat="31.9903894317371" lon="-6.119748590969884"><ele>1226.0</ele><time>2026-05-04T09:59:35.999Z</time></trkpt><trkpt lat="31.99037578064171" lon="-6.119853221961276"><ele>1226.0</ele><time>2026-05-04T09:59:36.999Z</time></trkpt><trkpt lat="31.990370797350284" lon="-6.119972890843212"><ele>1226.0</ele><time>2026-05-04T09:59:37.999Z</time></trkpt><trkpt lat="31.990358922081636" lon="-6.120101200865314"><ele>1226.0</ele><time>2026-05-04T09:59:39Z</time></trkpt><trkpt lat="31.990303184557998" lon="-6.120218497911365"><ele>1224.25</ele><time>2026-05-04T09:59:40Z</time></trkpt><trkpt lat="31.990240809430986" lon="-6.120352275095906"><ele>1222.5</ele><time>2026-05-04T09:59:41Z</time></trkpt><trkpt lat="31.99017569249717" lon="-6.120480980917062"><ele>1220.75</ele><time>2026-05-04T09:59:42Z</time></trkpt><trkpt lat="31.99009723109085" lon="-6.120609329513638"><ele>1219.0</ele><time>2026-05-04T09:59:43Z</time></trkpt><trkpt lat="31.9900192863297" lon="-6.1207358117000075"><ele>1220.0</ele><time>2026-05-04T09:59:44Z</time></trkpt><trkpt lat="31.989947626651766" lon="-6.120858966700576"><ele>1221.0</ele><time>2026-05-04T09:59:45Z</time></trkpt><trkpt lat="31.989890505410607" lon="-6.120986596118086"><ele>1222.0</ele><time>2026-05-04T09:59:46Z</time></trkpt><trkpt lat="31.989849118187475" lon="-6.12112013487589"><ele>1223.0</ele><time>2026-05-04T09:59:47Z</time></trkpt><trkpt lat="31.989825413991923" lon="-6.121261618138919"><ele>1223.0</ele><time>2026-05-04T09:59:48Z</time></trkpt><trkpt lat="31.989817887920477" lon="-6.121397932668383"><ele>1223.0</ele><time>2026-05-04T09:59:49Z</time></trkpt><trkpt lat="31.989797237338493" lon="-6.121514122406182"><ele>1223.0</ele><time>2026-05-04T09:59:50Z</time></trkpt><trkpt lat="31.989756559514877" lon="-6.121617388895675"><ele>1223.0</ele><time>2026-05-04T09:59:51Z</time></trkpt><trkpt lat="31.989694574122442" lon="-6.121708134641193"><ele>1223.0</ele><time>2026-05-04T09:59:52Z</time></trkpt><trkpt lat="31.989611722152972" lon="-6.121779509145947"><ele>1221.4</ele><time>2026-05-04T09:59:53Z</time></trkpt><trkpt lat="31.989533390342874" lon="-6.121857923547923"><ele>1219.8</ele><time>2026-05-04T09:59:54Z</time></trkpt><trkpt lat="31.98948746299043" lon="-6.1219520865626835"><ele>1218.2</ele><time>2026-05-04T09:59:55Z</time></trkpt><trkpt lat="31.989479032129783" lon="-6.122075965059715"><ele>1216.6</ele><time>2026-05-04T09:59:56Z</time></trkpt><trkpt lat="31.98942857093251" lon="-6.122173368389328"><ele>1215.0</ele><time>2026-05-04T09:59:57Z</time></trkpt><trkpt lat="31.989339506155126" lon="-6.122250238343534"><ele>1215.0</ele><time>2026-05-04T09:59:58Z</time></trkpt><trkpt lat="31.989215587835467" lon="-6.122279810919307"><ele>1215.0</ele><time>2026-05-04T09:59:59Z</time></trkpt><trkpt lat="31.98910784740639" lon="-6.122328459017745"><ele>1215.0</ele><time>2026-05-04T10:00:00Z</time></trkpt><trkpt lat="31.988997192549412" lon="-6.122368927150689"><ele>1215.0</ele><time>2026-05-04T10:00:01Z</time></trkpt><trkpt lat="31.98890147529741" lon="-6.1224270255267355"><ele>1217.6</ele><time>2026-05-04T10:00:02Z</time></trkpt><trkpt lat="31.988801585594505" lon="-6.122420461801742"><ele>1220.2</ele><time>2026-05-04T10:00:03Z</time></trkpt><trkpt lat="31.988717369110866" lon="-6.122427648110349"><ele>1222.8</ele><time>2026-05-04T10:00:04Z</time></trkpt><trkpt lat="31.988617327087606" lon="-6.122407331391171"><ele>1225.4</ele><time>2026-05-04T10:00:05Z</time></trkpt><trkpt lat="31.98852785787737" lon="-6.12238443001555"><ele>1228.0</ele><time>2026-05-04T10:00:06Z</time></trkpt><trkpt lat="31.988443936779735" lon="-6.122364010410915"><ele>1230.5</ele><time>2026-05-04T10:00:07Z</time></trkpt><trkpt lat="31.988367355856173" lon="-6.122363232824769"><ele>1233.0</ele><time>2026-05-04T10:00:08Z</time></trkpt><trkpt lat="31.988296176834865" lon="-6.122391494986968"><ele>1235.5</ele><time>2026-05-04T10:00:09Z</time></trkpt><trkpt lat="31.988202952757963" lon="-6.122424664886052"><ele>1238.0</ele><time>2026-05-04T10:00:10Z</time></trkpt><trkpt lat="31.98812524836846" lon="-6.1224893635824715"><ele>1240.5</ele><time>2026-05-04T10:00:11Z</time></trkpt><trkpt lat="31.988035239527484" lon="-6.122535650474623"><ele>1243.0</ele><time>2026-05-04T10:00:12Z</time></trkpt><trkpt lat="31.987940344922936" lon="-6.1225769867623505"><ele>1243.0</ele><time>2026-05-04T10:00:13Z</time></trkpt><trkpt lat="31.987842729739487" lon="-6.122625315564695"><ele>1243.0</ele><time>2026-05-04T10:00:14Z</time></trkpt><trkpt lat="31.987744257189497" lon="-6.122675184017081"><ele>1243.0</ele><time>2026-05-04T10:00:15Z</time></trkpt><trkpt lat="31.98765311050148" lon="-6.1227175057698116"><ele>1243.0</ele><time>2026-05-04T10:00:16Z</time></trkpt><trkpt lat="31.987567233064667" lon="-6.12272416331622"><ele>1243.0</ele><time>2026-05-04T10:00:17Z</time></trkpt><trkpt lat="31.98747814457868" lon="-6.1226927357693715"><ele>1245.2</ele><time>2026-05-04T10:00:18Z</time></trkpt><trkpt lat="31.987380944212823" lon="-6.122637406470725"><ele>1247.4</ele><time>2026-05-04T10:00:19Z</time></trkpt><trkpt lat="31.98727513600409" lon="-6.122574569582916"><ele>1249.6000000000001</ele><time>2026-05-04T10:00:20Z</time></trkpt><trkpt lat="31.987185192643732" lon="-6.1225220881849465"><ele>1251.8</ele><time>2026-05-04T10:00:21Z</time></trkpt><trkpt lat="31.987110192485602" lon="-6.122472542834638"><ele>1254.0</ele><time>2026-05-04T10:00:22Z</time></trkpt><trkpt lat="31.987043359761852" lon="-6.122405923249868"><ele>1259.4</ele><time>2026-05-04T10:00:23Z</time></trkpt><trkpt lat="31.986987857517942" lon="-6.122317183110861"><ele>1264.8000000000002</ele><time>2026-05-04T10:00:24Z</time></trkpt><trkpt lat="31.98693353355532" lon="-6.122222528231454"><ele>1270.1999999999998</ele><time>2026-05-04T10:00:25Z</time></trkpt><trkpt lat="31.98687928158895" lon="-6.122121600531483"><ele>1275.6</ele><time>2026-05-04T10:00:26Z</time></trkpt><trkpt lat="31.9868244256906" lon="-6.122019618653353"><ele>1281.0</ele><time>2026-05-04T10:00:27Z</time></trkpt><trkpt lat="31.986781399979805" lon="-6.121917412727185"><ele>1281.0</ele><time>2026-05-04T10:00:28Z</time></trkpt><trkpt lat="31.986729784642094" lon="-6.1218336415913"><ele>1281.0</ele><time>2026-05-04T10:00:29Z</time></trkpt><trkpt lat="31.986699696669888" lon="-6.121741781541358"><ele>1281.0</ele><time>2026-05-04T10:00:30Z</time></trkpt><trkpt lat="31.986692751125002" lon="-6.121661597823029"><ele>1281.0</ele><time>2026-05-04T10:00:31Z</time></trkpt><trkpt lat="31.986711162599946" lon="-6.1215361387482545"><ele>1281.0</ele><time>2026-05-04T10:00:33Z</time></trkpt><trkpt lat="31.986722060864828" lon="-6.1214594978460335"><ele>1281.0</ele><time>2026-05-04T10:00:34Z</time></trkpt><trkpt lat="31.986779454435194" lon="-6.121370247875983"><ele>1283.0</ele><time>2026-05-04T10:00:35Z</time></trkpt><trkpt lat="31.986844699677818" lon="-6.121294141592305"><ele>1285.0</ele><time>2026-05-04T10:00:36Z</time></trkpt><trkpt lat="31.986905427628574" lon="-6.121216937068203"><ele>1287.0</ele><time>2026-05-04T10:00:37Z</time></trkpt><trkpt lat="31.986960830488357" lon="-6.121146502487809"><ele>1289.0</ele><time>2026-05-04T10:00:38Z</time></trkpt><trkpt lat="31.98700136271497" lon="-6.12100732541126"><ele>1291.0</ele><time>2026-05-04T10:00:40Z</time></trkpt><trkpt lat="31.986939413845693" lon="-6.1209112171030196"><ele>1291.0</ele><time>2026-05-04T10:00:42Z</time></trkpt><trkpt lat="31.986885269970507" lon="-6.120861144663526"><ele>1291.0</ele><time>2026-05-04T10:00:43Z</time></trkpt><trkpt lat="31.9868213372497" lon="-6.120786497295721"><ele>1291.0</ele><time>2026-05-04T10:00:44Z</time></trkpt><trkpt lat="31.986759444509303" lon="-6.120710384121882"><ele>1291.0</ele><time>2026-05-04T10:00:45Z</time></trkpt><trkpt lat="31.98669695572196" lon="-6.120611607720624"><ele>1291.0</ele><time>2026-05-04T10:00:46Z</time></trkpt><trkpt lat="31.9866128270817" lon="-6.120522003886823"><ele>1291.0</ele><time>2026-05-04T10:00:47Z</time></trkpt><trkpt lat="31.98652756602783" lon="-6.120416894775141"><ele>1291.0</ele><time>2026-05-04T10:00:48Z</time></trkpt><trkpt lat="31.986444226959897" lon="-6.12030779949613"><ele>1291.0</ele><time>2026-05-04T10:00:49Z</time></trkpt><trkpt lat="31.986374212323184" lon="-6.120203542516248"><ele>1291.0</ele><time>2026-05-04T10:00:50Z</time></trkpt><trkpt lat="31.986317245655318" lon="-6.1200996532757195"><ele>1291.0</ele><time>2026-05-04T10:00:51Z</time></trkpt><trkpt lat="31.986260526157437" lon="-6.120003298792416"><ele>1291.0</ele><time>2026-05-04T10:00:52Z</time></trkpt><trkpt lat="31.98626831191673" lon="-6.119871246087317"><ele>1291.0</ele><time>2026-05-04T10:00:53Z</time></trkpt><trkpt lat="31.986273442687843" lon="-6.119755029456224"><ele>1291.0</ele><time>2026-05-04T10:00:54Z</time></trkpt><trkpt lat="31.986300411958076" lon="-6.119641331357507"><ele>1291.0</ele><time>2026-05-04T10:00:55Z</time></trkpt><trkpt lat="31.986353737571747" lon="-6.119530279515519"><ele>1292.5</ele><time>2026-05-04T10:00:56Z</time></trkpt><trkpt lat="31.986386653906568" lon="-6.119405991170005"><ele>1294.0</ele><time>2026-05-04T10:00:57Z</time></trkpt><trkpt lat="31.986409357972878" lon="-6.119273790757326"><ele>1295.5</ele><time>2026-05-04T10:00:58Z</time></trkpt><trkpt lat="31.986429334078387" lon="-6.119136877919374"><ele>1297.0</ele><time>2026-05-04T10:00:59Z</time></trkpt><trkpt lat="31.986465175283065" lon="-6.119004436591491"><ele>1298.5</ele><time>2026-05-04T10:01:00Z</time></trkpt><trkpt lat="31.986496085331726" lon="-6.118886062778715"><ele>1300.0</ele><time>2026-05-04T10:01:01Z</time></trkpt><trkpt lat="31.98651948201434" lon="-6.118766122382389"><ele>1301.5</ele><time>2026-05-04T10:01:02Z</time></trkpt><trkpt lat="31.986549680185288" lon="-6.118671675653187"><ele>1303.0</ele><time>2026-05-04T10:01:03Z</time></trkpt><trkpt lat="31.986568793117698" lon="-6.118593988126692"><ele>1304.5</ele><time>2026-05-04T10:01:04Z</time></trkpt><trkpt lat="31.986585819531243" lon="-6.1185220560528775"><ele>1306.0</ele><time>2026-05-04T10:01:05Z</time></trkpt><trkpt lat="31.986530124814912" lon="-6.1184728362986425"><ele>1306.0</ele><time>2026-05-04T10:01:07Z</time></trkpt><trkpt lat="31.98646368526623" lon="-6.11842701460002"><ele>1306.0</ele><time>2026-05-04T10:01:10Z</time></trkpt><trkpt lat="31.98638749651892" lon="-6.118409110309226"><ele>1306.0</ele><time>2026-05-04T10:01:12Z</time></trkpt><trkpt lat="31.986297802902204" lon="-6.118373764453945"><ele>1306.0</ele><time>2026-05-04T10:01:14Z</time></trkpt><trkpt lat="31.986191117764555" lon="-6.118355975598968"><ele>1306.0</ele><time>2026-05-04T10:01:16Z</time></trkpt><trkpt lat="31.986088461818287" lon="-6.118325491010681"><ele>1306.0</ele><time>2026-05-04T10:01:18Z</time></trkpt><trkpt lat="31.98603366384797" lon="-6.118279492328027"><ele>1306.0</ele><time>2026-05-04T10:03:37.999Z</time></trkpt><trkpt lat="31.98597538139797" lon="-6.118141979790412"><ele>1306.0</ele><time>2026-05-04T10:03:39.999Z</time></trkpt><trkpt lat="31.985944944496932" lon="-6.118055716745716"><ele>1306.0</ele><time>2026-05-04T10:03:40.999Z</time></trkpt><trkpt lat="31.98594026846978" lon="-6.1179436647924765"><ele>1306.0</ele><time>2026-05-04T10:03:42.999Z</time></trkpt><trkpt lat="31.985981380854565" lon="-6.11779231495949"><ele>1308.5</ele><time>2026-05-04T10:03:51.999Z</time></trkpt><trkpt lat="31.98601381786035" lon="-6.117699460408855"><ele>1311.0</ele><time>2026-05-04T10:03:52.999Z</time></trkpt><trkpt lat="31.986045801243318" lon="-6.1176078785576005"><ele>1313.5</ele><time>2026-05-04T10:03:53.999Z</time></trkpt><trkpt lat="31.986076684642335" lon="-6.117524398318193"><ele>1316.0</ele><time>2026-05-04T10:03:54.999Z</time></trkpt><trkpt lat="31.98609073619263" lon="-6.117435867369805"><ele>1318.5</ele><time>2026-05-04T10:03:55.999Z</time></trkpt><trkpt lat="31.98611388577059" lon="-6.117365089720154"><ele>1321.0</ele><time>2026-05-04T10:03:56.999Z</time></trkpt><trkpt lat="31.9861462285604" lon="-6.117266207044308"><ele>1321.0</ele><time>2026-05-04T10:03:58.999Z</time></trkpt><trkpt lat="31.98617571295147" lon="-6.117179714664099"><ele>1321.0</ele><time>2026-05-04T10:04:00.999Z</time></trkpt><trkpt lat="31.986206627611416" lon="-6.117096776740042"><ele>1321.0</ele><time>2026-05-04T10:04:02.999Z</time></trkpt><trkpt lat="31.98624064834373" lon="-6.117005505837011"><ele>1321.0</ele><time>2026-05-04T10:04:04.999Z</time></trkpt><trkpt lat="31.986276143610194" lon="-6.116909289378521"><ele>1321.0</ele><time>2026-05-04T10:04:06.999Z</time></trkpt><trkpt lat="31.98631271537667" lon="-6.116810027022647"><ele>1321.0</ele><time>2026-05-04T10:04:08.999Z</time></trkpt><trkpt lat="31.986358399363446" lon="-6.116686032465646"><ele>1320.4</ele><time>2026-05-04T10:04:10.999Z</time></trkpt><trkpt lat="31.986413274366512" lon="-6.116544326553084"><ele>1319.8</ele><time>2026-05-04T10:04:12.999Z</time></trkpt><trkpt lat="31.986445772191004" lon="-6.116477022714064"><ele>1319.2</ele><time>2026-05-04T10:04:13.999Z</time></trkpt><trkpt lat="31.986505213905296" lon="-6.11635944656503"><ele>1318.6000000000001</ele><time>2026-05-04T10:04:15.999Z</time></trkpt><trkpt lat="31.98654975575241" lon="-6.116278940766254"><ele>1318.0</ele><time>2026-05-04T10:04:18Z</time></trkpt><trkpt lat="31.986596317833197" lon="-6.116211802520738"><ele>1318.0</ele><time>2026-05-04T10:04:20Z</time></trkpt><trkpt lat="31.986640420790813" lon="-6.116148209984198"><ele>1318.0</ele><time>2026-05-04T10:04:22Z</time></trkpt><trkpt lat="31.98668405922088" lon="-6.116076181435593"><ele>1318.0</ele><time>2026-05-04T10:04:24Z</time></trkpt><trkpt lat="31.986708331265174" lon="-6.115995677618356"><ele>1318.0</ele><time>2026-05-04T10:04:26Z</time></trkpt><trkpt lat="31.986672376260948" lon="-6.115902538245336"><ele>1318.0</ele><time>2026-05-04T10:04:28Z</time></trkpt><trkpt lat="31.986642895978765" lon="-6.115812635531018"><ele>1318.0</ele><time>2026-05-04T10:04:29Z</time></trkpt><trkpt lat="31.98660671496963" lon="-6.11570934850997"><ele>1318.25</ele><time>2026-05-04T10:04:30Z</time></trkpt><trkpt lat="31.98657097620254" lon="-6.115607324226464"><ele>1318.5</ele><time>2026-05-04T10:04:31Z</time></trkpt><trkpt lat="31.98657859530296" lon="-6.115470150504271"><ele>1318.75</ele><time>2026-05-04T10:04:32Z</time></trkpt><trkpt lat="31.986613040302075" lon="-6.115318703912537"><ele>1319.0</ele><time>2026-05-04T10:04:33Z</time></trkpt><trkpt lat="31.986665495261683" lon="-6.115161843884056"><ele>1322.75</ele><time>2026-05-04T10:04:34Z</time></trkpt><trkpt lat="31.986736589507995" lon="-6.115015270487983"><ele>1326.5</ele><time>2026-05-04T10:04:35Z</time></trkpt><trkpt lat="31.986813896317457" lon="-6.114882307018435"><ele>1330.25</ele><time>2026-05-04T10:04:36Z</time></trkpt><trkpt lat="31.98688583894759" lon="-6.114761331515301"><ele>1334.0</ele><time>2026-05-04T10:04:36.999Z</time></trkpt><trkpt lat="31.98698669885794" lon="-6.114653309296908"><ele>1334.0</ele><time>2026-05-04T10:04:37.999Z</time></trkpt><trkpt lat="31.987092347391183" lon="-6.114535568631974"><ele>1334.0</ele><time>2026-05-04T10:04:38.999Z</time></trkpt><trkpt lat="31.98720807480025" lon="-6.114457977234516"><ele>1334.0</ele><time>2026-05-04T10:04:39.999Z</time></trkpt><trkpt lat="31.987304751884533" lon="-6.114392262558289"><ele>1334.0</ele><time>2026-05-04T10:04:40.999Z</time></trkpt><trkpt lat="31.98737162435722" lon="-6.114332224430379"><ele>1334.0</ele><time>2026-05-04T10:04:41.999Z</time></trkpt><trkpt lat="31.98744365242226" lon="-6.114263511678132"><ele>1334.0</ele><time>2026-05-04T10:04:42.999Z</time></trkpt><trkpt lat="31.987486323149355" lon="-6.114155213984741"><ele>1334.0</ele><time>2026-05-04T10:04:43.999Z</time></trkpt><trkpt lat="31.987562193518237" lon="-6.114038945932507"><ele>1334.0</ele><time>2026-05-04T10:04:44.999Z</time></trkpt><trkpt lat="31.987670853200736" lon="-6.113933483681176"><ele>1337.25</ele><time>2026-05-04T10:04:45.999Z</time></trkpt><trkpt lat="31.98779415470438" lon="-6.113846931940014"><ele>1340.5</ele><time>2026-05-04T10:04:46.999Z</time></trkpt><trkpt lat="31.987932701253115" lon="-6.113785570793191"><ele>1343.75</ele><time>2026-05-04T10:04:47.999Z</time></trkpt><trkpt lat="31.98804731594767" lon="-6.113700065393368"><ele>1347.0</ele><time>2026-05-04T10:04:48.999Z</time></trkpt><trkpt lat="31.98814513278134" lon="-6.113627823387557"><ele>1347.0</ele><time>2026-05-04T10:04:49.999Z</time></trkpt><trkpt lat="31.988195293994963" lon="-6.1135397204780775"><ele>1347.0</ele><time>2026-05-04T10:04:50.999Z</time></trkpt><trkpt lat="31.988243677684856" lon="-6.113441448502097"><ele>1347.0</ele><time>2026-05-04T10:04:51.999Z</time></trkpt><trkpt lat="31.988257912108537" lon="-6.1133410230894025"><ele>1347.0</ele><time>2026-05-04T10:04:52.999Z</time></trkpt><trkpt lat="31.9882557328713" lon="-6.113228095645706"><ele>1347.0</ele><time>2026-05-04T10:04:53.999Z</time></trkpt><trkpt lat="31.988269844060262" lon="-6.113075077574425"><ele>1347.8</ele><time>2026-05-04T10:04:54.999Z</time></trkpt><trkpt lat="31.988281283129783" lon="-6.1129291584472405"><ele>1348.6</ele><time>2026-05-04T10:04:55.999Z</time></trkpt><trkpt lat="31.98828878310777" lon="-6.1128043413395545"><ele>1349.3999999999999</ele><time>2026-05-04T10:04:56.999Z</time></trkpt><trkpt lat="31.988294596340985" lon="-6.112707595718268"><ele>1350.1999999999998</ele><time>2026-05-04T10:04:57.999Z</time></trkpt><trkpt lat="31.9882384076734" lon="-6.1126546003010285"><ele>1351.0</ele><time>2026-05-04T10:04:59.999Z</time></trkpt><trkpt lat="31.988135050166758" lon="-6.112645687553037"><ele>1351.0</ele><time>2026-05-04T10:05:01.999Z</time></trkpt><trkpt lat="31.988068526709664" lon="-6.112688522550949"><ele>1351.0</ele><time>2026-05-04T10:05:02.999Z</time></trkpt><trkpt lat="31.988026914126586" lon="-6.11278218059488"><ele>1351.0</ele><time>2026-05-04T10:05:03.999Z</time></trkpt><trkpt lat="31.987993872703296" lon="-6.11288619201642"><ele>1351.0</ele><time>2026-05-04T10:05:04.999Z</time></trkpt><trkpt lat="31.987939398255012" lon="-6.1129790987304355"><ele>1351.0</ele><time>2026-05-04T10:05:05.999Z</time></trkpt><trkpt lat="31.98786466872445" lon="-6.1130492044567815"><ele>1351.0</ele><time>2026-05-04T10:05:06.999Z</time></trkpt><trkpt lat="31.987777867274723" lon="-6.113091275515194"><ele>1351.0</ele><time>2026-05-04T10:05:07.999Z</time></trkpt><trkpt lat="31.987679809867682" lon="-6.1131142788776165"><ele>1351.0</ele><time>2026-05-04T10:05:08.999Z</time></trkpt><trkpt lat="31.98757415181044" lon="-6.11311947971949"><ele>1351.0</ele><time>2026-05-04T10:05:09.999Z</time></trkpt><trkpt lat="31.98746059119059" lon="-6.113109551580183"><ele>1351.0</ele><time>2026-05-04T10:05:10.999Z</time></trkpt><trkpt lat="31.987327961091488" lon="-6.1130922038967075"><ele>1353.75</ele><time>2026-05-04T10:05:11.999Z</time></trkpt><trkpt lat="31.98719007285745" lon="-6.1130974928391755"><ele>1356.5</ele><time>2026-05-04T10:05:12.999Z</time></trkpt><trkpt lat="31.98705991177034" lon="-6.113083700983255"><ele>1359.25</ele><time>2026-05-04T10:05:13.999Z</time></trkpt><trkpt lat="31.986938741597026" lon="-6.113098256182172"><ele>1362.0</ele><time>2026-05-04T10:05:14.999Z</time></trkpt><trkpt lat="31.98684081257633" lon="-6.113132120715675"><ele>1362.0</ele><time>2026-05-04T10:05:15.999Z</time></trkpt><trkpt lat="31.986757813857388" lon="-6.113130940779962"><ele>1362.0</ele><time>2026-05-04T10:05:16.999Z</time></trkpt><trkpt lat="31.98667823748003" lon="-6.1131044652613635"><ele>1362.0</ele><time>2026-05-04T10:05:17.999Z</time></trkpt><trkpt lat="31.98660768396059" lon="-6.11305035276737"><ele>1362.0</ele><time>2026-05-04T10:05:18.999Z</time></trkpt><trkpt lat="31.986583199726923" lon="-6.112925470658769"><ele>1362.0</ele><time>2026-05-04T10:05:19.999Z</time></trkpt><trkpt lat="31.986565263026808" lon="-6.1128139946826385"><ele>1363.25</ele><time>2026-05-04T10:05:20.999Z</time></trkpt><trkpt lat="31.98657178703276" lon="-6.112672500347382"><ele>1364.5</ele><time>2026-05-04T10:05:21.999Z</time></trkpt><trkpt lat="31.986557403058317" lon="-6.112537767618421"><ele>1365.75</ele><time>2026-05-04T10:05:22.999Z</time></trkpt><trkpt lat="31.986518553708496" lon="-6.1124110246417835"><ele>1367.0</ele><time>2026-05-04T10:05:23.999Z</time></trkpt><trkpt lat="31.986470404411268" lon="-6.112287747874038"><ele>1368.3999999999999</ele><time>2026-05-04T10:05:24.999Z</time></trkpt><trkpt lat="31.986429253197382" lon="-6.112181244516642"><ele>1369.8</ele><time>2026-05-04T10:05:25.999Z</time></trkpt><trkpt lat="31.986406390756798" lon="-6.112078453461165"><ele>1371.2</ele><time>2026-05-04T10:05:26.999Z</time></trkpt><trkpt lat="31.986409402829832" lon="-6.1119988286279705"><ele>1372.6</ele><time>2026-05-04T10:05:27.999Z</time></trkpt><trkpt lat="31.986466533131768" lon="-6.111857244912124"><ele>1374.0</ele><time>2026-05-04T10:05:29.999Z</time></trkpt><trkpt lat="31.986516905657556" lon="-6.111756137171197"><ele>1374.0</ele><time>2026-05-04T10:05:30.999Z</time></trkpt><trkpt lat="31.98657831692804" lon="-6.111651836125453"><ele>1374.0</ele><time>2026-05-04T10:05:31.999Z</time></trkpt><trkpt lat="31.98664693286393" lon="-6.111553548369588"><ele>1374.0</ele><time>2026-05-04T10:05:32.999Z</time></trkpt><trkpt lat="31.986711682658626" lon="-6.111468983719165"><ele>1374.0</ele><time>2026-05-04T10:05:33.999Z</time></trkpt><trkpt lat="31.986783954108077" lon="-6.111394270585203"><ele>1374.0</ele><time>2026-05-04T10:05:34.999Z</time></trkpt><trkpt lat="31.986861105371847" lon="-6.111329453616243"><ele>1375.8000000000002</ele><time>2026-05-04T10:05:35.999Z</time></trkpt><trkpt lat="31.98694877533359" lon="-6.111274043808627"><ele>1377.6000000000001</ele><time>2026-05-04T10:05:36.999Z</time></trkpt><trkpt lat="31.987029453624597" lon="-6.1112206116001575"><ele>1379.4</ele><time>2026-05-04T10:05:37.999Z</time></trkpt><trkpt lat="31.98709001722018" lon="-6.1111500015285305"><ele>1381.2</ele><time>2026-05-04T10:05:38.999Z</time></trkpt><trkpt lat="31.987131332763052" lon="-6.111059624487715"><ele>1383.0</ele><time>2026-05-04T10:05:39.999Z</time></trkpt><trkpt lat="31.987149106606353" lon="-6.110938240692674"><ele>1383.0</ele><time>2026-05-04T10:05:40.999Z</time></trkpt><trkpt lat="31.987154704256167" lon="-6.110809693969796"><ele>1383.0</ele><time>2026-05-04T10:05:41.999Z</time></trkpt><trkpt lat="31.987161510351527" lon="-6.110680413907774"><ele>1383.0</ele><time>2026-05-04T10:05:42.999Z</time></trkpt><trkpt lat="31.987197460558527" lon="-6.1105774672665225"><ele>1383.0</ele><time>2026-05-04T10:05:43.999Z</time></trkpt><trkpt lat="31.98726291876094" lon="-6.110480206623858"><ele>1383.0</ele><time>2026-05-04T10:05:44.999Z</time></trkpt><trkpt lat="31.987707726117154" lon="-6.110198333566563"><ele>1384.6000000000001</ele><time>2026-05-04T10:05:48.999Z</time></trkpt><trkpt lat="31.98779179345364" lon="-6.1101280064086865"><ele>1386.2</ele><time>2026-05-04T10:05:49.999Z</time></trkpt><trkpt lat="31.987858754326155" lon="-6.110050674388726"><ele>1387.8</ele><time>2026-05-04T10:05:50.999Z</time></trkpt><trkpt lat="31.98790388138956" lon="-6.109960411250073"><ele>1389.4</ele><time>2026-05-04T10:05:51.999Z</time></trkpt><trkpt lat="31.987945070902782" lon="-6.1098411245623305"><ele>1391.0</ele><time>2026-05-04T10:05:52.999Z</time></trkpt><trkpt lat="31.987963645448325" lon="-6.109709485104958"><ele>1393.1999999999998</ele><time>2026-05-04T10:05:53.999Z</time></trkpt><trkpt lat="31.987992139880628" lon="-6.109572928677008"><ele>1395.3999999999999</ele><time>2026-05-04T10:05:54.999Z</time></trkpt><trkpt lat="31.98803760933928" lon="-6.109461156209421"><ele>1397.6</ele><time>2026-05-04T10:05:55.999Z</time></trkpt><trkpt lat="31.988105102570312" lon="-6.109362174936307"><ele>1399.8</ele><time>2026-05-04T10:05:57Z</time></trkpt><trkpt lat="31.98818860787972" lon="-6.109277315661557"><ele>1402.0</ele><time>2026-05-04T10:05:58Z</time></trkpt><trkpt lat="31.98829190379054" lon="-6.109207701436854"><ele>1402.0</ele><time>2026-05-04T10:05:59Z</time></trkpt><trkpt lat="31.98841544223266" lon="-6.109153087103708"><ele>1402.0</ele><time>2026-05-04T10:06:00Z</time></trkpt><trkpt lat="31.98853935685678" lon="-6.1090977996679365"><ele>1402.0</ele><time>2026-05-04T10:06:01Z</time></trkpt><trkpt lat="31.988648046085505" lon="-6.1090527692172385"><ele>1402.0</ele><time>2026-05-04T10:06:02Z</time></trkpt><trkpt lat="31.9887400254859" lon="-6.109022011588977"><ele>1404.1999999999998</ele><time>2026-05-04T10:06:03Z</time></trkpt><trkpt lat="31.988832306693688" lon="-6.108987326267546"><ele>1406.4</ele><time>2026-05-04T10:06:04Z</time></trkpt><trkpt lat="31.988908293060344" lon="-6.108924121254417"><ele>1408.6</ele><time>2026-05-04T10:06:05Z</time></trkpt><trkpt lat="31.988953920459927" lon="-6.108827353396861"><ele>1410.8000000000002</ele><time>2026-05-04T10:06:06Z</time></trkpt><trkpt lat="31.989015386379698" lon="-6.108730944386145"><ele>1413.0</ele><time>2026-05-04T10:06:07Z</time></trkpt><trkpt lat="31.989048914789887" lon="-6.108601541984852"><ele>1413.0</ele><time>2026-05-04T10:06:08Z</time></trkpt><trkpt lat="31.989084634231233" lon="-6.108466751344721"><ele>1413.0</ele><time>2026-05-04T10:06:09Z</time></trkpt><trkpt lat="31.989115298010105" lon="-6.108340706954664"><ele>1413.0</ele><time>2026-05-04T10:06:10Z</time></trkpt><trkpt lat="31.989097172594676" lon="-6.108232805273569"><ele>1413.0</ele><time>2026-05-04T10:06:11Z</time></trkpt><trkpt lat="31.989086263508696" lon="-6.10812066643727"><ele>1413.0</ele><time>2026-05-04T10:06:12Z</time></trkpt><trkpt lat="31.98907263121629" lon="-6.10799696958352"><ele>1416.0</ele><time>2026-05-04T10:06:13Z</time></trkpt><trkpt lat="31.989032350462374" lon="-6.107862062673547"><ele>1419.0</ele><time>2026-05-04T10:06:14Z</time></trkpt><trkpt lat="31.989004146887375" lon="-6.107694707338547"><ele>1422.0</ele><time>2026-05-04T10:06:15Z</time></trkpt><trkpt lat="31.988977565267753" lon="-6.1075129234678585"><ele>1425.0</ele><time>2026-05-04T10:06:16Z</time></trkpt><trkpt lat="31.988960911955907" lon="-6.10735927395379"><ele>1428.6</ele><time>2026-05-04T10:06:17Z</time></trkpt><trkpt lat="31.988947167606213" lon="-6.107232533263581"><ele>1432.2</ele><time>2026-05-04T10:06:18Z</time></trkpt><trkpt lat="31.988935074034806" lon="-6.10712029588358"><ele>1435.8000000000002</ele><time>2026-05-04T10:06:19Z</time></trkpt><trkpt lat="31.988925400582318" lon="-6.1070061394919515"><ele>1439.4</ele><time>2026-05-04T10:06:20Z</time></trkpt><trkpt lat="31.988921415777227" lon="-6.106906172806438"><ele>1443.0</ele><time>2026-05-04T10:06:21Z</time></trkpt><trkpt lat="31.988959381152412" lon="-6.1067524146155465"><ele>1443.0</ele><time>2026-05-04T10:06:22Z</time></trkpt><trkpt lat="31.988999373060878" lon="-6.106633328005295"><ele>1443.0</ele><time>2026-05-04T10:06:24Z</time></trkpt><trkpt lat="31.98910378925894" lon="-6.106590864252993"><ele>1443.0</ele><time>2026-05-04T10:06:25Z</time></trkpt><trkpt lat="31.989214042850715" lon="-6.1066459902382375"><ele>1443.0</ele><time>2026-05-04T10:06:26Z</time></trkpt><trkpt lat="31.98928229991922" lon="-6.106671400771535"><ele>1443.0</ele><time>2026-05-04T10:06:27Z</time></trkpt><trkpt lat="31.989322416128733" lon="-6.106763891343675"><ele>1439.8333333333333</ele><time>2026-05-04T10:06:28Z</time></trkpt><trkpt lat="31.98938398641075" lon="-6.106819771234438"><ele>1436.6666666666667</ele><time>2026-05-04T10:06:29Z</time></trkpt><trkpt lat="31.989430753018137" lon="-6.106883941195471"><ele>1433.5</ele><time>2026-05-04T10:06:30Z</time></trkpt><trkpt lat="31.98949385809262" lon="-6.106913284989267"><ele>1430.3333333333335</ele><time>2026-05-04T10:06:31Z</time></trkpt><trkpt lat="31.989569651343096" lon="-6.106902031059702"><ele>1427.1666666666667</ele><time>2026-05-04T10:06:32Z</time></trkpt><trkpt lat="31.98961580903348" lon="-6.106820284573992"><ele>1424.0</ele><time>2026-05-04T10:06:33Z</time></trkpt><trkpt lat="31.98967998034979" lon="-6.1067658124559"><ele>1424.0</ele><time>2026-05-04T10:06:34Z</time></trkpt><trkpt lat="31.989709953257275" lon="-6.106642487708272"><ele>1424.0</ele><time>2026-05-04T10:06:35Z</time></trkpt><trkpt lat="31.98977957707845" lon="-6.106512441300781"><ele>1424.0</ele><time>2026-05-04T10:06:36Z</time></trkpt><trkpt lat="31.989856038095393" lon="-6.106366706924332"><ele>1424.0</ele><time>2026-05-04T10:06:37Z</time></trkpt><trkpt lat="31.989921978594342" lon="-6.106232740934799"><ele>1427.0</ele><time>2026-05-04T10:06:38Z</time></trkpt><trkpt lat="31.989977109994953" lon="-6.106116034225419"><ele>1430.0</ele><time>2026-05-04T10:06:39Z</time></trkpt><trkpt lat="31.990029229965728" lon="-6.106004586642326"><ele>1433.0</ele><time>2026-05-04T10:06:40Z</time></trkpt><trkpt lat="31.990074210125748" lon="-6.105899774856729"><ele>1436.0</ele><time>2026-05-04T10:06:41Z</time></trkpt><trkpt lat="31.99010898891971" lon="-6.105801917626589"><ele>1439.0</ele><time>2026-05-04T10:06:42Z</time></trkpt><trkpt lat="31.99014491341819" lon="-6.105699945224568"><ele>1439.0</ele><time>2026-05-04T10:06:43Z</time></trkpt><trkpt lat="31.990164548907494" lon="-6.105590665658431"><ele>1439.0</ele><time>2026-05-04T10:06:44Z</time></trkpt><trkpt lat="31.990173105344997" lon="-6.105451532396783"><ele>1439.0</ele><time>2026-05-04T10:06:45Z</time></trkpt><trkpt lat="31.990178198639978" lon="-6.105335405471396"><ele>1439.0</ele><time>2026-05-04T10:06:46Z</time></trkpt><trkpt lat="31.990162589751634" lon="-6.105243363398466"><ele>1439.0</ele><time>2026-05-04T10:06:47Z</time></trkpt><trkpt lat="31.99014636813535" lon="-6.105116778161323"><ele>1439.0</ele><time>2026-05-04T10:06:48Z</time></trkpt><trkpt lat="31.990151814246683" lon="-6.105013622502576"><ele>1439.0</ele><time>2026-05-04T10:06:49Z</time></trkpt><trkpt lat="31.990186667040913" lon="-6.104873991194087"><ele>1439.0</ele><time>2026-05-04T10:06:50Z</time></trkpt><trkpt lat="31.990223436966783" lon="-6.104786147013521"><ele>1439.0</ele><time>2026-05-04T10:06:51Z</time></trkpt><trkpt lat="31.990356369727632" lon="-6.104735624358355"><ele>1439.0</ele><time>2026-05-04T10:06:52Z</time></trkpt><trkpt lat="31.99045383054188" lon="-6.104737973204413"><ele>1441.1666666666667</ele><time>2026-05-04T10:06:53Z</time></trkpt><trkpt lat="31.990547330529466" lon="-6.1047145529406475"><ele>1443.3333333333335</ele><time>2026-05-04T10:06:54Z</time></trkpt><trkpt lat="31.990629520808636" lon="-6.104713109324186"><ele>1445.5</ele><time>2026-05-04T10:06:55Z</time></trkpt><trkpt lat="31.990723876556" lon="-6.104693150677996"><ele>1447.6666666666667</ele><time>2026-05-04T10:06:57Z</time></trkpt><trkpt lat="31.99081781148956" lon="-6.104625595988678"><ele>1449.8333333333333</ele><time>2026-05-04T10:06:59Z</time></trkpt><trkpt lat="31.990877794232564" lon="-6.104600914464363"><ele>1452.0</ele><time>2026-05-04T10:07:00Z</time></trkpt><trkpt lat="31.990945479047465" lon="-6.1045792861821155"><ele>1452.0</ele><time>2026-05-04T10:07:01Z</time></trkpt><trkpt lat="31.9910065101878" lon="-6.104530710003569"><ele>1452.0</ele><time>2026-05-04T10:07:02Z</time></trkpt><trkpt lat="31.9910726236337" lon="-6.1044576873285195"><ele>1452.0</ele><time>2026-05-04T10:07:03Z</time></trkpt><trkpt lat="31.991146391520946" lon="-6.104385734177592"><ele>1452.0</ele><time>2026-05-04T10:07:04Z</time></trkpt><trkpt lat="31.991235875055857" lon="-6.10431029694034"><ele>1452.0</ele><time>2026-05-04T10:07:05Z</time></trkpt><trkpt lat="31.991337049625756" lon="-6.104239079496083"><ele>1452.0</ele><time>2026-05-04T10:07:06Z</time></trkpt><trkpt lat="31.991422945923667" lon="-6.104160157757234"><ele>1452.0</ele><time>2026-05-04T10:07:07Z</time></trkpt><trkpt lat="31.991517526719434" lon="-6.104083289453921"><ele>1452.0</ele><time>2026-05-04T10:07:08Z</time></trkpt><trkpt lat="31.991612998659" lon="-6.104011103534321"><ele>1452.0</ele><time>2026-05-04T10:07:09Z</time></trkpt><trkpt lat="31.991704382956907" lon="-6.103957108368008"><ele>1452.0</ele><time>2026-05-04T10:07:10Z</time></trkpt><trkpt lat="31.99177889206551" lon="-6.103902642913659"><ele>1450.8</ele><time>2026-05-04T10:07:11Z</time></trkpt><trkpt lat="31.99184992432754" lon="-6.1038199977048375"><ele>1449.6</ele><time>2026-05-04T10:07:12Z</time></trkpt><trkpt lat="31.991913951119543" lon="-6.10372888952395"><ele>1448.3999999999999</ele><time>2026-05-04T10:07:13Z</time></trkpt><trkpt lat="31.99198014857614" lon="-6.1036354659397345"><ele>1447.1999999999998</ele><time>2026-05-04T10:07:14Z</time></trkpt><trkpt lat="31.9920390320177" lon="-6.103551981485452"><ele>1446.0</ele><time>2026-05-04T10:07:15Z</time></trkpt><trkpt lat="31.992072060507425" lon="-6.103445705062443"><ele>1446.0</ele><time>2026-05-04T10:07:16Z</time></trkpt><trkpt lat="31.992084174180327" lon="-6.10332697204337"><ele>1446.0</ele><time>2026-05-04T10:07:17Z</time></trkpt><trkpt lat="31.992089699980866" lon="-6.10319206097804"><ele>1446.0</ele><time>2026-05-04T10:07:18Z</time></trkpt><trkpt lat="31.99209332606419" lon="-6.103062572079498"><ele>1446.0</ele><time>2026-05-04T10:07:19Z</time></trkpt><trkpt lat="31.992120630317086" lon="-6.1029339327634"><ele>1446.0</ele><time>2026-05-04T10:07:20Z</time></trkpt><trkpt lat="31.992177800509236" lon="-6.102805262477077"><ele>1450.75</ele><time>2026-05-04T10:07:21Z</time></trkpt><trkpt lat="31.99223245138625" lon="-6.102674112742577"><ele>1455.5</ele><time>2026-05-04T10:07:22Z</time></trkpt><trkpt lat="31.992282507510467" lon="-6.102503882121189"><ele>1460.25</ele><time>2026-05-04T10:07:23Z</time></trkpt><trkpt lat="31.99232343668119" lon="-6.102347887864089"><ele>1465.0</ele><time>2026-05-04T10:07:24Z</time></trkpt><trkpt lat="31.99236167145941" lon="-6.1022184120900045"><ele>1463.8</ele><time>2026-05-04T10:07:25Z</time></trkpt><trkpt lat="31.992398925679975" lon="-6.102095020328549"><ele>1462.6</ele><time>2026-05-04T10:07:26Z</time></trkpt><trkpt lat="31.99244322538792" lon="-6.101970723792567"><ele>1461.4</ele><time>2026-05-04T10:07:27Z</time></trkpt><trkpt lat="31.992484386435105" lon="-6.101863647678215"><ele>1460.2</ele><time>2026-05-04T10:07:28Z</time></trkpt><trkpt lat="31.992531785539214" lon="-6.101773308787285"><ele>1459.0</ele><time>2026-05-04T10:07:29Z</time></trkpt><trkpt lat="31.992583086959247" lon="-6.101713898255377"><ele>1459.0</ele><time>2026-05-04T10:07:30Z</time></trkpt><trkpt lat="31.99264895539361" lon="-6.101665273444175"><ele>1459.0</ele><time>2026-05-04T10:07:31Z</time></trkpt><trkpt lat="31.992713940131306" lon="-6.101641541544218"><ele>1459.0</ele><time>2026-05-04T10:07:32Z</time></trkpt><trkpt lat="31.992777022394804" lon="-6.101562673808567"><ele>1459.0</ele><time>2026-05-04T10:07:34Z</time></trkpt><trkpt lat="31.992715932942918" lon="-6.1014803992692395"><ele>1459.0</ele><time>2026-05-04T10:07:36Z</time></trkpt><trkpt lat="31.992666548818963" lon="-6.101543394956589"><ele>1459.0</ele><time>2026-05-04T10:07:36.999Z</time></trkpt><trkpt lat="31.992615089556775" lon="-6.101589170525255"><ele>1459.0</ele><time>2026-05-04T10:07:37.999Z</time></trkpt><trkpt lat="31.992543782685992" lon="-6.101652036958364"><ele>1459.0</ele><time>2026-05-04T10:07:38.999Z</time></trkpt><trkpt lat="31.99248174819288" lon="-6.1017269870119435"><ele>1459.0</ele><time>2026-05-04T10:07:39.999Z</time></trkpt><trkpt lat="31.992422950583173" lon="-6.101800157292393"><ele>1459.0</ele><time>2026-05-04T10:07:40.999Z</time></trkpt><trkpt lat="31.99238656223235" lon="-6.1018855651739905"><ele>1459.0</ele><time>2026-05-04T10:07:41.999Z</time></trkpt><trkpt lat="31.992339903619147" lon="-6.101983945448154"><ele>1459.0</ele><time>2026-05-04T10:07:42.999Z</time></trkpt><trkpt lat="31.99229131172096" lon="-6.102090911687532"><ele>1460.5</ele><time>2026-05-04T10:07:43.999Z</time></trkpt><trkpt lat="31.99223986538348" lon="-6.102208508840392"><ele>1462.0</ele><time>2026-05-04T10:07:44.999Z</time></trkpt><trkpt lat="31.99218828909277" lon="-6.102326747457215"><ele>1463.5</ele><time>2026-05-04T10:07:45.999Z</time></trkpt><trkpt lat="31.992135800984208" lon="-6.102446368635663"><ele>1465.0</ele><time>2026-05-04T10:07:46.999Z</time></trkpt><trkpt lat="31.992068307931195" lon="-6.102576444674283"><ele>1465.0</ele><time>2026-05-04T10:07:47.999Z</time></trkpt><trkpt lat="31.991997098549742" lon="-6.10268393187782"><ele>1465.0</ele><time>2026-05-04T10:07:48.999Z</time></trkpt><trkpt lat="31.991931003385037" lon="-6.102785669551673"><ele>1465.0</ele><time>2026-05-04T10:07:49.999Z</time></trkpt><trkpt lat="31.991871537121604" lon="-6.102876622257882"><ele>1465.0</ele><time>2026-05-04T10:07:50.999Z</time></trkpt><trkpt lat="31.991779350997327" lon="-6.102926088542929"><ele>1465.0</ele><time>2026-05-04T10:07:51.999Z</time></trkpt><trkpt lat="31.991713650512864" lon="-6.1030003897315614"><ele>1475.8</ele><time>2026-05-04T10:07:52.999Z</time></trkpt><trkpt lat="31.99164121541241" lon="-6.103062361984025"><ele>1486.6</ele><time>2026-05-04T10:07:53.999Z</time></trkpt><trkpt lat="31.9915553121497" lon="-6.103104016595277"><ele>1497.4</ele><time>2026-05-04T10:07:54.999Z</time></trkpt><trkpt lat="31.99145845762482" lon="-6.103134178304144"><ele>1508.2</ele><time>2026-05-04T10:07:55.999Z</time></trkpt><trkpt lat="31.991357349920523" lon="-6.103178513381644"><ele>1519.0</ele><time>2026-05-04T10:07:56.999Z</time></trkpt><trkpt lat="31.991256521096634" lon="-6.103230156559991"><ele>1518.4</ele><time>2026-05-04T10:07:57.999Z</time></trkpt><trkpt lat="31.991160827344" lon="-6.1032889262273935"><ele>1517.8000000000002</ele><time>2026-05-04T10:07:58.999Z</time></trkpt><trkpt lat="31.991065780464808" lon="-6.103351553837176"><ele>1517.1999999999998</ele><time>2026-05-04T10:07:59.999Z</time></trkpt><trkpt lat="31.990992261273664" lon="-6.103439957631683"><ele>1516.6</ele><time>2026-05-04T10:08:00.999Z</time></trkpt><trkpt lat="31.99089893292416" lon="-6.103523148529445"><ele>1516.0</ele><time>2026-05-04T10:08:01.999Z</time></trkpt><trkpt lat="31.990796341918795" lon="-6.103597805058702"><ele>1516.0</ele><time>2026-05-04T10:08:03Z</time></trkpt><trkpt lat="31.99071437145611" lon="-6.103693327455282"><ele>1516.0</ele><time>2026-05-04T10:08:04Z</time></trkpt><trkpt lat="31.990637575720417" lon="-6.103770615847586"><ele>1516.0</ele><time>2026-05-04T10:08:05Z</time></trkpt><trkpt lat="31.990571539338756" lon="-6.10382298116889"><ele>1516.0</ele><time>2026-05-04T10:08:06Z</time></trkpt><trkpt lat="31.99049615202943" lon="-6.10386142580313"><ele>1516.0</ele><time>2026-05-04T10:08:07Z</time></trkpt><trkpt lat="31.99041537371734" lon="-6.103878967455182"><ele>1516.0</ele><time>2026-05-04T10:08:08Z</time></trkpt><trkpt lat="31.990329146109307" lon="-6.103918960637791"><ele>1516.0</ele><time>2026-05-04T10:08:09Z</time></trkpt><trkpt lat="31.990240809866375" lon="-6.103934964153281"><ele>1516.0</ele><time>2026-05-04T10:08:10Z</time></trkpt><trkpt lat="31.990162657038958" lon="-6.10394766774647"><ele>1516.0</ele><time>2026-05-04T10:08:11Z</time></trkpt><trkpt lat="31.990081734413685" lon="-6.103906311241303"><ele>1516.0</ele><time>2026-05-04T10:08:12Z</time></trkpt><trkpt lat="31.990006651511614" lon="-6.10386476788856"><ele>1516.0</ele><time>2026-05-04T10:08:13Z</time></trkpt><trkpt lat="31.989943237894387" lon="-6.103803794619311"><ele>1514.6666666666665</ele><time>2026-05-04T10:08:14Z</time></trkpt><trkpt lat="31.989878196609794" lon="-6.103786179761989"><ele>1513.3333333333333</ele><time>2026-05-04T10:08:15Z</time></trkpt><trkpt lat="31.989776476414676" lon="-6.103797477840873"><ele>1512.0</ele><time>2026-05-04T10:08:17Z</time></trkpt><trkpt lat="31.989779993237597" lon="-6.103879975944593"><ele>1510.6666666666667</ele><time>2026-05-04T10:08:18Z</time></trkpt><trkpt lat="31.98972876927963" lon="-6.104008823840135"><ele>1509.3333333333335</ele><time>2026-05-04T10:08:20Z</time></trkpt><trkpt lat="31.98968119802387" lon="-6.1040877796428745"><ele>1508.0</ele><time>2026-05-04T10:08:21Z</time></trkpt><trkpt lat="31.989619540357968" lon="-6.10417558884047"><ele>1508.0</ele><time>2026-05-04T10:08:22Z</time></trkpt><trkpt lat="31.9895782559105" lon="-6.104241255787492"><ele>1508.0</ele><time>2026-05-04T10:08:23Z</time></trkpt><trkpt lat="31.989501912182586" lon="-6.104303672158851"><ele>1508.0</ele><time>2026-05-04T10:08:25Z</time></trkpt><trkpt lat="31.989400725055805" lon="-6.104243013635045"><ele>1508.0</ele><time>2026-05-04T10:08:27Z</time></trkpt><trkpt lat="31.989341243800467" lon="-6.104201627482697"><ele>1508.0</ele><time>2026-05-04T10:08:28Z</time></trkpt><trkpt lat="31.98930819749982" lon="-6.104092353203697"><ele>1508.0</ele><time>2026-05-04T10:08:29Z</time></trkpt><trkpt lat="31.989297326078216" lon="-6.1039712429879005"><ele>1512.8333333333335</ele><time>2026-05-04T10:08:30Z</time></trkpt><trkpt lat="31.989236995004813" lon="-6.103866918276996"><ele>1517.6666666666667</ele><time>2026-05-04T10:08:31Z</time></trkpt><trkpt lat="31.989179752213243" lon="-6.103780383015022"><ele>1522.5</ele><time>2026-05-04T10:08:32Z</time></trkpt><trkpt lat="31.989139147465274" lon="-6.103701759199864"><ele>1527.3333333333335</ele><time>2026-05-04T10:08:33Z</time></trkpt><trkpt lat="31.98912235848165" lon="-6.103618645406121"><ele>1532.1666666666667</ele><time>2026-05-04T10:08:34Z</time></trkpt><trkpt lat="31.989134022873664" lon="-6.10353951461136"><ele>1537.0</ele><time>2026-05-04T10:08:35Z</time></trkpt><trkpt lat="31.989172185660767" lon="-6.1034750522876395"><ele>1537.0</ele><time>2026-05-04T10:08:36Z</time></trkpt><trkpt lat="31.989236454336023" lon="-6.103422593528483"><ele>1537.0</ele><time>2026-05-04T10:08:37Z</time></trkpt><trkpt lat="31.98933592255131" lon="-6.103367186082206"><ele>1537.0</ele><time>2026-05-04T10:08:38Z</time></trkpt><trkpt lat="31.989431442747662" lon="-6.103294479369491"><ele>1537.0</ele><time>2026-05-04T10:08:39Z</time></trkpt><trkpt lat="31.989525586674635" lon="-6.10320855937612"><ele>1537.0</ele><time>2026-05-04T10:08:40Z</time></trkpt><trkpt lat="31.989614746215615" lon="-6.103094316368065"><ele>1540.3999999999999</ele><time>2026-05-04T10:08:41Z</time></trkpt><trkpt lat="31.98969842924562" lon="-6.102960302014249"><ele>1543.8</ele><time>2026-05-04T10:08:42Z</time></trkpt><trkpt lat="31.989769267382716" lon="-6.102848112373412"><ele>1547.2</ele><time>2026-05-04T10:08:43Z</time></trkpt><trkpt lat="31.989827854217307" lon="-6.1027657807197855"><ele>1550.6</ele><time>2026-05-04T10:08:44Z</time></trkpt><trkpt lat="31.989879851224554" lon="-6.102697065436313"><ele>1554.0</ele><time>2026-05-04T10:08:45Z</time></trkpt><trkpt lat="31.989991070527353" lon="-6.102634754859553"><ele>1552.6666666666667</ele><time>2026-05-04T10:08:47Z</time></trkpt><trkpt lat="31.990054004424053" lon="-6.102653262350319"><ele>1551.3333333333335</ele><time>2026-05-04T10:08:48Z</time></trkpt><trkpt lat="31.990118287819794" lon="-6.1026913643282725"><ele>1550.0</ele><time>2026-05-04T10:08:49Z</time></trkpt><trkpt lat="31.99018092582824" lon="-6.1027653756411775"><ele>1548.6666666666667</ele><time>2026-05-04T10:08:50Z</time></trkpt><trkpt lat="31.990226753963668" lon="-6.102828707528104"><ele>1547.3333333333335</ele><time>2026-05-04T10:08:51Z</time></trkpt><trkpt lat="31.990324500694154" lon="-6.102887586975517"><ele>1546.0</ele><time>2026-05-04T10:08:53Z</time></trkpt><trkpt lat="31.99037918804973" lon="-6.1028386894548206"><ele>1546.0</ele><time>2026-05-04T10:08:54Z</time></trkpt><trkpt lat="31.990400536781294" lon="-6.102743228442448"><ele>1546.0</ele><time>2026-05-04T10:08:55Z</time></trkpt><trkpt lat="31.990457907815948" lon="-6.1026675102780485"><ele>1546.0</ele><time>2026-05-04T10:08:56Z</time></trkpt><trkpt lat="31.990498493332396" lon="-6.102551010791094"><ele>1546.0</ele><time>2026-05-04T10:08:57Z</time></trkpt><trkpt lat="31.990589171262883" lon="-6.102462782581243"><ele>1546.0</ele><time>2026-05-04T10:08:58Z</time></trkpt><trkpt lat="31.990673069436358" lon="-6.102384113717972"><ele>1544.1666666666667</ele><time>2026-05-04T10:08:59Z</time></trkpt><trkpt lat="31.990736139476024" lon="-6.102299992499975"><ele>1542.3333333333335</ele><time>2026-05-04T10:09:00Z</time></trkpt><trkpt lat="31.990817163505255" lon="-6.102266129136365"><ele>1540.5</ele><time>2026-05-04T10:09:01Z</time></trkpt><trkpt lat="31.990868057618375" lon="-6.102194681720638"><ele>1538.6666666666667</ele><time>2026-05-04T10:09:02Z</time></trkpt><trkpt lat="31.990934996172992" lon="-6.102144422164184"><ele>1536.8333333333335</ele><time>2026-05-04T10:09:03Z</time></trkpt><trkpt lat="31.990936999632883" lon="-6.102045457151181"><ele>1535.0</ele><time>2026-05-04T10:09:04Z</time></trkpt><trkpt lat="31.990913120391035" lon="-6.101963126577703"><ele>1535.0</ele><time>2026-05-04T10:09:05Z</time></trkpt><trkpt lat="31.990905479547692" lon="-6.101855188319194"><ele>1535.0</ele><time>2026-05-04T10:09:06Z</time></trkpt><trkpt lat="31.990900047220535" lon="-6.101720054404552"><ele>1535.0</ele><time>2026-05-04T10:09:07Z</time></trkpt><trkpt lat="31.990872406974205" lon="-6.101586790148846"><ele>1535.0</ele><time>2026-05-04T10:09:08Z</time></trkpt><trkpt lat="31.990849213858073" lon="-6.1014446546246655"><ele>1535.0</ele><time>2026-05-04T10:09:09Z</time></trkpt><trkpt lat="31.99082569560847" lon="-6.101305298259203"><ele>1543.0</ele><time>2026-05-04T10:09:10Z</time></trkpt><trkpt lat="31.990802380377513" lon="-6.101179903363026"><ele>1551.0</ele><time>2026-05-04T10:09:11Z</time></trkpt><trkpt lat="31.99075265213988" lon="-6.101060521829412"><ele>1559.0</ele><time>2026-05-04T10:09:12Z</time></trkpt><trkpt lat="31.990697718685063" lon="-6.100945295129779"><ele>1567.0</ele><time>2026-05-04T10:09:13Z</time></trkpt><trkpt lat="31.99065518801117" lon="-6.1008154642723245"><ele>1565.25</ele><time>2026-05-04T10:09:14Z</time></trkpt><trkpt lat="31.990570627359034" lon="-6.100702932194764"><ele>1563.5</ele><time>2026-05-04T10:09:15Z</time></trkpt><trkpt lat="31.9904937811787" lon="-6.100585769920886"><ele>1561.75</ele><time>2026-05-04T10:09:16Z</time></trkpt><trkpt lat="31.990440411992246" lon="-6.100473891487847"><ele>1560.0</ele><time>2026-05-04T10:09:17Z</time></trkpt><trkpt lat="31.990405441970147" lon="-6.10034122397054"><ele>1560.0</ele><time>2026-05-04T10:09:18Z</time></trkpt><trkpt lat="31.99038664427048" lon="-6.100191473976984"><ele>1560.0</ele><time>2026-05-04T10:09:19Z</time></trkpt><trkpt lat="31.990376708556816" lon="-6.100023830194089"><ele>1560.0</ele><time>2026-05-04T10:09:20Z</time></trkpt><trkpt lat="31.990341869909223" lon="-6.099846095213878"><ele>1560.0</ele><time>2026-05-04T10:09:21Z</time></trkpt><trkpt lat="31.990329609274102" lon="-6.099664055235158"><ele>1561.0</ele><time>2026-05-04T10:09:22Z</time></trkpt><trkpt lat="31.99029320380579" lon="-6.099508018844868"><ele>1562.0</ele><time>2026-05-04T10:09:23Z</time></trkpt><trkpt lat="31.99025315332474" lon="-6.099366516865969"><ele>1563.0</ele><time>2026-05-04T10:09:24Z</time></trkpt><trkpt lat="31.990217524007775" lon="-6.099233929738296"><ele>1564.0</ele><time>2026-05-04T10:09:25Z</time></trkpt><trkpt lat="31.990183774918002" lon="-6.099099390189662"><ele>1566.25</ele><time>2026-05-04T10:09:26Z</time></trkpt><trkpt lat="31.990145063276305" lon="-6.098969216203061"><ele>1568.5</ele><time>2026-05-04T10:09:27Z</time></trkpt><trkpt lat="31.990099460727745" lon="-6.098846896256973"><ele>1570.75</ele><time>2026-05-04T10:09:28Z</time></trkpt><trkpt lat="31.99003163521845" lon="-6.0987351582923095"><ele>1573.0</ele><time>2026-05-04T10:09:29Z</time></trkpt><trkpt lat="31.9899413668324" lon="-6.09863454296975"><ele>1576.3333333333335</ele><time>2026-05-04T10:09:30Z</time></trkpt><trkpt lat="31.989856197208802" lon="-6.098559507612813"><ele>1579.6666666666667</ele><time>2026-05-04T10:09:31Z</time></trkpt><trkpt lat="31.989788681161148" lon="-6.098501766834796"><ele>1583.0</ele><time>2026-05-04T10:09:32Z</time></trkpt><trkpt lat="31.989741937499428" lon="-6.098441885920745"><ele>1586.3333333333335</ele><time>2026-05-04T10:09:33Z</time></trkpt><trkpt lat="31.989718143490585" lon="-6.0983032661378695"><ele>1589.6666666666667</ele><time>2026-05-04T10:09:35Z</time></trkpt><trkpt lat="31.98974813635546" lon="-6.098234177905417"><ele>1593.0</ele><time>2026-05-04T10:09:36Z</time></trkpt><trkpt lat="31.989821030811903" lon="-6.098174352077832"><ele>1593.25</ele><time>2026-05-04T10:09:37Z</time></trkpt><trkpt lat="31.98993159514056" lon="-6.09812624749331"><ele>1593.5</ele><time>2026-05-04T10:09:38Z</time></trkpt><trkpt lat="31.990065366268354" lon="-6.098083959317291"><ele>1593.75</ele><time>2026-05-04T10:09:39Z</time></trkpt><trkpt lat="31.990198053407703" lon="-6.0980240974594375"><ele>1594.0</ele><time>2026-05-04T10:09:40Z</time></trkpt><trkpt lat="31.99032436613234" lon="-6.097961082703275"><ele>1594.0</ele><time>2026-05-04T10:09:41Z</time></trkpt><trkpt lat="31.99043367732773" lon="-6.09787367562369"><ele>1594.0</ele><time>2026-05-04T10:09:42Z</time></trkpt><trkpt lat="31.990540442831744" lon="-6.097820639668501"><ele>1594.0</ele><time>2026-05-04T10:09:43Z</time></trkpt><trkpt lat="31.99062618484968" lon="-6.097740050563281"><ele>1594.0</ele><time>2026-05-04T10:09:44Z</time></trkpt><trkpt lat="31.990695886919333" lon="-6.097660921518065"><ele>1594.0</ele><time>2026-05-04T10:09:45Z</time></trkpt><trkpt lat="31.99072590532387" lon="-6.097557832053407"><ele>1594.0</ele><time>2026-05-04T10:09:46Z</time></trkpt><trkpt lat="31.990760955213997" lon="-6.09745469210243"><ele>1594.0</ele><time>2026-05-04T10:09:47Z</time></trkpt><trkpt lat="31.990798854081426" lon="-6.0973260476317686"><ele>1594.0</ele><time>2026-05-04T10:09:48Z</time></trkpt><trkpt lat="31.990814691825868" lon="-6.097190270154528"><ele>1594.0</ele><time>2026-05-04T10:09:49Z</time></trkpt><trkpt lat="31.990824631272726" lon="-6.097047111219606"><ele>1597.4</ele><time>2026-05-04T10:09:50Z</time></trkpt><trkpt lat="31.990819022775877" lon="-6.096908464870081"><ele>1600.8000000000002</ele><time>2026-05-04T10:09:51Z</time></trkpt><trkpt lat="31.9908205915123" lon="-6.096790171296073"><ele>1604.1999999999998</ele><time>2026-05-04T10:09:52Z</time></trkpt><trkpt lat="31.990820814327638" lon="-6.096688786813278"><ele>1607.6</ele><time>2026-05-04T10:09:53Z</time></trkpt><trkpt lat="31.990817475072124" lon="-6.096601107744363"><ele>1611.0</ele><time>2026-05-04T10:09:54Z</time></trkpt><trkpt lat="31.99087576873816" lon="-6.096529511026717"><ele>1616.4</ele><time>2026-05-04T10:09:55Z</time></trkpt><trkpt lat="31.99092785333152" lon="-6.096480940175245"><ele>1621.8</ele><time>2026-05-04T10:09:56Z</time></trkpt><trkpt lat="31.991001940748422" lon="-6.096453308535146"><ele>1627.2</ele><time>2026-05-04T10:09:57Z</time></trkpt><trkpt lat="31.991103220381422" lon="-6.096443932261373"><ele>1632.6000000000001</ele><time>2026-05-04T10:09:58Z</time></trkpt><trkpt lat="31.991219234704033" lon="-6.096429005130031"><ele>1638.0</ele><time>2026-05-04T10:09:59Z</time></trkpt><trkpt lat="31.99134015759294" lon="-6.096400569494093"><ele>1638.0</ele><time>2026-05-04T10:10:00Z</time></trkpt><trkpt lat="31.99147059559203" lon="-6.096343607713866"><ele>1638.0</ele><time>2026-05-04T10:10:01Z</time></trkpt><trkpt lat="31.991605976429923" lon="-6.096279287835786"><ele>1638.0</ele><time>2026-05-04T10:10:02Z</time></trkpt><trkpt lat="31.991723945051838" lon="-6.096219772455739"><ele>1638.0</ele><time>2026-05-04T10:10:03Z</time></trkpt><trkpt lat="31.991837763811645" lon="-6.096168233461948"><ele>1638.0</ele><time>2026-05-04T10:10:04Z</time></trkpt><trkpt lat="31.99194280761999" lon="-6.09614514675677"><ele>1638.0</ele><time>2026-05-04T10:10:05Z</time></trkpt><trkpt lat="31.992046211577232" lon="-6.096142031435908"><ele>1638.0</ele><time>2026-05-04T10:10:06Z</time></trkpt><trkpt lat="31.99215730226692" lon="-6.096143227525342"><ele>1638.0</ele><time>2026-05-04T10:10:07Z</time></trkpt><trkpt lat="31.99227232708841" lon="-6.0961463376098965"><ele>1638.0</ele><time>2026-05-04T10:10:08Z</time></trkpt><trkpt lat="31.992382094382826" lon="-6.0961479408847055"><ele>1638.0</ele><time>2026-05-04T10:10:09Z</time></trkpt><trkpt lat="31.992493409825702" lon="-6.096149433941303"><ele>1638.0</ele><time>2026-05-04T10:10:10Z</time></trkpt><trkpt lat="31.99259462754013" lon="-6.096116193357667"><ele>1638.0</ele><time>2026-05-04T10:10:11Z</time></trkpt><trkpt lat="31.992717911923304" lon="-6.096080213739483"><ele>1638.0</ele><time>2026-05-04T10:10:12Z</time></trkpt><trkpt lat="31.992829486872488" lon="-6.096047645843196"><ele>1639.6666666666667</ele><time>2026-05-04T10:10:13Z</time></trkpt><trkpt lat="31.992909491590403" lon="-6.096007763266084"><ele>1641.3333333333335</ele><time>2026-05-04T10:10:14Z</time></trkpt><trkpt lat="31.992989642577086" lon="-6.095964576212912"><ele>1643.0</ele><time>2026-05-04T10:10:15Z</time></trkpt><trkpt lat="31.993058649108157" lon="-6.0959126225473055"><ele>1644.6666666666667</ele><time>2026-05-04T10:10:16Z</time></trkpt><trkpt lat="31.993117766058557" lon="-6.095825220088517"><ele>1646.3333333333335</ele><time>2026-05-04T10:10:17Z</time></trkpt><trkpt lat="31.99317326434188" lon="-6.095730542812128"><ele>1648.0</ele><time>2026-05-04T10:10:18Z</time></trkpt><trkpt lat="31.993226910540706" lon="-6.095620248494835"><ele>1648.0000000000002</ele><time>2026-05-04T10:10:19Z</time></trkpt><trkpt lat="31.99326111969276" lon="-6.09550435126427"><ele>1648.0</ele><time>2026-05-04T10:10:20Z</time></trkpt><trkpt lat="31.99329157882447" lon="-6.095405824655754"><ele>1648.0</ele><time>2026-05-04T10:10:21Z</time></trkpt><trkpt lat="31.993327016079608" lon="-6.095323651579202"><ele>1648.0</ele><time>2026-05-04T10:10:22Z</time></trkpt><trkpt lat="31.993375658633386" lon="-6.095249815775388"><ele>1648.0000000000002</ele><time>2026-05-04T10:10:23Z</time></trkpt><trkpt lat="31.993440704258337" lon="-6.0951783783674"><ele>1648.0</ele><time>2026-05-04T10:10:24Z</time></trkpt><trkpt lat="31.993524129831755" lon="-6.095103375020462"><ele>1649.2</ele><time>2026-05-04T10:10:25Z</time></trkpt><trkpt lat="31.99359498018388" lon="-6.095026637523246"><ele>1650.4</ele><time>2026-05-04T10:10:26Z</time></trkpt><trkpt lat="31.99365858748589" lon="-6.094953836637377"><ele>1651.6000000000001</ele><time>2026-05-04T10:10:27Z</time></trkpt><trkpt lat="31.993713085782417" lon="-6.0948690352913575"><ele>1652.8000000000002</ele><time>2026-05-04T10:10:28Z</time></trkpt><trkpt lat="31.993754826928896" lon="-6.094772206897911"><ele>1654.0</ele><time>2026-05-04T10:10:29Z</time></trkpt><trkpt lat="31.993775880441856" lon="-6.094675138453463"><ele>1654.0</ele><time>2026-05-04T10:10:30Z</time></trkpt><trkpt lat="31.993795249339374" lon="-6.094555034822264"><ele>1654.0</ele><time>2026-05-04T10:10:31Z</time></trkpt><trkpt lat="31.99379860050544" lon="-6.094453362850083"><ele>1654.0</ele><time>2026-05-04T10:10:32Z</time></trkpt><trkpt lat="31.99380106418821" lon="-6.094360982533027"><ele>1654.0</ele><time>2026-05-04T10:10:33Z</time></trkpt><trkpt lat="31.99385397845011" lon="-6.094248111742306"><ele>1654.0</ele><time>2026-05-04T10:10:35Z</time></trkpt><trkpt lat="31.993972231188458" lon="-6.094212629168287"><ele>1654.0</ele><time>2026-05-04T10:10:37Z</time></trkpt><trkpt lat="31.994059637058346" lon="-6.094248403486121"><ele>1654.0</ele><time>2026-05-04T10:10:38Z</time></trkpt><trkpt lat="31.994124120229802" lon="-6.094317179827226"><ele>1654.0</ele><time>2026-05-04T10:10:39Z</time></trkpt><trkpt lat="31.994152610195677" lon="-6.094438119341817"><ele>1654.0</ele><time>2026-05-04T10:10:40Z</time></trkpt><trkpt lat="31.99420345509955" lon="-6.094533206831789"><ele>1654.0</ele><time>2026-05-04T10:10:41Z</time></trkpt><trkpt lat="31.994246782551233" lon="-6.094641736365837"><ele>1654.2</ele><time>2026-05-04T10:10:42Z</time></trkpt><trkpt lat="31.994290403105705" lon="-6.094747045488102"><ele>1654.4</ele><time>2026-05-04T10:10:43Z</time></trkpt><trkpt lat="31.994341758005902" lon="-6.094844440985784"><ele>1654.6</ele><time>2026-05-04T10:10:44Z</time></trkpt><trkpt lat="31.994391174976865" lon="-6.094948114545042"><ele>1654.8</ele><time>2026-05-04T10:10:45Z</time></trkpt><trkpt lat="31.994451228356517" lon="-6.095048065322977"><ele>1655.0</ele><time>2026-05-04T10:10:46Z</time></trkpt><trkpt lat="31.994507831123254" lon="-6.095142888497603"><ele>1654.9999999999998</ele><time>2026-05-04T10:10:47Z</time></trkpt><trkpt lat="31.994559552865514" lon="-6.095226006617949"><ele>1655.0</ele><time>2026-05-04T10:10:48Z</time></trkpt><trkpt lat="31.99459316202827" lon="-6.095301509627595"><ele>1655.0</ele><time>2026-05-04T10:10:49Z</time></trkpt><trkpt lat="31.99467269083819" lon="-6.095389322067796"><ele>1655.0</ele><time>2026-05-04T10:10:51Z</time></trkpt><trkpt lat="31.994750973638293" lon="-6.095368487122957"><ele>1654.9999999999998</ele><time>2026-05-04T10:10:53Z</time></trkpt><trkpt lat="31.994762346616042" lon="-6.0952741980716105"><ele>1655.0</ele><time>2026-05-04T10:10:55Z</time></trkpt><trkpt lat="31.99466370523109" lon="-6.095222927465476"><ele>1655.0</ele><time>2026-05-04T10:10:57Z</time></trkpt><trkpt lat="31.994615272203834" lon="-6.0951444235793515"><ele>1655.0</ele><time>2026-05-04T10:10:58Z</time></trkpt><trkpt lat="31.994568429548856" lon="-6.095068497570121"><ele>1655.0</ele><time>2026-05-04T10:10:59Z</time></trkpt><trkpt lat="31.994557046059764" lon="-6.094917223204837"><ele>1655.0</ele><time>2026-05-04T10:11:00Z</time></trkpt><trkpt lat="31.994539365711816" lon="-6.094773787824523"><ele>1655.0</ele><time>2026-05-04T10:11:01Z</time></trkpt><trkpt lat="31.994514876483553" lon="-6.0946236511082645"><ele>1662.25</ele><time>2026-05-04T10:11:02Z</time></trkpt><trkpt lat="31.994486347050305" lon="-6.094457737308223"><ele>1669.5</ele><time>2026-05-04T10:11:03Z</time></trkpt><trkpt lat="31.994452312453063" lon="-6.094289922527374"><ele>1676.75</ele><time>2026-05-04T10:11:04Z</time></trkpt><trkpt lat="31.994418354577487" lon="-6.0941186404861805"><ele>1684.0</ele><time>2026-05-04T10:11:05Z</time></trkpt><trkpt lat="31.99438288755235" lon="-6.093948977791789"><ele>1687.5</ele><time>2026-05-04T10:11:06Z</time></trkpt><trkpt lat="31.994352546027528" lon="-6.093775239671404"><ele>1691.0</ele><time>2026-05-04T10:11:07Z</time></trkpt><trkpt lat="31.994321113967054" lon="-6.0936052866547366"><ele>1694.5</ele><time>2026-05-04T10:11:08Z</time></trkpt><trkpt lat="31.99429032441626" lon="-6.0934622570320425"><ele>1698.0</ele><time>2026-05-04T10:11:09Z</time></trkpt><trkpt lat="31.994264128262028" lon="-6.093337717029634"><ele>1700.8000000000002</ele><time>2026-05-04T10:11:10Z</time></trkpt><trkpt lat="31.994255816389305" lon="-6.093214114246828"><ele>1703.6</ele><time>2026-05-04T10:11:11Z</time></trkpt><trkpt lat="31.994261282909022" lon="-6.0930809628427935"><ele>1706.3999999999999</ele><time>2026-05-04T10:11:12Z</time></trkpt><trkpt lat="31.99428059152857" lon="-6.092964366208677"><ele>1709.1999999999998</ele><time>2026-05-04T10:11:13Z</time></trkpt><trkpt lat="31.99430087245942" lon="-6.092883249044153"><ele>1712.0</ele><time>2026-05-04T10:11:14Z</time></trkpt><trkpt lat="31.994263715662353" lon="-6.092746591115671"><ele>1712.0</ele><time>2026-05-04T10:11:16Z</time></trkpt><trkpt lat="31.994200902105945" lon="-6.092710014277037"><ele>1711.9999999999998</ele><time>2026-05-04T10:11:17Z</time></trkpt><trkpt lat="31.994115182957998" lon="-6.092696253071545"><ele>1711.9999999999998</ele><time>2026-05-04T10:11:18Z</time></trkpt><trkpt lat="31.99402096660487" lon="-6.092714549382205"><ele>1712.0</ele><time>2026-05-04T10:11:19Z</time></trkpt><trkpt lat="31.993921142876246" lon="-6.092806729310682"><ele>1712.0</ele><time>2026-05-04T10:11:20Z</time></trkpt><trkpt lat="31.993817538911724" lon="-6.092886207508987"><ele>1702.3333333333333</ele><time>2026-05-04T10:11:21Z</time></trkpt><trkpt lat="31.99371680028759" lon="-6.09300108134432"><ele>1692.6666666666665</ele><time>2026-05-04T10:11:22Z</time></trkpt><trkpt lat="31.993609449499154" lon="-6.0931542149314355"><ele>1683.0</ele><time>2026-05-04T10:11:23Z</time></trkpt><trkpt lat="31.993511571737773" lon="-6.093309884487288"><ele>1685.3333333333335</ele><time>2026-05-04T10:11:24Z</time></trkpt><trkpt lat="31.993422634899602" lon="-6.093456046873234"><ele>1687.6666666666667</ele><time>2026-05-04T10:11:25Z</time></trkpt><trkpt lat="31.993333174345246" lon="-6.0936036301791185"><ele>1690.0</ele><time>2026-05-04T10:11:26Z</time></trkpt><trkpt lat="31.99324220104507" lon="-6.093754281586873"><ele>1690.0</ele><time>2026-05-04T10:11:27Z</time></trkpt><trkpt lat="31.993156957394444" lon="-6.093895177562866"><ele>1690.0</ele><time>2026-05-04T10:11:28Z</time></trkpt><trkpt lat="31.993076939702544" lon="-6.09402679717207"><ele>1690.0</ele><time>2026-05-04T10:11:29Z</time></trkpt><trkpt lat="31.992988916159092" lon="-6.094146054753857"><ele>1690.0</ele><time>2026-05-04T10:11:30Z</time></trkpt><trkpt lat="31.99291917118287" lon="-6.094260462252392"><ele>1685.8</ele><time>2026-05-04T10:11:31Z</time></trkpt><trkpt lat="31.992856169761694" lon="-6.094364637817363"><ele>1681.6</ele><time>2026-05-04T10:11:32Z</time></trkpt><trkpt lat="31.992797903752468" lon="-6.094452405485425"><ele>1677.4</ele><time>2026-05-04T10:11:33Z</time></trkpt><trkpt lat="31.992732524153805" lon="-6.094515435811899"><ele>1673.2</ele><time>2026-05-04T10:11:34Z</time></trkpt><trkpt lat="31.992653797343902" lon="-6.094552808444458"><ele>1669.0</ele><time>2026-05-04T10:11:35Z</time></trkpt><trkpt lat="31.992581868128493" lon="-6.094603016432205"><ele>1677.5</ele><time>2026-05-04T10:11:36Z</time></trkpt><trkpt lat="31.99247560894576" lon="-6.094608617547675"><ele>1686.0</ele><time>2026-05-04T10:11:37Z</time></trkpt><trkpt lat="31.9923628607783" lon="-6.094562620060858"><ele>1694.5</ele><time>2026-05-04T10:11:38Z</time></trkpt><trkpt lat="31.992248527768428" lon="-6.094519549498689"><ele>1703.0</ele><time>2026-05-04T10:11:39Z</time></trkpt><trkpt lat="31.992115766044794" lon="-6.094504745347469"><ele>1703.0</ele><time>2026-05-04T10:11:40Z</time></trkpt><trkpt lat="31.99198160142128" lon="-6.094487514008629"><ele>1703.0</ele><time>2026-05-04T10:11:41Z</time></trkpt><trkpt lat="31.991855601560868" lon="-6.094473001983477"><ele>1703.0</ele><time>2026-05-04T10:11:42Z</time></trkpt><trkpt lat="31.99173724029711" lon="-6.094491920355935"><ele>1703.0</ele><time>2026-05-04T10:11:43Z</time></trkpt><trkpt lat="31.99161916472341" lon="-6.094509813160784"><ele>1705.75</ele><time>2026-05-04T10:11:44Z</time></trkpt><trkpt lat="31.991483486185327" lon="-6.094535217272646"><ele>1708.5</ele><time>2026-05-04T10:11:45Z</time></trkpt><trkpt lat="31.991350938287624" lon="-6.094569766951265"><ele>1711.25</ele><time>2026-05-04T10:11:46Z</time></trkpt><trkpt lat="31.991245379313032" lon="-6.094596674133283"><ele>1714.0</ele><time>2026-05-04T10:11:47Z</time></trkpt><trkpt lat="31.99116464095921" lon="-6.094616369229285"><ele>1714.0000000000002</ele><time>2026-05-04T10:11:48Z</time></trkpt><trkpt lat="31.991085693052568" lon="-6.094615213583232"><ele>1714.0</ele><time>2026-05-04T10:11:49Z</time></trkpt><trkpt lat="31.99100902693636" lon="-6.0946292516510585"><ele>1714.0</ele><time>2026-05-04T10:11:50Z</time></trkpt><trkpt lat="31.990928487185432" lon="-6.094623583007094"><ele>1714.0</ele><time>2026-05-04T10:11:51Z</time></trkpt><trkpt lat="31.990856995763806" lon="-6.094590474325013"><ele>1714.0000000000002</ele><time>2026-05-04T10:11:52Z</time></trkpt><trkpt lat="31.99079955374556" lon="-6.0945203784185935"><ele>1714.0</ele><time>2026-05-04T10:11:53Z</time></trkpt><trkpt lat="31.990752039439137" lon="-6.094421264921762"><ele>1716.25</ele><time>2026-05-04T10:11:54Z</time></trkpt><trkpt lat="31.990700114259063" lon="-6.094304403930551"><ele>1718.5</ele><time>2026-05-04T10:11:55Z</time></trkpt><trkpt lat="31.99062270732977" lon="-6.094200705614428"><ele>1720.75</ele><time>2026-05-04T10:11:56Z</time></trkpt><trkpt lat="31.990525454566196" lon="-6.094124886850318"><ele>1723.0</ele><time>2026-05-04T10:11:57Z</time></trkpt><trkpt lat="31.99042009122962" lon="-6.094038804532954"><ele>1729.75</ele><time>2026-05-04T10:11:58Z</time></trkpt><trkpt lat="31.990300589666827" lon="-6.093955845331821"><ele>1736.5</ele><time>2026-05-04T10:11:59Z</time></trkpt><trkpt lat="31.990178510980197" lon="-6.0938872063519085"><ele>1743.25</ele><time>2026-05-04T10:12:00Z</time></trkpt><trkpt lat="31.990059166442535" lon="-6.093837005034767"><ele>1750.0</ele><time>2026-05-04T10:12:01Z</time></trkpt><trkpt lat="31.989955183007478" lon="-6.093801114504924"><ele>1750.0</ele><time>2026-05-04T10:12:02Z</time></trkpt><trkpt lat="31.98985729971425" lon="-6.093765198352983"><ele>1750.0</ele><time>2026-05-04T10:12:03Z</time></trkpt><trkpt lat="31.989764792745483" lon="-6.093747819592885"><ele>1750.0</ele><time>2026-05-04T10:12:04Z</time></trkpt><trkpt lat="31.989679544272537" lon="-6.093787339828233"><ele>1750.0</ele><time>2026-05-04T10:12:05Z</time></trkpt><trkpt lat="31.98960833207973" lon="-6.093858078203017"><ele>1750.0</ele><time>2026-05-04T10:12:06Z</time></trkpt><trkpt lat="31.9895419816697" lon="-6.093942512051188"><ele>1750.0</ele><time>2026-05-04T10:12:07Z</time></trkpt><trkpt lat="31.989512803347136" lon="-6.094048054383957"><ele>1750.0</ele><time>2026-05-04T10:12:08Z</time></trkpt><trkpt lat="31.989499271359062" lon="-6.094154542107031"><ele>1750.0</ele><time>2026-05-04T10:12:09Z</time></trkpt><trkpt lat="31.989480367984978" lon="-6.094283412473212"><ele>1750.0</ele><time>2026-05-04T10:12:10Z</time></trkpt><trkpt lat="31.989458443997375" lon="-6.094419758968627"><ele>1750.0</ele><time>2026-05-04T10:12:11Z</time></trkpt><trkpt lat="31.989439157022023" lon="-6.094544364897335"><ele>1741.25</ele><time>2026-05-04T10:12:12Z</time></trkpt><trkpt lat="31.989393631244788" lon="-6.094673065728879"><ele>1732.5</ele><time>2026-05-04T10:12:13Z</time></trkpt><trkpt lat="31.989338290681722" lon="-6.0948001067490125"><ele>1723.75</ele><time>2026-05-04T10:12:14Z</time></trkpt><trkpt lat="31.989272000219977" lon="-6.094918737004947"><ele>1715.0</ele><time>2026-05-04T10:12:15Z</time></trkpt><trkpt lat="31.989216270081982" lon="-6.095042108687349"><ele>1718.8</ele><time>2026-05-04T10:12:16Z</time></trkpt><trkpt lat="31.989192201445896" lon="-6.0951817150157295"><ele>1722.6</ele><time>2026-05-04T10:12:17Z</time></trkpt><trkpt lat="31.989146835919" lon="-6.095295463230476"><ele>1726.4</ele><time>2026-05-04T10:12:18Z</time></trkpt><trkpt lat="31.989105851192814" lon="-6.09541526043905"><ele>1730.2</ele><time>2026-05-04T10:12:19Z</time></trkpt><trkpt lat="31.989066751347053" lon="-6.095531111086376"><ele>1734.0</ele><time>2026-05-04T10:12:20Z</time></trkpt><trkpt lat="31.989098846463452" lon="-6.095659033575991"><ele>1734.0</ele><time>2026-05-04T10:12:21Z</time></trkpt><trkpt lat="31.989069067066914" lon="-6.0957410202715305"><ele>1734.0</ele><time>2026-05-04T10:12:22Z</time></trkpt><trkpt lat="31.988963666188358" lon="-6.095861699352523"><ele>1734.0</ele><time>2026-05-04T10:12:24Z</time></trkpt><trkpt lat="31.988874197145734" lon="-6.095878642470606"><ele>1734.0</ele><time>2026-05-04T10:12:25Z</time></trkpt><trkpt lat="31.98879056028645" lon="-6.0958788237350525"><ele>1734.0</ele><time>2026-05-04T10:12:26Z</time></trkpt><trkpt lat="31.9887062694482" lon="-6.0958909370094565"><ele>1734.6</ele><time>2026-05-04T10:12:27Z</time></trkpt><trkpt lat="31.988612815867288" lon="-6.095893053362793"><ele>1735.2</ele><time>2026-05-04T10:12:28Z</time></trkpt><trkpt lat="31.98851471197264" lon="-6.095915459240966"><ele>1735.7999999999997</ele><time>2026-05-04T10:12:29Z</time></trkpt><trkpt lat="31.9884131332812" lon="-6.095851258055347"><ele>1736.3999999999999</ele><time>2026-05-04T10:12:30Z</time></trkpt><trkpt lat="31.988315565267815" lon="-6.095803431995235"><ele>1737.0</ele><time>2026-05-04T10:12:31Z</time></trkpt><trkpt lat="31.98821586608369" lon="-6.095744108257384"><ele>1746.5</ele><time>2026-05-04T10:12:32Z</time></trkpt><trkpt lat="31.98810015019783" lon="-6.0957067027592196"><ele>1756.0</ele><time>2026-05-04T10:12:33Z</time></trkpt><trkpt lat="31.987981509429805" lon="-6.095655161098257"><ele>1765.5</ele><time>2026-05-04T10:12:34Z</time></trkpt><trkpt lat="31.987876351458503" lon="-6.095609438584888"><ele>1775.0</ele><time>2026-05-04T10:12:35Z</time></trkpt><trkpt lat="31.987783175117066" lon="-6.0955688500062655"><ele>1774.9999999999998</ele><time>2026-05-04T10:12:36Z</time></trkpt><trkpt lat="31.98768923891539" lon="-6.09551666385821"><ele>1775.0</ele><time>2026-05-04T10:12:37Z</time></trkpt><trkpt lat="31.987612056636237" lon="-6.0954765573047105"><ele>1775.0</ele><time>2026-05-04T10:12:38Z</time></trkpt><trkpt lat="31.98754392788921" lon="-6.095466330599596"><ele>1775.0</ele><time>2026-05-04T10:12:39Z</time></trkpt><trkpt lat="31.987469486974135" lon="-6.095480876172977"><ele>1774.9999999999998</ele><time>2026-05-04T10:12:40Z</time></trkpt><trkpt lat="31.987408626442356" lon="-6.095550040687146"><ele>1775.0</ele><time>2026-05-04T10:12:41Z</time></trkpt><trkpt lat="31.98734304921994" lon="-6.095645913604338"><ele>1776.0</ele><time>2026-05-04T10:12:42Z</time></trkpt><trkpt lat="31.987282880635064" lon="-6.095719846318303"><ele>1777.0</ele><time>2026-05-04T10:12:43Z</time></trkpt><trkpt lat="31.98720362884997" lon="-6.09576574285305"><ele>1778.0</ele><time>2026-05-04T10:12:44Z</time></trkpt><trkpt lat="31.987108018722274" lon="-6.095782031708162"><ele>1779.0</ele><time>2026-05-04T10:12:45Z</time></trkpt><trkpt lat="31.986995676129503" lon="-6.0957863397961525"><ele>1780.0</ele><time>2026-05-04T10:12:46Z</time></trkpt><trkpt lat="31.98687314600573" lon="-6.095792001741045"><ele>1774.75</ele><time>2026-05-04T10:12:47Z</time></trkpt><trkpt lat="31.986742739900997" lon="-6.095823983016046"><ele>1769.5</ele><time>2026-05-04T10:12:48Z</time></trkpt><trkpt lat="31.98661464732367" lon="-6.0958451829627895"><ele>1764.25</ele><time>2026-05-04T10:12:49Z</time></trkpt><trkpt lat="31.98648980933755" lon="-6.095847808172085"><ele>1759.0</ele><time>2026-05-04T10:12:50Z</time></trkpt><trkpt lat="31.98637427187187" lon="-6.095896809182574"><ele>1759.0</ele><time>2026-05-04T10:12:51Z</time></trkpt><trkpt lat="31.986270305375115" lon="-6.095959991157831"><ele>1759.0</ele><time>2026-05-04T10:12:52Z</time></trkpt><trkpt lat="31.9861830258558" lon="-6.096025929815467"><ele>1759.0</ele><time>2026-05-04T10:12:53Z</time></trkpt><trkpt lat="31.986117015913507" lon="-6.096104673772162"><ele>1759.0</ele><time>2026-05-04T10:12:54Z</time></trkpt><trkpt lat="31.986071137357026" lon="-6.096184683624339"><ele>1759.0</ele><time>2026-05-04T10:12:55Z</time></trkpt><trkpt lat="31.986042794986403" lon="-6.0962775454995"><ele>1759.0000000000002</ele><time>2026-05-04T10:12:56Z</time></trkpt><trkpt lat="31.986044964499232" lon="-6.09636583972443"><ele>1759.0</ele><time>2026-05-04T10:12:57Z</time></trkpt><trkpt lat="31.986060465662018" lon="-6.096443401611934"><ele>1759.0</ele><time>2026-05-04T10:12:58Z</time></trkpt><trkpt lat="31.986140043255993" lon="-6.0964985358736685"><ele>1759.0</ele><time>2026-05-04T10:12:59Z</time></trkpt><trkpt lat="31.9861993939396" lon="-6.0965608907749544"><ele>1759.0000000000002</ele><time>2026-05-04T10:13:00Z</time></trkpt><trkpt lat="31.986225415539383" lon="-6.096649301265444"><ele>1759.0</ele><time>2026-05-04T10:13:01Z</time></trkpt><trkpt lat="31.986244339288586" lon="-6.096767066292918"><ele>1755.5</ele><time>2026-05-04T10:13:02Z</time></trkpt><trkpt lat="31.986257244664873" lon="-6.09690489966383"><ele>1752.0</ele><time>2026-05-04T10:13:03Z</time></trkpt><trkpt lat="31.98629545713344" lon="-6.097032946637038"><ele>1748.5</ele><time>2026-05-04T10:13:04Z</time></trkpt><trkpt lat="31.98635353776904" lon="-6.097155417288321"><ele>1745.0</ele><time>2026-05-04T10:13:05Z</time></trkpt><trkpt lat="31.98640717296722" lon="-6.097268851805107"><ele>1745.0</ele><time>2026-05-04T10:13:06Z</time></trkpt><trkpt lat="31.986436392816728" lon="-6.097378759720571"><ele>1745.0</ele><time>2026-05-04T10:13:07Z</time></trkpt><trkpt lat="31.986454127357067" lon="-6.097513661851639"><ele>1745.0</ele><time>2026-05-04T10:13:08Z</time></trkpt><trkpt lat="31.98646588023057" lon="-6.09766520292948"><ele>1745.0</ele><time>2026-05-04T10:13:09Z</time></trkpt><trkpt lat="31.98647034186921" lon="-6.097811747406167"><ele>1748.5</ele><time>2026-05-04T10:13:10Z</time></trkpt><trkpt lat="31.98645820064647" lon="-6.097945381162177"><ele>1752.0</ele><time>2026-05-04T10:13:11Z</time></trkpt><trkpt lat="31.9864363214462" lon="-6.098078807865476"><ele>1755.5</ele><time>2026-05-04T10:13:12Z</time></trkpt><trkpt lat="31.98640692434564" lon="-6.0982098768473465"><ele>1759.0</ele><time>2026-05-04T10:13:13Z</time></trkpt><trkpt lat="31.98636817895135" lon="-6.098337634834522"><ele>1760.0</ele><time>2026-05-04T10:13:14Z</time></trkpt><trkpt lat="31.986327761205608" lon="-6.098467827384831"><ele>1761.0</ele><time>2026-05-04T10:13:15Z</time></trkpt><trkpt lat="31.986287697632974" lon="-6.098612500753437"><ele>1762.0</ele><time>2026-05-04T10:13:16Z</time></trkpt><trkpt lat="31.98625018844364" lon="-6.09874722482629"><ele>1763.0</ele><time>2026-05-04T10:13:17Z</time></trkpt><trkpt lat="31.986202734423895" lon="-6.098870273869433"><ele>1763.0</ele><time>2026-05-04T10:13:18Z</time></trkpt><trkpt lat="31.98616737935962" lon="-6.0989912331617075"><ele>1763.0000000000002</ele><time>2026-05-04T10:13:19Z</time></trkpt><trkpt lat="31.986131250628596" lon="-6.099112918693911"><ele>1763.0000000000002</ele><time>2026-05-04T10:13:20Z</time></trkpt><trkpt lat="31.986084465651174" lon="-6.099230401093682"><ele>1763.0</ele><time>2026-05-04T10:13:21Z</time></trkpt><trkpt lat="31.98603596019962" lon="-6.099345541502098"><ele>1763.0</ele><time>2026-05-04T10:13:22Z</time></trkpt><trkpt lat="31.98599023558606" lon="-6.099454503491968"><ele>1762.4</ele><time>2026-05-04T10:13:23Z</time></trkpt><trkpt lat="31.9859439786959" lon="-6.099563867730546"><ele>1761.8000000000002</ele><time>2026-05-04T10:13:24Z</time></trkpt><trkpt lat="31.98589862267034" lon="-6.099671116593449"><ele>1761.2</ele><time>2026-05-04T10:13:25Z</time></trkpt><trkpt lat="31.985853369092023" lon="-6.0997786164417525"><ele>1760.6</ele><time>2026-05-04T10:13:26Z</time></trkpt><trkpt lat="31.985804207971366" lon="-6.099882502453336"><ele>1760.0</ele><time>2026-05-04T10:13:27Z</time></trkpt><trkpt lat="31.985756499134933" lon="-6.0999834001599185"><ele>1765.0</ele><time>2026-05-04T10:13:28Z</time></trkpt><trkpt lat="31.98569688924013" lon="-6.10007061566746"><ele>1770.0</ele><time>2026-05-04T10:13:29Z</time></trkpt><trkpt lat="31.985639364335157" lon="-6.100153973434352"><ele>1775.0</ele><time>2026-05-04T10:13:30Z</time></trkpt><trkpt lat="31.98556843182334" lon="-6.100233322690609"><ele>1780.0</ele><time>2026-05-04T10:13:31Z</time></trkpt><trkpt lat="31.98549551272277" lon="-6.100318055462434"><ele>1785.0</ele><time>2026-05-04T10:13:32Z</time></trkpt><trkpt lat="31.985408030270236" lon="-6.100370923138388"><ele>1785.0</ele><time>2026-05-04T10:13:33Z</time></trkpt><trkpt lat="31.985343512331777" lon="-6.100419397662619"><ele>1785.0</ele><time>2026-05-04T10:13:34Z</time></trkpt><trkpt lat="31.98527631943322" lon="-6.1004354739842315"><ele>1785.0</ele><time>2026-05-04T10:13:35Z</time></trkpt><trkpt lat="31.985205486120893" lon="-6.100432247444621"><ele>1785.0</ele><time>2026-05-04T10:13:36Z</time></trkpt><trkpt lat="31.985134095583547" lon="-6.1004474277915754"><ele>1785.0</ele><time>2026-05-04T10:13:37Z</time></trkpt><trkpt lat="31.985063495949714" lon="-6.100390626514964"><ele>1785.0</ele><time>2026-05-04T10:13:38Z</time></trkpt><trkpt lat="31.98501060195936" lon="-6.100313816400799"><ele>1788.8</ele><time>2026-05-04T10:13:39Z</time></trkpt><trkpt lat="31.984936624273015" lon="-6.100259510460493"><ele>1792.6</ele><time>2026-05-04T10:13:40Z</time></trkpt><trkpt lat="31.984868198218965" lon="-6.100159325874489"><ele>1796.4</ele><time>2026-05-04T10:13:41Z</time></trkpt><trkpt lat="31.984801044606456" lon="-6.100060351548922"><ele>1800.2</ele><time>2026-05-04T10:13:42Z</time></trkpt><trkpt lat="31.984735205573394" lon="-6.099949621986819"><ele>1804.0</ele><time>2026-05-04T10:13:43Z</time></trkpt><trkpt lat="31.984673404303916" lon="-6.099845093710712"><ele>1812.5</ele><time>2026-05-04T10:13:44Z</time></trkpt><trkpt lat="31.984591632629687" lon="-6.099740340868522"><ele>1821.0</ele><time>2026-05-04T10:13:45Z</time></trkpt><trkpt lat="31.9845098710847" lon="-6.09963653925535"><ele>1829.5</ele><time>2026-05-04T10:13:46Z</time></trkpt><trkpt lat="31.984427094257367" lon="-6.099536315665699"><ele>1838.0</ele><time>2026-05-04T10:13:47Z</time></trkpt><trkpt lat="31.984352776999526" lon="-6.099421585168943"><ele>1838.0</ele><time>2026-05-04T10:13:48Z</time></trkpt><trkpt lat="31.98426262959918" lon="-6.0993340798963525"><ele>1838.0000000000002</ele><time>2026-05-04T10:13:49Z</time></trkpt><trkpt lat="31.98417629294829" lon="-6.0992470506314005"><ele>1838.0000000000002</ele><time>2026-05-04T10:13:50Z</time></trkpt><trkpt lat="31.98409606628868" lon="-6.099170879673811"><ele>1838.0</ele><time>2026-05-04T10:13:51Z</time></trkpt><trkpt lat="31.98401105133449" lon="-6.099106294934356"><ele>1838.0</ele><time>2026-05-04T10:13:52Z</time></trkpt><trkpt lat="31.983906245834252" lon="-6.09909085122058"><ele>1834.2</ele><time>2026-05-04T10:13:53Z</time></trkpt><trkpt lat="31.9838156513764" lon="-6.099094989991047"><ele>1830.4</ele><time>2026-05-04T10:13:54Z</time></trkpt><trkpt lat="31.983715208968057" lon="-6.099094869845059"><ele>1826.6000000000001</ele><time>2026-05-04T10:13:55Z</time></trkpt><trkpt lat="31.983626124860894" lon="-6.099145616687401"><ele>1822.8000000000002</ele><time>2026-05-04T10:13:56Z</time></trkpt><trkpt lat="31.98353576558174" lon="-6.099187484397658"><ele>1819.0</ele><time>2026-05-04T10:13:57Z</time></trkpt><trkpt lat="31.983440140009318" lon="-6.099239411936935"><ele>1819.0</ele><time>2026-05-04T10:13:58Z</time></trkpt><trkpt lat="31.983353256385254" lon="-6.099311005530694"><ele>1819.0</ele><time>2026-05-04T10:13:59Z</time></trkpt><trkpt lat="31.98326340368346" lon="-6.099394186059529"><ele>1819.0</ele><time>2026-05-04T10:14:00Z</time></trkpt><trkpt lat="31.98319389635777" lon="-6.099483849286403"><ele>1819.0</ele><time>2026-05-04T10:14:01Z</time></trkpt><trkpt lat="31.98312206498696" lon="-6.0995927083738914"><ele>1819.0</ele><time>2026-05-04T10:14:02Z</time></trkpt><trkpt lat="31.98305389131975" lon="-6.099700347186397"><ele>1821.8000000000002</ele><time>2026-05-04T10:14:03Z</time></trkpt><trkpt lat="31.98299646502031" lon="-6.099811014024821"><ele>1824.6000000000001</ele><time>2026-05-04T10:14:04Z</time></trkpt><trkpt lat="31.982938141715067" lon="-6.099920595221187"><ele>1827.4</ele><time>2026-05-04T10:14:05Z</time></trkpt><trkpt lat="31.982882086044096" lon="-6.1000256916695905"><ele>1830.2</ele><time>2026-05-04T10:14:06Z</time></trkpt><trkpt lat="31.982815930607362" lon="-6.100127498084397"><ele>1833.0</ele><time>2026-05-04T10:14:07Z</time></trkpt><trkpt lat="31.982757182513012" lon="-6.10022101105661"><ele>1833.4</ele><time>2026-05-04T10:14:08Z</time></trkpt><trkpt lat="31.982677008247137" lon="-6.100299513349525"><ele>1833.8000000000002</ele><time>2026-05-04T10:14:09Z</time></trkpt><trkpt lat="31.982615143560317" lon="-6.100395699006994"><ele>1834.2</ele><time>2026-05-04T10:14:10Z</time></trkpt><trkpt lat="31.982549618255018" lon="-6.100460836034244"><ele>1834.6</ele><time>2026-05-04T10:14:11Z</time></trkpt><trkpt lat="31.982488644913825" lon="-6.100504986713327"><ele>1835.0</ele><time>2026-05-04T10:14:12Z</time></trkpt><trkpt lat="31.982412534470818" lon="-6.100595355321591"><ele>1834.9999999999998</ele><time>2026-05-04T10:14:14Z</time></trkpt><trkpt lat="31.982334484183895" lon="-6.100631417132531"><ele>1835.0</ele><time>2026-05-04T10:14:16Z</time></trkpt><trkpt lat="31.98227498550682" lon="-6.100664631658929"><ele>1835.0</ele><time>2026-05-04T10:14:19Z</time></trkpt><trkpt lat="31.982228744554043" lon="-6.100574377544963"><ele>1835.0</ele><time>2026-05-04T10:17:06Z</time></trkpt><trkpt lat="31.982169555076844" lon="-6.100456255839199"><ele>1834.9999999999998</ele><time>2026-05-04T10:17:08Z</time></trkpt><trkpt lat="31.982126541599925" lon="-6.100390343733472"><ele>1835.0</ele><time>2026-05-04T10:17:21Z</time></trkpt><trkpt lat="31.982092273769492" lon="-6.100322103830233"><ele>1835.0</ele><time>2026-05-04T10:17:22Z</time></trkpt><trkpt lat="31.982051597942995" lon="-6.100231787956812"><ele>1835.0</ele><time>2026-05-04T10:17:23Z</time></trkpt><trkpt lat="31.98201729760954" lon="-6.100125387448809"><ele>1835.0</ele><time>2026-05-04T10:17:24Z</time></trkpt><trkpt lat="31.981983270240217" lon="-6.100018541129654"><ele>1835.0</ele><time>2026-05-04T10:17:25Z</time></trkpt><trkpt lat="31.9819438616599" lon="-6.099907476976247"><ele>1835.0</ele><time>2026-05-04T10:17:26Z</time></trkpt><trkpt lat="31.981912915835434" lon="-6.0998048524101876"><ele>1839.2</ele><time>2026-05-04T10:17:27Z</time></trkpt><trkpt lat="31.981874825111493" lon="-6.099699582787206"><ele>1843.4</ele><time>2026-05-04T10:17:28Z</time></trkpt><trkpt lat="31.981836574327392" lon="-6.0996009251798045"><ele>1847.6</ele><time>2026-05-04T10:17:29Z</time></trkpt><trkpt lat="31.981800177192117" lon="-6.099499361623304"><ele>1851.8</ele><time>2026-05-04T10:17:30Z</time></trkpt><trkpt lat="31.98176444181613" lon="-6.099401020314622"><ele>1856.0</ele><time>2026-05-04T10:17:31Z</time></trkpt><trkpt lat="31.981723473861564" lon="-6.099306393273127"><ele>1853.6666666666665</ele><time>2026-05-04T10:17:32Z</time></trkpt><trkpt lat="31.98167896683161" lon="-6.099214345260454"><ele>1851.3333333333333</ele><time>2026-05-04T10:17:33Z</time></trkpt><trkpt lat="31.981632872538814" lon="-6.099122633189705"><ele>1849.0</ele><time>2026-05-04T10:17:34Z</time></trkpt><trkpt lat="31.98158887221894" lon="-6.099029073772609"><ele>1846.6666666666665</ele><time>2026-05-04T10:17:35Z</time></trkpt><trkpt lat="31.981539655911575" lon="-6.098942069138089"><ele>1844.3333333333333</ele><time>2026-05-04T10:17:36Z</time></trkpt><trkpt lat="31.981485390085606" lon="-6.098859243739637"><ele>1842.0</ele><time>2026-05-04T10:17:37Z</time></trkpt><trkpt lat="31.9814263679522" lon="-6.0987748604738785"><ele>1842.0</ele><time>2026-05-04T10:17:38Z</time></trkpt><trkpt lat="31.98136782666485" lon="-6.098689871128529"><ele>1841.9999999999998</ele><time>2026-05-04T10:17:39Z</time></trkpt><trkpt lat="31.981312668449206" lon="-6.098605080119911"><ele>1841.9999999999998</ele><time>2026-05-04T10:17:40Z</time></trkpt><trkpt lat="31.981263653876454" lon="-6.0985168194234936"><ele>1842.0</ele><time>2026-05-04T10:17:41Z</time></trkpt><trkpt lat="31.98121357713189" lon="-6.098429929866295"><ele>1842.0</ele><time>2026-05-04T10:17:42Z</time></trkpt><trkpt lat="31.981163558264566" lon="-6.098334545102678"><ele>1845.1999999999998</ele><time>2026-05-04T10:17:43Z</time></trkpt><trkpt lat="31.981109116279384" lon="-6.098248574602969"><ele>1848.3999999999999</ele><time>2026-05-04T10:17:44Z</time></trkpt><trkpt lat="31.981054297950084" lon="-6.098156511731921"><ele>1851.6000000000001</ele><time>2026-05-04T10:17:45Z</time></trkpt><trkpt lat="31.980989580876184" lon="-6.098082263328985"><ele>1854.8000000000002</ele><time>2026-05-04T10:17:46Z</time></trkpt><trkpt lat="31.980908184133618" lon="-6.098036113440824"><ele>1858.0</ele><time>2026-05-04T10:17:47Z</time></trkpt><trkpt lat="31.980846514878625" lon="-6.097964058962374"><ele>1848.8000000000002</ele><time>2026-05-04T10:17:48Z</time></trkpt><trkpt lat="31.980782684105648" lon="-6.097894579251607"><ele>1839.6000000000001</ele><time>2026-05-04T10:17:49Z</time></trkpt><trkpt lat="31.98073157996445" lon="-6.097805172163328"><ele>1830.3999999999999</ele><time>2026-05-04T10:17:50Z</time></trkpt><trkpt lat="31.980691975211286" lon="-6.097698662067636"><ele>1821.1999999999998</ele><time>2026-05-04T10:17:51Z</time></trkpt><trkpt lat="31.98065963493389" lon="-6.097589970477782"><ele>1812.0</ele><time>2026-05-04T10:17:52Z</time></trkpt><trkpt lat="31.980633865197273" lon="-6.097479477655716"><ele>1813.6666666666667</ele><time>2026-05-04T10:17:53Z</time></trkpt><trkpt lat="31.980618031646724" lon="-6.097379066089559"><ele>1815.3333333333335</ele><time>2026-05-04T10:17:53.999Z</time></trkpt><trkpt lat="31.980597326487338" lon="-6.097278989048125"><ele>1817.0</ele><time>2026-05-04T10:17:54.999Z</time></trkpt><trkpt lat="31.98057814823973" lon="-6.097180423738707"><ele>1818.6666666666667</ele><time>2026-05-04T10:17:55.999Z</time></trkpt><trkpt lat="31.980545906983295" lon="-6.0970784974040395"><ele>1820.3333333333335</ele><time>2026-05-04T10:17:56.999Z</time></trkpt><trkpt lat="31.980513411514785" lon="-6.096970279600992"><ele>1822.0</ele><time>2026-05-04T10:17:57.999Z</time></trkpt><trkpt lat="31.980489021082473" lon="-6.096862847845621"><ele>1822.0000000000002</ele><time>2026-05-04T10:17:58.999Z</time></trkpt><trkpt lat="31.980477390801255" lon="-6.096755424845338"><ele>1822.0</ele><time>2026-05-04T10:17:59.999Z</time></trkpt><trkpt lat="31.98045206306881" lon="-6.096647496657357"><ele>1822.0</ele><time>2026-05-04T10:18:00.999Z</time></trkpt><trkpt lat="31.98044785074957" lon="-6.096555259275066"><ele>1822.0</ele><time>2026-05-04T10:18:01.999Z</time></trkpt><trkpt lat="31.98044780390485" lon="-6.0964684638672635"><ele>1822.0000000000002</ele><time>2026-05-04T10:18:02.999Z</time></trkpt><trkpt lat="31.980451897121174" lon="-6.0963917762185815"><ele>1822.0</ele><time>2026-05-04T10:18:03.999Z</time></trkpt><trkpt lat="31.980447520498277" lon="-6.096264710501018"><ele>1823.1666666666667</ele><time>2026-05-04T10:18:05.999Z</time></trkpt><trkpt lat="31.98038542416593" lon="-6.096182894774687"><ele>1824.3333333333335</ele><time>2026-05-04T10:18:07.999Z</time></trkpt><trkpt lat="31.980313901100704" lon="-6.096101709983844"><ele>1825.5</ele><time>2026-05-04T10:18:09.999Z</time></trkpt><trkpt lat="31.98024850859257" lon="-6.096063338813288"><ele>1826.6666666666665</ele><time>2026-05-04T10:18:11.999Z</time></trkpt><trkpt lat="31.980175027260294" lon="-6.095978435751269"><ele>1827.8333333333333</ele><time>2026-05-04T10:18:13.999Z</time></trkpt><trkpt lat="31.98011989764337" lon="-6.095925833854713"><ele>1829.0</ele><time>2026-05-04T10:18:16.999Z</time></trkpt><trkpt lat="31.980037532925028" lon="-6.0958204668636045"><ele>1821.3333333333333</ele><time>2026-05-04T10:18:26.999Z</time></trkpt><trkpt lat="31.980002380401114" lon="-6.09574293639196"><ele>1813.6666666666665</ele><time>2026-05-04T10:18:27.999Z</time></trkpt><trkpt lat="31.979979232753177" lon="-6.09565395103317"><ele>1806.0</ele><time>2026-05-04T10:18:28.999Z</time></trkpt><trkpt lat="31.979939495980222" lon="-6.095573434355761"><ele>1798.3333333333335</ele><time>2026-05-04T10:18:29.999Z</time></trkpt><trkpt lat="31.979901846252684" lon="-6.095484775272688"><ele>1790.6666666666667</ele><time>2026-05-04T10:18:30.999Z</time></trkpt><trkpt lat="31.979868597843915" lon="-6.095393010110296"><ele>1783.0</ele><time>2026-05-04T10:18:32Z</time></trkpt><trkpt lat="31.979832493563354" lon="-6.095298070454011"><ele>1783.0</ele><time>2026-05-04T10:18:33Z</time></trkpt><trkpt lat="31.979795974460558" lon="-6.095208686299167"><ele>1783.0000000000002</ele><time>2026-05-04T10:18:34Z</time></trkpt><trkpt lat="31.979756220045864" lon="-6.095129418839299"><ele>1783.0000000000002</ele><time>2026-05-04T10:18:35Z</time></trkpt><trkpt lat="31.979721641136752" lon="-6.095060057745532"><ele>1783.0</ele><time>2026-05-04T10:18:36Z</time></trkpt><trkpt lat="31.979655598112135" lon="-6.094952066560175"><ele>1783.0</ele><time>2026-05-04T10:18:38Z</time></trkpt><trkpt lat="31.97965073921862" lon="-6.094826146618164"><ele>1780.4</ele><time>2026-05-04T10:18:40Z</time></trkpt><trkpt lat="31.979707404924273" lon="-6.094707163752716"><ele>1777.8000000000002</ele><time>2026-05-04T10:18:42Z</time></trkpt><trkpt lat="31.979820550615194" lon="-6.0946333494204685"><ele>1775.2</ele><time>2026-05-04T10:18:44Z</time></trkpt><trkpt lat="31.979894125528915" lon="-6.094612971131652"><ele>1772.6</ele><time>2026-05-04T10:18:45Z</time></trkpt><trkpt lat="31.979972750724126" lon="-6.094596072349986"><ele>1770.0</ele><time>2026-05-04T10:18:46Z</time></trkpt><trkpt lat="31.980043566623895" lon="-6.094574953884788"><ele>1781.3333333333333</ele><time>2026-05-04T10:18:47Z</time></trkpt><trkpt lat="31.980104185156186" lon="-6.094535015604624"><ele>1792.6666666666665</ele><time>2026-05-04T10:18:48Z</time></trkpt><trkpt lat="31.98018366905293" lon="-6.094441114391588"><ele>1804.0</ele><time>2026-05-04T10:18:50Z</time></trkpt><trkpt lat="31.980174596173633" lon="-6.094364370262369"><ele>1815.3333333333333</ele><time>2026-05-04T10:18:51Z</time></trkpt><trkpt lat="31.98013520825431" lon="-6.094266279243969"><ele>1826.6666666666665</ele><time>2026-05-04T10:18:53Z</time></trkpt><trkpt lat="31.980126304672023" lon="-6.094183941158356"><ele>1838.0</ele><time>2026-05-04T10:18:54Z</time></trkpt><trkpt lat="31.980076117792205" lon="-6.0940467825150035"><ele>1843.3333333333333</ele><time>2026-05-04T10:18:56Z</time></trkpt><trkpt lat="31.980043444131656" lon="-6.0939588266348075"><ele>1848.6666666666665</ele><time>2026-05-04T10:18:57Z</time></trkpt><trkpt lat="31.980008078976606" lon="-6.093862385770475"><ele>1854.0</ele><time>2026-05-04T10:18:58Z</time></trkpt><trkpt lat="31.979974019911538" lon="-6.0937700184388195"><ele>1859.3333333333335</ele><time>2026-05-04T10:18:59Z</time></trkpt><trkpt lat="31.979940438108862" lon="-6.093678663614207"><ele>1864.6666666666667</ele><time>2026-05-04T10:19:00Z</time></trkpt><trkpt lat="31.979906438992977" lon="-6.093585410455593"><ele>1870.0</ele><time>2026-05-04T10:19:01Z</time></trkpt><trkpt lat="31.97987290567285" lon="-6.093492144853207"><ele>1858.1666666666667</ele><time>2026-05-04T10:19:02Z</time></trkpt><trkpt lat="31.979841318396918" lon="-6.0933993541158875"><ele>1846.3333333333335</ele><time>2026-05-04T10:19:03Z</time></trkpt><trkpt lat="31.979811800074895" lon="-6.093310595720358"><ele>1834.5</ele><time>2026-05-04T10:19:04Z</time></trkpt><trkpt lat="31.979785115383056" lon="-6.093223792278515"><ele>1822.6666666666665</ele><time>2026-05-04T10:19:05Z</time></trkpt><trkpt lat="31.97976061501686" lon="-6.093141122935876"><ele>1810.8333333333333</ele><time>2026-05-04T10:19:06Z</time></trkpt><trkpt lat="31.979681568735884" lon="-6.093017754935112"><ele>1799.0</ele><time>2026-05-04T10:19:08Z</time></trkpt><trkpt lat="31.979622792507218" lon="-6.09294373718328"><ele>1798.9999999999998</ele><time>2026-05-04T10:19:09Z</time></trkpt><trkpt lat="31.97957079976759" lon="-6.092878320536869"><ele>1799.0</ele><time>2026-05-04T10:19:10Z</time></trkpt><trkpt lat="31.979520969760422" lon="-6.092816418296177"><ele>1799.0</ele><time>2026-05-04T10:19:11Z</time></trkpt><trkpt lat="31.979488130038163" lon="-6.092735276491748"><ele>1799.0</ele><time>2026-05-04T10:19:12Z</time></trkpt><trkpt lat="31.97947845855734" lon="-6.092634341635066"><ele>1798.9999999999998</ele><time>2026-05-04T10:19:13Z</time></trkpt><trkpt lat="31.979459501309908" lon="-6.092543802757741"><ele>1799.0</ele><time>2026-05-04T10:19:14Z</time></trkpt><trkpt lat="31.979446853867127" lon="-6.092455255170982"><ele>1799.8333333333333</ele><time>2026-05-04T10:19:15Z</time></trkpt><trkpt lat="31.979446932870307" lon="-6.092365950234569"><ele>1800.6666666666665</ele><time>2026-05-04T10:19:16Z</time></trkpt><trkpt lat="31.979437491563314" lon="-6.092273544146235"><ele>1801.5</ele><time>2026-05-04T10:19:17Z</time></trkpt><trkpt lat="31.979437720879694" lon="-6.092169405782162"><ele>1802.3333333333335</ele><time>2026-05-04T10:19:18Z</time></trkpt><trkpt lat="31.979437720879503" lon="-6.092054411249303"><ele>1803.1666666666667</ele><time>2026-05-04T10:19:19Z</time></trkpt><trkpt lat="31.97943772087962" lon="-6.091941470946779"><ele>1804.0</ele><time>2026-05-04T10:19:20Z</time></trkpt><trkpt lat="31.97943868856549" lon="-6.091830394988847"><ele>1804.0</ele><time>2026-05-04T10:19:21Z</time></trkpt><trkpt lat="31.979442036430758" lon="-6.091720004218562"><ele>1804.0</ele><time>2026-05-04T10:19:22Z</time></trkpt><trkpt lat="31.979464463113942" lon="-6.091599703740556"><ele>1804.0</ele><time>2026-05-04T10:19:23Z</time></trkpt><trkpt lat="31.979486131005423" lon="-6.091493052699186"><ele>1804.0</ele><time>2026-05-04T10:19:24Z</time></trkpt><trkpt lat="31.97950820872908" lon="-6.091380868845612"><ele>1804.0</ele><time>2026-05-04T10:19:25Z</time></trkpt><trkpt lat="31.97952892178423" lon="-6.091274518029409"><ele>1803.2</ele><time>2026-05-04T10:19:26Z</time></trkpt><trkpt lat="31.97954983967964" lon="-6.091167115470738"><ele>1802.4</ele><time>2026-05-04T10:19:27Z</time></trkpt><trkpt lat="31.979569344527533" lon="-6.091060309113142"><ele>1801.6</ele><time>2026-05-04T10:19:28Z</time></trkpt><trkpt lat="31.979560781202917" lon="-6.090963222367677"><ele>1800.8</ele><time>2026-05-04T10:19:29Z</time></trkpt><trkpt lat="31.97956062089925" lon="-6.0908456250935075"><ele>1800.0</ele><time>2026-05-04T10:19:30Z</time></trkpt><trkpt lat="31.979567579180546" lon="-6.090728880533609"><ele>1797.2</ele><time>2026-05-04T10:19:31Z</time></trkpt><trkpt lat="31.979575313785276" lon="-6.090600238612745"><ele>1794.4</ele><time>2026-05-04T10:19:32Z</time></trkpt><trkpt lat="31.9795964905861" lon="-6.090480961198591"><ele>1791.6</ele><time>2026-05-04T10:19:33Z</time></trkpt><trkpt lat="31.979621461860255" lon="-6.090362167938365"><ele>1788.8</ele><time>2026-05-04T10:19:34Z</time></trkpt><trkpt lat="31.97964897691383" lon="-6.090246251475645"><ele>1786.0</ele><time>2026-05-04T10:19:34.999Z</time></trkpt><trkpt lat="31.97970412516224" lon="-6.090128458688194"><ele>1786.0</ele><time>2026-05-04T10:19:35.999Z</time></trkpt><trkpt lat="31.97975645266836" lon="-6.090011448580416"><ele>1786.0</ele><time>2026-05-04T10:19:36.999Z</time></trkpt><trkpt lat="31.979817114228258" lon="-6.089889441402413"><ele>1786.0</ele><time>2026-05-04T10:19:37.999Z</time></trkpt><trkpt lat="31.9798774187953" lon="-6.089771947345733"><ele>1786.0</ele><time>2026-05-04T10:19:38.999Z</time></trkpt><trkpt lat="31.979937706858152" lon="-6.089654485444469"><ele>1782.5</ele><time>2026-05-04T10:19:39.999Z</time></trkpt><trkpt lat="31.979999158175968" lon="-6.089534757120045"><ele>1779.0</ele><time>2026-05-04T10:19:40.999Z</time></trkpt><trkpt lat="31.980061457838815" lon="-6.089411255333267"><ele>1775.5</ele><time>2026-05-04T10:19:41.999Z</time></trkpt><trkpt lat="31.98012262307941" lon="-6.089290061117328"><ele>1772.0</ele><time>2026-05-04T10:19:42.999Z</time></trkpt><trkpt lat="31.980185864762245" lon="-6.089165243203616"><ele>1782.75</ele><time>2026-05-04T10:19:43.999Z</time></trkpt><trkpt lat="31.98024964850233" lon="-6.089039589916479"><ele>1793.5</ele><time>2026-05-04T10:19:44.999Z</time></trkpt><trkpt lat="31.98029793030803" lon="-6.08891896678253"><ele>1804.25</ele><time>2026-05-04T10:19:45.999Z</time></trkpt><trkpt lat="31.980333728737946" lon="-6.08880452656047"><ele>1815.0</ele><time>2026-05-04T10:19:46.999Z</time></trkpt><trkpt lat="31.980368319985057" lon="-6.088679655954836"><ele>1815.0</ele><time>2026-05-04T10:19:47.999Z</time></trkpt><trkpt lat="31.980379128791167" lon="-6.08856353354855"><ele>1815.0</ele><time>2026-05-04T10:19:48.999Z</time></trkpt><trkpt lat="31.980393791864447" lon="-6.088437796938984"><ele>1815.0</ele><time>2026-05-04T10:19:49.999Z</time></trkpt><trkpt lat="31.980405111375894" lon="-6.08830635290823"><ele>1815.0</ele><time>2026-05-04T10:19:50.999Z</time></trkpt><trkpt lat="31.980409737012998" lon="-6.08817990282313"><ele>1815.0</ele><time>2026-05-04T10:19:51.999Z</time></trkpt><trkpt lat="31.980408360807836" lon="-6.088044256514288"><ele>1816.25</ele><time>2026-05-04T10:19:52.999Z</time></trkpt><trkpt lat="31.980406040764976" lon="-6.087906559243693"><ele>1817.5</ele><time>2026-05-04T10:19:53.999Z</time></trkpt><trkpt lat="31.980398356613623" lon="-6.087765576906318"><ele>1818.75</ele><time>2026-05-04T10:19:54.999Z</time></trkpt><trkpt lat="31.980391063657542" lon="-6.087631771881449"><ele>1820.0</ele><time>2026-05-04T10:19:55.999Z</time></trkpt><trkpt lat="31.98038343582308" lon="-6.087499424890848"><ele>1821.0</ele><time>2026-05-04T10:19:56.999Z</time></trkpt><trkpt lat="31.9803797209814" lon="-6.0873642314254575"><ele>1822.0</ele><time>2026-05-04T10:19:57.999Z</time></trkpt><trkpt lat="31.980378620983952" lon="-6.08723388070899"><ele>1823.0</ele><time>2026-05-04T10:19:58.999Z</time></trkpt><trkpt lat="31.980385578834174" lon="-6.087099390721878"><ele>1824.0</ele><time>2026-05-04T10:19:59.999Z</time></trkpt><trkpt lat="31.98040139192022" lon="-6.086969715180105"><ele>1824.0</ele><time>2026-05-04T10:20:00.999Z</time></trkpt><trkpt lat="31.98041504260584" lon="-6.086841638273052"><ele>1824.0</ele><time>2026-05-04T10:20:01.999Z</time></trkpt><trkpt lat="31.980427365572385" lon="-6.086714787418023"><ele>1824.0</ele><time>2026-05-04T10:20:02.999Z</time></trkpt><trkpt lat="31.980440763048165" lon="-6.08658902953452"><ele>1824.0</ele><time>2026-05-04T10:20:03.999Z</time></trkpt><trkpt lat="31.980424504818235" lon="-6.086480775515334"><ele>1824.0</ele><time>2026-05-04T10:20:04.999Z</time></trkpt><trkpt lat="31.980415391120935" lon="-6.086350289488907"><ele>1826.4</ele><time>2026-05-04T10:20:05.999Z</time></trkpt><trkpt lat="31.980406494872238" lon="-6.086222916807675"><ele>1828.8000000000002</ele><time>2026-05-04T10:20:06.999Z</time></trkpt><trkpt lat="31.980398153698644" lon="-6.086103491459933"><ele>1831.1999999999998</ele><time>2026-05-04T10:20:07.999Z</time></trkpt><trkpt lat="31.980390728924394" lon="-6.085997186720983"><ele>1833.6</ele><time>2026-05-04T10:20:08.999Z</time></trkpt><trkpt lat="31.980374641479496" lon="-6.085894268713166"><ele>1836.0</ele><time>2026-05-04T10:20:09.999Z</time></trkpt><trkpt lat="31.980313083819077" lon="-6.085813174265905"><ele>1836.8</ele><time>2026-05-04T10:20:10.999Z</time></trkpt><trkpt lat="31.980224794175673" lon="-6.085755116122193"><ele>1837.6</ele><time>2026-05-04T10:20:11.999Z</time></trkpt><trkpt lat="31.980119995690654" lon="-6.085721767141034"><ele>1838.4</ele><time>2026-05-04T10:20:12.999Z</time></trkpt><trkpt lat="31.98001344563614" lon="-6.08571395689967"><ele>1839.2</ele><time>2026-05-04T10:20:13.999Z</time></trkpt><trkpt lat="31.9798963263259" lon="-6.085706257028171"><ele>1840.0</ele><time>2026-05-04T10:20:14.999Z</time></trkpt><trkpt lat="31.97978439323738" lon="-6.085707632069096"><ele>1840.0</ele><time>2026-05-04T10:20:15.999Z</time></trkpt><trkpt lat="31.979679395015335" lon="-6.085691136869979"><ele>1840.0</ele><time>2026-05-04T10:20:16.999Z</time></trkpt><trkpt lat="31.97958130913247" lon="-6.085652313247889"><ele>1840.0</ele><time>2026-05-04T10:20:17.999Z</time></trkpt><trkpt lat="31.979492640828937" lon="-6.085594283621716"><ele>1840.0</ele><time>2026-05-04T10:20:18.999Z</time></trkpt><trkpt lat="31.97940635068903" lon="-6.085526221929199"><ele>1840.0</ele><time>2026-05-04T10:20:19.999Z</time></trkpt><trkpt lat="31.979337675226347" lon="-6.085456394572055"><ele>1840.0000000000002</ele><time>2026-05-04T10:20:20.999Z</time></trkpt><trkpt lat="31.979287883119895" lon="-6.0853780957700065"><ele>1840.0</ele><time>2026-05-04T10:20:21.999Z</time></trkpt><trkpt lat="31.979263619549975" lon="-6.085298452705565"><ele>1840.0</ele><time>2026-05-04T10:20:22.999Z</time></trkpt><trkpt lat="31.979256932786733" lon="-6.085215738174887"><ele>1840.0</ele><time>2026-05-04T10:20:23.999Z</time></trkpt><trkpt lat="31.979268992335587" lon="-6.085133534586741"><ele>1840.0000000000002</ele><time>2026-05-04T10:20:24.999Z</time></trkpt><trkpt lat="31.97928711172281" lon="-6.085044432043493"><ele>1840.0</ele><time>2026-05-04T10:20:25.999Z</time></trkpt><trkpt lat="31.979309260991563" lon="-6.084946098401368"><ele>1840.8333333333335</ele><time>2026-05-04T10:20:26.999Z</time></trkpt><trkpt lat="31.979329712499776" lon="-6.084852247584941"><ele>1841.6666666666667</ele><time>2026-05-04T10:20:27.999Z</time></trkpt><trkpt lat="31.979354100144068" lon="-6.084759574001659"><ele>1842.5</ele><time>2026-05-04T10:20:28.999Z</time></trkpt><trkpt lat="31.97937032427976" lon="-6.084663771380516"><ele>1843.3333333333335</ele><time>2026-05-04T10:20:29.999Z</time></trkpt><trkpt lat="31.979382025138438" lon="-6.084566644737573"><ele>1844.1666666666667</ele><time>2026-05-04T10:20:30.999Z</time></trkpt><trkpt lat="31.979379476923178" lon="-6.084470880912425"><ele>1845.0</ele><time>2026-05-04T10:20:31.999Z</time></trkpt><trkpt lat="31.979373284432853" lon="-6.084376545857706"><ele>1845.0</ele><time>2026-05-04T10:20:32.999Z</time></trkpt><trkpt lat="31.97936246305669" lon="-6.084282188697448"><ele>1845.0</ele><time>2026-05-04T10:20:33.999Z</time></trkpt><trkpt lat="31.9793461977859" lon="-6.084186042318462"><ele>1845.0</ele><time>2026-05-04T10:20:34.999Z</time></trkpt><trkpt lat="31.979327821417773" lon="-6.0840985979264035"><ele>1845.0</ele><time>2026-05-04T10:20:35.999Z</time></trkpt><trkpt lat="31.979317462582834" lon="-6.084015165817306"><ele>1845.0</ele><time>2026-05-04T10:20:37Z</time></trkpt><trkpt lat="31.97934333854177" lon="-6.083868253297647"><ele>1845.0</ele><time>2026-05-04T10:20:39Z</time></trkpt><trkpt lat="31.979390709639375" lon="-6.0838048992064255"><ele>1841.1666666666667</ele><time>2026-05-04T10:20:40Z</time></trkpt><trkpt lat="31.97945079970336" lon="-6.083742253666658"><ele>1837.3333333333335</ele><time>2026-05-04T10:20:41Z</time></trkpt><trkpt lat="31.979509878938348" lon="-6.083679448332182"><ele>1833.5</ele><time>2026-05-04T10:20:42Z</time></trkpt><trkpt lat="31.97956922935307" lon="-6.083616642357513"><ele>1829.6666666666667</ele><time>2026-05-04T10:20:43Z</time></trkpt><trkpt lat="31.979627633241265" lon="-6.083556344997051"><ele>1825.8333333333335</ele><time>2026-05-04T10:20:44Z</time></trkpt><trkpt lat="31.979684102855277" lon="-6.083492740773261"><ele>1822.0</ele><time>2026-05-04T10:20:45Z</time></trkpt><trkpt lat="31.979735374509065" lon="-6.08341814315069"><ele>1822.0</ele><time>2026-05-04T10:20:46Z</time></trkpt><trkpt lat="31.979776999302743" lon="-6.083340250307831"><ele>1822.0</ele><time>2026-05-04T10:20:47Z</time></trkpt><trkpt lat="31.979813218883738" lon="-6.083265479023357"><ele>1822.0</ele><time>2026-05-04T10:20:48Z</time></trkpt><trkpt lat="31.979843248007718" lon="-6.083193817086904"><ele>1822.0</ele><time>2026-05-04T10:20:49Z</time></trkpt><trkpt lat="31.979874977702273" lon="-6.083118821398673"><ele>1822.0</ele><time>2026-05-04T10:20:50Z</time></trkpt><trkpt lat="31.97989569712869" lon="-6.083037486006846"><ele>1822.0</ele><time>2026-05-04T10:20:51Z</time></trkpt><trkpt lat="31.979910570338696" lon="-6.082954649025998"><ele>1822.0</ele><time>2026-05-04T10:20:52Z</time></trkpt><trkpt lat="31.979926577287916" lon="-6.0828690384958115"><ele>1821.857142857143</ele><time>2026-05-04T10:20:53Z</time></trkpt><trkpt lat="31.97994740770847" lon="-6.082785184034759"><ele>1821.7142857142858</ele><time>2026-05-04T10:20:54Z</time></trkpt><trkpt lat="31.9799752127048" lon="-6.082699738479673"><ele>1821.5714285714287</ele><time>2026-05-04T10:20:55Z</time></trkpt><trkpt lat="31.98000443198254" lon="-6.082623927934318"><ele>1821.4285714285716</ele><time>2026-05-04T10:20:56Z</time></trkpt><trkpt lat="31.98004354482742" lon="-6.082550691740576"><ele>1821.2857142857142</ele><time>2026-05-04T10:20:57Z</time></trkpt><trkpt lat="31.980093365736963" lon="-6.082495955203854"><ele>1821.1428571428573</ele><time>2026-05-04T10:20:58Z</time></trkpt><trkpt lat="31.980163581926274" lon="-6.082458707522624"><ele>1821.0000000000002</ele><time>2026-05-04T10:20:59Z</time></trkpt><trkpt lat="31.980233397842273" lon="-6.082431110344116"><ele>1817.8333333333333</ele><time>2026-05-04T10:21:00Z</time></trkpt><trkpt lat="31.980302739468435" lon="-6.082410407773261"><ele>1814.6666666666665</ele><time>2026-05-04T10:21:01Z</time></trkpt><trkpt lat="31.98037216746109" lon="-6.082388239582111"><ele>1811.5</ele><time>2026-05-04T10:21:02Z</time></trkpt><trkpt lat="31.980436108405183" lon="-6.082361637993812"><ele>1808.3333333333333</ele><time>2026-05-04T10:21:03Z</time></trkpt><trkpt lat="31.980538508577002" lon="-6.082284305526436"><ele>1805.1666666666665</ele><time>2026-05-04T10:21:05Z</time></trkpt><trkpt lat="31.980582587290165" lon="-6.082226647752441"><ele>1802.0</ele><time>2026-05-04T10:21:06Z</time></trkpt><trkpt lat="31.980614893758986" lon="-6.082155096343506"><ele>1801.9999999999998</ele><time>2026-05-04T10:21:07Z</time></trkpt><trkpt lat="31.980636359841828" lon="-6.082081232728695"><ele>1802.0</ele><time>2026-05-04T10:21:08Z</time></trkpt><trkpt lat="31.980652181588976" lon="-6.08200432300815"><ele>1802.0</ele><time>2026-05-04T10:21:09Z</time></trkpt><trkpt lat="31.980673000341387" lon="-6.081857830803139"><ele>1802.0</ele><time>2026-05-04T10:21:11Z</time></trkpt><trkpt lat="31.980684284899613" lon="-6.081782061158472"><ele>1801.9999999999998</ele><time>2026-05-04T10:21:12Z</time></trkpt><trkpt lat="31.98069603775039" lon="-6.081705087423621"><ele>1802.0</ele><time>2026-05-04T10:21:13Z</time></trkpt><trkpt lat="31.98070391684955" lon="-6.081629650022997"><ele>1799.8333333333333</ele><time>2026-05-04T10:21:14Z</time></trkpt><trkpt lat="31.98070981208489" lon="-6.081545816084928"><ele>1797.6666666666665</ele><time>2026-05-04T10:21:15Z</time></trkpt><trkpt lat="31.98071959408253" lon="-6.081450540242673"><ele>1795.5</ele><time>2026-05-04T10:21:16Z</time></trkpt><trkpt lat="31.980734121612894" lon="-6.081339726941861"><ele>1793.3333333333335</ele><time>2026-05-04T10:21:17Z</time></trkpt><trkpt lat="31.980744986565117" lon="-6.081230591306891"><ele>1791.1666666666667</ele><time>2026-05-04T10:21:18Z</time></trkpt><trkpt lat="31.980753297402977" lon="-6.081122116353337"><ele>1789.0</ele><time>2026-05-04T10:21:19Z</time></trkpt><trkpt lat="31.980761315934224" lon="-6.081009466706377"><ele>1789.0</ele><time>2026-05-04T10:21:20Z</time></trkpt><trkpt lat="31.98077243620363" lon="-6.080891853053558"><ele>1789.0</ele><time>2026-05-04T10:21:21Z</time></trkpt><trkpt lat="31.98078187912792" lon="-6.080781370625281"><ele>1789.0</ele><time>2026-05-04T10:21:22Z</time></trkpt><trkpt lat="31.980797470341894" lon="-6.080677125781219"><ele>1789.0</ele><time>2026-05-04T10:21:23Z</time></trkpt><trkpt lat="31.980813525843637" lon="-6.080575520816568"><ele>1789.0</ele><time>2026-05-04T10:21:24Z</time></trkpt><trkpt lat="31.98083578335076" lon="-6.080474000137628"><ele>1791.5000000000002</ele><time>2026-05-04T10:21:25Z</time></trkpt><trkpt lat="31.980868954933456" lon="-6.08038145422731"><ele>1794.0</ele><time>2026-05-04T10:21:26Z</time></trkpt><trkpt lat="31.98091396233925" lon="-6.080291823907048"><ele>1796.5</ele><time>2026-05-04T10:21:27Z</time></trkpt><trkpt lat="31.980956374494752" lon="-6.080202811753227"><ele>1799.0</ele><time>2026-05-04T10:21:28Z</time></trkpt><trkpt lat="31.980987799981122" lon="-6.080105429868257"><ele>1801.5000000000002</ele><time>2026-05-04T10:21:29Z</time></trkpt><trkpt lat="31.98101088133496" lon="-6.07999639874307"><ele>1804.0</ele><time>2026-05-04T10:21:30Z</time></trkpt><trkpt lat="31.98103389234327" lon="-6.079890095623151"><ele>1804.0</ele><time>2026-05-04T10:21:31Z</time></trkpt><trkpt lat="31.98105416615582" lon="-6.07978867325302"><ele>1804.0</ele><time>2026-05-04T10:21:32Z</time></trkpt><trkpt lat="31.981074504932483" lon="-6.079685498305944"><ele>1804.0</ele><time>2026-05-04T10:21:33Z</time></trkpt><trkpt lat="31.981091616239958" lon="-6.079579953229941"><ele>1804.0</ele><time>2026-05-04T10:21:34Z</time></trkpt><trkpt lat="31.981113745532763" lon="-6.079473075943098"><ele>1804.0</ele><time>2026-05-04T10:21:35Z</time></trkpt><trkpt lat="31.981139864783493" lon="-6.079367780956638"><ele>1804.0000000000002</ele><time>2026-05-04T10:21:36Z</time></trkpt><trkpt lat="31.98117048126446" lon="-6.079264644433106"><ele>1804.0</ele><time>2026-05-04T10:21:37Z</time></trkpt><trkpt lat="31.98120354972178" lon="-6.079162378352995"><ele>1804.0</ele><time>2026-05-04T10:21:38Z</time></trkpt><trkpt lat="31.98124503926606" lon="-6.079069690097372"><ele>1804.0</ele><time>2026-05-04T10:21:39Z</time></trkpt><trkpt lat="31.98127759639906" lon="-6.078972521957125"><ele>1804.0000000000002</ele><time>2026-05-04T10:21:40Z</time></trkpt><trkpt lat="31.981280500407703" lon="-6.078871606657843"><ele>1804.0</ele><time>2026-05-04T10:21:41Z</time></trkpt><trkpt lat="31.981209110011168" lon="-6.0787667677406505"><ele>1802.2</ele><time>2026-05-04T10:21:42Z</time></trkpt><trkpt lat="31.981203479711372" lon="-6.078659649555161"><ele>1800.4</ele><time>2026-05-04T10:21:43Z</time></trkpt><trkpt lat="31.98120126494212" lon="-6.078546721422715"><ele>1798.6</ele><time>2026-05-04T10:21:44Z</time></trkpt><trkpt lat="31.981202050274085" lon="-6.078434964893855"><ele>1796.8</ele><time>2026-05-04T10:21:45Z</time></trkpt><trkpt lat="31.981202826802953" lon="-6.078324461218302"><ele>1795.0</ele><time>2026-05-04T10:21:46Z</time></trkpt><trkpt lat="31.98120697474539" lon="-6.078209423196235"><ele>1791.8</ele><time>2026-05-04T10:21:47Z</time></trkpt><trkpt lat="31.981220315093292" lon="-6.0781038012309185"><ele>1788.6</ele><time>2026-05-04T10:21:48Z</time></trkpt><trkpt lat="31.98123299195476" lon="-6.078002601855083"><ele>1785.4</ele><time>2026-05-04T10:21:49Z</time></trkpt><trkpt lat="31.981246790319172" lon="-6.077888446201675"><ele>1782.2</ele><time>2026-05-04T10:21:49.999Z</time></trkpt><trkpt lat="31.9812604364639" lon="-6.077770743371679"><ele>1779.0</ele><time>2026-05-04T10:21:50.999Z</time></trkpt><trkpt lat="31.981269683373622" lon="-6.077651428359869"><ele>1779.0</ele><time>2026-05-04T10:21:51.999Z</time></trkpt><trkpt lat="31.981278733881975" lon="-6.077534647582894"><ele>1779.0</ele><time>2026-05-04T10:21:52.999Z</time></trkpt><trkpt lat="31.98128807632378" lon="-6.077414099922579"><ele>1779.0</ele><time>2026-05-04T10:21:53.999Z</time></trkpt><trkpt lat="31.981301834821107" lon="-6.0772949088535535"><ele>1779.0</ele><time>2026-05-04T10:21:54.999Z</time></trkpt><trkpt lat="31.98131742963591" lon="-6.077185808909643"><ele>1779.0</ele><time>2026-05-04T10:21:55.999Z</time></trkpt><trkpt lat="31.98133401710721" lon="-6.077072907413939"><ele>1777.6</ele><time>2026-05-04T10:21:56.999Z</time></trkpt><trkpt lat="31.981349779074286" lon="-6.076965699233777"><ele>1776.2</ele><time>2026-05-04T10:21:57.999Z</time></trkpt><trkpt lat="31.981365769186024" lon="-6.076856939260195"><ele>1774.7999999999997</ele><time>2026-05-04T10:21:58.999Z</time></trkpt><trkpt lat="31.981432209056173" lon="-6.0767412478555425"><ele>1773.3999999999999</ele><time>2026-05-04T10:21:59.999Z</time></trkpt><trkpt lat="31.981472472815863" lon="-6.076644042024998"><ele>1772.0</ele><time>2026-05-04T10:22:00.999Z</time></trkpt><trkpt lat="31.981519388566856" lon="-6.076556626930773"><ele>1771.9999999999998</ele><time>2026-05-04T10:22:01.999Z</time></trkpt><trkpt lat="31.981554108281486" lon="-6.076487902824301"><ele>1772.0</ele><time>2026-05-04T10:22:02.999Z</time></trkpt><trkpt lat="31.98158347425941" lon="-6.076415796523792"><ele>1772.0</ele><time>2026-05-04T10:22:03.999Z</time></trkpt><trkpt lat="31.981629886601485" lon="-6.076302921676886"><ele>1772.0</ele><time>2026-05-04T10:22:05.999Z</time></trkpt><trkpt lat="31.98158990070294" lon="-6.076239726704722"><ele>1771.9999999999998</ele><time>2026-05-04T10:22:07.999Z</time></trkpt><trkpt lat="31.981464319423605" lon="-6.076269067987011"><ele>1772.0</ele><time>2026-05-04T10:22:09.999Z</time></trkpt><trkpt lat="31.98139854381817" lon="-6.076331749244677"><ele>1772.0</ele><time>2026-05-04T10:22:10.999Z</time></trkpt><trkpt lat="31.981313973468893" lon="-6.07639396738933"><ele>1771.9999999999998</ele><time>2026-05-04T10:22:11.999Z</time></trkpt><trkpt lat="31.981225489003265" lon="-6.076440798672058"><ele>1771.9999999999998</ele><time>2026-05-04T10:22:12.999Z</time></trkpt><trkpt lat="31.981132469419872" lon="-6.076514505965642"><ele>1772.0</ele><time>2026-05-04T10:22:13.999Z</time></trkpt><trkpt lat="31.981046271979814" lon="-6.076599881928485"><ele>1772.0</ele><time>2026-05-04T10:22:14.999Z</time></trkpt><trkpt lat="31.98097250890231" lon="-6.076693327068441"><ele>1771.75</ele><time>2026-05-04T10:22:15.999Z</time></trkpt><trkpt lat="31.98087652704535" lon="-6.07679127677233"><ele>1771.5</ele><time>2026-05-04T10:22:16.999Z</time></trkpt><trkpt lat="31.980772095021837" lon="-6.076875345508701"><ele>1771.25</ele><time>2026-05-04T10:22:17.999Z</time></trkpt><trkpt lat="31.98066559735624" lon="-6.07695063851153"><ele>1771.0</ele><time>2026-05-04T10:22:18.999Z</time></trkpt><trkpt lat="31.98055880475374" lon="-6.077013082704911"><ele>1769.1999999999998</ele><time>2026-05-04T10:22:19.999Z</time></trkpt><trkpt lat="31.980449001072092" lon="-6.077063298799036"><ele>1767.3999999999999</ele><time>2026-05-04T10:22:20.999Z</time></trkpt><trkpt lat="31.980348116500757" lon="-6.0771163450275"><ele>1765.6</ele><time>2026-05-04T10:22:21.999Z</time></trkpt><trkpt lat="31.980257303295257" lon="-6.077152207098846"><ele>1763.8</ele><time>2026-05-04T10:22:22.999Z</time></trkpt><trkpt lat="31.98017181203815" lon="-6.0772044240810486"><ele>1762.0</ele><time>2026-05-04T10:22:23.999Z</time></trkpt><trkpt lat="31.980112777524198" lon="-6.077290173729893"><ele>1762.0</ele><time>2026-05-04T10:22:24.999Z</time></trkpt><trkpt lat="31.980065960448254" lon="-6.077406510791406"><ele>1762.0</ele><time>2026-05-04T10:22:25.999Z</time></trkpt><trkpt lat="31.980008608058412" lon="-6.077520525568825"><ele>1762.0</ele><time>2026-05-04T10:22:26.999Z</time></trkpt><trkpt lat="31.97993986394566" lon="-6.077635175487207"><ele>1762.0</ele><time>2026-05-04T10:22:27.999Z</time></trkpt><trkpt lat="31.97986646990867" lon="-6.0777320699341"><ele>1760.8</ele><time>2026-05-04T10:22:28.999Z</time></trkpt><trkpt lat="31.97978311940818" lon="-6.0778359183853095"><ele>1759.6</ele><time>2026-05-04T10:22:29.999Z</time></trkpt><trkpt lat="31.97971089085198" lon="-6.0779363340135175"><ele>1758.3999999999999</ele><time>2026-05-04T10:22:30.999Z</time></trkpt><trkpt lat="31.979649601939236" lon="-6.078037195405545"><ele>1757.1999999999998</ele><time>2026-05-04T10:22:31.999Z</time></trkpt><trkpt lat="31.97957491538642" lon="-6.07813041443005"><ele>1756.0</ele><time>2026-05-04T10:22:32.999Z</time></trkpt><trkpt lat="31.97948482584106" lon="-6.078213116587008"><ele>1755.6</ele><time>2026-05-04T10:22:33.999Z</time></trkpt><trkpt lat="31.97938329803175" lon="-6.078284390233428"><ele>1755.1999999999998</ele><time>2026-05-04T10:22:34.999Z</time></trkpt><trkpt lat="31.979284542219183" lon="-6.0783363368671735"><ele>1754.8000000000002</ele><time>2026-05-04T10:22:35.999Z</time></trkpt><trkpt lat="31.97918882758934" lon="-6.078383555482745"><ele>1754.4</ele><time>2026-05-04T10:22:36.999Z</time></trkpt><trkpt lat="31.97909377815355" lon="-6.078424385516089"><ele>1754.0</ele><time>2026-05-04T10:22:37.999Z</time></trkpt><trkpt lat="31.97900112566412" lon="-6.07843680159402"><ele>1754.0</ele><time>2026-05-04T10:22:38.999Z</time></trkpt><trkpt lat="31.978906796226305" lon="-6.078445555404388"><ele>1754.0</ele><time>2026-05-04T10:22:39.999Z</time></trkpt><trkpt lat="31.978806633878843" lon="-6.078392426116234"><ele>1754.0</ele><time>2026-05-04T10:22:40.999Z</time></trkpt><trkpt lat="31.978711006259186" lon="-6.078345688871632"><ele>1754.0</ele><time>2026-05-04T10:22:41.999Z</time></trkpt><trkpt lat="31.97861499708938" lon="-6.078312908473607"><ele>1754.0</ele><time>2026-05-04T10:22:43Z</time></trkpt><trkpt lat="31.978531108253247" lon="-6.0782405993024495"><ele>1754.6666666666665</ele><time>2026-05-04T10:22:44Z</time></trkpt><trkpt lat="31.978472764645815" lon="-6.07818176125824"><ele>1755.3333333333333</ele><time>2026-05-04T10:22:45Z</time></trkpt><trkpt lat="31.978416144616734" lon="-6.078122374737515"><ele>1756.0</ele><time>2026-05-04T10:22:46Z</time></trkpt><trkpt lat="31.978342648497076" lon="-6.078050918827289"><ele>1756.6666666666665</ele><time>2026-05-04T10:22:48Z</time></trkpt><trkpt lat="31.97828281817802" lon="-6.078100417408313"><ele>1757.3333333333333</ele><time>2026-05-04T10:22:49Z</time></trkpt><trkpt lat="31.978237230774486" lon="-6.078191134055581"><ele>1758.0</ele><time>2026-05-04T10:22:50Z</time></trkpt><trkpt lat="31.978190827700523" lon="-6.0782997969272525"><ele>1758.0</ele><time>2026-05-04T10:22:51Z</time></trkpt><trkpt lat="31.97814656550153" lon="-6.078388299204232"><ele>1758.0</ele><time>2026-05-04T10:22:52Z</time></trkpt><trkpt lat="31.978094439181465" lon="-6.078457389751687"><ele>1758.0</ele><time>2026-05-04T10:22:53Z</time></trkpt><trkpt lat="31.978053539331086" lon="-6.078537768331472"><ele>1758.0</ele><time>2026-05-04T10:22:54Z</time></trkpt><trkpt lat="31.978037440495584" lon="-6.078637113945221"><ele>1758.0</ele><time>2026-05-04T10:22:55Z</time></trkpt><trkpt lat="31.978054259980656" lon="-6.078749496616083"><ele>1758.0</ele><time>2026-05-04T10:22:56Z</time></trkpt><trkpt lat="31.97808694585306" lon="-6.078858599163067"><ele>1758.0</ele><time>2026-05-04T10:22:57Z</time></trkpt><trkpt lat="31.978109972892078" lon="-6.078981997073584"><ele>1758.0</ele><time>2026-05-04T10:22:58Z</time></trkpt><trkpt lat="31.978126676779567" lon="-6.079092417969837"><ele>1758.0</ele><time>2026-05-04T10:22:59Z</time></trkpt><trkpt lat="31.97814870269821" lon="-6.079193267773173"><ele>1758.0</ele><time>2026-05-04T10:23:00Z</time></trkpt><trkpt lat="31.978168289866208" lon="-6.079278432105557"><ele>1758.0</ele><time>2026-05-04T10:23:01Z</time></trkpt><trkpt lat="31.97818272247694" lon="-6.0793647963379325"><ele>1758.0</ele><time>2026-05-04T10:23:02Z</time></trkpt><trkpt lat="31.978186567786754" lon="-6.079444986363595"><ele>1755.2</ele><time>2026-05-04T10:23:03Z</time></trkpt><trkpt lat="31.97816857052333" lon="-6.079528995592865"><ele>1752.4</ele><time>2026-05-04T10:23:04Z</time></trkpt><trkpt lat="31.978121628098407" lon="-6.079607943416902"><ele>1749.6000000000001</ele><time>2026-05-04T10:23:05Z</time></trkpt><trkpt lat="31.97804980661323" lon="-6.079674440994256"><ele>1746.8000000000002</ele><time>2026-05-04T10:23:06Z</time></trkpt><trkpt lat="31.977949058313335" lon="-6.079739413988896"><ele>1744.0</ele><time>2026-05-04T10:23:07Z</time></trkpt><trkpt lat="31.977829061090578" lon="-6.079801281981976"><ele>1744.0</ele><time>2026-05-04T10:23:08Z</time></trkpt><trkpt lat="31.97769954643406" lon="-6.079857344781273"><ele>1744.0</ele><time>2026-05-04T10:23:09Z</time></trkpt><trkpt lat="31.977585098824765" lon="-6.079936657672849"><ele>1744.0</ele><time>2026-05-04T10:23:10Z</time></trkpt><trkpt lat="31.97748204007571" lon="-6.08001505711803"><ele>1744.0</ele><time>2026-05-04T10:23:11Z</time></trkpt><trkpt lat="31.977377365570337" lon="-6.080112468159234"><ele>1743.75</ele><time>2026-05-04T10:23:12Z</time></trkpt><trkpt lat="31.97728224346021" lon="-6.080200989672509"><ele>1743.5</ele><time>2026-05-04T10:23:13Z</time></trkpt><trkpt lat="31.97719597125551" lon="-6.080287866300563"><ele>1743.25</ele><time>2026-05-04T10:23:14Z</time></trkpt><trkpt lat="31.977105285628323" lon="-6.080379063859171"><ele>1743.0</ele><time>2026-05-04T10:23:15Z</time></trkpt><trkpt lat="31.976997334763684" lon="-6.08045245219247"><ele>1743.0</ele><time>2026-05-04T10:23:16Z</time></trkpt><trkpt lat="31.976903483020777" lon="-6.080551200699123"><ele>1743.0</ele><time>2026-05-04T10:23:17Z</time></trkpt><trkpt lat="31.97678010093384" lon="-6.08057498529453"><ele>1743.0</ele><time>2026-05-04T10:23:18Z</time></trkpt><trkpt lat="31.976667044008103" lon="-6.0806117542006195"><ele>1743.0</ele><time>2026-05-04T10:23:19Z</time></trkpt><trkpt lat="31.976564645691024" lon="-6.080657694643642"><ele>1740.8000000000002</ele><time>2026-05-04T10:23:20Z</time></trkpt><trkpt lat="31.97647358362851" lon="-6.080686279315242"><ele>1738.6000000000001</ele><time>2026-05-04T10:23:21Z</time></trkpt><trkpt lat="31.976405140548515" lon="-6.080730295650624"><ele>1736.3999999999999</ele><time>2026-05-04T10:23:22Z</time></trkpt><trkpt lat="31.97633195335313" lon="-6.080796351028265"><ele>1734.1999999999998</ele><time>2026-05-04T10:23:23Z</time></trkpt><trkpt lat="31.976258003904572" lon="-6.080871586604322"><ele>1732.0</ele><time>2026-05-04T10:23:24Z</time></trkpt><trkpt lat="31.97617407898945" lon="-6.080981419515182"><ele>1732.0</ele><time>2026-05-04T10:23:25Z</time></trkpt><trkpt lat="31.97608955521814" lon="-6.081096578963094"><ele>1732.0</ele><time>2026-05-04T10:23:26Z</time></trkpt><trkpt lat="31.976020460003653" lon="-6.0812053246364215"><ele>1732.0</ele><time>2026-05-04T10:23:27Z</time></trkpt><trkpt lat="31.975958273462105" lon="-6.081311971691"><ele>1732.0</ele><time>2026-05-04T10:23:28Z</time></trkpt><trkpt lat="31.97589924802611" lon="-6.081413387964787"><ele>1730.0</ele><time>2026-05-04T10:23:29Z</time></trkpt><trkpt lat="31.975841183773436" lon="-6.081512165489529"><ele>1727.9999999999998</ele><time>2026-05-04T10:23:30Z</time></trkpt><trkpt lat="31.975781287290935" lon="-6.081604554246642"><ele>1725.9999999999998</ele><time>2026-05-04T10:23:31Z</time></trkpt><trkpt lat="31.975713618375377" lon="-6.081687206714027"><ele>1724.0</ele><time>2026-05-04T10:23:32Z</time></trkpt><trkpt lat="31.975639295690968" lon="-6.081743960122156"><ele>1722.0</ele><time>2026-05-04T10:23:33Z</time></trkpt><trkpt lat="31.975552370486234" lon="-6.081781794367115"><ele>1722.0</ele><time>2026-05-04T10:23:34Z</time></trkpt><trkpt lat="31.975461034101635" lon="-6.081798073010103"><ele>1721.9999999999998</ele><time>2026-05-04T10:23:35Z</time></trkpt><trkpt lat="31.975369035344176" lon="-6.081823175619526"><ele>1721.9999999999998</ele><time>2026-05-04T10:23:36Z</time></trkpt><trkpt lat="31.975255367268744" lon="-6.081769204451714"><ele>1722.0</ele><time>2026-05-04T10:23:37Z</time></trkpt><trkpt lat="31.975145696578572" lon="-6.0817005334129615"><ele>1722.0</ele><time>2026-05-04T10:23:38Z</time></trkpt><trkpt lat="31.97503721620075" lon="-6.0815999244854195"><ele>1728.8</ele><time>2026-05-04T10:23:39Z</time></trkpt><trkpt lat="31.97493174036745" lon="-6.08152184995563"><ele>1735.6</ele><time>2026-05-04T10:23:40Z</time></trkpt><trkpt lat="31.974850581007928" lon="-6.081447882190724"><ele>1742.3999999999999</ele><time>2026-05-04T10:23:41Z</time></trkpt><trkpt lat="31.974782770005202" lon="-6.081379186061147"><ele>1749.1999999999998</ele><time>2026-05-04T10:23:42Z</time></trkpt><trkpt lat="31.97471674527804" lon="-6.081366461400507"><ele>1756.0</ele><time>2026-05-04T10:23:43Z</time></trkpt><trkpt lat="31.974618205957682" lon="-6.08137806797818"><ele>1756.0</ele><time>2026-05-04T10:23:45Z</time></trkpt><trkpt lat="31.97457392980827" lon="-6.081521894602872"><ele>1756.0</ele><time>2026-05-04T10:23:47Z</time></trkpt><trkpt lat="31.974581180769263" lon="-6.081630669469457"><ele>1756.0</ele><time>2026-05-04T10:23:48Z</time></trkpt><trkpt lat="31.974584860439553" lon="-6.081753662132409"><ele>1756.0</ele><time>2026-05-04T10:23:49Z</time></trkpt><trkpt lat="31.974570038707174" lon="-6.081869840327229"><ele>1756.0</ele><time>2026-05-04T10:23:50Z</time></trkpt><trkpt lat="31.97458549031732" lon="-6.081967522765891"><ele>1752.0</ele><time>2026-05-04T10:23:51Z</time></trkpt><trkpt lat="31.974588624407456" lon="-6.082043236670395"><ele>1748.0</ele><time>2026-05-04T10:23:52Z</time></trkpt><trkpt lat="31.974578620907494" lon="-6.0821592801307425"><ele>1744.0</ele><time>2026-05-04T10:23:54Z</time></trkpt><trkpt lat="31.974455448646903" lon="-6.082171911660506"><ele>1740.0</ele><time>2026-05-04T10:23:55Z</time></trkpt><trkpt lat="31.97437613888774" lon="-6.082165882451911"><ele>1736.0</ele><time>2026-05-04T10:23:56Z</time></trkpt><trkpt lat="31.974291368774402" lon="-6.082146527063845"><ele>1736.0</ele><time>2026-05-04T10:23:57Z</time></trkpt><trkpt lat="31.97421720644881" lon="-6.081966989508536"><ele>1736.0</ele><time>2026-05-04T10:23:58Z</time></trkpt><trkpt lat="31.974084896072682" lon="-6.081895859205577"><ele>1736.0</ele><time>2026-05-04T10:23:59Z</time></trkpt><trkpt lat="31.973963670536147" lon="-6.081837410381949"><ele>1736.0</ele><time>2026-05-04T10:24:00Z</time></trkpt><trkpt lat="31.973831332507558" lon="-6.081801445178773"><ele>1738.5</ele><time>2026-05-04T10:24:00.999Z</time></trkpt><trkpt lat="31.97368549793296" lon="-6.0817565180769915"><ele>1741.0</ele><time>2026-05-04T10:24:01.999Z</time></trkpt><trkpt lat="31.97355176176788" lon="-6.081782969096902"><ele>1743.5</ele><time>2026-05-04T10:24:02.999Z</time></trkpt><trkpt lat="31.97342788962798" lon="-6.081806571280367"><ele>1746.0</ele><time>2026-05-04T10:24:03.999Z</time></trkpt><trkpt lat="31.973304823584346" lon="-6.081828740431273"><ele>1746.0</ele><time>2026-05-04T10:24:04.999Z</time></trkpt><trkpt lat="31.973186945309752" lon="-6.081843574657829"><ele>1746.0</ele><time>2026-05-04T10:24:05.999Z</time></trkpt><trkpt lat="31.97308531417731" lon="-6.081870130630902"><ele>1746.0</ele><time>2026-05-04T10:24:06.999Z</time></trkpt><trkpt lat="31.972982714091973" lon="-6.081868137504863"><ele>1746.0</ele><time>2026-05-04T10:24:07.999Z</time></trkpt><trkpt lat="31.97287242598108" lon="-6.081838178415254"><ele>1746.0</ele><time>2026-05-04T10:24:08.999Z</time></trkpt><trkpt lat="31.972747230000426" lon="-6.081776194876901"><ele>1746.0</ele><time>2026-05-04T10:24:09.999Z</time></trkpt><trkpt lat="31.9726064293464" lon="-6.081694635693004"><ele>1746.0</ele><time>2026-05-04T10:24:10.999Z</time></trkpt><trkpt lat="31.97248005523876" lon="-6.08162179584517"><ele>1746.0</ele><time>2026-05-04T10:24:11.999Z</time></trkpt><trkpt lat="31.97236346177471" lon="-6.081556794333613"><ele>1746.0</ele><time>2026-05-04T10:24:12.999Z</time></trkpt><trkpt lat="31.972256808751276" lon="-6.081487870071437"><ele>1751.1999999999998</ele><time>2026-05-04T10:24:13.999Z</time></trkpt><trkpt lat="31.97215871962521" lon="-6.0814096163307525"><ele>1756.3999999999999</ele><time>2026-05-04T10:24:14.999Z</time></trkpt><trkpt lat="31.972062678452204" lon="-6.0813391201578595"><ele>1761.6</ele><time>2026-05-04T10:24:15.999Z</time></trkpt><trkpt lat="31.971980340014312" lon="-6.08128093556702"><ele>1766.8</ele><time>2026-05-04T10:24:16.999Z</time></trkpt><trkpt lat="31.971898436778663" lon="-6.0812534544145285"><ele>1772.0</ele><time>2026-05-04T10:24:17.999Z</time></trkpt><trkpt lat="31.971819862809678" lon="-6.0812523214382015"><ele>1772.0</ele><time>2026-05-04T10:24:18.999Z</time></trkpt><trkpt lat="31.97175327774324" lon="-6.081329169655701"><ele>1771.9999999999998</ele><time>2026-05-04T10:24:19.999Z</time></trkpt><trkpt lat="31.971689681768815" lon="-6.081397374198018"><ele>1771.9999999999998</ele><time>2026-05-04T10:24:20.999Z</time></trkpt><trkpt lat="31.97162912908024" lon="-6.081473354676977"><ele>1772.0</ele><time>2026-05-04T10:24:21.999Z</time></trkpt><trkpt lat="31.97154885670356" lon="-6.081575256226091"><ele>1772.0</ele><time>2026-05-04T10:24:22.999Z</time></trkpt><trkpt lat="31.97147564656611" lon="-6.081682531654158"><ele>1765.4999999999998</ele><time>2026-05-04T10:24:23.999Z</time></trkpt><trkpt lat="31.971413098980218" lon="-6.081775281407216"><ele>1759.0</ele><time>2026-05-04T10:24:24.999Z</time></trkpt><trkpt lat="31.97135974560302" lon="-6.0818523830048274"><ele>1752.5</ele><time>2026-05-04T10:24:25.999Z</time></trkpt><trkpt lat="31.971351725942647" lon="-6.081934171245384"><ele>1746.0</ele><time>2026-05-04T10:24:26.999Z</time></trkpt><trkpt lat="31.971366791469055" lon="-6.082026999665821"><ele>1739.4999999999998</ele><time>2026-05-04T10:24:27.999Z</time></trkpt><trkpt lat="31.97142284516607" lon="-6.082116024936322"><ele>1733.0</ele><time>2026-05-04T10:24:28.999Z</time></trkpt><trkpt lat="31.971478144254682" lon="-6.082224118564522"><ele>1733.0</ele><time>2026-05-04T10:24:29.999Z</time></trkpt><trkpt lat="31.971529832316502" lon="-6.082319805864112"><ele>1733.0000000000002</ele><time>2026-05-04T10:24:30.999Z</time></trkpt><trkpt lat="31.97156012994009" lon="-6.082426017750474"><ele>1733.0000000000002</ele><time>2026-05-04T10:24:31.999Z</time></trkpt><trkpt lat="31.971564900289344" lon="-6.08253753714525"><ele>1733.0</ele><time>2026-05-04T10:24:32.999Z</time></trkpt><trkpt lat="31.971546751754406" lon="-6.082657288532565"><ele>1733.0</ele><time>2026-05-04T10:24:33.999Z</time></trkpt><trkpt lat="31.97151883613681" lon="-6.082782988589658"><ele>1732.0</ele><time>2026-05-04T10:24:34.999Z</time></trkpt><trkpt lat="31.971484942889703" lon="-6.082918073493099"><ele>1731.0</ele><time>2026-05-04T10:24:35.999Z</time></trkpt><trkpt lat="31.97147480583989" lon="-6.083072649488027"><ele>1730.0</ele><time>2026-05-04T10:24:36.999Z</time></trkpt><trkpt lat="31.9714492956563" lon="-6.083232032127287"><ele>1729.0</ele><time>2026-05-04T10:24:37.999Z</time></trkpt><trkpt lat="31.97142593224782" lon="-6.083377285649765"><ele>1729.0</ele><time>2026-05-04T10:24:38.999Z</time></trkpt><trkpt lat="31.97140364663786" lon="-6.083513539992441"><ele>1729.0</ele><time>2026-05-04T10:24:39.999Z</time></trkpt><trkpt lat="31.971408812992657" lon="-6.0836434036276"><ele>1729.0</ele><time>2026-05-04T10:24:40.999Z</time></trkpt><trkpt lat="31.97141843550258" lon="-6.083781745089102"><ele>1729.0</ele><time>2026-05-04T10:24:41.999Z</time></trkpt><trkpt lat="31.971463517219927" lon="-6.083901319315998"><ele>1729.0</ele><time>2026-05-04T10:24:42.999Z</time></trkpt><trkpt lat="31.971510580839556" lon="-6.084025090608762"><ele>1729.0</ele><time>2026-05-04T10:24:43.999Z</time></trkpt><trkpt lat="31.971565134464733" lon="-6.084123763908608"><ele>1729.0</ele><time>2026-05-04T10:24:44.999Z</time></trkpt><trkpt lat="31.97159246432364" lon="-6.084231527107004"><ele>1729.0</ele><time>2026-05-04T10:24:45.999Z</time></trkpt><trkpt lat="31.971596832945895" lon="-6.084359003775385"><ele>1729.0</ele><time>2026-05-04T10:24:46.999Z</time></trkpt><trkpt lat="31.971589077394096" lon="-6.084491740475268"><ele>1730.2</ele><time>2026-05-04T10:24:47.999Z</time></trkpt><trkpt lat="31.97157070546832" lon="-6.084634578573154"><ele>1731.4</ele><time>2026-05-04T10:24:49Z</time></trkpt><trkpt lat="31.971541764868164" lon="-6.084762312339864"><ele>1732.6</ele><time>2026-05-04T10:24:50Z</time></trkpt><trkpt lat="31.971552123482724" lon="-6.084874563064976"><ele>1733.8</ele><time>2026-05-04T10:24:51Z</time></trkpt><trkpt lat="31.97155086887266" lon="-6.084991139422231"><ele>1735.0</ele><time>2026-05-04T10:24:52Z</time></trkpt><trkpt lat="31.97156927056232" lon="-6.08509148693297"><ele>1735.6666666666667</ele><time>2026-05-04T10:24:53Z</time></trkpt><trkpt lat="31.971591170762387" lon="-6.0852010660771425"><ele>1736.3333333333335</ele><time>2026-05-04T10:24:54Z</time></trkpt><trkpt lat="31.971620826131264" lon="-6.0852994074874225"><ele>1737.0</ele><time>2026-05-04T10:24:55Z</time></trkpt><trkpt lat="31.971630174038456" lon="-6.085394308929764"><ele>1737.6666666666665</ele><time>2026-05-04T10:24:56Z</time></trkpt><trkpt lat="31.97161806311526" lon="-6.085498459020413"><ele>1738.3333333333333</ele><time>2026-05-04T10:24:57Z</time></trkpt><trkpt lat="31.971585967079452" lon="-6.08559898832119"><ele>1739.0</ele><time>2026-05-04T10:24:58Z</time></trkpt><trkpt lat="31.971538643177265" lon="-6.085714422868411"><ele>1737.25</ele><time>2026-05-04T10:24:59Z</time></trkpt><trkpt lat="31.97149878630934" lon="-6.08584876014279"><ele>1735.5</ele><time>2026-05-04T10:25:00Z</time></trkpt><trkpt lat="31.971468802252172" lon="-6.085994699540052"><ele>1733.75</ele><time>2026-05-04T10:25:01Z</time></trkpt><trkpt lat="31.971434742987057" lon="-6.086123580170481"><ele>1732.0</ele><time>2026-05-04T10:25:02Z</time></trkpt><trkpt lat="31.971391143248162" lon="-6.086231838257399"><ele>1732.0000000000002</ele><time>2026-05-04T10:25:03Z</time></trkpt><trkpt lat="31.971339280376192" lon="-6.086311651922212"><ele>1732.0</ele><time>2026-05-04T10:25:04Z</time></trkpt><trkpt lat="31.971284576632915" lon="-6.086376881250646"><ele>1732.0</ele><time>2026-05-04T10:25:05Z</time></trkpt><trkpt lat="31.971226828113824" lon="-6.086430424326059"><ele>1732.0</ele><time>2026-05-04T10:25:06Z</time></trkpt><trkpt lat="31.971158036041036" lon="-6.086480016196894"><ele>1732.0000000000002</ele><time>2026-05-04T10:25:07Z</time></trkpt><trkpt lat="31.9710957298469" lon="-6.086512951452547"><ele>1732.0</ele><time>2026-05-04T10:25:08Z</time></trkpt><trkpt lat="31.971037876145214" lon="-6.086557007030746"><ele>1732.0</ele><time>2026-05-04T10:25:09Z</time></trkpt><trkpt lat="31.970951022342113" lon="-6.086494758340983"><ele>1731.9999999999998</ele><time>2026-05-04T10:25:10Z</time></trkpt><trkpt lat="31.970869668498125" lon="-6.086476073388748"><ele>1731.9999999999998</ele><time>2026-05-04T10:25:11Z</time></trkpt><trkpt lat="31.97080922586106" lon="-6.086449723600184"><ele>1732.0</ele><time>2026-05-04T10:25:12Z</time></trkpt><trkpt lat="31.970694505938994" lon="-6.08647056382107"><ele>1732.0</ele><time>2026-05-04T10:25:14Z</time></trkpt><trkpt lat="31.9706812280224" lon="-6.086580031361423"><ele>1734.8</ele><time>2026-05-04T10:25:15Z</time></trkpt><trkpt lat="31.970671028384785" lon="-6.086656335456537"><ele>1737.6</ele><time>2026-05-04T10:25:16Z</time></trkpt><trkpt lat="31.97063018845793" lon="-6.086750815843411"><ele>1740.3999999999999</ele><time>2026-05-04T10:25:17Z</time></trkpt><trkpt lat="31.970558204339717" lon="-6.086851572229373"><ele>1743.1999999999998</ele><time>2026-05-04T10:25:18Z</time></trkpt><trkpt lat="31.970492461021802" lon="-6.0869591883823695"><ele>1746.0</ele><time>2026-05-04T10:25:19Z</time></trkpt><trkpt lat="31.970410658902164" lon="-6.087076445850615"><ele>1746.0</ele><time>2026-05-04T10:25:20Z</time></trkpt><trkpt lat="31.970330686459437" lon="-6.087180825145874"><ele>1746.0</ele><time>2026-05-04T10:25:21Z</time></trkpt><trkpt lat="31.97026700803122" lon="-6.087265616455094"><ele>1746.0</ele><time>2026-05-04T10:25:22Z</time></trkpt><trkpt lat="31.97021368326836" lon="-6.087353826600897"><ele>1746.0</ele><time>2026-05-04T10:25:23Z</time></trkpt><trkpt lat="31.970158396548914" lon="-6.0874175744061505"><ele>1746.0</ele><time>2026-05-04T10:25:24Z</time></trkpt><trkpt lat="31.97012169608569" lon="-6.08748357337993"><ele>1744.75</ele><time>2026-05-04T10:25:25Z</time></trkpt><trkpt lat="31.96994578056801" lon="-6.087456784079893"><ele>1743.5</ele><time>2026-05-04T10:25:27Z</time></trkpt><trkpt lat="31.96984002326248" lon="-6.087435537155537"><ele>1742.25</ele><time>2026-05-04T10:25:29Z</time></trkpt><trkpt lat="31.96973587839629" lon="-6.087409109427379"><ele>1741.0</ele><time>2026-05-04T10:25:31Z</time></trkpt><trkpt lat="31.969605450217" lon="-6.087375422639851"><ele>1745.1999999999998</ele><time>2026-05-04T10:25:33Z</time></trkpt><trkpt lat="31.96950765186888" lon="-6.087328552745934"><ele>1749.3999999999999</ele><time>2026-05-04T10:25:34Z</time></trkpt><trkpt lat="31.969412807433326" lon="-6.087271890360365"><ele>1753.6</ele><time>2026-05-04T10:25:35Z</time></trkpt><trkpt lat="31.969310814825374" lon="-6.087219780786869"><ele>1757.8</ele><time>2026-05-04T10:25:36Z</time></trkpt><trkpt lat="31.96921153068558" lon="-6.0871483376545505"><ele>1762.0</ele><time>2026-05-04T10:25:37Z</time></trkpt><trkpt lat="31.96912101765814" lon="-6.087063054375964"><ele>1762.0</ele><time>2026-05-04T10:25:38Z</time></trkpt><trkpt lat="31.969030975798688" lon="-6.086983486051753"><ele>1761.9999999999998</ele><time>2026-05-04T10:25:39Z</time></trkpt><trkpt lat="31.968945053600148" lon="-6.08690929644016"><ele>1761.9999999999998</ele><time>2026-05-04T10:25:40Z</time></trkpt><trkpt lat="31.96886472882915" lon="-6.086841977392289"><ele>1762.0</ele><time>2026-05-04T10:25:41Z</time></trkpt><trkpt lat="31.96877061380768" lon="-6.086813334563064"><ele>1762.0</ele><time>2026-05-04T10:25:42Z</time></trkpt><trkpt lat="31.96867888447633" lon="-6.086776392656079"><ele>1762.0000000000002</ele><time>2026-05-04T10:25:43Z</time></trkpt><trkpt lat="31.968593295830008" lon="-6.08674070551496"><ele>1762.0</ele><time>2026-05-04T10:25:44Z</time></trkpt><trkpt lat="31.968525135068155" lon="-6.0866904607422"><ele>1762.0</ele><time>2026-05-04T10:25:45Z</time></trkpt><trkpt lat="31.968460282302257" lon="-6.086656999344671"><ele>1762.0</ele><time>2026-05-04T10:25:46Z</time></trkpt><trkpt lat="31.968390986975972" lon="-6.0866151807029905"><ele>1762.0000000000002</ele><time>2026-05-04T10:25:47Z</time></trkpt><trkpt lat="31.968368711405663" lon="-6.086512663782067"><ele>1762.0</ele><time>2026-05-04T10:25:48Z</time></trkpt><trkpt lat="31.968358239728666" lon="-6.086400867267938"><ele>1759.5000000000002</ele><time>2026-05-04T10:25:49Z</time></trkpt><trkpt lat="31.96835676551016" lon="-6.0862855508188085"><ele>1757.0</ele><time>2026-05-04T10:25:50Z</time></trkpt><trkpt lat="31.968360072994365" lon="-6.086183454091071"><ele>1754.5</ele><time>2026-05-04T10:25:51Z</time></trkpt><trkpt lat="31.968354372348962" lon="-6.086091277694823"><ele>1752.0</ele><time>2026-05-04T10:25:52Z</time></trkpt><trkpt lat="31.96832847230761" lon="-6.085999930727481"><ele>1749.5000000000002</ele><time>2026-05-04T10:25:53Z</time></trkpt><trkpt lat="31.968279010084963" lon="-6.085919249920173"><ele>1747.0</ele><time>2026-05-04T10:25:54Z</time></trkpt><trkpt lat="31.968206301461727" lon="-6.085843498015944"><ele>1747.0000000000002</ele><time>2026-05-04T10:25:55Z</time></trkpt><trkpt lat="31.96813752739291" lon="-6.0857655513593665"><ele>1747.0</ele><time>2026-05-04T10:25:56Z</time></trkpt><trkpt lat="31.968090017148725" lon="-6.085681117474104"><ele>1747.0</ele><time>2026-05-04T10:25:57Z</time></trkpt><trkpt lat="31.968062083787462" lon="-6.085589466285689"><ele>1747.0</ele><time>2026-05-04T10:25:58Z</time></trkpt><trkpt lat="31.96803799314558" lon="-6.08550031324545"><ele>1747.0000000000002</ele><time>2026-05-04T10:25:59Z</time></trkpt><trkpt lat="31.968001319280273" lon="-6.085409645413607"><ele>1747.0</ele><time>2026-05-04T10:26:00Z</time></trkpt><trkpt lat="31.967940760112214" lon="-6.085321171882591"><ele>1753.0</ele><time>2026-05-04T10:26:01Z</time></trkpt><trkpt lat="31.96786070175071" lon="-6.085232775511195"><ele>1759.0</ele><time>2026-05-04T10:26:02Z</time></trkpt><trkpt lat="31.967769108133858" lon="-6.085165563237838"><ele>1765.0</ele><time>2026-05-04T10:26:02.999Z</time></trkpt><trkpt lat="31.96766325698292" lon="-6.0851243555474355"><ele>1771.0</ele><time>2026-05-04T10:26:03.999Z</time></trkpt><trkpt lat="31.967544987613376" lon="-6.085053345133095"><ele>1772.5</ele><time>2026-05-04T10:26:04.999Z</time></trkpt><trkpt lat="31.96741710067113" lon="-6.085013798267253"><ele>1774.0</ele><time>2026-05-04T10:26:05.999Z</time></trkpt><trkpt lat="31.967300380137505" lon="-6.084969007152682"><ele>1775.5</ele><time>2026-05-04T10:26:06.999Z</time></trkpt><trkpt lat="31.96719224149664" lon="-6.084913183320889"><ele>1777.0</ele><time>2026-05-04T10:26:07.999Z</time></trkpt><trkpt lat="31.967091883548893" lon="-6.084860616602436"><ele>1777.0</ele><time>2026-05-04T10:26:08.999Z</time></trkpt><trkpt lat="31.967014152900234" lon="-6.084813622247683"><ele>1776.9999999999998</ele><time>2026-05-04T10:26:09.999Z</time></trkpt><trkpt lat="31.966941325698315" lon="-6.084780692933909"><ele>1776.9999999999998</ele><time>2026-05-04T10:26:10.999Z</time></trkpt><trkpt lat="31.96685311869441" lon="-6.084806365952031"><ele>1777.0</ele><time>2026-05-04T10:26:11.999Z</time></trkpt><trkpt lat="31.96676378002137" lon="-6.084843500286435"><ele>1777.0</ele><time>2026-05-04T10:26:12.999Z</time></trkpt><trkpt lat="31.96667121823997" lon="-6.0848990864694"><ele>1766.0</ele><time>2026-05-04T10:26:13.999Z</time></trkpt><trkpt lat="31.966570349447778" lon="-6.084971868954521"><ele>1754.9999999999998</ele><time>2026-05-04T10:26:14.999Z</time></trkpt><trkpt lat="31.966460211889487" lon="-6.0850285774370425"><ele>1743.9999999999998</ele><time>2026-05-04T10:26:15.999Z</time></trkpt><trkpt lat="31.966369717010988" lon="-6.085087454467461"><ele>1733.0</ele><time>2026-05-04T10:26:16.999Z</time></trkpt><trkpt lat="31.966279176612666" lon="-6.085134625292345"><ele>1722.0</ele><time>2026-05-04T10:26:17.999Z</time></trkpt><trkpt lat="31.966177748213646" lon="-6.085160200353161"><ele>1722.0</ele><time>2026-05-04T10:26:18.999Z</time></trkpt><trkpt lat="31.96606470441661" lon="-6.085166180339636"><ele>1721.9999999999998</ele><time>2026-05-04T10:26:19.999Z</time></trkpt><trkpt lat="31.965958170379885" lon="-6.085153070277461"><ele>1721.9999999999998</ele><time>2026-05-04T10:26:20.999Z</time></trkpt><trkpt lat="31.965852988014095" lon="-6.085150279237303"><ele>1722.0</ele><time>2026-05-04T10:26:21.999Z</time></trkpt><trkpt lat="31.965750043454435" lon="-6.085175130370722"><ele>1722.0</ele><time>2026-05-04T10:26:22.999Z</time></trkpt><trkpt lat="31.965646177347278" lon="-6.085224247065114"><ele>1723.75</ele><time>2026-05-04T10:26:23.999Z</time></trkpt><trkpt lat="31.965545580621885" lon="-6.085293863810987"><ele>1725.5</ele><time>2026-05-04T10:26:24.999Z</time></trkpt><trkpt lat="31.965440286925606" lon="-6.085354322828147"><ele>1727.25</ele><time>2026-05-04T10:26:25.999Z</time></trkpt><trkpt lat="31.965327419187272" lon="-6.085396328401066"><ele>1729.0</ele><time>2026-05-04T10:26:26.999Z</time></trkpt><trkpt lat="31.965210825849013" lon="-6.085419785110757"><ele>1729.0</ele><time>2026-05-04T10:26:27.999Z</time></trkpt><trkpt lat="31.965088860771402" lon="-6.085440251755048"><ele>1729.0</ele><time>2026-05-04T10:26:28.999Z</time></trkpt><trkpt lat="31.964973707963367" lon="-6.085466915736102"><ele>1729.0</ele><time>2026-05-04T10:26:29.999Z</time></trkpt><trkpt lat="31.964864819920567" lon="-6.085497748193989"><ele>1729.0</ele><time>2026-05-04T10:26:30.999Z</time></trkpt><trkpt lat="31.964756722176013" lon="-6.085537939681158"><ele>1730.75</ele><time>2026-05-04T10:26:31.999Z</time></trkpt><trkpt lat="31.964644090231353" lon="-6.085592652412748"><ele>1732.5</ele><time>2026-05-04T10:26:32.999Z</time></trkpt><trkpt lat="31.964540411864355" lon="-6.085683052165373"><ele>1734.25</ele><time>2026-05-04T10:26:33.999Z</time></trkpt><trkpt lat="31.964428978278857" lon="-6.085755429941755"><ele>1736.0</ele><time>2026-05-04T10:26:34.999Z</time></trkpt><trkpt lat="31.964317937871318" lon="-6.085823426266381"><ele>1728.75</ele><time>2026-05-04T10:26:35.999Z</time></trkpt><trkpt lat="31.96421508407031" lon="-6.085887009498227"><ele>1721.5</ele><time>2026-05-04T10:26:36.999Z</time></trkpt><trkpt lat="31.964110771899552" lon="-6.08595115962358"><ele>1714.25</ele><time>2026-05-04T10:26:37.999Z</time></trkpt><trkpt lat="31.96401034119385" lon="-6.0860126952066835"><ele>1707.0</ele><time>2026-05-04T10:26:38.999Z</time></trkpt><trkpt lat="31.963911196661403" lon="-6.086074777245808"><ele>1707.0</ele><time>2026-05-04T10:26:39.999Z</time></trkpt><trkpt lat="31.96381404112506" lon="-6.086134286714767"><ele>1706.9999999999998</ele><time>2026-05-04T10:26:40.999Z</time></trkpt><trkpt lat="31.96371049625465" lon="-6.086177643753607"><ele>1706.9999999999998</ele><time>2026-05-04T10:26:41.999Z</time></trkpt><trkpt lat="31.963626152792322" lon="-6.086249470233884"><ele>1707.0</ele><time>2026-05-04T10:26:42.999Z</time></trkpt><trkpt lat="31.963524888018647" lon="-6.086260971431175"><ele>1707.0</ele><time>2026-05-04T10:26:43.999Z</time></trkpt><trkpt lat="31.96342258105894" lon="-6.086301119955798"><ele>1704.75</ele><time>2026-05-04T10:26:44.999Z</time></trkpt><trkpt lat="31.963301084877955" lon="-6.0862694263457895"><ele>1702.5</ele><time>2026-05-04T10:26:45.999Z</time></trkpt><trkpt lat="31.963199125331094" lon="-6.086202792206658"><ele>1700.25</ele><time>2026-05-04T10:26:46.999Z</time></trkpt><trkpt lat="31.96309961246453" lon="-6.086150123051895"><ele>1698.0</ele><time>2026-05-04T10:26:47.999Z</time></trkpt><trkpt lat="31.962980479699493" lon="-6.086125684020626"><ele>1698.0</ele><time>2026-05-04T10:26:48.999Z</time></trkpt><trkpt lat="31.962861893323364" lon="-6.08613151580509"><ele>1698.0</ele><time>2026-05-04T10:26:49.999Z</time></trkpt><trkpt lat="31.962750066233944" lon="-6.086149747361674"><ele>1698.0</ele><time>2026-05-04T10:26:50.999Z</time></trkpt><trkpt lat="31.962639608711424" lon="-6.0861682016931224"><ele>1698.0</ele><time>2026-05-04T10:26:51.999Z</time></trkpt><trkpt lat="31.962530496019" lon="-6.086181462400344"><ele>1697.2</ele><time>2026-05-04T10:26:52.999Z</time></trkpt><trkpt lat="31.962432707129416" lon="-6.086203756233059"><ele>1696.4</ele><time>2026-05-04T10:26:53.999Z</time></trkpt><trkpt lat="31.962343755291243" lon="-6.086223043499796"><ele>1695.6000000000001</ele><time>2026-05-04T10:26:55Z</time></trkpt><trkpt lat="31.96225069339838" lon="-6.086232552328329"><ele>1694.8000000000002</ele><time>2026-05-04T10:26:56Z</time></trkpt><trkpt lat="31.962182349054245" lon="-6.086325528867869"><ele>1694.0</ele><time>2026-05-04T10:26:57Z</time></trkpt><trkpt lat="31.962114548345113" lon="-6.0864276077311885"><ele>1694.0</ele><time>2026-05-04T10:26:58Z</time></trkpt><trkpt lat="31.96203210619527" lon="-6.086537776944579"><ele>1694.0</ele><time>2026-05-04T10:26:59Z</time></trkpt><trkpt lat="31.961945403770045" lon="-6.086644166969008"><ele>1694.0</ele><time>2026-05-04T10:27:00Z</time></trkpt><trkpt lat="31.961865617518463" lon="-6.086738199526661"><ele>1694.0</ele><time>2026-05-04T10:27:01Z</time></trkpt><trkpt lat="31.961786174698826" lon="-6.086832464333114"><ele>1693.8000000000002</ele><time>2026-05-04T10:27:02Z</time></trkpt><trkpt lat="31.961709800542465" lon="-6.086923158690652"><ele>1693.6000000000001</ele><time>2026-05-04T10:27:03Z</time></trkpt><trkpt lat="31.961635414985768" lon="-6.087013098417559"><ele>1693.4</ele><time>2026-05-04T10:27:04Z</time></trkpt><trkpt lat="31.96156098419455" lon="-6.087102122569566"><ele>1693.2</ele><time>2026-05-04T10:27:05Z</time></trkpt><trkpt lat="31.96148857465909" lon="-6.087188273381877"><ele>1693.0</ele><time>2026-05-04T10:27:06Z</time></trkpt><trkpt lat="31.96141568188331" lon="-6.087276305720437"><ele>1693.0000000000002</ele><time>2026-05-04T10:27:07Z</time></trkpt><trkpt lat="31.961343488944973" lon="-6.087361605429661"><ele>1693.0</ele><time>2026-05-04T10:27:08Z</time></trkpt><trkpt lat="31.96128811340454" lon="-6.087446148139818"><ele>1693.0</ele><time>2026-05-04T10:27:09Z</time></trkpt><trkpt lat="31.961237619516034" lon="-6.087520477874352"><ele>1693.0</ele><time>2026-05-04T10:27:10Z</time></trkpt><trkpt lat="31.96123668283084" lon="-6.0876136222150725"><ele>1693.0000000000002</ele><time>2026-05-04T10:27:11Z</time></trkpt><trkpt lat="31.96125783191812" lon="-6.087697241290037"><ele>1693.0</ele><time>2026-05-04T10:27:12Z</time></trkpt><trkpt lat="31.961314575959097" lon="-6.087750513537856"><ele>1692.5</ele><time>2026-05-04T10:27:13Z</time></trkpt><trkpt lat="31.961379384275887" lon="-6.087869320394147"><ele>1692.0</ele><time>2026-05-04T10:27:15Z</time></trkpt><trkpt lat="31.961367304378232" lon="-6.087988722109617"><ele>1691.5</ele><time>2026-05-04T10:27:17Z</time></trkpt><trkpt lat="31.96125590548987" lon="-6.088031351704011"><ele>1691.0</ele><time>2026-05-04T10:27:19Z</time></trkpt><trkpt lat="31.96116750180048" lon="-6.087947625336458"><ele>1691.0</ele><time>2026-05-04T10:27:21Z</time></trkpt><trkpt lat="31.96112849245176" lon="-6.087789540414707"><ele>1691.0</ele><time>2026-05-04T10:27:23Z</time></trkpt><trkpt lat="31.961073302340793" lon="-6.087702178448074"><ele>1691.0</ele><time>2026-05-04T10:27:24Z</time></trkpt><trkpt lat="31.961041634232544" lon="-6.087591036558067"><ele>1691.0</ele><time>2026-05-04T10:27:25Z</time></trkpt><trkpt lat="31.961001217062734" lon="-6.087499059598922"><ele>1691.0</ele><time>2026-05-04T10:27:26Z</time></trkpt><trkpt lat="31.960975967998525" lon="-6.087402707664247"><ele>1691.4</ele><time>2026-05-04T10:27:27Z</time></trkpt><trkpt lat="31.96097720019542" lon="-6.087295365795373"><ele>1691.8</ele><time>2026-05-04T10:27:28Z</time></trkpt><trkpt lat="31.961003264617613" lon="-6.087180999740214"><ele>1692.2</ele><time>2026-05-04T10:27:29Z</time></trkpt><trkpt lat="31.96101227829745" lon="-6.0870769350276515"><ele>1692.6000000000001</ele><time>2026-05-04T10:27:30Z</time></trkpt><trkpt lat="31.960990123681402" lon="-6.086973047545142"><ele>1693.0</ele><time>2026-05-04T10:27:31Z</time></trkpt><trkpt lat="31.960964203228485" lon="-6.086878787105426"><ele>1693.0</ele><time>2026-05-04T10:27:32Z</time></trkpt><trkpt lat="31.960955009969016" lon="-6.086777399000284"><ele>1693.0</ele><time>2026-05-04T10:27:33Z</time></trkpt><trkpt lat="31.960974100277724" lon="-6.086672374333493"><ele>1693.0</ele><time>2026-05-04T10:27:34Z</time></trkpt><trkpt lat="31.961014327877617" lon="-6.0865513351949225"><ele>1693.0</ele><time>2026-05-04T10:27:35Z</time></trkpt><trkpt lat="31.96106618966344" lon="-6.086429191371889"><ele>1693.0</ele><time>2026-05-04T10:27:36Z</time></trkpt><trkpt lat="31.961119274428714" lon="-6.086317383065072"><ele>1689.6000000000001</ele><time>2026-05-04T10:27:37Z</time></trkpt><trkpt lat="31.96118084087607" lon="-6.086211301690436"><ele>1686.2</ele><time>2026-05-04T10:27:38Z</time></trkpt><trkpt lat="31.961246988798823" lon="-6.086105631796142"><ele>1682.8</ele><time>2026-05-04T10:27:39Z</time></trkpt><trkpt lat="31.961302906779096" lon="-6.085993985965458"><ele>1679.4</ele><time>2026-05-04T10:27:40Z</time></trkpt><trkpt lat="31.96135536991513" lon="-6.085879225609463"><ele>1676.0</ele><time>2026-05-04T10:27:41Z</time></trkpt><trkpt lat="31.961404997528607" lon="-6.085763793348232"><ele>1673.1999999999998</ele><time>2026-05-04T10:27:42Z</time></trkpt><trkpt lat="31.9614400036098" lon="-6.0856457552408"><ele>1670.3999999999999</ele><time>2026-05-04T10:27:43Z</time></trkpt><trkpt lat="31.961464088606572" lon="-6.085523396796983"><ele>1667.6</ele><time>2026-05-04T10:27:44Z</time></trkpt><trkpt lat="31.96147777620347" lon="-6.0854044942579355"><ele>1664.8</ele><time>2026-05-04T10:27:45Z</time></trkpt><trkpt lat="31.961480431939073" lon="-6.085292245892581"><ele>1662.0</ele><time>2026-05-04T10:27:46Z</time></trkpt><trkpt lat="31.961485887489914" lon="-6.08519040590839"><ele>1662.0</ele><time>2026-05-04T10:27:47Z</time></trkpt><trkpt lat="31.961503414328835" lon="-6.085098427995873"><ele>1662.0</ele><time>2026-05-04T10:27:48Z</time></trkpt><trkpt lat="31.961537591050902" lon="-6.085014549304619"><ele>1662.0</ele><time>2026-05-04T10:27:49Z</time></trkpt><trkpt lat="31.961586014856636" lon="-6.0849403180318635"><ele>1662.0</ele><time>2026-05-04T10:27:50Z</time></trkpt><trkpt lat="31.96165406559841" lon="-6.08486983352825"><ele>1662.0</ele><time>2026-05-04T10:27:51Z</time></trkpt><trkpt lat="31.961737100008097" lon="-6.084805903439716"><ele>1662.0</ele><time>2026-05-04T10:27:52Z</time></trkpt><trkpt lat="31.961830805424388" lon="-6.084747069013939"><ele>1661.8</ele><time>2026-05-04T10:27:53Z</time></trkpt><trkpt lat="31.96192755604878" lon="-6.0846849435882095"><ele>1661.6</ele><time>2026-05-04T10:27:54Z</time></trkpt><trkpt lat="31.962016571577696" lon="-6.08462911371002"><ele>1661.3999999999999</ele><time>2026-05-04T10:27:55Z</time></trkpt><trkpt lat="31.962098113589253" lon="-6.084574113825528"><ele>1661.1999999999998</ele><time>2026-05-04T10:27:56Z</time></trkpt><trkpt lat="31.962159462431476" lon="-6.084524747058545"><ele>1661.0</ele><time>2026-05-04T10:27:57Z</time></trkpt><trkpt lat="31.962254012718578" lon="-6.084447856298828"><ele>1661.0</ele><time>2026-05-04T10:27:59Z</time></trkpt><trkpt lat="31.962350822735633" lon="-6.084390643974163"><ele>1661.0</ele><time>2026-05-04T10:28:00.999Z</time></trkpt><trkpt lat="31.962435255637573" lon="-6.084349914769345"><ele>1661.0</ele><time>2026-05-04T10:28:03.999Z</time></trkpt><trkpt lat="31.96251708354917" lon="-6.084254441197972"><ele>1661.0</ele><time>2026-05-04T10:28:05.999Z</time></trkpt><trkpt lat="31.962522043010622" lon="-6.084165720973362"><ele>1661.0</ele><time>2026-05-04T10:28:06.999Z</time></trkpt><trkpt lat="31.96250487256404" lon="-6.084071762999868"><ele>1658.8</ele><time>2026-05-04T10:28:07.999Z</time></trkpt><trkpt lat="31.962481897056062" lon="-6.083976879915575"><ele>1656.6</ele><time>2026-05-04T10:28:08.999Z</time></trkpt><trkpt lat="31.962485131176507" lon="-6.0838749601550655"><ele>1654.4</ele><time>2026-05-04T10:28:09.999Z</time></trkpt><trkpt lat="31.962513330272422" lon="-6.083752629076538"><ele>1652.2</ele><time>2026-05-04T10:28:10.999Z</time></trkpt><trkpt lat="31.96255626299206" lon="-6.083641395578739"><ele>1650.0</ele><time>2026-05-04T10:28:11.999Z</time></trkpt><trkpt lat="31.962605907331767" lon="-6.083531099000161"><ele>1652.6</ele><time>2026-05-04T10:28:12.999Z</time></trkpt><trkpt lat="31.96264710406135" lon="-6.083413469969566"><ele>1655.2</ele><time>2026-05-04T10:28:13.999Z</time></trkpt><trkpt lat="31.962668393079632" lon="-6.083298309654183"><ele>1657.8000000000002</ele><time>2026-05-04T10:28:14.999Z</time></trkpt><trkpt lat="31.96267273118768" lon="-6.0831769418774275"><ele>1660.4</ele><time>2026-05-04T10:28:15.999Z</time></trkpt><trkpt lat="31.962661858162242" lon="-6.083044967878983"><ele>1663.0</ele><time>2026-05-04T10:28:16.999Z</time></trkpt><trkpt lat="31.962652844256382" lon="-6.082914042977968"><ele>1663.0</ele><time>2026-05-04T10:28:17.999Z</time></trkpt><trkpt lat="31.96265117829706" lon="-6.082795499275217"><ele>1663.0</ele><time>2026-05-04T10:28:18.999Z</time></trkpt><trkpt lat="31.96265931043443" lon="-6.082678188629996"><ele>1663.0</ele><time>2026-05-04T10:28:19.999Z</time></trkpt><trkpt lat="31.96267758801882" lon="-6.082566610702198"><ele>1663.0</ele><time>2026-05-04T10:28:20.999Z</time></trkpt><trkpt lat="31.962691756839998" lon="-6.08246054708083"><ele>1663.0</ele><time>2026-05-04T10:28:21.999Z</time></trkpt><trkpt lat="31.962707764387574" lon="-6.082352129462532"><ele>1657.8000000000002</ele><time>2026-05-04T10:28:22.999Z</time></trkpt><trkpt lat="31.962721712405802" lon="-6.082248625829624"><ele>1652.6</ele><time>2026-05-04T10:28:23.999Z</time></trkpt><trkpt lat="31.962736312445816" lon="-6.082136899727992"><ele>1647.4</ele><time>2026-05-04T10:28:24.999Z</time></trkpt><trkpt lat="31.96277321852459" lon="-6.082033103747359"><ele>1642.1999999999998</ele><time>2026-05-04T10:28:25.999Z</time></trkpt><trkpt lat="31.962822238347133" lon="-6.081942973107967"><ele>1637.0</ele><time>2026-05-04T10:28:26.999Z</time></trkpt><trkpt lat="31.962862412208107" lon="-6.081860681250326"><ele>1636.9999999999998</ele><time>2026-05-04T10:28:27.999Z</time></trkpt><trkpt lat="31.962944155786555" lon="-6.081820452234624"><ele>1637.0</ele><time>2026-05-04T10:28:28.999Z</time></trkpt><trkpt lat="31.96301929271235" lon="-6.081790193584608"><ele>1637.0</ele><time>2026-05-04T10:28:29.999Z</time></trkpt><trkpt lat="31.96309039812081" lon="-6.081760976371807"><ele>1637.0</ele><time>2026-05-04T10:28:30.999Z</time></trkpt><trkpt lat="31.963184705794728" lon="-6.0817892571073875"><ele>1636.9999999999998</ele><time>2026-05-04T10:28:31.999Z</time></trkpt><trkpt lat="31.963263783437736" lon="-6.081868407181519"><ele>1637.0</ele><time>2026-05-04T10:28:32.999Z</time></trkpt><trkpt lat="31.963333539249312" lon="-6.081912777497105"><ele>1639.3333333333333</ele><time>2026-05-04T10:28:33.999Z</time></trkpt><trkpt lat="31.963394362229828" lon="-6.081935164747935"><ele>1641.6666666666665</ele><time>2026-05-04T10:28:34.999Z</time></trkpt><trkpt lat="31.963457418096407" lon="-6.0819570411412744"><ele>1644.0</ele><time>2026-05-04T10:28:35.999Z</time></trkpt><trkpt lat="31.963527780560927" lon="-6.08190096145705"><ele>1646.3333333333335</ele><time>2026-05-04T10:28:36.999Z</time></trkpt><trkpt lat="31.963604740735033" lon="-6.081826084774577"><ele>1648.6666666666667</ele><time>2026-05-04T10:28:37.999Z</time></trkpt><trkpt lat="31.96369039910635" lon="-6.081743232963833"><ele>1651.0</ele><time>2026-05-04T10:28:38.999Z</time></trkpt><trkpt lat="31.963766506278812" lon="-6.081677907405985"><ele>1651.0000000000002</ele><time>2026-05-04T10:28:39.999Z</time></trkpt><trkpt lat="31.963845752003113" lon="-6.0816329983942765"><ele>1651.0</ele><time>2026-05-04T10:28:40.999Z</time></trkpt><trkpt lat="31.96392387614841" lon="-6.081594959054739"><ele>1651.0</ele><time>2026-05-04T10:28:41.999Z</time></trkpt><trkpt lat="31.963991775286534" lon="-6.081544077020483"><ele>1651.0</ele><time>2026-05-04T10:28:42.999Z</time></trkpt><trkpt lat="31.964055350978224" lon="-6.081492960338349"><ele>1651.0000000000002</ele><time>2026-05-04T10:28:43.999Z</time></trkpt><trkpt lat="31.964111804855673" lon="-6.081441899982014"><ele>1651.0</ele><time>2026-05-04T10:28:44.999Z</time></trkpt><trkpt lat="31.96417657385319" lon="-6.081409869248977"><ele>1653.1999999999998</ele><time>2026-05-04T10:28:45.999Z</time></trkpt><trkpt lat="31.964246131922874" lon="-6.081388622836482"><ele>1655.3999999999999</ele><time>2026-05-04T10:28:46.999Z</time></trkpt><trkpt lat="31.964342366114607" lon="-6.081296198784697"><ele>1657.6</ele><time>2026-05-04T10:28:48.999Z</time></trkpt><trkpt lat="31.964355252331668" lon="-6.081203365654045"><ele>1659.8</ele><time>2026-05-04T10:28:49.999Z</time></trkpt><trkpt lat="31.96434372379505" lon="-6.081078658513192"><ele>1662.0</ele><time>2026-05-04T10:28:50.999Z</time></trkpt><trkpt lat="31.964338140291275" lon="-6.080953453399341"><ele>1662.0</ele><time>2026-05-04T10:28:51.999Z</time></trkpt><trkpt lat="31.964342689444663" lon="-6.080825758541851"><ele>1662.0</ele><time>2026-05-04T10:28:52.999Z</time></trkpt><trkpt lat="31.964355326242448" lon="-6.080706782212561"><ele>1662.0</ele><time>2026-05-04T10:28:53.999Z</time></trkpt><trkpt lat="31.96436586807455" lon="-6.080596425373263"><ele>1662.0</ele><time>2026-05-04T10:28:54.999Z</time></trkpt><trkpt lat="31.96438506543939" lon="-6.080499898867564"><ele>1662.0</ele><time>2026-05-04T10:28:55.999Z</time></trkpt><trkpt lat="31.964417980194952" lon="-6.080408409069254"><ele>1658.3333333333333</ele><time>2026-05-04T10:28:56.999Z</time></trkpt><trkpt lat="31.96446190613327" lon="-6.080316119954011"><ele>1654.6666666666665</ele><time>2026-05-04T10:28:57.999Z</time></trkpt><trkpt lat="31.964518933692904" lon="-6.080238720815188"><ele>1651.0</ele><time>2026-05-04T10:28:58.999Z</time></trkpt><trkpt lat="31.964582800273387" lon="-6.080171794696224"><ele>1647.3333333333333</ele><time>2026-05-04T10:28:59.999Z</time></trkpt><trkpt lat="31.96465357814396" lon="-6.080121345875982"><ele>1643.6666666666665</ele><time>2026-05-04T10:29:01Z</time></trkpt><trkpt lat="31.964733938104665" lon="-6.080083388139722"><ele>1640.0</ele><time>2026-05-04T10:29:02Z</time></trkpt><trkpt lat="31.96481591741134" lon="-6.080060524918155"><ele>1639.9999999999998</ele><time>2026-05-04T10:29:03Z</time></trkpt><trkpt lat="31.964891114983054" lon="-6.0800410698027365"><ele>1640.0</ele><time>2026-05-04T10:29:04Z</time></trkpt><trkpt lat="31.96496222078446" lon="-6.080008660498308"><ele>1640.0</ele><time>2026-05-04T10:29:05Z</time></trkpt><trkpt lat="31.965021112625767" lon="-6.079950647787165"><ele>1640.0</ele><time>2026-05-04T10:29:06Z</time></trkpt><trkpt lat="31.96509408547726" lon="-6.079923967080691"><ele>1639.9999999999998</ele><time>2026-05-04T10:29:07Z</time></trkpt><trkpt lat="31.965154953690437" lon="-6.079821358422564"><ele>1640.0</ele><time>2026-05-04T10:29:08Z</time></trkpt><trkpt lat="31.965098410881755" lon="-6.079665910806645"><ele>1642.9999999999998</ele><time>2026-05-04T10:29:09Z</time></trkpt><trkpt lat="31.96507303890245" lon="-6.079591884672576"><ele>1646.0</ele><time>2026-05-04T10:29:10Z</time></trkpt><trkpt lat="31.965076108772692" lon="-6.079456890500763"><ele>1649.0</ele><time>2026-05-04T10:29:12Z</time></trkpt><trkpt lat="31.965125330065465" lon="-6.079396278950216"><ele>1652.0</ele><time>2026-05-04T10:29:13Z</time></trkpt><trkpt lat="31.96517770220709" lon="-6.0793394502970575"><ele>1654.9999999999998</ele><time>2026-05-04T10:29:14Z</time></trkpt><trkpt lat="31.96522207432466" lon="-6.079285773518809"><ele>1658.0</ele><time>2026-05-04T10:29:15Z</time></trkpt><trkpt lat="31.965275053022015" lon="-6.079237690316889"><ele>1658.0</ele><time>2026-05-04T10:29:16Z</time></trkpt><trkpt lat="31.965314316867985" lon="-6.079141595751378"><ele>1658.0</ele><time>2026-05-04T10:29:17Z</time></trkpt><trkpt lat="31.965213541013664" lon="-6.079040865997308"><ele>1658.0</ele><time>2026-05-04T10:29:18Z</time></trkpt><trkpt lat="31.965125107152435" lon="-6.0790170502011955"><ele>1658.0</ele><time>2026-05-04T10:29:19Z</time></trkpt><trkpt lat="31.96504216201999" lon="-6.0789785252810065"><ele>1658.0</ele><time>2026-05-04T10:29:20Z</time></trkpt><trkpt lat="31.96496728634801" lon="-6.078922426610073"><ele>1653.4999999999998</ele><time>2026-05-04T10:29:21Z</time></trkpt><trkpt lat="31.964908436381233" lon="-6.078846546559588"><ele>1649.0</ele><time>2026-05-04T10:29:22Z</time></trkpt><trkpt lat="31.964863431191446" lon="-6.078765347392503"><ele>1644.5</ele><time>2026-05-04T10:29:23Z</time></trkpt><trkpt lat="31.964815775619744" lon="-6.07869481722726"><ele>1640.0</ele><time>2026-05-04T10:29:24Z</time></trkpt><trkpt lat="31.964765147361188" lon="-6.078648759051822"><ele>1635.4999999999998</ele><time>2026-05-04T10:29:25Z</time></trkpt><trkpt lat="31.964646289179438" lon="-6.078642957871462"><ele>1631.0</ele><time>2026-05-04T10:29:27Z</time></trkpt><trkpt lat="31.96464571454424" lon="-6.078748669180955"><ele>1630.9999999999998</ele><time>2026-05-04T10:29:28Z</time></trkpt><trkpt lat="31.964590423006417" lon="-6.078812994836178"><ele>1631.0</ele><time>2026-05-04T10:29:29Z</time></trkpt><trkpt lat="31.96453222402146" lon="-6.078858979997614"><ele>1631.0</ele><time>2026-05-04T10:29:30Z</time></trkpt><trkpt lat="31.964465749976853" lon="-6.078909638333387"><ele>1631.0</ele><time>2026-05-04T10:29:31Z</time></trkpt><trkpt lat="31.964358487007157" lon="-6.0788987061521"><ele>1630.9999999999998</ele><time>2026-05-04T10:29:32Z</time></trkpt><trkpt lat="31.964260960916334" lon="-6.078921949552711"><ele>1631.0</ele><time>2026-05-04T10:29:33Z</time></trkpt><trkpt lat="31.964160512246245" lon="-6.078936255967696"><ele>1631.1999999999998</ele><time>2026-05-04T10:29:34Z</time></trkpt><trkpt lat="31.96406273220374" lon="-6.078939262219022"><ele>1631.3999999999999</ele><time>2026-05-04T10:29:35Z</time></trkpt><trkpt lat="31.96396991246514" lon="-6.07895665854784"><ele>1631.6</ele><time>2026-05-04T10:29:36Z</time></trkpt><trkpt lat="31.963878671023362" lon="-6.078988265356941"><ele>1631.8</ele><time>2026-05-04T10:29:37Z</time></trkpt><trkpt lat="31.963790137513758" lon="-6.07901693371418"><ele>1632.0</ele><time>2026-05-04T10:29:38Z</time></trkpt><trkpt lat="31.963701392058784" lon="-6.079035398356208"><ele>1632.0</ele><time>2026-05-04T10:29:39Z</time></trkpt><trkpt lat="31.963611778881145" lon="-6.079047859845848"><ele>1632.0</ele><time>2026-05-04T10:29:40Z</time></trkpt><trkpt lat="31.96352957600473" lon="-6.0790450981899165"><ele>1632.0</ele><time>2026-05-04T10:29:41Z</time></trkpt><trkpt lat="31.963441933883512" lon="-6.079023022854296"><ele>1632.0</ele><time>2026-05-04T10:29:42Z</time></trkpt><trkpt lat="31.96336923115556" lon="-6.0789686371303855"><ele>1632.0</ele><time>2026-05-04T10:29:43Z</time></trkpt><trkpt lat="31.963304967076756" lon="-6.078903377050461"><ele>1632.0</ele><time>2026-05-04T10:29:44Z</time></trkpt><trkpt lat="31.963250784345647" lon="-6.07885438977112"><ele>1630.6666666666667</ele><time>2026-05-04T10:29:45Z</time></trkpt><trkpt lat="31.963188384688845" lon="-6.07883026992926"><ele>1629.3333333333335</ele><time>2026-05-04T10:29:46Z</time></trkpt><trkpt lat="31.9631215334119" lon="-6.0788760274037825"><ele>1628.0</ele><time>2026-05-04T10:29:47Z</time></trkpt><trkpt lat="31.963043049930203" lon="-6.078886410266443"><ele>1626.6666666666667</ele><time>2026-05-04T10:29:48Z</time></trkpt><trkpt lat="31.962958546361563" lon="-6.078904555617549"><ele>1625.3333333333335</ele><time>2026-05-04T10:29:49Z</time></trkpt><trkpt lat="31.96287349718401" lon="-6.078901813963489"><ele>1624.0</ele><time>2026-05-04T10:29:50Z</time></trkpt><trkpt lat="31.96278822407725" lon="-6.078899810398464"><ele>1624.0000000000002</ele><time>2026-05-04T10:29:51Z</time></trkpt><trkpt lat="31.96270819317081" lon="-6.078901147006388"><ele>1624.0</ele><time>2026-05-04T10:29:52Z</time></trkpt><trkpt lat="31.96262626121539" lon="-6.078903729567965"><ele>1624.0</ele><time>2026-05-04T10:29:53Z</time></trkpt><trkpt lat="31.962541696064488" lon="-6.078921917606247"><ele>1624.0</ele><time>2026-05-04T10:29:54Z</time></trkpt><trkpt lat="31.962457505532587" lon="-6.07893128663185"><ele>1624.0000000000002</ele><time>2026-05-04T10:29:55Z</time></trkpt><trkpt lat="31.962376264679534" lon="-6.078909455724425"><ele>1624.0</ele><time>2026-05-04T10:29:56Z</time></trkpt><trkpt lat="31.962294938539987" lon="-6.078874374775002"><ele>1623.0000000000002</ele><time>2026-05-04T10:29:57Z</time></trkpt><trkpt lat="31.96221539378618" lon="-6.078847228689026"><ele>1622.0</ele><time>2026-05-04T10:29:58Z</time></trkpt><trkpt lat="31.962125765603094" lon="-6.0788523898578894"><ele>1621.0</ele><time>2026-05-04T10:29:58.999Z</time></trkpt><trkpt lat="31.962053911589646" lon="-6.078938233101442"><ele>1620.0</ele><time>2026-05-04T10:29:59.999Z</time></trkpt><trkpt lat="31.961969469367443" lon="-6.078968490139582"><ele>1619.0000000000002</ele><time>2026-05-04T10:30:00.999Z</time></trkpt><trkpt lat="31.961885094619596" lon="-6.078990258113156"><ele>1618.0</ele><time>2026-05-04T10:30:01.999Z</time></trkpt><trkpt lat="31.961799477915303" lon="-6.079026567052884"><ele>1618.0</ele><time>2026-05-04T10:30:02.999Z</time></trkpt><trkpt lat="31.96170390964301" lon="-6.079046709072853"><ele>1618.0</ele><time>2026-05-04T10:30:03.999Z</time></trkpt><trkpt lat="31.961609828801667" lon="-6.079054980626658"><ele>1618.0</ele><time>2026-05-04T10:30:04.999Z</time></trkpt><trkpt lat="31.96150491410571" lon="-6.079055194311402"><ele>1618.0</ele><time>2026-05-04T10:30:05.999Z</time></trkpt><trkpt lat="31.961405858043936" lon="-6.079044906840288"><ele>1618.0</ele><time>2026-05-04T10:30:06.999Z</time></trkpt><trkpt lat="31.961304572799794" lon="-6.079027756321972"><ele>1616.4</ele><time>2026-05-04T10:30:07.999Z</time></trkpt><trkpt lat="31.96120427016941" lon="-6.079011294552575"><ele>1614.8000000000002</ele><time>2026-05-04T10:30:08.999Z</time></trkpt><trkpt lat="31.961106221142593" lon="-6.079003818485904"><ele>1613.2</ele><time>2026-05-04T10:30:09.999Z</time></trkpt><trkpt lat="31.96100715744674" lon="-6.078992570864175"><ele>1611.6</ele><time>2026-05-04T10:30:10.999Z</time></trkpt><trkpt lat="31.960913675154675" lon="-6.078964922327544"><ele>1610.0</ele><time>2026-05-04T10:30:11.999Z</time></trkpt><trkpt lat="31.96081658072497" lon="-6.078927795187802"><ele>1607.2</ele><time>2026-05-04T10:30:12.999Z</time></trkpt><trkpt lat="31.96071179453437" lon="-6.07891886974758"><ele>1604.4</ele><time>2026-05-04T10:30:13.999Z</time></trkpt><trkpt lat="31.9606195901391" lon="-6.0789340771285465"><ele>1601.6</ele><time>2026-05-04T10:30:14.999Z</time></trkpt><trkpt lat="31.9605274920776" lon="-6.079000104436653"><ele>1598.8</ele><time>2026-05-04T10:30:15.999Z</time></trkpt><trkpt lat="31.960421617027635" lon="-6.079031678439442"><ele>1596.0</ele><time>2026-05-04T10:30:16.999Z</time></trkpt><trkpt lat="31.960321254681677" lon="-6.079078710141792"><ele>1588.1999999999998</ele><time>2026-05-04T10:30:17.999Z</time></trkpt><trkpt lat="31.96022287524446" lon="-6.079104731363678"><ele>1580.3999999999999</ele><time>2026-05-04T10:30:18.999Z</time></trkpt><trkpt lat="31.96012300406309" lon="-6.07912930242552"><ele>1572.6</ele><time>2026-05-04T10:30:19.999Z</time></trkpt><trkpt lat="31.960043963233698" lon="-6.079177045462256"><ele>1564.8</ele><time>2026-05-04T10:30:20.999Z</time></trkpt><trkpt lat="31.959965294110724" lon="-6.079216949332532"><ele>1557.0</ele><time>2026-05-04T10:30:21.999Z</time></trkpt><trkpt lat="31.95990678380649" lon="-6.079292347504478"><ele>1557.0</ele><time>2026-05-04T10:30:22.999Z</time></trkpt><trkpt lat="31.959852498390912" lon="-6.079386118764218"><ele>1557.0</ele><time>2026-05-04T10:30:23.999Z</time></trkpt><trkpt lat="31.959790559207647" lon="-6.079477223153138"><ele>1557.0</ele><time>2026-05-04T10:30:24.999Z</time></trkpt><trkpt lat="31.95972813967903" lon="-6.079575722579323"><ele>1557.0</ele><time>2026-05-04T10:30:25.999Z</time></trkpt><trkpt lat="31.959662745693837" lon="-6.079676723466383"><ele>1557.0</ele><time>2026-05-04T10:30:26.999Z</time></trkpt><trkpt lat="31.95958834847674" lon="-6.079764950208086"><ele>1557.0</ele><time>2026-05-04T10:30:27.999Z</time></trkpt><trkpt lat="31.95952464076873" lon="-6.079865440311401"><ele>1557.0</ele><time>2026-05-04T10:30:28.999Z</time></trkpt><trkpt lat="31.95945965263291" lon="-6.079955970035607"><ele>1557.0</ele><time>2026-05-04T10:30:29.999Z</time></trkpt><trkpt lat="31.959397543132862" lon="-6.08004893721652"><ele>1557.0</ele><time>2026-05-04T10:30:30.999Z</time></trkpt><trkpt lat="31.959340923961733" lon="-6.08013600324817"><ele>1557.0</ele><time>2026-05-04T10:30:31.999Z</time></trkpt><trkpt lat="31.959283686104364" lon="-6.080203604084597"><ele>1553.8</ele><time>2026-05-04T10:30:32.999Z</time></trkpt><trkpt lat="31.959213524228115" lon="-6.080245309404167"><ele>1550.6</ele><time>2026-05-04T10:30:33.999Z</time></trkpt><trkpt lat="31.959125971511526" lon="-6.080261543574834"><ele>1547.3999999999999</ele><time>2026-05-04T10:30:34.999Z</time></trkpt><trkpt lat="31.95902937496253" lon="-6.0802679096772785"><ele>1544.1999999999998</ele><time>2026-05-04T10:30:35.999Z</time></trkpt><trkpt lat="31.958932996545506" lon="-6.08027297527986"><ele>1541.0</ele><time>2026-05-04T10:30:36.999Z</time></trkpt><trkpt lat="31.958839704601065" lon="-6.080281111439181"><ele>1541.0</ele><time>2026-05-04T10:30:37.999Z</time></trkpt><trkpt lat="31.95874681105748" lon="-6.0802899767398095"><ele>1541.0</ele><time>2026-05-04T10:30:38.999Z</time></trkpt><trkpt lat="31.958657346911938" lon="-6.080303961540309"><ele>1541.0</ele><time>2026-05-04T10:30:39.999Z</time></trkpt><trkpt lat="31.958561230184383" lon="-6.08032595947047"><ele>1541.0</ele><time>2026-05-04T10:30:40.999Z</time></trkpt><trkpt lat="31.95847028622245" lon="-6.080333998729616"><ele>1541.0</ele><time>2026-05-04T10:30:41.999Z</time></trkpt><trkpt lat="31.95837824611566" lon="-6.080314189611653"><ele>1539.8</ele><time>2026-05-04T10:30:42.999Z</time></trkpt><trkpt lat="31.95828982060778" lon="-6.080268686097942"><ele>1538.6</ele><time>2026-05-04T10:30:43.999Z</time></trkpt><trkpt lat="31.958193468920317" lon="-6.080245405396281"><ele>1537.4</ele><time>2026-05-04T10:30:44.999Z</time></trkpt><trkpt lat="31.958106040431577" lon="-6.080204807076788"><ele>1536.2</ele><time>2026-05-04T10:30:45.999Z</time></trkpt><trkpt lat="31.958030792535048" lon="-6.080169864749485"><ele>1535.0</ele><time>2026-05-04T10:30:46.999Z</time></trkpt><trkpt lat="31.957969494561755" lon="-6.080085225087794"><ele>1535.0</ele><time>2026-05-04T10:30:47.999Z</time></trkpt><trkpt lat="31.957940288135166" lon="-6.079972223261372"><ele>1535.0</ele><time>2026-05-04T10:30:48.999Z</time></trkpt><trkpt lat="31.957914464413765" lon="-6.079869494872997"><ele>1535.0</ele><time>2026-05-04T10:30:49.999Z</time></trkpt><trkpt lat="31.957941239621874" lon="-6.0797475387063775"><ele>1535.0</ele><time>2026-05-04T10:30:50.999Z</time></trkpt><trkpt lat="31.957945762319277" lon="-6.079649368467562"><ele>1535.0</ele><time>2026-05-04T10:30:51.999Z</time></trkpt><trkpt lat="31.957989911053396" lon="-6.07954939530569"><ele>1537.4</ele><time>2026-05-04T10:30:52.999Z</time></trkpt><trkpt lat="31.958012080406043" lon="-6.079466226729612"><ele>1539.8</ele><time>2026-05-04T10:30:53.999Z</time></trkpt><trkpt lat="31.958023186188843" lon="-6.0793239329423585"><ele>1542.1999999999998</ele><time>2026-05-04T10:30:55.999Z</time></trkpt><trkpt lat="31.95794147269344" lon="-6.079276739231897"><ele>1544.6</ele><time>2026-05-04T10:30:56.999Z</time></trkpt><trkpt lat="31.95786581389772" lon="-6.079235196143902"><ele>1547.0</ele><time>2026-05-04T10:30:57.999Z</time></trkpt><trkpt lat="31.95778558506685" lon="-6.079167164871139"><ele>1544.0</ele><time>2026-05-04T10:30:58.999Z</time></trkpt><trkpt lat="31.95770852622917" lon="-6.079093261830624"><ele>1541.0</ele><time>2026-05-04T10:30:59.999Z</time></trkpt><trkpt lat="31.957632162196223" lon="-6.079020620895643"><ele>1538.0</ele><time>2026-05-04T10:31:00.999Z</time></trkpt><trkpt lat="31.957556210020726" lon="-6.078949139977251"><ele>1535.0</ele><time>2026-05-04T10:31:01.999Z</time></trkpt><trkpt lat="31.957483455250713" lon="-6.078880984987425"><ele>1532.0</ele><time>2026-05-04T10:31:02.999Z</time></trkpt><trkpt lat="31.957409931061665" lon="-6.078812150440698"><ele>1532.0</ele><time>2026-05-04T10:31:03.999Z</time></trkpt><trkpt lat="31.957341824867033" lon="-6.078731135258295"><ele>1532.0</ele><time>2026-05-04T10:31:04.999Z</time></trkpt><trkpt lat="31.957265276265932" lon="-6.078667952202418"><ele>1532.0</ele><time>2026-05-04T10:31:05.999Z</time></trkpt><trkpt lat="31.95719917165613" lon="-6.078595206542678"><ele>1532.0</ele><time>2026-05-04T10:31:07Z</time></trkpt><trkpt lat="31.95714618645824" lon="-6.078510524353217"><ele>1532.0</ele><time>2026-05-04T10:31:08Z</time></trkpt><trkpt lat="31.957108935180198" lon="-6.07841323059063"><ele>1532.0</ele><time>2026-05-04T10:31:09Z</time></trkpt><trkpt lat="31.957082814892882" lon="-6.078302279567902"><ele>1532.0</ele><time>2026-05-04T10:31:10Z</time></trkpt><trkpt lat="31.957066726326435" lon="-6.078177473516983"><ele>1532.0</ele><time>2026-05-04T10:31:11Z</time></trkpt><trkpt lat="31.957047385778235" lon="-6.078045004871048"><ele>1532.0</ele><time>2026-05-04T10:31:12Z</time></trkpt><trkpt lat="31.957034007788387" lon="-6.0779032596392"><ele>1532.0</ele><time>2026-05-04T10:31:13Z</time></trkpt><trkpt lat="31.95703043527388" lon="-6.077762992123621"><ele>1534.25</ele><time>2026-05-04T10:31:14Z</time></trkpt><trkpt lat="31.957034520789307" lon="-6.077619338476103"><ele>1536.5</ele><time>2026-05-04T10:31:15Z</time></trkpt><trkpt lat="31.95704598777718" lon="-6.077476012334891"><ele>1538.75</ele><time>2026-05-04T10:31:16Z</time></trkpt><trkpt lat="31.957058466205343" lon="-6.077344598443817"><ele>1541.0</ele><time>2026-05-04T10:31:17Z</time></trkpt><trkpt lat="31.95707108763797" lon="-6.077206446344634"><ele>1537.1999999999998</ele><time>2026-05-04T10:31:18Z</time></trkpt><trkpt lat="31.957081018533753" lon="-6.077075681951481"><ele>1533.3999999999999</ele><time>2026-05-04T10:31:19Z</time></trkpt><trkpt lat="31.957097068090885" lon="-6.076945867709307"><ele>1529.6</ele><time>2026-05-04T10:31:20Z</time></trkpt><trkpt lat="31.957118457772623" lon="-6.076820593224335"><ele>1525.8</ele><time>2026-05-04T10:31:21Z</time></trkpt><trkpt lat="31.957127719415826" lon="-6.076713589054187"><ele>1522.0</ele><time>2026-05-04T10:31:22Z</time></trkpt><trkpt lat="31.9571287537775" lon="-6.076613187924265"><ele>1519.8333333333333</ele><time>2026-05-04T10:31:23Z</time></trkpt><trkpt lat="31.95714478766828" lon="-6.076527622996499"><ele>1517.6666666666665</ele><time>2026-05-04T10:31:24Z</time></trkpt><trkpt lat="31.957183292693205" lon="-6.076451826157343"><ele>1515.5</ele><time>2026-05-04T10:31:25Z</time></trkpt><trkpt lat="31.957243617504066" lon="-6.076388384443175"><ele>1513.3333333333333</ele><time>2026-05-04T10:31:26Z</time></trkpt><trkpt lat="31.957313848764567" lon="-6.076344163630227"><ele>1511.1666666666667</ele><time>2026-05-04T10:31:27Z</time></trkpt><trkpt lat="31.95737894625677" lon="-6.076294579345527"><ele>1509.0</ele><time>2026-05-04T10:31:28Z</time></trkpt><trkpt lat="31.95742620710567" lon="-6.076222880397398"><ele>1509.0</ele><time>2026-05-04T10:31:29Z</time></trkpt><trkpt lat="31.957471061649617" lon="-6.076128040330403"><ele>1509.0</ele><time>2026-05-04T10:31:30Z</time></trkpt><trkpt lat="31.95742600171838" lon="-6.076021415319775"><ele>1509.0</ele><time>2026-05-04T10:31:31Z</time></trkpt><trkpt lat="31.957408446324926" lon="-6.075928944528583"><ele>1509.0</ele><time>2026-05-04T10:31:32Z</time></trkpt><trkpt lat="31.957410699119368" lon="-6.075819567417213"><ele>1509.0</ele><time>2026-05-04T10:31:33Z</time></trkpt><trkpt lat="31.957435723846913" lon="-6.075713264165665"><ele>1508.4</ele><time>2026-05-04T10:31:34Z</time></trkpt><trkpt lat="31.95746874681213" lon="-6.075592025263035"><ele>1507.8000000000002</ele><time>2026-05-04T10:31:35Z</time></trkpt><trkpt lat="31.957508462588056" lon="-6.075471920240507"><ele>1507.1999999999998</ele><time>2026-05-04T10:31:36Z</time></trkpt><trkpt lat="31.95755244865488" lon="-6.075358080165446"><ele>1506.6</ele><time>2026-05-04T10:31:37Z</time></trkpt><trkpt lat="31.95759387287772" lon="-6.075245564961465"><ele>1506.0</ele><time>2026-05-04T10:31:38Z</time></trkpt><trkpt lat="31.957629002797965" lon="-6.075135103087676"><ele>1514.1999999999998</ele><time>2026-05-04T10:31:39Z</time></trkpt><trkpt lat="31.9576591244222" lon="-6.075016987887534"><ele>1522.3999999999999</ele><time>2026-05-04T10:31:40Z</time></trkpt><trkpt lat="31.957679182584542" lon="-6.074891929009249"><ele>1530.6</ele><time>2026-05-04T10:31:41Z</time></trkpt><trkpt lat="31.957692297226245" lon="-6.074770134144407"><ele>1538.8</ele><time>2026-05-04T10:31:42Z</time></trkpt><trkpt lat="31.957698288316816" lon="-6.074656965015167"><ele>1547.0</ele><time>2026-05-04T10:31:43Z</time></trkpt><trkpt lat="31.957711405803167" lon="-6.074534909507648"><ele>1544.1666666666665</ele><time>2026-05-04T10:31:44Z</time></trkpt><trkpt lat="31.957713960044284" lon="-6.074418745383253"><ele>1541.3333333333333</ele><time>2026-05-04T10:31:45Z</time></trkpt><trkpt lat="31.95771349489874" lon="-6.07430696775635"><ele>1538.5</ele><time>2026-05-04T10:31:46Z</time></trkpt><trkpt lat="31.957712853591428" lon="-6.074201797344375"><ele>1535.6666666666665</ele><time>2026-05-04T10:31:47Z</time></trkpt><trkpt lat="31.9577069476701" lon="-6.074107628604836"><ele>1532.8333333333333</ele><time>2026-05-04T10:31:48Z</time></trkpt><trkpt lat="31.957699978363717" lon="-6.0740215125675725"><ele>1530.0</ele><time>2026-05-04T10:31:49Z</time></trkpt><trkpt lat="31.95768876771237" lon="-6.073889595305889"><ele>1530.0</ele><time>2026-05-04T10:31:51Z</time></trkpt><trkpt lat="31.957677855355755" lon="-6.073792250149964"><ele>1530.0</ele><time>2026-05-04T10:31:53Z</time></trkpt><trkpt lat="31.957614923325263" lon="-6.073734438824574"><ele>1530.0</ele><time>2026-05-04T10:31:56Z</time></trkpt><trkpt lat="31.957531719558386" lon="-6.07372133712372"><ele>1530.0</ele><time>2026-05-04T10:31:58Z</time></trkpt><trkpt lat="31.95746007091435" lon="-6.073750409704768"><ele>1530.0</ele><time>2026-05-04T10:31:59.999Z</time></trkpt><trkpt lat="31.957491578839555" lon="-6.073847062788836"><ele>1530.0</ele><time>2026-05-04T10:32:00.999Z</time></trkpt><trkpt lat="31.957514914263843" lon="-6.073940728149326"><ele>1523.0</ele><time>2026-05-04T10:32:03.999Z</time></trkpt><trkpt lat="31.957485843069257" lon="-6.074058068731914"><ele>1516.0</ele><time>2026-05-04T10:32:05.999Z</time></trkpt><trkpt lat="31.957452496125235" lon="-6.074194844547445"><ele>1509.0</ele><time>2026-05-04T10:32:07.999Z</time></trkpt><trkpt lat="31.95741673302835" lon="-6.074313969217191"><ele>1502.0</ele><time>2026-05-04T10:32:09.999Z</time></trkpt><trkpt lat="31.957373931455955" lon="-6.074451807934857"><ele>1502.0</ele><time>2026-05-04T10:32:11.999Z</time></trkpt><trkpt lat="31.95734565380957" lon="-6.074541544013251"><ele>1502.0</ele><time>2026-05-04T10:32:12.999Z</time></trkpt><trkpt lat="31.957284975647603" lon="-6.074650082128889"><ele>1502.0</ele><time>2026-05-04T10:32:13.999Z</time></trkpt><trkpt lat="31.957235659898046" lon="-6.074741554822819"><ele>1502.0</ele><time>2026-05-04T10:32:14.999Z</time></trkpt><trkpt lat="31.957184166264774" lon="-6.074840068315207"><ele>1502.0</ele><time>2026-05-04T10:32:15.999Z</time></trkpt><trkpt lat="31.95712496453737" lon="-6.074932174983314"><ele>1502.8</ele><time>2026-05-04T10:32:16.999Z</time></trkpt><trkpt lat="31.957072018988768" lon="-6.07501669683579"><ele>1503.6</ele><time>2026-05-04T10:32:17.999Z</time></trkpt><trkpt lat="31.957017696206808" lon="-6.07510324247887"><ele>1504.3999999999999</ele><time>2026-05-04T10:32:18.999Z</time></trkpt><trkpt lat="31.956926993453425" lon="-6.075170749493067"><ele>1505.1999999999998</ele><time>2026-05-04T10:32:19.999Z</time></trkpt><trkpt lat="31.956854635990897" lon="-6.075242264679474"><ele>1506.0</ele><time>2026-05-04T10:32:20.999Z</time></trkpt><trkpt lat="31.956750875998388" lon="-6.075301573092199"><ele>1506.0</ele><time>2026-05-04T10:32:21.999Z</time></trkpt><trkpt lat="31.956651352843046" lon="-6.075361903523742"><ele>1506.0</ele><time>2026-05-04T10:32:22.999Z</time></trkpt><trkpt lat="31.956540538405072" lon="-6.075403779211155"><ele>1506.0</ele><time>2026-05-04T10:32:23.999Z</time></trkpt><trkpt lat="31.956440516940702" lon="-6.0754644828245015"><ele>1506.0</ele><time>2026-05-04T10:32:24.999Z</time></trkpt><trkpt lat="31.956353963934223" lon="-6.0755135277058345"><ele>1506.0</ele><time>2026-05-04T10:32:25.999Z</time></trkpt><trkpt lat="31.956276631871656" lon="-6.075573320384454"><ele>1506.0</ele><time>2026-05-04T10:32:26.999Z</time></trkpt><trkpt lat="31.956199863837597" lon="-6.075637973147525"><ele>1506.0</ele><time>2026-05-04T10:32:27.999Z</time></trkpt><trkpt lat="31.956141300665898" lon="-6.075763548645981"><ele>1506.0</ele><time>2026-05-04T10:32:28.999Z</time></trkpt><trkpt lat="31.956082982039156" lon="-6.075869860860071"><ele>1506.0</ele><time>2026-05-04T10:32:29.999Z</time></trkpt><trkpt lat="31.956013034245924" lon="-6.075949317190863"><ele>1506.0</ele><time>2026-05-04T10:32:30.999Z</time></trkpt><trkpt lat="31.95594298012473" lon="-6.076029446561811"><ele>1506.0</ele><time>2026-05-04T10:32:31.999Z</time></trkpt><trkpt lat="31.955889664824763" lon="-6.076148029069416"><ele>1506.0</ele><time>2026-05-04T10:32:32.999Z</time></trkpt><trkpt lat="31.95584110896394" lon="-6.076264262252669"><ele>1506.0</ele><time>2026-05-04T10:32:33.999Z</time></trkpt><trkpt lat="31.955841194855207" lon="-6.076411241600529"><ele>1506.0</ele><time>2026-05-04T10:32:34.999Z</time></trkpt><trkpt lat="31.955800816095234" lon="-6.076524439965737"><ele>1506.0</ele><time>2026-05-04T10:32:35.999Z</time></trkpt><trkpt lat="31.955770146554954" lon="-6.076626780079528"><ele>1506.0</ele><time>2026-05-04T10:32:36.999Z</time></trkpt><trkpt lat="31.955738275555987" lon="-6.0767160670521365"><ele>1506.0</ele><time>2026-05-04T10:32:37.999Z</time></trkpt><trkpt lat="31.955714267408105" lon="-6.076811278545803"><ele>1506.0</ele><time>2026-05-04T10:32:38.999Z</time></trkpt><trkpt lat="31.955670799250814" lon="-6.076920872463126"><ele>1506.0</ele><time>2026-05-04T10:32:39.999Z</time></trkpt><trkpt lat="31.95556431289623" lon="-6.076997444669446"><ele>1506.0</ele><time>2026-05-04T10:32:40.999Z</time></trkpt><trkpt lat="31.955489954171565" lon="-6.077099215274947"><ele>1506.0</ele><time>2026-05-04T10:32:41.999Z</time></trkpt><trkpt lat="31.955396793277753" lon="-6.077162718438099"><ele>1506.0</ele><time>2026-05-04T10:32:42.999Z</time></trkpt><trkpt lat="31.955265113081037" lon="-6.077248809085463"><ele>1506.0</ele><time>2026-05-04T10:32:43.999Z</time></trkpt><trkpt lat="31.955206084657775" lon="-6.0773568940442795"><ele>1512.75</ele><time>2026-05-04T10:32:44.999Z</time></trkpt><trkpt lat="31.95513596070938" lon="-6.077517028661865"><ele>1519.5</ele><time>2026-05-04T10:32:45.999Z</time></trkpt><trkpt lat="31.955114522387284" lon="-6.077623059007874"><ele>1526.25</ele><time>2026-05-04T10:32:46.999Z</time></trkpt><trkpt lat="31.955092262945083" lon="-6.077735877304224"><ele>1533.0</ele><time>2026-05-04T10:32:47.999Z</time></trkpt><trkpt lat="31.955032566865818" lon="-6.077862194134721"><ele>1533.0</ele><time>2026-05-04T10:32:49.999Z</time></trkpt><trkpt lat="31.954964840711966" lon="-6.077960199645694"><ele>1533.0</ele><time>2026-05-04T10:32:51.999Z</time></trkpt><trkpt lat="31.95487880303527" lon="-6.078078415803093"><ele>1533.0</ele><time>2026-05-04T10:32:52.999Z</time></trkpt><trkpt lat="31.954976436120322" lon="-6.078279284368417"><ele>1533.0</ele><time>2026-05-04T10:32:53.999Z</time></trkpt><trkpt lat="31.95505772938481" lon="-6.078350339661508"><ele>1530.1666666666667</ele><time>2026-05-04T10:32:54.999Z</time></trkpt><trkpt lat="31.955119234729185" lon="-6.078402224759122"><ele>1527.3333333333333</ele><time>2026-05-04T10:32:55.999Z</time></trkpt><trkpt lat="31.955128637011427" lon="-6.078494786499343"><ele>1524.5</ele><time>2026-05-04T10:32:56.999Z</time></trkpt><trkpt lat="31.9551369438171" lon="-6.0785791246323475"><ele>1521.6666666666665</ele><time>2026-05-04T10:32:57.999Z</time></trkpt><trkpt lat="31.95511956407987" lon="-6.078661632276383"><ele>1518.8333333333333</ele><time>2026-05-04T10:32:58.999Z</time></trkpt><trkpt lat="31.955061720022055" lon="-6.07873941608798"><ele>1516.0</ele><time>2026-05-04T10:32:59.999Z</time></trkpt><trkpt lat="31.954994820325044" lon="-6.078807217236404"><ele>1516.0</ele><time>2026-05-04T10:33:00.999Z</time></trkpt><trkpt lat="31.95495116030348" lon="-6.078874908703921"><ele>1516.0</ele><time>2026-05-04T10:33:01.999Z</time></trkpt><trkpt lat="31.95491998391036" lon="-6.078958221363002"><ele>1516.0</ele><time>2026-05-04T10:33:02.999Z</time></trkpt><trkpt lat="31.954909724892694" lon="-6.07905001363416"><ele>1516.0</ele><time>2026-05-04T10:33:03.999Z</time></trkpt><trkpt lat="31.95496632974583" lon="-6.079152520636814"><ele>1516.0</ele><time>2026-05-04T10:33:04.999Z</time></trkpt><trkpt lat="31.955001601595303" lon="-6.079249013072378"><ele>1516.0</ele><time>2026-05-04T10:33:05.999Z</time></trkpt><trkpt lat="31.9550576210902" lon="-6.079321516886802"><ele>1516.1999999999998</ele><time>2026-05-04T10:33:06.999Z</time></trkpt><trkpt lat="31.95512568808632" lon="-6.079406886747792"><ele>1516.3999999999999</ele><time>2026-05-04T10:33:07.999Z</time></trkpt><trkpt lat="31.95513288215669" lon="-6.079485399781769"><ele>1516.6</ele><time>2026-05-04T10:33:08.999Z</time></trkpt><trkpt lat="31.95514323484834" lon="-6.079580053642545"><ele>1516.8</ele><time>2026-05-04T10:33:09.999Z</time></trkpt><trkpt lat="31.9550860836262" lon="-6.079719462618375"><ele>1517.0</ele><time>2026-05-04T10:33:10.999Z</time></trkpt><trkpt lat="31.954991497421354" lon="-6.079822073955016"><ele>1513.0</ele><time>2026-05-04T10:33:12Z</time></trkpt><trkpt lat="31.95493703001344" lon="-6.079941280123284"><ele>1509.0</ele><time>2026-05-04T10:33:13Z</time></trkpt><trkpt lat="31.95490468478347" lon="-6.08007399353556"><ele>1505.0</ele><time>2026-05-04T10:33:14Z</time></trkpt><trkpt lat="31.954885608561213" lon="-6.0802122837923696"><ele>1501.0</ele><time>2026-05-04T10:33:15Z</time></trkpt><trkpt lat="31.954870786120754" lon="-6.080348204069254"><ele>1501.0</ele><time>2026-05-04T10:33:16Z</time></trkpt><trkpt lat="31.954852430437903" lon="-6.080484158052759"><ele>1501.0</ele><time>2026-05-04T10:33:17Z</time></trkpt><trkpt lat="31.954838261502935" lon="-6.080623602012407"><ele>1501.0</ele><time>2026-05-04T10:33:18Z</time></trkpt><trkpt lat="31.95483831279744" lon="-6.080762912867364"><ele>1501.0</ele><time>2026-05-04T10:33:19Z</time></trkpt><trkpt lat="31.954835617948003" lon="-6.080906473804172"><ele>1501.6</ele><time>2026-05-04T10:33:20Z</time></trkpt><trkpt lat="31.954871107522923" lon="-6.081034375019173"><ele>1502.1999999999998</ele><time>2026-05-04T10:33:21Z</time></trkpt><trkpt lat="31.954910103948883" lon="-6.081158366319315"><ele>1502.8000000000002</ele><time>2026-05-04T10:33:22Z</time></trkpt><trkpt lat="31.954908100521436" lon="-6.081259038984993"><ele>1503.4</ele><time>2026-05-04T10:33:23Z</time></trkpt><trkpt lat="31.95490787983877" lon="-6.081346198738179"><ele>1504.0</ele><time>2026-05-04T10:33:24Z</time></trkpt><trkpt lat="31.954816867268438" lon="-6.0814640971452345"><ele>1504.0</ele><time>2026-05-04T10:33:25Z</time></trkpt><trkpt lat="31.954729007276935" lon="-6.081535080623677"><ele>1504.0</ele><time>2026-05-04T10:33:26Z</time></trkpt><trkpt lat="31.954649364832488" lon="-6.081611309440954"><ele>1504.0</ele><time>2026-05-04T10:33:27Z</time></trkpt><trkpt lat="31.954565333521195" lon="-6.08169912871215"><ele>1504.0</ele><time>2026-05-04T10:33:28Z</time></trkpt><trkpt lat="31.954501739699715" lon="-6.081808479967607"><ele>1504.0</ele><time>2026-05-04T10:33:29Z</time></trkpt><trkpt lat="31.95452973593844" lon="-6.081928303121012"><ele>1505.4</ele><time>2026-05-04T10:33:30Z</time></trkpt><trkpt lat="31.954519546940393" lon="-6.082055221060224"><ele>1506.8000000000002</ele><time>2026-05-04T10:33:31Z</time></trkpt><trkpt lat="31.954554419335857" lon="-6.082229907578731"><ele>1508.1999999999998</ele><time>2026-05-04T10:33:32Z</time></trkpt><trkpt lat="31.954524402087927" lon="-6.0823370490233035"><ele>1509.6</ele><time>2026-05-04T10:33:33Z</time></trkpt><trkpt lat="31.954502811284115" lon="-6.08241372966698"><ele>1511.0</ele><time>2026-05-04T10:33:34Z</time></trkpt><trkpt lat="31.954263133724986" lon="-6.08242775954851"><ele>1513.4</ele><time>2026-05-04T10:33:36Z</time></trkpt><trkpt lat="31.95418964508626" lon="-6.0824160163526"><ele>1515.8</ele><time>2026-05-04T10:33:37Z</time></trkpt><trkpt lat="31.954113546474517" lon="-6.082364504842567"><ele>1518.2</ele><time>2026-05-04T10:33:38Z</time></trkpt><trkpt lat="31.954040902138757" lon="-6.082277287476565"><ele>1520.6000000000001</ele><time>2026-05-04T10:33:39Z</time></trkpt><trkpt lat="31.953975268432913" lon="-6.082170238978946"><ele>1523.0</ele><time>2026-05-04T10:33:40Z</time></trkpt><trkpt lat="31.9539047767012" lon="-6.082080114493873"><ele>1523.0</ele><time>2026-05-04T10:33:41Z</time></trkpt><trkpt lat="31.9538116848848" lon="-6.082023047366681"><ele>1523.0</ele><time>2026-05-04T10:33:42Z</time></trkpt><trkpt lat="31.953706590910148" lon="-6.081989715111685"><ele>1523.0</ele><time>2026-05-04T10:33:43Z</time></trkpt><trkpt lat="31.95360805537555" lon="-6.081955663503632"><ele>1523.0</ele><time>2026-05-04T10:33:44Z</time></trkpt><trkpt lat="31.953522766503564" lon="-6.081919944350817"><ele>1523.0</ele><time>2026-05-04T10:33:45Z</time></trkpt><trkpt lat="31.953431559286745" lon="-6.081880288429841"><ele>1518.8333333333335</ele><time>2026-05-04T10:33:46Z</time></trkpt><trkpt lat="31.9533410158539" lon="-6.081851881856962"><ele>1514.6666666666667</ele><time>2026-05-04T10:33:47Z</time></trkpt><trkpt lat="31.953254616360635" lon="-6.081824124228329"><ele>1510.5</ele><time>2026-05-04T10:33:48Z</time></trkpt><trkpt lat="31.95317995984452" lon="-6.081786610212858"><ele>1506.3333333333333</ele><time>2026-05-04T10:33:49Z</time></trkpt><trkpt lat="31.95311132071842" lon="-6.081755917761201"><ele>1502.1666666666665</ele><time>2026-05-04T10:33:50Z</time></trkpt><trkpt lat="31.953050050393518" lon="-6.081707391542173"><ele>1498.0</ele><time>2026-05-04T10:33:50.999Z</time></trkpt><trkpt lat="31.95300831143696" lon="-6.081651676666312"><ele>1499.3333333333333</ele><time>2026-05-04T10:33:51.999Z</time></trkpt><trkpt lat="31.952989698144325" lon="-6.081566687121836"><ele>1500.6666666666665</ele><time>2026-05-04T10:33:52.999Z</time></trkpt><trkpt lat="31.95299818676635" lon="-6.081469570507538"><ele>1502.0</ele><time>2026-05-04T10:33:53.999Z</time></trkpt><trkpt lat="31.953033729042343" lon="-6.081368686517747"><ele>1503.3333333333333</ele><time>2026-05-04T10:33:54.999Z</time></trkpt><trkpt lat="31.95304618303651" lon="-6.08125595825668"><ele>1504.6666666666667</ele><time>2026-05-04T10:33:55.999Z</time></trkpt><trkpt lat="31.953061532431757" lon="-6.0811560927452835"><ele>1506.0</ele><time>2026-05-04T10:33:56.999Z</time></trkpt><trkpt lat="31.953076722248444" lon="-6.081058331555502"><ele>1506.0</ele><time>2026-05-04T10:33:57.999Z</time></trkpt><trkpt lat="31.953092003012667" lon="-6.080960352037622"><ele>1506.0</ele><time>2026-05-04T10:33:58.999Z</time></trkpt><trkpt lat="31.953051094628485" lon="-6.080813952275998"><ele>1506.0</ele><time>2026-05-04T10:34:00.999Z</time></trkpt><trkpt lat="31.952962865864986" lon="-6.080748334363811"><ele>1506.0</ele><time>2026-05-04T10:34:02.999Z</time></trkpt><trkpt lat="31.95289367918406" lon="-6.080707827024071"><ele>1506.0</ele><time>2026-05-04T10:34:03.999Z</time></trkpt><trkpt lat="31.95278309933155" lon="-6.080662002738063"><ele>1507.0</ele><time>2026-05-04T10:34:04.999Z</time></trkpt><trkpt lat="31.952679428684345" lon="-6.080619389917737"><ele>1508.0</ele><time>2026-05-04T10:34:05.999Z</time></trkpt><trkpt lat="31.952586583703997" lon="-6.080581885891269"><ele>1509.0</ele><time>2026-05-04T10:34:06.999Z</time></trkpt><trkpt lat="31.952491571496974" lon="-6.080489879327678"><ele>1510.0</ele><time>2026-05-04T10:34:07.999Z</time></trkpt><trkpt lat="31.952421000744994" lon="-6.0804205269805545"><ele>1511.0</ele><time>2026-05-04T10:34:08.999Z</time></trkpt><trkpt lat="31.952355723649948" lon="-6.0803797602692455"><ele>1511.0</ele><time>2026-05-04T10:34:09.999Z</time></trkpt><trkpt lat="31.952254890329034" lon="-6.080353856464554"><ele>1511.0</ele><time>2026-05-04T10:34:10.999Z</time></trkpt><trkpt lat="31.952156923406346" lon="-6.080328764282404"><ele>1511.0</ele><time>2026-05-04T10:34:11.999Z</time></trkpt><trkpt lat="31.95207015559144" lon="-6.080287934995283"><ele>1511.0</ele><time>2026-05-04T10:34:12.999Z</time></trkpt><trkpt lat="31.95198481747741" lon="-6.080283891244027"><ele>1511.0</ele><time>2026-05-04T10:34:13.999Z</time></trkpt><trkpt lat="31.95189960313076" lon="-6.080256578983168"><ele>1511.0</ele><time>2026-05-04T10:34:14.999Z</time></trkpt><trkpt lat="31.951816050055573" lon="-6.080197283475304"><ele>1511.0</ele><time>2026-05-04T10:34:15.999Z</time></trkpt><trkpt lat="31.951732690546443" lon="-6.080131397459952"><ele>1511.0</ele><time>2026-05-04T10:34:16.999Z</time></trkpt><trkpt lat="31.95165316489146" lon="-6.080076776866541"><ele>1511.0</ele><time>2026-05-04T10:34:17.999Z</time></trkpt><trkpt lat="31.95158169194503" lon="-6.080025717465116"><ele>1511.0</ele><time>2026-05-04T10:34:18.999Z</time></trkpt><trkpt lat="31.951522042759755" lon="-6.079958808781278"><ele>1512.0</ele><time>2026-05-04T10:34:19.999Z</time></trkpt><trkpt lat="31.951468505768453" lon="-6.079867452193837"><ele>1513.0</ele><time>2026-05-04T10:34:20.999Z</time></trkpt><trkpt lat="31.951423497887546" lon="-6.07975703410007"><ele>1514.0</ele><time>2026-05-04T10:34:21.999Z</time></trkpt><trkpt lat="31.95139263364173" lon="-6.079620816332257"><ele>1515.0</ele><time>2026-05-04T10:34:22.999Z</time></trkpt><trkpt lat="31.95136601379685" lon="-6.079481493775765"><ele>1516.0</ele><time>2026-05-04T10:34:23.999Z</time></trkpt><trkpt lat="31.95133986296338" lon="-6.079346480092671"><ele>1516.0</ele><time>2026-05-04T10:34:24.999Z</time></trkpt><trkpt lat="31.951303201267763" lon="-6.079224862627417"><ele>1516.0</ele><time>2026-05-04T10:34:25.999Z</time></trkpt><trkpt lat="31.95126404805772" lon="-6.079100779266808"><ele>1516.0</ele><time>2026-05-04T10:34:26.999Z</time></trkpt><trkpt lat="31.951236088761195" lon="-6.078972338293237"><ele>1516.0</ele><time>2026-05-04T10:34:27.999Z</time></trkpt><trkpt lat="31.95122522460206" lon="-6.078836514209631"><ele>1517.4</ele><time>2026-05-04T10:34:28.999Z</time></trkpt><trkpt lat="31.951230831093252" lon="-6.078703957406802"><ele>1518.8</ele><time>2026-05-04T10:34:29.999Z</time></trkpt><trkpt lat="31.951233823728007" lon="-6.078584026345641"><ele>1520.2</ele><time>2026-05-04T10:34:30.999Z</time></trkpt><trkpt lat="31.951215993365988" lon="-6.078471271693266"><ele>1521.6000000000001</ele><time>2026-05-04T10:34:31.999Z</time></trkpt><trkpt lat="31.951187480534188" lon="-6.078370536141184"><ele>1523.0</ele><time>2026-05-04T10:34:32.999Z</time></trkpt><trkpt lat="31.95114713148123" lon="-6.078270382088556"><ele>1522.5</ele><time>2026-05-04T10:34:33.999Z</time></trkpt><trkpt lat="31.951097704774" lon="-6.078183825993292"><ele>1522.0</ele><time>2026-05-04T10:34:34.999Z</time></trkpt><trkpt lat="31.95103981224368" lon="-6.078110101061073"><ele>1521.5</ele><time>2026-05-04T10:34:35.999Z</time></trkpt><trkpt lat="31.951009738043368" lon="-6.078018600481113"><ele>1521.0</ele><time>2026-05-04T10:34:36.999Z</time></trkpt><trkpt lat="31.951005056317346" lon="-6.077919009260475"><ele>1520.5</ele><time>2026-05-04T10:34:37.999Z</time></trkpt><trkpt lat="31.951030945023707" lon="-6.077804785665839"><ele>1520.0</ele><time>2026-05-04T10:34:38.999Z</time></trkpt><trkpt lat="31.951070375771362" lon="-6.077690753797871"><ele>1520.0</ele><time>2026-05-04T10:34:39.999Z</time></trkpt><trkpt lat="31.95111965748681" lon="-6.077574997857224"><ele>1520.0</ele><time>2026-05-04T10:34:40.999Z</time></trkpt><trkpt lat="31.951157423619076" lon="-6.0774672502664515"><ele>1520.0</ele><time>2026-05-04T10:34:41.999Z</time></trkpt><trkpt lat="31.951174907878062" lon="-6.077358686916777"><ele>1520.0</ele><time>2026-05-04T10:34:42.999Z</time></trkpt><trkpt lat="31.951172074832144" lon="-6.0772587425100175"><ele>1520.0</ele><time>2026-05-04T10:34:43.999Z</time></trkpt><trkpt lat="31.951149146597412" lon="-6.077169206180775"><ele>1519.6666666666667</ele><time>2026-05-04T10:34:44.999Z</time></trkpt><trkpt lat="31.951124738553087" lon="-6.077084792675627"><ele>1519.3333333333335</ele><time>2026-05-04T10:34:45.999Z</time></trkpt><trkpt lat="31.95108809858624" lon="-6.0770168876304265"><ele>1519.0</ele><time>2026-05-04T10:34:46.999Z</time></trkpt><trkpt lat="31.951021016759896" lon="-6.0769852424071376"><ele>1518.6666666666667</ele><time>2026-05-04T10:34:47.999Z</time></trkpt><trkpt lat="31.95092443337866" lon="-6.076997000095672"><ele>1518.3333333333333</ele><time>2026-05-04T10:34:48.999Z</time></trkpt><trkpt lat="31.950807426331952" lon="-6.077038757438014"><ele>1518.0</ele><time>2026-05-04T10:34:49.999Z</time></trkpt><trkpt lat="31.950690051889072" lon="-6.077068903541368"><ele>1518.0</ele><time>2026-05-04T10:34:50.999Z</time></trkpt><trkpt lat="31.950584924220003" lon="-6.077081608329604"><ele>1518.0</ele><time>2026-05-04T10:34:51.999Z</time></trkpt><trkpt lat="31.950492458765773" lon="-6.077125725826914"><ele>1518.0</ele><time>2026-05-04T10:34:52.999Z</time></trkpt><trkpt lat="31.950394949345146" lon="-6.077136949938733"><ele>1518.0</ele><time>2026-05-04T10:34:53.999Z</time></trkpt><trkpt lat="31.95031611506356" lon="-6.077162709967804"><ele>1518.0</ele><time>2026-05-04T10:34:54.999Z</time></trkpt><trkpt lat="31.95024685192327" lon="-6.077165624861851"><ele>1518.0</ele><time>2026-05-04T10:34:55.999Z</time></trkpt><trkpt lat="31.950184431346774" lon="-6.077145696305841"><ele>1518.0</ele><time>2026-05-04T10:34:56.999Z</time></trkpt><trkpt lat="31.950127948663056" lon="-6.077090853196393"><ele>1518.0</ele><time>2026-05-04T10:34:57.999Z</time></trkpt><trkpt lat="31.95008383014083" lon="-6.077017604136106"><ele>1518.0</ele><time>2026-05-04T10:34:58.999Z</time></trkpt><trkpt lat="31.950053999288677" lon="-6.0769403970084825"><ele>1518.0</ele><time>2026-05-04T10:34:59.999Z</time></trkpt><trkpt lat="31.95003706119046" lon="-6.076845056441854"><ele>1518.0</ele><time>2026-05-04T10:35:00.999Z</time></trkpt><trkpt lat="31.950029348938028" lon="-6.076725713905714"><ele>1521.2</ele><time>2026-05-04T10:35:01.999Z</time></trkpt><trkpt lat="31.949988257855335" lon="-6.0765927041396335"><ele>1524.4</ele><time>2026-05-04T10:35:02.999Z</time></trkpt><trkpt lat="31.94999645281045" lon="-6.076469194993372"><ele>1527.6000000000001</ele><time>2026-05-04T10:35:03.999Z</time></trkpt><trkpt lat="31.949962569046935" lon="-6.076356993864501"><ele>1530.8000000000002</ele><time>2026-05-04T10:35:04.999Z</time></trkpt><trkpt lat="31.949903626711933" lon="-6.076230964083191"><ele>1534.0</ele><time>2026-05-04T10:35:05.999Z</time></trkpt><trkpt lat="31.949831172190716" lon="-6.076127154056059"><ele>1534.0</ele><time>2026-05-04T10:35:06.999Z</time></trkpt><trkpt lat="31.949755307915748" lon="-6.076039622054513"><ele>1534.0</ele><time>2026-05-04T10:35:07.999Z</time></trkpt><trkpt lat="31.94967919083047" lon="-6.075945757679989"><ele>1534.0</ele><time>2026-05-04T10:35:08.999Z</time></trkpt><trkpt lat="31.94960506876753" lon="-6.07584791726035"><ele>1534.0</ele><time>2026-05-04T10:35:09.999Z</time></trkpt><trkpt lat="31.94952607512383" lon="-6.07575037730454"><ele>1534.0</ele><time>2026-05-04T10:35:10.999Z</time></trkpt><trkpt lat="31.94944920641564" lon="-6.07565380442609"><ele>1536.75</ele><time>2026-05-04T10:35:11.999Z</time></trkpt><trkpt lat="31.9493687591028" lon="-6.075550646621759"><ele>1539.5</ele><time>2026-05-04T10:35:12.999Z</time></trkpt><trkpt lat="31.94927627177181" lon="-6.07545443031124"><ele>1542.25</ele><time>2026-05-04T10:35:13.999Z</time></trkpt><trkpt lat="31.94919003284352" lon="-6.075364725171045"><ele>1545.0</ele><time>2026-05-04T10:35:14.999Z</time></trkpt><trkpt lat="31.949096597445084" lon="-6.075270573256956"><ele>1545.0</ele><time>2026-05-04T10:35:15.999Z</time></trkpt><trkpt lat="31.949001388132647" lon="-6.0751871434332205"><ele>1545.0</ele><time>2026-05-04T10:35:16.999Z</time></trkpt><trkpt lat="31.948896743175734" lon="-6.075121549083356"><ele>1545.0</ele><time>2026-05-04T10:35:18Z</time></trkpt><trkpt lat="31.948806790293354" lon="-6.07504739799262"><ele>1545.0</ele><time>2026-05-04T10:35:19Z</time></trkpt><trkpt lat="31.94872984913944" lon="-6.074977129034293"><ele>1545.0</ele><time>2026-05-04T10:35:20Z</time></trkpt><trkpt lat="31.94866668784615" lon="-6.074920037134637"><ele>1545.0</ele><time>2026-05-04T10:35:21Z</time></trkpt><trkpt lat="31.948602050412884" lon="-6.074870194961184"><ele>1545.0</ele><time>2026-05-04T10:35:22Z</time></trkpt><trkpt lat="31.94854545296862" lon="-6.074829995756382"><ele>1545.0</ele><time>2026-05-04T10:35:23Z</time></trkpt><trkpt lat="31.948425471889284" lon="-6.074804554234029"><ele>1545.0</ele><time>2026-05-04T10:35:25Z</time></trkpt><trkpt lat="31.94831717209588" lon="-6.074830648722119"><ele>1545.0</ele><time>2026-05-04T10:35:27Z</time></trkpt><trkpt lat="31.9482587010883" lon="-6.074940309484923"><ele>1545.0</ele><time>2026-05-04T10:35:29Z</time></trkpt><trkpt lat="31.948260754571535" lon="-6.075018092092111"><ele>1545.0</ele><time>2026-05-04T10:35:30Z</time></trkpt><trkpt lat="31.94831149238733" lon="-6.075138478801451"><ele>1545.0</ele><time>2026-05-04T10:35:32Z</time></trkpt><trkpt lat="31.948356330550734" lon="-6.0751964009062975"><ele>1545.0</ele><time>2026-05-04T10:35:33Z</time></trkpt><trkpt lat="31.948443027306904" lon="-6.075314508634255"><ele>1545.0</ele><time>2026-05-04T10:35:35Z</time></trkpt><trkpt lat="31.948487824074004" lon="-6.075388227957439"><ele>1545.0</ele><time>2026-05-04T10:35:36Z</time></trkpt><trkpt lat="31.948531018571845" lon="-6.0754690744701785"><ele>1545.0</ele><time>2026-05-04T10:35:37Z</time></trkpt><trkpt lat="31.94858774251387" lon="-6.075548005973207"><ele>1545.0</ele><time>2026-05-04T10:35:38Z</time></trkpt><trkpt lat="31.94863130846767" lon="-6.075637225538393"><ele>1545.0</ele><time>2026-05-04T10:35:38.999Z</time></trkpt><trkpt lat="31.948676386759896" lon="-6.075731035444327"><ele>1545.0</ele><time>2026-05-04T10:35:39.999Z</time></trkpt><trkpt lat="31.948720920803208" lon="-6.075847484587214"><ele>1545.0</ele><time>2026-05-04T10:35:40.999Z</time></trkpt><trkpt lat="31.948744728651327" lon="-6.075959519240763"><ele>1545.0</ele><time>2026-05-04T10:35:41.999Z</time></trkpt><trkpt lat="31.94876770415321" lon="-6.076067560568269"><ele>1545.0</ele><time>2026-05-04T10:35:42.999Z</time></trkpt><trkpt lat="31.948791002357876" lon="-6.076177119440525"><ele>1545.0</ele><time>2026-05-04T10:35:43.999Z</time></trkpt><trkpt lat="31.948817123200893" lon="-6.076301017314769"><ele>1545.0</ele><time>2026-05-04T10:35:44.999Z</time></trkpt><trkpt lat="31.948833352497175" lon="-6.076439634645345"><ele>1545.0</ele><time>2026-05-04T10:35:45.999Z</time></trkpt><trkpt lat="31.948844656631223" lon="-6.076558793063489"><ele>1545.0</ele><time>2026-05-04T10:35:46.999Z</time></trkpt><trkpt lat="31.948856969194207" lon="-6.076684476176989"><ele>1545.0</ele><time>2026-05-04T10:35:47.999Z</time></trkpt><trkpt lat="31.948833184422377" lon="-6.076824815696307"><ele>1545.0</ele><time>2026-05-04T10:35:48.999Z</time></trkpt><trkpt lat="31.948815045126334" lon="-6.076956240671754"><ele>1545.0</ele><time>2026-05-04T10:35:49.999Z</time></trkpt><trkpt lat="31.948796633308287" lon="-6.077096431954966"><ele>1545.0</ele><time>2026-05-04T10:35:50.999Z</time></trkpt><trkpt lat="31.948777574073496" lon="-6.077238161001541"><ele>1545.0</ele><time>2026-05-04T10:35:51.999Z</time></trkpt><trkpt lat="31.94875871319663" lon="-6.077383440809582"><ele>1545.0</ele><time>2026-05-04T10:35:52.999Z</time></trkpt><trkpt lat="31.948740709837637" lon="-6.0775237617338504"><ele>1545.0</ele><time>2026-05-04T10:35:53.999Z</time></trkpt><trkpt lat="31.94871292104973" lon="-6.077644618915303"><ele>1545.0</ele><time>2026-05-04T10:35:54.999Z</time></trkpt><trkpt lat="31.94875551697569" lon="-6.077744867325631"><ele>1545.0</ele><time>2026-05-04T10:35:55.999Z</time></trkpt><trkpt lat="31.94880949306801" lon="-6.077806957367413"><ele>1545.0</ele><time>2026-05-04T10:35:56.999Z</time></trkpt><trkpt lat="31.9488654590164" lon="-6.077901253177872"><ele>1545.0</ele><time>2026-05-04T10:35:57.999Z</time></trkpt><trkpt lat="31.948938809738273" lon="-6.078022705626853"><ele>1545.0</ele><time>2026-05-04T10:35:58.999Z</time></trkpt><trkpt lat="31.948984924443124" lon="-6.078140870639872"><ele>1545.0</ele><time>2026-05-04T10:35:59.999Z</time></trkpt><trkpt lat="31.94903408724336" lon="-6.078274074018154"><ele>1545.0</ele><time>2026-05-04T10:36:00.999Z</time></trkpt><trkpt lat="31.949088675253005" lon="-6.078355980896159"><ele>1545.0</ele><time>2026-05-04T10:36:01.999Z</time></trkpt><trkpt lat="31.949157334048834" lon="-6.0785011524440655"><ele>1545.0</ele><time>2026-05-04T10:36:02.999Z</time></trkpt><trkpt lat="31.94918951958059" lon="-6.078608310758808"><ele>1545.0</ele><time>2026-05-04T10:36:03.999Z</time></trkpt><trkpt lat="31.949199322565104" lon="-6.078789555649119"><ele>1545.0</ele><time>2026-05-04T10:36:04.999Z</time></trkpt><trkpt lat="31.949195741654012" lon="-6.07888900677045"><ele>1545.0</ele><time>2026-05-04T10:36:05.999Z</time></trkpt><trkpt lat="31.949113229033152" lon="-6.07902440550647"><ele>1545.0</ele><time>2026-05-04T10:36:06.999Z</time></trkpt><trkpt lat="31.949011231330747" lon="-6.079102799843288"><ele>1545.0</ele><time>2026-05-04T10:36:07.999Z</time></trkpt><trkpt lat="31.94892631188" lon="-6.079169413516892"><ele>1545.0</ele><time>2026-05-04T10:36:08.999Z</time></trkpt><trkpt lat="31.94884735464836" lon="-6.079237933735201"><ele>1545.0</ele><time>2026-05-04T10:36:09.999Z</time></trkpt><trkpt lat="31.94880365752451" lon="-6.079321683773182"><ele>1545.0</ele><time>2026-05-04T10:36:10.999Z</time></trkpt><trkpt lat="31.94875574913488" lon="-6.079414810632885"><ele>1545.0</ele><time>2026-05-04T10:36:11.999Z</time></trkpt><trkpt lat="31.948799922680905" lon="-6.07952434463947"><ele>1545.0</ele><time>2026-05-04T10:36:12.999Z</time></trkpt><trkpt lat="31.948758476915522" lon="-6.079641337498091"><ele>1545.0</ele><time>2026-05-04T10:36:13.999Z</time></trkpt><trkpt lat="31.948720930662816" lon="-6.07975604517784"><ele>1545.0</ele><time>2026-05-04T10:36:14.999Z</time></trkpt><trkpt lat="31.948673949758593" lon="-6.079846448272135"><ele>1545.0</ele><time>2026-05-04T10:36:15.999Z</time></trkpt><trkpt lat="31.948654148445176" lon="-6.0799377289660255"><ele>1545.0</ele><time>2026-05-04T10:36:16.999Z</time></trkpt><trkpt lat="31.948670982831445" lon="-6.080040531003762"><ele>1545.0</ele><time>2026-05-04T10:36:17.999Z</time></trkpt><trkpt lat="31.94872467873973" lon="-6.080137388020873"><ele>1545.0</ele><time>2026-05-04T10:36:18.999Z</time></trkpt><trkpt lat="31.948819426563745" lon="-6.0802024980432305"><ele>1545.0</ele><time>2026-05-04T10:36:19.999Z</time></trkpt><trkpt lat="31.948846436963155" lon="-6.080283707636696"><ele>1545.0</ele><time>2026-05-04T10:36:20.999Z</time></trkpt><trkpt lat="31.948818387650405" lon="-6.080462089426022"><ele>1545.0</ele><time>2026-05-04T10:36:22.999Z</time></trkpt><trkpt lat="31.948741339911045" lon="-6.080529190117244"><ele>1545.0</ele><time>2026-05-04T10:36:23.999Z</time></trkpt><trkpt lat="31.948650113395168" lon="-6.080587985170615"><ele>1543.8</ele><time>2026-05-04T10:36:24.999Z</time></trkpt><trkpt lat="31.948553947686584" lon="-6.080646947321442"><ele>1542.6</ele><time>2026-05-04T10:36:25.999Z</time></trkpt><trkpt lat="31.948457227854508" lon="-6.08070721920839"><ele>1541.4</ele><time>2026-05-04T10:36:26.999Z</time></trkpt><trkpt lat="31.94836918471673" lon="-6.0807720504203"><ele>1540.2</ele><time>2026-05-04T10:36:27.999Z</time></trkpt><trkpt lat="31.94829276911485" lon="-6.080859394522834"><ele>1539.0</ele><time>2026-05-04T10:36:28.999Z</time></trkpt><trkpt lat="31.948179712985528" lon="-6.0809081715610604"><ele>1539.0</ele><time>2026-05-04T10:36:29.999Z</time></trkpt><trkpt lat="31.94807689073509" lon="-6.081021362701565"><ele>1539.0</ele><time>2026-05-04T10:36:30.999Z</time></trkpt><trkpt lat="31.948021538389085" lon="-6.081137435230453"><ele>1539.0</ele><time>2026-05-04T10:36:31.999Z</time></trkpt><trkpt lat="31.947974919329713" lon="-6.081234141763266"><ele>1539.0</ele><time>2026-05-04T10:36:32.999Z</time></trkpt><trkpt lat="31.94793503028663" lon="-6.081316887598327"><ele>1539.0</ele><time>2026-05-04T10:36:33.999Z</time></trkpt><trkpt lat="31.947894380036843" lon="-6.081401212362409"><ele>1539.0</ele><time>2026-05-04T10:36:34.999Z</time></trkpt><trkpt lat="31.947854217660755" lon="-6.081570436590136"><ele>1539.0</ele><time>2026-05-04T10:36:35.999Z</time></trkpt><trkpt lat="31.948066692238076" lon="-6.081766119914712"><ele>1539.0</ele><time>2026-05-04T10:36:36.999Z</time></trkpt><trkpt lat="31.948144371234328" lon="-6.08184031587571"><ele>1539.0</ele><time>2026-05-04T10:36:37.999Z</time></trkpt><trkpt lat="31.948214548668865" lon="-6.0819066420459515"><ele>1539.0</ele><time>2026-05-04T10:36:38.999Z</time></trkpt><trkpt lat="31.948275864702676" lon="-6.08198314483672"><ele>1539.0</ele><time>2026-05-04T10:36:39.999Z</time></trkpt><trkpt lat="31.948298653230733" lon="-6.08208375272701"><ele>1539.0</ele><time>2026-05-04T10:36:40.999Z</time></trkpt><trkpt lat="31.948300550087527" lon="-6.082176843868779"><ele>1539.0</ele><time>2026-05-04T10:36:41.999Z</time></trkpt><trkpt lat="31.948276300407358" lon="-6.08224826145955"><ele>1539.0</ele><time>2026-05-04T10:36:42.999Z</time></trkpt><trkpt lat="31.94821989223707" lon="-6.082294044293017"><ele>1539.0</ele><time>2026-05-04T10:36:43.999Z</time></trkpt><trkpt lat="31.94814367084236" lon="-6.08231758946074"><ele>1539.0</ele><time>2026-05-04T10:36:44.999Z</time></trkpt><trkpt lat="31.94806300600982" lon="-6.082337315547455"><ele>1539.0</ele><time>2026-05-04T10:36:45.999Z</time></trkpt><trkpt lat="31.947964133682124" lon="-6.082277430631482"><ele>1539.0</ele><time>2026-05-04T10:36:46.999Z</time></trkpt><trkpt lat="31.947867493838807" lon="-6.082232219813642"><ele>1539.0</ele><time>2026-05-04T10:36:47.999Z</time></trkpt><trkpt lat="31.947761074214622" lon="-6.082194178414196"><ele>1539.0</ele><time>2026-05-04T10:36:48.999Z</time></trkpt><trkpt lat="31.947636286738383" lon="-6.08221176667457"><ele>1539.0</ele><time>2026-05-04T10:36:49.999Z</time></trkpt><trkpt lat="31.94751082165686" lon="-6.0822367944640385"><ele>1539.0</ele><time>2026-05-04T10:36:50.999Z</time></trkpt><trkpt lat="31.94738436719963" lon="-6.08223324127402"><ele>1539.0</ele><time>2026-05-04T10:36:51.999Z</time></trkpt><trkpt lat="31.947247029991743" lon="-6.082248888521356"><ele>1539.0</ele><time>2026-05-04T10:36:52.999Z</time></trkpt><trkpt lat="31.94711306925067" lon="-6.082241641993989"><ele>1539.0</ele><time>2026-05-04T10:36:53.999Z</time></trkpt><trkpt lat="31.94697954736755" lon="-6.08221570383636"><ele>1539.0</ele><time>2026-05-04T10:36:54.999Z</time></trkpt><trkpt lat="31.946847544915304" lon="-6.0821864290589485"><ele>1539.0</ele><time>2026-05-04T10:36:55.999Z</time></trkpt><trkpt lat="31.946716365757556" lon="-6.082166477798263"><ele>1539.0</ele><time>2026-05-04T10:36:56.999Z</time></trkpt><trkpt lat="31.94658408020044" lon="-6.082170543526744"><ele>1539.0</ele><time>2026-05-04T10:36:57.999Z</time></trkpt><trkpt lat="31.946455950143562" lon="-6.082175811385167"><ele>1539.0</ele><time>2026-05-04T10:36:58.999Z</time></trkpt><trkpt lat="31.946334435101093" lon="-6.082177078598308"><ele>1539.0</ele><time>2026-05-04T10:36:59.999Z</time></trkpt><trkpt lat="31.94622880059016" lon="-6.082172437706685"><ele>1539.0</ele><time>2026-05-04T10:37:00.999Z</time></trkpt><trkpt lat="31.946135411797037" lon="-6.082158478936397"><ele>1539.0</ele><time>2026-05-04T10:37:01.999Z</time></trkpt><trkpt lat="31.946049272280746" lon="-6.0821185916613"><ele>1539.0</ele><time>2026-05-04T10:37:02.999Z</time></trkpt><trkpt lat="31.94599341022207" lon="-6.082002671673461"><ele>1539.0</ele><time>2026-05-04T10:37:03.999Z</time></trkpt><trkpt lat="31.94590663101316" lon="-6.081918825485675"><ele>1539.0</ele><time>2026-05-04T10:37:04.999Z</time></trkpt><trkpt lat="31.945817080624746" lon="-6.0818287220936895"><ele>1539.0</ele><time>2026-05-04T10:37:05.999Z</time></trkpt><trkpt lat="31.945717370808214" lon="-6.081774621700318"><ele>1539.0</ele><time>2026-05-04T10:37:06.999Z</time></trkpt><trkpt lat="31.945631312194788" lon="-6.081737533204923"><ele>1539.0</ele><time>2026-05-04T10:37:07.999Z</time></trkpt><trkpt lat="31.945569568011287" lon="-6.0817059684821295"><ele>1539.0</ele><time>2026-05-04T10:37:08.999Z</time></trkpt><trkpt lat="31.945480946464926" lon="-6.081759650346347"><ele>1539.0</ele><time>2026-05-04T10:37:10.999Z</time></trkpt><trkpt lat="31.945510650310375" lon="-6.081841433918524"><ele>1539.0</ele><time>2026-05-04T10:37:11.999Z</time></trkpt><trkpt lat="31.945539947766374" lon="-6.08192447450977"><ele>1539.0</ele><time>2026-05-04T10:37:13.999Z</time></trkpt><trkpt lat="31.94552751786746" lon="-6.082101990997267"><ele>1539.0</ele><time>2026-05-04T10:37:15.999Z</time></trkpt><trkpt lat="31.945479471195647" lon="-6.082213027251012"><ele>1539.0</ele><time>2026-05-04T10:37:16.999Z</time></trkpt><trkpt lat="31.94546608664368" lon="-6.082319453225927"><ele>1539.0</ele><time>2026-05-04T10:37:17.999Z</time></trkpt><trkpt lat="31.945461187156386" lon="-6.082416167405433"><ele>1539.0</ele><time>2026-05-04T10:37:18.999Z</time></trkpt><trkpt lat="31.945530842483087" lon="-6.082601914778562"><ele>1539.0</ele><time>2026-05-04T10:37:20.999Z</time></trkpt><trkpt lat="31.945570619979858" lon="-6.082730837033461"><ele>1539.0</ele><time>2026-05-04T10:37:21.999Z</time></trkpt><trkpt lat="31.945620177458533" lon="-6.082861033589492"><ele>1539.0</ele><time>2026-05-04T10:37:23Z</time></trkpt><trkpt lat="31.945674602811774" lon="-6.083001520241235"><ele>1539.0</ele><time>2026-05-04T10:37:24Z</time></trkpt><trkpt lat="31.9457266765208" lon="-6.083136174825766"><ele>1551.25</ele><time>2026-05-04T10:37:25Z</time></trkpt><trkpt lat="31.945779946335232" lon="-6.083279731962884"><ele>1563.5</ele><time>2026-05-04T10:37:26Z</time></trkpt><trkpt lat="31.945833002682335" lon="-6.083421877806393"><ele>1575.75</ele><time>2026-05-04T10:37:27Z</time></trkpt><trkpt lat="31.945899782399863" lon="-6.0835538881158255"><ele>1588.0</ele><time>2026-05-04T10:37:28Z</time></trkpt><trkpt lat="31.945961032019312" lon="-6.083678185725177"><ele>1588.0</ele><time>2026-05-04T10:37:29Z</time></trkpt><trkpt lat="31.946017505598018" lon="-6.083804182660708"><ele>1588.0</ele><time>2026-05-04T10:37:30Z</time></trkpt><trkpt lat="31.946080511303286" lon="-6.083937545786585"><ele>1588.0</ele><time>2026-05-04T10:37:31Z</time></trkpt><trkpt lat="31.946144071384293" lon="-6.084058190784641"><ele>1588.0</ele><time>2026-05-04T10:37:32Z</time></trkpt><trkpt lat="31.946203677614346" lon="-6.084162202354059"><ele>1588.0</ele><time>2026-05-04T10:37:33Z</time></trkpt><trkpt lat="31.94626888079733" lon="-6.0842612815223704"><ele>1588.0</ele><time>2026-05-04T10:37:34Z</time></trkpt><trkpt lat="31.946310227790573" lon="-6.08437193617056"><ele>1588.0</ele><time>2026-05-04T10:37:35Z</time></trkpt><trkpt lat="31.946348856946827" lon="-6.084476025077979"><ele>1588.0</ele><time>2026-05-04T10:37:36Z</time></trkpt><trkpt lat="31.946399376033764" lon="-6.084586879502733"><ele>1588.0</ele><time>2026-05-04T10:37:37Z</time></trkpt><trkpt lat="31.94641500309087" lon="-6.084722609107247"><ele>1588.0</ele><time>2026-05-04T10:37:38Z</time></trkpt><trkpt lat="31.946425640784568" lon="-6.084850285743305"><ele>1588.0</ele><time>2026-05-04T10:37:39Z</time></trkpt><trkpt lat="31.9464375050089" lon="-6.084961000958616"><ele>1588.0</ele><time>2026-05-04T10:37:40Z</time></trkpt><trkpt lat="31.94642964696664" lon="-6.085055569527771"><ele>1588.0</ele><time>2026-05-04T10:37:41Z</time></trkpt><trkpt lat="31.94639019790682" lon="-6.085147089030828"><ele>1588.0</ele><time>2026-05-04T10:37:42Z</time></trkpt><trkpt lat="31.946325147894548" lon="-6.085231072927072"><ele>1588.0</ele><time>2026-05-04T10:37:43Z</time></trkpt><trkpt lat="31.946251602135106" lon="-6.085311280364901"><ele>1588.0</ele><time>2026-05-04T10:37:44Z</time></trkpt><trkpt lat="31.946195143382116" lon="-6.085407534088674"><ele>1588.0</ele><time>2026-05-04T10:37:45Z</time></trkpt><trkpt lat="31.946185949725812" lon="-6.085524591930324"><ele>1588.0</ele><time>2026-05-04T10:37:46Z</time></trkpt><trkpt lat="31.946158774869744" lon="-6.085623001970561"><ele>1588.0</ele><time>2026-05-04T10:37:47Z</time></trkpt><trkpt lat="31.946134876976604" lon="-6.08571591294395"><ele>1591.8000000000002</ele><time>2026-05-04T10:37:47.999Z</time></trkpt><trkpt lat="31.94607768268602" lon="-6.085792126007306"><ele>1595.6</ele><time>2026-05-04T10:37:48.999Z</time></trkpt><trkpt lat="31.945990908448557" lon="-6.085847649262765"><ele>1599.4</ele><time>2026-05-04T10:37:49.999Z</time></trkpt><trkpt lat="31.945903594260557" lon="-6.085912486277701"><ele>1603.1999999999998</ele><time>2026-05-04T10:37:50.999Z</time></trkpt><trkpt lat="31.945807237798117" lon="-6.085969708432685"><ele>1607.0</ele><time>2026-05-04T10:37:51.999Z</time></trkpt><trkpt lat="31.945719415187867" lon="-6.086023432228026"><ele>1606.9999999999998</ele><time>2026-05-04T10:37:52.999Z</time></trkpt><trkpt lat="31.945688368427657" lon="-6.086104032967515"><ele>1607.0</ele><time>2026-05-04T10:37:53.999Z</time></trkpt><trkpt lat="31.945639749503357" lon="-6.086178227237862"><ele>1607.0</ele><time>2026-05-04T10:37:54.999Z</time></trkpt><trkpt lat="31.945637572862612" lon="-6.086274618440742"><ele>1607.0</ele><time>2026-05-04T10:37:55.999Z</time></trkpt><trkpt lat="31.94560743041793" lon="-6.0863757759616215"><ele>1606.9999999999998</ele><time>2026-05-04T10:37:56.999Z</time></trkpt><trkpt lat="31.945573241047846" lon="-6.086490944999804"><ele>1607.0</ele><time>2026-05-04T10:37:57.999Z</time></trkpt><trkpt lat="31.945539456271288" lon="-6.086604220910675"><ele>1597.75</ele><time>2026-05-04T10:37:58.999Z</time></trkpt><trkpt lat="31.9455057482564" lon="-6.0867172394491025"><ele>1588.5</ele><time>2026-05-04T10:37:59.999Z</time></trkpt><trkpt lat="31.94546846088188" lon="-6.086842259111157"><ele>1579.25</ele><time>2026-05-04T10:38:00.999Z</time></trkpt><trkpt lat="31.945329581535653" lon="-6.0869090734369955"><ele>1570.0</ele><time>2026-05-04T10:38:01.999Z</time></trkpt><trkpt lat="31.945276393046747" lon="-6.087023988087259"><ele>1570.0000000000002</ele><time>2026-05-04T10:38:02.999Z</time></trkpt><trkpt lat="31.945257141859393" lon="-6.087132258487027"><ele>1570.0</ele><time>2026-05-04T10:38:03.999Z</time></trkpt><trkpt lat="31.945239869293776" lon="-6.087230609522554"><ele>1570.0</ele><time>2026-05-04T10:38:04.999Z</time></trkpt><trkpt lat="31.94520263879473" lon="-6.08732897094753"><ele>1570.0</ele><time>2026-05-04T10:38:05.999Z</time></trkpt><trkpt lat="31.945167302704224" lon="-6.087423703403055"><ele>1570.0000000000002</ele><time>2026-05-04T10:38:06.999Z</time></trkpt><trkpt lat="31.945138043440668" lon="-6.087512050173952"><ele>1570.0</ele><time>2026-05-04T10:38:07.999Z</time></trkpt><trkpt lat="31.945112996570167" lon="-6.087595565553609"><ele>1568.3333333333335</ele><time>2026-05-04T10:38:08.999Z</time></trkpt><trkpt lat="31.945106003084263" lon="-6.087676450861537"><ele>1566.6666666666667</ele><time>2026-05-04T10:38:09.999Z</time></trkpt><trkpt lat="31.945112759041653" lon="-6.087757289514044"><ele>1565.0</ele><time>2026-05-04T10:38:10.999Z</time></trkpt><trkpt lat="31.945138807068417" lon="-6.087889803432569"><ele>1563.3333333333335</ele><time>2026-05-04T10:38:12.999Z</time></trkpt><trkpt lat="31.94513245192771" lon="-6.087992522580611"><ele>1561.6666666666667</ele><time>2026-05-04T10:38:14.999Z</time></trkpt><trkpt lat="31.945097349788085" lon="-6.088083686794659"><ele>1560.0</ele><time>2026-05-04T10:38:16.999Z</time></trkpt><trkpt lat="31.945028792249136" lon="-6.0881626443507875"><ele>1565.8</ele><time>2026-05-04T10:38:18.999Z</time></trkpt><trkpt lat="31.944910858516806" lon="-6.088181402427351"><ele>1571.6</ele><time>2026-05-04T10:38:20.999Z</time></trkpt><trkpt lat="31.94483803799377" lon="-6.088148796668719"><ele>1577.4</ele><time>2026-05-04T10:38:21.999Z</time></trkpt><trkpt lat="31.944750404949357" lon="-6.0881042730574455"><ele>1583.2</ele><time>2026-05-04T10:38:22.999Z</time></trkpt><trkpt lat="31.944659797289994" lon="-6.08808759356932"><ele>1589.0</ele><time>2026-05-04T10:38:23.999Z</time></trkpt><trkpt lat="31.944565822073614" lon="-6.088091088724931"><ele>1589.0</ele><time>2026-05-04T10:38:24.999Z</time></trkpt><trkpt lat="31.944469477682564" lon="-6.088106915041965"><ele>1589.0</ele><time>2026-05-04T10:38:25.999Z</time></trkpt><trkpt lat="31.944376318006803" lon="-6.088128534138424"><ele>1589.0</ele><time>2026-05-04T10:38:26.999Z</time></trkpt><trkpt lat="31.94428651032159" lon="-6.088137198434065"><ele>1589.0</ele><time>2026-05-04T10:38:27.999Z</time></trkpt><trkpt lat="31.944197356245745" lon="-6.0881227449905975"><ele>1589.0</ele><time>2026-05-04T10:38:28.999Z</time></trkpt><trkpt lat="31.944106828153235" lon="-6.088087465179954"><ele>1591.0</ele><time>2026-05-04T10:38:29.999Z</time></trkpt><trkpt lat="31.944009583732814" lon="-6.0880385662135845"><ele>1593.0</ele><time>2026-05-04T10:38:30.999Z</time></trkpt><trkpt lat="31.943913220672844" lon="-6.087998807764454"><ele>1595.0</ele><time>2026-05-04T10:38:31.999Z</time></trkpt><trkpt lat="31.943816971818613" lon="-6.087955757541346"><ele>1597.0</ele><time>2026-05-04T10:38:32.999Z</time></trkpt><trkpt lat="31.94371931140603" lon="-6.087907069416221"><ele>1599.0</ele><time>2026-05-04T10:38:33.999Z</time></trkpt><trkpt lat="31.943621943527937" lon="-6.087861081870037"><ele>1599.0</ele><time>2026-05-04T10:38:34.999Z</time></trkpt><trkpt lat="31.94352859998485" lon="-6.087817830697304"><ele>1599.0</ele><time>2026-05-04T10:38:35.999Z</time></trkpt><trkpt lat="31.943438508874582" lon="-6.087764624266739"><ele>1599.0</ele><time>2026-05-04T10:38:36.999Z</time></trkpt><trkpt lat="31.94335073957008" lon="-6.087713987680055"><ele>1599.0</ele><time>2026-05-04T10:38:37.999Z</time></trkpt><trkpt lat="31.943259707445222" lon="-6.087666946906203"><ele>1599.0</ele><time>2026-05-04T10:38:38.999Z</time></trkpt><trkpt lat="31.943170277002345" lon="-6.087617227192619"><ele>1602.0</ele><time>2026-05-04T10:38:39.999Z</time></trkpt><trkpt lat="31.943087040076858" lon="-6.087566624677906"><ele>1605.0</ele><time>2026-05-04T10:38:40.999Z</time></trkpt><trkpt lat="31.94300892795521" lon="-6.087515216628141"><ele>1608.0</ele><time>2026-05-04T10:38:41.999Z</time></trkpt><trkpt lat="31.94292957053993" lon="-6.087466017901662"><ele>1611.0</ele><time>2026-05-04T10:38:42.999Z</time></trkpt><trkpt lat="31.94291009084541" lon="-6.087302782663418"><ele>1614.0</ele><time>2026-05-04T10:38:43.999Z</time></trkpt><trkpt lat="31.942847822752743" lon="-6.08722450512422"><ele>1614.0</ele><time>2026-05-04T10:38:44.999Z</time></trkpt><trkpt lat="31.94278056755897" lon="-6.087148708744421"><ele>1614.0</ele><time>2026-05-04T10:38:45.999Z</time></trkpt><trkpt lat="31.942699586650267" lon="-6.0870954523667375"><ele>1614.0</ele><time>2026-05-04T10:38:46.999Z</time></trkpt><trkpt lat="31.9426086137146" lon="-6.087068243964405"><ele>1614.0</ele><time>2026-05-04T10:38:47.999Z</time></trkpt><trkpt lat="31.942517583163404" lon="-6.087056164839417"><ele>1614.0</ele><time>2026-05-04T10:38:48.999Z</time></trkpt><trkpt lat="31.94242731293498" lon="-6.087023342765688"><ele>1607.4</ele><time>2026-05-04T10:38:49.999Z</time></trkpt><trkpt lat="31.94233217750537" lon="-6.086970657734807"><ele>1600.8000000000002</ele><time>2026-05-04T10:38:50.999Z</time></trkpt><trkpt lat="31.94223602959056" lon="-6.086909299702655"><ele>1594.1999999999998</ele><time>2026-05-04T10:38:51.999Z</time></trkpt><trkpt lat="31.942134171500292" lon="-6.086847107237555"><ele>1587.6</ele><time>2026-05-04T10:38:52.999Z</time></trkpt><trkpt lat="31.94203375815611" lon="-6.086782859225985"><ele>1581.0</ele><time>2026-05-04T10:38:53.999Z</time></trkpt><trkpt lat="31.941943949431007" lon="-6.086721805515257"><ele>1581.0</ele><time>2026-05-04T10:38:54.999Z</time></trkpt><trkpt lat="31.94184870993482" lon="-6.086663849634119"><ele>1581.0</ele><time>2026-05-04T10:38:55.999Z</time></trkpt><trkpt lat="31.941761358502323" lon="-6.086600712083474"><ele>1581.0</ele><time>2026-05-04T10:38:56.999Z</time></trkpt><trkpt lat="31.941673499521052" lon="-6.0865447921030205"><ele>1581.0</ele><time>2026-05-04T10:38:57.999Z</time></trkpt><trkpt lat="31.941594902295154" lon="-6.086476858833014"><ele>1581.0</ele><time>2026-05-04T10:38:58.999Z</time></trkpt><trkpt lat="31.94153256675053" lon="-6.086391645180337"><ele>1581.3333333333333</ele><time>2026-05-04T10:38:59.999Z</time></trkpt><trkpt lat="31.941492588741255" lon="-6.086299222289936"><ele>1581.6666666666665</ele><time>2026-05-04T10:39:00.999Z</time></trkpt><trkpt lat="31.941468762225714" lon="-6.086202045710545"><ele>1582.0</ele><time>2026-05-04T10:39:01.999Z</time></trkpt><trkpt lat="31.941442119860156" lon="-6.086115450880667"><ele>1582.3333333333333</ele><time>2026-05-04T10:39:02.999Z</time></trkpt><trkpt lat="31.941407893257644" lon="-6.086034887223194"><ele>1582.6666666666665</ele><time>2026-05-04T10:39:03.999Z</time></trkpt><trkpt lat="31.94136439283808" lon="-6.085964855551152"><ele>1583.0</ele><time>2026-05-04T10:39:04.999Z</time></trkpt><trkpt lat="31.941285024038834" lon="-6.085916718972791"><ele>1583.0</ele><time>2026-05-04T10:39:05.999Z</time></trkpt><trkpt lat="31.941192277072563" lon="-6.0859261907553455"><ele>1583.0</ele><time>2026-05-04T10:39:06.999Z</time></trkpt><trkpt lat="31.94110550262471" lon="-6.085972834279386"><ele>1583.0</ele><time>2026-05-04T10:39:07.999Z</time></trkpt><trkpt lat="31.9410233795282" lon="-6.086030982613911"><ele>1583.0</ele><time>2026-05-04T10:39:08.999Z</time></trkpt><trkpt lat="31.940946671846838" lon="-6.086097186949318"><ele>1583.0</ele><time>2026-05-04T10:39:09.999Z</time></trkpt><trkpt lat="31.940887817927173" lon="-6.086193578322278"><ele>1583.0</ele><time>2026-05-04T10:39:10.999Z</time></trkpt><trkpt lat="31.940853122705214" lon="-6.086315588180237"><ele>1583.0</ele><time>2026-05-04T10:39:11.999Z</time></trkpt><trkpt lat="31.940817500536554" lon="-6.086418644445422"><ele>1583.0</ele><time>2026-05-04T10:39:12.999Z</time></trkpt><trkpt lat="31.94078660080192" lon="-6.086521681793736"><ele>1583.0</ele><time>2026-05-04T10:39:13.999Z</time></trkpt><trkpt lat="31.940790368001707" lon="-6.086625540966945"><ele>1583.0</ele><time>2026-05-04T10:39:14.999Z</time></trkpt><trkpt lat="31.940840230979035" lon="-6.086722309778546"><ele>1576.0</ele><time>2026-05-04T10:39:15.999Z</time></trkpt><trkpt lat="31.94090602633172" lon="-6.086807484966309"><ele>1569.0</ele><time>2026-05-04T10:39:16.999Z</time></trkpt><trkpt lat="31.940974120263192" lon="-6.086907742810876"><ele>1562.0</ele><time>2026-05-04T10:39:17.999Z</time></trkpt><trkpt lat="31.94103091083618" lon="-6.087013360805485"><ele>1555.0</ele><time>2026-05-04T10:39:18.999Z</time></trkpt><trkpt lat="31.94107427276656" lon="-6.087128139682045"><ele>1548.0</ele><time>2026-05-04T10:39:19.999Z</time></trkpt><trkpt lat="31.94109819529303" lon="-6.087250256572523"><ele>1548.0</ele><time>2026-05-04T10:39:20.999Z</time></trkpt><trkpt lat="31.941112961146253" lon="-6.087380167353191"><ele>1548.0</ele><time>2026-05-04T10:39:21.999Z</time></trkpt><trkpt lat="31.941128041033334" lon="-6.087512093490304"><ele>1548.0</ele><time>2026-05-04T10:39:22.999Z</time></trkpt><trkpt lat="31.941142121956698" lon="-6.08763928710552"><ele>1548.0</ele><time>2026-05-04T10:39:23.999Z</time></trkpt><trkpt lat="31.94115849237967" lon="-6.087759968866525"><ele>1548.0</ele><time>2026-05-04T10:39:24.999Z</time></trkpt><trkpt lat="31.9411741749862" lon="-6.087877233824077"><ele>1543.6000000000001</ele><time>2026-05-04T10:39:25.999Z</time></trkpt><trkpt lat="31.941191397414176" lon="-6.087988894691384"><ele>1539.2</ele><time>2026-05-04T10:39:26.999Z</time></trkpt><trkpt lat="31.941198938416257" lon="-6.088097585901308"><ele>1534.8</ele><time>2026-05-04T10:39:27.999Z</time></trkpt><trkpt lat="31.94118099562179" lon="-6.088202732081172"><ele>1530.4</ele><time>2026-05-04T10:39:28.999Z</time></trkpt><trkpt lat="31.941147729895423" lon="-6.088303131046584"><ele>1526.0</ele><time>2026-05-04T10:39:29.999Z</time></trkpt><trkpt lat="31.94108796417343" lon="-6.0883996242474305"><ele>1522.8</ele><time>2026-05-04T10:39:30.999Z</time></trkpt><trkpt lat="31.941019571861048" lon="-6.088507268895575"><ele>1519.6</ele><time>2026-05-04T10:39:31.999Z</time></trkpt><trkpt lat="31.9409511079475" lon="-6.088616968194096"><ele>1516.4</ele><time>2026-05-04T10:39:32.999Z</time></trkpt><trkpt lat="31.94088337513891" lon="-6.088718256658436"><ele>1513.2</ele><time>2026-05-04T10:39:33.999Z</time></trkpt><trkpt lat="31.94081897300962" lon="-6.088814750447465"><ele>1510.0</ele><time>2026-05-04T10:39:34.999Z</time></trkpt><trkpt lat="31.94075796216629" lon="-6.088905556934264"><ele>1513.6</ele><time>2026-05-04T10:39:35.999Z</time></trkpt><trkpt lat="31.94070936987744" lon="-6.089011179203283"><ele>1517.2</ele><time>2026-05-04T10:39:36.999Z</time></trkpt><trkpt lat="31.940694506753253" lon="-6.089141026654504"><ele>1520.8000000000002</ele><time>2026-05-04T10:39:37.999Z</time></trkpt><trkpt lat="31.94069841323112" lon="-6.089279109518394"><ele>1524.4</ele><time>2026-05-04T10:39:38.999Z</time></trkpt><trkpt lat="31.94069545746667" lon="-6.089417957751676"><ele>1528.0</ele><time>2026-05-04T10:39:39.999Z</time></trkpt><trkpt lat="31.94067886562141" lon="-6.089557551508588"><ele>1528.0</ele><time>2026-05-04T10:39:40.999Z</time></trkpt><trkpt lat="31.9406545910067" lon="-6.089698379325244"><ele>1528.0</ele><time>2026-05-04T10:39:41.999Z</time></trkpt><trkpt lat="31.940634246217016" lon="-6.089837014298737"><ele>1528.0</ele><time>2026-05-04T10:39:42.999Z</time></trkpt><trkpt lat="31.940619204529618" lon="-6.089969079111519"><ele>1528.0</ele><time>2026-05-04T10:39:43.999Z</time></trkpt><trkpt lat="31.940611296909903" lon="-6.090099638789466"><ele>1526.6000000000001</ele><time>2026-05-04T10:39:44.999Z</time></trkpt><trkpt lat="31.940613185521315" lon="-6.090223945041697"><ele>1525.2</ele><time>2026-05-04T10:39:45.999Z</time></trkpt><trkpt lat="31.940632779161195" lon="-6.0903435265972155"><ele>1523.8</ele><time>2026-05-04T10:39:46.999Z</time></trkpt><trkpt lat="31.940666770205606" lon="-6.0904648052608685"><ele>1522.4</ele><time>2026-05-04T10:39:47.999Z</time></trkpt><trkpt lat="31.9407103810854" lon="-6.090580283458238"><ele>1521.0</ele><time>2026-05-04T10:39:48.999Z</time></trkpt><trkpt lat="31.940763912418912" lon="-6.090697931561438"><ele>1520.8</ele><time>2026-05-04T10:39:49.999Z</time></trkpt><trkpt lat="31.94081782878221" lon="-6.09081312851412"><ele>1520.6</ele><time>2026-05-04T10:39:50.999Z</time></trkpt><trkpt lat="31.940872126530433" lon="-6.090916188792633"><ele>1520.4</ele><time>2026-05-04T10:39:51.999Z</time></trkpt><trkpt lat="31.94091527699468" lon="-6.091008488637103"><ele>1520.2</ele><time>2026-05-04T10:39:52.999Z</time></trkpt><trkpt lat="31.940941067703747" lon="-6.091097589671188"><ele>1520.0</ele><time>2026-05-04T10:39:53.999Z</time></trkpt><trkpt lat="31.940947171545496" lon="-6.091178701462905"><ele>1520.0</ele><time>2026-05-04T10:39:54.999Z</time></trkpt><trkpt lat="31.94091844096288" lon="-6.0912601780630835"><ele>1520.0</ele><time>2026-05-04T10:39:55.999Z</time></trkpt><trkpt lat="31.940863075757594" lon="-6.091324814823401"><ele>1520.0</ele><time>2026-05-04T10:39:56.999Z</time></trkpt><trkpt lat="31.940791411309398" lon="-6.09135885070653"><ele>1520.0</ele><time>2026-05-04T10:39:57.999Z</time></trkpt><trkpt lat="31.940711554169756" lon="-6.091363300415923"><ele>1520.0</ele><time>2026-05-04T10:39:58.999Z</time></trkpt><trkpt lat="31.940623272081556" lon="-6.091352189975764"><ele>1520.0</ele><time>2026-05-04T10:39:59.999Z</time></trkpt><trkpt lat="31.940529271927474" lon="-6.091314293011529"><ele>1520.0</ele><time>2026-05-04T10:40:00.999Z</time></trkpt><trkpt lat="31.940438010913564" lon="-6.0912700670538955"><ele>1520.0</ele><time>2026-05-04T10:40:01.999Z</time></trkpt><trkpt lat="31.940351594017287" lon="-6.091223664504426"><ele>1520.0</ele><time>2026-05-04T10:40:02.999Z</time></trkpt><trkpt lat="31.940268113532014" lon="-6.0911755371212815"><ele>1520.0</ele><time>2026-05-04T10:40:03.999Z</time></trkpt><trkpt lat="31.94018178170153" lon="-6.091134748598169"><ele>1520.0</ele><time>2026-05-04T10:40:04.999Z</time></trkpt><trkpt lat="31.94009605962817" lon="-6.091099982226967"><ele>1520.0</ele><time>2026-05-04T10:40:05.999Z</time></trkpt><trkpt lat="31.940011895976397" lon="-6.091062415209542"><ele>1520.0</ele><time>2026-05-04T10:40:06.999Z</time></trkpt><trkpt lat="31.939926279316744" lon="-6.091028919475198"><ele>1520.0</ele><time>2026-05-04T10:40:07.999Z</time></trkpt><trkpt lat="31.939834571989902" lon="-6.0909905084940865"><ele>1520.0</ele><time>2026-05-04T10:40:08.999Z</time></trkpt><trkpt lat="31.939739563584514" lon="-6.090950105100366"><ele>1520.0</ele><time>2026-05-04T10:40:09.999Z</time></trkpt><trkpt lat="31.939627411221483" lon="-6.09092632509567"><ele>1520.0</ele><time>2026-05-04T10:40:10.999Z</time></trkpt><trkpt lat="31.939510104010704" lon="-6.090927097717005"><ele>1520.0</ele><time>2026-05-04T10:40:11.999Z</time></trkpt><trkpt lat="31.939387395384603" lon="-6.090919234841849"><ele>1520.0</ele><time>2026-05-04T10:40:12.999Z</time></trkpt><trkpt lat="31.93926846202952" lon="-6.090879862886315"><ele>1520.0</ele><time>2026-05-04T10:40:13.999Z</time></trkpt><trkpt lat="31.939164126934717" lon="-6.090824325057142"><ele>1517.4</ele><time>2026-05-04T10:40:14.999Z</time></trkpt><trkpt lat="31.939069945485983" lon="-6.090762800886969"><ele>1514.8</ele><time>2026-05-04T10:40:15.999Z</time></trkpt><trkpt lat="31.93897790901575" lon="-6.090704597030754"><ele>1512.1999999999998</ele><time>2026-05-04T10:40:16.999Z</time></trkpt><trkpt lat="31.93889295745882" lon="-6.090654012416639"><ele>1509.6</ele><time>2026-05-04T10:40:17.999Z</time></trkpt><trkpt lat="31.938809780469267" lon="-6.090623921296737"><ele>1507.0</ele><time>2026-05-04T10:40:18.999Z</time></trkpt><trkpt lat="31.93872378338236" lon="-6.090626506868112"><ele>1507.0</ele><time>2026-05-04T10:40:19.999Z</time></trkpt><trkpt lat="31.938672761013592" lon="-6.090715980301786"><ele>1507.0</ele><time>2026-05-04T10:40:20.999Z</time></trkpt><trkpt lat="31.938627785195077" lon="-6.0907982145967265"><ele>1507.0</ele><time>2026-05-04T10:40:21.999Z</time></trkpt><trkpt lat="31.938572767788653" lon="-6.090893748779361"><ele>1507.0</ele><time>2026-05-04T10:40:22.999Z</time></trkpt><trkpt lat="31.93851785741735" lon="-6.090999200998285"><ele>1507.0</ele><time>2026-05-04T10:40:23.999Z</time></trkpt><trkpt lat="31.938461103425993" lon="-6.091109086529356"><ele>1507.0</ele><time>2026-05-04T10:40:24.999Z</time></trkpt><trkpt lat="31.938401217848277" lon="-6.091224586506831"><ele>1507.0</ele><time>2026-05-04T10:40:25.999Z</time></trkpt><trkpt lat="31.93833985800864" lon="-6.091343647852255"><ele>1507.0</ele><time>2026-05-04T10:40:26.999Z</time></trkpt><trkpt lat="31.9382960691186" lon="-6.091448447276711"><ele>1507.0</ele><time>2026-05-04T10:40:27.999Z</time></trkpt><trkpt lat="31.93825765842579" lon="-6.091568526729313"><ele>1507.0</ele><time>2026-05-04T10:40:28.999Z</time></trkpt><trkpt lat="31.938221431582907" lon="-6.09168051140904"><ele>1505.3999999999999</ele><time>2026-05-04T10:40:29.999Z</time></trkpt><trkpt lat="31.938192377682366" lon="-6.091782538827877"><ele>1503.8</ele><time>2026-05-04T10:40:30.999Z</time></trkpt><trkpt lat="31.938168453988638" lon="-6.091884338481981"><ele>1502.2</ele><time>2026-05-04T10:40:31.999Z</time></trkpt><trkpt lat="31.938144704958066" lon="-6.091985394746506"><ele>1500.6</ele><time>2026-05-04T10:40:32.999Z</time></trkpt><trkpt lat="31.938117346893243" lon="-6.092092531138803"><ele>1499.0</ele><time>2026-05-04T10:40:33.999Z</time></trkpt><trkpt lat="31.938086742028343" lon="-6.092193770318388"><ele>1499.0</ele><time>2026-05-04T10:40:34.999Z</time></trkpt><trkpt lat="31.9380588970767" lon="-6.092285881208566"><ele>1499.0</ele><time>2026-05-04T10:40:35.999Z</time></trkpt><trkpt lat="31.9379877924479" lon="-6.092355319236978"><ele>1499.0</ele><time>2026-05-04T10:40:36.999Z</time></trkpt><trkpt lat="31.93793562246959" lon="-6.092422872461188"><ele>1499.0</ele><time>2026-05-04T10:40:37.999Z</time></trkpt><trkpt lat="31.9378862948923" lon="-6.092489807336444"><ele>1499.0</ele><time>2026-05-04T10:40:38.999Z</time></trkpt><trkpt lat="31.93781777595828" lon="-6.092535055987178"><ele>1499.0</ele><time>2026-05-04T10:40:39.999Z</time></trkpt><trkpt lat="31.93773258008074" lon="-6.092563235350455"><ele>1497.8000000000002</ele><time>2026-05-04T10:40:40.999Z</time></trkpt><trkpt lat="31.937657236558795" lon="-6.092575806933235"><ele>1496.6000000000001</ele><time>2026-05-04T10:40:41.999Z</time></trkpt><trkpt lat="31.93755182054606" lon="-6.092531717986115"><ele>1495.4</ele><time>2026-05-04T10:40:42.999Z</time></trkpt><trkpt lat="31.93747084200372" lon="-6.09246364307768"><ele>1494.2</ele><time>2026-05-04T10:40:43.999Z</time></trkpt><trkpt lat="31.937388243956036" lon="-6.0924148997350995"><ele>1493.0</ele><time>2026-05-04T10:40:44.999Z</time></trkpt><trkpt lat="31.93730491859013" lon="-6.092368130177204"><ele>1498.4</ele><time>2026-05-04T10:40:45.999Z</time></trkpt><trkpt lat="31.937215927741114" lon="-6.092320494228375"><ele>1503.8000000000002</ele><time>2026-05-04T10:40:46.999Z</time></trkpt><trkpt lat="31.9371248812105" lon="-6.092278341896179"><ele>1509.2</ele><time>2026-05-04T10:40:47.999Z</time></trkpt><trkpt lat="31.9370381702136" lon="-6.092221524831005"><ele>1514.6</ele><time>2026-05-04T10:40:48.999Z</time></trkpt><trkpt lat="31.93694590059126" lon="-6.092180585780923"><ele>1520.0</ele><time>2026-05-04T10:40:49.999Z</time></trkpt><trkpt lat="31.936846791779217" lon="-6.092159978766817"><ele>1520.0</ele><time>2026-05-04T10:40:50.999Z</time></trkpt><trkpt lat="31.936757068475224" lon="-6.092111858151704"><ele>1520.0</ele><time>2026-05-04T10:40:51.999Z</time></trkpt><trkpt lat="31.93667425413301" lon="-6.092062308215591"><ele>1520.0</ele><time>2026-05-04T10:40:52.999Z</time></trkpt><trkpt lat="31.936600200687952" lon="-6.091997801234936"><ele>1520.0</ele><time>2026-05-04T10:40:53.999Z</time></trkpt><trkpt lat="31.936522486003863" lon="-6.091940242228194"><ele>1520.0</ele><time>2026-05-04T10:40:54.999Z</time></trkpt><trkpt lat="31.93645880681006" lon="-6.09186768231881"><ele>1521.8</ele><time>2026-05-04T10:40:55.999Z</time></trkpt><trkpt lat="31.936383461994243" lon="-6.091797715742947"><ele>1523.6</ele><time>2026-05-04T10:40:56.999Z</time></trkpt><trkpt lat="31.936314704468234" lon="-6.091707706492045"><ele>1525.4</ele><time>2026-05-04T10:40:57.999Z</time></trkpt><trkpt lat="31.936246358936174" lon="-6.091613182104026"><ele>1527.2</ele><time>2026-05-04T10:40:58.999Z</time></trkpt><trkpt lat="31.936177989325344" lon="-6.09150930710299"><ele>1529.0</ele><time>2026-05-04T10:40:59.999Z</time></trkpt><trkpt lat="31.936117813122028" lon="-6.091410063787416"><ele>1529.0</ele><time>2026-05-04T10:41:00.999Z</time></trkpt><trkpt lat="31.93606373592772" lon="-6.091319754840783"><ele>1529.0</ele><time>2026-05-04T10:41:01.999Z</time></trkpt><trkpt lat="31.93601829329068" lon="-6.091238849175323"><ele>1529.0</ele><time>2026-05-04T10:41:02.999Z</time></trkpt><trkpt lat="31.935957709962032" lon="-6.091151194878472"><ele>1529.0</ele><time>2026-05-04T10:41:04.999Z</time></trkpt><trkpt lat="31.935876687509115" lon="-6.091112738827258"><ele>1529.0</ele><time>2026-05-04T10:41:06.999Z</time></trkpt><trkpt lat="31.935824518226305" lon="-6.0911860785485175"><ele>1529.0</ele><time>2026-05-04T10:41:07.999Z</time></trkpt><trkpt lat="31.93577152881171" lon="-6.091265019988178"><ele>1525.4</ele><time>2026-05-04T10:41:08.999Z</time></trkpt><trkpt lat="31.935798318399087" lon="-6.091392327939876"><ele>1521.8000000000002</ele><time>2026-05-04T10:41:09.999Z</time></trkpt><trkpt lat="31.935808353355835" lon="-6.091506982480494"><ele>1518.1999999999998</ele><time>2026-05-04T10:41:10.999Z</time></trkpt><trkpt lat="31.935817757469106" lon="-6.091628694427763"><ele>1514.6</ele><time>2026-05-04T10:41:11.999Z</time></trkpt><trkpt lat="31.935816969731956" lon="-6.0917549200308665"><ele>1511.0</ele><time>2026-05-04T10:41:12.999Z</time></trkpt><trkpt lat="31.93581192465057" lon="-6.091882681432079"><ele>1507.6</ele><time>2026-05-04T10:41:13.999Z</time></trkpt><trkpt lat="31.93580204763787" lon="-6.091995689386843"><ele>1504.1999999999998</ele><time>2026-05-04T10:41:14.999Z</time></trkpt><trkpt lat="31.93579212551769" lon="-6.092096604901492"><ele>1500.8000000000002</ele><time>2026-05-04T10:41:15.999Z</time></trkpt><trkpt lat="31.935790191384726" lon="-6.092210242069228"><ele>1497.4</ele><time>2026-05-04T10:41:16.999Z</time></trkpt><trkpt lat="31.935781128065628" lon="-6.09232963877264"><ele>1494.0</ele><time>2026-05-04T10:41:17.999Z</time></trkpt><trkpt lat="31.935779045511325" lon="-6.092457464655306"><ele>1491.25</ele><time>2026-05-04T10:41:18.999Z</time></trkpt><trkpt lat="31.935777910370355" lon="-6.092592815899832"><ele>1488.5</ele><time>2026-05-04T10:41:19.999Z</time></trkpt><trkpt lat="31.935773268367388" lon="-6.092725486310265"><ele>1485.75</ele><time>2026-05-04T10:41:20.999Z</time></trkpt><trkpt lat="31.935749415172875" lon="-6.092857558006803"><ele>1483.0</ele><time>2026-05-04T10:41:21.999Z</time></trkpt><trkpt lat="31.93570308373086" lon="-6.092988606646547"><ele>1483.0</ele><time>2026-05-04T10:41:22.999Z</time></trkpt><trkpt lat="31.935636061174534" lon="-6.0931177844007065"><ele>1483.0</ele><time>2026-05-04T10:41:23.999Z</time></trkpt><trkpt lat="31.935569064921797" lon="-6.09325027820182"><ele>1483.0</ele><time>2026-05-04T10:41:24.999Z</time></trkpt><trkpt lat="31.935483654341773" lon="-6.09333541718396"><ele>1483.0</ele><time>2026-05-04T10:41:25.999Z</time></trkpt><trkpt lat="31.93542210951871" lon="-6.093453072007564"><ele>1481.25</ele><time>2026-05-04T10:41:26.999Z</time></trkpt><trkpt lat="31.9354000965199" lon="-6.093587385418448"><ele>1479.5</ele><time>2026-05-04T10:41:27.999Z</time></trkpt><trkpt lat="31.935446061413547" lon="-6.093717020973422"><ele>1477.75</ele><time>2026-05-04T10:41:28.999Z</time></trkpt><trkpt lat="31.935509543729626" lon="-6.093844280212224"><ele>1476.0</ele><time>2026-05-04T10:41:29.999Z</time></trkpt><trkpt lat="31.9355649477454" lon="-6.093979349276686"><ele>1474.8</ele><time>2026-05-04T10:41:30.999Z</time></trkpt><trkpt lat="31.93560478581134" lon="-6.094110979292677"><ele>1473.6</ele><time>2026-05-04T10:41:31.999Z</time></trkpt><trkpt lat="31.935614307374056" lon="-6.0942464785882295"><ele>1472.4</ele><time>2026-05-04T10:41:32.999Z</time></trkpt><trkpt lat="31.935619243266885" lon="-6.094366464237722"><ele>1471.2</ele><time>2026-05-04T10:41:33.999Z</time></trkpt><trkpt lat="31.9356220137717" lon="-6.0944848446693225"><ele>1470.0</ele><time>2026-05-04T10:41:34.999Z</time></trkpt><trkpt lat="31.935552242490658" lon="-6.0945892259211885"><ele>1470.0</ele><time>2026-05-04T10:41:35.999Z</time></trkpt><trkpt lat="31.93547593754003" lon="-6.094671564820879"><ele>1470.0</ele><time>2026-05-04T10:41:36.999Z</time></trkpt><trkpt lat="31.93537949164617" lon="-6.094728747563173"><ele>1470.0</ele><time>2026-05-04T10:41:37.999Z</time></trkpt><trkpt lat="31.93526278375872" lon="-6.094746286725575"><ele>1470.0</ele><time>2026-05-04T10:41:38.999Z</time></trkpt><trkpt lat="31.93513113660359" lon="-6.094720652099047"><ele>1473.75</ele><time>2026-05-04T10:41:39.999Z</time></trkpt><trkpt lat="31.934980645159666" lon="-6.094701126974541"><ele>1477.5</ele><time>2026-05-04T10:41:40.999Z</time></trkpt><trkpt lat="31.934843816136866" lon="-6.094697722236331"><ele>1481.25</ele><time>2026-05-04T10:41:41.999Z</time></trkpt><trkpt lat="31.934712878096168" lon="-6.094722398824967"><ele>1485.0</ele><time>2026-05-04T10:41:42.999Z</time></trkpt><trkpt lat="31.93459177493588" lon="-6.094749876151943"><ele>1485.0</ele><time>2026-05-04T10:41:43.999Z</time></trkpt><trkpt lat="31.93449983062388" lon="-6.094782265677226"><ele>1485.0</ele><time>2026-05-04T10:41:44.999Z</time></trkpt><trkpt lat="31.934419306996784" lon="-6.094731626068893"><ele>1485.0</ele><time>2026-05-04T10:41:45.999Z</time></trkpt><trkpt lat="31.934334007835428" lon="-6.0946812553146374"><ele>1485.0</ele><time>2026-05-04T10:41:46.999Z</time></trkpt><trkpt lat="31.934287887127912" lon="-6.094547113335222"><ele>1485.0</ele><time>2026-05-04T10:41:47.999Z</time></trkpt><trkpt lat="31.934270790061984" lon="-6.09440473245231"><ele>1485.0</ele><time>2026-05-04T10:41:48.999Z</time></trkpt><trkpt lat="31.934260858558986" lon="-6.0942534560503185"><ele>1485.0</ele><time>2026-05-04T10:41:49.999Z</time></trkpt><trkpt lat="31.934234257640185" lon="-6.094102555238586"><ele>1485.0</ele><time>2026-05-04T10:41:50.999Z</time></trkpt><trkpt lat="31.934209693200806" lon="-6.093958224705365"><ele>1485.0</ele><time>2026-05-04T10:41:51.999Z</time></trkpt><trkpt lat="31.934178113969832" lon="-6.093825798197151"><ele>1484.8</ele><time>2026-05-04T10:41:52.999Z</time></trkpt><trkpt lat="31.93412338442114" lon="-6.093709567436262"><ele>1484.6</ele><time>2026-05-04T10:41:53.999Z</time></trkpt><trkpt lat="31.93402309265948" lon="-6.093647026832568"><ele>1484.4</ele><time>2026-05-04T10:41:54.999Z</time></trkpt><trkpt lat="31.933925061662606" lon="-6.093595125692144"><ele>1484.2</ele><time>2026-05-04T10:41:55.999Z</time></trkpt><trkpt lat="31.933823478511023" lon="-6.093538838580003"><ele>1484.0</ele><time>2026-05-04T10:41:56.999Z</time></trkpt><trkpt lat="31.933723955010894" lon="-6.093483940996818"><ele>1484.0</ele><time>2026-05-04T10:41:57.999Z</time></trkpt><trkpt lat="31.93362607306679" lon="-6.093428902236254"><ele>1484.0</ele><time>2026-05-04T10:41:58.999Z</time></trkpt><trkpt lat="31.933538891685764" lon="-6.093361740066565"><ele>1484.0</ele><time>2026-05-04T10:41:59.999Z</time></trkpt><trkpt lat="31.933455191852484" lon="-6.093294420005006"><ele>1484.0</ele><time>2026-05-04T10:42:00.999Z</time></trkpt><trkpt lat="31.93336408834899" lon="-6.0932474037009134"><ele>1484.0</ele><time>2026-05-04T10:42:01.999Z</time></trkpt><trkpt lat="31.93328642020324" lon="-6.093190621271938"><ele>1482.25</ele><time>2026-05-04T10:42:02.999Z</time></trkpt><trkpt lat="31.93330060015044" lon="-6.092951161664796"><ele>1480.5</ele><time>2026-05-04T10:42:03.999Z</time></trkpt><trkpt lat="31.933248812236886" lon="-6.092823046189705"><ele>1478.75</ele><time>2026-05-04T10:42:04.999Z</time></trkpt><trkpt lat="31.933192045644553" lon="-6.092694738276736"><ele>1477.0</ele><time>2026-05-04T10:42:05.999Z</time></trkpt><trkpt lat="31.93312678716657" lon="-6.092569285917716"><ele>1477.0</ele><time>2026-05-04T10:42:06.999Z</time></trkpt><trkpt lat="31.933040142996678" lon="-6.092457431629812"><ele>1477.0</ele><time>2026-05-04T10:42:07.999Z</time></trkpt><trkpt lat="31.93294237005995" lon="-6.092353094013811"><ele>1477.0</ele><time>2026-05-04T10:42:08.999Z</time></trkpt><trkpt lat="31.932842201078536" lon="-6.092254074904031"><ele>1477.0</ele><time>2026-05-04T10:42:09.999Z</time></trkpt><trkpt lat="31.932749284154074" lon="-6.092154669591322"><ele>1474.5</ele><time>2026-05-04T10:42:10.999Z</time></trkpt><trkpt lat="31.932660190015795" lon="-6.0920561198292225"><ele>1472.0</ele><time>2026-05-04T10:42:11.999Z</time></trkpt><trkpt lat="31.932578138654904" lon="-6.091959480837881"><ele>1469.5</ele><time>2026-05-04T10:42:12.999Z</time></trkpt><trkpt lat="31.932500120593946" lon="-6.091866170317116"><ele>1467.0</ele><time>2026-05-04T10:42:13.999Z</time></trkpt><trkpt lat="31.93242645800678" lon="-6.0917710024402645"><ele>1467.0</ele><time>2026-05-04T10:42:14.999Z</time></trkpt><trkpt lat="31.932357600432077" lon="-6.091673825646407"><ele>1467.0</ele><time>2026-05-04T10:42:15.999Z</time></trkpt><trkpt lat="31.932284998614996" lon="-6.091587030342945"><ele>1467.0</ele><time>2026-05-04T10:42:16.999Z</time></trkpt><trkpt lat="31.932220117757982" lon="-6.0915034448441086"><ele>1467.0</ele><time>2026-05-04T10:42:17.999Z</time></trkpt><trkpt lat="31.932155322674927" lon="-6.091412650826554"><ele>1467.0</ele><time>2026-05-04T10:42:18.999Z</time></trkpt><trkpt lat="31.93208752374184" lon="-6.0913141515289535"><ele>1474.3999999999999</ele><time>2026-05-04T10:42:19.999Z</time></trkpt><trkpt lat="31.932017841063562" lon="-6.0912092728518665"><ele>1481.8</ele><time>2026-05-04T10:42:20.999Z</time></trkpt><trkpt lat="31.93194751320583" lon="-6.091107066956591"><ele>1489.2</ele><time>2026-05-04T10:42:21.999Z</time></trkpt><trkpt lat="31.931882217695" lon="-6.0910170969857385"><ele>1496.6</ele><time>2026-05-04T10:42:22.999Z</time></trkpt><trkpt lat="31.931820145594827" lon="-6.090929455923958"><ele>1504.0</ele><time>2026-05-04T10:42:23.999Z</time></trkpt><trkpt lat="31.931756843964703" lon="-6.090867265545829"><ele>1497.0</ele><time>2026-05-04T10:42:24.999Z</time></trkpt><trkpt lat="31.931681776357202" lon="-6.090865270933028"><ele>1490.0</ele><time>2026-05-04T10:42:25.999Z</time></trkpt><trkpt lat="31.93160948062644" lon="-6.090919385986822"><ele>1483.0</ele><time>2026-05-04T10:42:26.999Z</time></trkpt><trkpt lat="31.931566512749804" lon="-6.091009370427331"><ele>1476.0</ele><time>2026-05-04T10:42:27.999Z</time></trkpt><trkpt lat="31.9315597364829" lon="-6.091116696148766"><ele>1469.0</ele><time>2026-05-04T10:42:28.999Z</time></trkpt><trkpt lat="31.93158786423283" lon="-6.091242262811727"><ele>1469.0</ele><time>2026-05-04T10:42:29.999Z</time></trkpt><trkpt lat="31.931624949719836" lon="-6.091372872216489"><ele>1469.0</ele><time>2026-05-04T10:42:30.999Z</time></trkpt><trkpt lat="31.93163890153599" lon="-6.091518229961729"><ele>1469.0</ele><time>2026-05-04T10:42:31.999Z</time></trkpt><trkpt lat="31.931660022080294" lon="-6.091669586036998"><ele>1469.0</ele><time>2026-05-04T10:42:32.999Z</time></trkpt><trkpt lat="31.931700426767538" lon="-6.091825298520736"><ele>1468.5</ele><time>2026-05-04T10:42:33.999Z</time></trkpt><trkpt lat="31.931749487422277" lon="-6.091979139561683"><ele>1468.0</ele><time>2026-05-04T10:42:34.999Z</time></trkpt><trkpt lat="31.931795449862047" lon="-6.0921295923316805"><ele>1467.5</ele><time>2026-05-04T10:42:35.999Z</time></trkpt><trkpt lat="31.931833087041586" lon="-6.0922754713062774"><ele>1467.0</ele><time>2026-05-04T10:42:36.999Z</time></trkpt><trkpt lat="31.931864572707696" lon="-6.092417970253819"><ele>1459.5</ele><time>2026-05-04T10:42:37.999Z</time></trkpt><trkpt lat="31.931884578706185" lon="-6.092560121841157"><ele>1452.0</ele><time>2026-05-04T10:42:38.999Z</time></trkpt><trkpt lat="31.93188371416355" lon="-6.092699603632855"><ele>1444.5</ele><time>2026-05-04T10:42:39.999Z</time></trkpt><trkpt lat="31.93185098176825" lon="-6.092833765745653"><ele>1437.0</ele><time>2026-05-04T10:42:40.999Z</time></trkpt><trkpt lat="31.93180163127331" lon="-6.092964167725879"><ele>1437.0</ele><time>2026-05-04T10:42:41.999Z</time></trkpt><trkpt lat="31.931755096318867" lon="-6.093090215177583"><ele>1437.0</ele><time>2026-05-04T10:42:42.999Z</time></trkpt><trkpt lat="31.93171074002121" lon="-6.093210889112565"><ele>1437.0</ele><time>2026-05-04T10:42:43.999Z</time></trkpt><trkpt lat="31.931667798739575" lon="-6.093330197028386"><ele>1437.0</ele><time>2026-05-04T10:42:44.999Z</time></trkpt><trkpt lat="31.931622146059595" lon="-6.093435617940739"><ele>1437.0</ele><time>2026-05-04T10:42:45.999Z</time></trkpt><trkpt lat="31.931557656003587" lon="-6.093522469940374"><ele>1437.3999999999999</ele><time>2026-05-04T10:42:46.999Z</time></trkpt><trkpt lat="31.931471085207118" lon="-6.093582970006269"><ele>1437.8</ele><time>2026-05-04T10:42:47.999Z</time></trkpt><trkpt lat="31.93136260903953" lon="-6.093603445026807"><ele>1438.2</ele><time>2026-05-04T10:42:48.999Z</time></trkpt><trkpt lat="31.931257393315565" lon="-6.093577674922404"><ele>1438.6</ele><time>2026-05-04T10:42:49.999Z</time></trkpt><trkpt lat="31.93116375012929" lon="-6.0935271417852"><ele>1439.0</ele><time>2026-05-04T10:42:50.999Z</time></trkpt><trkpt lat="31.93108136376723" lon="-6.0934941060119465"><ele>1439.0</ele><time>2026-05-04T10:42:51.999Z</time></trkpt><trkpt lat="31.9310049115927" lon="-6.093515384073996"><ele>1439.0</ele><time>2026-05-04T10:42:52.999Z</time></trkpt><trkpt lat="31.930942195579988" lon="-6.0935843557277725"><ele>1439.0</ele><time>2026-05-04T10:42:53.999Z</time></trkpt><trkpt lat="31.930912404853192" lon="-6.093704406838105"><ele>1439.0</ele><time>2026-05-04T10:42:54.999Z</time></trkpt><trkpt lat="31.93091799594545" lon="-6.093839483987358"><ele>1439.0</ele><time>2026-05-04T10:42:55.999Z</time></trkpt><trkpt lat="31.93094329666885" lon="-6.093989151371582"><ele>1433.25</ele><time>2026-05-04T10:42:56.999Z</time></trkpt><trkpt lat="31.93097272964925" lon="-6.094148438004981"><ele>1427.5</ele><time>2026-05-04T10:42:57.999Z</time></trkpt><trkpt lat="31.93098859272688" lon="-6.094308654057358"><ele>1421.75</ele><time>2026-05-04T10:42:58.999Z</time></trkpt><trkpt lat="31.93100583428352" lon="-6.094461177780974"><ele>1416.0</ele><time>2026-05-04T10:42:59.999Z</time></trkpt><trkpt lat="31.931025979886456" lon="-6.09460630352361"><ele>1416.0</ele><time>2026-05-04T10:43:00.999Z</time></trkpt><trkpt lat="31.931046072629" lon="-6.094752306128092"><ele>1416.0</ele><time>2026-05-04T10:43:01.999Z</time></trkpt><trkpt lat="31.93107608898875" lon="-6.094896900105009"><ele>1416.0</ele><time>2026-05-04T10:43:02.999Z</time></trkpt><trkpt lat="31.931119741239534" lon="-6.095035586494296"><ele>1416.0</ele><time>2026-05-04T10:43:03.999Z</time></trkpt><trkpt lat="31.931167530336115" lon="-6.095165033345781"><ele>1412.5</ele><time>2026-05-04T10:43:04.999Z</time></trkpt><trkpt lat="31.931203072582264" lon="-6.09528776298125"><ele>1409.0</ele><time>2026-05-04T10:43:05.999Z</time></trkpt><trkpt lat="31.931218509373473" lon="-6.095415525811753"><ele>1405.5</ele><time>2026-05-04T10:43:06.999Z</time></trkpt><trkpt lat="31.93120112047068" lon="-6.0955462906892235"><ele>1402.0</ele><time>2026-05-04T10:43:07.999Z</time></trkpt><trkpt lat="31.931156045773527" lon="-6.095678601626939"><ele>1398.5</ele><time>2026-05-04T10:43:08.999Z</time></trkpt><trkpt lat="31.931097418612907" lon="-6.095816687044921"><ele>1395.0</ele><time>2026-05-04T10:43:09.999Z</time></trkpt><trkpt lat="31.93103493263707" lon="-6.095960727704106"><ele>1391.5</ele><time>2026-05-04T10:43:10.999Z</time></trkpt><trkpt lat="31.930967566802316" lon="-6.096093166811523"><ele>1388.0</ele><time>2026-05-04T10:43:11.999Z</time></trkpt><trkpt lat="31.930891586105954" lon="-6.096215884725887"><ele>1396.75</ele><time>2026-05-04T10:43:12.999Z</time></trkpt><trkpt lat="31.93080627992353" lon="-6.096330538699688"><ele>1405.5</ele><time>2026-05-04T10:43:13.999Z</time></trkpt><trkpt lat="31.930713255417384" lon="-6.096432373830699"><ele>1414.25</ele><time>2026-05-04T10:43:14.999Z</time></trkpt><trkpt lat="31.93061009976423" lon="-6.096518070496274"><ele>1423.0</ele><time>2026-05-04T10:43:15.999Z</time></trkpt><trkpt lat="31.93049523135256" lon="-6.096578866457466"><ele>1423.5</ele><time>2026-05-04T10:43:16.999Z</time></trkpt><trkpt lat="31.930373648472866" lon="-6.09661489636864"><ele>1424.0</ele><time>2026-05-04T10:43:17.999Z</time></trkpt><trkpt lat="31.930248585246304" lon="-6.096624446581771"><ele>1424.5</ele><time>2026-05-04T10:43:18.999Z</time></trkpt><trkpt lat="31.930125543846636" lon="-6.09659911995116"><ele>1425.0</ele><time>2026-05-04T10:43:19.999Z</time></trkpt><trkpt lat="31.930011740934898" lon="-6.096537439946096"><ele>1425.0</ele><time>2026-05-04T10:43:20.999Z</time></trkpt><trkpt lat="31.929915518156854" lon="-6.0964446372635805"><ele>1425.0</ele><time>2026-05-04T10:43:21.999Z</time></trkpt><trkpt lat="31.929837934222988" lon="-6.096340270322385"><ele>1425.0</ele><time>2026-05-04T10:43:22.999Z</time></trkpt><trkpt lat="31.929765700872682" lon="-6.096244254568815"><ele>1425.0</ele><time>2026-05-04T10:43:23.999Z</time></trkpt><trkpt lat="31.929696966268153" lon="-6.096168863094159"><ele>1425.0</ele><time>2026-05-04T10:43:24.999Z</time></trkpt><trkpt lat="31.929612734356397" lon="-6.0961217399009735"><ele>1425.0</ele><time>2026-05-04T10:43:25.999Z</time></trkpt><trkpt lat="31.929516412028473" lon="-6.096125057876357"><ele>1425.0</ele><time>2026-05-04T10:43:26.999Z</time></trkpt><trkpt lat="31.929429143579977" lon="-6.096187541890838"><ele>1425.0</ele><time>2026-05-04T10:43:27.999Z</time></trkpt><trkpt lat="31.92935505909388" lon="-6.09630228787464"><ele>1425.0</ele><time>2026-05-04T10:43:28.999Z</time></trkpt><trkpt lat="31.92929799259535" lon="-6.096434635429568"><ele>1425.0</ele><time>2026-05-04T10:43:29.999Z</time></trkpt><trkpt lat="31.929262173264526" lon="-6.0965842320308505"><ele>1418.75</ele><time>2026-05-04T10:43:30.999Z</time></trkpt><trkpt lat="31.92922866209176" lon="-6.096733501344195"><ele>1412.5</ele><time>2026-05-04T10:43:31.999Z</time></trkpt><trkpt lat="31.92919189125373" lon="-6.096873212710381"><ele>1406.25</ele><time>2026-05-04T10:43:32.999Z</time></trkpt><trkpt lat="31.929153055407333" lon="-6.096999271909891"><ele>1400.0</ele><time>2026-05-04T10:43:33.999Z</time></trkpt><trkpt lat="31.92909781148528" lon="-6.0971089309434525"><ele>1399.5</ele><time>2026-05-04T10:43:34.999Z</time></trkpt><trkpt lat="31.92901410632434" lon="-6.097193862080397"><ele>1399.0</ele><time>2026-05-04T10:43:35.999Z</time></trkpt><trkpt lat="31.928908373376604" lon="-6.097257184562134"><ele>1398.5</ele><time>2026-05-04T10:43:36.999Z</time></trkpt><trkpt lat="31.928783472837456" lon="-6.097310631336285"><ele>1398.0</ele><time>2026-05-04T10:43:37.999Z</time></trkpt><trkpt lat="31.92865022911049" lon="-6.097351677817451"><ele>1398.0</ele><time>2026-05-04T10:43:38.999Z</time></trkpt><trkpt lat="31.928522526112896" lon="-6.097390499531208"><ele>1398.0</ele><time>2026-05-04T10:43:39.999Z</time></trkpt><trkpt lat="31.9284009358878" lon="-6.097415034675997"><ele>1398.0</ele><time>2026-05-04T10:43:40.999Z</time></trkpt><trkpt lat="31.92827861076029" lon="-6.097408905152129"><ele>1398.0</ele><time>2026-05-04T10:43:41.999Z</time></trkpt><trkpt lat="31.928151901524327" lon="-6.097368814707545"><ele>1401.25</ele><time>2026-05-04T10:43:42.999Z</time></trkpt><trkpt lat="31.92802337203441" lon="-6.097301279494795"><ele>1404.5</ele><time>2026-05-04T10:43:43.999Z</time></trkpt><trkpt lat="31.927897809124236" lon="-6.097217168601717"><ele>1407.75</ele><time>2026-05-04T10:43:44.999Z</time></trkpt><trkpt lat="31.92778646001339" lon="-6.097123432022532"><ele>1411.0</ele><time>2026-05-04T10:43:45.999Z</time></trkpt><trkpt lat="31.92768269342422" lon="-6.097030526994332"><ele>1411.0</ele><time>2026-05-04T10:43:46.999Z</time></trkpt><trkpt lat="31.927585674252764" lon="-6.096932313756263"><ele>1411.0</ele><time>2026-05-04T10:43:47.999Z</time></trkpt><trkpt lat="31.927507071083287" lon="-6.096813203375722"><ele>1411.0</ele><time>2026-05-04T10:43:48.999Z</time></trkpt><trkpt lat="31.92744043876628" lon="-6.096667707103137"><ele>1411.0</ele><time>2026-05-04T10:43:49.999Z</time></trkpt><trkpt lat="31.927368471916804" lon="-6.096518095877077"><ele>1407.75</ele><time>2026-05-04T10:43:50.999Z</time></trkpt><trkpt lat="31.927292814757717" lon="-6.096369076206454"><ele>1404.5</ele><time>2026-05-04T10:43:51.999Z</time></trkpt><trkpt lat="31.92721926527634" lon="-6.096222061882458"><ele>1401.25</ele><time>2026-05-04T10:43:52.999Z</time></trkpt><trkpt lat="31.927149069888458" lon="-6.096080254167364"><ele>1398.0</ele><time>2026-05-04T10:43:53.999Z</time></trkpt><trkpt lat="31.92708066123691" lon="-6.095941176989322"><ele>1398.0</ele><time>2026-05-04T10:43:54.999Z</time></trkpt><trkpt lat="31.927018335739902" lon="-6.095804090014855"><ele>1398.0</ele><time>2026-05-04T10:43:55.999Z</time></trkpt><trkpt lat="31.926957060260545" lon="-6.095669580327036"><ele>1398.0</ele><time>2026-05-04T10:43:56.999Z</time></trkpt><trkpt lat="31.92689380710478" lon="-6.095542453994063"><ele>1398.0</ele><time>2026-05-04T10:43:57.999Z</time></trkpt><trkpt lat="31.92682970150073" lon="-6.095421372389109"><ele>1402.25</ele><time>2026-05-04T10:43:58.999Z</time></trkpt><trkpt lat="31.926778793151293" lon="-6.095298636055395"><ele>1406.5</ele><time>2026-05-04T10:43:59.999Z</time></trkpt><trkpt lat="31.926745019633515" lon="-6.0951717732894855"><ele>1410.75</ele><time>2026-05-04T10:44:00.999Z</time></trkpt><trkpt lat="31.92672864285605" lon="-6.095042045954352"><ele>1415.0</ele><time>2026-05-04T10:44:01.999Z</time></trkpt><trkpt lat="31.92672812935192" lon="-6.094911470510951"><ele>1410.0</ele><time>2026-05-04T10:44:02.999Z</time></trkpt><trkpt lat="31.92673248985979" lon="-6.094774087779526"><ele>1405.0</ele><time>2026-05-04T10:44:03.999Z</time></trkpt><trkpt lat="31.926732406018655" lon="-6.094643447811822"><ele>1400.0</ele><time>2026-05-04T10:44:04.999Z</time></trkpt><trkpt lat="31.926735557399663" lon="-6.094517521722285"><ele>1395.0</ele><time>2026-05-04T10:44:05.999Z</time></trkpt><trkpt lat="31.926732033786127" lon="-6.094404256036174"><ele>1390.0</ele><time>2026-05-04T10:44:06.999Z</time></trkpt><trkpt lat="31.92668903168652" lon="-6.094309856233344"><ele>1390.0</ele><time>2026-05-04T10:44:07.999Z</time></trkpt><trkpt lat="31.92662854565302" lon="-6.094251795468512"><ele>1390.0</ele><time>2026-05-04T10:44:08.999Z</time></trkpt><trkpt lat="31.926553656240475" lon="-6.094233637251927"><ele>1390.0</ele><time>2026-05-04T10:44:09.999Z</time></trkpt><trkpt lat="31.92648211246087" lon="-6.0942289461966395"><ele>1390.0</ele><time>2026-05-04T10:44:10.999Z</time></trkpt><trkpt lat="31.926406023896522" lon="-6.094282710438265"><ele>1390.0</ele><time>2026-05-04T10:44:11.999Z</time></trkpt><trkpt lat="31.926339946794002" lon="-6.09439278107967"><ele>1390.0</ele><time>2026-05-04T10:44:12.999Z</time></trkpt><trkpt lat="31.926300448971677" lon="-6.094537175567976"><ele>1390.0</ele><time>2026-05-04T10:44:13.999Z</time></trkpt><trkpt lat="31.92627692280196" lon="-6.0947037029188085"><ele>1390.0</ele><time>2026-05-04T10:44:14.999Z</time></trkpt><trkpt lat="31.92625573628098" lon="-6.094853514176731"><ele>1390.0</ele><time>2026-05-04T10:44:15.999Z</time></trkpt><trkpt lat="31.926228108478448" lon="-6.094978038514461"><ele>1390.0</ele><time>2026-05-04T10:44:16.999Z</time></trkpt><trkpt lat="31.926196724556586" lon="-6.095089682412819"><ele>1387.6</ele><time>2026-05-04T10:44:17.999Z</time></trkpt><trkpt lat="31.926152622580492" lon="-6.095187345895659"><ele>1385.2</ele><time>2026-05-04T10:44:18.999Z</time></trkpt><trkpt lat="31.926088113059095" lon="-6.095265329952197"><ele>1382.8000000000002</ele><time>2026-05-04T10:44:19.999Z</time></trkpt><trkpt lat="31.926019384258773" lon="-6.095314408081852"><ele>1380.4</ele><time>2026-05-04T10:44:20.999Z</time></trkpt><trkpt lat="31.92593024909446" lon="-6.095335935981597"><ele>1378.0</ele><time>2026-05-04T10:44:21.999Z</time></trkpt><trkpt lat="31.925824099715605" lon="-6.0953146140932"><ele>1378.0</ele><time>2026-05-04T10:44:22.999Z</time></trkpt><trkpt lat="31.925687484621307" lon="-6.095268239323111"><ele>1378.0</ele><time>2026-05-04T10:44:23.999Z</time></trkpt><trkpt lat="31.925575492012772" lon="-6.095236048890396"><ele>1378.0</ele><time>2026-05-04T10:44:24.999Z</time></trkpt><trkpt lat="31.925451309754628" lon="-6.095186413520614"><ele>1378.0</ele><time>2026-05-04T10:44:25.999Z</time></trkpt><trkpt lat="31.925309617613728" lon="-6.095153931897362"><ele>1378.0</ele><time>2026-05-04T10:44:26.999Z</time></trkpt><trkpt lat="31.925163318301696" lon="-6.095152293990409"><ele>1378.0</ele><time>2026-05-04T10:44:27.999Z</time></trkpt><trkpt lat="31.92501123278422" lon="-6.0951801364363405"><ele>1378.0</ele><time>2026-05-04T10:44:28.999Z</time></trkpt><trkpt lat="31.92486286851045" lon="-6.095233207417312"><ele>1382.0</ele><time>2026-05-04T10:44:29.999Z</time></trkpt><trkpt lat="31.924729497236726" lon="-6.095315002167786"><ele>1386.0</ele><time>2026-05-04T10:44:30.999Z</time></trkpt><trkpt lat="31.924598503216686" lon="-6.095415263101025"><ele>1390.0</ele><time>2026-05-04T10:44:32Z</time></trkpt><trkpt lat="31.92446225054697" lon="-6.095531673204504"><ele>1390.0</ele><time>2026-05-04T10:44:33Z</time></trkpt><trkpt lat="31.924328998669058" lon="-6.095651181646622"><ele>1390.0</ele><time>2026-05-04T10:44:34Z</time></trkpt><trkpt lat="31.92420728146425" lon="-6.095755781960659"><ele>1390.0</ele><time>2026-05-04T10:44:35Z</time></trkpt><trkpt lat="31.924089817382868" lon="-6.0958663897735095"><ele>1384.25</ele><time>2026-05-04T10:44:36Z</time></trkpt><trkpt lat="31.923973730046516" lon="-6.095975219661036"><ele>1378.5</ele><time>2026-05-04T10:44:37Z</time></trkpt><trkpt lat="31.92385617485442" lon="-6.096087350405194"><ele>1372.75</ele><time>2026-05-04T10:44:38Z</time></trkpt><trkpt lat="31.92374001676758" lon="-6.096192734472457"><ele>1367.0</ele><time>2026-05-04T10:44:39Z</time></trkpt><trkpt lat="31.923627936989096" lon="-6.096275808255479"><ele>1367.0</ele><time>2026-05-04T10:44:40Z</time></trkpt><trkpt lat="31.923507450346357" lon="-6.096324012300213"><ele>1367.0</ele><time>2026-05-04T10:44:41Z</time></trkpt><trkpt lat="31.923385095386145" lon="-6.0963334047564155"><ele>1367.0</ele><time>2026-05-04T10:44:42Z</time></trkpt><trkpt lat="31.92326476979845" lon="-6.096305930594089"><ele>1367.0</ele><time>2026-05-04T10:44:43Z</time></trkpt><trkpt lat="31.92314902725399" lon="-6.096244141226821"><ele>1371.75</ele><time>2026-05-04T10:44:44Z</time></trkpt><trkpt lat="31.923039443846424" lon="-6.096162241665087"><ele>1376.5</ele><time>2026-05-04T10:44:45Z</time></trkpt><trkpt lat="31.922939396425733" lon="-6.096062891631347"><ele>1381.25</ele><time>2026-05-04T10:44:46Z</time></trkpt><trkpt lat="31.92283645008688" lon="-6.095969267276511"><ele>1386.0</ele><time>2026-05-04T10:44:47Z</time></trkpt><trkpt lat="31.922739279198513" lon="-6.095865587487591"><ele>1386.0</ele><time>2026-05-04T10:44:48Z</time></trkpt><trkpt lat="31.92264696233307" lon="-6.095756343327439"><ele>1386.0</ele><time>2026-05-04T10:44:49Z</time></trkpt><trkpt lat="31.922539616537872" lon="-6.095667314066701"><ele>1386.0</ele><time>2026-05-04T10:44:50Z</time></trkpt><trkpt lat="31.92241316735202" lon="-6.095624065812456"><ele>1386.0</ele><time>2026-05-04T10:44:51Z</time></trkpt><trkpt lat="31.922278548110654" lon="-6.095612323441695"><ele>1390.25</ele><time>2026-05-04T10:44:52Z</time></trkpt><trkpt lat="31.922144772260378" lon="-6.095610987245986"><ele>1394.5</ele><time>2026-05-04T10:44:53Z</time></trkpt><trkpt lat="31.922023979339727" lon="-6.095597578413679"><ele>1398.75</ele><time>2026-05-04T10:44:54Z</time></trkpt><trkpt lat="31.921909661579964" lon="-6.095581104869219"><ele>1403.0</ele><time>2026-05-04T10:44:55Z</time></trkpt><trkpt lat="31.921805832167635" lon="-6.095544942142386"><ele>1396.75</ele><time>2026-05-04T10:44:56Z</time></trkpt><trkpt lat="31.921718126750434" lon="-6.095467876380306"><ele>1390.5</ele><time>2026-05-04T10:44:57Z</time></trkpt><trkpt lat="31.92164275748396" lon="-6.09535705247965"><ele>1384.25</ele><time>2026-05-04T10:44:58Z</time></trkpt><trkpt lat="31.921580005404902" lon="-6.095224590763522"><ele>1378.0</ele><time>2026-05-04T10:44:59Z</time></trkpt><trkpt lat="31.921516790414156" lon="-6.0950843142445255"><ele>1378.0</ele><time>2026-05-04T10:45:00Z</time></trkpt><trkpt lat="31.92143838454981" lon="-6.094946205426557"><ele>1378.0</ele><time>2026-05-04T10:45:01Z</time></trkpt><trkpt lat="31.921325445226877" lon="-6.094846863660933"><ele>1378.0</ele><time>2026-05-04T10:45:02Z</time></trkpt><trkpt lat="31.92117680692593" lon="-6.094753973742392"><ele>1382.0</ele><time>2026-05-04T10:45:03Z</time></trkpt><trkpt lat="31.921041545985688" lon="-6.094666498825025"><ele>1386.0</ele><time>2026-05-04T10:45:04Z</time></trkpt><trkpt lat="31.92088701535272" lon="-6.0946116926034675"><ele>1390.0</ele><time>2026-05-04T10:45:05Z</time></trkpt><trkpt lat="31.920725137395042" lon="-6.094577208121004"><ele>1390.0</ele><time>2026-05-04T10:45:06Z</time></trkpt><trkpt lat="31.920561918323937" lon="-6.094568527173389"><ele>1390.0</ele><time>2026-05-04T10:45:07Z</time></trkpt><trkpt lat="31.920401211766062" lon="-6.0945813347775015"><ele>1390.0</ele><time>2026-05-04T10:45:08Z</time></trkpt><trkpt lat="31.920238151161488" lon="-6.094587310014232"><ele>1390.0</ele><time>2026-05-04T10:45:09Z</time></trkpt><trkpt lat="31.92007764138689" lon="-6.094582199442622"><ele>1390.0</ele><time>2026-05-04T10:45:10Z</time></trkpt><trkpt lat="31.919918368956957" lon="-6.094579774581886"><ele>1390.0</ele><time>2026-05-04T10:45:11Z</time></trkpt><trkpt lat="31.919761553795716" lon="-6.09457826424819"><ele>1386.6666666666665</ele><time>2026-05-04T10:45:12Z</time></trkpt><trkpt lat="31.91960508520133" lon="-6.094568082363106"><ele>1383.3333333333333</ele><time>2026-05-04T10:45:13Z</time></trkpt><trkpt lat="31.91945299896221" lon="-6.09454652242214"><ele>1380.0</ele><time>2026-05-04T10:45:14Z</time></trkpt><trkpt lat="31.91930653264212" lon="-6.094519037783164"><ele>1378.5</ele><time>2026-05-04T10:45:15Z</time></trkpt><trkpt lat="31.919166148100075" lon="-6.094486517586328"><ele>1377.0</ele><time>2026-05-04T10:45:16Z</time></trkpt><trkpt lat="31.919033639763516" lon="-6.094455960259695"><ele>1375.5</ele><time>2026-05-04T10:45:17Z</time></trkpt><trkpt lat="31.91890706929754" lon="-6.094421280926473"><ele>1374.0</ele><time>2026-05-04T10:45:18Z</time></trkpt><trkpt lat="31.918781988623728" lon="-6.094372995191266"><ele>1374.0</ele><time>2026-05-04T10:45:19Z</time></trkpt><trkpt lat="31.918659058339028" lon="-6.094312606946825"><ele>1374.0</ele><time>2026-05-04T10:45:20Z</time></trkpt><trkpt lat="31.91853811438535" lon="-6.094246177071375"><ele>1374.0</ele><time>2026-05-04T10:45:21Z</time></trkpt><trkpt lat="31.918422727751704" lon="-6.09418120766442"><ele>1374.0</ele><time>2026-05-04T10:45:22Z</time></trkpt><trkpt lat="31.918307042170195" lon="-6.0941129920532076"><ele>1379.0</ele><time>2026-05-04T10:45:23Z</time></trkpt><trkpt lat="31.918196407043983" lon="-6.094050993932452"><ele>1384.0</ele><time>2026-05-04T10:45:24Z</time></trkpt><trkpt lat="31.918091540712954" lon="-6.094001140381768"><ele>1389.0</ele><time>2026-05-04T10:45:25Z</time></trkpt><trkpt lat="31.91798102970673" lon="-6.093969702284791"><ele>1394.0</ele><time>2026-05-04T10:45:26Z</time></trkpt><trkpt lat="31.917871206586437" lon="-6.093968788606028"><ele>1394.0</ele><time>2026-05-04T10:45:27Z</time></trkpt><trkpt lat="31.91775595231423" lon="-6.09399053701157"><ele>1394.0</ele><time>2026-05-04T10:45:28Z</time></trkpt><trkpt lat="31.91763633017893" lon="-6.094036579226225"><ele>1394.0</ele><time>2026-05-04T10:45:29Z</time></trkpt><trkpt lat="31.917514236600756" lon="-6.094106037031894"><ele>1394.0</ele><time>2026-05-04T10:45:30Z</time></trkpt><trkpt lat="31.91739274996847" lon="-6.094198756560623"><ele>1389.0</ele><time>2026-05-04T10:45:31Z</time></trkpt><trkpt lat="31.917271215956944" lon="-6.094297492919067"><ele>1384.0</ele><time>2026-05-04T10:45:32Z</time></trkpt><trkpt lat="31.917144431168484" lon="-6.094391775623007"><ele>1379.0</ele><time>2026-05-04T10:45:33Z</time></trkpt><trkpt lat="31.917010544905015" lon="-6.094487106703721"><ele>1379.0</ele><time>2026-05-04T10:45:34Z</time></trkpt><trkpt lat="31.916870385148208" lon="-6.094576329798799"><ele>1379.0</ele><time>2026-05-04T10:45:35Z</time></trkpt><trkpt lat="31.916727233610853" lon="-6.094661906046538"><ele>1379.0</ele><time>2026-05-04T10:45:36Z</time></trkpt><trkpt lat="31.91657805331248" lon="-6.09474278622538"><ele>1380.0</ele><time>2026-05-04T10:45:37Z</time></trkpt><trkpt lat="31.916423724855107" lon="-6.094804859685913"><ele>1381.0</ele><time>2026-05-04T10:45:38Z</time></trkpt><trkpt lat="31.91626431562166" lon="-6.094850085578537"><ele>1382.0</ele><time>2026-05-04T10:45:39Z</time></trkpt><trkpt lat="31.916102371394686" lon="-6.094875953992426"><ele>1382.0</ele><time>2026-05-04T10:45:40Z</time></trkpt><trkpt lat="31.91594038996152" lon="-6.094873376455799"><ele>1382.0</ele><time>2026-05-04T10:45:41Z</time></trkpt><trkpt lat="31.915783649756523" lon="-6.094844167701691"><ele>1382.0</ele><time>2026-05-04T10:45:42Z</time></trkpt><trkpt lat="31.915630098136177" lon="-6.094811651061617"><ele>1381.3333333333335</ele><time>2026-05-04T10:45:43Z</time></trkpt><trkpt lat="31.91547674728171" lon="-6.0947751038311635"><ele>1380.6666666666667</ele><time>2026-05-04T10:45:44Z</time></trkpt><trkpt lat="31.915326700968848" lon="-6.094733202973372"><ele>1380.0</ele><time>2026-05-04T10:45:45Z</time></trkpt><trkpt lat="31.915182860975776" lon="-6.094682312348816"><ele>1380.25</ele><time>2026-05-04T10:45:46Z</time></trkpt><trkpt lat="31.91503512392042" lon="-6.094630025890901"><ele>1380.5</ele><time>2026-05-04T10:45:47Z</time></trkpt><trkpt lat="31.914893822944062" lon="-6.094591715228181"><ele>1380.75</ele><time>2026-05-04T10:45:48Z</time></trkpt><trkpt lat="31.9147542999692" lon="-6.094559548536745"><ele>1381.0</ele><time>2026-05-04T10:45:49Z</time></trkpt><trkpt lat="31.91462054180579" lon="-6.094520529688923"><ele>1381.0</ele><time>2026-05-04T10:45:50Z</time></trkpt><trkpt lat="31.91448522683611" lon="-6.094479127872016"><ele>1381.0</ele><time>2026-05-04T10:45:51Z</time></trkpt><trkpt lat="31.914358912690616" lon="-6.094440162257572"><ele>1381.0</ele><time>2026-05-04T10:45:52Z</time></trkpt><trkpt lat="31.914216060342333" lon="-6.094350287824595"><ele>1381.0</ele><time>2026-05-04T10:45:53Z</time></trkpt><trkpt lat="31.914097549241454" lon="-6.094271790931601"><ele>1383.75</ele><time>2026-05-04T10:45:54Z</time></trkpt><trkpt lat="31.913978124561933" lon="-6.094186395554568"><ele>1386.5</ele><time>2026-05-04T10:45:55Z</time></trkpt><trkpt lat="31.913859904942345" lon="-6.094098336544833"><ele>1389.25</ele><time>2026-05-04T10:45:56Z</time></trkpt><trkpt lat="31.913744746206863" lon="-6.094008778717886"><ele>1392.0</ele><time>2026-05-04T10:45:57Z</time></trkpt><trkpt lat="31.913628090431835" lon="-6.093930492655818"><ele>1393.25</ele><time>2026-05-04T10:45:58Z</time></trkpt><trkpt lat="31.913501291036873" lon="-6.0938755134476565"><ele>1394.5</ele><time>2026-05-04T10:45:59Z</time></trkpt><trkpt lat="31.913367643790156" lon="-6.093836548906986"><ele>1395.75</ele><time>2026-05-04T10:46:00Z</time></trkpt><trkpt lat="31.913236876220566" lon="-6.09378845375929"><ele>1397.0</ele><time>2026-05-04T10:46:01Z</time></trkpt><trkpt lat="31.913104154989558" lon="-6.093735213171421"><ele>1393.25</ele><time>2026-05-04T10:46:02Z</time></trkpt><trkpt lat="31.912966113191498" lon="-6.093694461880508"><ele>1389.5</ele><time>2026-05-04T10:46:03Z</time></trkpt><trkpt lat="31.912833554792517" lon="-6.093681883862657"><ele>1385.75</ele><time>2026-05-04T10:46:04Z</time></trkpt><trkpt lat="31.912697792001648" lon="-6.093686005852536"><ele>1382.0</ele><time>2026-05-04T10:46:05Z</time></trkpt><trkpt lat="31.912554098491984" lon="-6.0936960801714175"><ele>1381.25</ele><time>2026-05-04T10:46:06Z</time></trkpt><trkpt lat="31.91241014997769" lon="-6.093721801500139"><ele>1380.5</ele><time>2026-05-04T10:46:07Z</time></trkpt><trkpt lat="31.912266692094942" lon="-6.0937632748783255"><ele>1379.75</ele><time>2026-05-04T10:46:08Z</time></trkpt><trkpt lat="31.912122811881904" lon="-6.093811562646456"><ele>1379.0</ele><time>2026-05-04T10:46:09Z</time></trkpt><trkpt lat="31.91197783716863" lon="-6.093837034728427"><ele>1379.0</ele><time>2026-05-04T10:46:10Z</time></trkpt><trkpt lat="31.911824873704653" lon="-6.09384505046421"><ele>1379.0</ele><time>2026-05-04T10:46:11Z</time></trkpt><trkpt lat="31.911677668567826" lon="-6.093854272135867"><ele>1379.0</ele><time>2026-05-04T10:46:12Z</time></trkpt><trkpt lat="31.91152599773144" lon="-6.0938777203528325"><ele>1380.75</ele><time>2026-05-04T10:46:13Z</time></trkpt><trkpt lat="31.911384091848014" lon="-6.093902382334652"><ele>1382.5</ele><time>2026-05-04T10:46:14Z</time></trkpt><trkpt lat="31.911245077172545" lon="-6.093942736132926"><ele>1384.25</ele><time>2026-05-04T10:46:15Z</time></trkpt><trkpt lat="31.91110571726336" lon="-6.094016259968694"><ele>1386.0</ele><time>2026-05-04T10:46:16Z</time></trkpt><trkpt lat="31.91097765715163" lon="-6.094099480587452"><ele>1391.0</ele><time>2026-05-04T10:46:17Z</time></trkpt><trkpt lat="31.910839845397543" lon="-6.094153704668905"><ele>1396.0</ele><time>2026-05-04T10:46:18Z</time></trkpt><trkpt lat="31.910698200174842" lon="-6.094196374830092"><ele>1401.0</ele><time>2026-05-04T10:46:19Z</time></trkpt><trkpt lat="31.910551765235326" lon="-6.094225130652723"><ele>1406.0</ele><time>2026-05-04T10:46:20Z</time></trkpt><trkpt lat="31.910405852848935" lon="-6.094245955492719"><ele>1406.0</ele><time>2026-05-04T10:46:21Z</time></trkpt><trkpt lat="31.910260076198828" lon="-6.094251784708323"><ele>1406.0</ele><time>2026-05-04T10:46:22Z</time></trkpt><trkpt lat="31.910115437354737" lon="-6.094251220494636"><ele>1406.0</ele><time>2026-05-04T10:46:23Z</time></trkpt><trkpt lat="31.909975241995483" lon="-6.094242293652453"><ele>1406.0</ele><time>2026-05-04T10:46:24Z</time></trkpt><trkpt lat="31.909828776339104" lon="-6.0942227215700315"><ele>1405.25</ele><time>2026-05-04T10:46:25Z</time></trkpt><trkpt lat="31.90968477179776" lon="-6.094215081618943"><ele>1404.5</ele><time>2026-05-04T10:46:26Z</time></trkpt><trkpt lat="31.909548660833103" lon="-6.094229797278283"><ele>1403.75</ele><time>2026-05-04T10:46:27Z</time></trkpt><trkpt lat="31.90941911715393" lon="-6.094227444726853"><ele>1403.0</ele><time>2026-05-04T10:46:28Z</time></trkpt><trkpt lat="31.909294601157775" lon="-6.0941747970216005"><ele>1405.0</ele><time>2026-05-04T10:46:29Z</time></trkpt><trkpt lat="31.909180869116923" lon="-6.0940895652878675"><ele>1407.0</ele><time>2026-05-04T10:46:30Z</time></trkpt><trkpt lat="31.909066153854393" lon="-6.094005446259265"><ele>1409.0</ele><time>2026-05-04T10:46:31Z</time></trkpt><trkpt lat="31.908945904904417" lon="-6.093954202752483"><ele>1411.0</ele><time>2026-05-04T10:46:32Z</time></trkpt><trkpt lat="31.908816846847014" lon="-6.093926070408031"><ele>1406.5</ele><time>2026-05-04T10:46:33Z</time></trkpt><trkpt lat="31.908683171182002" lon="-6.093905747081791"><ele>1402.0</ele><time>2026-05-04T10:46:34Z</time></trkpt><trkpt lat="31.90854942048559" lon="-6.093897656734883"><ele>1397.5</ele><time>2026-05-04T10:46:35Z</time></trkpt><trkpt lat="31.908416335065915" lon="-6.093893726734855"><ele>1393.0</ele><time>2026-05-04T10:46:36Z</time></trkpt><trkpt lat="31.908282392965113" lon="-6.093877555167512"><ele>1393.0</ele><time>2026-05-04T10:46:37Z</time></trkpt><trkpt lat="31.908153155296276" lon="-6.093840387854766"><ele>1393.0</ele><time>2026-05-04T10:46:38Z</time></trkpt><trkpt lat="31.908036839422603" lon="-6.093768380075429"><ele>1393.0</ele><time>2026-05-04T10:46:39Z</time></trkpt><trkpt lat="31.907940996359677" lon="-6.09367820820167"><ele>1393.0</ele><time>2026-05-04T10:46:40Z</time></trkpt><trkpt lat="31.907847597258854" lon="-6.093580271085877"><ele>1393.0</ele><time>2026-05-04T10:46:41Z</time></trkpt><trkpt lat="31.90775196643567" lon="-6.093494109274973"><ele>1393.0</ele><time>2026-05-04T10:46:42Z</time></trkpt><trkpt lat="31.907642621675368" lon="-6.093425985738603"><ele>1393.0</ele><time>2026-05-04T10:46:43Z</time></trkpt><trkpt lat="31.907514068634963" lon="-6.093375010974221"><ele>1393.0</ele><time>2026-05-04T10:46:44Z</time></trkpt><trkpt lat="31.907382784244295" lon="-6.093336934253401"><ele>1393.0</ele><time>2026-05-04T10:46:45Z</time></trkpt><trkpt lat="31.907245634249897" lon="-6.093301881127958"><ele>1393.0</ele><time>2026-05-04T10:46:46Z</time></trkpt><trkpt lat="31.90710690058647" lon="-6.093252266904706"><ele>1393.0</ele><time>2026-05-04T10:46:47Z</time></trkpt><trkpt lat="31.906967874180197" lon="-6.093208317749281"><ele>1393.0</ele><time>2026-05-04T10:46:48Z</time></trkpt><trkpt lat="31.90682532440055" lon="-6.093177539067113"><ele>1395.75</ele><time>2026-05-04T10:46:49Z</time></trkpt><trkpt lat="31.906684060219227" lon="-6.093140166823672"><ele>1398.5</ele><time>2026-05-04T10:46:50Z</time></trkpt><trkpt lat="31.90654871854818" lon="-6.093114604217468"><ele>1401.25</ele><time>2026-05-04T10:46:51Z</time></trkpt><trkpt lat="31.906419966466622" lon="-6.093100328066487"><ele>1404.0</ele><time>2026-05-04T10:46:52Z</time></trkpt><trkpt lat="31.906294897665394" lon="-6.093105286475476"><ele>1404.0</ele><time>2026-05-04T10:46:53Z</time></trkpt><trkpt lat="31.906178059284713" lon="-6.09314430248904"><ele>1404.0</ele><time>2026-05-04T10:46:54Z</time></trkpt><trkpt lat="31.906077876372425" lon="-6.093227586639398"><ele>1404.0</ele><time>2026-05-04T10:46:55Z</time></trkpt><trkpt lat="31.905985701437114" lon="-6.093327343002138"><ele>1404.0</ele><time>2026-05-04T10:46:56Z</time></trkpt><trkpt lat="31.905916563491044" lon="-6.09345639707425"><ele>1406.75</ele><time>2026-05-04T10:46:57Z</time></trkpt><trkpt lat="31.905882351566532" lon="-6.0936048005366645"><ele>1409.5</ele><time>2026-05-04T10:46:58Z</time></trkpt><trkpt lat="31.90587828719172" lon="-6.093770261216152"><ele>1412.25</ele><time>2026-05-04T10:46:59Z</time></trkpt><trkpt lat="31.90586697142129" lon="-6.093938643086345"><ele>1415.0</ele><time>2026-05-04T10:47:00Z</time></trkpt><trkpt lat="31.905842900188627" lon="-6.094103514893128"><ele>1417.25</ele><time>2026-05-04T10:47:01Z</time></trkpt><trkpt lat="31.905828435494794" lon="-6.094267317076732"><ele>1419.5</ele><time>2026-05-04T10:47:02Z</time></trkpt><trkpt lat="31.905785333748106" lon="-6.094420609943581"><ele>1421.75</ele><time>2026-05-04T10:47:03Z</time></trkpt><trkpt lat="31.90573281924475" lon="-6.094573585151383"><ele>1424.0</ele><time>2026-05-04T10:47:04Z</time></trkpt><trkpt lat="31.905669199252888" lon="-6.094712528886721"><ele>1424.0</ele><time>2026-05-04T10:47:05Z</time></trkpt><trkpt lat="31.905607326000673" lon="-6.094851038167313"><ele>1424.0</ele><time>2026-05-04T10:47:06Z</time></trkpt><trkpt lat="31.90555439066132" lon="-6.0949920409329525"><ele>1424.0</ele><time>2026-05-04T10:47:07Z</time></trkpt><trkpt lat="31.905498984363327" lon="-6.095133715227108"><ele>1424.0</ele><time>2026-05-04T10:47:08Z</time></trkpt><trkpt lat="31.905478000257204" lon="-6.095276280740997"><ele>1425.5</ele><time>2026-05-04T10:47:09Z</time></trkpt><trkpt lat="31.90544624124224" lon="-6.0954208406752475"><ele>1427.0</ele><time>2026-05-04T10:47:10Z</time></trkpt><trkpt lat="31.90541546427164" lon="-6.095563134379262"><ele>1428.5</ele><time>2026-05-04T10:47:11Z</time></trkpt><trkpt lat="31.905385946302932" lon="-6.095697888223201"><ele>1430.0</ele><time>2026-05-04T10:47:12Z</time></trkpt><trkpt lat="31.90535774567586" lon="-6.095826628247164"><ele>1428.6</ele><time>2026-05-04T10:47:13Z</time></trkpt><trkpt lat="31.905329894389258" lon="-6.0959292979336785"><ele>1427.2</ele><time>2026-05-04T10:47:14Z</time></trkpt><trkpt lat="31.90526283981009" lon="-6.096000236182735"><ele>1425.8000000000002</ele><time>2026-05-04T10:47:15Z</time></trkpt><trkpt lat="31.905162712510695" lon="-6.096018847391376"><ele>1424.4</ele><time>2026-05-04T10:47:16Z</time></trkpt><trkpt lat="31.905063258122027" lon="-6.095976598632873"><ele>1423.0</ele><time>2026-05-04T10:47:17Z</time></trkpt><trkpt lat="31.904986701534312" lon="-6.095955431437018"><ele>1423.0</ele><time>2026-05-04T10:47:18Z</time></trkpt><trkpt lat="31.904923835579442" lon="-6.09592007771442"><ele>1423.0</ele><time>2026-05-04T10:47:19Z</time></trkpt><trkpt lat="31.904882631382538" lon="-6.095854004434901"><ele>1423.0</ele><time>2026-05-04T10:47:20Z</time></trkpt><trkpt lat="31.904870578283262" lon="-6.09575927169637"><ele>1423.0</ele><time>2026-05-04T10:47:21Z</time></trkpt><trkpt lat="31.904888228751798" lon="-6.095655166329982"><ele>1423.0</ele><time>2026-05-04T10:47:22Z</time></trkpt><trkpt lat="31.90491156545964" lon="-6.095540903497846"><ele>1423.0</ele><time>2026-05-04T10:47:23Z</time></trkpt><trkpt lat="31.904926917479145" lon="-6.095416886028962"><ele>1421.4</ele><time>2026-05-04T10:47:24Z</time></trkpt><trkpt lat="31.904943763556556" lon="-6.095295477479525"><ele>1419.8000000000002</ele><time>2026-05-04T10:47:25Z</time></trkpt><trkpt lat="31.904960981605644" lon="-6.095177417604018"><ele>1418.2</ele><time>2026-05-04T10:47:26Z</time></trkpt><trkpt lat="31.904975645396767" lon="-6.095056784751179"><ele>1416.6</ele><time>2026-05-04T10:47:27Z</time></trkpt><trkpt lat="31.90497970451725" lon="-6.094931164495736"><ele>1415.0</ele><time>2026-05-04T10:47:28Z</time></trkpt><trkpt lat="31.904965647331405" lon="-6.094799588283981"><ele>1413.4</ele><time>2026-05-04T10:47:29Z</time></trkpt><trkpt lat="31.904936926138685" lon="-6.094668141380398"><ele>1411.8</ele><time>2026-05-04T10:47:30Z</time></trkpt><trkpt lat="31.904896497637857" lon="-6.094554796780609"><ele>1410.1999999999998</ele><time>2026-05-04T10:47:31Z</time></trkpt><trkpt lat="31.904835321337696" lon="-6.094471378149309"><ele>1408.6</ele><time>2026-05-04T10:47:32Z</time></trkpt><trkpt lat="31.90474876459549" lon="-6.094449097398977"><ele>1407.0</ele><time>2026-05-04T10:47:33Z</time></trkpt><trkpt lat="31.904649822399396" lon="-6.094478814133764"><ele>1407.0</ele><time>2026-05-04T10:47:34Z</time></trkpt><trkpt lat="31.904547471900994" lon="-6.094531544266911"><ele>1407.0</ele><time>2026-05-04T10:47:35Z</time></trkpt><trkpt lat="31.90444070502834" lon="-6.094595848339038"><ele>1407.0</ele><time>2026-05-04T10:47:36Z</time></trkpt><trkpt lat="31.9043269868159" lon="-6.094662580791632"><ele>1407.0</ele><time>2026-05-04T10:47:37Z</time></trkpt><trkpt lat="31.904207097649156" lon="-6.094736127954207"><ele>1406.75</ele><time>2026-05-04T10:47:38Z</time></trkpt><trkpt lat="31.904084336094314" lon="-6.09481472587394"><ele>1406.5</ele><time>2026-05-04T10:47:39Z</time></trkpt><trkpt lat="31.903967894706188" lon="-6.094899885705033"><ele>1406.25</ele><time>2026-05-04T10:47:40Z</time></trkpt><trkpt lat="31.903858004675055" lon="-6.09498792542446"><ele>1406.0</ele><time>2026-05-04T10:47:41Z</time></trkpt><trkpt lat="31.903792217126853" lon="-6.095110226865514"><ele>1410.25</ele><time>2026-05-04T10:47:42Z</time></trkpt><trkpt lat="31.903724442000893" lon="-6.095216214859075"><ele>1414.5</ele><time>2026-05-04T10:47:43Z</time></trkpt><trkpt lat="31.903653837724725" lon="-6.095327960448249"><ele>1418.75</ele><time>2026-05-04T10:47:44Z</time></trkpt><trkpt lat="31.90359692018314" lon="-6.095449251798927"><ele>1423.0</ele><time>2026-05-04T10:47:45Z</time></trkpt><trkpt lat="31.90354717741578" lon="-6.095577622083257"><ele>1423.0</ele><time>2026-05-04T10:47:46Z</time></trkpt><trkpt lat="31.90349918254404" lon="-6.0957156677441455"><ele>1423.0</ele><time>2026-05-04T10:47:47Z</time></trkpt><trkpt lat="31.903442456432483" lon="-6.095855654535965"><ele>1423.0</ele><time>2026-05-04T10:47:48Z</time></trkpt><trkpt lat="31.903382431133966" lon="-6.095993107790493"><ele>1423.0</ele><time>2026-05-04T10:47:49Z</time></trkpt><trkpt lat="31.903322057159972" lon="-6.096131750757264"><ele>1423.0</ele><time>2026-05-04T10:47:50Z</time></trkpt><trkpt lat="31.903263855135425" lon="-6.09627191000059"><ele>1423.0</ele><time>2026-05-04T10:47:51Z</time></trkpt><trkpt lat="31.903212353680882" lon="-6.096410820071889"><ele>1423.0</ele><time>2026-05-04T10:47:52Z</time></trkpt><trkpt lat="31.903173751508465" lon="-6.096564684498269"><ele>1423.0</ele><time>2026-05-04T10:47:53Z</time></trkpt><trkpt lat="31.90313443413109" lon="-6.096721399663514"><ele>1427.0</ele><time>2026-05-04T10:47:54Z</time></trkpt><trkpt lat="31.903094274958413" lon="-6.096881403360503"><ele>1431.0</ele><time>2026-05-04T10:47:55Z</time></trkpt><trkpt lat="31.903053233166457" lon="-6.097045123128201"><ele>1435.0</ele><time>2026-05-04T10:47:56Z</time></trkpt><trkpt lat="31.903012064757828" lon="-6.097207701348668"><ele>1439.0</ele><time>2026-05-04T10:47:57Z</time></trkpt><trkpt lat="31.90295961939697" lon="-6.097375921774"><ele>1442.6666666666667</ele><time>2026-05-04T10:47:58Z</time></trkpt><trkpt lat="31.90288377647832" lon="-6.097538978102006"><ele>1446.3333333333333</ele><time>2026-05-04T10:47:59Z</time></trkpt><trkpt lat="31.90278752493609" lon="-6.097689292621431"><ele>1450.0</ele><time>2026-05-04T10:48:00Z</time></trkpt><trkpt lat="31.902676699609486" lon="-6.097831222104099"><ele>1439.3333333333333</ele><time>2026-05-04T10:48:01Z</time></trkpt><trkpt lat="31.902558290865187" lon="-6.09796148790208"><ele>1428.6666666666667</ele><time>2026-05-04T10:48:02Z</time></trkpt><trkpt lat="31.902434378153682" lon="-6.098084837632343"><ele>1418.0</ele><time>2026-05-04T10:48:03Z</time></trkpt><trkpt lat="31.90233996991308" lon="-6.098238780888872"><ele>1421.6666666666667</ele><time>2026-05-04T10:48:04Z</time></trkpt><trkpt lat="31.90225321745073" lon="-6.098398352430669"><ele>1425.3333333333333</ele><time>2026-05-04T10:48:05Z</time></trkpt><trkpt lat="31.902169267881956" lon="-6.09855469961057"><ele>1429.0</ele><time>2026-05-04T10:48:06Z</time></trkpt><trkpt lat="31.90206758823118" lon="-6.09869921500482"><ele>1429.0</ele><time>2026-05-04T10:48:07Z</time></trkpt><trkpt lat="31.90194518004692" lon="-6.098817127822344"><ele>1429.0</ele><time>2026-05-04T10:48:08Z</time></trkpt><trkpt lat="31.90180980458652" lon="-6.09891089753122"><ele>1429.0</ele><time>2026-05-04T10:48:09Z</time></trkpt><trkpt lat="31.90166551527593" lon="-6.0989901794225965"><ele>1433.0</ele><time>2026-05-04T10:48:10Z</time></trkpt><trkpt lat="31.90150833581359" lon="-6.099037411724633"><ele>1437.0</ele><time>2026-05-04T10:48:11Z</time></trkpt><trkpt lat="31.90135471061271" lon="-6.099089849071998"><ele>1441.0</ele><time>2026-05-04T10:48:12Z</time></trkpt><trkpt lat="31.901191863225677" lon="-6.0991149153127635"><ele>1441.0</ele><time>2026-05-04T10:48:13Z</time></trkpt><trkpt lat="31.90102706061035" lon="-6.099130892587675"><ele>1441.0</ele><time>2026-05-04T10:48:14Z</time></trkpt><trkpt lat="31.90086236827202" lon="-6.09915396713252"><ele>1441.0</ele><time>2026-05-04T10:48:15Z</time></trkpt><trkpt lat="31.90069566094222" lon="-6.099181435958193"><ele>1436.6666666666665</ele><time>2026-05-04T10:48:16Z</time></trkpt><trkpt lat="31.900533679591476" lon="-6.099212094199538"><ele>1432.3333333333333</ele><time>2026-05-04T10:48:17Z</time></trkpt><trkpt lat="31.90037249175453" lon="-6.099248666746973"><ele>1428.0</ele><time>2026-05-04T10:48:18Z</time></trkpt><trkpt lat="31.90022906541115" lon="-6.09931681947483"><ele>1428.0</ele><time>2026-05-04T10:48:19Z</time></trkpt><trkpt lat="31.90010257228446" lon="-6.099393508088681"><ele>1428.0</ele><time>2026-05-04T10:48:20Z</time></trkpt><trkpt lat="31.899994577632068" lon="-6.0995041400606995"><ele>1428.0</ele><time>2026-05-04T10:48:21Z</time></trkpt><trkpt lat="31.899889747330803" lon="-6.099605732379973"><ele>1428.0</ele><time>2026-05-04T10:48:22Z</time></trkpt><trkpt lat="31.89976003852291" lon="-6.0996768538660255"><ele>1425.75</ele><time>2026-05-04T10:48:23Z</time></trkpt><trkpt lat="31.899639698204687" lon="-6.099734447523349"><ele>1423.5</ele><time>2026-05-04T10:48:24Z</time></trkpt><trkpt lat="31.8995068693897" lon="-6.099757916583644"><ele>1421.25</ele><time>2026-05-04T10:48:25Z</time></trkpt><trkpt lat="31.89937207388186" lon="-6.099760638371726"><ele>1419.0</ele><time>2026-05-04T10:48:26Z</time></trkpt><trkpt lat="31.89923818571294" lon="-6.099743239876902"><ele>1419.0</ele><time>2026-05-04T10:48:27Z</time></trkpt><trkpt lat="31.89910001538731" lon="-6.0997097431026015"><ele>1419.0</ele><time>2026-05-04T10:48:28Z</time></trkpt><trkpt lat="31.898958604885518" lon="-6.099686786984182"><ele>1419.0</ele><time>2026-05-04T10:48:29Z</time></trkpt><trkpt lat="31.898818103025484" lon="-6.099675750053881"><ele>1419.0</ele><time>2026-05-04T10:48:30Z</time></trkpt><trkpt lat="31.898692659402762" lon="-6.099669536588276"><ele>1419.0</ele><time>2026-05-04T10:48:31Z</time></trkpt><trkpt lat="31.898561209159826" lon="-6.099683113776028"><ele>1419.0</ele><time>2026-05-04T10:48:32Z</time></trkpt><trkpt lat="31.89843653520163" lon="-6.099735516303382"><ele>1419.0</ele><time>2026-05-04T10:48:33Z</time></trkpt><trkpt lat="31.89835094132662" lon="-6.099830185859581"><ele>1419.0</ele><time>2026-05-04T10:48:34Z</time></trkpt><trkpt lat="31.898290268047774" lon="-6.099932891149065"><ele>1424.75</ele><time>2026-05-04T10:48:35Z</time></trkpt><trkpt lat="31.89826390965899" lon="-6.100061620896329"><ele>1430.5</ele><time>2026-05-04T10:48:36Z</time></trkpt><trkpt lat="31.898210843113947" lon="-6.100197754823296"><ele>1436.25</ele><time>2026-05-04T10:48:37Z</time></trkpt><trkpt lat="31.898147478318183" lon="-6.1003380581528015"><ele>1442.0</ele><time>2026-05-04T10:48:38Z</time></trkpt><trkpt lat="31.89807818038238" lon="-6.100485730642845"><ele>1442.0</ele><time>2026-05-04T10:48:39Z</time></trkpt><trkpt lat="31.897961515173172" lon="-6.100617737860545"><ele>1442.0</ele><time>2026-05-04T10:48:40Z</time></trkpt><trkpt lat="31.897834763368046" lon="-6.100702560984171"><ele>1442.0</ele><time>2026-05-04T10:48:41Z</time></trkpt><trkpt lat="31.89771387037213" lon="-6.100786579761597"><ele>1442.0</ele><time>2026-05-04T10:48:42Z</time></trkpt><trkpt lat="31.897582032787277" lon="-6.100846876056543"><ele>1441.5</ele><time>2026-05-04T10:48:43Z</time></trkpt><trkpt lat="31.897439794606004" lon="-6.100890652692335"><ele>1441.0</ele><time>2026-05-04T10:48:44Z</time></trkpt><trkpt lat="31.897293337739352" lon="-6.100930372825596"><ele>1440.5</ele><time>2026-05-04T10:48:45Z</time></trkpt><trkpt lat="31.897149571929116" lon="-6.100977464249541"><ele>1440.0</ele><time>2026-05-04T10:48:46Z</time></trkpt><trkpt lat="31.897004986779717" lon="-6.100998595628796"><ele>1440.0</ele><time>2026-05-04T10:48:47Z</time></trkpt><trkpt lat="31.896861680463847" lon="-6.100998692757308"><ele>1440.0</ele><time>2026-05-04T10:48:48Z</time></trkpt><trkpt lat="31.896713944754577" lon="-6.1009888360578355"><ele>1440.0</ele><time>2026-05-04T10:48:49Z</time></trkpt><trkpt lat="31.89656324714769" lon="-6.100975069805344"><ele>1440.0</ele><time>2026-05-04T10:48:50Z</time></trkpt><trkpt lat="31.896407208211016" lon="-6.10094832277865"><ele>1437.75</ele><time>2026-05-04T10:48:51Z</time></trkpt><trkpt lat="31.89625605371692" lon="-6.100908828004342"><ele>1435.5</ele><time>2026-05-04T10:48:52Z</time></trkpt><trkpt lat="31.89611226155992" lon="-6.100863286259996"><ele>1433.25</ele><time>2026-05-04T10:48:53Z</time></trkpt><trkpt lat="31.895971794551105" lon="-6.100818250201162"><ele>1431.0</ele><time>2026-05-04T10:48:54Z</time></trkpt><trkpt lat="31.895839355783618" lon="-6.100772185024041"><ele>1430.25</ele><time>2026-05-04T10:48:55Z</time></trkpt><trkpt lat="31.89570999455089" lon="-6.100736172523624"><ele>1429.5</ele><time>2026-05-04T10:48:56Z</time></trkpt><trkpt lat="31.895572001229084" lon="-6.100722388474231"><ele>1428.75</ele><time>2026-05-04T10:48:57Z</time></trkpt><trkpt lat="31.89543270447599" lon="-6.100730230084822"><ele>1428.0</ele><time>2026-05-04T10:48:58Z</time></trkpt><trkpt lat="31.89530993919596" lon="-6.100744559695475"><ele>1431.0</ele><time>2026-05-04T10:48:59Z</time></trkpt><trkpt lat="31.895207382759075" lon="-6.100779042521072"><ele>1434.0</ele><time>2026-05-04T10:49:00Z</time></trkpt><trkpt lat="31.89513019028359" lon="-6.100872165313384"><ele>1437.0</ele><time>2026-05-04T10:49:01Z</time></trkpt><trkpt lat="31.895083482274515" lon="-6.101007633415575"><ele>1440.0</ele><time>2026-05-04T10:49:02Z</time></trkpt><trkpt lat="31.895082179726312" lon="-6.101166054838256"><ele>1443.0</ele><time>2026-05-04T10:49:03Z</time></trkpt><trkpt lat="31.895153199234393" lon="-6.10132456494555"><ele>1446.0</ele><time>2026-05-04T10:49:04Z</time></trkpt><trkpt lat="31.895196107379174" lon="-6.1015179493871905"><ele>1449.0</ele><time>2026-05-04T10:49:05Z</time></trkpt><trkpt lat="31.895237529764206" lon="-6.101726951765805"><ele>1459.6666666666667</ele><time>2026-05-04T10:49:06Z</time></trkpt><trkpt lat="31.89528121067714" lon="-6.101956375990602"><ele>1470.3333333333335</ele><time>2026-05-04T10:49:07Z</time></trkpt><trkpt lat="31.895283741950276" lon="-6.102166246857948"><ele>1481.0</ele><time>2026-05-04T10:49:08Z</time></trkpt><trkpt lat="31.89521884891464" lon="-6.102404009394667"><ele>1486.6666666666667</ele><time>2026-05-04T10:49:09Z</time></trkpt><trkpt lat="31.895131492061374" lon="-6.102585126902431"><ele>1492.3333333333333</ele><time>2026-05-04T10:49:10Z</time></trkpt><trkpt lat="31.89502589838394" lon="-6.102751624145189"><ele>1498.0</ele><time>2026-05-04T10:49:11Z</time></trkpt><trkpt lat="31.894915575678198" lon="-6.102910777292881"><ele>1489.0</ele><time>2026-05-04T10:49:12Z</time></trkpt><trkpt lat="31.894812335115535" lon="-6.103055993536366"><ele>1480.0</ele><time>2026-05-04T10:49:13Z</time></trkpt><trkpt lat="31.89470434292692" lon="-6.103166136177411"><ele>1471.0</ele><time>2026-05-04T10:49:14Z</time></trkpt><trkpt lat="31.894604468818592" lon="-6.103255879058347"><ele>1462.0</ele><time>2026-05-04T10:49:15Z</time></trkpt><trkpt lat="31.894456226401008" lon="-6.103291327299673"><ele>1462.0</ele><time>2026-05-04T10:49:16Z</time></trkpt><trkpt lat="31.89430815180949" lon="-6.103338106982551"><ele>1462.0</ele><time>2026-05-04T10:49:17Z</time></trkpt><trkpt lat="31.894149977928723" lon="-6.103371070491938"><ele>1462.0</ele><time>2026-05-04T10:49:18Z</time></trkpt><trkpt lat="31.89398921026828" lon="-6.1034359257516035"><ele>1455.6666666666665</ele><time>2026-05-04T10:49:19Z</time></trkpt><trkpt lat="31.893818136468006" lon="-6.103498876724966"><ele>1449.3333333333333</ele><time>2026-05-04T10:49:20Z</time></trkpt><trkpt lat="31.89363500807192" lon="-6.10355506310668"><ele>1443.0</ele><time>2026-05-04T10:49:21Z</time></trkpt><trkpt lat="31.89344771705714" lon="-6.103617341490753"><ele>1440.6666666666667</ele><time>2026-05-04T10:49:22Z</time></trkpt><trkpt lat="31.893255308932776" lon="-6.103694643679116"><ele>1438.3333333333335</ele><time>2026-05-04T10:49:23Z</time></trkpt><trkpt lat="31.893068514834187" lon="-6.103772102081194"><ele>1436.0</ele><time>2026-05-04T10:49:24Z</time></trkpt><trkpt lat="31.892886041742198" lon="-6.103843408513886"><ele>1436.0</ele><time>2026-05-04T10:49:25Z</time></trkpt><trkpt lat="31.89271335139648" lon="-6.103942472592723"><ele>1436.0</ele><time>2026-05-04T10:49:26Z</time></trkpt><trkpt lat="31.892540971723697" lon="-6.10403672947275"><ele>1436.0</ele><time>2026-05-04T10:49:27Z</time></trkpt><trkpt lat="31.892372139935812" lon="-6.104140500090375"><ele>1441.0</ele><time>2026-05-04T10:49:28Z</time></trkpt><trkpt lat="31.892211858382893" lon="-6.104239676075624"><ele>1446.0</ele><time>2026-05-04T10:49:29Z</time></trkpt><trkpt lat="31.892056763430357" lon="-6.104335040268512"><ele>1451.0</ele><time>2026-05-04T10:49:30Z</time></trkpt><trkpt lat="31.891905550035467" lon="-6.104419148148553"><ele>1451.0</ele><time>2026-05-04T10:49:31Z</time></trkpt><trkpt lat="31.891762087659938" lon="-6.104516180352435"><ele>1451.0</ele><time>2026-05-04T10:49:32Z</time></trkpt><trkpt lat="31.891627471156603" lon="-6.1046055185396835"><ele>1451.0</ele><time>2026-05-04T10:49:33Z</time></trkpt><trkpt lat="31.891497115339575" lon="-6.104681446440435"><ele>1447.3333333333335</ele><time>2026-05-04T10:49:34Z</time></trkpt><trkpt lat="31.891361709512555" lon="-6.104726556521414"><ele>1443.6666666666667</ele><time>2026-05-04T10:49:35Z</time></trkpt><trkpt lat="31.891208651527478" lon="-6.104733628499033"><ele>1440.0</ele><time>2026-05-04T10:49:36Z</time></trkpt><trkpt lat="31.891048263174174" lon="-6.104714223933598"><ele>1440.6666666666667</ele><time>2026-05-04T10:49:37Z</time></trkpt><trkpt lat="31.890889168677873" lon="-6.104687760698842"><ele>1441.3333333333335</ele><time>2026-05-04T10:49:38Z</time></trkpt><trkpt lat="31.89072673557393" lon="-6.104670411803125"><ele>1442.0</ele><time>2026-05-04T10:49:39Z</time></trkpt><trkpt lat="31.89057261045022" lon="-6.104666387623776"><ele>1442.0</ele><time>2026-05-04T10:49:40Z</time></trkpt><trkpt lat="31.890431056445202" lon="-6.104667980005234"><ele>1442.0</ele><time>2026-05-04T10:49:41Z</time></trkpt><trkpt lat="31.890308076906962" lon="-6.104678356544501"><ele>1442.0</ele><time>2026-05-04T10:49:42Z</time></trkpt><trkpt lat="31.89020685681031" lon="-6.104701350789939"><ele>1442.0</ele><time>2026-05-04T10:49:43Z</time></trkpt><trkpt lat="31.890086912910256" lon="-6.104594234941046"><ele>1443.5</ele><time>2026-05-04T10:49:44Z</time></trkpt><trkpt lat="31.889992486621818" lon="-6.104458915536293"><ele>1445.0</ele><time>2026-05-04T10:49:45Z</time></trkpt><trkpt lat="31.88990099280303" lon="-6.10443189428475"><ele>1446.5</ele><time>2026-05-04T10:49:46Z</time></trkpt><trkpt lat="31.889790893594775" lon="-6.104304336490829"><ele>1448.0</ele><time>2026-05-04T10:49:47Z</time></trkpt><trkpt lat="31.88965871834539" lon="-6.104203430545661"><ele>1448.0</ele><time>2026-05-04T10:49:48Z</time></trkpt><trkpt lat="31.88954980679871" lon="-6.104092681153306"><ele>1448.0</ele><time>2026-05-04T10:49:49Z</time></trkpt><trkpt lat="31.889471995493935" lon="-6.103934595993849"><ele>1448.0</ele><time>2026-05-04T10:49:50Z</time></trkpt><trkpt lat="31.889399920346648" lon="-6.103743818799669"><ele>1447.0</ele><time>2026-05-04T10:49:51Z</time></trkpt><trkpt lat="31.88934427541119" lon="-6.10356066869564"><ele>1446.0</ele><time>2026-05-04T10:49:52Z</time></trkpt><trkpt lat="31.88931171865065" lon="-6.103388277597334"><ele>1445.0</ele><time>2026-05-04T10:49:53Z</time></trkpt><trkpt lat="31.889264298286434" lon="-6.10322909107538"><ele>1446.25</ele><time>2026-05-04T10:49:54Z</time></trkpt><trkpt lat="31.889191195326333" lon="-6.103093633466597"><ele>1447.5</ele><time>2026-05-04T10:49:55Z</time></trkpt><trkpt lat="31.889100273831748" lon="-6.102989899046798"><ele>1448.75</ele><time>2026-05-04T10:49:56Z</time></trkpt><trkpt lat="31.88900106582847" lon="-6.102933143954104"><ele>1450.0</ele><time>2026-05-04T10:49:57Z</time></trkpt><trkpt lat="31.888898829789046" lon="-6.102975616139705"><ele>1450.0</ele><time>2026-05-04T10:49:58Z</time></trkpt><trkpt lat="31.888805459892872" lon="-6.103027768642404"><ele>1450.0</ele><time>2026-05-04T10:49:59Z</time></trkpt><trkpt lat="31.888697634790447" lon="-6.1030841071703135"><ele>1450.0</ele><time>2026-05-04T10:50:00Z</time></trkpt><trkpt lat="31.88857344580041" lon="-6.103146011802186"><ele>1450.0</ele><time>2026-05-04T10:50:01Z</time></trkpt><trkpt lat="31.88845146317443" lon="-6.103230311400787"><ele>1452.25</ele><time>2026-05-04T10:50:02Z</time></trkpt><trkpt lat="31.888330303730918" lon="-6.103312911450748"><ele>1454.5</ele><time>2026-05-04T10:50:03Z</time></trkpt><trkpt lat="31.88821056766468" lon="-6.103399298862448"><ele>1456.75</ele><time>2026-05-04T10:50:04Z</time></trkpt><trkpt lat="31.888084875329437" lon="-6.103484503486786"><ele>1459.0</ele><time>2026-05-04T10:50:05Z</time></trkpt><trkpt lat="31.887961580992922" lon="-6.103571366996133"><ele>1459.0</ele><time>2026-05-04T10:50:06Z</time></trkpt><trkpt lat="31.887828442270468" lon="-6.103648922131063"><ele>1459.0</ele><time>2026-05-04T10:50:07Z</time></trkpt><trkpt lat="31.8876927245202" lon="-6.103730826187851"><ele>1459.0</ele><time>2026-05-04T10:50:08Z</time></trkpt><trkpt lat="31.887553714444476" lon="-6.103810550551973"><ele>1456.6666666666665</ele><time>2026-05-04T10:50:09Z</time></trkpt><trkpt lat="31.887408830730145" lon="-6.1038795786560955"><ele>1454.3333333333333</ele><time>2026-05-04T10:50:10Z</time></trkpt><trkpt lat="31.887255384674887" lon="-6.103931267017904"><ele>1452.0</ele><time>2026-05-04T10:50:11Z</time></trkpt><trkpt lat="31.88711549550151" lon="-6.104011479379898"><ele>1452.0</ele><time>2026-05-04T10:50:12Z</time></trkpt><trkpt lat="31.88695837582795" lon="-6.10403571542066"><ele>1452.0</ele><time>2026-05-04T10:50:13Z</time></trkpt><trkpt lat="31.886810026287286" lon="-6.104066476148445"><ele>1452.0</ele><time>2026-05-04T10:50:14Z</time></trkpt><trkpt lat="31.886654943513054" lon="-6.10405680183366"><ele>1451.6666666666667</ele><time>2026-05-04T10:50:15Z</time></trkpt><trkpt lat="31.886498285958655" lon="-6.10401080829532"><ele>1451.3333333333335</ele><time>2026-05-04T10:50:16Z</time></trkpt><trkpt lat="31.886342406666806" lon="-6.1039341648968035"><ele>1451.0</ele><time>2026-05-04T10:50:17Z</time></trkpt><trkpt lat="31.88618168104617" lon="-6.103862236804774"><ele>1451.0</ele><time>2026-05-04T10:50:18Z</time></trkpt><trkpt lat="31.886024998783085" lon="-6.103785141313407"><ele>1451.0</ele><time>2026-05-04T10:50:19Z</time></trkpt><trkpt lat="31.885872701631172" lon="-6.103704273004763"><ele>1451.0</ele><time>2026-05-04T10:50:20Z</time></trkpt><trkpt lat="31.885744025362758" lon="-6.1036065331878335"><ele>1451.5</ele><time>2026-05-04T10:50:21Z</time></trkpt><trkpt lat="31.885635993615466" lon="-6.103498633349233"><ele>1452.0</ele><time>2026-05-04T10:50:22Z</time></trkpt><trkpt lat="31.885550353233675" lon="-6.103386084944019"><ele>1452.5</ele><time>2026-05-04T10:50:23Z</time></trkpt><trkpt lat="31.885467687280205" lon="-6.103282060054943"><ele>1453.0</ele><time>2026-05-04T10:50:24Z</time></trkpt><trkpt lat="31.88536902195267" lon="-6.103203623297693"><ele>1454.6000000000001</ele><time>2026-05-04T10:50:25Z</time></trkpt><trkpt lat="31.885267055658975" lon="-6.103151088993325"><ele>1456.2</ele><time>2026-05-04T10:50:26Z</time></trkpt><trkpt lat="31.88517787775524" lon="-6.1031417742815295"><ele>1457.8</ele><time>2026-05-04T10:50:27Z</time></trkpt><trkpt lat="31.885089563286293" lon="-6.103184720525576"><ele>1459.4</ele><time>2026-05-04T10:50:28Z</time></trkpt><trkpt lat="31.885039390360166" lon="-6.103307267020974"><ele>1461.0</ele><time>2026-05-04T10:50:29Z</time></trkpt><trkpt lat="31.884958404247822" lon="-6.103422524767934"><ele>1462.0</ele><time>2026-05-04T10:50:30Z</time></trkpt><trkpt lat="31.884825993727617" lon="-6.103501943883169"><ele>1463.0</ele><time>2026-05-04T10:50:31Z</time></trkpt><trkpt lat="31.884699297089927" lon="-6.103586132723754"><ele>1464.0</ele><time>2026-05-04T10:50:32Z</time></trkpt><trkpt lat="31.884547339272814" lon="-6.103647438639093"><ele>1464.0</ele><time>2026-05-04T10:50:33Z</time></trkpt><trkpt lat="31.884406796171653" lon="-6.103733429273216"><ele>1464.0</ele><time>2026-05-04T10:50:34Z</time></trkpt><trkpt lat="31.884252423958838" lon="-6.10381602935238"><ele>1464.0</ele><time>2026-05-04T10:50:35Z</time></trkpt><trkpt lat="31.884091105713537" lon="-6.103890126727478"><ele>1463.6666666666667</ele><time>2026-05-04T10:50:36Z</time></trkpt><trkpt lat="31.883920621002087" lon="-6.1039683386350685"><ele>1463.3333333333335</ele><time>2026-05-04T10:50:37Z</time></trkpt><trkpt lat="31.8837361520333" lon="-6.104018129282359"><ele>1463.0</ele><time>2026-05-04T10:50:38Z</time></trkpt><trkpt lat="31.883565686819004" lon="-6.10404862899643"><ele>1465.3333333333335</ele><time>2026-05-04T10:50:39Z</time></trkpt><trkpt lat="31.883415192087455" lon="-6.104129649269653"><ele>1467.6666666666667</ele><time>2026-05-04T10:50:40Z</time></trkpt><trkpt lat="31.883284239943684" lon="-6.104248837125833"><ele>1470.0</ele><time>2026-05-04T10:50:41Z</time></trkpt><trkpt lat="31.883151012183504" lon="-6.104289142723222"><ele>1470.0</ele><time>2026-05-04T10:50:42Z</time></trkpt><trkpt lat="31.883023336627836" lon="-6.104347528453066"><ele>1470.0</ele><time>2026-05-04T10:50:43Z</time></trkpt><trkpt lat="31.882888359729968" lon="-6.104348303084967"><ele>1470.0</ele><time>2026-05-04T10:50:44Z</time></trkpt><trkpt lat="31.882762084680834" lon="-6.104366586386502"><ele>1470.0</ele><time>2026-05-04T10:50:45Z</time></trkpt><trkpt lat="31.882647344285555" lon="-6.104408710981674"><ele>1468.75</ele><time>2026-05-04T10:50:46Z</time></trkpt><trkpt lat="31.882560631141757" lon="-6.104500049009548"><ele>1467.5</ele><time>2026-05-04T10:50:47Z</time></trkpt><trkpt lat="31.882509322102454" lon="-6.104635351194265"><ele>1466.25</ele><time>2026-05-04T10:50:48Z</time></trkpt><trkpt lat="31.882425366404227" lon="-6.104750475340155"><ele>1465.0</ele><time>2026-05-04T10:50:49Z</time></trkpt><trkpt lat="31.882313353003084" lon="-6.104846195586166"><ele>1469.75</ele><time>2026-05-04T10:50:50Z</time></trkpt><trkpt lat="31.88221061754334" lon="-6.104958039790351"><ele>1474.5</ele><time>2026-05-04T10:50:51Z</time></trkpt><trkpt lat="31.88210178643778" lon="-6.105057175839015"><ele>1479.25</ele><time>2026-05-04T10:50:52Z</time></trkpt><trkpt lat="31.88198862668248" lon="-6.105171035132977"><ele>1484.0</ele><time>2026-05-04T10:50:53Z</time></trkpt><trkpt lat="31.88188226169962" lon="-6.105306608531684"><ele>1484.0</ele><time>2026-05-04T10:50:54Z</time></trkpt><trkpt lat="31.881774562267186" lon="-6.105436618682136"><ele>1484.0</ele><time>2026-05-04T10:50:55Z</time></trkpt><trkpt lat="31.881671241474287" lon="-6.105574833654177"><ele>1484.0</ele><time>2026-05-04T10:50:56Z</time></trkpt><trkpt lat="31.881620612538832" lon="-6.10572447429327"><ele>1484.0</ele><time>2026-05-04T10:50:57Z</time></trkpt><trkpt lat="31.881578172324055" lon="-6.105873130949113"><ele>1484.25</ele><time>2026-05-04T10:50:58Z</time></trkpt><trkpt lat="31.881572355252395" lon="-6.106012925320394"><ele>1484.5</ele><time>2026-05-04T10:50:59Z</time></trkpt><trkpt lat="31.881585920342506" lon="-6.106189113306048"><ele>1484.75</ele><time>2026-05-04T10:51:00Z</time></trkpt><trkpt lat="31.881592874015197" lon="-6.1063872906769285"><ele>1485.0</ele><time>2026-05-04T10:51:01Z</time></trkpt><trkpt lat="31.88159996481635" lon="-6.106602796505118"><ele>1485.0</ele><time>2026-05-04T10:51:02Z</time></trkpt><trkpt lat="31.881605568820614" lon="-6.106813793415356"><ele>1485.0</ele><time>2026-05-04T10:51:03Z</time></trkpt><trkpt lat="31.881651299580646" lon="-6.107002441283371"><ele>1485.0</ele><time>2026-05-04T10:51:04Z</time></trkpt><trkpt lat="31.881679403075868" lon="-6.107191721707054"><ele>1485.0</ele><time>2026-05-04T10:51:05Z</time></trkpt><trkpt lat="31.88169508012758" lon="-6.10737496051738"><ele>1485.0</ele><time>2026-05-04T10:51:06Z</time></trkpt><trkpt lat="31.881696180127776" lon="-6.107547970680278"><ele>1485.0</ele><time>2026-05-04T10:51:07Z</time></trkpt><trkpt lat="31.88168386098277" lon="-6.107695564996211"><ele>1485.0</ele><time>2026-05-04T10:51:08Z</time></trkpt><trkpt lat="31.88167075250451" lon="-6.107802467122847"><ele>1484.6</ele><time>2026-05-04T10:51:09Z</time></trkpt><trkpt lat="31.88161813656851" lon="-6.107877347130756"><ele>1484.2</ele><time>2026-05-04T10:51:10Z</time></trkpt><trkpt lat="31.881579621770015" lon="-6.1079879469857365"><ele>1483.8000000000002</ele><time>2026-05-04T10:51:12Z</time></trkpt><trkpt lat="31.881537095517356" lon="-6.108054386775467"><ele>1483.4</ele><time>2026-05-04T10:51:13Z</time></trkpt><trkpt lat="31.881429531527232" lon="-6.108175547939146"><ele>1483.0</ele><time>2026-05-04T10:51:15Z</time></trkpt><trkpt lat="31.88135863145332" lon="-6.108236487930742"><ele>1481.6000000000001</ele><time>2026-05-04T10:51:16Z</time></trkpt><trkpt lat="31.881277646737807" lon="-6.108291072422799"><ele>1480.2</ele><time>2026-05-04T10:51:17Z</time></trkpt><trkpt lat="31.88118735395578" lon="-6.108353729190887"><ele>1478.8</ele><time>2026-05-04T10:51:18Z</time></trkpt><trkpt lat="31.881074919586954" lon="-6.1083980255257195"><ele>1477.4</ele><time>2026-05-04T10:51:19Z</time></trkpt><trkpt lat="31.88096845031435" lon="-6.1084710666801625"><ele>1476.0</ele><time>2026-05-04T10:51:20Z</time></trkpt><trkpt lat="31.880855932879555" lon="-6.108546104761928"><ele>1476.0</ele><time>2026-05-04T10:51:21Z</time></trkpt><trkpt lat="31.88074209910423" lon="-6.108616579440399"><ele>1476.0</ele><time>2026-05-04T10:51:22Z</time></trkpt><trkpt lat="31.880655306481724" lon="-6.108712221064343"><ele>1476.0</ele><time>2026-05-04T10:51:23Z</time></trkpt><trkpt lat="31.880569747867987" lon="-6.108775798315878"><ele>1476.0</ele><time>2026-05-04T10:51:24Z</time></trkpt><trkpt lat="31.880461217785776" lon="-6.108765536013283"><ele>1476.0</ele><time>2026-05-04T10:51:25Z</time></trkpt><trkpt lat="31.88036809289839" lon="-6.10872838699"><ele>1476.0</ele><time>2026-05-04T10:51:26Z</time></trkpt><trkpt lat="31.880288063629155" lon="-6.108643326791734"><ele>1476.0</ele><time>2026-05-04T10:51:27Z</time></trkpt><trkpt lat="31.88020737822665" lon="-6.108541587343646"><ele>1476.0</ele><time>2026-05-04T10:51:28Z</time></trkpt><trkpt lat="31.8801005728222" lon="-6.108462858861198"><ele>1478.25</ele><time>2026-05-04T10:51:29Z</time></trkpt><trkpt lat="31.879975789427906" lon="-6.10841370421428"><ele>1480.5</ele><time>2026-05-04T10:51:30Z</time></trkpt><trkpt lat="31.879846532724944" lon="-6.108374344629457"><ele>1482.75</ele><time>2026-05-04T10:51:31Z</time></trkpt><trkpt lat="31.879714159081672" lon="-6.108328754048584"><ele>1485.0</ele><time>2026-05-04T10:51:32Z</time></trkpt><trkpt lat="31.87957742104744" lon="-6.10828137787255"><ele>1485.0</ele><time>2026-05-04T10:51:33Z</time></trkpt><trkpt lat="31.879435639407937" lon="-6.108259550917857"><ele>1485.0</ele><time>2026-05-04T10:51:34Z</time></trkpt><trkpt lat="31.879285952934204" lon="-6.1082710480578974"><ele>1485.0</ele><time>2026-05-04T10:51:35Z</time></trkpt><trkpt lat="31.879125070847092" lon="-6.108295710988705"><ele>1488.5</ele><time>2026-05-04T10:51:36Z</time></trkpt><trkpt lat="31.878971994787072" lon="-6.108313965335323"><ele>1492.0</ele><time>2026-05-04T10:51:37Z</time></trkpt><trkpt lat="31.878839439579874" lon="-6.1083294348479"><ele>1495.5</ele><time>2026-05-04T10:51:38Z</time></trkpt><trkpt lat="31.878718327225666" lon="-6.108365861990161"><ele>1499.0</ele><time>2026-05-04T10:51:39Z</time></trkpt><trkpt lat="31.878598348180343" lon="-6.1084321938268"><ele>1499.0</ele><time>2026-05-04T10:51:40Z</time></trkpt><trkpt lat="31.878479688133393" lon="-6.108525552188489"><ele>1499.0</ele><time>2026-05-04T10:51:41Z</time></trkpt><trkpt lat="31.878391805387547" lon="-6.108633556325258"><ele>1499.0</ele><time>2026-05-04T10:51:42Z</time></trkpt><trkpt lat="31.878313395869487" lon="-6.10868980370496"><ele>1499.0</ele><time>2026-05-04T10:51:43Z</time></trkpt><trkpt lat="31.878245176078043" lon="-6.108713105482627"><ele>1499.0</ele><time>2026-05-04T10:51:44Z</time></trkpt><trkpt lat="31.87817384406361" lon="-6.108680667254257"><ele>1500.4</ele><time>2026-05-04T10:51:45Z</time></trkpt><trkpt lat="31.878136547970755" lon="-6.1085675118715335"><ele>1501.8000000000002</ele><time>2026-05-04T10:51:46Z</time></trkpt><trkpt lat="31.878144438863544" lon="-6.108468636087286"><ele>1503.1999999999998</ele><time>2026-05-04T10:51:47Z</time></trkpt><trkpt lat="31.878170931096477" lon="-6.10835526809432"><ele>1504.6</ele><time>2026-05-04T10:51:48Z</time></trkpt><trkpt lat="31.878194545325" lon="-6.108226430625262"><ele>1506.0</ele><time>2026-05-04T10:51:49Z</time></trkpt><trkpt lat="31.878188018465842" lon="-6.10810498696778"><ele>1502.0</ele><time>2026-05-04T10:51:50Z</time></trkpt><trkpt lat="31.878151058736066" lon="-6.108006681816394"><ele>1498.0</ele><time>2026-05-04T10:51:51Z</time></trkpt><trkpt lat="31.8780768367895" lon="-6.107937940113085"><ele>1494.0</ele><time>2026-05-04T10:51:52Z</time></trkpt><trkpt lat="31.87797012054248" lon="-6.107913939760141"><ele>1490.0</ele><time>2026-05-04T10:51:53Z</time></trkpt><trkpt lat="31.877875357611337" lon="-6.10788960955954"><ele>1486.0</ele><time>2026-05-04T10:51:54Z</time></trkpt><trkpt lat="31.877771182638874" lon="-6.107919201208187"><ele>1486.0</ele><time>2026-05-04T10:51:55Z</time></trkpt><trkpt lat="31.87766243798803" lon="-6.107982171597019"><ele>1486.0</ele><time>2026-05-04T10:51:56Z</time></trkpt><trkpt lat="31.877551283171552" lon="-6.10804770120189"><ele>1486.0</ele><time>2026-05-04T10:51:57Z</time></trkpt><trkpt lat="31.877434756619138" lon="-6.108107530162854"><ele>1486.0</ele><time>2026-05-04T10:51:58Z</time></trkpt><trkpt lat="31.877300168654426" lon="-6.108165988978171"><ele>1486.5</ele><time>2026-05-04T10:51:59Z</time></trkpt><trkpt lat="31.87715895790042" lon="-6.108223497945897"><ele>1487.0</ele><time>2026-05-04T10:52:00Z</time></trkpt><trkpt lat="31.87702203901475" lon="-6.108285537986695"><ele>1487.5</ele><time>2026-05-04T10:52:01Z</time></trkpt><trkpt lat="31.876889328525177" lon="-6.10835820061266"><ele>1488.0</ele><time>2026-05-04T10:52:02Z</time></trkpt><trkpt lat="31.87675466495894" lon="-6.10844451126123"><ele>1495.6666666666667</ele><time>2026-05-04T10:52:03Z</time></trkpt><trkpt lat="31.876616763165394" lon="-6.1085214297185475"><ele>1503.3333333333335</ele><time>2026-05-04T10:52:04Z</time></trkpt><trkpt lat="31.87647925805836" lon="-6.108599735328311"><ele>1511.0</ele><time>2026-05-04T10:52:05Z</time></trkpt><trkpt lat="31.87634543325071" lon="-6.108679711293421"><ele>1511.0</ele><time>2026-05-04T10:52:06Z</time></trkpt><trkpt lat="31.876219676067603" lon="-6.10875611081396"><ele>1511.0</ele><time>2026-05-04T10:52:07Z</time></trkpt><trkpt lat="31.876100956034804" lon="-6.108832182059816"><ele>1511.0</ele><time>2026-05-04T10:52:08Z</time></trkpt><trkpt lat="31.87600423758951" lon="-6.108945675381503"><ele>1511.0</ele><time>2026-05-04T10:52:09Z</time></trkpt><trkpt lat="31.87589432011182" lon="-6.109061419195705"><ele>1513.0</ele><time>2026-05-04T10:52:10Z</time></trkpt><trkpt lat="31.875818929809586" lon="-6.109232222054589"><ele>1515.0</ele><time>2026-05-04T10:52:11Z</time></trkpt><trkpt lat="31.875743299633328" lon="-6.109417783085618"><ele>1517.0</ele><time>2026-05-04T10:52:12Z</time></trkpt><trkpt lat="31.87564466955782" lon="-6.109580879768352"><ele>1517.0</ele><time>2026-05-04T10:52:13Z</time></trkpt><trkpt lat="31.875543030853617" lon="-6.109727180345726"><ele>1517.0</ele><time>2026-05-04T10:52:14Z</time></trkpt><trkpt lat="31.875453058371942" lon="-6.109869203923347"><ele>1517.0</ele><time>2026-05-04T10:52:15Z</time></trkpt><trkpt lat="31.875376161426242" lon="-6.1100157286446235"><ele>1513.25</ele><time>2026-05-04T10:52:16Z</time></trkpt><trkpt lat="31.875280451963427" lon="-6.110128961763964"><ele>1509.5</ele><time>2026-05-04T10:52:17Z</time></trkpt><trkpt lat="31.875217576015558" lon="-6.110262871018589"><ele>1505.75</ele><time>2026-05-04T10:52:18Z</time></trkpt><trkpt lat="31.875134623739363" lon="-6.110364980736301"><ele>1502.0</ele><time>2026-05-04T10:52:19Z</time></trkpt><trkpt lat="31.87508322458488" lon="-6.11048419960452"><ele>1502.0</ele><time>2026-05-04T10:52:20Z</time></trkpt><trkpt lat="31.875072546857055" lon="-6.110607559843285"><ele>1502.0</ele><time>2026-05-04T10:52:21Z</time></trkpt><trkpt lat="31.875116016943203" lon="-6.110729537964398"><ele>1502.0</ele><time>2026-05-04T10:52:22Z</time></trkpt><trkpt lat="31.87514965591776" lon="-6.110850992111039"><ele>1502.0</ele><time>2026-05-04T10:52:23Z</time></trkpt><trkpt lat="31.875155222150727" lon="-6.110956425923515"><ele>1502.0</ele><time>2026-05-04T10:52:24Z</time></trkpt><trkpt lat="31.875016951573794" lon="-6.111044447504305"><ele>1505.6</ele><time>2026-05-04T10:52:25Z</time></trkpt><trkpt lat="31.87491751609152" lon="-6.111093875105571"><ele>1509.1999999999998</ele><time>2026-05-04T10:52:26Z</time></trkpt><trkpt lat="31.874821769690016" lon="-6.1111213222359195"><ele>1512.8</ele><time>2026-05-04T10:52:27Z</time></trkpt><trkpt lat="31.874727755717334" lon="-6.111110115649597"><ele>1516.4</ele><time>2026-05-04T10:52:28Z</time></trkpt><trkpt lat="31.874642508477706" lon="-6.111052271678226"><ele>1520.0</ele><time>2026-05-04T10:52:29Z</time></trkpt><trkpt lat="31.87457676585914" lon="-6.11095343184729"><ele>1520.0</ele><time>2026-05-04T10:52:30Z</time></trkpt><trkpt lat="31.874518134850728" lon="-6.11083872296975"><ele>1520.0</ele><time>2026-05-04T10:52:31Z</time></trkpt><trkpt lat="31.87445269104403" lon="-6.1107314132713775"><ele>1520.0</ele><time>2026-05-04T10:52:32Z</time></trkpt><trkpt lat="31.87436605270571" lon="-6.110663283253763"><ele>1520.0</ele><time>2026-05-04T10:52:33Z</time></trkpt><trkpt lat="31.874261328657504" lon="-6.110645896850332"><ele>1520.0</ele><time>2026-05-04T10:52:34Z</time></trkpt><trkpt lat="31.874131900419822" lon="-6.110687647512379"><ele>1522.0</ele><time>2026-05-04T10:52:35Z</time></trkpt><trkpt lat="31.873998363656224" lon="-6.110710044611256"><ele>1524.0</ele><time>2026-05-04T10:52:36Z</time></trkpt><trkpt lat="31.87386441962368" lon="-6.110733854468145"><ele>1526.0</ele><time>2026-05-04T10:52:37Z</time></trkpt><trkpt lat="31.873724488997905" lon="-6.110744111711688"><ele>1528.0</ele><time>2026-05-04T10:52:38Z</time></trkpt><trkpt lat="31.87357993088604" lon="-6.110740406577233"><ele>1527.0</ele><time>2026-05-04T10:52:39Z</time></trkpt><trkpt lat="31.873438729928104" lon="-6.1107213711995"><ele>1526.0</ele><time>2026-05-04T10:52:40Z</time></trkpt><trkpt lat="31.873302628788476" lon="-6.1107075881576804"><ele>1525.0</ele><time>2026-05-04T10:52:41Z</time></trkpt><trkpt lat="31.873164948305035" lon="-6.110718867937165"><ele>1524.0</ele><time>2026-05-04T10:52:42Z</time></trkpt><trkpt lat="31.873036574230824" lon="-6.110776692488837"><ele>1524.0</ele><time>2026-05-04T10:52:43Z</time></trkpt><trkpt lat="31.8729243981305" lon="-6.110868688540505"><ele>1524.0</ele><time>2026-05-04T10:52:44Z</time></trkpt><trkpt lat="31.872851362659684" lon="-6.110996855060752"><ele>1524.0</ele><time>2026-05-04T10:52:45Z</time></trkpt><trkpt lat="31.872789145629834" lon="-6.111092827516026"><ele>1524.0</ele><time>2026-05-04T10:52:46Z</time></trkpt><trkpt lat="31.872686386937808" lon="-6.111156312844185"><ele>1522.4</ele><time>2026-05-04T10:52:47Z</time></trkpt><trkpt lat="31.872592968019205" lon="-6.111201122536196"><ele>1520.8000000000002</ele><time>2026-05-04T10:52:48Z</time></trkpt><trkpt lat="31.872488047791922" lon="-6.111126758131058"><ele>1519.1999999999998</ele><time>2026-05-04T10:52:49Z</time></trkpt><trkpt lat="31.872417473398183" lon="-6.1110360922192815"><ele>1517.6</ele><time>2026-05-04T10:52:50Z</time></trkpt><trkpt lat="31.87236618954618" lon="-6.110909840080475"><ele>1516.0</ele><time>2026-05-04T10:52:51Z</time></trkpt><trkpt lat="31.87230631193616" lon="-6.110799267120026"><ele>1512.0</ele><time>2026-05-04T10:52:52Z</time></trkpt><trkpt lat="31.87222073697814" lon="-6.110700515275618"><ele>1508.0</ele><time>2026-05-04T10:52:53Z</time></trkpt><trkpt lat="31.872135796582263" lon="-6.110588172188312"><ele>1504.0</ele><time>2026-05-04T10:52:54Z</time></trkpt><trkpt lat="31.87204420248179" lon="-6.110467812858068"><ele>1500.0</ele><time>2026-05-04T10:52:55Z</time></trkpt><trkpt lat="31.871946132441554" lon="-6.110344172001479"><ele>1500.0</ele><time>2026-05-04T10:52:56Z</time></trkpt><trkpt lat="31.871847104255238" lon="-6.110216190021479"><ele>1500.0</ele><time>2026-05-04T10:52:57Z</time></trkpt><trkpt lat="31.87172979600362" lon="-6.110110359395745"><ele>1500.0</ele><time>2026-05-04T10:52:58Z</time></trkpt><trkpt lat="31.871615334088155" lon="-6.109998136465848"><ele>1500.0</ele><time>2026-05-04T10:52:59Z</time></trkpt><trkpt lat="31.871496289841634" lon="-6.109893742082892"><ele>1499.0</ele><time>2026-05-04T10:53:00Z</time></trkpt><trkpt lat="31.8713828381985" lon="-6.109772978193543"><ele>1498.0</ele><time>2026-05-04T10:53:01Z</time></trkpt><trkpt lat="31.87125549946835" lon="-6.109672893224484"><ele>1497.0</ele><time>2026-05-04T10:53:02Z</time></trkpt><trkpt lat="31.87112018801255" lon="-6.109611082462207"><ele>1497.0</ele><time>2026-05-04T10:53:03Z</time></trkpt><trkpt lat="31.87098139155366" lon="-6.10954829849907"><ele>1497.0</ele><time>2026-05-04T10:53:04Z</time></trkpt><trkpt lat="31.870834321061697" lon="-6.109477409296957"><ele>1497.0</ele><time>2026-05-04T10:53:05Z</time></trkpt><trkpt lat="31.870679018007483" lon="-6.109432655002612"><ele>1499.3333333333333</ele><time>2026-05-04T10:53:06Z</time></trkpt><trkpt lat="31.870520300922287" lon="-6.109392259245534"><ele>1501.6666666666665</ele><time>2026-05-04T10:53:07Z</time></trkpt><trkpt lat="31.87035587887635" lon="-6.109385205636329"><ele>1504.0</ele><time>2026-05-04T10:53:08Z</time></trkpt><trkpt lat="31.870193308606105" lon="-6.109360811393096"><ele>1506.0</ele><time>2026-05-04T10:53:09Z</time></trkpt><trkpt lat="31.870025694324884" lon="-6.109368536528045"><ele>1508.0</ele><time>2026-05-04T10:53:10Z</time></trkpt><trkpt lat="31.86985600882313" lon="-6.109401669716953"><ele>1510.0</ele><time>2026-05-04T10:53:11Z</time></trkpt><trkpt lat="31.869690321077012" lon="-6.109435061056896"><ele>1510.0</ele><time>2026-05-04T10:53:12Z</time></trkpt><trkpt lat="31.869527425953198" lon="-6.109471984105394"><ele>1510.0</ele><time>2026-05-04T10:53:13Z</time></trkpt><trkpt lat="31.86936659139303" lon="-6.109501442026518"><ele>1510.0</ele><time>2026-05-04T10:53:14Z</time></trkpt><trkpt lat="31.869208726381885" lon="-6.109530071818732"><ele>1509.5</ele><time>2026-05-04T10:53:15Z</time></trkpt><trkpt lat="31.869065585148228" lon="-6.109584309534574"><ele>1509.0</ele><time>2026-05-04T10:53:16Z</time></trkpt><trkpt lat="31.868932325732985" lon="-6.109628279688661"><ele>1508.5</ele><time>2026-05-04T10:53:17Z</time></trkpt><trkpt lat="31.86881077650465" lon="-6.109706096872734"><ele>1508.0</ele><time>2026-05-04T10:53:18Z</time></trkpt><trkpt lat="31.868677089968713" lon="-6.109783242924513"><ele>1508.0</ele><time>2026-05-04T10:53:19Z</time></trkpt><trkpt lat="31.868532080285735" lon="-6.109844290251483"><ele>1508.0</ele><time>2026-05-04T10:53:20Z</time></trkpt><trkpt lat="31.868402002958355" lon="-6.109935436586383"><ele>1508.0</ele><time>2026-05-04T10:53:21Z</time></trkpt><trkpt lat="31.8682755900239" lon="-6.110020170331719"><ele>1510.5</ele><time>2026-05-04T10:53:22Z</time></trkpt><trkpt lat="31.868161353686236" lon="-6.110110758161729"><ele>1513.0</ele><time>2026-05-04T10:53:23Z</time></trkpt><trkpt lat="31.868067987513268" lon="-6.110222536078725"><ele>1515.5</ele><time>2026-05-04T10:53:24Z</time></trkpt><trkpt lat="31.868012633321484" lon="-6.110361620476087"><ele>1518.0</ele><time>2026-05-04T10:53:25Z</time></trkpt><trkpt lat="31.868004473657496" lon="-6.1105288959374"><ele>1518.0</ele><time>2026-05-04T10:53:26Z</time></trkpt><trkpt lat="31.867973788028166" lon="-6.110706629222265"><ele>1518.0</ele><time>2026-05-04T10:53:27Z</time></trkpt><trkpt lat="31.867918911994018" lon="-6.1108704923957005"><ele>1518.0</ele><time>2026-05-04T10:53:28Z</time></trkpt><trkpt lat="31.867894985161808" lon="-6.111051535134199"><ele>1523.0</ele><time>2026-05-04T10:53:29Z</time></trkpt><trkpt lat="31.867857267034303" lon="-6.1112197093424045"><ele>1528.0</ele><time>2026-05-04T10:53:30Z</time></trkpt><trkpt lat="31.867809228163384" lon="-6.111372755806567"><ele>1533.0</ele><time>2026-05-04T10:53:31Z</time></trkpt><trkpt lat="31.867812425546497" lon="-6.111526726565805"><ele>1538.0</ele><time>2026-05-04T10:53:32Z</time></trkpt><trkpt lat="31.867869935829933" lon="-6.11167255542607"><ele>1540.0</ele><time>2026-05-04T10:53:33Z</time></trkpt><trkpt lat="31.867974255461675" lon="-6.1117993417287115"><ele>1542.0</ele><time>2026-05-04T10:53:34Z</time></trkpt><trkpt lat="31.868071168432625" lon="-6.1119440535506895"><ele>1544.0</ele><time>2026-05-04T10:53:35Z</time></trkpt><trkpt lat="31.86816778260171" lon="-6.11209427500406"><ele>1544.0</ele><time>2026-05-04T10:53:36Z</time></trkpt><trkpt lat="31.868239102312018" lon="-6.1122796557847705"><ele>1544.0</ele><time>2026-05-04T10:53:37Z</time></trkpt><trkpt lat="31.868265008053314" lon="-6.112487248977825"><ele>1544.0</ele><time>2026-05-04T10:53:38Z</time></trkpt><trkpt lat="31.8682788996763" lon="-6.112685125149637"><ele>1544.5</ele><time>2026-05-04T10:53:39Z</time></trkpt><trkpt lat="31.868298250805747" lon="-6.112872468349829"><ele>1545.0</ele><time>2026-05-04T10:53:40Z</time></trkpt><trkpt lat="31.868316848604767" lon="-6.113040548939049"><ele>1545.5</ele><time>2026-05-04T10:53:41Z</time></trkpt><trkpt lat="31.868336476773663" lon="-6.113193801701982"><ele>1546.0</ele><time>2026-05-04T10:53:42Z</time></trkpt><trkpt lat="31.868358219249103" lon="-6.113333880774446"><ele>1547.0</ele><time>2026-05-04T10:53:43Z</time></trkpt><trkpt lat="31.868378569685422" lon="-6.113464991513299"><ele>1548.0</ele><time>2026-05-04T10:53:44Z</time></trkpt><trkpt lat="31.86839557575068" lon="-6.113579290597669"><ele>1549.0</ele><time>2026-05-04T10:53:45Z</time></trkpt><trkpt lat="31.868394694152244" lon="-6.113692062936188"><ele>1550.0</ele><time>2026-05-04T10:53:46Z</time></trkpt><trkpt lat="31.86834407814181" lon="-6.113798251772591"><ele>1551.0</ele><time>2026-05-04T10:53:47Z</time></trkpt><trkpt lat="31.86817510053144" lon="-6.113811760715927"><ele>1551.0</ele><time>2026-05-04T10:53:49Z</time></trkpt><trkpt lat="31.868105511370032" lon="-6.113810506342787"><ele>1551.0</ele><time>2026-05-04T10:53:50Z</time></trkpt><trkpt lat="31.868039737542173" lon="-6.113680491518867"><ele>1551.0</ele><time>2026-05-04T10:53:51Z</time></trkpt><trkpt lat="31.868003722348707" lon="-6.1135515737337185"><ele>1551.0</ele><time>2026-05-04T10:53:52Z</time></trkpt><trkpt lat="31.867963489008332" lon="-6.11340392405203"><ele>1551.0</ele><time>2026-05-04T10:53:53Z</time></trkpt><trkpt lat="31.86790156134918" lon="-6.113255045863418"><ele>1550.25</ele><time>2026-05-04T10:53:54Z</time></trkpt><trkpt lat="31.867826470163333" lon="-6.113114283684497"><ele>1549.5</ele><time>2026-05-04T10:53:55Z</time></trkpt><trkpt lat="31.867747599743367" lon="-6.1129739443762965"><ele>1548.75</ele><time>2026-05-04T10:53:56Z</time></trkpt><trkpt lat="31.86766503057066" lon="-6.11285389183484"><ele>1548.0</ele><time>2026-05-04T10:53:57Z</time></trkpt><trkpt lat="31.867555456459847" lon="-6.112791045337299"><ele>1548.0</ele><time>2026-05-04T10:53:58Z</time></trkpt><trkpt lat="31.86743573384907" lon="-6.112738428506355"><ele>1548.0</ele><time>2026-05-04T10:53:59Z</time></trkpt><trkpt lat="31.867298417290353" lon="-6.112691368310307"><ele>1548.0</ele><time>2026-05-04T10:54:00Z</time></trkpt><trkpt lat="31.86716159745173" lon="-6.112628940866635"><ele>1548.0</ele><time>2026-05-04T10:54:01Z</time></trkpt><trkpt lat="31.867011787981966" lon="-6.1125797604022"><ele>1548.0</ele><time>2026-05-04T10:54:02Z</time></trkpt><trkpt lat="31.866864203637903" lon="-6.11253129248931"><ele>1548.0</ele><time>2026-05-04T10:54:03Z</time></trkpt><trkpt lat="31.866724111767656" lon="-6.112497296819896"><ele>1548.0</ele><time>2026-05-04T10:54:04Z</time></trkpt><trkpt lat="31.86659364334954" lon="-6.1125213347502365"><ele>1548.0</ele><time>2026-05-04T10:54:05Z</time></trkpt><trkpt lat="31.8665018288143" lon="-6.112622880998569"><ele>1550.5</ele><time>2026-05-04T10:54:06Z</time></trkpt><trkpt lat="31.866404737505142" lon="-6.1127231498897245"><ele>1553.0</ele><time>2026-05-04T10:54:07Z</time></trkpt><trkpt lat="31.866296847188963" lon="-6.112829890965873"><ele>1555.5</ele><time>2026-05-04T10:54:08Z</time></trkpt><trkpt lat="31.866206602712158" lon="-6.112961104975002"><ele>1558.0</ele><time>2026-05-04T10:54:09Z</time></trkpt><trkpt lat="31.86611181731159" lon="-6.113067069122641"><ele>1558.0</ele><time>2026-05-04T10:54:10Z</time></trkpt><trkpt lat="31.86603411944567" lon="-6.1131539295657396"><ele>1558.0</ele><time>2026-05-04T10:54:11Z</time></trkpt><trkpt lat="31.865938459625248" lon="-6.113173146757241"><ele>1558.0</ele><time>2026-05-04T10:54:12Z</time></trkpt><trkpt lat="31.86586429738259" lon="-6.113166730723365"><ele>1558.0</ele><time>2026-05-04T10:54:13Z</time></trkpt><trkpt lat="31.865785244687466" lon="-6.113099785559115"><ele>1558.0</ele><time>2026-05-04T10:54:14Z</time></trkpt><trkpt lat="31.86571986028565" lon="-6.112998242826795"><ele>1559.0</ele><time>2026-05-04T10:54:15Z</time></trkpt><trkpt lat="31.865672528860717" lon="-6.112857412275926"><ele>1560.0</ele><time>2026-05-04T10:54:16Z</time></trkpt><trkpt lat="31.865619731445634" lon="-6.112721757642353"><ele>1561.0</ele><time>2026-05-04T10:54:17Z</time></trkpt><trkpt lat="31.86554984667876" lon="-6.112592242104453"><ele>1562.0</ele><time>2026-05-04T10:54:18Z</time></trkpt><trkpt lat="31.865463000161345" lon="-6.112461474810465"><ele>1561.0</ele><time>2026-05-04T10:54:19Z</time></trkpt><trkpt lat="31.865369804965077" lon="-6.112339345036638"><ele>1560.0</ele><time>2026-05-04T10:54:20Z</time></trkpt><trkpt lat="31.865259110725894" lon="-6.11223256038185"><ele>1559.0</ele><time>2026-05-04T10:54:21Z</time></trkpt><trkpt lat="31.865142259224022" lon="-6.11213425492834"><ele>1558.0</ele><time>2026-05-04T10:54:22Z</time></trkpt><trkpt lat="31.865019418057635" lon="-6.112039017953215"><ele>1562.0</ele><time>2026-05-04T10:54:23Z</time></trkpt><trkpt lat="31.86489578779318" lon="-6.111951064035766"><ele>1566.0</ele><time>2026-05-04T10:54:24Z</time></trkpt><trkpt lat="31.864750487755217" lon="-6.111909559176273"><ele>1570.0</ele><time>2026-05-04T10:54:25Z</time></trkpt><trkpt lat="31.864606903283118" lon="-6.11186190264149"><ele>1574.0</ele><time>2026-05-04T10:54:26Z</time></trkpt><trkpt lat="31.864460115034962" lon="-6.111812453680424"><ele>1574.0</ele><time>2026-05-04T10:54:27Z</time></trkpt><trkpt lat="31.86430573216851" lon="-6.11175337024268"><ele>1574.0</ele><time>2026-05-04T10:54:28Z</time></trkpt><trkpt lat="31.864137211663312" lon="-6.1117221709867335"><ele>1574.0</ele><time>2026-05-04T10:54:29Z</time></trkpt><trkpt lat="31.86396982073471" lon="-6.111699406632816"><ele>1577.3333333333333</ele><time>2026-05-04T10:54:30Z</time></trkpt><trkpt lat="31.8638157265807" lon="-6.111683173882215"><ele>1580.6666666666665</ele><time>2026-05-04T10:54:31Z</time></trkpt><trkpt lat="31.86365998393314" lon="-6.111653562781483"><ele>1584.0</ele><time>2026-05-04T10:54:32Z</time></trkpt><trkpt lat="31.863501613878718" lon="-6.111597776298119"><ele>1582.6666666666665</ele><time>2026-05-04T10:54:33Z</time></trkpt><trkpt lat="31.863350517730392" lon="-6.111519150146858"><ele>1581.3333333333333</ele><time>2026-05-04T10:54:34Z</time></trkpt><trkpt lat="31.863212389786163" lon="-6.111429620465795"><ele>1580.0</ele><time>2026-05-04T10:54:35Z</time></trkpt><trkpt lat="31.86309377215829" lon="-6.111334750028558"><ele>1580.0</ele><time>2026-05-04T10:54:36Z</time></trkpt><trkpt lat="31.863004937506524" lon="-6.11121716776153"><ele>1580.0</ele><time>2026-05-04T10:54:37Z</time></trkpt><trkpt lat="31.86293786193205" lon="-6.111091509009195"><ele>1580.0</ele><time>2026-05-04T10:54:38Z</time></trkpt><trkpt lat="31.86288099078275" lon="-6.110972846703353"><ele>1580.0</ele><time>2026-05-04T10:54:39Z</time></trkpt><trkpt lat="31.86281769411492" lon="-6.110861484579051"><ele>1580.0</ele><time>2026-05-04T10:54:40Z</time></trkpt><trkpt lat="31.862747789944073" lon="-6.110754529617285"><ele>1580.0</ele><time>2026-05-04T10:54:41Z</time></trkpt><trkpt lat="31.86265806262758" lon="-6.110650081062879"><ele>1580.0</ele><time>2026-05-04T10:54:42Z</time></trkpt><trkpt lat="31.862547077834762" lon="-6.110560314844962"><ele>1580.0</ele><time>2026-05-04T10:54:43Z</time></trkpt><trkpt lat="31.862427018173797" lon="-6.110488262368226"><ele>1577.0</ele><time>2026-05-04T10:54:44Z</time></trkpt><trkpt lat="31.862299555635513" lon="-6.110432903944809"><ele>1574.0</ele><time>2026-05-04T10:54:45Z</time></trkpt><trkpt lat="31.86216579364934" lon="-6.110378848211531"><ele>1571.0</ele><time>2026-05-04T10:54:46Z</time></trkpt><trkpt lat="31.862024437094718" lon="-6.110350689286842"><ele>1568.0</ele><time>2026-05-04T10:54:47Z</time></trkpt><trkpt lat="31.861886706168587" lon="-6.110309959039437"><ele>1570.0</ele><time>2026-05-04T10:54:48Z</time></trkpt><trkpt lat="31.861754787527968" lon="-6.110242350150366"><ele>1572.0</ele><time>2026-05-04T10:54:49Z</time></trkpt><trkpt lat="31.8616453465794" lon="-6.110161982480329"><ele>1574.0</ele><time>2026-05-04T10:54:50Z</time></trkpt><trkpt lat="31.861536027000962" lon="-6.110117261864593"><ele>1576.0</ele><time>2026-05-04T10:54:51Z</time></trkpt><trkpt lat="31.861438293898235" lon="-6.11009602977025"><ele>1576.0</ele><time>2026-05-04T10:54:52Z</time></trkpt><trkpt lat="31.861353741097876" lon="-6.110117849505993"><ele>1576.0</ele><time>2026-05-04T10:54:53Z</time></trkpt><trkpt lat="31.8612942855811" lon="-6.110192510524759"><ele>1576.0</ele><time>2026-05-04T10:54:54Z</time></trkpt><trkpt lat="31.8612572277473" lon="-6.110317739589108"><ele>1576.0</ele><time>2026-05-04T10:54:55Z</time></trkpt><trkpt lat="31.861231643144567" lon="-6.110472011473379"><ele>1576.0</ele><time>2026-05-04T10:54:56Z</time></trkpt><trkpt lat="31.861208555120854" lon="-6.110641496533322"><ele>1578.5</ele><time>2026-05-04T10:54:57Z</time></trkpt><trkpt lat="31.861196624602943" lon="-6.1108190812214405"><ele>1581.0</ele><time>2026-05-04T10:54:58Z</time></trkpt><trkpt lat="31.861190360407736" lon="-6.110984474049333"><ele>1583.5</ele><time>2026-05-04T10:54:59Z</time></trkpt><trkpt lat="31.861185224509466" lon="-6.111144073608049"><ele>1586.0</ele><time>2026-05-04T10:55:00Z</time></trkpt><trkpt lat="31.86117994532099" lon="-6.111301895006028"><ele>1586.0</ele><time>2026-05-04T10:55:01Z</time></trkpt><trkpt lat="31.86117012458878" lon="-6.111456853201349"><ele>1586.0</ele><time>2026-05-04T10:55:02Z</time></trkpt><trkpt lat="31.861171150486047" lon="-6.111611113603159"><ele>1586.0</ele><time>2026-05-04T10:55:03Z</time></trkpt><trkpt lat="31.861149477467432" lon="-6.111768644116227"><ele>1586.0</ele><time>2026-05-04T10:55:04Z</time></trkpt><trkpt lat="31.861099066830807" lon="-6.111920771719567"><ele>1587.75</ele><time>2026-05-04T10:55:05Z</time></trkpt><trkpt lat="31.861041834197373" lon="-6.112056759421508"><ele>1589.5</ele><time>2026-05-04T10:55:06Z</time></trkpt><trkpt lat="31.86098346131773" lon="-6.112189563867736"><ele>1591.25</ele><time>2026-05-04T10:55:07Z</time></trkpt><trkpt lat="31.86093375090137" lon="-6.112318274173448"><ele>1593.0</ele><time>2026-05-04T10:55:08Z</time></trkpt><trkpt lat="31.86089090900521" lon="-6.112451294277409"><ele>1588.0</ele><time>2026-05-04T10:55:09Z</time></trkpt><trkpt lat="31.86084102264542" lon="-6.112588940232487"><ele>1583.0</ele><time>2026-05-04T10:55:10Z</time></trkpt><trkpt lat="31.86079055165073" lon="-6.1127092276354285"><ele>1578.0</ele><time>2026-05-04T10:55:11Z</time></trkpt><trkpt lat="31.86072991024414" lon="-6.1128222661560025"><ele>1573.0</ele><time>2026-05-04T10:55:12Z</time></trkpt><trkpt lat="31.86067332456608" lon="-6.11291326255051"><ele>1573.0</ele><time>2026-05-04T10:55:13Z</time></trkpt><trkpt lat="31.86057873596739" lon="-6.112956402598392"><ele>1573.0</ele><time>2026-05-04T10:55:14Z</time></trkpt><trkpt lat="31.860503774375474" lon="-6.112979132034504"><ele>1573.0</ele><time>2026-05-04T10:55:15Z</time></trkpt><trkpt lat="31.86042010920436" lon="-6.112929879018851"><ele>1573.0</ele><time>2026-05-04T10:55:16Z</time></trkpt><trkpt lat="31.860366971127807" lon="-6.112838854651059"><ele>1573.0</ele><time>2026-05-04T10:55:17Z</time></trkpt><trkpt lat="31.860379557307482" lon="-6.112733195430639"><ele>1573.0</ele><time>2026-05-04T10:55:18Z</time></trkpt><trkpt lat="31.860372381799387" lon="-6.11261514113853"><ele>1573.0</ele><time>2026-05-04T10:55:19Z</time></trkpt><trkpt lat="31.860361192887407" lon="-6.1124791660153015"><ele>1573.0</ele><time>2026-05-04T10:55:20Z</time></trkpt><trkpt lat="31.860355466187105" lon="-6.112324747930257"><ele>1573.0</ele><time>2026-05-04T10:55:21Z</time></trkpt><trkpt lat="31.860349079202265" lon="-6.112160839786574"><ele>1571.25</ele><time>2026-05-04T10:55:22Z</time></trkpt><trkpt lat="31.86034285033133" lon="-6.111997212897437"><ele>1569.5</ele><time>2026-05-04T10:55:23Z</time></trkpt><trkpt lat="31.86032181786281" lon="-6.11184547119616"><ele>1567.75</ele><time>2026-05-04T10:55:24Z</time></trkpt><trkpt lat="31.86028623622944" lon="-6.111695958112064"><ele>1566.0</ele><time>2026-05-04T10:55:25Z</time></trkpt><trkpt lat="31.860189125859037" lon="-6.111569717045431"><ele>1564.5</ele><time>2026-05-04T10:55:26Z</time></trkpt><trkpt lat="31.860086741930342" lon="-6.111449659551097"><ele>1563.0</ele><time>2026-05-04T10:55:27Z</time></trkpt><trkpt lat="31.85997570732566" lon="-6.111353238034492"><ele>1561.5</ele><time>2026-05-04T10:55:28Z</time></trkpt><trkpt lat="31.859858513852178" lon="-6.111287185532155"><ele>1560.0</ele><time>2026-05-04T10:55:29Z</time></trkpt><trkpt lat="31.85972053300362" lon="-6.111272090199222"><ele>1560.0</ele><time>2026-05-04T10:55:30Z</time></trkpt><trkpt lat="31.85959668223904" lon="-6.111296205561847"><ele>1560.0</ele><time>2026-05-04T10:55:31Z</time></trkpt><trkpt lat="31.85951483391112" lon="-6.1114088150685495"><ele>1560.0</ele><time>2026-05-04T10:55:32Z</time></trkpt><trkpt lat="31.85944895366817" lon="-6.1114434308165055"><ele>1560.0</ele><time>2026-05-04T10:55:33Z</time></trkpt><trkpt lat="31.859355445704853" lon="-6.111462046445944"><ele>1560.0</ele><time>2026-05-04T10:55:34Z</time></trkpt><trkpt lat="31.859250588163356" lon="-6.111398473640224"><ele>1563.5</ele><time>2026-05-04T10:55:35Z</time></trkpt><trkpt lat="31.85916347296497" lon="-6.111294535676081"><ele>1567.0</ele><time>2026-05-04T10:55:36Z</time></trkpt><trkpt lat="31.859092313997895" lon="-6.111158781873546"><ele>1570.5</ele><time>2026-05-04T10:55:37Z</time></trkpt><trkpt lat="31.859003151317356" lon="-6.111034421553391"><ele>1574.0</ele><time>2026-05-04T10:55:38Z</time></trkpt><trkpt lat="31.858902163925656" lon="-6.110912505107991"><ele>1574.0</ele><time>2026-05-04T10:55:39Z</time></trkpt><trkpt lat="31.858791386812094" lon="-6.1107863352462655"><ele>1574.0</ele><time>2026-05-04T10:55:40Z</time></trkpt><trkpt lat="31.85868546048497" lon="-6.110662753331224"><ele>1574.0</ele><time>2026-05-04T10:55:41Z</time></trkpt><trkpt lat="31.858583915185697" lon="-6.110535773768476"><ele>1573.5</ele><time>2026-05-04T10:55:42Z</time></trkpt><trkpt lat="31.858490792308142" lon="-6.1104035026585715"><ele>1573.0</ele><time>2026-05-04T10:55:43Z</time></trkpt><trkpt lat="31.858391354265738" lon="-6.11032393108489"><ele>1572.5</ele><time>2026-05-04T10:55:44Z</time></trkpt><trkpt lat="31.858302399599985" lon="-6.11023538389475"><ele>1572.0</ele><time>2026-05-04T10:55:45Z</time></trkpt><trkpt lat="31.8581796414249" lon="-6.1102609503115115"><ele>1572.0</ele><time>2026-05-04T10:55:46Z</time></trkpt><trkpt lat="31.858040585191663" lon="-6.110253998443702"><ele>1572.0</ele><time>2026-05-04T10:55:47Z</time></trkpt><trkpt lat="31.8578901328272" lon="-6.110261865054915"><ele>1572.0</ele><time>2026-05-04T10:55:48Z</time></trkpt><trkpt lat="31.857732797728808" lon="-6.110283093369712"><ele>1572.0</ele><time>2026-05-04T10:55:49Z</time></trkpt><trkpt lat="31.85756827996395" lon="-6.110300985479415"><ele>1570.3333333333335</ele><time>2026-05-04T10:55:50Z</time></trkpt><trkpt lat="31.857417741454665" lon="-6.110391315402322"><ele>1568.6666666666667</ele><time>2026-05-04T10:55:51Z</time></trkpt><trkpt lat="31.85726966266147" lon="-6.1105123022635635"><ele>1567.0</ele><time>2026-05-04T10:55:52Z</time></trkpt><trkpt lat="31.85714321987669" lon="-6.1106471773589455"><ele>1575.75</ele><time>2026-05-04T10:55:53Z</time></trkpt><trkpt lat="31.857039382620588" lon="-6.110773090805948"><ele>1584.5</ele><time>2026-05-04T10:55:54Z</time></trkpt><trkpt lat="31.856978243987292" lon="-6.110907514119106"><ele>1593.25</ele><time>2026-05-04T10:55:55Z</time></trkpt><trkpt lat="31.856892110678313" lon="-6.111048504650628"><ele>1602.0</ele><time>2026-05-04T10:55:56Z</time></trkpt><trkpt lat="31.856819892565817" lon="-6.1111245018762395"><ele>1600.5</ele><time>2026-05-04T10:55:57Z</time></trkpt><trkpt lat="31.856771460971846" lon="-6.111175467696469"><ele>1599.0</ele><time>2026-05-04T10:55:58Z</time></trkpt><trkpt lat="31.85663089602209" lon="-6.111077750527445"><ele>1597.5</ele><time>2026-05-04T10:55:59Z</time></trkpt><trkpt lat="31.856559306526904" lon="-6.1109833814155525"><ele>1596.0</ele><time>2026-05-04T10:56:00Z</time></trkpt><trkpt lat="31.85653542397076" lon="-6.11084767648923"><ele>1587.5</ele><time>2026-05-04T10:56:01Z</time></trkpt><trkpt lat="31.856513254554503" lon="-6.110696245608461"><ele>1579.0</ele><time>2026-05-04T10:56:02Z</time></trkpt><trkpt lat="31.85645152812357" lon="-6.110589044201244"><ele>1570.5</ele><time>2026-05-04T10:56:03Z</time></trkpt><trkpt lat="31.856328831583927" lon="-6.110519894068266"><ele>1562.0</ele><time>2026-05-04T10:56:04Z</time></trkpt><trkpt lat="31.85617519957347" lon="-6.110466331858077"><ele>1562.0</ele><time>2026-05-04T10:56:05Z</time></trkpt><trkpt lat="31.85600467644545" lon="-6.110396858803597"><ele>1562.0</ele><time>2026-05-04T10:56:06Z</time></trkpt><trkpt lat="31.855825295784783" lon="-6.110328962607111"><ele>1562.0</ele><time>2026-05-04T10:56:07Z</time></trkpt><trkpt lat="31.855637740865216" lon="-6.11022946293528"><ele>1564.6666666666665</ele><time>2026-05-04T10:56:08Z</time></trkpt><trkpt lat="31.855445307156934" lon="-6.11011404660207"><ele>1567.3333333333335</ele><time>2026-05-04T10:56:09Z</time></trkpt><trkpt lat="31.855243557479103" lon="-6.110009322934954"><ele>1570.0</ele><time>2026-05-04T10:56:10Z</time></trkpt><trkpt lat="31.855042583971457" lon="-6.109916646108787"><ele>1567.0</ele><time>2026-05-04T10:56:11Z</time></trkpt><trkpt lat="31.854835679762555" lon="-6.109826518358496"><ele>1564.0</ele><time>2026-05-04T10:56:12Z</time></trkpt><trkpt lat="31.854651062320315" lon="-6.109730287319274"><ele>1561.0</ele><time>2026-05-04T10:56:13Z</time></trkpt><trkpt lat="31.854482101844933" lon="-6.109638078213854"><ele>1561.0</ele><time>2026-05-04T10:56:14Z</time></trkpt><trkpt lat="31.85432263772279" lon="-6.1095556390941965"><ele>1561.0</ele><time>2026-05-04T10:56:15Z</time></trkpt><trkpt lat="31.854167566586685" lon="-6.1094778784122425"><ele>1561.0</ele><time>2026-05-04T10:56:16Z</time></trkpt><trkpt lat="31.85400219369723" lon="-6.109399340368925"><ele>1568.6666666666667</ele><time>2026-05-04T10:56:17Z</time></trkpt><trkpt lat="31.853834407126005" lon="-6.109314607392071"><ele>1576.3333333333335</ele><time>2026-05-04T10:56:18Z</time></trkpt><trkpt lat="31.85367042936367" lon="-6.109228965823038"><ele>1584.0</ele><time>2026-05-04T10:56:19Z</time></trkpt><trkpt lat="31.853517481908185" lon="-6.109158647977459"><ele>1580.75</ele><time>2026-05-04T10:56:20Z</time></trkpt><trkpt lat="31.85338077092987" lon="-6.109091255861244"><ele>1577.5</ele><time>2026-05-04T10:56:21Z</time></trkpt><trkpt lat="31.853260114391567" lon="-6.109041175974373"><ele>1574.25</ele><time>2026-05-04T10:56:22Z</time></trkpt><trkpt lat="31.85316594559255" lon="-6.10899710848405"><ele>1571.0</ele><time>2026-05-04T10:56:23Z</time></trkpt><trkpt lat="31.853079209070614" lon="-6.108953783583772"><ele>1570.9999999999998</ele><time>2026-05-04T10:56:24Z</time></trkpt><trkpt lat="31.85300096492534" lon="-6.108939326695969"><ele>1571.0</ele><time>2026-05-04T10:56:25Z</time></trkpt><trkpt lat="31.852923933878316" lon="-6.108963403617445"><ele>1571.0</ele><time>2026-05-04T10:56:26Z</time></trkpt><trkpt lat="31.852876108652023" lon="-6.1090331485625935"><ele>1571.0</ele><time>2026-05-04T10:56:27Z</time></trkpt><trkpt lat="31.85285367241217" lon="-6.109116492832573"><ele>1570.9999999999998</ele><time>2026-05-04T10:56:28Z</time></trkpt><trkpt lat="31.852865092377712" lon="-6.109218270803153"><ele>1571.0</ele><time>2026-05-04T10:56:29Z</time></trkpt><trkpt lat="31.85288059858371" lon="-6.109326811265121"><ele>1579.0</ele><time>2026-05-04T10:56:30Z</time></trkpt><trkpt lat="31.85290709425952" lon="-6.109453430577124"><ele>1587.0</ele><time>2026-05-04T10:56:31Z</time></trkpt><trkpt lat="31.852923136511375" lon="-6.109591566488585"><ele>1595.0</ele><time>2026-05-04T10:56:32Z</time></trkpt><trkpt lat="31.852921234578304" lon="-6.109737932521875"><ele>1603.0</ele><time>2026-05-04T10:56:33Z</time></trkpt><trkpt lat="31.85290329627382" lon="-6.109889100217946"><ele>1608.5</ele><time>2026-05-04T10:56:34Z</time></trkpt><trkpt lat="31.85288048615125" lon="-6.1100426302085955"><ele>1614.0</ele><time>2026-05-04T10:56:35Z</time></trkpt><trkpt lat="31.852884656808804" lon="-6.110186350340303"><ele>1619.5</ele><time>2026-05-04T10:56:36Z</time></trkpt><trkpt lat="31.852895737662962" lon="-6.110334778012563"><ele>1625.0</ele><time>2026-05-04T10:56:37Z</time></trkpt><trkpt lat="31.852917705478895" lon="-6.110482461661001"><ele>1625.0</ele><time>2026-05-04T10:56:38Z</time></trkpt><trkpt lat="31.852972628947562" lon="-6.110641308026007"><ele>1625.0</ele><time>2026-05-04T10:56:39Z</time></trkpt><trkpt lat="31.853059898688887" lon="-6.110819833736824"><ele>1625.0</ele><time>2026-05-04T10:56:40Z</time></trkpt><trkpt lat="31.85313638253793" lon="-6.110983880926601"><ele>1623.0</ele><time>2026-05-04T10:56:41Z</time></trkpt><trkpt lat="31.85321192154097" lon="-6.111165433229211"><ele>1621.0</ele><time>2026-05-04T10:56:42Z</time></trkpt><trkpt lat="31.853270163340536" lon="-6.111372910386935"><ele>1619.0</ele><time>2026-05-04T10:56:43Z</time></trkpt><trkpt lat="31.853339418148586" lon="-6.1115711014578835"><ele>1615.6666666666665</ele><time>2026-05-04T10:56:44Z</time></trkpt><trkpt lat="31.85339492895012" lon="-6.111760979948464"><ele>1612.3333333333335</ele><time>2026-05-04T10:56:45Z</time></trkpt><trkpt lat="31.853448028766312" lon="-6.111942611397655"><ele>1609.0</ele><time>2026-05-04T10:56:46Z</time></trkpt><trkpt lat="31.853488983721974" lon="-6.112129580746228"><ele>1618.3333333333335</ele><time>2026-05-04T10:56:47Z</time></trkpt><trkpt lat="31.853532217564773" lon="-6.112318124790174"><ele>1627.6666666666665</ele><time>2026-05-04T10:56:48Z</time></trkpt><trkpt lat="31.853577859305727" lon="-6.112491762675398"><ele>1637.0</ele><time>2026-05-04T10:56:49Z</time></trkpt><trkpt lat="31.853648880278147" lon="-6.11264949505457"><ele>1637.0</ele><time>2026-05-04T10:56:50Z</time></trkpt><trkpt lat="31.853689539513052" lon="-6.112800023115771"><ele>1637.0</ele><time>2026-05-04T10:56:51Z</time></trkpt><trkpt lat="31.853726980949098" lon="-6.112941489374194"><ele>1637.0</ele><time>2026-05-04T10:56:52Z</time></trkpt><trkpt lat="31.853730029821737" lon="-6.113100029605364"><ele>1637.0</ele><time>2026-05-04T10:56:53Z</time></trkpt><trkpt lat="31.853683948506344" lon="-6.113248725534117"><ele>1637.5</ele><time>2026-05-04T10:56:54Z</time></trkpt><trkpt lat="31.853614646178354" lon="-6.113369558749783"><ele>1638.0</ele><time>2026-05-04T10:56:55Z</time></trkpt><trkpt lat="31.85356437333424" lon="-6.113498750195798"><ele>1638.5</ele><time>2026-05-04T10:56:56Z</time></trkpt><trkpt lat="31.853481973154707" lon="-6.113597725021323"><ele>1639.0</ele><time>2026-05-04T10:56:57Z</time></trkpt><trkpt lat="31.853370354132306" lon="-6.113633213011655"><ele>1633.8000000000002</ele><time>2026-05-04T10:56:58Z</time></trkpt><trkpt lat="31.853272201833377" lon="-6.113602805044664"><ele>1628.6000000000001</ele><time>2026-05-04T10:56:59Z</time></trkpt><trkpt lat="31.8531919777271" lon="-6.1135445494975285"><ele>1623.4</ele><time>2026-05-04T10:57:00Z</time></trkpt><trkpt lat="31.85313871121447" lon="-6.11344460449159"><ele>1618.2</ele><time>2026-05-04T10:57:01Z</time></trkpt><trkpt lat="31.853117220473518" lon="-6.113309882323426"><ele>1613.0</ele><time>2026-05-04T10:57:02Z</time></trkpt><trkpt lat="31.853115538670096" lon="-6.113154007477163"><ele>1611.6666666666665</ele><time>2026-05-04T10:57:03Z</time></trkpt><trkpt lat="31.85310081460444" lon="-6.112982709304919"><ele>1610.3333333333335</ele><time>2026-05-04T10:57:04Z</time></trkpt><trkpt lat="31.853074135973035" lon="-6.112799034966121"><ele>1609.0</ele><time>2026-05-04T10:57:05Z</time></trkpt><trkpt lat="31.853046553133208" lon="-6.112612079251094"><ele>1609.0</ele><time>2026-05-04T10:57:06Z</time></trkpt><trkpt lat="31.853020295006452" lon="-6.112441033615866"><ele>1609.0</ele><time>2026-05-04T10:57:07Z</time></trkpt><trkpt lat="31.852984143121787" lon="-6.112286718227787"><ele>1609.0</ele><time>2026-05-04T10:57:08Z</time></trkpt><trkpt lat="31.852921427885473" lon="-6.1121456076795155"><ele>1609.0</ele><time>2026-05-04T10:57:09Z</time></trkpt><trkpt lat="31.85283680953226" lon="-6.1120049171288"><ele>1609.0</ele><time>2026-05-04T10:57:10Z</time></trkpt><trkpt lat="31.852750625542328" lon="-6.111860556580116"><ele>1609.0</ele><time>2026-05-04T10:57:11Z</time></trkpt><trkpt lat="31.85266584076284" lon="-6.111718720175211"><ele>1609.0</ele><time>2026-05-04T10:57:12Z</time></trkpt><trkpt lat="31.852575386121163" lon="-6.11159360289377"><ele>1609.0</ele><time>2026-05-04T10:57:13Z</time></trkpt><trkpt lat="31.8524587469593" lon="-6.1115107847268995"><ele>1603.0</ele><time>2026-05-04T10:57:14Z</time></trkpt><trkpt lat="31.852336335149367" lon="-6.111412579699728"><ele>1597.0</ele><time>2026-05-04T10:57:15Z</time></trkpt><trkpt lat="31.85221355752973" lon="-6.111304324319035"><ele>1591.0</ele><time>2026-05-04T10:57:16Z</time></trkpt><trkpt lat="31.8520769565489" lon="-6.111204899983253"><ele>1591.0</ele><time>2026-05-04T10:57:17Z</time></trkpt><trkpt lat="31.851946933223445" lon="-6.111098960497121"><ele>1591.0</ele><time>2026-05-04T10:57:18Z</time></trkpt><trkpt lat="31.851818639116107" lon="-6.110984448450486"><ele>1591.0</ele><time>2026-05-04T10:57:19Z</time></trkpt><trkpt lat="31.851696819310128" lon="-6.110862921859679"><ele>1589.75</ele><time>2026-05-04T10:57:20Z</time></trkpt><trkpt lat="31.851584145300187" lon="-6.110745003059544"><ele>1588.5</ele><time>2026-05-04T10:57:21Z</time></trkpt><trkpt lat="31.851477035742096" lon="-6.110631792898134"><ele>1587.25</ele><time>2026-05-04T10:57:22Z</time></trkpt><trkpt lat="31.85137510631137" lon="-6.110523892995631"><ele>1586.0</ele><time>2026-05-04T10:57:23Z</time></trkpt><trkpt lat="31.851283193194686" lon="-6.110431320301128"><ele>1586.0</ele><time>2026-05-04T10:57:24Z</time></trkpt><trkpt lat="31.851194842672147" lon="-6.110367150181"><ele>1586.0</ele><time>2026-05-04T10:57:25Z</time></trkpt><trkpt lat="31.85109849095961" lon="-6.110348278799697"><ele>1586.0</ele><time>2026-05-04T10:57:26Z</time></trkpt><trkpt lat="31.850990694431157" lon="-6.110375140120101"><ele>1586.0</ele><time>2026-05-04T10:57:27Z</time></trkpt><trkpt lat="31.850867515656006" lon="-6.110427612031489"><ele>1586.0</ele><time>2026-05-04T10:57:28Z</time></trkpt><trkpt lat="31.850734629473944" lon="-6.110489243379771"><ele>1588.25</ele><time>2026-05-04T10:57:29Z</time></trkpt><trkpt lat="31.850597868053793" lon="-6.110546728171747"><ele>1590.5</ele><time>2026-05-04T10:57:30Z</time></trkpt><trkpt lat="31.850470662280042" lon="-6.110597417067393"><ele>1592.75</ele><time>2026-05-04T10:57:31Z</time></trkpt><trkpt lat="31.85035340863761" lon="-6.110649430179932"><ele>1595.0</ele><time>2026-05-04T10:57:32Z</time></trkpt><trkpt lat="31.850239157316786" lon="-6.110705407327352"><ele>1598.75</ele><time>2026-05-04T10:57:33Z</time></trkpt><trkpt lat="31.850125232188393" lon="-6.110764986283804"><ele>1602.5</ele><time>2026-05-04T10:57:34Z</time></trkpt><trkpt lat="31.850013634324753" lon="-6.110809572002458"><ele>1606.25</ele><time>2026-05-04T10:57:35Z</time></trkpt><trkpt lat="31.849906307002996" lon="-6.1108259450773605"><ele>1610.0</ele><time>2026-05-04T10:57:36Z</time></trkpt><trkpt lat="31.84980227063518" lon="-6.110833820721467"><ele>1610.0</ele><time>2026-05-04T10:57:37Z</time></trkpt><trkpt lat="31.849703901617655" lon="-6.110790737270459"><ele>1610.0</ele><time>2026-05-04T10:57:38Z</time></trkpt><trkpt lat="31.849604270994305" lon="-6.110750696308821"><ele>1610.0</ele><time>2026-05-04T10:57:39Z</time></trkpt><trkpt lat="31.84949079908606" lon="-6.110706362056925"><ele>1610.0</ele><time>2026-05-04T10:57:40Z</time></trkpt><trkpt lat="31.84936378070802" lon="-6.110657110141398"><ele>1605.0</ele><time>2026-05-04T10:57:41Z</time></trkpt><trkpt lat="31.849222088389492" lon="-6.110630701958142"><ele>1600.0</ele><time>2026-05-04T10:57:42Z</time></trkpt><trkpt lat="31.849077989471304" lon="-6.110614632750559"><ele>1595.0</ele><time>2026-05-04T10:57:43Z</time></trkpt><trkpt lat="31.848938612755113" lon="-6.110583195788768"><ele>1590.0</ele><time>2026-05-04T10:57:44Z</time></trkpt><trkpt lat="31.848810993158196" lon="-6.11051779133562"><ele>1590.0</ele><time>2026-05-04T10:57:45Z</time></trkpt><trkpt lat="31.84869201985197" lon="-6.110441390984969"><ele>1590.0</ele><time>2026-05-04T10:57:46Z</time></trkpt><trkpt lat="31.84858128235751" lon="-6.110364682823249"><ele>1590.0</ele><time>2026-05-04T10:57:47Z</time></trkpt><trkpt lat="31.848475948802232" lon="-6.110289696842453"><ele>1590.0</ele><time>2026-05-04T10:57:48Z</time></trkpt><trkpt lat="31.848365845278263" lon="-6.11024830318636"><ele>1591.8</ele><time>2026-05-04T10:57:49Z</time></trkpt><trkpt lat="31.84826706140859" lon="-6.110215532528674"><ele>1593.6</ele><time>2026-05-04T10:57:50Z</time></trkpt><trkpt lat="31.848172311180726" lon="-6.110246193983882"><ele>1595.4</ele><time>2026-05-04T10:57:51Z</time></trkpt><trkpt lat="31.848105108857922" lon="-6.1103296764294965"><ele>1597.2</ele><time>2026-05-04T10:57:52Z</time></trkpt><trkpt lat="31.848071907264092" lon="-6.11044087019424"><ele>1599.0</ele><time>2026-05-04T10:57:53Z</time></trkpt><trkpt lat="31.848069744791694" lon="-6.110571783091222"><ele>1599.0</ele><time>2026-05-04T10:57:54Z</time></trkpt><trkpt lat="31.848081908467403" lon="-6.110718448550024"><ele>1599.0</ele><time>2026-05-04T10:57:55Z</time></trkpt><trkpt lat="31.848111450314025" lon="-6.110876186183132"><ele>1599.0</ele><time>2026-05-04T10:57:56Z</time></trkpt><trkpt lat="31.848096342265045" lon="-6.111038088287882"><ele>1599.0</ele><time>2026-05-04T10:57:57Z</time></trkpt><trkpt lat="31.848045728332362" lon="-6.111195398272065"><ele>1603.0</ele><time>2026-05-04T10:57:58Z</time></trkpt><trkpt lat="31.848000490010072" lon="-6.1113587831785665"><ele>1607.0</ele><time>2026-05-04T10:57:59Z</time></trkpt><trkpt lat="31.847938054588926" lon="-6.111516725294072"><ele>1611.0</ele><time>2026-05-04T10:58:00Z</time></trkpt><trkpt lat="31.847869004550457" lon="-6.111676143033886"><ele>1615.0</ele><time>2026-05-04T10:58:01Z</time></trkpt><trkpt lat="31.847808140055555" lon="-6.111843730303704"><ele>1619.6666666666667</ele><time>2026-05-04T10:58:02Z</time></trkpt><trkpt lat="31.847759648625047" lon="-6.112017568750973"><ele>1624.3333333333335</ele><time>2026-05-04T10:58:03Z</time></trkpt><trkpt lat="31.847753598782283" lon="-6.112200954997187"><ele>1629.0</ele><time>2026-05-04T10:58:04Z</time></trkpt><trkpt lat="31.847697360329793" lon="-6.112359684431926"><ele>1632.5</ele><time>2026-05-04T10:58:05Z</time></trkpt><trkpt lat="31.8476355893783" lon="-6.112517358816448"><ele>1636.0</ele><time>2026-05-04T10:58:06Z</time></trkpt><trkpt lat="31.84759058613034" lon="-6.112677950479689"><ele>1639.5</ele><time>2026-05-04T10:58:07Z</time></trkpt><trkpt lat="31.847542949692958" lon="-6.112823331771899"><ele>1643.0</ele><time>2026-05-04T10:58:08Z</time></trkpt><trkpt lat="31.84750379433725" lon="-6.112959250595164"><ele>1637.25</ele><time>2026-05-04T10:58:09Z</time></trkpt><trkpt lat="31.847473579032428" lon="-6.113089768271651"><ele>1631.5</ele><time>2026-05-04T10:58:10Z</time></trkpt><trkpt lat="31.847470494824467" lon="-6.113225806357784"><ele>1625.75</ele><time>2026-05-04T10:58:11Z</time></trkpt><trkpt lat="31.847496433225277" lon="-6.113365679407449"><ele>1620.0</ele><time>2026-05-04T10:58:12Z</time></trkpt><trkpt lat="31.847550409960686" lon="-6.113497315813726"><ele>1620.0</ele><time>2026-05-04T10:58:13Z</time></trkpt><trkpt lat="31.8476126634726" lon="-6.113610228677914"><ele>1620.0</ele><time>2026-05-04T10:58:14Z</time></trkpt><trkpt lat="31.84771723477814" lon="-6.113681218217459"><ele>1620.0</ele><time>2026-05-04T10:58:15Z</time></trkpt><trkpt lat="31.847831024289107" lon="-6.113698494234212"><ele>1620.0</ele><time>2026-05-04T10:58:16Z</time></trkpt><trkpt lat="31.84791914865746" lon="-6.113738204249673"><ele>1620.0</ele><time>2026-05-04T10:58:17Z</time></trkpt><trkpt lat="31.847981015349667" lon="-6.113820929328252"><ele>1624.25</ele><time>2026-05-04T10:58:18Z</time></trkpt><trkpt lat="31.848025815837598" lon="-6.113904016018012"><ele>1628.5</ele><time>2026-05-04T10:58:19Z</time></trkpt><trkpt lat="31.848024579832575" lon="-6.114042147087731"><ele>1632.75</ele><time>2026-05-04T10:58:20Z</time></trkpt><trkpt lat="31.847931449473062" lon="-6.114170761699154"><ele>1637.0</ele><time>2026-05-04T10:58:21Z</time></trkpt><trkpt lat="31.847764697884973" lon="-6.114144528859168"><ele>1637.0</ele><time>2026-05-04T10:58:22Z</time></trkpt><trkpt lat="31.847644524567084" lon="-6.1141698060050595"><ele>1637.0</ele><time>2026-05-04T10:58:23Z</time></trkpt><trkpt lat="31.847524344374854" lon="-6.114189358061113"><ele>1637.0</ele><time>2026-05-04T10:58:24Z</time></trkpt><trkpt lat="31.847447688917438" lon="-6.114284581489314"><ele>1637.0</ele><time>2026-05-04T10:58:25Z</time></trkpt><trkpt lat="31.847375438320064" lon="-6.114366843649296"><ele>1634.6</ele><time>2026-05-04T10:58:26Z</time></trkpt><trkpt lat="31.84730808519595" lon="-6.114462717747965"><ele>1632.1999999999998</ele><time>2026-05-04T10:58:27Z</time></trkpt><trkpt lat="31.847235595746653" lon="-6.114515125703816"><ele>1629.8</ele><time>2026-05-04T10:58:28Z</time></trkpt><trkpt lat="31.847138295940894" lon="-6.114522087784854"><ele>1627.4</ele><time>2026-05-04T10:58:29Z</time></trkpt><trkpt lat="31.84706469431394" lon="-6.114418944086477"><ele>1625.0</ele><time>2026-05-04T10:58:30Z</time></trkpt><trkpt lat="31.84702435144743" lon="-6.114318285417559"><ele>1625.0</ele><time>2026-05-04T10:58:31Z</time></trkpt><trkpt lat="31.84706694074531" lon="-6.1141883413174565"><ele>1625.0</ele><time>2026-05-04T10:58:32Z</time></trkpt><trkpt lat="31.8470504552624" lon="-6.11404057522928"><ele>1625.0</ele><time>2026-05-04T10:58:33Z</time></trkpt><trkpt lat="31.847044454874094" lon="-6.113905668372925"><ele>1625.0</ele><time>2026-05-04T10:58:34Z</time></trkpt><trkpt lat="31.847012834192753" lon="-6.113783125308916"><ele>1624.0</ele><time>2026-05-04T10:58:35Z</time></trkpt><trkpt lat="31.84695415968938" lon="-6.1136806319543515"><ele>1623.0</ele><time>2026-05-04T10:58:36Z</time></trkpt><trkpt lat="31.846883565041512" lon="-6.113599426598214"><ele>1622.0</ele><time>2026-05-04T10:58:37Z</time></trkpt><trkpt lat="31.846805474091234" lon="-6.1135103768177395"><ele>1621.0</ele><time>2026-05-04T10:58:38Z</time></trkpt><trkpt lat="31.84672600069961" lon="-6.11342065466672"><ele>1620.0</ele><time>2026-05-04T10:58:39Z</time></trkpt><trkpt lat="31.846636279321704" lon="-6.113342416433074"><ele>1619.2</ele><time>2026-05-04T10:58:40Z</time></trkpt><trkpt lat="31.846535831064816" lon="-6.113296034584668"><ele>1618.4</ele><time>2026-05-04T10:58:41Z</time></trkpt><trkpt lat="31.846434160996452" lon="-6.113314941084581"><ele>1617.6</ele><time>2026-05-04T10:58:42Z</time></trkpt><trkpt lat="31.84634160604096" lon="-6.113337348203029"><ele>1616.8</ele><time>2026-05-04T10:58:43Z</time></trkpt><trkpt lat="31.846259705236506" lon="-6.113348419519422"><ele>1616.0</ele><time>2026-05-04T10:58:44Z</time></trkpt><trkpt lat="31.846175211859308" lon="-6.113329162347727"><ele>1614.8</ele><time>2026-05-04T10:58:45Z</time></trkpt><trkpt lat="31.84611848739763" lon="-6.1132252829020866"><ele>1613.6</ele><time>2026-05-04T10:58:46Z</time></trkpt><trkpt lat="31.84609280383165" lon="-6.11312742442153"><ele>1612.4</ele><time>2026-05-04T10:58:47Z</time></trkpt><trkpt lat="31.8461040441741" lon="-6.113012090140836"><ele>1611.2</ele><time>2026-05-04T10:58:48Z</time></trkpt><trkpt lat="31.846138396997294" lon="-6.112891179566957"><ele>1610.0</ele><time>2026-05-04T10:58:49Z</time></trkpt><trkpt lat="31.84617868660826" lon="-6.112757003684622"><ele>1610.0</ele><time>2026-05-04T10:58:50Z</time></trkpt><trkpt lat="31.84620953477248" lon="-6.112626403871391"><ele>1610.0</ele><time>2026-05-04T10:58:51Z</time></trkpt><trkpt lat="31.846217332527356" lon="-6.112504699856033"><ele>1610.0</ele><time>2026-05-04T10:58:52Z</time></trkpt><trkpt lat="31.84619817163196" lon="-6.112394137087959"><ele>1610.0</ele><time>2026-05-04T10:58:53Z</time></trkpt><trkpt lat="31.846151420535744" lon="-6.112311847135269"><ele>1610.0</ele><time>2026-05-04T10:58:54Z</time></trkpt><trkpt lat="31.84611849798688" lon="-6.112233271359717"><ele>1610.4</ele><time>2026-05-04T10:58:55Z</time></trkpt><trkpt lat="31.846043178256323" lon="-6.112222691012251"><ele>1610.8</ele><time>2026-05-04T10:58:56Z</time></trkpt><trkpt lat="31.84596604613265" lon="-6.11224350678543"><ele>1611.1999999999998</ele><time>2026-05-04T10:58:57Z</time></trkpt><trkpt lat="31.845895910134136" lon="-6.112312780132284"><ele>1611.6</ele><time>2026-05-04T10:58:58Z</time></trkpt><trkpt lat="31.845848870730567" lon="-6.1124233623367275"><ele>1612.0</ele><time>2026-05-04T10:58:59Z</time></trkpt><trkpt lat="31.845764364605383" lon="-6.112509446800753"><ele>1614.0</ele><time>2026-05-04T10:59:00Z</time></trkpt><trkpt lat="31.845688030405093" lon="-6.112614015234176"><ele>1616.0</ele><time>2026-05-04T10:59:01Z</time></trkpt><trkpt lat="31.845605534167255" lon="-6.112720199357678"><ele>1618.0</ele><time>2026-05-04T10:59:02Z</time></trkpt><trkpt lat="31.84551726380525" lon="-6.112826411687676"><ele>1620.0</ele><time>2026-05-04T10:59:03Z</time></trkpt><trkpt lat="31.845423141108256" lon="-6.11290056235342"><ele>1620.0</ele><time>2026-05-04T10:59:04Z</time></trkpt><trkpt lat="31.84531252794175" lon="-6.112958290286004"><ele>1620.0</ele><time>2026-05-04T10:59:05Z</time></trkpt><trkpt lat="31.845167070877842" lon="-6.112938573183016"><ele>1620.0</ele><time>2026-05-04T10:59:06Z</time></trkpt><trkpt lat="31.845023908224512" lon="-6.112929070959755"><ele>1620.0</ele><time>2026-05-04T10:59:07Z</time></trkpt><trkpt lat="31.84488382313643" lon="-6.112936143718872"><ele>1620.5</ele><time>2026-05-04T10:59:08Z</time></trkpt><trkpt lat="31.84474849278719" lon="-6.112983246332359"><ele>1621.0</ele><time>2026-05-04T10:59:09Z</time></trkpt><trkpt lat="31.844632905349226" lon="-6.113041329366808"><ele>1621.5</ele><time>2026-05-04T10:59:10Z</time></trkpt><trkpt lat="31.84452213491108" lon="-6.113092047920669"><ele>1622.0</ele><time>2026-05-04T10:59:11Z</time></trkpt><trkpt lat="31.84448767391847" lon="-6.1132392505835185"><ele>1626.25</ele><time>2026-05-04T10:59:12Z</time></trkpt><trkpt lat="31.844458832815434" lon="-6.11337801973386"><ele>1630.5</ele><time>2026-05-04T10:59:13Z</time></trkpt><trkpt lat="31.844399717814248" lon="-6.113525019243434"><ele>1634.75</ele><time>2026-05-04T10:59:14Z</time></trkpt><trkpt lat="31.84431172292187" lon="-6.113651137884042"><ele>1639.0</ele><time>2026-05-04T10:59:15Z</time></trkpt><trkpt lat="31.844215245363042" lon="-6.11374516875545"><ele>1639.8000000000002</ele><time>2026-05-04T10:59:16Z</time></trkpt><trkpt lat="31.844131272728198" lon="-6.113819995469131"><ele>1640.6000000000001</ele><time>2026-05-04T10:59:17Z</time></trkpt><trkpt lat="31.84406434067062" lon="-6.113876228435368"><ele>1641.4</ele><time>2026-05-04T10:59:18Z</time></trkpt><trkpt lat="31.843973655577997" lon="-6.113909993393833"><ele>1642.2</ele><time>2026-05-04T10:59:19Z</time></trkpt><trkpt lat="31.843861726655174" lon="-6.113877581983939"><ele>1643.0</ele><time>2026-05-04T10:59:20Z</time></trkpt><trkpt lat="31.843788611338145" lon="-6.113735747893471"><ele>1643.0</ele><time>2026-05-04T10:59:21Z</time></trkpt><trkpt lat="31.84372598596456" lon="-6.113621985031101"><ele>1643.0</ele><time>2026-05-04T10:59:22Z</time></trkpt><trkpt lat="31.843690138753125" lon="-6.113479125614857"><ele>1643.0</ele><time>2026-05-04T10:59:23Z</time></trkpt><trkpt lat="31.843674158032947" lon="-6.113342877107362"><ele>1643.0</ele><time>2026-05-04T10:59:24Z</time></trkpt><trkpt lat="31.84361078822858" lon="-6.113253906319265"><ele>1644.0</ele><time>2026-05-04T10:59:25Z</time></trkpt><trkpt lat="31.8435330911483" lon="-6.1131913617127065"><ele>1645.0</ele><time>2026-05-04T10:59:26Z</time></trkpt><trkpt lat="31.84342742493178" lon="-6.113169480490196"><ele>1646.0</ele><time>2026-05-04T10:59:27Z</time></trkpt><trkpt lat="31.843306907156812" lon="-6.113117024780116"><ele>1647.0</ele><time>2026-05-04T10:59:28Z</time></trkpt><trkpt lat="31.843193064969512" lon="-6.113052518153528"><ele>1647.0</ele><time>2026-05-04T10:59:29Z</time></trkpt><trkpt lat="31.84310125461313" lon="-6.112924468755723"><ele>1647.0</ele><time>2026-05-04T10:59:30Z</time></trkpt><trkpt lat="31.843010603795314" lon="-6.112801127354031"><ele>1647.0</ele><time>2026-05-04T10:59:31Z</time></trkpt><trkpt lat="31.842940333065243" lon="-6.112666709193583"><ele>1647.0</ele><time>2026-05-04T10:59:32Z</time></trkpt><trkpt lat="31.842869657279405" lon="-6.112515479818412"><ele>1648.5</ele><time>2026-05-04T10:59:33Z</time></trkpt><trkpt lat="31.842797870018007" lon="-6.112369769771223"><ele>1650.0</ele><time>2026-05-04T10:59:34Z</time></trkpt><trkpt lat="31.84271742373357" lon="-6.112254636675871"><ele>1651.5</ele><time>2026-05-04T10:59:35Z</time></trkpt><trkpt lat="31.842646614015347" lon="-6.112150163134541"><ele>1653.0</ele><time>2026-05-04T10:59:36Z</time></trkpt><trkpt lat="31.842564813083552" lon="-6.112072578265034"><ele>1653.0</ele><time>2026-05-04T10:59:37Z</time></trkpt><trkpt lat="31.842470073067094" lon="-6.111988121793978"><ele>1653.0</ele><time>2026-05-04T10:59:38Z</time></trkpt><trkpt lat="31.842385574981993" lon="-6.111905878350215"><ele>1653.0</ele><time>2026-05-04T10:59:39Z</time></trkpt><trkpt lat="31.842298796473745" lon="-6.111873283287033"><ele>1653.0</ele><time>2026-05-04T10:59:40Z</time></trkpt><trkpt lat="31.84221369866577" lon="-6.111889005962451"><ele>1653.0</ele><time>2026-05-04T10:59:41Z</time></trkpt><trkpt lat="31.842125684704975" lon="-6.1119534351895295"><ele>1653.0</ele><time>2026-05-04T10:59:42Z</time></trkpt><trkpt lat="31.842036335555186" lon="-6.11204391238524"><ele>1653.0</ele><time>2026-05-04T10:59:43Z</time></trkpt><trkpt lat="31.84194895364453" lon="-6.112156508927687"><ele>1653.0</ele><time>2026-05-04T10:59:44Z</time></trkpt><trkpt lat="31.84183154643874" lon="-6.112232375364104"><ele>1653.0</ele><time>2026-05-04T10:59:45Z</time></trkpt><trkpt lat="31.8417157384478" lon="-6.112331761824259"><ele>1658.75</ele><time>2026-05-04T10:59:46Z</time></trkpt><trkpt lat="31.841600497662004" lon="-6.112428972586719"><ele>1664.5</ele><time>2026-05-04T10:59:47Z</time></trkpt><trkpt lat="31.84148380381685" lon="-6.112527363324696"><ele>1670.25</ele><time>2026-05-04T10:59:48Z</time></trkpt><trkpt lat="31.841364983735833" lon="-6.112633596517455"><ele>1676.0</ele><time>2026-05-04T10:59:49Z</time></trkpt><trkpt lat="31.84124801950354" lon="-6.112755993946592"><ele>1676.0</ele><time>2026-05-04T10:59:50Z</time></trkpt><trkpt lat="31.841134550382115" lon="-6.112884697065122"><ele>1676.0</ele><time>2026-05-04T10:59:51Z</time></trkpt><trkpt lat="31.841023953771415" lon="-6.113023023011867"><ele>1676.0</ele><time>2026-05-04T10:59:52Z</time></trkpt><trkpt lat="31.840912556608707" lon="-6.113166633344847"><ele>1679.0</ele><time>2026-05-04T10:59:53Z</time></trkpt><trkpt lat="31.840831126858824" lon="-6.113341571968133"><ele>1682.0</ele><time>2026-05-04T10:59:54Z</time></trkpt><trkpt lat="31.840719510364483" lon="-6.1134729496320315"><ele>1685.0</ele><time>2026-05-04T10:59:55Z</time></trkpt><trkpt lat="31.840604473382253" lon="-6.113593980579419"><ele>1685.0</ele><time>2026-05-04T10:59:56Z</time></trkpt><trkpt lat="31.840492420415757" lon="-6.11370619614697"><ele>1685.0</ele><time>2026-05-04T10:59:57Z</time></trkpt><trkpt lat="31.840369936887075" lon="-6.113802451675226"><ele>1685.0</ele><time>2026-05-04T10:59:58Z</time></trkpt><trkpt lat="31.840237452047585" lon="-6.113877671888373"><ele>1685.0</ele><time>2026-05-04T10:59:59Z</time></trkpt><trkpt lat="31.840109191547228" lon="-6.113949716159714"><ele>1683.25</ele><time>2026-05-04T11:00:00Z</time></trkpt><trkpt lat="31.83998149740865" lon="-6.11401971625711"><ele>1681.5</ele><time>2026-05-04T11:00:01Z</time></trkpt><trkpt lat="31.83985054931971" lon="-6.114084009583922"><ele>1679.75</ele><time>2026-05-04T11:00:02Z</time></trkpt><trkpt lat="31.839709367819975" lon="-6.114124663206717"><ele>1678.0</ele><time>2026-05-04T11:00:03Z</time></trkpt><trkpt lat="31.839569326926025" lon="-6.114141940974806"><ele>1684.2</ele><time>2026-05-04T11:00:04Z</time></trkpt><trkpt lat="31.839437258883084" lon="-6.114142776913448"><ele>1690.4</ele><time>2026-05-04T11:00:05Z</time></trkpt><trkpt lat="31.83932135557874" lon="-6.114155742026388"><ele>1696.6000000000001</ele><time>2026-05-04T11:00:06Z</time></trkpt><trkpt lat="31.83922573093402" lon="-6.114156694873415"><ele>1702.8000000000002</ele><time>2026-05-04T11:00:07Z</time></trkpt><trkpt lat="31.839151245495692" lon="-6.11415966958696"><ele>1709.0</ele><time>2026-05-04T11:00:08Z</time></trkpt><trkpt lat="31.839107027419974" lon="-6.114074416861485"><ele>1708.3333333333333</ele><time>2026-05-04T11:00:09Z</time></trkpt><trkpt lat="31.839098747767398" lon="-6.113988317482408"><ele>1707.6666666666665</ele><time>2026-05-04T11:00:10Z</time></trkpt><trkpt lat="31.839127265831987" lon="-6.1138848658458045"><ele>1707.0</ele><time>2026-05-04T11:00:11Z</time></trkpt><trkpt lat="31.83915915710818" lon="-6.113789277342502"><ele>1706.3333333333335</ele><time>2026-05-04T11:00:12Z</time></trkpt><trkpt lat="31.839175140714563" lon="-6.1136823242847536"><ele>1705.6666666666667</ele><time>2026-05-04T11:00:13Z</time></trkpt><trkpt lat="31.839165977120395" lon="-6.113561030354665"><ele>1705.0</ele><time>2026-05-04T11:00:14Z</time></trkpt><trkpt lat="31.839137581901966" lon="-6.113434937666951"><ele>1705.0</ele><time>2026-05-04T11:00:15Z</time></trkpt><trkpt lat="31.839113439211527" lon="-6.113305183825912"><ele>1705.0</ele><time>2026-05-04T11:00:16Z</time></trkpt><trkpt lat="31.839091450382266" lon="-6.113183916832171"><ele>1705.0</ele><time>2026-05-04T11:00:17Z</time></trkpt><trkpt lat="31.839063606171415" lon="-6.113063836994353"><ele>1705.0</ele><time>2026-05-04T11:00:18Z</time></trkpt><trkpt lat="31.839006447353515" lon="-6.1129463976330465"><ele>1705.0</ele><time>2026-05-04T11:00:19Z</time></trkpt><trkpt lat="31.838958064361638" lon="-6.112817331132584"><ele>1703.5</ele><time>2026-05-04T11:00:20Z</time></trkpt><trkpt lat="31.838920064401126" lon="-6.11267701764086"><ele>1702.0</ele><time>2026-05-04T11:00:21Z</time></trkpt><trkpt lat="31.83886521698143" lon="-6.112544871632161"><ele>1700.5</ele><time>2026-05-04T11:00:22Z</time></trkpt><trkpt lat="31.838813540110785" lon="-6.112415067135127"><ele>1699.0</ele><time>2026-05-04T11:00:23Z</time></trkpt><trkpt lat="31.838756481386643" lon="-6.112276617862009"><ele>1698.25</ele><time>2026-05-04T11:00:24Z</time></trkpt><trkpt lat="31.838698525418945" lon="-6.112140148302602"><ele>1697.5</ele><time>2026-05-04T11:00:25Z</time></trkpt><trkpt lat="31.83863799857716" lon="-6.112001443576274"><ele>1696.75</ele><time>2026-05-04T11:00:26Z</time></trkpt><trkpt lat="31.838579461438616" lon="-6.111858751380392"><ele>1696.0</ele><time>2026-05-04T11:00:27Z</time></trkpt><trkpt lat="31.83852084825871" lon="-6.1117183393737"><ele>1702.0</ele><time>2026-05-04T11:00:28Z</time></trkpt><trkpt lat="31.838459116647584" lon="-6.11157678717842"><ele>1708.0</ele><time>2026-05-04T11:00:29Z</time></trkpt><trkpt lat="31.8383965707431" lon="-6.111433837758054"><ele>1714.0</ele><time>2026-05-04T11:00:30Z</time></trkpt><trkpt lat="31.838338951887746" lon="-6.111288358409495"><ele>1720.0</ele><time>2026-05-04T11:00:31Z</time></trkpt><trkpt lat="31.838281320101444" lon="-6.111143277005529"><ele>1720.0</ele><time>2026-05-04T11:00:32Z</time></trkpt><trkpt lat="31.83822105019974" lon="-6.111000772530342"><ele>1720.0</ele><time>2026-05-04T11:00:33Z</time></trkpt><trkpt lat="31.838155735159535" lon="-6.110862330228326"><ele>1720.0</ele><time>2026-05-04T11:00:34Z</time></trkpt><trkpt lat="31.838092069187947" lon="-6.110730348590923"><ele>1720.0</ele><time>2026-05-04T11:00:35Z</time></trkpt><trkpt lat="31.838038376327443" lon="-6.1106135053527995"><ele>1715.4</ele><time>2026-05-04T11:00:36Z</time></trkpt><trkpt lat="31.837989249412544" lon="-6.110514917588255"><ele>1710.8</ele><time>2026-05-04T11:00:37Z</time></trkpt><trkpt lat="31.837904625658897" lon="-6.1104707779754746"><ele>1706.1999999999998</ele><time>2026-05-04T11:00:38Z</time></trkpt><trkpt lat="31.83783077675253" lon="-6.110401419508057"><ele>1701.6</ele><time>2026-05-04T11:00:39Z</time></trkpt><trkpt lat="31.837733309935558" lon="-6.110379924099436"><ele>1697.0</ele><time>2026-05-04T11:00:40Z</time></trkpt><trkpt lat="31.83763649685011" lon="-6.110329642635264"><ele>1702.3999999999999</ele><time>2026-05-04T11:00:41Z</time></trkpt><trkpt lat="31.837531582042843" lon="-6.110297340822315"><ele>1707.8</ele><time>2026-05-04T11:00:42Z</time></trkpt><trkpt lat="31.8374272065512" lon="-6.110265807140074"><ele>1713.2</ele><time>2026-05-04T11:00:43Z</time></trkpt><trkpt lat="31.837329693118253" lon="-6.110231867995507"><ele>1718.6</ele><time>2026-05-04T11:00:44Z</time></trkpt><trkpt lat="31.837225517206203" lon="-6.110211201168995"><ele>1724.0</ele><time>2026-05-04T11:00:45Z</time></trkpt><trkpt lat="31.837132998725387" lon="-6.110250259418761"><ele>1724.0</ele><time>2026-05-04T11:00:46Z</time></trkpt><trkpt lat="31.837043058806856" lon="-6.1102708702788"><ele>1724.0</ele><time>2026-05-04T11:00:47Z</time></trkpt><trkpt lat="31.836967364815095" lon="-6.110333305706605"><ele>1724.0</ele><time>2026-05-04T11:00:48Z</time></trkpt><trkpt lat="31.8369071621789" lon="-6.110412950603792"><ele>1724.0</ele><time>2026-05-04T11:00:49Z</time></trkpt><trkpt lat="31.83685502835468" lon="-6.110501363635848"><ele>1724.0</ele><time>2026-05-04T11:00:50Z</time></trkpt><trkpt lat="31.83681035514586" lon="-6.110585931175017"><ele>1722.8333333333333</ele><time>2026-05-04T11:00:51Z</time></trkpt><trkpt lat="31.836769956763458" lon="-6.110673325615858"><ele>1721.6666666666665</ele><time>2026-05-04T11:00:52Z</time></trkpt><trkpt lat="31.83673128736487" lon="-6.11075948271008"><ele>1720.5</ele><time>2026-05-04T11:00:53Z</time></trkpt><trkpt lat="31.836693563333682" lon="-6.1108486328227265"><ele>1719.3333333333335</ele><time>2026-05-04T11:00:54Z</time></trkpt><trkpt lat="31.836655026609428" lon="-6.110938703417104"><ele>1718.1666666666667</ele><time>2026-05-04T11:00:55Z</time></trkpt><trkpt lat="31.836613808781777" lon="-6.111030999739207"><ele>1717.0</ele><time>2026-05-04T11:00:56Z</time></trkpt><trkpt lat="31.83657439743719" lon="-6.111126056042217"><ele>1720.5000000000002</ele><time>2026-05-04T11:00:57Z</time></trkpt><trkpt lat="31.836532476343734" lon="-6.111220021827572"><ele>1724.0</ele><time>2026-05-04T11:00:58Z</time></trkpt><trkpt lat="31.836492198608752" lon="-6.1113120030920465"><ele>1727.5</ele><time>2026-05-04T11:00:59Z</time></trkpt><trkpt lat="31.83645018388155" lon="-6.111400623460763"><ele>1731.0</ele><time>2026-05-04T11:01:00Z</time></trkpt><trkpt lat="31.83642617269444" lon="-6.111492764296378"><ele>1734.5000000000002</ele><time>2026-05-04T11:01:01Z</time></trkpt><trkpt lat="31.836391544658806" lon="-6.111582904405042"><ele>1738.0</ele><time>2026-05-04T11:01:02Z</time></trkpt><trkpt lat="31.836355646650706" lon="-6.111677203590658"><ele>1743.2</ele><time>2026-05-04T11:01:03Z</time></trkpt><trkpt lat="31.836317938261654" lon="-6.111774680258485"><ele>1748.4</ele><time>2026-05-04T11:01:04Z</time></trkpt><trkpt lat="31.83627941220557" lon="-6.111873653107063"><ele>1753.6000000000001</ele><time>2026-05-04T11:01:05Z</time></trkpt><trkpt lat="31.836229622878932" lon="-6.111978829550195"><ele>1758.8000000000002</ele><time>2026-05-04T11:01:06Z</time></trkpt><trkpt lat="31.836176356788496" lon="-6.112071281265291"><ele>1764.0</ele><time>2026-05-04T11:01:07Z</time></trkpt><trkpt lat="31.836119736129636" lon="-6.112170458364935"><ele>1764.0</ele><time>2026-05-04T11:01:08Z</time></trkpt><trkpt lat="31.836057486344362" lon="-6.11226561807437"><ele>1764.0</ele><time>2026-05-04T11:01:09Z</time></trkpt><trkpt lat="31.835996620293155" lon="-6.1123535846745645"><ele>1764.0</ele><time>2026-05-04T11:01:10Z</time></trkpt><trkpt lat="31.835907671009704" lon="-6.112418838113269"><ele>1764.0</ele><time>2026-05-04T11:01:11Z</time></trkpt><trkpt lat="31.835833739244535" lon="-6.112492808370124"><ele>1764.0</ele><time>2026-05-04T11:01:12Z</time></trkpt><trkpt lat="31.835761972353552" lon="-6.11255652666075"><ele>1762.4</ele><time>2026-05-04T11:01:13Z</time></trkpt><trkpt lat="31.835703289411676" lon="-6.112605173449989"><ele>1760.8000000000002</ele><time>2026-05-04T11:01:14Z</time></trkpt><trkpt lat="31.83565334517951" lon="-6.112713368551344"><ele>1759.1999999999998</ele><time>2026-05-04T11:01:16Z</time></trkpt><trkpt lat="31.835741948475505" lon="-6.112781811068363"><ele>1757.6</ele><time>2026-05-04T11:01:18Z</time></trkpt><trkpt lat="31.835849636558425" lon="-6.112704147917203"><ele>1756.0</ele><time>2026-05-04T11:01:20Z</time></trkpt><trkpt lat="31.835900016697316" lon="-6.1126465728337065"><ele>1756.0</ele><time>2026-05-04T11:01:21Z</time></trkpt><trkpt lat="31.835952023220916" lon="-6.112585329264777"><ele>1756.0</ele><time>2026-05-04T11:01:22Z</time></trkpt><trkpt lat="31.83600939231201" lon="-6.112524532957628"><ele>1756.0</ele><time>2026-05-04T11:01:23Z</time></trkpt><trkpt lat="31.83606626434527" lon="-6.112464004465253"><ele>1756.0</ele><time>2026-05-04T11:01:24Z</time></trkpt><trkpt lat="31.836119521717485" lon="-6.112405399007177"><ele>1756.0</ele><time>2026-05-04T11:01:25Z</time></trkpt><trkpt lat="31.836159295907386" lon="-6.112335778758791"><ele>1756.0</ele><time>2026-05-04T11:01:26Z</time></trkpt><trkpt lat="31.836217932456435" lon="-6.112289384449248"><ele>1756.0</ele><time>2026-05-04T11:01:27Z</time></trkpt><trkpt lat="31.836268589827025" lon="-6.112223317771988"><ele>1757.3333333333335</ele><time>2026-05-04T11:01:28Z</time></trkpt><trkpt lat="31.836317590163056" lon="-6.112155218794827"><ele>1758.6666666666667</ele><time>2026-05-04T11:01:29Z</time></trkpt><trkpt lat="31.836369444949394" lon="-6.112086124866833"><ele>1760.0</ele><time>2026-05-04T11:01:30Z</time></trkpt><trkpt lat="31.836419339748783" lon="-6.112007538954153"><ele>1761.3333333333335</ele><time>2026-05-04T11:01:31Z</time></trkpt><trkpt lat="31.83646871205283" lon="-6.11193294204774"><ele>1762.6666666666667</ele><time>2026-05-04T11:01:32Z</time></trkpt><trkpt lat="31.836519980315067" lon="-6.111853883470154"><ele>1764.0</ele><time>2026-05-04T11:01:33Z</time></trkpt><trkpt lat="31.836571348715367" lon="-6.111775645070412"><ele>1764.0</ele><time>2026-05-04T11:01:34Z</time></trkpt><trkpt lat="31.8366318121915" lon="-6.111702202239098"><ele>1764.0</ele><time>2026-05-04T11:01:35Z</time></trkpt><trkpt lat="31.836689595058523" lon="-6.111627578669952"><ele>1764.0</ele><time>2026-05-04T11:01:36Z</time></trkpt><trkpt lat="31.836744515463742" lon="-6.111558224046715"><ele>1764.0</ele><time>2026-05-04T11:01:37Z</time></trkpt><trkpt lat="31.83679985664135" lon="-6.111494466068624"><ele>1764.0</ele><time>2026-05-04T11:01:38Z</time></trkpt><trkpt lat="31.83685731227801" lon="-6.111435523345688"><ele>1764.0</ele><time>2026-05-04T11:01:39Z</time></trkpt><trkpt lat="31.836934286398744" lon="-6.111356893806568"><ele>1761.8000000000002</ele><time>2026-05-04T11:01:41Z</time></trkpt><trkpt lat="31.837028884209726" lon="-6.111360282779598"><ele>1759.6000000000001</ele><time>2026-05-04T11:02:14Z</time></trkpt><trkpt lat="31.83711731481738" lon="-6.11143995567015"><ele>1757.4</ele><time>2026-05-04T11:02:16Z</time></trkpt><trkpt lat="31.83712097541584" lon="-6.111531205367694"><ele>1755.2</ele><time>2026-05-04T11:02:17Z</time></trkpt><trkpt lat="31.837106757828817" lon="-6.111642255856655"><ele>1753.0</ele><time>2026-05-04T11:02:18Z</time></trkpt><trkpt lat="31.837122200615646" lon="-6.111761903943745"><ele>1753.0</ele><time>2026-05-04T11:02:19Z</time></trkpt><trkpt lat="31.83712909123228" lon="-6.11188425374357"><ele>1753.0</ele><time>2026-05-04T11:02:20Z</time></trkpt><trkpt lat="31.83713808730052" lon="-6.11202788532337"><ele>1753.0</ele><time>2026-05-04T11:02:21Z</time></trkpt><trkpt lat="31.837150236892125" lon="-6.112177517204571"><ele>1753.0</ele><time>2026-05-04T11:02:22Z</time></trkpt><trkpt lat="31.83715975049162" lon="-6.112324202290687"><ele>1755.25</ele><time>2026-05-04T11:02:23Z</time></trkpt><trkpt lat="31.837168386952804" lon="-6.112474832306966"><ele>1757.5</ele><time>2026-05-04T11:02:24Z</time></trkpt><trkpt lat="31.83717743044379" lon="-6.112630504252056"><ele>1759.75</ele><time>2026-05-04T11:02:25Z</time></trkpt><trkpt lat="31.837168532559666" lon="-6.112795486870402"><ele>1762.0</ele><time>2026-05-04T11:02:26Z</time></trkpt><trkpt lat="31.837161614443726" lon="-6.112958285073964"><ele>1762.0</ele><time>2026-05-04T11:02:27Z</time></trkpt><trkpt lat="31.837155050370413" lon="-6.11312267219287"><ele>1762.0</ele><time>2026-05-04T11:02:28Z</time></trkpt><trkpt lat="31.837148508437103" lon="-6.113287200766599"><ele>1762.0</ele><time>2026-05-04T11:02:29Z</time></trkpt><trkpt lat="31.837141137627853" lon="-6.113452000811069"><ele>1762.0</ele><time>2026-05-04T11:02:30Z</time></trkpt><trkpt lat="31.837134018620375" lon="-6.113611171208384"><ele>1763.75</ele><time>2026-05-04T11:02:31Z</time></trkpt><trkpt lat="31.837143436554825" lon="-6.113759567350755"><ele>1765.5</ele><time>2026-05-04T11:02:32Z</time></trkpt><trkpt lat="31.837151458284524" lon="-6.11389716870593"><ele>1767.25</ele><time>2026-05-04T11:02:33Z</time></trkpt><trkpt lat="31.837188849012584" lon="-6.1140182254311375"><ele>1769.0</ele><time>2026-05-04T11:02:34Z</time></trkpt><trkpt lat="31.837258264213226" lon="-6.114111099578097"><ele>1771.4</ele><time>2026-05-04T11:02:35Z</time></trkpt><trkpt lat="31.837340968592198" lon="-6.114183266793321"><ele>1773.8000000000002</ele><time>2026-05-04T11:02:36Z</time></trkpt><trkpt lat="31.83740868969325" lon="-6.114236399196562"><ele>1776.1999999999998</ele><time>2026-05-04T11:02:37Z</time></trkpt><trkpt lat="31.837428952400508" lon="-6.114309206300492"><ele>1778.6</ele><time>2026-05-04T11:02:38Z</time></trkpt><trkpt lat="31.837423056757164" lon="-6.114432034489226"><ele>1781.0</ele><time>2026-05-04T11:02:40Z</time></trkpt><trkpt lat="31.83731228201755" lon="-6.114471127703887"><ele>1781.0</ele><time>2026-05-04T11:02:41Z</time></trkpt><trkpt lat="31.837216784481242" lon="-6.114415161371558"><ele>1781.0</ele><time>2026-05-04T11:02:42Z</time></trkpt><trkpt lat="31.83713228533018" lon="-6.1143571522084095"><ele>1781.0</ele><time>2026-05-04T11:02:43Z</time></trkpt><trkpt lat="31.837054157116658" lon="-6.114268345642557"><ele>1781.0</ele><time>2026-05-04T11:02:44Z</time></trkpt><trkpt lat="31.836991384930997" lon="-6.114145797828214"><ele>1781.0</ele><time>2026-05-04T11:02:45Z</time></trkpt><trkpt lat="31.836936268969083" lon="-6.1140051611660065"><ele>1778.0</ele><time>2026-05-04T11:02:46Z</time></trkpt><trkpt lat="31.836889993576573" lon="-6.113855050537978"><ele>1775.0</ele><time>2026-05-04T11:02:47Z</time></trkpt><trkpt lat="31.83684472313138" lon="-6.113706588494765"><ele>1772.0</ele><time>2026-05-04T11:02:48Z</time></trkpt><trkpt lat="31.836807794288386" lon="-6.113561725517076"><ele>1769.0</ele><time>2026-05-04T11:02:49Z</time></trkpt><trkpt lat="31.83677807610462" lon="-6.113426736487637"><ele>1770.9999999999998</ele><time>2026-05-04T11:02:50Z</time></trkpt><trkpt lat="31.836735930805826" lon="-6.113312360145354"><ele>1773.0</ele><time>2026-05-04T11:02:51Z</time></trkpt><trkpt lat="31.836707912305737" lon="-6.1132152520514484"><ele>1775.0</ele><time>2026-05-04T11:02:52Z</time></trkpt><trkpt lat="31.836684400156063" lon="-6.113142568727985"><ele>1777.0</ele><time>2026-05-04T11:02:53Z</time></trkpt><trkpt lat="31.836592101102024" lon="-6.113121781538172"><ele>1778.9999999999998</ele><time>2026-05-04T11:02:55Z</time></trkpt><trkpt lat="31.83655586473053" lon="-6.113196774332507"><ele>1781.0</ele><time>2026-05-04T11:02:56Z</time></trkpt><trkpt lat="31.836552706910428" lon="-6.113284204414432"><ele>1783.8</ele><time>2026-05-04T11:02:57Z</time></trkpt><trkpt lat="31.836582127734854" lon="-6.113394201999545"><ele>1786.6</ele><time>2026-05-04T11:02:58Z</time></trkpt><trkpt lat="31.8366088580048" lon="-6.1135171663083225"><ele>1789.4</ele><time>2026-05-04T11:02:59Z</time></trkpt><trkpt lat="31.836635351069003" lon="-6.113641246369081"><ele>1792.2</ele><time>2026-05-04T11:03:00Z</time></trkpt><trkpt lat="31.836663616981106" lon="-6.113780122819237"><ele>1795.0</ele><time>2026-05-04T11:03:01Z</time></trkpt><trkpt lat="31.836689150074363" lon="-6.113933660704964"><ele>1797.5</ele><time>2026-05-04T11:03:02Z</time></trkpt><trkpt lat="31.8367163161984" lon="-6.114099926568109"><ele>1800.0</ele><time>2026-05-04T11:03:03Z</time></trkpt><trkpt lat="31.836757031443476" lon="-6.114257683111444"><ele>1802.5</ele><time>2026-05-04T11:03:04Z</time></trkpt><trkpt lat="31.836786635899774" lon="-6.114422549781149"><ele>1805.0</ele><time>2026-05-04T11:03:05Z</time></trkpt><trkpt lat="31.836769732945477" lon="-6.1145992486494904"><ele>1805.0</ele><time>2026-05-04T11:03:06Z</time></trkpt><trkpt lat="31.836749415073605" lon="-6.114774952239464"><ele>1805.0</ele><time>2026-05-04T11:03:07Z</time></trkpt><trkpt lat="31.83669705439002" lon="-6.1149451794431045"><ele>1805.0</ele><time>2026-05-04T11:03:08Z</time></trkpt><trkpt lat="31.8366658925192" lon="-6.11512730013897"><ele>1806.0</ele><time>2026-05-04T11:03:09Z</time></trkpt><trkpt lat="31.836667181208735" lon="-6.115294285048447"><ele>1807.0</ele><time>2026-05-04T11:03:10Z</time></trkpt><trkpt lat="31.836691038121227" lon="-6.115476067313467"><ele>1808.0</ele><time>2026-05-04T11:03:11Z</time></trkpt><trkpt lat="31.83671041563992" lon="-6.11566453213588"><ele>1809.0</ele><time>2026-05-04T11:03:12Z</time></trkpt><trkpt lat="31.836752449337595" lon="-6.1158446575407845"><ele>1810.0</ele><time>2026-05-04T11:03:13Z</time></trkpt><trkpt lat="31.836792778194397" lon="-6.116026884356598"><ele>1811.0</ele><time>2026-05-04T11:03:14Z</time></trkpt><trkpt lat="31.836818203616584" lon="-6.116204333416643"><ele>1814.3333333333333</ele><time>2026-05-04T11:03:15Z</time></trkpt><trkpt lat="31.836807926633895" lon="-6.116389659138083"><ele>1817.6666666666665</ele><time>2026-05-04T11:03:16Z</time></trkpt><trkpt lat="31.8367634585052" lon="-6.116581567615887"><ele>1821.0</ele><time>2026-05-04T11:03:17Z</time></trkpt><trkpt lat="31.83670772997125" lon="-6.116778224116438"><ele>1821.0</ele><time>2026-05-04T11:03:18Z</time></trkpt><trkpt lat="31.836656738010653" lon="-6.116977725633182"><ele>1821.0</ele><time>2026-05-04T11:03:19Z</time></trkpt><trkpt lat="31.836627559158227" lon="-6.117185794173705"><ele>1821.0</ele><time>2026-05-04T11:03:20Z</time></trkpt><trkpt lat="31.836562760131123" lon="-6.117382997226574"><ele>1826.3333333333335</ele><time>2026-05-04T11:03:21Z</time></trkpt><trkpt lat="31.8364714525756" lon="-6.117557438449225"><ele>1831.6666666666667</ele><time>2026-05-04T11:03:22Z</time></trkpt><trkpt lat="31.836348867803643" lon="-6.117717967848671"><ele>1837.0</ele><time>2026-05-04T11:03:23Z</time></trkpt><trkpt lat="31.83624689269349" lon="-6.117883625467915"><ele>1837.0</ele><time>2026-05-04T11:03:24Z</time></trkpt><trkpt lat="31.836162251319667" lon="-6.1180486530847755"><ele>1837.0</ele><time>2026-05-04T11:03:25Z</time></trkpt><trkpt lat="31.836089465514405" lon="-6.1181981355208634"><ele>1837.0</ele><time>2026-05-04T11:03:26Z</time></trkpt><trkpt lat="31.836026008288624" lon="-6.118336349841831"><ele>1837.0</ele><time>2026-05-04T11:03:27Z</time></trkpt><trkpt lat="31.835970605455277" lon="-6.118459013988629"><ele>1838.1999999999998</ele><time>2026-05-04T11:03:28Z</time></trkpt><trkpt lat="31.835875177519014" lon="-6.118540205294268"><ele>1839.3999999999999</ele><time>2026-05-04T11:03:29Z</time></trkpt><trkpt lat="31.835776326288645" lon="-6.118570093899496"><ele>1840.6000000000001</ele><time>2026-05-04T11:03:30Z</time></trkpt><trkpt lat="31.835667658508513" lon="-6.118505201240461"><ele>1841.8000000000002</ele><time>2026-05-04T11:03:31Z</time></trkpt><trkpt lat="31.835593629634705" lon="-6.118518991149555"><ele>1843.0</ele><time>2026-05-04T11:03:32Z</time></trkpt><trkpt lat="31.835487451408923" lon="-6.118602151846279"><ele>1843.0</ele><time>2026-05-04T11:03:34Z</time></trkpt><trkpt lat="31.835470367114628" lon="-6.118705128833306"><ele>1843.0000000000002</ele><time>2026-05-04T11:03:35Z</time></trkpt><trkpt lat="31.835500814837495" lon="-6.118809684353382"><ele>1843.0000000000002</ele><time>2026-05-04T11:03:36Z</time></trkpt><trkpt lat="31.835573760660413" lon="-6.118893993681861"><ele>1843.0</ele><time>2026-05-04T11:03:37Z</time></trkpt><trkpt lat="31.835680687551953" lon="-6.118938140911632"><ele>1843.0</ele><time>2026-05-04T11:03:38Z</time></trkpt><trkpt lat="31.835793546401703" lon="-6.1189478126375985"><ele>1843.0</ele><time>2026-05-04T11:03:39Z</time></trkpt><trkpt lat="31.835906129188903" lon="-6.118970593617679"><ele>1843.0</ele><time>2026-05-04T11:03:40Z</time></trkpt><trkpt lat="31.836015670002396" lon="-6.119035140142756"><ele>1843.0</ele><time>2026-05-04T11:03:41Z</time></trkpt><trkpt lat="31.836102948180063" lon="-6.11915437169615"><ele>1843.0</ele><time>2026-05-04T11:03:42Z</time></trkpt><trkpt lat="31.83617340976638" lon="-6.119296656048106"><ele>1848.0</ele><time>2026-05-04T11:03:43Z</time></trkpt><trkpt lat="31.8362428314447" lon="-6.119439422795273"><ele>1853.0</ele><time>2026-05-04T11:03:44Z</time></trkpt><trkpt lat="31.836305815744478" lon="-6.11958057929628"><ele>1858.0</ele><time>2026-05-04T11:03:45Z</time></trkpt><trkpt lat="31.836393305193045" lon="-6.119714063813218"><ele>1863.0</ele><time>2026-05-04T11:03:46Z</time></trkpt><trkpt lat="31.836497803082402" lon="-6.119824406954647"><ele>1862.75</ele><time>2026-05-04T11:03:47Z</time></trkpt><trkpt lat="31.83660898978197" lon="-6.11992870824305"><ele>1862.5</ele><time>2026-05-04T11:03:48Z</time></trkpt><trkpt lat="31.836685733599886" lon="-6.120069953051424"><ele>1862.25</ele><time>2026-05-04T11:03:49Z</time></trkpt><trkpt lat="31.836737937788808" lon="-6.120233668095772"><ele>1862.0</ele><time>2026-05-04T11:03:50Z</time></trkpt><trkpt lat="31.836784055087797" lon="-6.1204057609972"><ele>1869.75</ele><time>2026-05-04T11:03:51Z</time></trkpt><trkpt lat="31.836832315342953" lon="-6.120580610696946"><ele>1877.5</ele><time>2026-05-04T11:03:52Z</time></trkpt><trkpt lat="31.836877778048795" lon="-6.120749178350836"><ele>1885.25</ele><time>2026-05-04T11:03:53Z</time></trkpt><trkpt lat="31.836915124265964" lon="-6.120906394905958"><ele>1893.0</ele><time>2026-05-04T11:03:54Z</time></trkpt><trkpt lat="31.83695468720485" lon="-6.121075232902805"><ele>1893.3333333333335</ele><time>2026-05-04T11:03:55Z</time></trkpt><trkpt lat="31.837005245774037" lon="-6.121250025829593"><ele>1893.6666666666667</ele><time>2026-05-04T11:03:56Z</time></trkpt><trkpt lat="31.837062083967506" lon="-6.12143213646135"><ele>1894.0</ele><time>2026-05-04T11:03:57Z</time></trkpt><trkpt lat="31.83712390176747" lon="-6.121612376846663"><ele>1891.6666666666667</ele><time>2026-05-04T11:03:58Z</time></trkpt><trkpt lat="31.83720365963666" lon="-6.121790729021454"><ele>1889.3333333333335</ele><time>2026-05-04T11:03:59Z</time></trkpt><trkpt lat="31.83729486386994" lon="-6.121970615915"><ele>1887.0</ele><time>2026-05-04T11:04:00Z</time></trkpt><trkpt lat="31.83738302039691" lon="-6.122144127005681"><ele>1887.0</ele><time>2026-05-04T11:04:01Z</time></trkpt><trkpt lat="31.837460921530504" lon="-6.122315850183702"><ele>1887.0</ele><time>2026-05-04T11:04:02Z</time></trkpt><trkpt lat="31.837526387361166" lon="-6.122471613913729"><ele>1887.0</ele><time>2026-05-04T11:04:03Z</time></trkpt><trkpt lat="31.837612487529423" lon="-6.122601794981661"><ele>1893.75</ele><time>2026-05-04T11:04:04Z</time></trkpt><trkpt lat="31.83771429148312" lon="-6.1227015658064055"><ele>1900.5</ele><time>2026-05-04T11:04:05Z</time></trkpt><trkpt lat="31.837817712709683" lon="-6.122776226372466"><ele>1907.25</ele><time>2026-05-04T11:04:06Z</time></trkpt><trkpt lat="31.837894410331817" lon="-6.122867007965961"><ele>1914.0</ele><time>2026-05-04T11:04:07Z</time></trkpt><trkpt lat="31.83794790664996" lon="-6.123013473184734"><ele>1914.0</ele><time>2026-05-04T11:04:08Z</time></trkpt><trkpt lat="31.837947640965115" lon="-6.123180408238492"><ele>1914.0</ele><time>2026-05-04T11:04:09Z</time></trkpt><trkpt lat="31.837927561680107" lon="-6.123343927478379"><ele>1914.0</ele><time>2026-05-04T11:04:10Z</time></trkpt><trkpt lat="31.837899485602673" lon="-6.123521737917077"><ele>1914.0</ele><time>2026-05-04T11:04:11Z</time></trkpt><trkpt lat="31.83786471964389" lon="-6.1237066999826215"><ele>1913.6666666666665</ele><time>2026-05-04T11:04:12Z</time></trkpt><trkpt lat="31.83782857885917" lon="-6.123902928495345"><ele>1913.3333333333333</ele><time>2026-05-04T11:04:13Z</time></trkpt><trkpt lat="31.837793702500402" lon="-6.124092924232876"><ele>1913.0</ele><time>2026-05-04T11:04:14Z</time></trkpt><trkpt lat="31.83779541936045" lon="-6.124262140720972"><ele>1915.6666666666665</ele><time>2026-05-04T11:04:15Z</time></trkpt><trkpt lat="31.837794825790766" lon="-6.124427851331461"><ele>1918.3333333333335</ele><time>2026-05-04T11:04:16Z</time></trkpt><trkpt lat="31.837834624521438" lon="-6.124640822727637"><ele>1921.0</ele><time>2026-05-04T11:04:17Z</time></trkpt><trkpt lat="31.837884331747727" lon="-6.124818875911878"><ele>1919.0</ele><time>2026-05-04T11:04:18Z</time></trkpt><trkpt lat="31.837955945380212" lon="-6.124987972144502"><ele>1917.0</ele><time>2026-05-04T11:04:19Z</time></trkpt><trkpt lat="31.83803771433844" lon="-6.125160645063612"><ele>1915.0</ele><time>2026-05-04T11:04:20Z</time></trkpt><trkpt lat="31.838129015007063" lon="-6.125328572824327"><ele>1915.0</ele><time>2026-05-04T11:04:21Z</time></trkpt><trkpt lat="31.838258111388875" lon="-6.125451521444895"><ele>1915.0</ele><time>2026-05-04T11:04:22Z</time></trkpt><trkpt lat="31.838388437875555" lon="-6.125551315349091"><ele>1915.0</ele><time>2026-05-04T11:04:23Z</time></trkpt><trkpt lat="31.838530155422383" lon="-6.12563784086047"><ele>1916.0</ele><time>2026-05-04T11:04:24Z</time></trkpt><trkpt lat="31.838668287839226" lon="-6.12570348681421"><ele>1917.0</ele><time>2026-05-04T11:04:25Z</time></trkpt><trkpt lat="31.838798796970266" lon="-6.125733473225393"><ele>1918.0</ele><time>2026-05-04T11:04:26Z</time></trkpt><trkpt lat="31.8389134004071" lon="-6.125783542520915"><ele>1919.0</ele><time>2026-05-04T11:04:27Z</time></trkpt><trkpt lat="31.83902919791746" lon="-6.12580551617419"><ele>1919.0</ele><time>2026-05-04T11:04:28Z</time></trkpt><trkpt lat="31.839126538809293" lon="-6.125841588434631"><ele>1919.0</ele><time>2026-05-04T11:04:29Z</time></trkpt><trkpt lat="31.83919765811578" lon="-6.125926573760857"><ele>1919.0</ele><time>2026-05-04T11:04:30Z</time></trkpt><trkpt lat="31.83925423923241" lon="-6.126045668190282"><ele>1919.0</ele><time>2026-05-04T11:04:30.999Z</time></trkpt><trkpt lat="31.839276136689595" lon="-6.126201485342163"><ele>1928.3333333333333</ele><time>2026-05-04T11:04:31.999Z</time></trkpt><trkpt lat="31.839333849800923" lon="-6.126360777283019"><ele>1937.6666666666665</ele><time>2026-05-04T11:04:32.999Z</time></trkpt><trkpt lat="31.839375232745763" lon="-6.126535197763241"><ele>1947.0</ele><time>2026-05-04T11:04:33.999Z</time></trkpt><trkpt lat="31.839372030485496" lon="-6.126724210858619"><ele>1947.0</ele><time>2026-05-04T11:04:34.999Z</time></trkpt><trkpt lat="31.839351445541077" lon="-6.126916061872802"><ele>1947.0</ele><time>2026-05-04T11:04:35.999Z</time></trkpt><trkpt lat="31.839328108952742" lon="-6.127113846151141"><ele>1947.0</ele><time>2026-05-04T11:04:36.999Z</time></trkpt><trkpt lat="31.839332911453116" lon="-6.127315921426272"><ele>1949.6666666666665</ele><time>2026-05-04T11:04:37.999Z</time></trkpt><trkpt lat="31.839349283789318" lon="-6.127509221347829"><ele>1952.3333333333333</ele><time>2026-05-04T11:04:39Z</time></trkpt><trkpt lat="31.83936182970709" lon="-6.127709456473934"><ele>1955.0</ele><time>2026-05-04T11:04:40Z</time></trkpt><trkpt lat="31.83937470451035" lon="-6.127911290087233"><ele>1955.0</ele><time>2026-05-04T11:04:41Z</time></trkpt><trkpt lat="31.839389190595373" lon="-6.1281149217196305"><ele>1955.0</ele><time>2026-05-04T11:04:42Z</time></trkpt><trkpt lat="31.839396122125763" lon="-6.128319297377182"><ele>1955.0</ele><time>2026-05-04T11:04:43Z</time></trkpt><trkpt lat="31.83938727298717" lon="-6.128524136435455"><ele>1957.0</ele><time>2026-05-04T11:04:44Z</time></trkpt><trkpt lat="31.839399222700163" lon="-6.1287258609219215"><ele>1959.0</ele><time>2026-05-04T11:04:45Z</time></trkpt><trkpt lat="31.839415049570196" lon="-6.128922328544199"><ele>1961.0</ele><time>2026-05-04T11:04:46Z</time></trkpt><trkpt lat="31.839418775178604" lon="-6.129089061914947"><ele>1962.5</ele><time>2026-05-04T11:04:47Z</time></trkpt><trkpt lat="31.83942422911313" lon="-6.129246590272911"><ele>1964.0</ele><time>2026-05-04T11:04:48Z</time></trkpt><trkpt lat="31.839395861602853" lon="-6.129416765694758"><ele>1965.5</ele><time>2026-05-04T11:04:49Z</time></trkpt><trkpt lat="31.83934472539149" lon="-6.129598611590337"><ele>1967.0</ele><time>2026-05-04T11:04:50Z</time></trkpt><trkpt lat="31.83932819137726" lon="-6.129772232223234"><ele>1962.3999999999999</ele><time>2026-05-04T11:04:51Z</time></trkpt><trkpt lat="31.839299295721467" lon="-6.129932266593621"><ele>1957.7999999999997</ele><time>2026-05-04T11:04:52Z</time></trkpt><trkpt lat="31.839270511853332" lon="-6.130059071006603"><ele>1953.2</ele><time>2026-05-04T11:04:53Z</time></trkpt><trkpt lat="31.839217752763076" lon="-6.130173554929045"><ele>1948.6</ele><time>2026-05-04T11:04:54Z</time></trkpt><trkpt lat="31.839179436231316" lon="-6.130239498190824"><ele>1944.0</ele><time>2026-05-04T11:04:55Z</time></trkpt><trkpt lat="31.839097869052065" lon="-6.130271727613372"><ele>1944.0</ele><time>2026-05-04T11:04:56Z</time></trkpt><trkpt lat="31.8389837437173" lon="-6.1301890796200995"><ele>1944.0</ele><time>2026-05-04T11:04:57Z</time></trkpt><trkpt lat="31.83895757338173" lon="-6.130073870199855"><ele>1944.0</ele><time>2026-05-04T11:04:58Z</time></trkpt><trkpt lat="31.838943542410732" lon="-6.129980851287154"><ele>1944.0</ele><time>2026-05-04T11:04:59Z</time></trkpt><trkpt lat="31.83892633210186" lon="-6.129882554080357"><ele>1944.0</ele><time>2026-05-04T11:05:00Z</time></trkpt><trkpt lat="31.838890610288857" lon="-6.129784471268531"><ele>1940.25</ele><time>2026-05-04T11:05:01Z</time></trkpt><trkpt lat="31.83884332311952" lon="-6.129679338405904"><ele>1936.5</ele><time>2026-05-04T11:05:02Z</time></trkpt><trkpt lat="31.838795693575804" lon="-6.129550712652742"><ele>1932.75</ele><time>2026-05-04T11:05:03Z</time></trkpt><trkpt lat="31.838744561831028" lon="-6.129418217537029"><ele>1929.0</ele><time>2026-05-04T11:05:04Z</time></trkpt><trkpt lat="31.83864569601413" lon="-6.129303290219965"><ele>1929.0</ele><time>2026-05-04T11:05:05Z</time></trkpt><trkpt lat="31.83854908372679" lon="-6.129183211307117"><ele>1929.0</ele><time>2026-05-04T11:05:06Z</time></trkpt><trkpt lat="31.83844699369964" lon="-6.129068521239388"><ele>1929.0</ele><time>2026-05-04T11:05:07Z</time></trkpt><trkpt lat="31.838335614367182" lon="-6.128960060415286"><ele>1929.0</ele><time>2026-05-04T11:05:08Z</time></trkpt><trkpt lat="31.83821630835919" lon="-6.128863257896895"><ele>1927.0</ele><time>2026-05-04T11:05:09Z</time></trkpt><trkpt lat="31.83806856606525" lon="-6.128817817589824"><ele>1925.0</ele><time>2026-05-04T11:05:10Z</time></trkpt><trkpt lat="31.83792273443135" lon="-6.128778905825097"><ele>1923.0</ele><time>2026-05-04T11:05:11Z</time></trkpt><trkpt lat="31.837767376629966" lon="-6.128737639957861"><ele>1927.6666666666665</ele><time>2026-05-04T11:05:12Z</time></trkpt><trkpt lat="31.837610121400136" lon="-6.128696286690212"><ele>1932.3333333333333</ele><time>2026-05-04T11:05:13Z</time></trkpt><trkpt lat="31.837450700559152" lon="-6.128654363938355"><ele>1937.0</ele><time>2026-05-04T11:05:14Z</time></trkpt><trkpt lat="31.837290987971166" lon="-6.128612092184846"><ele>1937.0</ele><time>2026-05-04T11:05:15Z</time></trkpt><trkpt lat="31.837136998450287" lon="-6.12857421444923"><ele>1937.0</ele><time>2026-05-04T11:05:16Z</time></trkpt><trkpt lat="31.836985572089265" lon="-6.12855100998419"><ele>1937.0</ele><time>2026-05-04T11:05:17Z</time></trkpt><trkpt lat="31.83684108076642" lon="-6.128547737989672"><ele>1938.5</ele><time>2026-05-04T11:05:18Z</time></trkpt><trkpt lat="31.836695235745907" lon="-6.128559805933012"><ele>1940.0</ele><time>2026-05-04T11:05:19Z</time></trkpt><trkpt lat="31.83656862502344" lon="-6.128661499523364"><ele>1941.5</ele><time>2026-05-04T11:05:20Z</time></trkpt><trkpt lat="31.83644695650645" lon="-6.128724404251272"><ele>1943.0</ele><time>2026-05-04T11:05:21Z</time></trkpt><trkpt lat="31.83632620181118" lon="-6.128763114338062"><ele>1943.0</ele><time>2026-05-04T11:05:22Z</time></trkpt><trkpt lat="31.836188989141704" lon="-6.128750901033569"><ele>1943.0</ele><time>2026-05-04T11:05:23Z</time></trkpt><trkpt lat="31.836058095711653" lon="-6.128677115991314"><ele>1943.0</ele><time>2026-05-04T11:05:24Z</time></trkpt><trkpt lat="31.835934057830748" lon="-6.128605736681546"><ele>1943.0</ele><time>2026-05-04T11:05:25Z</time></trkpt><trkpt lat="31.835805848055553" lon="-6.128557090948254"><ele>1946.25</ele><time>2026-05-04T11:05:26Z</time></trkpt><trkpt lat="31.835691081318494" lon="-6.128534238720645"><ele>1949.5</ele><time>2026-05-04T11:05:27Z</time></trkpt><trkpt lat="31.835580568875425" lon="-6.128513122357759"><ele>1952.75</ele><time>2026-05-04T11:05:28Z</time></trkpt><trkpt lat="31.83546412833708" lon="-6.128560767548034"><ele>1956.0</ele><time>2026-05-04T11:05:29Z</time></trkpt><trkpt lat="31.83535122827107" lon="-6.128639707623234"><ele>1956.0</ele><time>2026-05-04T11:05:30Z</time></trkpt><trkpt lat="31.835240225326555" lon="-6.1287256692302865"><ele>1956.0</ele><time>2026-05-04T11:05:31Z</time></trkpt><trkpt lat="31.835118110344894" lon="-6.128801585471306"><ele>1956.0</ele><time>2026-05-04T11:05:32Z</time></trkpt><trkpt lat="31.834986798547487" lon="-6.128864011013515"><ele>1956.0</ele><time>2026-05-04T11:05:33Z</time></trkpt><trkpt lat="31.834844923330824" lon="-6.128919087821368"><ele>1952.3333333333335</ele><time>2026-05-04T11:05:34Z</time></trkpt><trkpt lat="31.834699485770955" lon="-6.12897155165912"><ele>1948.6666666666667</ele><time>2026-05-04T11:05:35Z</time></trkpt><trkpt lat="31.83456160379227" lon="-6.129041975404965"><ele>1945.0</ele><time>2026-05-04T11:05:36Z</time></trkpt><trkpt lat="31.83444094355954" lon="-6.129143456585858"><ele>1948.75</ele><time>2026-05-04T11:05:37Z</time></trkpt><trkpt lat="31.834343736366463" lon="-6.129270891177972"><ele>1952.5</ele><time>2026-05-04T11:05:38Z</time></trkpt><trkpt lat="31.834261701892107" lon="-6.129404386145139"><ele>1956.25</ele><time>2026-05-04T11:05:39Z</time></trkpt><trkpt lat="31.834194290329688" lon="-6.129532902205846"><ele>1960.0</ele><time>2026-05-04T11:05:40Z</time></trkpt><trkpt lat="31.8341111205164" lon="-6.1296392619265765"><ele>1960.0</ele><time>2026-05-04T11:05:41Z</time></trkpt><trkpt lat="31.834008137810706" lon="-6.129727521768173"><ele>1960.0</ele><time>2026-05-04T11:05:42Z</time></trkpt><trkpt lat="31.833897327066335" lon="-6.129799330697033"><ele>1960.0</ele><time>2026-05-04T11:05:43Z</time></trkpt><trkpt lat="31.8337766138184" lon="-6.129843677900094"><ele>1960.0</ele><time>2026-05-04T11:05:44Z</time></trkpt><trkpt lat="31.833643614973493" lon="-6.129853254248237"><ele>1960.0</ele><time>2026-05-04T11:05:45Z</time></trkpt><trkpt lat="31.83350349032363" lon="-6.129833815904969"><ele>1960.0</ele><time>2026-05-04T11:05:46Z</time></trkpt><trkpt lat="31.833355347798566" lon="-6.129820080457534"><ele>1960.0</ele><time>2026-05-04T11:05:47Z</time></trkpt><trkpt lat="31.833198719094284" lon="-6.129837136200768"><ele>1960.0</ele><time>2026-05-04T11:05:48Z</time></trkpt><trkpt lat="31.833040359923153" lon="-6.1298848240306985"><ele>1969.0</ele><time>2026-05-04T11:05:49Z</time></trkpt><trkpt lat="31.83287905858707" lon="-6.129940324637605"><ele>1978.0</ele><time>2026-05-04T11:05:50Z</time></trkpt><trkpt lat="31.832722763992862" lon="-6.130017348481263"><ele>1987.0</ele><time>2026-05-04T11:05:51Z</time></trkpt><trkpt lat="31.832558450948984" lon="-6.130080940792035"><ele>1987.3333333333335</ele><time>2026-05-04T11:05:52Z</time></trkpt><trkpt lat="31.83240061712349" lon="-6.130142373071565"><ele>1987.6666666666665</ele><time>2026-05-04T11:05:53Z</time></trkpt><trkpt lat="31.832243972372325" lon="-6.130180763321145"><ele>1988.0</ele><time>2026-05-04T11:05:54Z</time></trkpt><trkpt lat="31.832118741008156" lon="-6.130293516571541"><ele>1988.0</ele><time>2026-05-04T11:05:55Z</time></trkpt><trkpt lat="31.831980123593052" lon="-6.130399807070153"><ele>1988.0</ele><time>2026-05-04T11:05:56Z</time></trkpt><trkpt lat="31.83185433829746" lon="-6.130510961313028"><ele>1988.0</ele><time>2026-05-04T11:05:57Z</time></trkpt><trkpt lat="31.83172272402183" lon="-6.130624429068174"><ele>1992.6666666666665</ele><time>2026-05-04T11:05:58Z</time></trkpt><trkpt lat="31.831592217257885" lon="-6.130734153035766"><ele>1997.3333333333335</ele><time>2026-05-04T11:05:59Z</time></trkpt><trkpt lat="31.831481957573363" lon="-6.13085963730082"><ele>2002.0</ele><time>2026-05-04T11:06:00Z</time></trkpt><trkpt lat="31.83136531741707" lon="-6.13097256139733"><ele>2002.0</ele><time>2026-05-04T11:06:01Z</time></trkpt><trkpt lat="31.83127172168081" lon="-6.131094954188175"><ele>2002.0</ele><time>2026-05-04T11:06:02Z</time></trkpt><trkpt lat="31.831182201764147" lon="-6.131213792334392"><ele>2002.0</ele><time>2026-05-04T11:06:03Z</time></trkpt><trkpt lat="31.831104212243144" lon="-6.131319044619274"><ele>2002.0</ele><time>2026-05-04T11:06:04Z</time></trkpt><trkpt lat="31.831018870684673" lon="-6.131406405240557"><ele>2001.8</ele><time>2026-05-04T11:06:05Z</time></trkpt><trkpt lat="31.830960684703733" lon="-6.13150803812902"><ele>2001.6</ele><time>2026-05-04T11:06:06Z</time></trkpt><trkpt lat="31.830922764988316" lon="-6.131616813273455"><ele>2001.3999999999999</ele><time>2026-05-04T11:06:07Z</time></trkpt><trkpt lat="31.830927833913638" lon="-6.131734878629202"><ele>2001.1999999999998</ele><time>2026-05-04T11:06:08Z</time></trkpt><trkpt lat="31.830980671017397" lon="-6.131850478579043"><ele>2001.0</ele><time>2026-05-04T11:06:09Z</time></trkpt><trkpt lat="31.831064281006974" lon="-6.131959881577378"><ele>2006.25</ele><time>2026-05-04T11:06:10Z</time></trkpt><trkpt lat="31.831150211864124" lon="-6.132081786859225"><ele>2011.5</ele><time>2026-05-04T11:06:11Z</time></trkpt><trkpt lat="31.831239946492293" lon="-6.132216719595605"><ele>2016.75</ele><time>2026-05-04T11:06:12Z</time></trkpt><trkpt lat="31.8313279917489" lon="-6.132365327220816"><ele>2022.0</ele><time>2026-05-04T11:06:13Z</time></trkpt><trkpt lat="31.831414023704067" lon="-6.132529720234326"><ele>2023.3333333333335</ele><time>2026-05-04T11:06:14Z</time></trkpt><trkpt lat="31.831495745196012" lon="-6.132706159404882"><ele>2024.6666666666667</ele><time>2026-05-04T11:06:15Z</time></trkpt><trkpt lat="31.831567044842892" lon="-6.132898718034222"><ele>2026.0</ele><time>2026-05-04T11:06:16Z</time></trkpt><trkpt lat="31.831621215005537" lon="-6.133094420977031"><ele>2022.0</ele><time>2026-05-04T11:06:17Z</time></trkpt><trkpt lat="31.831681324492266" lon="-6.1332939412209395"><ele>2018.0</ele><time>2026-05-04T11:06:18Z</time></trkpt><trkpt lat="31.83174701570597" lon="-6.1334932539679725"><ele>2014.0</ele><time>2026-05-04T11:06:19Z</time></trkpt><trkpt lat="31.831819206555554" lon="-6.1336899961869165"><ele>2025.6666666666667</ele><time>2026-05-04T11:06:20Z</time></trkpt><trkpt lat="31.831896969587657" lon="-6.1338905116771345"><ele>2037.3333333333335</ele><time>2026-05-04T11:06:21Z</time></trkpt><trkpt lat="31.83197599109058" lon="-6.134091407087297"><ele>2049.0</ele><time>2026-05-04T11:06:22Z</time></trkpt><trkpt lat="31.832056357749476" lon="-6.134295061383574"><ele>2049.0</ele><time>2026-05-04T11:06:23Z</time></trkpt><trkpt lat="31.832130592755007" lon="-6.134500669894393"><ele>2049.0</ele><time>2026-05-04T11:06:24Z</time></trkpt><trkpt lat="31.8321899747889" lon="-6.134707774599656"><ele>2049.0</ele><time>2026-05-04T11:06:25Z</time></trkpt><trkpt lat="31.83224443180605" lon="-6.134917610262574"><ele>2043.0</ele><time>2026-05-04T11:06:26Z</time></trkpt><trkpt lat="31.83231179030952" lon="-6.135122798535786"><ele>2037.0</ele><time>2026-05-04T11:06:27Z</time></trkpt><trkpt lat="31.832403893367918" lon="-6.135318380315041"><ele>2031.0</ele><time>2026-05-04T11:06:28Z</time></trkpt><trkpt lat="31.8325107148735" lon="-6.135504180809201"><ele>2031.0</ele><time>2026-05-04T11:06:29Z</time></trkpt><trkpt lat="31.83262044740401" lon="-6.135684947091637"><ele>2031.0</ele><time>2026-05-04T11:06:30Z</time></trkpt><trkpt lat="31.832727860243814" lon="-6.1358542068546456"><ele>2031.0</ele><time>2026-05-04T11:06:31Z</time></trkpt><trkpt lat="31.832822330059052" lon="-6.136024179532473"><ele>2037.3333333333335</ele><time>2026-05-04T11:06:32Z</time></trkpt><trkpt lat="31.832893312977873" lon="-6.136205025042258"><ele>2043.6666666666667</ele><time>2026-05-04T11:06:33Z</time></trkpt><trkpt lat="31.832928046640003" lon="-6.13639689800789"><ele>2050.0</ele><time>2026-05-04T11:06:34Z</time></trkpt><trkpt lat="31.83295331629097" lon="-6.136587621355101"><ele>2050.0</ele><time>2026-05-04T11:06:35Z</time></trkpt><trkpt lat="31.83299531157632" lon="-6.136776286347451"><ele>2050.0</ele><time>2026-05-04T11:06:36Z</time></trkpt><trkpt lat="31.833055044403245" lon="-6.136957777391653"><ele>2050.0</ele><time>2026-05-04T11:06:37Z</time></trkpt><trkpt lat="31.833121296738206" lon="-6.137130980409533"><ele>2050.0</ele><time>2026-05-04T11:06:38Z</time></trkpt><trkpt lat="31.833193446629288" lon="-6.137288981372196"><ele>2050.0</ele><time>2026-05-04T11:06:39Z</time></trkpt><trkpt lat="31.83326825235963" lon="-6.137424350935615"><ele>2050.0</ele><time>2026-05-04T11:06:40Z</time></trkpt><trkpt lat="31.833327979293376" lon="-6.137554373184835"><ele>2050.0</ele><time>2026-05-04T11:06:41Z</time></trkpt><trkpt lat="31.833374828347594" lon="-6.1376836985156515"><ele>2047.4</ele><time>2026-05-04T11:06:42Z</time></trkpt><trkpt lat="31.833412695836675" lon="-6.13780373677058"><ele>2044.8</ele><time>2026-05-04T11:06:43Z</time></trkpt><trkpt lat="31.83342807112447" lon="-6.1379092350937405"><ele>2042.1999999999998</ele><time>2026-05-04T11:06:44Z</time></trkpt><trkpt lat="31.833401481548833" lon="-6.13800475102382"><ele>2039.6</ele><time>2026-05-04T11:06:45Z</time></trkpt><trkpt lat="31.833357419550364" lon="-6.138084544347533"><ele>2037.0</ele><time>2026-05-04T11:06:46Z</time></trkpt><trkpt lat="31.833256187789324" lon="-6.138148881644076"><ele>2037.0</ele><time>2026-05-04T11:06:47Z</time></trkpt><trkpt lat="31.83311365649056" lon="-6.138145396840735"><ele>2037.0</ele><time>2026-05-04T11:06:48Z</time></trkpt><trkpt lat="31.8329845620663" lon="-6.138203402622053"><ele>2037.0</ele><time>2026-05-04T11:06:49Z</time></trkpt><trkpt lat="31.832853779511424" lon="-6.138253444302041"><ele>2037.0</ele><time>2026-05-04T11:06:50Z</time></trkpt><trkpt lat="31.832730288333345" lon="-6.138300749856231"><ele>2037.3333333333335</ele><time>2026-05-04T11:06:51Z</time></trkpt><trkpt lat="31.832587138112476" lon="-6.138339381858027"><ele>2037.6666666666667</ele><time>2026-05-04T11:06:52Z</time></trkpt><trkpt lat="31.832438127928373" lon="-6.138366598082123"><ele>2038.0</ele><time>2026-05-04T11:06:53Z</time></trkpt><trkpt lat="31.83228617095455" lon="-6.138400246143931"><ele>2038.0</ele><time>2026-05-04T11:06:54Z</time></trkpt><trkpt lat="31.832129617860907" lon="-6.138431841133374"><ele>2038.0</ele><time>2026-05-04T11:06:55Z</time></trkpt><trkpt lat="31.83198860840301" lon="-6.138470476093084"><ele>2038.0</ele><time>2026-05-04T11:06:56Z</time></trkpt><trkpt lat="31.831846612518394" lon="-6.138536908734507"><ele>2035.6666666666667</ele><time>2026-05-04T11:06:57Z</time></trkpt><trkpt lat="31.83171579912268" lon="-6.138619893245867"><ele>2033.3333333333335</ele><time>2026-05-04T11:06:58Z</time></trkpt><trkpt lat="31.831567583729036" lon="-6.138702186339545"><ele>2031.0</ele><time>2026-05-04T11:06:59Z</time></trkpt><trkpt lat="31.831436225138262" lon="-6.138803364739834"><ele>2031.0</ele><time>2026-05-04T11:07:00Z</time></trkpt><trkpt lat="31.831304705973697" lon="-6.1388997292649385"><ele>2031.0</ele><time>2026-05-04T11:07:01Z</time></trkpt><trkpt lat="31.831179986041832" lon="-6.13898802757533"><ele>2031.0</ele><time>2026-05-04T11:07:02Z</time></trkpt><trkpt lat="31.831076909803837" lon="-6.139105587006608"><ele>2031.0</ele><time>2026-05-04T11:07:03Z</time></trkpt><trkpt lat="31.83095224875836" lon="-6.139208874064401"><ele>2032.75</ele><time>2026-05-04T11:07:04Z</time></trkpt><trkpt lat="31.830844871409816" lon="-6.139344406392467"><ele>2034.5</ele><time>2026-05-04T11:07:05Z</time></trkpt><trkpt lat="31.83073840759657" lon="-6.1394768804031985"><ele>2036.25</ele><time>2026-05-04T11:07:06Z</time></trkpt><trkpt lat="31.83064763528218" lon="-6.139592928357089"><ele>2038.0</ele><time>2026-05-04T11:07:07Z</time></trkpt><trkpt lat="31.830573893343143" lon="-6.139724757538196"><ele>2038.0</ele><time>2026-05-04T11:07:08Z</time></trkpt><trkpt lat="31.830519770003104" lon="-6.139872042791022"><ele>2038.0</ele><time>2026-05-04T11:07:09Z</time></trkpt><trkpt lat="31.830487130430207" lon="-6.140033017022395"><ele>2038.0</ele><time>2026-05-04T11:07:10Z</time></trkpt><trkpt lat="31.83047063646216" lon="-6.140200145448545"><ele>2038.0</ele><time>2026-05-04T11:07:11Z</time></trkpt><trkpt lat="31.830469483528876" lon="-6.140366878978698"><ele>2043.25</ele><time>2026-05-04T11:07:12Z</time></trkpt><trkpt lat="31.830469342553737" lon="-6.140519200185622"><ele>2048.5</ele><time>2026-05-04T11:07:13Z</time></trkpt><trkpt lat="31.83051852869633" lon="-6.140685345748169"><ele>2053.75</ele><time>2026-05-04T11:07:14Z</time></trkpt><trkpt lat="31.83057607270372" lon="-6.14083678027969"><ele>2059.0</ele><time>2026-05-04T11:07:15Z</time></trkpt><trkpt lat="31.830652829216515" lon="-6.140974453946197"><ele>2059.5</ele><time>2026-05-04T11:07:16Z</time></trkpt><trkpt lat="31.830750879533078" lon="-6.141099490794898"><ele>2060.0</ele><time>2026-05-04T11:07:17Z</time></trkpt><trkpt lat="31.830865216274635" lon="-6.141208156566867"><ele>2060.5</ele><time>2026-05-04T11:07:18Z</time></trkpt><trkpt lat="31.83099649474661" lon="-6.141294869332823"><ele>2061.0</ele><time>2026-05-04T11:07:19Z</time></trkpt><trkpt lat="31.831130971276764" lon="-6.1413716073201154"><ele>2064.5</ele><time>2026-05-04T11:07:20Z</time></trkpt><trkpt lat="31.831268649507916" lon="-6.141449385487985"><ele>2068.0</ele><time>2026-05-04T11:07:21Z</time></trkpt><trkpt lat="31.83138782952619" lon="-6.141518911974258"><ele>2071.5</ele><time>2026-05-04T11:07:22Z</time></trkpt><trkpt lat="31.831502332577998" lon="-6.141579409430572"><ele>2075.0</ele><time>2026-05-04T11:07:23Z</time></trkpt><trkpt lat="31.831606683787363" lon="-6.141638376055817"><ele>2075.0</ele><time>2026-05-04T11:07:24Z</time></trkpt><trkpt lat="31.831691548462018" lon="-6.141690694900644"><ele>2075.0</ele><time>2026-05-04T11:07:25Z</time></trkpt><trkpt lat="31.83175226930584" lon="-6.141762454437997"><ele>2075.0</ele><time>2026-05-04T11:07:26Z</time></trkpt><trkpt lat="31.83177322683649" lon="-6.141896072813357"><ele>2075.0</ele><time>2026-05-04T11:07:28Z</time></trkpt><trkpt lat="31.831708789709918" lon="-6.1419629350705796"><ele>2075.0</ele><time>2026-05-04T11:07:29Z</time></trkpt><trkpt lat="31.831620737994424" lon="-6.142044529878637"><ele>2075.0</ele><time>2026-05-04T11:07:30Z</time></trkpt><trkpt lat="31.83149344935572" lon="-6.14207736233282"><ele>2075.0</ele><time>2026-05-04T11:07:31Z</time></trkpt><trkpt lat="31.831360908406072" lon="-6.142113615965395"><ele>2075.0</ele><time>2026-05-04T11:07:32Z</time></trkpt><trkpt lat="31.8312270210531" lon="-6.142160954648076"><ele>2075.0</ele><time>2026-05-04T11:07:33Z</time></trkpt><trkpt lat="31.831097311435606" lon="-6.142225880595294"><ele>2075.0</ele><time>2026-05-04T11:07:34Z</time></trkpt><trkpt lat="31.83095021921197" lon="-6.142298146895643"><ele>2075.0</ele><time>2026-05-04T11:07:35Z</time></trkpt><trkpt lat="31.830793117334313" lon="-6.142359263830172"><ele>2075.0</ele><time>2026-05-04T11:07:36Z</time></trkpt><trkpt lat="31.83063393814318" lon="-6.142426833962352"><ele>2075.0</ele><time>2026-05-04T11:07:37Z</time></trkpt><trkpt lat="31.830472497111867" lon="-6.142474845898468"><ele>2075.0</ele><time>2026-05-04T11:07:38Z</time></trkpt><trkpt lat="31.83030905998909" lon="-6.142531341289952"><ele>2075.0</ele><time>2026-05-04T11:07:39Z</time></trkpt><trkpt lat="31.830153991131795" lon="-6.1425996545740436"><ele>2067.333333333333</ele><time>2026-05-04T11:07:40Z</time></trkpt><trkpt lat="31.830001063549393" lon="-6.14268145740984"><ele>2059.6666666666665</ele><time>2026-05-04T11:07:41Z</time></trkpt><trkpt lat="31.829855600129452" lon="-6.142789201962322"><ele>2052.0</ele><time>2026-05-04T11:07:42Z</time></trkpt><trkpt lat="31.82972523461549" lon="-6.142925643256821"><ele>2052.0</ele><time>2026-05-04T11:07:43Z</time></trkpt><trkpt lat="31.82959934665035" lon="-6.143062001078363"><ele>2052.0</ele><time>2026-05-04T11:07:44Z</time></trkpt><trkpt lat="31.82944871481358" lon="-6.143158837772289"><ele>2052.0</ele><time>2026-05-04T11:07:45Z</time></trkpt><trkpt lat="31.829288693816636" lon="-6.143240812148826"><ele>2057.25</ele><time>2026-05-04T11:07:46Z</time></trkpt><trkpt lat="31.829139125946938" lon="-6.143304886704229"><ele>2062.5</ele><time>2026-05-04T11:07:47Z</time></trkpt><trkpt lat="31.82900962536835" lon="-6.143355240118142"><ele>2067.75</ele><time>2026-05-04T11:07:48Z</time></trkpt><trkpt lat="31.828911138683893" lon="-6.143424201508664"><ele>2073.0</ele><time>2026-05-04T11:07:49Z</time></trkpt><trkpt lat="31.8288141817649" lon="-6.143508508316187"><ele>2073.0</ele><time>2026-05-04T11:07:50Z</time></trkpt><trkpt lat="31.828750789756228" lon="-6.143642284117185"><ele>2073.0</ele><time>2026-05-04T11:07:51Z</time></trkpt><trkpt lat="31.828711035735385" lon="-6.143797973008911"><ele>2073.0</ele><time>2026-05-04T11:07:52Z</time></trkpt><trkpt lat="31.828696053204688" lon="-6.143960042703041"><ele>2073.0</ele><time>2026-05-04T11:07:53Z</time></trkpt><trkpt lat="31.82870837282445" lon="-6.144118573490694"><ele>2079.6666666666665</ele><time>2026-05-04T11:07:54Z</time></trkpt><trkpt lat="31.82874072456237" lon="-6.144279602014274"><ele>2086.333333333333</ele><time>2026-05-04T11:07:55Z</time></trkpt><trkpt lat="31.82880278094273" lon="-6.144443576159477"><ele>2093.0</ele><time>2026-05-04T11:07:56Z</time></trkpt><trkpt lat="31.82888020521261" lon="-6.144606524903889"><ele>2093.0</ele><time>2026-05-04T11:07:57Z</time></trkpt><trkpt lat="31.828954119314417" lon="-6.144759962334571"><ele>2093.0</ele><time>2026-05-04T11:07:58Z</time></trkpt><trkpt lat="31.829035516833418" lon="-6.144917081378082"><ele>2093.0</ele><time>2026-05-04T11:07:59Z</time></trkpt><trkpt lat="31.829120921167743" lon="-6.145081555666261"><ele>2091.333333333333</ele><time>2026-05-04T11:08:00Z</time></trkpt><trkpt lat="31.829214835273245" lon="-6.145242943213507"><ele>2089.6666666666665</ele><time>2026-05-04T11:08:01Z</time></trkpt><trkpt lat="31.829318871651218" lon="-6.145404322961482"><ele>2088.0</ele><time>2026-05-04T11:08:02Z</time></trkpt><trkpt lat="31.82943024147047" lon="-6.145566101214361"><ele>2096.0</ele><time>2026-05-04T11:08:03Z</time></trkpt><trkpt lat="31.8295475667529" lon="-6.145729701191318"><ele>2104.0</ele><time>2026-05-04T11:08:04Z</time></trkpt><trkpt lat="31.82966138782284" lon="-6.14589448173746"><ele>2112.0</ele><time>2026-05-04T11:08:05Z</time></trkpt><trkpt lat="31.82976795128718" lon="-6.146060849808469"><ele>2112.0</ele><time>2026-05-04T11:08:06Z</time></trkpt><trkpt lat="31.829867958316424" lon="-6.146228271139734"><ele>2112.0</ele><time>2026-05-04T11:08:07Z</time></trkpt><trkpt lat="31.829972082724748" lon="-6.146389482170582"><ele>2112.0</ele><time>2026-05-04T11:08:08Z</time></trkpt><trkpt lat="31.830084191766126" lon="-6.1465372001647065"><ele>2116.6666666666665</ele><time>2026-05-04T11:08:09Z</time></trkpt><trkpt lat="31.830200466594626" lon="-6.146675572507537"><ele>2121.333333333333</ele><time>2026-05-04T11:08:10Z</time></trkpt><trkpt lat="31.83032343500892" lon="-6.146809101118044"><ele>2126.0</ele><time>2026-05-04T11:08:11Z</time></trkpt><trkpt lat="31.830451168236266" lon="-6.146933940465"><ele>2126.0</ele><time>2026-05-04T11:08:12Z</time></trkpt><trkpt lat="31.830591338581648" lon="-6.1470505420711445"><ele>2126.0</ele><time>2026-05-04T11:08:13Z</time></trkpt><trkpt lat="31.830739951102544" lon="-6.147154194489855"><ele>2126.0</ele><time>2026-05-04T11:08:14Z</time></trkpt><trkpt lat="31.830898799473168" lon="-6.147245874278957"><ele>2126.333333333333</ele><time>2026-05-04T11:08:15Z</time></trkpt><trkpt lat="31.831062407053324" lon="-6.147333717742474"><ele>2126.6666666666665</ele><time>2026-05-04T11:08:16Z</time></trkpt><trkpt lat="31.83121456213526" lon="-6.147414146251941"><ele>2127.0</ele><time>2026-05-04T11:08:17Z</time></trkpt><trkpt lat="31.831353226203515" lon="-6.147483271332324"><ele>2127.0</ele><time>2026-05-04T11:08:18Z</time></trkpt><trkpt lat="31.831479108403457" lon="-6.147545769392412"><ele>2127.0</ele><time>2026-05-04T11:08:19Z</time></trkpt><trkpt lat="31.831594380046315" lon="-6.147599315928832"><ele>2127.0</ele><time>2026-05-04T11:08:20Z</time></trkpt><trkpt lat="31.831691971070008" lon="-6.147650893366407"><ele>2127.0</ele><time>2026-05-04T11:08:21Z</time></trkpt><trkpt lat="31.831757496948132" lon="-6.147702425516518"><ele>2127.0</ele><time>2026-05-04T11:08:22Z</time></trkpt><trkpt lat="31.83179168809513" lon="-6.147766846426931"><ele>2127.0</ele><time>2026-05-04T11:08:23Z</time></trkpt><trkpt lat="31.831800705387455" lon="-6.147842033041674"><ele>2127.0</ele><time>2026-05-04T11:08:24Z</time></trkpt><trkpt lat="31.83171034099855" lon="-6.147974640612473"><ele>2127.0</ele><time>2026-05-04T11:08:26Z</time></trkpt><trkpt lat="31.83164356859124" lon="-6.1480659431948705"><ele>2127.0</ele><time>2026-05-04T11:08:27Z</time></trkpt><trkpt lat="31.83158633581467" lon="-6.148159896473277"><ele>2127.0</ele><time>2026-05-04T11:08:28Z</time></trkpt><trkpt lat="31.831527241542886" lon="-6.148283322657245"><ele>2126.25</ele><time>2026-05-04T11:08:29Z</time></trkpt><trkpt lat="31.83148243814864" lon="-6.148422984177498"><ele>2125.5</ele><time>2026-05-04T11:08:30Z</time></trkpt><trkpt lat="31.831457242668957" lon="-6.148581601882269"><ele>2124.75</ele><time>2026-05-04T11:08:31Z</time></trkpt><trkpt lat="31.83145114162237" lon="-6.148737174437101"><ele>2124.0</ele><time>2026-05-04T11:08:32Z</time></trkpt><trkpt lat="31.831452337511266" lon="-6.148903010789328"><ele>2128.0</ele><time>2026-05-04T11:08:33Z</time></trkpt><trkpt lat="31.83145757662416" lon="-6.149075610192198"><ele>2132.0</ele><time>2026-05-04T11:08:34Z</time></trkpt><trkpt lat="31.831469272360984" lon="-6.149256936770083"><ele>2136.0</ele><time>2026-05-04T11:08:35Z</time></trkpt><trkpt lat="31.831483025967287" lon="-6.14944370654735"><ele>2136.0</ele><time>2026-05-04T11:08:36Z</time></trkpt><trkpt lat="31.831500774917583" lon="-6.149627884165849"><ele>2136.0</ele><time>2026-05-04T11:08:37Z</time></trkpt><trkpt lat="31.831528892727647" lon="-6.149801963709985"><ele>2136.0</ele><time>2026-05-04T11:08:38Z</time></trkpt><trkpt lat="31.831581924416536" lon="-6.149977431931983"><ele>2135.6666666666665</ele><time>2026-05-04T11:08:39Z</time></trkpt><trkpt lat="31.831652252303815" lon="-6.150148306072975"><ele>2135.333333333333</ele><time>2026-05-04T11:08:40Z</time></trkpt><trkpt lat="31.83173265388365" lon="-6.150316616597671"><ele>2135.0</ele><time>2026-05-04T11:08:41Z</time></trkpt><trkpt lat="31.831814188280106" lon="-6.150483594216197"><ele>2145.0</ele><time>2026-05-04T11:08:42Z</time></trkpt><trkpt lat="31.83189741204907" lon="-6.150655117321965"><ele>2155.0</ele><time>2026-05-04T11:08:43Z</time></trkpt><trkpt lat="31.8319727551701" lon="-6.150825343823819"><ele>2165.0</ele><time>2026-05-04T11:08:44Z</time></trkpt><trkpt lat="31.832039303650227" lon="-6.150977283018694"><ele>2165.0</ele><time>2026-05-04T11:08:45Z</time></trkpt><trkpt lat="31.832099767967826" lon="-6.151117752101019"><ele>2165.0</ele><time>2026-05-04T11:08:46Z</time></trkpt><trkpt lat="31.832157827314187" lon="-6.151251460128321"><ele>2165.0</ele><time>2026-05-04T11:08:47Z</time></trkpt><trkpt lat="31.83221083622703" lon="-6.151379961793284"><ele>2165.0</ele><time>2026-05-04T11:08:48Z</time></trkpt><trkpt lat="31.832255035184634" lon="-6.15149790551961"><ele>2163.1666666666665</ele><time>2026-05-04T11:08:49Z</time></trkpt><trkpt lat="31.832283162059483" lon="-6.151598904490928"><ele>2161.333333333333</ele><time>2026-05-04T11:08:50Z</time></trkpt><trkpt lat="31.832277887303107" lon="-6.15167772544344"><ele>2159.5</ele><time>2026-05-04T11:08:51Z</time></trkpt><trkpt lat="31.832232248727163" lon="-6.151744640100663"><ele>2157.6666666666665</ele><time>2026-05-04T11:08:52Z</time></trkpt><trkpt lat="31.83219244400932" lon="-6.1518259014729555"><ele>2155.8333333333335</ele><time>2026-05-04T11:08:53Z</time></trkpt><trkpt lat="31.832084356353754" lon="-6.151861267283903"><ele>2154.0</ele><time>2026-05-04T11:08:54Z</time></trkpt><trkpt lat="31.831936789874785" lon="-6.1517816133298835"><ele>2154.0</ele><time>2026-05-04T11:08:55Z</time></trkpt><trkpt lat="31.83181855218797" lon="-6.1517228098258405"><ele>2154.0</ele><time>2026-05-04T11:08:56Z</time></trkpt><trkpt lat="31.831694884760296" lon="-6.151656610767732"><ele>2154.0</ele><time>2026-05-04T11:08:57Z</time></trkpt><trkpt lat="31.83157380068119" lon="-6.151591489712557"><ele>2154.0</ele><time>2026-05-04T11:08:58Z</time></trkpt><trkpt lat="31.83144519943429" lon="-6.151521795409173"><ele>2146.6666666666665</ele><time>2026-05-04T11:08:59Z</time></trkpt><trkpt lat="31.831306662193093" lon="-6.15144266022033"><ele>2139.333333333333</ele><time>2026-05-04T11:09:00Z</time></trkpt><trkpt lat="31.83117180941261" lon="-6.151351893605052"><ele>2132.0</ele><time>2026-05-04T11:09:01Z</time></trkpt><trkpt lat="31.83103218999827" lon="-6.151250516582983"><ele>2135.0</ele><time>2026-05-04T11:09:02Z</time></trkpt><trkpt lat="31.83090362593683" lon="-6.151142940003568"><ele>2138.0</ele><time>2026-05-04T11:09:03Z</time></trkpt><trkpt lat="31.830775280506206" lon="-6.151048628765552"><ele>2141.0</ele><time>2026-05-04T11:09:04Z</time></trkpt><trkpt lat="31.830629867756837" lon="-6.150958217474633"><ele>2141.0</ele><time>2026-05-04T11:09:05Z</time></trkpt><trkpt lat="31.830487996896448" lon="-6.15085628080181"><ele>2141.0</ele><time>2026-05-04T11:09:06Z</time></trkpt><trkpt lat="31.83035875997169" lon="-6.150759604379505"><ele>2141.0</ele><time>2026-05-04T11:09:07Z</time></trkpt><trkpt lat="31.83024583033899" lon="-6.150641080994389"><ele>2140.75</ele><time>2026-05-04T11:09:08Z</time></trkpt><trkpt lat="31.83014417693842" lon="-6.150536338094812"><ele>2140.5</ele><time>2026-05-04T11:09:09Z</time></trkpt><trkpt lat="31.830046553811993" lon="-6.150434670335262"><ele>2140.25</ele><time>2026-05-04T11:09:10Z</time></trkpt><trkpt lat="31.82994924122715" lon="-6.15034031623309"><ele>2140.0</ele><time>2026-05-04T11:09:11Z</time></trkpt><trkpt lat="31.829858528062083" lon="-6.150260528911068"><ele>2140.0</ele><time>2026-05-04T11:09:12Z</time></trkpt><trkpt lat="31.82977082099562" lon="-6.150188847376918"><ele>2140.0</ele><time>2026-05-04T11:09:13Z</time></trkpt><trkpt lat="31.829667577421734" lon="-6.150173337793481"><ele>2140.0</ele><time>2026-05-04T11:09:14Z</time></trkpt><trkpt lat="31.82955583292836" lon="-6.1501399519181845"><ele>2140.0</ele><time>2026-05-04T11:09:15Z</time></trkpt><trkpt lat="31.829428260258428" lon="-6.150155943979918"><ele>2141.25</ele><time>2026-05-04T11:09:16Z</time></trkpt><trkpt lat="31.82929615765278" lon="-6.150183839746088"><ele>2142.5</ele><time>2026-05-04T11:09:17Z</time></trkpt><trkpt lat="31.829177714059565" lon="-6.150233972138791"><ele>2143.75</ele><time>2026-05-04T11:09:18Z</time></trkpt><trkpt lat="31.82907880602972" lon="-6.150314239203717"><ele>2145.0</ele><time>2026-05-04T11:09:19Z</time></trkpt><trkpt lat="31.829002300251044" lon="-6.150419174896455"><ele>2145.0</ele><time>2026-05-04T11:09:20Z</time></trkpt><trkpt lat="31.828944357244033" lon="-6.15055207738688"><ele>2145.0</ele><time>2026-05-04T11:09:21Z</time></trkpt><trkpt lat="31.828904351024917" lon="-6.150702171708229"><ele>2145.0</ele><time>2026-05-04T11:09:22Z</time></trkpt><trkpt lat="31.828895057450918" lon="-6.150872337535668"><ele>2145.0</ele><time>2026-05-04T11:09:23Z</time></trkpt><trkpt lat="31.828894823835995" lon="-6.15104135548093"><ele>2151.75</ele><time>2026-05-04T11:09:24Z</time></trkpt><trkpt lat="31.828895129561293" lon="-6.151187046692884"><ele>2158.5</ele><time>2026-05-04T11:09:25Z</time></trkpt><trkpt lat="31.82888487507106" lon="-6.151315791519153"><ele>2165.25</ele><time>2026-05-04T11:09:26Z</time></trkpt><trkpt lat="31.82885941311548" lon="-6.151443279693589"><ele>2172.0</ele><time>2026-05-04T11:09:27Z</time></trkpt><trkpt lat="31.828795720737162" lon="-6.151554982738577"><ele>2172.25</ele><time>2026-05-04T11:09:28Z</time></trkpt><trkpt lat="31.82868910892955" lon="-6.151634986464104"><ele>2172.5</ele><time>2026-05-04T11:09:29Z</time></trkpt><trkpt lat="31.828555943016102" lon="-6.151685075219583"><ele>2172.75</ele><time>2026-05-04T11:09:30Z</time></trkpt><trkpt lat="31.82842609990886" lon="-6.151768763969518"><ele>2173.0</ele><time>2026-05-04T11:09:31Z</time></trkpt><trkpt lat="31.828282340824913" lon="-6.151844700057335"><ele>2173.0</ele><time>2026-05-04T11:09:32Z</time></trkpt><trkpt lat="31.828131173458694" lon="-6.1519248938210955"><ele>2173.0</ele><time>2026-05-04T11:09:33Z</time></trkpt><trkpt lat="31.827979693666766" lon="-6.15200443859435"><ele>2173.0</ele><time>2026-05-04T11:09:34Z</time></trkpt><trkpt lat="31.827830747204054" lon="-6.1520607365854225"><ele>2173.0</ele><time>2026-05-04T11:09:35Z</time></trkpt><trkpt lat="31.827705629905292" lon="-6.1521362309498615"><ele>2173.0</ele><time>2026-05-04T11:09:36Z</time></trkpt><trkpt lat="31.82759419387645" lon="-6.152200145965426"><ele>2173.0</ele><time>2026-05-04T11:09:37Z</time></trkpt><trkpt lat="31.827494815090862" lon="-6.152263826023956"><ele>2173.0</ele><time>2026-05-04T11:09:38Z</time></trkpt><trkpt lat="31.827403442072345" lon="-6.152348266259973"><ele>2175.75</ele><time>2026-05-04T11:09:39Z</time></trkpt><trkpt lat="31.827319651648928" lon="-6.152465872988891"><ele>2178.5</ele><time>2026-05-04T11:09:40Z</time></trkpt><trkpt lat="31.827242547858734" lon="-6.1526028642333666"><ele>2181.25</ele><time>2026-05-04T11:09:41Z</time></trkpt><trkpt lat="31.82718771145742" lon="-6.152748002362105"><ele>2184.0</ele><time>2026-05-04T11:09:42Z</time></trkpt><trkpt lat="31.827157522128772" lon="-6.152897780929158"><ele>2184.0</ele><time>2026-05-04T11:09:43Z</time></trkpt><trkpt lat="31.82714304060254" lon="-6.153064021785944"><ele>2184.0</ele><time>2026-05-04T11:09:44Z</time></trkpt><trkpt lat="31.8271524555711" lon="-6.153244894742612"><ele>2184.0</ele><time>2026-05-04T11:09:45Z</time></trkpt><trkpt lat="31.827181484631407" lon="-6.153430290422354"><ele>2187.75</ele><time>2026-05-04T11:09:46Z</time></trkpt><trkpt lat="31.827235086722403" lon="-6.15359266229407"><ele>2191.5</ele><time>2026-05-04T11:09:47Z</time></trkpt><trkpt lat="31.827314082383943" lon="-6.153730839697931"><ele>2195.25</ele><time>2026-05-04T11:09:48Z</time></trkpt><trkpt lat="31.82741894414931" lon="-6.153854458137096"><ele>2199.0</ele><time>2026-05-04T11:09:49Z</time></trkpt><trkpt lat="31.827539985905293" lon="-6.153967125799334"><ele>2206.3333333333335</ele><time>2026-05-04T11:09:50Z</time></trkpt><trkpt lat="31.827673253822592" lon="-6.154084184957927"><ele>2213.666666666667</ele><time>2026-05-04T11:09:51Z</time></trkpt><trkpt lat="31.827808417406544" lon="-6.154198195376909"><ele>2221.0</ele><time>2026-05-04T11:09:52Z</time></trkpt><trkpt lat="31.827944598042755" lon="-6.154319561245631"><ele>2221.0</ele><time>2026-05-04T11:09:53Z</time></trkpt><trkpt lat="31.828082657928178" lon="-6.1544496492759055"><ele>2221.0</ele><time>2026-05-04T11:09:54Z</time></trkpt><trkpt lat="31.828219744247082" lon="-6.154590374444365"><ele>2221.0</ele><time>2026-05-04T11:09:55Z</time></trkpt><trkpt lat="31.828356701753652" lon="-6.154734246029188"><ele>2223.666666666667</ele><time>2026-05-04T11:09:56Z</time></trkpt><trkpt lat="31.828498598454473" lon="-6.1548765024615975"><ele>2226.3333333333335</ele><time>2026-05-04T11:09:57Z</time></trkpt><trkpt lat="31.828642523488394" lon="-6.155022147811039"><ele>2229.0</ele><time>2026-05-04T11:09:58Z</time></trkpt><trkpt lat="31.828788283186363" lon="-6.1551661057399985"><ele>2229.0</ele><time>2026-05-04T11:09:59Z</time></trkpt><trkpt lat="31.828935297809196" lon="-6.155302647295973"><ele>2229.0</ele><time>2026-05-04T11:10:00Z</time></trkpt><trkpt lat="31.82908382792746" lon="-6.155439883685387"><ele>2229.0</ele><time>2026-05-04T11:10:01Z</time></trkpt><trkpt lat="31.829228131026284" lon="-6.155582229147363"><ele>2232.3333333333335</ele><time>2026-05-04T11:10:02Z</time></trkpt><trkpt lat="31.82936929014448" lon="-6.155728990270757"><ele>2235.666666666667</ele><time>2026-05-04T11:10:03Z</time></trkpt><trkpt lat="31.82950383157861" lon="-6.1558822054588616"><ele>2239.0</ele><time>2026-05-04T11:10:04Z</time></trkpt><trkpt lat="31.829635243243725" lon="-6.156043254141158"><ele>2239.0</ele><time>2026-05-04T11:10:05Z</time></trkpt><trkpt lat="31.829759221587878" lon="-6.1562054414403145"><ele>2239.0</ele><time>2026-05-04T11:10:06Z</time></trkpt><trkpt lat="31.829873441930005" lon="-6.15637357446137"><ele>2239.0</ele><time>2026-05-04T11:10:07Z</time></trkpt><trkpt lat="31.829975350757945" lon="-6.156546632879955"><ele>2232.3333333333335</ele><time>2026-05-04T11:10:08Z</time></trkpt><trkpt lat="31.83007148202065" lon="-6.1567221645194845"><ele>2225.6666666666665</ele><time>2026-05-04T11:10:09Z</time></trkpt><trkpt lat="31.830160841623368" lon="-6.1568947122814235"><ele>2219.0</ele><time>2026-05-04T11:10:10Z</time></trkpt><trkpt lat="31.830239734250668" lon="-6.157054371528633"><ele>2227.0</ele><time>2026-05-04T11:10:11Z</time></trkpt><trkpt lat="31.830306598086704" lon="-6.157206039036282"><ele>2235.0</ele><time>2026-05-04T11:10:12Z</time></trkpt><trkpt lat="31.830363275117733" lon="-6.157337345503058"><ele>2243.0</ele><time>2026-05-04T11:10:13Z</time></trkpt><trkpt lat="31.830432552924712" lon="-6.157443345206921"><ele>2251.0</ele><time>2026-05-04T11:10:14Z</time></trkpt><trkpt lat="31.83050328281537" lon="-6.1575229503186195"><ele>2251.0</ele><time>2026-05-04T11:10:15Z</time></trkpt><trkpt lat="31.830536780551363" lon="-6.157598290627889"><ele>2251.0</ele><time>2026-05-04T11:10:16Z</time></trkpt><trkpt lat="31.830520481284893" lon="-6.157685834370018"><ele>2251.0</ele><time>2026-05-04T11:10:17Z</time></trkpt><trkpt lat="31.830486806163726" lon="-6.157765900393857"><ele>2251.0</ele><time>2026-05-04T11:10:18Z</time></trkpt><trkpt lat="31.830377622556863" lon="-6.157836615253877"><ele>2251.0</ele><time>2026-05-04T11:10:19Z</time></trkpt><trkpt lat="31.830257406047682" lon="-6.157862131864825"><ele>2251.0</ele><time>2026-05-04T11:10:20Z</time></trkpt><trkpt lat="31.830145864044184" lon="-6.157874064073177"><ele>2251.0</ele><time>2026-05-04T11:10:21Z</time></trkpt><trkpt lat="31.830025526811493" lon="-6.157891916476719"><ele>2251.0</ele><time>2026-05-04T11:10:22Z</time></trkpt><trkpt lat="31.82989359833688" lon="-6.157911488478169"><ele>2251.0</ele><time>2026-05-04T11:10:23Z</time></trkpt><trkpt lat="31.829749990251056" lon="-6.157932769774869"><ele>2250.0</ele><time>2026-05-04T11:10:24Z</time></trkpt><trkpt lat="31.8296042677371" lon="-6.157964186355879"><ele>2249.0</ele><time>2026-05-04T11:10:25Z</time></trkpt><trkpt lat="31.829468530874937" lon="-6.158025721292304"><ele>2248.0</ele><time>2026-05-04T11:10:26Z</time></trkpt><trkpt lat="31.829336226257613" lon="-6.158111563766711"><ele>2247.0</ele><time>2026-05-04T11:10:27Z</time></trkpt><trkpt lat="31.829211569758222" lon="-6.158215069292129"><ele>2247.0</ele><time>2026-05-04T11:10:28Z</time></trkpt><trkpt lat="31.829041317965878" lon="-6.15824133230493"><ele>2247.0</ele><time>2026-05-04T11:10:29Z</time></trkpt><trkpt lat="31.828876756853873" lon="-6.158219115612017"><ele>2247.0</ele><time>2026-05-04T11:10:30Z</time></trkpt><trkpt lat="31.82871382182696" lon="-6.158191905969089"><ele>2247.0</ele><time>2026-05-04T11:10:31Z</time></trkpt><trkpt lat="31.82855591094323" lon="-6.158181564687639"><ele>2247.0</ele><time>2026-05-04T11:10:32Z</time></trkpt><trkpt lat="31.82839432863755" lon="-6.158179138233876"><ele>2247.0</ele><time>2026-05-04T11:10:33Z</time></trkpt><trkpt lat="31.828247089034143" lon="-6.158250348314905"><ele>2247.0</ele><time>2026-05-04T11:10:34Z</time></trkpt><trkpt lat="31.828087902657334" lon="-6.158299668780055"><ele>2247.0</ele><time>2026-05-04T11:10:35Z</time></trkpt><trkpt lat="31.827931841530727" lon="-6.158308522969953"><ele>2247.0</ele><time>2026-05-04T11:10:36Z</time></trkpt><trkpt lat="31.827774953385674" lon="-6.158296213251612"><ele>2247.0</ele><time>2026-05-04T11:10:37Z</time></trkpt><trkpt lat="31.82761498172084" lon="-6.158253887244076"><ele>2247.0</ele><time>2026-05-04T11:10:38Z</time></trkpt><trkpt lat="31.82746611897334" lon="-6.158222021135539"><ele>2247.0</ele><time>2026-05-04T11:10:39Z</time></trkpt><trkpt lat="31.82732864053301" lon="-6.158237616719434"><ele>2247.0</ele><time>2026-05-04T11:10:40Z</time></trkpt><trkpt lat="31.827189276267124" lon="-6.158240623644007"><ele>2247.0</ele><time>2026-05-04T11:10:41Z</time></trkpt><trkpt lat="31.82705294619198" lon="-6.1582854315735105"><ele>2247.0</ele><time>2026-05-04T11:10:42Z</time></trkpt><trkpt lat="31.826930562130702" lon="-6.158350701919867"><ele>2247.0</ele><time>2026-05-04T11:10:43Z</time></trkpt><trkpt lat="31.82683746333239" lon="-6.15841373648336"><ele>2247.0</ele><time>2026-05-04T11:10:44Z</time></trkpt><trkpt lat="31.826767873044368" lon="-6.158495984434217"><ele>2247.0</ele><time>2026-05-04T11:10:45Z</time></trkpt><trkpt lat="31.826717693646465" lon="-6.158599812868245"><ele>2247.0</ele><time>2026-05-04T11:10:46Z</time></trkpt><trkpt lat="31.826737793469917" lon="-6.158717699396489"><ele>2247.0</ele><time>2026-05-04T11:10:47Z</time></trkpt><trkpt lat="31.82677078272846" lon="-6.158827063711663"><ele>2247.0</ele><time>2026-05-04T11:10:48Z</time></trkpt><trkpt lat="31.82681739578804" lon="-6.158950263694093"><ele>2247.0</ele><time>2026-05-04T11:10:49Z</time></trkpt><trkpt lat="31.82694276238969" lon="-6.159016816636699"><ele>2247.0</ele><time>2026-05-04T11:10:50Z</time></trkpt><trkpt lat="31.82705773715108" lon="-6.159131306078649"><ele>2247.0</ele><time>2026-05-04T11:10:51Z</time></trkpt><trkpt lat="31.827187193504376" lon="-6.15921668337716"><ele>2247.0</ele><time>2026-05-04T11:10:52Z</time></trkpt><trkpt lat="31.827320359335328" lon="-6.159306463546262"><ele>2251.3333333333335</ele><time>2026-05-04T11:10:53Z</time></trkpt><trkpt lat="31.82746658557528" lon="-6.159393551048748"><ele>2255.666666666667</ele><time>2026-05-04T11:10:54Z</time></trkpt><trkpt lat="31.827618909641114" lon="-6.1594863074194555"><ele>2260.0</ele><time>2026-05-04T11:10:55Z</time></trkpt><trkpt lat="31.827765035890074" lon="-6.159580189053936"><ele>2264.3333333333335</ele><time>2026-05-04T11:10:56Z</time></trkpt><trkpt lat="31.827913537725333" lon="-6.159670100278278"><ele>2268.6666666666665</ele><time>2026-05-04T11:10:57Z</time></trkpt><trkpt lat="31.828071119218887" lon="-6.1597526736003365"><ele>2273.0</ele><time>2026-05-04T11:10:58Z</time></trkpt><trkpt lat="31.828238415132226" lon="-6.1598312731954845"><ele>2274.6666666666665</ele><time>2026-05-04T11:10:59Z</time></trkpt><trkpt lat="31.82840341074299" lon="-6.159914211606364"><ele>2276.3333333333335</ele><time>2026-05-04T11:11:00Z</time></trkpt><trkpt lat="31.828567035432684" lon="-6.160008345469033"><ele>2278.0</ele><time>2026-05-04T11:11:01Z</time></trkpt><trkpt lat="31.828729312398373" lon="-6.160119348454569"><ele>2278.0</ele><time>2026-05-04T11:11:02Z</time></trkpt><trkpt lat="31.828888793945456" lon="-6.160231471603141"><ele>2278.0</ele><time>2026-05-04T11:11:03Z</time></trkpt><trkpt lat="31.82905143816066" lon="-6.160345656091516"><ele>2278.0</ele><time>2026-05-04T11:11:04Z</time></trkpt><trkpt lat="31.829218338365667" lon="-6.160458737895227"><ele>2280.3333333333335</ele><time>2026-05-04T11:11:05Z</time></trkpt><trkpt lat="31.829384340551965" lon="-6.1605716808917705"><ele>2282.6666666666665</ele><time>2026-05-04T11:11:06Z</time></trkpt><trkpt lat="31.82954849205368" lon="-6.16068004736623"><ele>2285.0</ele><time>2026-05-04T11:11:07Z</time></trkpt><trkpt lat="31.829711256672812" lon="-6.160799708307014"><ele>2285.0</ele><time>2026-05-04T11:11:08Z</time></trkpt><trkpt lat="31.82987026688268" lon="-6.160939833300822"><ele>2285.0</ele><time>2026-05-04T11:11:09Z</time></trkpt><trkpt lat="31.830030907886034" lon="-6.161081311350006"><ele>2285.0</ele><time>2026-05-04T11:11:10Z</time></trkpt><trkpt lat="31.83019169219997" lon="-6.161223655440835"><ele>2288.333333333333</ele><time>2026-05-04T11:11:11Z</time></trkpt><trkpt lat="31.83034560634109" lon="-6.161363667916114"><ele>2291.6666666666665</ele><time>2026-05-04T11:11:12Z</time></trkpt><trkpt lat="31.830501324024443" lon="-6.161492478749335"><ele>2295.0</ele><time>2026-05-04T11:11:13Z</time></trkpt><trkpt lat="31.830657844347005" lon="-6.161615923788553"><ele>2295.0</ele><time>2026-05-04T11:11:14Z</time></trkpt><trkpt lat="31.830815785172405" lon="-6.161732954900531"><ele>2295.0</ele><time>2026-05-04T11:11:15Z</time></trkpt><trkpt lat="31.830968891198758" lon="-6.1618415362746095"><ele>2295.0</ele><time>2026-05-04T11:11:16Z</time></trkpt><trkpt lat="31.831105636525443" lon="-6.161937430491514"><ele>2303.75</ele><time>2026-05-04T11:11:17Z</time></trkpt><trkpt lat="31.831234167133445" lon="-6.162029923157471"><ele>2312.5</ele><time>2026-05-04T11:11:18Z</time></trkpt><trkpt lat="31.83135368455634" lon="-6.162116910342706"><ele>2321.25</ele><time>2026-05-04T11:11:19Z</time></trkpt><trkpt lat="31.831468204472767" lon="-6.1622067301139"><ele>2330.0</ele><time>2026-05-04T11:11:20Z</time></trkpt><trkpt lat="31.831580667206506" lon="-6.162295966818603"><ele>2326.0</ele><time>2026-05-04T11:11:21Z</time></trkpt><trkpt lat="31.83169899768399" lon="-6.162387880307447"><ele>2322.0</ele><time>2026-05-04T11:11:22Z</time></trkpt><trkpt lat="31.831827231014504" lon="-6.162476347030179"><ele>2318.0</ele><time>2026-05-04T11:11:23Z</time></trkpt><trkpt lat="31.831962622736" lon="-6.162555668156717"><ele>2314.0</ele><time>2026-05-04T11:11:24Z</time></trkpt><trkpt lat="31.832104464427054" lon="-6.1626125570051284"><ele>2314.0</ele><time>2026-05-04T11:11:25Z</time></trkpt><trkpt lat="31.83225032374327" lon="-6.162651048250779"><ele>2314.0</ele><time>2026-05-04T11:11:26Z</time></trkpt><trkpt lat="31.83238733112236" lon="-6.162674747278508"><ele>2314.0</ele><time>2026-05-04T11:11:27Z</time></trkpt><trkpt lat="31.83251133546034" lon="-6.162685108090243"><ele>2314.0</ele><time>2026-05-04T11:11:28Z</time></trkpt><trkpt lat="31.83262237723042" lon="-6.16268581984041"><ele>2317.8333333333335</ele><time>2026-05-04T11:11:29Z</time></trkpt><trkpt lat="31.832721755800222" lon="-6.162676566171875"><ele>2321.666666666667</ele><time>2026-05-04T11:11:30Z</time></trkpt><trkpt lat="31.83280743052608" lon="-6.162681796732294"><ele>2325.5</ele><time>2026-05-04T11:11:31Z</time></trkpt><trkpt lat="31.832888985606765" lon="-6.1627246271363925"><ele>2329.3333333333335</ele><time>2026-05-04T11:11:32Z</time></trkpt><trkpt lat="31.83295809927245" lon="-6.162788654451494"><ele>2333.1666666666665</ele><time>2026-05-04T11:11:33Z</time></trkpt><trkpt lat="31.83299988150238" lon="-6.162868273658138"><ele>2337.0</ele><time>2026-05-04T11:11:34Z</time></trkpt><trkpt lat="31.833013071790027" lon="-6.162968577067559"><ele>2337.0</ele><time>2026-05-04T11:11:35Z</time></trkpt><trkpt lat="31.8329978216846" lon="-6.1630794057212"><ele>2337.0</ele><time>2026-05-04T11:11:36Z</time></trkpt><trkpt lat="31.832972714725624" lon="-6.163198698046985"><ele>2337.0</ele><time>2026-05-04T11:11:37Z</time></trkpt><trkpt lat="31.83295292403237" lon="-6.163315744062158"><ele>2337.0</ele><time>2026-05-04T11:11:38Z</time></trkpt><trkpt lat="31.83294102461834" lon="-6.163430981600846"><ele>2337.0</ele><time>2026-05-04T11:11:39Z</time></trkpt><trkpt lat="31.832920268810742" lon="-6.163533547456553"><ele>2336.0</ele><time>2026-05-04T11:11:40Z</time></trkpt><trkpt lat="31.832886405407887" lon="-6.1636451311558025"><ele>2335.0</ele><time>2026-05-04T11:11:41Z</time></trkpt><trkpt lat="31.832849819845205" lon="-6.16375172285108"><ele>2334.0</ele><time>2026-05-04T11:11:42Z</time></trkpt><trkpt lat="31.832822177824767" lon="-6.163865205452061"><ele>2333.0</ele><time>2026-05-04T11:11:43Z</time></trkpt><trkpt lat="31.832795626865657" lon="-6.163968097674956"><ele>2332.0</ele><time>2026-05-04T11:11:44Z</time></trkpt><trkpt lat="31.83279093138423" lon="-6.164061208362534"><ele>2330.7999999999997</ele><time>2026-05-04T11:11:45Z</time></trkpt><trkpt lat="31.83282985375352" lon="-6.164151440804677"><ele>2329.6</ele><time>2026-05-04T11:11:46Z</time></trkpt><trkpt lat="31.832904529110728" lon="-6.164222339864893"><ele>2328.3999999999996</ele><time>2026-05-04T11:11:47Z</time></trkpt><trkpt lat="31.833007639216994" lon="-6.164274914624389"><ele>2327.2</ele><time>2026-05-04T11:11:48Z</time></trkpt><trkpt lat="31.833123682797858" lon="-6.1643318947513475"><ele>2326.0</ele><time>2026-05-04T11:11:49Z</time></trkpt><trkpt lat="31.833245335090815" lon="-6.164411598661226"><ele>2326.0</ele><time>2026-05-04T11:11:50Z</time></trkpt><trkpt lat="31.83336386141061" lon="-6.164508195094023"><ele>2326.0</ele><time>2026-05-04T11:11:51Z</time></trkpt><trkpt lat="31.83347856820344" lon="-6.164613130044229"><ele>2326.0</ele><time>2026-05-04T11:11:52Z</time></trkpt><trkpt lat="31.833600529595607" lon="-6.164729223886897"><ele>2326.0</ele><time>2026-05-04T11:11:53Z</time></trkpt><trkpt lat="31.83372717550986" lon="-6.1648535373687565"><ele>2331.3333333333335</ele><time>2026-05-04T11:11:54Z</time></trkpt><trkpt lat="31.833844418130177" lon="-6.164992865860487"><ele>2336.6666666666665</ele><time>2026-05-04T11:11:55Z</time></trkpt><trkpt lat="31.83394817833863" lon="-6.1651319285222375"><ele>2342.0</ele><time>2026-05-04T11:11:56Z</time></trkpt><trkpt lat="31.834043487397715" lon="-6.16526147394401"><ele>2342.0</ele><time>2026-05-04T11:11:57Z</time></trkpt><trkpt lat="31.83413606908825" lon="-6.1653816217073"><ele>2342.0</ele><time>2026-05-04T11:11:58Z</time></trkpt><trkpt lat="31.834221099487888" lon="-6.165490793340842"><ele>2342.0</ele><time>2026-05-04T11:11:59Z</time></trkpt><trkpt lat="31.834294685276497" lon="-6.165582970770206"><ele>2342.0</ele><time>2026-05-04T11:12:00Z</time></trkpt><trkpt lat="31.834355543049185" lon="-6.165659702317027"><ele>2338.6</ele><time>2026-05-04T11:12:01Z</time></trkpt><trkpt lat="31.834386390303205" lon="-6.165730156996629"><ele>2335.2</ele><time>2026-05-04T11:12:02Z</time></trkpt><trkpt lat="31.834353326898203" lon="-6.16585803888118"><ele>2331.8</ele><time>2026-05-04T11:12:04Z</time></trkpt><trkpt lat="31.834231496294453" lon="-6.1659448708361735"><ele>2328.4</ele><time>2026-05-04T11:12:06Z</time></trkpt><trkpt lat="31.834156827232476" lon="-6.165938235821548"><ele>2325.0</ele><time>2026-05-04T11:12:07Z</time></trkpt><trkpt lat="31.834080214366033" lon="-6.16593693582055"><ele>2325.0</ele><time>2026-05-04T11:12:08Z</time></trkpt><trkpt lat="31.83398478152429" lon="-6.165941540482289"><ele>2325.0</ele><time>2026-05-04T11:12:09Z</time></trkpt><trkpt lat="31.833877917115377" lon="-6.165974880178768"><ele>2325.0</ele><time>2026-05-04T11:12:10Z</time></trkpt><trkpt lat="31.83376779462744" lon="-6.166008608067803"><ele>2325.0</ele><time>2026-05-04T11:12:11Z</time></trkpt><trkpt lat="31.833645830274186" lon="-6.166040460050244"><ele>2325.0</ele><time>2026-05-04T11:12:12Z</time></trkpt><trkpt lat="31.833513019665727" lon="-6.166069950302637"><ele>2321.0</ele><time>2026-05-04T11:12:13Z</time></trkpt><trkpt lat="31.8333756158476" lon="-6.166102169341891"><ele>2317.0</ele><time>2026-05-04T11:12:14Z</time></trkpt><trkpt lat="31.833242227437655" lon="-6.166140610871993"><ele>2313.0</ele><time>2026-05-04T11:12:15Z</time></trkpt><trkpt lat="31.83311001057979" lon="-6.166186336303967"><ele>2309.0</ele><time>2026-05-04T11:12:16Z</time></trkpt><trkpt lat="31.833002987230895" lon="-6.166242473113353"><ele>2309.0</ele><time>2026-05-04T11:12:17Z</time></trkpt><trkpt lat="31.832927070322473" lon="-6.166321701982503"><ele>2309.0</ele><time>2026-05-04T11:12:18Z</time></trkpt><trkpt lat="31.83289319168467" lon="-6.166444083559733"><ele>2309.0</ele><time>2026-05-04T11:12:19Z</time></trkpt><trkpt lat="31.83285512013751" lon="-6.166569510222998"><ele>2309.0</ele><time>2026-05-04T11:12:20Z</time></trkpt><trkpt lat="31.832801693271037" lon="-6.1666971287715855"><ele>2309.0</ele><time>2026-05-04T11:12:21Z</time></trkpt><trkpt lat="31.832767536264075" lon="-6.166813141143765"><ele>2313.8</ele><time>2026-05-04T11:12:22Z</time></trkpt><trkpt lat="31.832723622045535" lon="-6.166899068420272"><ele>2318.6000000000004</ele><time>2026-05-04T11:12:23Z</time></trkpt><trkpt lat="31.83267745420758" lon="-6.166985738803655"><ele>2323.4</ele><time>2026-05-04T11:12:24Z</time></trkpt><trkpt lat="31.832613282121994" lon="-6.1670327277609"><ele>2328.2000000000003</ele><time>2026-05-04T11:12:25Z</time></trkpt><trkpt lat="31.83249916792128" lon="-6.167033995131883"><ele>2333.0</ele><time>2026-05-04T11:12:26Z</time></trkpt><trkpt lat="31.832377844132036" lon="-6.166874026131247"><ele>2333.0</ele><time>2026-05-04T11:12:27Z</time></trkpt><trkpt lat="31.83226645860682" lon="-6.166819335953085"><ele>2333.0</ele><time>2026-05-04T11:12:28Z</time></trkpt><trkpt lat="31.832148903708347" lon="-6.16679108639734"><ele>2333.0</ele><time>2026-05-04T11:12:29Z</time></trkpt><trkpt lat="31.832041993463033" lon="-6.166799085237177"><ele>2333.0</ele><time>2026-05-04T11:12:30Z</time></trkpt><trkpt lat="31.831949082363405" lon="-6.166850449158555"><ele>2333.0</ele><time>2026-05-04T11:12:31Z</time></trkpt><trkpt lat="31.83185688866833" lon="-6.166933882535807"><ele>2333.0</ele><time>2026-05-04T11:12:32Z</time></trkpt><trkpt lat="31.83175361670698" lon="-6.167019313470795"><ele>2333.0</ele><time>2026-05-04T11:12:33Z</time></trkpt><trkpt lat="31.831644750910353" lon="-6.16707145488608"><ele>2333.0</ele><time>2026-05-04T11:12:34Z</time></trkpt><trkpt lat="31.831535098160295" lon="-6.16708897926858"><ele>2329.6</ele><time>2026-05-04T11:12:35Z</time></trkpt><trkpt lat="31.831426521787478" lon="-6.167081500383658"><ele>2326.2000000000003</ele><time>2026-05-04T11:12:36Z</time></trkpt><trkpt lat="31.83132545412178" lon="-6.167067404776941"><ele>2322.8</ele><time>2026-05-04T11:12:37Z</time></trkpt><trkpt lat="31.83122239261385" lon="-6.167089005605763"><ele>2319.4</ele><time>2026-05-04T11:12:38Z</time></trkpt><trkpt lat="31.83111934756462" lon="-6.167163826184142"><ele>2316.0</ele><time>2026-05-04T11:12:39Z</time></trkpt><trkpt lat="31.83102282558182" lon="-6.1672651510813825"><ele>2327.5</ele><time>2026-05-04T11:12:40Z</time></trkpt><trkpt lat="31.830922976809923" lon="-6.167366646082207"><ele>2339.0</ele><time>2026-05-04T11:12:41Z</time></trkpt><trkpt lat="31.83080595104943" lon="-6.167455358696034"><ele>2350.5</ele><time>2026-05-04T11:12:42Z</time></trkpt><trkpt lat="31.83067672567086" lon="-6.167529997710348"><ele>2362.0</ele><time>2026-05-04T11:12:43Z</time></trkpt><trkpt lat="31.830531889343575" lon="-6.167581146796438"><ele>2362.0</ele><time>2026-05-04T11:12:44Z</time></trkpt><trkpt lat="31.830383587239194" lon="-6.167607917861066"><ele>2362.0</ele><time>2026-05-04T11:12:45Z</time></trkpt><trkpt lat="31.83023134123263" lon="-6.167635304146809"><ele>2362.0</ele><time>2026-05-04T11:12:46Z</time></trkpt><trkpt lat="31.83008644875335" lon="-6.167681491064451"><ele>2357.25</ele><time>2026-05-04T11:12:47Z</time></trkpt><trkpt lat="31.82994614168027" lon="-6.167733178345298"><ele>2352.5</ele><time>2026-05-04T11:12:48Z</time></trkpt><trkpt lat="31.829818185637574" lon="-6.167787482000361"><ele>2347.75</ele><time>2026-05-04T11:12:49Z</time></trkpt><trkpt lat="31.82970043452763" lon="-6.167831270027163"><ele>2343.0</ele><time>2026-05-04T11:12:50Z</time></trkpt><trkpt lat="31.82957952140034" lon="-6.167854228118387"><ele>2343.0</ele><time>2026-05-04T11:12:51Z</time></trkpt><trkpt lat="31.829452710317305" lon="-6.1678410617019495"><ele>2343.0</ele><time>2026-05-04T11:12:52Z</time></trkpt><trkpt lat="31.829318730304895" lon="-6.167806756548777"><ele>2343.0</ele><time>2026-05-04T11:12:53Z</time></trkpt><trkpt lat="31.829184165947982" lon="-6.167778581434857"><ele>2343.0</ele><time>2026-05-04T11:12:54Z</time></trkpt><trkpt lat="31.829060081831095" lon="-6.167751661069349"><ele>2341.8</ele><time>2026-05-04T11:12:55Z</time></trkpt><trkpt lat="31.828953415118097" lon="-6.167735469517034"><ele>2340.6000000000004</ele><time>2026-05-04T11:12:56Z</time></trkpt><trkpt lat="31.828861382004302" lon="-6.167745374011502"><ele>2339.3999999999996</ele><time>2026-05-04T11:12:57Z</time></trkpt><trkpt lat="31.82877035378855" lon="-6.167775704786122"><ele>2338.2</ele><time>2026-05-04T11:12:58Z</time></trkpt><trkpt lat="31.828698307086203" lon="-6.167836976807214"><ele>2337.0</ele><time>2026-05-04T11:12:59Z</time></trkpt><trkpt lat="31.828652006725065" lon="-6.167914912191128"><ele>2337.0</ele><time>2026-05-04T11:13:00Z</time></trkpt><trkpt lat="31.828633467433495" lon="-6.167998370600892"><ele>2337.0</ele><time>2026-05-04T11:13:01Z</time></trkpt><trkpt lat="31.828655744613496" lon="-6.168083205586136"><ele>2337.0</ele><time>2026-05-04T11:13:02Z</time></trkpt><trkpt lat="31.828701433637228" lon="-6.168165114075651"><ele>2337.0</ele><time>2026-05-04T11:13:03Z</time></trkpt><trkpt lat="31.828768616323433" lon="-6.168237891492949"><ele>2337.0</ele><time>2026-05-04T11:13:04Z</time></trkpt><trkpt lat="31.828852929923162" lon="-6.16831282197149"><ele>2337.0</ele><time>2026-05-04T11:13:05Z</time></trkpt><trkpt lat="31.82895476083984" lon="-6.168391397531859"><ele>2344.5</ele><time>2026-05-04T11:13:06Z</time></trkpt><trkpt lat="31.829067556544874" lon="-6.168477024271427"><ele>2352.0</ele><time>2026-05-04T11:13:07Z</time></trkpt><trkpt lat="31.829191666646874" lon="-6.168569589707585"><ele>2359.5</ele><time>2026-05-04T11:13:08Z</time></trkpt><trkpt lat="31.82930883967627" lon="-6.168656797776978"><ele>2367.0</ele><time>2026-05-04T11:13:09Z</time></trkpt><trkpt lat="31.82942316134553" lon="-6.168746093055311"><ele>2370.75</ele><time>2026-05-04T11:13:10Z</time></trkpt><trkpt lat="31.829536858246932" lon="-6.168843097989648"><ele>2374.5</ele><time>2026-05-04T11:13:11Z</time></trkpt><trkpt lat="31.82965619748045" lon="-6.1689377056899986"><ele>2378.25</ele><time>2026-05-04T11:13:12Z</time></trkpt><trkpt lat="31.829782626988923" lon="-6.169022826954738"><ele>2382.0</ele><time>2026-05-04T11:13:13Z</time></trkpt><trkpt lat="31.829907224096278" lon="-6.169106890722801"><ele>2382.0</ele><time>2026-05-04T11:13:14Z</time></trkpt><trkpt lat="31.830026457606692" lon="-6.169201427533388"><ele>2382.0</ele><time>2026-05-04T11:13:15Z</time></trkpt><trkpt lat="31.830137839929588" lon="-6.169304404945073"><ele>2382.0</ele><time>2026-05-04T11:13:16Z</time></trkpt><trkpt lat="31.8302450255357" lon="-6.16941508231381"><ele>2382.0</ele><time>2026-05-04T11:13:17Z</time></trkpt><trkpt lat="31.830351000036284" lon="-6.169524707724016"><ele>2383.75</ele><time>2026-05-04T11:13:18Z</time></trkpt><trkpt lat="31.83044889291471" lon="-6.16963644929218"><ele>2385.5</ele><time>2026-05-04T11:13:19Z</time></trkpt><trkpt lat="31.830535371019085" lon="-6.169755360868895"><ele>2387.25</ele><time>2026-05-04T11:13:20Z</time></trkpt><trkpt lat="31.830628219334027" lon="-6.169866478019041"><ele>2389.0</ele><time>2026-05-04T11:13:21Z</time></trkpt><trkpt lat="31.830723095763766" lon="-6.169970684295727"><ele>2389.0</ele><time>2026-05-04T11:13:22Z</time></trkpt><trkpt lat="31.83082285686813" lon="-6.170077205792516"><ele>2389.0</ele><time>2026-05-04T11:13:23Z</time></trkpt><trkpt lat="31.83091680036929" lon="-6.170188656404334"><ele>2389.0</ele><time>2026-05-04T11:13:24Z</time></trkpt><trkpt lat="31.831001976019632" lon="-6.170295055577957"><ele>2389.0</ele><time>2026-05-04T11:13:25Z</time></trkpt><trkpt lat="31.83107232455992" lon="-6.170393771030433"><ele>2389.6</ele><time>2026-05-04T11:13:26Z</time></trkpt><trkpt lat="31.83111650176596" lon="-6.170477205185539"><ele>2390.2</ele><time>2026-05-04T11:13:27Z</time></trkpt><trkpt lat="31.83111918520105" lon="-6.170551524538122"><ele>2390.7999999999997</ele><time>2026-05-04T11:13:28Z</time></trkpt><trkpt lat="31.83104514882548" lon="-6.170677978341372"><ele>2391.4</ele><time>2026-05-04T11:13:30Z</time></trkpt><trkpt lat="31.830956661589145" lon="-6.17072566928325"><ele>2392.0</ele><time>2026-05-04T11:13:31Z</time></trkpt><trkpt lat="31.830872971013886" lon="-6.17079231300713"><ele>2392.0</ele><time>2026-05-04T11:13:32Z</time></trkpt><trkpt lat="31.83080238488767" lon="-6.170887461098603"><ele>2392.0</ele><time>2026-05-04T11:13:33Z</time></trkpt><trkpt lat="31.830746181645253" lon="-6.17100525318348"><ele>2392.0</ele><time>2026-05-04T11:13:34Z</time></trkpt><trkpt lat="31.830702074321792" lon="-6.171124745832346"><ele>2392.0</ele><time>2026-05-04T11:13:35Z</time></trkpt><trkpt lat="31.830672632284983" lon="-6.171237030215785"><ele>2392.0</ele><time>2026-05-04T11:13:36Z</time></trkpt><trkpt lat="31.830622928946145" lon="-6.171325491611836"><ele>2392.0</ele><time>2026-05-04T11:13:37Z</time></trkpt><trkpt lat="31.830521190439306" lon="-6.171381893274514"><ele>2392.0</ele><time>2026-05-04T11:13:38Z</time></trkpt><trkpt lat="31.83038535672671" lon="-6.1713629310378035"><ele>2392.0</ele><time>2026-05-04T11:13:39Z</time></trkpt><trkpt lat="31.83026086685266" lon="-6.171385697177733"><ele>2392.0</ele><time>2026-05-04T11:13:40Z</time></trkpt><trkpt lat="31.83013801533811" lon="-6.17144905133382"><ele>2395.75</ele><time>2026-05-04T11:13:41Z</time></trkpt><trkpt lat="31.83000594105041" lon="-6.171507698956442"><ele>2399.5</ele><time>2026-05-04T11:13:42Z</time></trkpt><trkpt lat="31.829871508375064" lon="-6.171567393821635"><ele>2403.25</ele><time>2026-05-04T11:13:43Z</time></trkpt><trkpt lat="31.829731199888805" lon="-6.171628944431054"><ele>2407.0</ele><time>2026-05-04T11:13:44Z</time></trkpt><trkpt lat="31.829611607004832" lon="-6.171724858240633"><ele>2407.0</ele><time>2026-05-04T11:13:45Z</time></trkpt><trkpt lat="31.829506929207255" lon="-6.171843350602526"><ele>2407.0</ele><time>2026-05-04T11:13:46Z</time></trkpt><trkpt lat="31.82941005370977" lon="-6.1719608379809445"><ele>2407.0</ele><time>2026-05-04T11:13:47Z</time></trkpt><trkpt lat="31.82931602215838" lon="-6.172064092262144"><ele>2407.0</ele><time>2026-05-04T11:13:48Z</time></trkpt><trkpt lat="31.829203736931255" lon="-6.17213663063609"><ele>2403.75</ele><time>2026-05-04T11:13:49Z</time></trkpt><trkpt lat="31.829068464566575" lon="-6.1721714312283344"><ele>2400.5</ele><time>2026-05-04T11:13:50Z</time></trkpt><trkpt lat="31.828920624963686" lon="-6.172125891855187"><ele>2397.25</ele><time>2026-05-04T11:13:51Z</time></trkpt><trkpt lat="31.82878548803503" lon="-6.172117232870693"><ele>2394.0</ele><time>2026-05-04T11:13:52Z</time></trkpt><trkpt lat="31.82867134979039" lon="-6.172138745885299"><ele>2394.0</ele><time>2026-05-04T11:13:53Z</time></trkpt><trkpt lat="31.8285809719687" lon="-6.172209207160992"><ele>2394.0</ele><time>2026-05-04T11:13:54Z</time></trkpt><trkpt lat="31.828512585981933" lon="-6.172316462432326"><ele>2394.0</ele><time>2026-05-04T11:13:55Z</time></trkpt><trkpt lat="31.828475512452442" lon="-6.172461852974124"><ele>2394.0</ele><time>2026-05-04T11:13:56Z</time></trkpt><trkpt lat="31.828411543007526" lon="-6.172601471408484"><ele>2397.25</ele><time>2026-05-04T11:13:57Z</time></trkpt><trkpt lat="31.828349220019206" lon="-6.172753127192711"><ele>2400.5</ele><time>2026-05-04T11:13:58Z</time></trkpt><trkpt lat="31.828275089942355" lon="-6.1729001008758795"><ele>2403.75</ele><time>2026-05-04T11:13:59Z</time></trkpt><trkpt lat="31.828193979684144" lon="-6.173034307618597"><ele>2407.0</ele><time>2026-05-04T11:14:00Z</time></trkpt><trkpt lat="31.828106173638695" lon="-6.173148448483009"><ele>2411.2</ele><time>2026-05-04T11:14:01Z</time></trkpt><trkpt lat="31.828020018154447" lon="-6.173246525671932"><ele>2415.3999999999996</ele><time>2026-05-04T11:14:02Z</time></trkpt><trkpt lat="31.827953353878815" lon="-6.173343192213969"><ele>2419.6000000000004</ele><time>2026-05-04T11:14:03Z</time></trkpt><trkpt lat="31.82792558923416" lon="-6.1734496538205885"><ele>2423.8</ele><time>2026-05-04T11:14:04Z</time></trkpt><trkpt lat="31.8279386830207" lon="-6.173568593731526"><ele>2428.0</ele><time>2026-05-04T11:14:05Z</time></trkpt><trkpt lat="31.827991193316926" lon="-6.173689573429092"><ele>2428.0</ele><time>2026-05-04T11:14:06Z</time></trkpt><trkpt lat="31.828070172475368" lon="-6.173818723657991"><ele>2428.0</ele><time>2026-05-04T11:14:07Z</time></trkpt><trkpt lat="31.82815674602862" lon="-6.173953933628826"><ele>2428.0</ele><time>2026-05-04T11:14:08Z</time></trkpt><trkpt lat="31.828239629624118" lon="-6.1740959684248935"><ele>2428.0</ele><time>2026-05-04T11:14:09Z</time></trkpt><trkpt lat="31.82831884658031" lon="-6.174252865595213"><ele>2427.0</ele><time>2026-05-04T11:14:10Z</time></trkpt><trkpt lat="31.828393525064847" lon="-6.174428705028396"><ele>2426.0</ele><time>2026-05-04T11:14:11Z</time></trkpt><trkpt lat="31.828465435297" lon="-6.174615374237359"><ele>2425.0</ele><time>2026-05-04T11:14:12Z</time></trkpt><trkpt lat="31.828536463482525" lon="-6.174801624189654"><ele>2438.3333333333335</ele><time>2026-05-04T11:14:13Z</time></trkpt><trkpt lat="31.82860816480152" lon="-6.174989816816129"><ele>2451.6666666666665</ele><time>2026-05-04T11:14:14Z</time></trkpt><trkpt lat="31.828677743523468" lon="-6.175176401954438"><ele>2465.0</ele><time>2026-05-04T11:14:15Z</time></trkpt><trkpt lat="31.828746322590387" lon="-6.175359281667665"><ele>2465.0</ele><time>2026-05-04T11:14:16Z</time></trkpt><trkpt lat="31.82881426155047" lon="-6.175539548273438"><ele>2465.0</ele><time>2026-05-04T11:14:17Z</time></trkpt><trkpt lat="31.82888175238711" lon="-6.1757227078398795"><ele>2465.0</ele><time>2026-05-04T11:14:18Z</time></trkpt><trkpt lat="31.828942429316132" lon="-6.175903077122626"><ele>2462.0</ele><time>2026-05-04T11:14:19Z</time></trkpt><trkpt lat="31.828997878543063" lon="-6.176085121495719"><ele>2459.0</ele><time>2026-05-04T11:14:20Z</time></trkpt><trkpt lat="31.829043341759473" lon="-6.1762644707367045"><ele>2456.0</ele><time>2026-05-04T11:14:21Z</time></trkpt><trkpt lat="31.829081587459275" lon="-6.176440846459147"><ele>2454.75</ele><time>2026-05-04T11:14:22Z</time></trkpt><trkpt lat="31.829094231660804" lon="-6.176618262040095"><ele>2453.5</ele><time>2026-05-04T11:14:23Z</time></trkpt><trkpt lat="31.829082811322248" lon="-6.176791085094765"><ele>2452.25</ele><time>2026-05-04T11:14:24Z</time></trkpt><trkpt lat="31.82904644641297" lon="-6.1769493811756435"><ele>2451.0</ele><time>2026-05-04T11:14:25Z</time></trkpt><trkpt lat="31.828977242481308" lon="-6.177082537959044"><ele>2451.0</ele><time>2026-05-04T11:14:26Z</time></trkpt><trkpt lat="31.82891489732156" lon="-6.177217850505808"><ele>2451.0</ele><time>2026-05-04T11:14:27Z</time></trkpt><trkpt lat="31.828760157509517" lon="-6.177286822863802"><ele>2451.0</ele><time>2026-05-04T11:14:28Z</time></trkpt><trkpt lat="31.828621604298775" lon="-6.177356947729543"><ele>2451.0</ele><time>2026-05-04T11:14:29Z</time></trkpt><trkpt lat="31.82848879473441" lon="-6.177441215037361"><ele>2452.3333333333335</ele><time>2026-05-04T11:14:30Z</time></trkpt><trkpt lat="31.828362466013736" lon="-6.177543391242517"><ele>2453.666666666667</ele><time>2026-05-04T11:14:31Z</time></trkpt><trkpt lat="31.82822687806017" lon="-6.177627170152741"><ele>2455.0</ele><time>2026-05-04T11:14:32Z</time></trkpt><trkpt lat="31.828057512845692" lon="-6.177654295706381"><ele>2455.0</ele><time>2026-05-04T11:14:33Z</time></trkpt><trkpt lat="31.827890728158245" lon="-6.177647557490029"><ele>2455.0</ele><time>2026-05-04T11:14:34Z</time></trkpt><trkpt lat="31.827730103669687" lon="-6.177654679113766"><ele>2455.0</ele><time>2026-05-04T11:14:35Z</time></trkpt><trkpt lat="31.82759462784309" lon="-6.177656871967304"><ele>2450.75</ele><time>2026-05-04T11:14:36Z</time></trkpt><trkpt lat="31.8274710958673" lon="-6.177679712989733"><ele>2446.5</ele><time>2026-05-04T11:14:37Z</time></trkpt><trkpt lat="31.827364776079204" lon="-6.17774182695596"><ele>2442.25</ele><time>2026-05-04T11:14:38Z</time></trkpt><trkpt lat="31.827276954434286" lon="-6.177831881727693"><ele>2438.0</ele><time>2026-05-04T11:14:39Z</time></trkpt><trkpt lat="31.827214432718122" lon="-6.177933455806644"><ele>2438.0</ele><time>2026-05-04T11:14:40Z</time></trkpt><trkpt lat="31.827167940475917" lon="-6.178062309355715"><ele>2438.0</ele><time>2026-05-04T11:14:41Z</time></trkpt><trkpt lat="31.827137428198338" lon="-6.178211192345801"><ele>2438.0</ele><time>2026-05-04T11:14:42Z</time></trkpt><trkpt lat="31.827120517192544" lon="-6.178368988531508"><ele>2438.0</ele><time>2026-05-04T11:14:43Z</time></trkpt><trkpt lat="31.827086145800696" lon="-6.178533239963744"><ele>2449.333333333333</ele><time>2026-05-04T11:14:44Z</time></trkpt><trkpt lat="31.827028010420086" lon="-6.178704222831044"><ele>2460.6666666666665</ele><time>2026-05-04T11:14:45Z</time></trkpt><trkpt lat="31.82695373294508" lon="-6.178874350273964"><ele>2472.0</ele><time>2026-05-04T11:14:46Z</time></trkpt><trkpt lat="31.82687431267834" lon="-6.179015055156627"><ele>2467.25</ele><time>2026-05-04T11:14:47Z</time></trkpt><trkpt lat="31.826807905006117" lon="-6.179137540368539"><ele>2462.5</ele><time>2026-05-04T11:14:48Z</time></trkpt><trkpt lat="31.826772124132784" lon="-6.179269093452414"><ele>2457.75</ele><time>2026-05-04T11:14:49Z</time></trkpt><trkpt lat="31.82675869245077" lon="-6.1794210971238135"><ele>2453.0</ele><time>2026-05-04T11:14:50Z</time></trkpt><trkpt lat="31.826772488677484" lon="-6.179584933291071"><ele>2453.0</ele><time>2026-05-04T11:14:51Z</time></trkpt><trkpt lat="31.826796481416945" lon="-6.179756079066316"><ele>2453.0</ele><time>2026-05-04T11:14:52Z</time></trkpt><trkpt lat="31.826818805878563" lon="-6.1799370128503845"><ele>2453.0</ele><time>2026-05-04T11:14:53Z</time></trkpt><trkpt lat="31.82682276477727" lon="-6.180118194041974"><ele>2455.75</ele><time>2026-05-04T11:14:54Z</time></trkpt><trkpt lat="31.82681109174752" lon="-6.180278803016253"><ele>2458.5</ele><time>2026-05-04T11:14:55Z</time></trkpt><trkpt lat="31.826791944208342" lon="-6.180430738533195"><ele>2461.25</ele><time>2026-05-04T11:14:56Z</time></trkpt><trkpt lat="31.826748381368095" lon="-6.180571584154404"><ele>2464.0</ele><time>2026-05-04T11:14:57Z</time></trkpt><trkpt lat="31.826666389060996" lon="-6.180693649923997"><ele>2472.0</ele><time>2026-05-04T11:14:58Z</time></trkpt><trkpt lat="31.826566519392347" lon="-6.180818205578185"><ele>2480.0</ele><time>2026-05-04T11:14:59Z</time></trkpt><trkpt lat="31.826401154119417" lon="-6.180866022220612"><ele>2488.0</ele><time>2026-05-04T11:15:00Z</time></trkpt><trkpt lat="31.826242888519893" lon="-6.1809222626840405"><ele>2488.0</ele><time>2026-05-04T11:15:01Z</time></trkpt><trkpt lat="31.82607815006296" lon="-6.180962774434757"><ele>2488.0</ele><time>2026-05-04T11:15:02Z</time></trkpt><trkpt lat="31.825912400198703" lon="-6.1809905841708135"><ele>2488.0</ele><time>2026-05-04T11:15:03Z</time></trkpt><trkpt lat="31.82575886410866" lon="-6.181018794041022"><ele>2483.25</ele><time>2026-05-04T11:15:04Z</time></trkpt><trkpt lat="31.82562434173948" lon="-6.181062200145806"><ele>2478.5</ele><time>2026-05-04T11:15:05Z</time></trkpt><trkpt lat="31.825509769832035" lon="-6.181132020181045"><ele>2473.75</ele><time>2026-05-04T11:15:06Z</time></trkpt><trkpt lat="31.825420960807485" lon="-6.181245723540265"><ele>2469.0</ele><time>2026-05-04T11:15:07Z</time></trkpt><trkpt lat="31.82534454114555" lon="-6.1813886575534545"><ele>2471.75</ele><time>2026-05-04T11:15:08Z</time></trkpt><trkpt lat="31.82528274029862" lon="-6.181528577205969"><ele>2474.5</ele><time>2026-05-04T11:15:09Z</time></trkpt><trkpt lat="31.825212038958025" lon="-6.181652057284331"><ele>2477.25</ele><time>2026-05-04T11:15:10Z</time></trkpt><trkpt lat="31.825113918252146" lon="-6.181755241724049"><ele>2480.0</ele><time>2026-05-04T11:15:11Z</time></trkpt><trkpt lat="31.824989915363464" lon="-6.181851228132438"><ele>2480.0</ele><time>2026-05-04T11:15:12Z</time></trkpt><trkpt lat="31.824853247106507" lon="-6.181943314768281"><ele>2480.0</ele><time>2026-05-04T11:15:13Z</time></trkpt><trkpt lat="31.824720009087557" lon="-6.182020561798536"><ele>2480.0</ele><time>2026-05-04T11:15:14Z</time></trkpt><trkpt lat="31.824612597406674" lon="-6.18210052964866"><ele>2480.0</ele><time>2026-05-04T11:15:15Z</time></trkpt><trkpt lat="31.824535704065866" lon="-6.1821995043296845"><ele>2480.0</ele><time>2026-05-04T11:15:16Z</time></trkpt><trkpt lat="31.8245000324087" lon="-6.182329310033166"><ele>2480.0</ele><time>2026-05-04T11:15:17Z</time></trkpt><trkpt lat="31.824493813832525" lon="-6.182467689447446"><ele>2480.0</ele><time>2026-05-04T11:15:18Z</time></trkpt><trkpt lat="31.82447559173325" lon="-6.1826300071395375"><ele>2480.0</ele><time>2026-05-04T11:15:19Z</time></trkpt><trkpt lat="31.82448632581378" lon="-6.182801046214338"><ele>2490.6666666666665</ele><time>2026-05-04T11:15:20Z</time></trkpt><trkpt lat="31.824477657141774" lon="-6.1829832762577945"><ele>2501.3333333333335</ele><time>2026-05-04T11:15:21Z</time></trkpt><trkpt lat="31.82445760188294" lon="-6.183173984339718"><ele>2512.0</ele><time>2026-05-04T11:15:22Z</time></trkpt><trkpt lat="31.824442007862476" lon="-6.183359869415501"><ele>2514.6</ele><time>2026-05-04T11:15:23Z</time></trkpt><trkpt lat="31.8244263793508" lon="-6.183517404538737"><ele>2517.2</ele><time>2026-05-04T11:15:24Z</time></trkpt><trkpt lat="31.824405072968506" lon="-6.183639670159931"><ele>2519.8</ele><time>2026-05-04T11:15:25Z</time></trkpt><trkpt lat="31.824365762733105" lon="-6.183745284778205"><ele>2522.4</ele><time>2026-05-04T11:15:26Z</time></trkpt><trkpt lat="31.824302575635876" lon="-6.183841906961775"><ele>2525.0</ele><time>2026-05-04T11:15:27Z</time></trkpt><trkpt lat="31.82423194493654" lon="-6.183949231584278"><ele>2522.5</ele><time>2026-05-04T11:15:28Z</time></trkpt><trkpt lat="31.824122972917543" lon="-6.184031100066414"><ele>2520.0</ele><time>2026-05-04T11:15:29Z</time></trkpt><trkpt lat="31.823984430706208" lon="-6.184075885088971"><ele>2517.5</ele><time>2026-05-04T11:15:30Z</time></trkpt><trkpt lat="31.823837337595897" lon="-6.184085157953915"><ele>2515.0</ele><time>2026-05-04T11:15:31Z</time></trkpt><trkpt lat="31.823685887261778" lon="-6.184109497662843"><ele>2515.0</ele><time>2026-05-04T11:15:32Z</time></trkpt><trkpt lat="31.8235328755157" lon="-6.1841675665429205"><ele>2515.0</ele><time>2026-05-04T11:15:33Z</time></trkpt><trkpt lat="31.823372181295355" lon="-6.184212279738996"><ele>2515.0</ele><time>2026-05-04T11:15:34Z</time></trkpt><trkpt lat="31.82321073799508" lon="-6.184245948890339"><ele>2515.0</ele><time>2026-05-04T11:15:35Z</time></trkpt><trkpt lat="31.823057655834337" lon="-6.184237224783935"><ele>2515.0</ele><time>2026-05-04T11:15:36Z</time></trkpt><trkpt lat="31.822899002807127" lon="-6.184200608323877"><ele>2515.0</ele><time>2026-05-04T11:15:37Z</time></trkpt><trkpt lat="31.82274499128761" lon="-6.184175868293981"><ele>2515.5</ele><time>2026-05-04T11:15:38Z</time></trkpt><trkpt lat="31.822601063177018" lon="-6.18419321125445"><ele>2516.0</ele><time>2026-05-04T11:15:39Z</time></trkpt><trkpt lat="31.822466073913287" lon="-6.184244059352802"><ele>2516.5</ele><time>2026-05-04T11:15:40Z</time></trkpt><trkpt lat="31.822313805790287" lon="-6.184297077312478"><ele>2517.0</ele><time>2026-05-04T11:15:41Z</time></trkpt><trkpt lat="31.822155003855745" lon="-6.184369669000314"><ele>2517.0</ele><time>2026-05-04T11:15:42Z</time></trkpt><trkpt lat="31.821990055958562" lon="-6.1844116109696445"><ele>2517.0</ele><time>2026-05-04T11:15:43Z</time></trkpt><trkpt lat="31.821834106695388" lon="-6.184427366631377"><ele>2517.0</ele><time>2026-05-04T11:15:44Z</time></trkpt><trkpt lat="31.821696325264185" lon="-6.184447458948237"><ele>2515.75</ele><time>2026-05-04T11:15:45Z</time></trkpt><trkpt lat="31.821572589151955" lon="-6.184486462833456"><ele>2514.5</ele><time>2026-05-04T11:15:46Z</time></trkpt><trkpt lat="31.82145696822125" lon="-6.184561887034708"><ele>2513.25</ele><time>2026-05-04T11:15:47Z</time></trkpt><trkpt lat="31.821348894619554" lon="-6.1846774591515485"><ele>2512.0</ele><time>2026-05-04T11:15:48Z</time></trkpt><trkpt lat="31.821251098620092" lon="-6.184818868033389"><ele>2514.0</ele><time>2026-05-04T11:15:49Z</time></trkpt><trkpt lat="31.821162755085247" lon="-6.184978759742478"><ele>2516.0</ele><time>2026-05-04T11:15:50Z</time></trkpt><trkpt lat="31.82106999895375" lon="-6.185150747094429"><ele>2518.0</ele><time>2026-05-04T11:15:51Z</time></trkpt><trkpt lat="31.820965296581353" lon="-6.185302260302085"><ele>2518.0</ele><time>2026-05-04T11:15:52Z</time></trkpt><trkpt lat="31.820860769798404" lon="-6.18542617892076"><ele>2518.0</ele><time>2026-05-04T11:15:53Z</time></trkpt><trkpt lat="31.82077166277203" lon="-6.185543691565222"><ele>2518.0</ele><time>2026-05-04T11:15:54Z</time></trkpt><trkpt lat="31.82071461608388" lon="-6.185680344348751"><ele>2518.0</ele><time>2026-05-04T11:15:55Z</time></trkpt><trkpt lat="31.820671369570594" lon="-6.185842424203633"><ele>2523.5</ele><time>2026-05-04T11:15:56Z</time></trkpt><trkpt lat="31.82063703229752" lon="-6.1860126993054525"><ele>2529.0</ele><time>2026-05-04T11:15:57Z</time></trkpt><trkpt lat="31.820609014322148" lon="-6.18617738908056"><ele>2534.5</ele><time>2026-05-04T11:15:58Z</time></trkpt><trkpt lat="31.8205676838378" lon="-6.186327130888433"><ele>2540.0</ele><time>2026-05-04T11:15:59Z</time></trkpt><trkpt lat="31.82048781374721" lon="-6.18646148141997"><ele>2540.333333333333</ele><time>2026-05-04T11:16:00Z</time></trkpt><trkpt lat="31.820376657770314" lon="-6.1865694675577725"><ele>2540.6666666666665</ele><time>2026-05-04T11:16:01Z</time></trkpt><trkpt lat="31.820243386821662" lon="-6.186654608553951"><ele>2541.0</ele><time>2026-05-04T11:16:02Z</time></trkpt><trkpt lat="31.820095015605798" lon="-6.186715495160126"><ele>2541.0</ele><time>2026-05-04T11:16:03Z</time></trkpt><trkpt lat="31.819944786804676" lon="-6.186779824008286"><ele>2541.0</ele><time>2026-05-04T11:16:04Z</time></trkpt><trkpt lat="31.819806974181994" lon="-6.186868620808082"><ele>2541.0</ele><time>2026-05-04T11:16:05Z</time></trkpt><trkpt lat="31.819680995095403" lon="-6.186975467292937"><ele>2541.0</ele><time>2026-05-04T11:16:06Z</time></trkpt><trkpt lat="31.81955446947822" lon="-6.187089894127656"><ele>2541.0</ele><time>2026-05-04T11:16:07Z</time></trkpt><trkpt lat="31.819424187546463" lon="-6.187201614001415"><ele>2541.0</ele><time>2026-05-04T11:16:08Z</time></trkpt><trkpt lat="31.819291146740436" lon="-6.187316579775286"><ele>2544.0</ele><time>2026-05-04T11:16:09Z</time></trkpt><trkpt lat="31.81916196397768" lon="-6.187435835427408"><ele>2547.0</ele><time>2026-05-04T11:16:10Z</time></trkpt><trkpt lat="31.819033770091114" lon="-6.1875556384758035"><ele>2550.0</ele><time>2026-05-04T11:16:11Z</time></trkpt><trkpt lat="31.81890766205604" lon="-6.187672403609094"><ele>2550.0</ele><time>2026-05-04T11:16:12Z</time></trkpt><trkpt lat="31.818791518106696" lon="-6.187804980029134"><ele>2550.0</ele><time>2026-05-04T11:16:13Z</time></trkpt><trkpt lat="31.818668173228442" lon="-6.187930690018496"><ele>2550.0</ele><time>2026-05-04T11:16:14Z</time></trkpt><trkpt lat="31.818554895550363" lon="-6.188066063106889"><ele>2554.6666666666665</ele><time>2026-05-04T11:16:15Z</time></trkpt><trkpt lat="31.81844067394876" lon="-6.188198967881894"><ele>2559.333333333333</ele><time>2026-05-04T11:16:16Z</time></trkpt><trkpt lat="31.818376266726347" lon="-6.188376931352109"><ele>2564.0</ele><time>2026-05-04T11:16:17Z</time></trkpt><trkpt lat="31.818306599228915" lon="-6.188541591052457"><ele>2564.0</ele><time>2026-05-04T11:16:18Z</time></trkpt><trkpt lat="31.81823938559543" lon="-6.1886830488983335"><ele>2564.0</ele><time>2026-05-04T11:16:19Z</time></trkpt><trkpt lat="31.818155520323934" lon="-6.188803780119691"><ele>2564.0</ele><time>2026-05-04T11:16:20Z</time></trkpt><trkpt lat="31.818056670239017" lon="-6.188902817214584"><ele>2564.0</ele><time>2026-05-04T11:16:21Z</time></trkpt><trkpt lat="31.817957401909283" lon="-6.188957873494864"><ele>2563.6</ele><time>2026-05-04T11:16:22Z</time></trkpt><trkpt lat="31.817891070774724" lon="-6.189019143239619"><ele>2563.2</ele><time>2026-05-04T11:16:23Z</time></trkpt><trkpt lat="31.817826414734657" lon="-6.18909885886673"><ele>2562.7999999999997</ele><time>2026-05-04T11:16:24Z</time></trkpt><trkpt lat="31.817804890727885" lon="-6.189219085296594"><ele>2562.3999999999996</ele><time>2026-05-04T11:16:25Z</time></trkpt><trkpt lat="31.81782194494684" lon="-6.189351186848603"><ele>2562.0</ele><time>2026-05-04T11:16:26Z</time></trkpt><trkpt lat="31.817870368704313" lon="-6.18948553545143"><ele>2562.0</ele><time>2026-05-04T11:16:27Z</time></trkpt><trkpt lat="31.817920176973217" lon="-6.189591707955965"><ele>2562.0</ele><time>2026-05-04T11:16:28Z</time></trkpt><trkpt lat="31.817956133749853" lon="-6.189677254883785"><ele>2562.0</ele><time>2026-05-04T11:16:29Z</time></trkpt><trkpt lat="31.817922622155663" lon="-6.189798318950495"><ele>2562.0</ele><time>2026-05-04T11:16:31Z</time></trkpt><trkpt lat="31.81778480018566" lon="-6.189858409751997"><ele>2562.0</ele><time>2026-05-04T11:16:33Z</time></trkpt><trkpt lat="31.81771159958131" lon="-6.189712917208095"><ele>2562.0</ele><time>2026-05-04T11:16:34Z</time></trkpt><trkpt lat="31.817681755945387" lon="-6.189580446134348"><ele>2562.0</ele><time>2026-05-04T11:16:35Z</time></trkpt><trkpt lat="31.817654251364097" lon="-6.189466822556137"><ele>2562.0</ele><time>2026-05-04T11:16:36Z</time></trkpt><trkpt lat="31.81762347569622" lon="-6.189339028827906"><ele>2562.0</ele><time>2026-05-04T11:16:37Z</time></trkpt><trkpt lat="31.817591403206023" lon="-6.189206926099708"><ele>2562.0</ele><time>2026-05-04T11:16:38Z</time></trkpt><trkpt lat="31.817561296760978" lon="-6.189084115267552"><ele>2564.0</ele><time>2026-05-04T11:16:39Z</time></trkpt><trkpt lat="31.817535204139375" lon="-6.188985716108434"><ele>2566.0</ele><time>2026-05-04T11:16:40Z</time></trkpt><trkpt lat="31.817503767291736" lon="-6.188899294111353"><ele>2568.0</ele><time>2026-05-04T11:16:41Z</time></trkpt><trkpt lat="31.817465522040262" lon="-6.18883733335639"><ele>2570.0</ele><time>2026-05-04T11:16:42Z</time></trkpt><trkpt lat="31.817404054406104" lon="-6.188762841179377"><ele>2572.0</ele><time>2026-05-04T11:16:44Z</time></trkpt><trkpt lat="31.81743826382767" lon="-6.188829070571427"><ele>2574.0</ele><time>2026-05-04T11:17:11Z</time></trkpt><trkpt lat="31.817488104875498" lon="-6.188885414818602"><ele>2574.0</ele><time>2026-05-04T11:17:19Z</time></trkpt><trkpt lat="31.81744342106905" lon="-6.1888240403864785"><ele>2574.0</ele><time>2026-05-04T11:17:49Z</time></trkpt><trkpt lat="31.81740340281094" lon="-6.188754680670851"><ele>2574.0</ele><time>2026-05-04T11:18:06Z</time></trkpt><trkpt lat="31.8172823006736" lon="-6.188748139153421"><ele>2574.0</ele><time>2026-05-04T11:21:35Z</time></trkpt><trkpt lat="31.817197365604457" lon="-6.188759857143336"><ele>2574.0</ele><time>2026-05-04T11:21:36Z</time></trkpt><trkpt lat="31.817112971659625" lon="-6.188777569011232"><ele>2574.0</ele><time>2026-05-04T11:21:37Z</time></trkpt><trkpt lat="31.81701799902393" lon="-6.188804549033474"><ele>2574.0</ele><time>2026-05-04T11:21:38Z</time></trkpt><trkpt lat="31.81692535331999" lon="-6.188839418499726"><ele>2574.0</ele><time>2026-05-04T11:21:39Z</time></trkpt><trkpt lat="31.816828988115" lon="-6.188878929410409"><ele>2574.0</ele><time>2026-05-04T11:21:40Z</time></trkpt><trkpt lat="31.816730313748604" lon="-6.188925314570587"><ele>2574.0</ele><time>2026-05-04T11:21:41Z</time></trkpt><trkpt lat="31.8166317583867" lon="-6.188977183609229"><ele>2574.0</ele><time>2026-05-04T11:21:42Z</time></trkpt><trkpt lat="31.816534237155675" lon="-6.189033582011151"><ele>2578.6</ele><time>2026-05-04T11:21:43Z</time></trkpt><trkpt lat="31.816436836889682" lon="-6.189092080801099"><ele>2583.2</ele><time>2026-05-04T11:21:44Z</time></trkpt><trkpt lat="31.816348337335743" lon="-6.189168018127097"><ele>2587.7999999999997</ele><time>2026-05-04T11:21:45Z</time></trkpt><trkpt lat="31.81625282231517" lon="-6.189227033457511"><ele>2592.3999999999996</ele><time>2026-05-04T11:21:46Z</time></trkpt><trkpt lat="31.81615939877017" lon="-6.189284057993643"><ele>2597.0</ele><time>2026-05-04T11:21:47Z</time></trkpt><trkpt lat="31.816060709687495" lon="-6.18932591162816"><ele>2596.6</ele><time>2026-05-04T11:21:48Z</time></trkpt><trkpt lat="31.815970333601733" lon="-6.18938116796017"><ele>2596.2</ele><time>2026-05-04T11:21:49Z</time></trkpt><trkpt lat="31.81590031841205" lon="-6.189444646776008"><ele>2595.8</ele><time>2026-05-04T11:21:50Z</time></trkpt><trkpt lat="31.815822442320805" lon="-6.189476714543739"><ele>2595.4</ele><time>2026-05-04T11:21:51Z</time></trkpt><trkpt lat="31.815729741704782" lon="-6.18947785419566"><ele>2595.0</ele><time>2026-05-04T11:21:52Z</time></trkpt><trkpt lat="31.815663343746362" lon="-6.189366483834281"><ele>2595.0</ele><time>2026-05-04T11:21:53Z</time></trkpt><trkpt lat="31.815586099332087" lon="-6.189333754728103"><ele>2595.0</ele><time>2026-05-04T11:21:54Z</time></trkpt><trkpt lat="31.815506016860766" lon="-6.189301685220568"><ele>2595.0</ele><time>2026-05-04T11:21:55Z</time></trkpt><trkpt lat="31.81542258384191" lon="-6.189317851538444"><ele>2595.0</ele><time>2026-05-04T11:21:56Z</time></trkpt><trkpt lat="31.815338301138734" lon="-6.189378305089037"><ele>2595.0</ele><time>2026-05-04T11:21:57Z</time></trkpt><trkpt lat="31.815261864831946" lon="-6.189455077409881"><ele>2595.0</ele><time>2026-05-04T11:21:58Z</time></trkpt><trkpt lat="31.815183114104663" lon="-6.189529514292014"><ele>2595.0</ele><time>2026-05-04T11:21:59Z</time></trkpt><trkpt lat="31.81511810247505" lon="-6.189614793309523"><ele>2595.0</ele><time>2026-05-04T11:22:00Z</time></trkpt><trkpt lat="31.815053265636486" lon="-6.189700629642579"><ele>2595.0</ele><time>2026-05-04T11:22:01Z</time></trkpt><trkpt lat="31.814997545015263" lon="-6.189774466603625"><ele>2595.0</ele><time>2026-05-04T11:22:02Z</time></trkpt><trkpt lat="31.81497062220435" lon="-6.18985856646606"><ele>2597.0</ele><time>2026-05-04T11:22:03Z</time></trkpt><trkpt lat="31.81495743052688" lon="-6.1899509603246035"><ele>2599.0</ele><time>2026-05-04T11:22:04Z</time></trkpt><trkpt lat="31.814972941786596" lon="-6.190049104785373"><ele>2601.0</ele><time>2026-05-04T11:22:05Z</time></trkpt><trkpt lat="31.815011158556032" lon="-6.190144664386257"><ele>2603.0</ele><time>2026-05-04T11:22:06Z</time></trkpt><trkpt lat="31.815060351518174" lon="-6.190231115813087"><ele>2605.0</ele><time>2026-05-04T11:22:07Z</time></trkpt><trkpt lat="31.815107753785615" lon="-6.190306943668821"><ele>2607.0</ele><time>2026-05-04T11:22:08Z</time></trkpt><trkpt lat="31.815153000653698" lon="-6.190379504828073"><ele>2607.6666666666665</ele><time>2026-05-04T11:22:09Z</time></trkpt><trkpt lat="31.815199518991605" lon="-6.1904496216362"><ele>2608.3333333333335</ele><time>2026-05-04T11:22:10Z</time></trkpt><trkpt lat="31.815252885601684" lon="-6.190513697841775"><ele>2609.0</ele><time>2026-05-04T11:22:11Z</time></trkpt><trkpt lat="31.815310344072575" lon="-6.190579362591561"><ele>2609.666666666667</ele><time>2026-05-04T11:22:12Z</time></trkpt><trkpt lat="31.815366590669267" lon="-6.190633131192613"><ele>2610.3333333333335</ele><time>2026-05-04T11:22:13Z</time></trkpt><trkpt lat="31.81542243450781" lon="-6.190693680554886"><ele>2611.0</ele><time>2026-05-04T11:22:14Z</time></trkpt><trkpt lat="31.815455642544823" lon="-6.19076670107569"><ele>2611.0</ele><time>2026-05-04T11:22:15Z</time></trkpt><trkpt lat="31.815447975381574" lon="-6.19084073587602"><ele>2611.0</ele><time>2026-05-04T11:22:16Z</time></trkpt><trkpt lat="31.81538973936778" lon="-6.190883252480264"><ele>2611.0</ele><time>2026-05-04T11:22:17Z</time></trkpt><trkpt lat="31.815272245747916" lon="-6.190871750425696"><ele>2611.0</ele><time>2026-05-04T11:22:19Z</time></trkpt><trkpt lat="31.815215783858722" lon="-6.190834186306109"><ele>2611.0</ele><time>2026-05-04T11:22:21Z</time></trkpt><trkpt lat="31.815128382248666" lon="-6.19078115073241"><ele>2611.0</ele><time>2026-05-04T11:22:30Z</time></trkpt><trkpt lat="31.81507227897984" lon="-6.190743519225136"><ele>2610.0</ele><time>2026-05-04T11:22:31Z</time></trkpt><trkpt lat="31.814948760714312" lon="-6.190656542951777"><ele>2609.0</ele><time>2026-05-04T11:22:33Z</time></trkpt><trkpt lat="31.81486259023554" lon="-6.190596193971884"><ele>2608.0</ele><time>2026-05-04T11:22:34Z</time></trkpt><trkpt lat="31.8147731038517" lon="-6.190541792814192"><ele>2607.0</ele><time>2026-05-04T11:22:35Z</time></trkpt><trkpt lat="31.814679481802248" lon="-6.1904857414658325"><ele>2607.0</ele><time>2026-05-04T11:22:36Z</time></trkpt><trkpt lat="31.814575772359913" lon="-6.190435665390973"><ele>2607.0</ele><time>2026-05-04T11:22:37Z</time></trkpt><trkpt lat="31.81446558299325" lon="-6.190436530872535"><ele>2607.0</ele><time>2026-05-04T11:22:38Z</time></trkpt><trkpt lat="31.814354858932745" lon="-6.190464977954302"><ele>2607.0</ele><time>2026-05-04T11:22:39Z</time></trkpt><trkpt lat="31.814236485798496" lon="-6.190504073293501"><ele>2607.3999999999996</ele><time>2026-05-04T11:22:40Z</time></trkpt><trkpt lat="31.814122185302924" lon="-6.190531960974574"><ele>2607.7999999999997</ele><time>2026-05-04T11:22:41Z</time></trkpt><trkpt lat="31.814018445149475" lon="-6.190552718077857"><ele>2608.2</ele><time>2026-05-04T11:22:42Z</time></trkpt><trkpt lat="31.813919713088403" lon="-6.190572472938506"><ele>2608.6</ele><time>2026-05-04T11:22:43Z</time></trkpt><trkpt lat="31.81381073176939" lon="-6.190577310955344"><ele>2609.0</ele><time>2026-05-04T11:22:44Z</time></trkpt><trkpt lat="31.81369425635773" lon="-6.190588413647917"><ele>2609.0</ele><time>2026-05-04T11:22:45Z</time></trkpt><trkpt lat="31.81357121268874" lon="-6.19054205451802"><ele>2609.0</ele><time>2026-05-04T11:22:45.999Z</time></trkpt><trkpt lat="31.813442270803574" lon="-6.1905366843511604"><ele>2609.0</ele><time>2026-05-04T11:22:46.999Z</time></trkpt><trkpt lat="31.813325973305474" lon="-6.190479357066445"><ele>2609.0</ele><time>2026-05-04T11:22:47.999Z</time></trkpt><trkpt lat="31.81321090896258" lon="-6.19043602435768"><ele>2607.25</ele><time>2026-05-04T11:22:48.999Z</time></trkpt><trkpt lat="31.813109214796466" lon="-6.190378478724635"><ele>2605.5</ele><time>2026-05-04T11:22:49.999Z</time></trkpt><trkpt lat="31.813021783637403" lon="-6.190301439674306"><ele>2603.75</ele><time>2026-05-04T11:22:50.999Z</time></trkpt><trkpt lat="31.812958044124766" lon="-6.190186761332414"><ele>2602.0</ele><time>2026-05-04T11:22:51.999Z</time></trkpt><trkpt lat="31.812920243491703" lon="-6.190043633248579"><ele>2602.0</ele><time>2026-05-04T11:22:52.999Z</time></trkpt><trkpt lat="31.81288866177899" lon="-6.189889627423023"><ele>2602.0</ele><time>2026-05-04T11:22:53.999Z</time></trkpt><trkpt lat="31.812869295722944" lon="-6.189730024960884"><ele>2602.0</ele><time>2026-05-04T11:22:54.999Z</time></trkpt><trkpt lat="31.81286372884896" lon="-6.1895501458907685"><ele>2602.0</ele><time>2026-05-04T11:22:55.999Z</time></trkpt><trkpt lat="31.812857027707807" lon="-6.189379160115726"><ele>2602.5</ele><time>2026-05-04T11:22:56.999Z</time></trkpt><trkpt lat="31.812853147789358" lon="-6.189219226926629"><ele>2603.0</ele><time>2026-05-04T11:22:57.999Z</time></trkpt><trkpt lat="31.812853241962507" lon="-6.189069679742303"><ele>2603.5</ele><time>2026-05-04T11:22:58.999Z</time></trkpt><trkpt lat="31.812845846199547" lon="-6.18892422452154"><ele>2604.0</ele><time>2026-05-04T11:22:59.999Z</time></trkpt><trkpt lat="31.812864840935536" lon="-6.188771046749058"><ele>2604.0</ele><time>2026-05-04T11:23:00.999Z</time></trkpt><trkpt lat="31.812902268462164" lon="-6.1886181274659045"><ele>2604.0</ele><time>2026-05-04T11:23:01.999Z</time></trkpt><trkpt lat="31.812942626662487" lon="-6.1884744244813445"><ele>2604.0</ele><time>2026-05-04T11:23:02.999Z</time></trkpt><trkpt lat="31.81297698934045" lon="-6.188341646170063"><ele>2604.0</ele><time>2026-05-04T11:23:03.999Z</time></trkpt><trkpt lat="31.812996459774887" lon="-6.188233319706696"><ele>2604.0</ele><time>2026-05-04T11:23:04.999Z</time></trkpt><trkpt lat="31.81299423760964" lon="-6.1881391778384"><ele>2604.0</ele><time>2026-05-04T11:23:05.999Z</time></trkpt><trkpt lat="31.8129551012494" lon="-6.188054195149418"><ele>2604.0</ele><time>2026-05-04T11:23:06.999Z</time></trkpt><trkpt lat="31.812879503165465" lon="-6.1880031552884756"><ele>2604.0</ele><time>2026-05-04T11:23:07.999Z</time></trkpt><trkpt lat="31.81278904045137" lon="-6.188067757300763"><ele>2604.0</ele><time>2026-05-04T11:23:08.999Z</time></trkpt><trkpt lat="31.81273530301996" lon="-6.1881433507852455"><ele>2604.0</ele><time>2026-05-04T11:23:09.999Z</time></trkpt><trkpt lat="31.812660708134263" lon="-6.188240066060143"><ele>2601.25</ele><time>2026-05-04T11:23:10.999Z</time></trkpt><trkpt lat="31.81257034797909" lon="-6.188340650213676"><ele>2598.5</ele><time>2026-05-04T11:23:11.999Z</time></trkpt><trkpt lat="31.812472095966502" lon="-6.188449893497225"><ele>2595.75</ele><time>2026-05-04T11:23:12.999Z</time></trkpt><trkpt lat="31.812364452070987" lon="-6.188569820428356"><ele>2593.0</ele><time>2026-05-04T11:23:13.999Z</time></trkpt><trkpt lat="31.812263643894717" lon="-6.188681910853005"><ele>2593.0</ele><time>2026-05-04T11:23:14.999Z</time></trkpt><trkpt lat="31.812176259913564" lon="-6.188790959595784"><ele>2593.0</ele><time>2026-05-04T11:23:15.999Z</time></trkpt><trkpt lat="31.812110687366864" lon="-6.188904283696491"><ele>2593.0</ele><time>2026-05-04T11:23:16.999Z</time></trkpt><trkpt lat="31.812066492099785" lon="-6.189026102999541"><ele>2593.0</ele><time>2026-05-04T11:23:17.999Z</time></trkpt><trkpt lat="31.8120196851236" lon="-6.18915648638845"><ele>2592.5</ele><time>2026-05-04T11:23:18.999Z</time></trkpt><trkpt lat="31.811950835944597" lon="-6.18928464279094"><ele>2592.0</ele><time>2026-05-04T11:23:19.999Z</time></trkpt><trkpt lat="31.81185587191239" lon="-6.189403738573637"><ele>2591.5</ele><time>2026-05-04T11:23:20.999Z</time></trkpt><trkpt lat="31.811738026480317" lon="-6.189517543444489"><ele>2591.0</ele><time>2026-05-04T11:23:21.999Z</time></trkpt><trkpt lat="31.81160038416495" lon="-6.189619131049448"><ele>2591.0</ele><time>2026-05-04T11:23:22.999Z</time></trkpt><trkpt lat="31.811455638159725" lon="-6.189708009777813"><ele>2591.0</ele><time>2026-05-04T11:23:23.999Z</time></trkpt><trkpt lat="31.81131744155178" lon="-6.189789510295796"><ele>2591.0</ele><time>2026-05-04T11:23:24.999Z</time></trkpt><trkpt lat="31.81119083614547" lon="-6.189877141520945"><ele>2588.25</ele><time>2026-05-04T11:23:25.999Z</time></trkpt><trkpt lat="31.811070066975763" lon="-6.189973554688773"><ele>2585.5</ele><time>2026-05-04T11:23:26.999Z</time></trkpt><trkpt lat="31.810944052764565" lon="-6.190053873536145"><ele>2582.75</ele><time>2026-05-04T11:23:27.999Z</time></trkpt><trkpt lat="31.810797644558917" lon="-6.190087970254247"><ele>2580.0</ele><time>2026-05-04T11:23:28.999Z</time></trkpt><trkpt lat="31.810655139964286" lon="-6.190121337186889"><ele>2580.0</ele><time>2026-05-04T11:23:29.999Z</time></trkpt><trkpt lat="31.810520305479855" lon="-6.190170878454725"><ele>2580.0</ele><time>2026-05-04T11:23:31Z</time></trkpt><trkpt lat="31.810391560811816" lon="-6.190252233271765"><ele>2580.0</ele><time>2026-05-04T11:23:32Z</time></trkpt><trkpt lat="31.81026810853514" lon="-6.190348193838058"><ele>2580.0</ele><time>2026-05-04T11:23:33Z</time></trkpt><trkpt lat="31.810140557162075" lon="-6.190409814258849"><ele>2580.75</ele><time>2026-05-04T11:23:34Z</time></trkpt><trkpt lat="31.810025446047888" lon="-6.190446766461018"><ele>2581.5</ele><time>2026-05-04T11:23:35Z</time></trkpt><trkpt lat="31.809908424595875" lon="-6.190455080732056"><ele>2582.25</ele><time>2026-05-04T11:23:36Z</time></trkpt><trkpt lat="31.80979226842492" lon="-6.190428282193707"><ele>2583.0</ele><time>2026-05-04T11:23:37Z</time></trkpt><trkpt lat="31.809674006541684" lon="-6.19036401854427"><ele>2583.0</ele><time>2026-05-04T11:23:38Z</time></trkpt><trkpt lat="31.809555201721658" lon="-6.190280763943905"><ele>2583.0</ele><time>2026-05-04T11:23:39Z</time></trkpt><trkpt lat="31.809429171128077" lon="-6.190197540917475"><ele>2583.0</ele><time>2026-05-04T11:23:40Z</time></trkpt><trkpt lat="31.809298738891545" lon="-6.190111814284974"><ele>2583.0</ele><time>2026-05-04T11:23:41Z</time></trkpt><trkpt lat="31.809174765109162" lon="-6.190006657420367"><ele>2580.6666666666665</ele><time>2026-05-04T11:23:42Z</time></trkpt><trkpt lat="31.809059860593493" lon="-6.189877084739854"><ele>2578.333333333333</ele><time>2026-05-04T11:23:43Z</time></trkpt><trkpt lat="31.808954203359175" lon="-6.189733932078526"><ele>2576.0</ele><time>2026-05-04T11:23:44Z</time></trkpt><trkpt lat="31.808851531633238" lon="-6.189586571453228"><ele>2581.6666666666665</ele><time>2026-05-04T11:23:45Z</time></trkpt><trkpt lat="31.80875575231739" lon="-6.189437247015208"><ele>2587.3333333333335</ele><time>2026-05-04T11:23:46Z</time></trkpt><trkpt lat="31.808671778842093" lon="-6.189280353147223"><ele>2593.0</ele><time>2026-05-04T11:23:47Z</time></trkpt><trkpt lat="31.80857794023208" lon="-6.1891343266647105"><ele>2597.3333333333335</ele><time>2026-05-04T11:23:48Z</time></trkpt><trkpt lat="31.80849630371855" lon="-6.18898079621815"><ele>2601.6666666666665</ele><time>2026-05-04T11:23:49Z</time></trkpt><trkpt lat="31.808420890470845" lon="-6.188826136862805"><ele>2606.0</ele><time>2026-05-04T11:23:50Z</time></trkpt><trkpt lat="31.80836237459035" lon="-6.1886696598066475"><ele>2602.75</ele><time>2026-05-04T11:23:51Z</time></trkpt><trkpt lat="31.80828037334302" lon="-6.188538207860403"><ele>2599.5</ele><time>2026-05-04T11:23:52Z</time></trkpt><trkpt lat="31.80821431754415" lon="-6.188403469648116"><ele>2596.25</ele><time>2026-05-04T11:23:53Z</time></trkpt><trkpt lat="31.808172476305714" lon="-6.188264004851867"><ele>2593.0</ele><time>2026-05-04T11:23:54Z</time></trkpt><trkpt lat="31.808119181852952" lon="-6.188154698306923"><ele>2593.0</ele><time>2026-05-04T11:23:55Z</time></trkpt><trkpt lat="31.808057661847744" lon="-6.188087379084623"><ele>2593.0</ele><time>2026-05-04T11:23:56Z</time></trkpt><trkpt lat="31.80801245918381" lon="-6.1880222258497515"><ele>2593.0</ele><time>2026-05-04T11:23:57Z</time></trkpt><trkpt lat="31.807928877587102" lon="-6.18804126688308"><ele>2593.0</ele><time>2026-05-04T11:23:58Z</time></trkpt><trkpt lat="31.807883686418258" lon="-6.188122220631154"><ele>2593.0</ele><time>2026-05-04T11:23:59Z</time></trkpt><trkpt lat="31.807894183648134" lon="-6.188221078227083"><ele>2593.0</ele><time>2026-05-04T11:24:00Z</time></trkpt><trkpt lat="31.807848436403745" lon="-6.1883403661462335"><ele>2589.5</ele><time>2026-05-04T11:24:01Z</time></trkpt><trkpt lat="31.8077706077526" lon="-6.188474122207426"><ele>2586.0</ele><time>2026-05-04T11:24:02Z</time></trkpt><trkpt lat="31.807641293322828" lon="-6.188564556649859"><ele>2582.5</ele><time>2026-05-04T11:24:03Z</time></trkpt><trkpt lat="31.80752607041917" lon="-6.188649509274388"><ele>2579.0</ele><time>2026-05-04T11:24:04Z</time></trkpt><trkpt lat="31.807436039186285" lon="-6.188734709445618"><ele>2578.6</ele><time>2026-05-04T11:24:05Z</time></trkpt><trkpt lat="31.80737862580415" lon="-6.188837215760402"><ele>2578.2</ele><time>2026-05-04T11:24:06Z</time></trkpt><trkpt lat="31.807365332406114" lon="-6.188945650125737"><ele>2577.7999999999997</ele><time>2026-05-04T11:24:07Z</time></trkpt><trkpt lat="31.807418374272263" lon="-6.189057926602906"><ele>2577.3999999999996</ele><time>2026-05-04T11:24:08Z</time></trkpt><trkpt lat="31.80742284041749" lon="-6.189163533104736"><ele>2577.0</ele><time>2026-05-04T11:24:09Z</time></trkpt><trkpt lat="31.807409128879108" lon="-6.18928036301471"><ele>2573.5</ele><time>2026-05-04T11:24:10Z</time></trkpt><trkpt lat="31.807318721929157" lon="-6.189400327551846"><ele>2570.0</ele><time>2026-05-04T11:24:11Z</time></trkpt><trkpt lat="31.807210346962123" lon="-6.18950313225229"><ele>2566.5</ele><time>2026-05-04T11:24:12Z</time></trkpt><trkpt lat="31.8071310864445" lon="-6.189619406453642"><ele>2563.0</ele><time>2026-05-04T11:24:13Z</time></trkpt><trkpt lat="31.807047073437367" lon="-6.189744887731827"><ele>2565.75</ele><time>2026-05-04T11:24:14Z</time></trkpt><trkpt lat="31.80696773236172" lon="-6.1898649938767765"><ele>2568.5</ele><time>2026-05-04T11:24:15Z</time></trkpt><trkpt lat="31.806890550269543" lon="-6.189975352028189"><ele>2571.25</ele><time>2026-05-04T11:24:16Z</time></trkpt><trkpt lat="31.80679921500882" lon="-6.190074357859002"><ele>2574.0</ele><time>2026-05-04T11:24:17Z</time></trkpt><trkpt lat="31.806712207566935" lon="-6.190151218595478"><ele>2574.0</ele><time>2026-05-04T11:24:18Z</time></trkpt><trkpt lat="31.806653192103685" lon="-6.19023115884697"><ele>2574.0</ele><time>2026-05-04T11:24:19Z</time></trkpt><trkpt lat="31.806636956197142" lon="-6.190323062807848"><ele>2574.0</ele><time>2026-05-04T11:24:20Z</time></trkpt><trkpt lat="31.80666660190445" lon="-6.190448425502731"><ele>2574.0</ele><time>2026-05-04T11:24:21Z</time></trkpt><trkpt lat="31.806646894659217" lon="-6.190606085373746"><ele>2574.0</ele><time>2026-05-04T11:24:22Z</time></trkpt><trkpt lat="31.80660944676559" lon="-6.190772331689451"><ele>2571.5</ele><time>2026-05-04T11:24:23Z</time></trkpt><trkpt lat="31.80653243363956" lon="-6.190927124183204"><ele>2569.0</ele><time>2026-05-04T11:24:24Z</time></trkpt><trkpt lat="31.806561369559592" lon="-6.191085157186054"><ele>2566.5</ele><time>2026-05-04T11:24:25Z</time></trkpt><trkpt lat="31.806574924292494" lon="-6.191236686718982"><ele>2564.0</ele><time>2026-05-04T11:24:26Z</time></trkpt><trkpt lat="31.80657311363151" lon="-6.191378266409665"><ele>2564.0</ele><time>2026-05-04T11:24:27Z</time></trkpt><trkpt lat="31.80656644787754" lon="-6.191504990596159"><ele>2564.0</ele><time>2026-05-04T11:24:28Z</time></trkpt><trkpt lat="31.806547419929924" lon="-6.19161632098776"><ele>2564.0</ele><time>2026-05-04T11:24:29Z</time></trkpt><trkpt lat="31.806489779611077" lon="-6.191703820033303"><ele>2564.0</ele><time>2026-05-04T11:24:30Z</time></trkpt><trkpt lat="31.806392302548982" lon="-6.191761453165675"><ele>2564.0</ele><time>2026-05-04T11:24:31Z</time></trkpt><trkpt lat="31.806268417089463" lon="-6.191786220543067"><ele>2566.75</ele><time>2026-05-04T11:24:32Z</time></trkpt><trkpt lat="31.806142481367814" lon="-6.1917955389265655"><ele>2569.5</ele><time>2026-05-04T11:24:33Z</time></trkpt><trkpt lat="31.806017659183496" lon="-6.191842281270173"><ele>2572.25</ele><time>2026-05-04T11:24:34Z</time></trkpt><trkpt lat="31.805903305042218" lon="-6.191919821751543"><ele>2575.0</ele><time>2026-05-04T11:24:35Z</time></trkpt><trkpt lat="31.805810428549123" lon="-6.19200487892342"><ele>2575.0</ele><time>2026-05-04T11:24:36Z</time></trkpt><trkpt lat="31.80575154302344" lon="-6.192121603601053"><ele>2575.0</ele><time>2026-05-04T11:24:37Z</time></trkpt><trkpt lat="31.805736882900145" lon="-6.192290520613278"><ele>2575.0</ele><time>2026-05-04T11:24:38Z</time></trkpt><trkpt lat="31.805718346599733" lon="-6.192464482027778"><ele>2575.0</ele><time>2026-05-04T11:24:39Z</time></trkpt><trkpt lat="31.805658178985137" lon="-6.1926206009951885"><ele>2571.25</ele><time>2026-05-04T11:24:40Z</time></trkpt><trkpt lat="31.80557050474406" lon="-6.192730921701322"><ele>2567.5</ele><time>2026-05-04T11:24:41Z</time></trkpt><trkpt lat="31.805490844568673" lon="-6.192829669807293"><ele>2563.75</ele><time>2026-05-04T11:24:42Z</time></trkpt><trkpt lat="31.80546807186864" lon="-6.192953357988049"><ele>2560.0</ele><time>2026-05-04T11:24:43Z</time></trkpt><trkpt lat="31.805504138191203" lon="-6.1930796863404804"><ele>2559.2</ele><time>2026-05-04T11:24:44Z</time></trkpt><trkpt lat="31.80559067676054" lon="-6.193194896842499"><ele>2558.4</ele><time>2026-05-04T11:24:45Z</time></trkpt><trkpt lat="31.805679626747608" lon="-6.193290644250129"><ele>2557.6</ele><time>2026-05-04T11:24:46Z</time></trkpt><trkpt lat="31.805711749466745" lon="-6.193382267699917"><ele>2556.8</ele><time>2026-05-04T11:24:47Z</time></trkpt><trkpt lat="31.805695069977418" lon="-6.193483337241328"><ele>2556.0</ele><time>2026-05-04T11:24:48Z</time></trkpt><trkpt lat="31.805635808909084" lon="-6.19358372489559"><ele>2556.0</ele><time>2026-05-04T11:24:49Z</time></trkpt><trkpt lat="31.80552894413647" lon="-6.193679425428712"><ele>2556.0</ele><time>2026-05-04T11:24:50Z</time></trkpt><trkpt lat="31.805422954847337" lon="-6.193774140586811"><ele>2556.0</ele><time>2026-05-04T11:24:51Z</time></trkpt><trkpt lat="31.805327148283823" lon="-6.19388039309331"><ele>2556.0</ele><time>2026-05-04T11:24:52Z</time></trkpt><trkpt lat="31.805230093374217" lon="-6.19400358347935"><ele>2559.5</ele><time>2026-05-04T11:24:53Z</time></trkpt><trkpt lat="31.805136885040874" lon="-6.194115609354549"><ele>2563.0</ele><time>2026-05-04T11:24:54Z</time></trkpt><trkpt lat="31.805053960297236" lon="-6.194219311707089"><ele>2566.5</ele><time>2026-05-04T11:24:55Z</time></trkpt><trkpt lat="31.80499490199099" lon="-6.194316792623486"><ele>2570.0</ele><time>2026-05-04T11:24:56Z</time></trkpt><trkpt lat="31.804977916634584" lon="-6.19443698340418"><ele>2570.0</ele><time>2026-05-04T11:24:57Z</time></trkpt><trkpt lat="31.805015074125283" lon="-6.194577312129193"><ele>2570.0</ele><time>2026-05-04T11:24:58Z</time></trkpt><trkpt lat="31.805061056551516" lon="-6.194717441933676"><ele>2570.0</ele><time>2026-05-04T11:24:59Z</time></trkpt><trkpt lat="31.80506313305669" lon="-6.194871283428923"><ele>2570.0</ele><time>2026-05-04T11:25:00Z</time></trkpt><trkpt lat="31.8050261436652" lon="-6.195045623889837"><ele>2567.0</ele><time>2026-05-04T11:25:01Z</time></trkpt><trkpt lat="31.805015819088204" lon="-6.195235672479261"><ele>2564.0</ele><time>2026-05-04T11:25:02Z</time></trkpt><trkpt lat="31.804980650407206" lon="-6.195393343721258"><ele>2561.0</ele><time>2026-05-04T11:25:03Z</time></trkpt><trkpt lat="31.80494515027613" lon="-6.195545955914007"><ele>2558.0</ele><time>2026-05-04T11:25:04Z</time></trkpt><trkpt lat="31.80491207734899" lon="-6.19568674980043"><ele>2555.25</ele><time>2026-05-04T11:25:05Z</time></trkpt><trkpt lat="31.80486521826018" lon="-6.195831603096526"><ele>2552.5</ele><time>2026-05-04T11:25:06Z</time></trkpt><trkpt lat="31.804751358500624" lon="-6.195971764903339"><ele>2549.75</ele><time>2026-05-04T11:25:07Z</time></trkpt><trkpt lat="31.80464424893372" lon="-6.196071757269604"><ele>2547.0</ele><time>2026-05-04T11:25:08Z</time></trkpt><trkpt lat="31.80453872127474" lon="-6.196169022740322"><ele>2547.0</ele><time>2026-05-04T11:25:09Z</time></trkpt><trkpt lat="31.804424328010576" lon="-6.1962547315797485"><ele>2547.0</ele><time>2026-05-04T11:25:10Z</time></trkpt><trkpt lat="31.80429533221006" lon="-6.196289445246619"><ele>2547.0</ele><time>2026-05-04T11:25:11Z</time></trkpt><trkpt lat="31.804183766508682" lon="-6.1963142850857595"><ele>2547.0</ele><time>2026-05-04T11:25:12Z</time></trkpt><trkpt lat="31.804071315520233" lon="-6.196353894405453"><ele>2546.0</ele><time>2026-05-04T11:25:13Z</time></trkpt><trkpt lat="31.803996112728804" lon="-6.196382869675916"><ele>2545.0</ele><time>2026-05-04T11:25:13.999Z</time></trkpt><trkpt lat="31.803951211495935" lon="-6.196481292992395"><ele>2544.0</ele><time>2026-05-04T11:25:14.999Z</time></trkpt><trkpt lat="31.803934950802013" lon="-6.196588385635874"><ele>2543.0</ele><time>2026-05-04T11:25:15.999Z</time></trkpt><trkpt lat="31.80387933116258" lon="-6.196748934494751"><ele>2542.0</ele><time>2026-05-04T11:25:16.999Z</time></trkpt><trkpt lat="31.803808507915214" lon="-6.19692538601748"><ele>2542.0</ele><time>2026-05-04T11:25:17.999Z</time></trkpt><trkpt lat="31.80373193704331" lon="-6.197109453710882"><ele>2542.0</ele><time>2026-05-04T11:25:18.999Z</time></trkpt><trkpt lat="31.80365914691016" lon="-6.197285094897273"><ele>2542.0</ele><time>2026-05-04T11:25:19.999Z</time></trkpt><trkpt lat="31.80360900806941" lon="-6.1974497225925305"><ele>2537.5</ele><time>2026-05-04T11:25:20.999Z</time></trkpt><trkpt lat="31.803565913582123" lon="-6.197614336554454"><ele>2533.0</ele><time>2026-05-04T11:25:21.999Z</time></trkpt><trkpt lat="31.803555180398053" lon="-6.197763039392879"><ele>2528.5</ele><time>2026-05-04T11:25:22.999Z</time></trkpt><trkpt lat="31.803543149945572" lon="-6.1979332741059725"><ele>2524.0</ele><time>2026-05-04T11:25:23.999Z</time></trkpt><trkpt lat="31.803547183565442" lon="-6.198089662022789"><ele>2520.5</ele><time>2026-05-04T11:25:24.999Z</time></trkpt><trkpt lat="31.803539657653975" lon="-6.198260695858818"><ele>2517.0</ele><time>2026-05-04T11:25:25.999Z</time></trkpt><trkpt lat="31.803516164145748" lon="-6.198422266824572"><ele>2513.5</ele><time>2026-05-04T11:25:26.999Z</time></trkpt><trkpt lat="31.80349108502777" lon="-6.198567142033671"><ele>2510.0</ele><time>2026-05-04T11:25:27.999Z</time></trkpt><trkpt lat="31.80348234166659" lon="-6.198672833914303"><ele>2510.0</ele><time>2026-05-04T11:25:28.999Z</time></trkpt><trkpt lat="31.803496078259446" lon="-6.198752018357345"><ele>2510.0</ele><time>2026-05-04T11:25:29.999Z</time></trkpt><trkpt lat="31.803539714472528" lon="-6.19883149486098"><ele>2510.0</ele><time>2026-05-04T11:25:30.999Z</time></trkpt><trkpt lat="31.803626740406887" lon="-6.198865966453248"><ele>2510.0</ele><time>2026-05-04T11:25:31.999Z</time></trkpt><trkpt lat="31.803708757003502" lon="-6.198946705858101"><ele>2510.0</ele><time>2026-05-04T11:25:32.999Z</time></trkpt><trkpt lat="31.803769745466568" lon="-6.199006243886005"><ele>2510.0</ele><time>2026-05-04T11:25:33.999Z</time></trkpt><trkpt lat="31.803789681309304" lon="-6.199096617859911"><ele>2510.75</ele><time>2026-05-04T11:25:34.999Z</time></trkpt><trkpt lat="31.80377013593038" lon="-6.199215304936208"><ele>2511.5</ele><time>2026-05-04T11:25:35.999Z</time></trkpt><trkpt lat="31.80372323911734" lon="-6.199340534249846"><ele>2512.25</ele><time>2026-05-04T11:25:37Z</time></trkpt><trkpt lat="31.80368183460908" lon="-6.199473997873416"><ele>2513.0</ele><time>2026-05-04T11:25:38Z</time></trkpt><trkpt lat="31.80363217357514" lon="-6.199590053080296"><ele>2513.0</ele><time>2026-05-04T11:25:39Z</time></trkpt><trkpt lat="31.80357110085557" lon="-6.199695456218505"><ele>2513.0</ele><time>2026-05-04T11:25:40Z</time></trkpt><trkpt lat="31.803495860417986" lon="-6.1997722140364795"><ele>2513.0</ele><time>2026-05-04T11:25:41Z</time></trkpt><trkpt lat="31.80339876710509" lon="-6.1998086328282085"><ele>2513.0</ele><time>2026-05-04T11:25:42Z</time></trkpt><trkpt lat="31.803292568050328" lon="-6.1998483374781435"><ele>2513.0</ele><time>2026-05-04T11:25:43Z</time></trkpt><trkpt lat="31.803189756708786" lon="-6.199902858822113"><ele>2514.5</ele><time>2026-05-04T11:25:44Z</time></trkpt><trkpt lat="31.80314328933707" lon="-6.200006275212548"><ele>2516.0</ele><time>2026-05-04T11:25:45Z</time></trkpt><trkpt lat="31.803069014692184" lon="-6.200126291903398"><ele>2517.5</ele><time>2026-05-04T11:25:46Z</time></trkpt><trkpt lat="31.80299780467818" lon="-6.200245503776577"><ele>2519.0</ele><time>2026-05-04T11:25:47Z</time></trkpt><trkpt lat="31.802931322346346" lon="-6.200358765627041"><ele>2519.0</ele><time>2026-05-04T11:25:48Z</time></trkpt><trkpt lat="31.802871540791063" lon="-6.200470837266035"><ele>2519.0</ele><time>2026-05-04T11:25:49Z</time></trkpt><trkpt lat="31.80281259442615" lon="-6.20058099943963"><ele>2519.0</ele><time>2026-05-04T11:25:50Z</time></trkpt><trkpt lat="31.802753490629573" lon="-6.200691453958828"><ele>2519.0</ele><time>2026-05-04T11:25:51Z</time></trkpt><trkpt lat="31.802740726327844" lon="-6.200801473328135"><ele>2519.0</ele><time>2026-05-04T11:25:52Z</time></trkpt><trkpt lat="31.802743910420645" lon="-6.200911560254986"><ele>2515.4</ele><time>2026-05-04T11:25:53Z</time></trkpt><trkpt lat="31.802793650336174" lon="-6.200978476708889"><ele>2511.8</ele><time>2026-05-04T11:25:54Z</time></trkpt><trkpt lat="31.802854888015904" lon="-6.20108025178393"><ele>2508.2</ele><time>2026-05-04T11:25:55Z</time></trkpt><trkpt lat="31.802931531342264" lon="-6.201160766743553"><ele>2504.6</ele><time>2026-05-04T11:25:56Z</time></trkpt><trkpt lat="31.80300484134114" lon="-6.201256353941367"><ele>2501.0</ele><time>2026-05-04T11:25:57Z</time></trkpt><trkpt lat="31.80305043128988" lon="-6.2013627613464735"><ele>2498.5</ele><time>2026-05-04T11:25:58Z</time></trkpt><trkpt lat="31.803009167069757" lon="-6.20151517884573"><ele>2496.0</ele><time>2026-05-04T11:25:59Z</time></trkpt><trkpt lat="31.803003699162083" lon="-6.201654083942091"><ele>2493.5</ele><time>2026-05-04T11:26:00Z</time></trkpt><trkpt lat="31.80297337523304" lon="-6.201802359895774"><ele>2491.0</ele><time>2026-05-04T11:26:01Z</time></trkpt><trkpt lat="31.802936045883644" lon="-6.2019297870369074"><ele>2491.0</ele><time>2026-05-04T11:26:02Z</time></trkpt><trkpt lat="31.80287097988662" lon="-6.2020370191063545"><ele>2491.0</ele><time>2026-05-04T11:26:03Z</time></trkpt><trkpt lat="31.802798431359754" lon="-6.202127849937584"><ele>2491.0</ele><time>2026-05-04T11:26:04Z</time></trkpt><trkpt lat="31.80270185889145" lon="-6.202191335607262"><ele>2491.0</ele><time>2026-05-04T11:26:05Z</time></trkpt><trkpt lat="31.802587888718495" lon="-6.202218228115227"><ele>2491.0</ele><time>2026-05-04T11:26:06Z</time></trkpt><trkpt lat="31.80249463606461" lon="-6.202266289774873"><ele>2493.6</ele><time>2026-05-04T11:26:07Z</time></trkpt><trkpt lat="31.802402652525764" lon="-6.202320723364294"><ele>2496.2</ele><time>2026-05-04T11:26:08Z</time></trkpt><trkpt lat="31.80237661653252" lon="-6.202410467950137"><ele>2498.8</ele><time>2026-05-04T11:26:09Z</time></trkpt><trkpt lat="31.802344762844875" lon="-6.202520996794351"><ele>2501.4</ele><time>2026-05-04T11:26:10Z</time></trkpt><trkpt lat="31.80229631022176" lon="-6.20265093416497"><ele>2504.0</ele><time>2026-05-04T11:26:11Z</time></trkpt><trkpt lat="31.802246040632678" lon="-6.202792754559133"><ele>2504.0</ele><time>2026-05-04T11:26:12Z</time></trkpt><trkpt lat="31.802195460623906" lon="-6.202938555221686"><ele>2504.0</ele><time>2026-05-04T11:26:13Z</time></trkpt><trkpt lat="31.802158250466636" lon="-6.203102935798316"><ele>2504.0</ele><time>2026-05-04T11:26:14Z</time></trkpt><trkpt lat="31.802108055331743" lon="-6.203251528077754"><ele>2504.0</ele><time>2026-05-04T11:26:15Z</time></trkpt><trkpt lat="31.802050867320922" lon="-6.203385852964735"><ele>2499.5</ele><time>2026-05-04T11:26:16Z</time></trkpt><trkpt lat="31.802020415562733" lon="-6.203491262645763"><ele>2495.0</ele><time>2026-05-04T11:26:17Z</time></trkpt><trkpt lat="31.80199507553386" lon="-6.203609921866054"><ele>2490.5</ele><time>2026-05-04T11:26:18Z</time></trkpt><trkpt lat="31.80207294856245" lon="-6.20370883677818"><ele>2486.0</ele><time>2026-05-04T11:26:19Z</time></trkpt><trkpt lat="31.802131410716555" lon="-6.203861996485558"><ele>2486.0</ele><time>2026-05-04T11:26:20Z</time></trkpt><trkpt lat="31.802191405639967" lon="-6.203989354694439"><ele>2486.0</ele><time>2026-05-04T11:26:21Z</time></trkpt><trkpt lat="31.80225032997589" lon="-6.204108866902766"><ele>2486.0</ele><time>2026-05-04T11:26:22Z</time></trkpt><trkpt lat="31.80231061458249" lon="-6.20419301238247"><ele>2486.0</ele><time>2026-05-04T11:26:23Z</time></trkpt><trkpt lat="31.802401863720288" lon="-6.204245023869896"><ele>2486.0</ele><time>2026-05-04T11:26:24Z</time></trkpt><trkpt lat="31.802538598429777" lon="-6.204205770825877"><ele>2488.0</ele><time>2026-05-04T11:26:25Z</time></trkpt><trkpt lat="31.802654356461034" lon="-6.204234164236611"><ele>2490.0</ele><time>2026-05-04T11:26:26Z</time></trkpt><trkpt lat="31.802755332637247" lon="-6.204264385560993"><ele>2492.0</ele><time>2026-05-04T11:26:27Z</time></trkpt><trkpt lat="31.802834691870725" lon="-6.204353907783781"><ele>2494.0</ele><time>2026-05-04T11:26:28Z</time></trkpt><trkpt lat="31.802892971526024" lon="-6.2044842068638175"><ele>2485.75</ele><time>2026-05-04T11:26:29Z</time></trkpt><trkpt lat="31.80292205627921" lon="-6.20464269450049"><ele>2477.5</ele><time>2026-05-04T11:26:30Z</time></trkpt><trkpt lat="31.80292698743099" lon="-6.204803583080635"><ele>2469.25</ele><time>2026-05-04T11:26:31Z</time></trkpt><trkpt lat="31.802930250309522" lon="-6.204978598331078"><ele>2461.0</ele><time>2026-05-04T11:26:32Z</time></trkpt><trkpt lat="31.802927715517185" lon="-6.205173006089256"><ele>2460.666666666667</ele><time>2026-05-04T11:26:33Z</time></trkpt><trkpt lat="31.802920205338996" lon="-6.205378972506169"><ele>2460.3333333333335</ele><time>2026-05-04T11:26:34Z</time></trkpt><trkpt lat="31.8029096349196" lon="-6.205588027746704"><ele>2460.0</ele><time>2026-05-04T11:26:35Z</time></trkpt><trkpt lat="31.802891453846375" lon="-6.205778784774943"><ele>2459.0</ele><time>2026-05-04T11:26:36Z</time></trkpt><trkpt lat="31.80287222847175" lon="-6.20596920227346"><ele>2458.0</ele><time>2026-05-04T11:26:37Z</time></trkpt><trkpt lat="31.802846703094257" lon="-6.206147894858556"><ele>2457.0</ele><time>2026-05-04T11:26:38Z</time></trkpt><trkpt lat="31.8028134680072" lon="-6.206327333428147"><ele>2454.6666666666665</ele><time>2026-05-04T11:26:39Z</time></trkpt><trkpt lat="31.802779347605235" lon="-6.2065075244642625"><ele>2452.333333333333</ele><time>2026-05-04T11:26:40Z</time></trkpt><trkpt lat="31.802744565176596" lon="-6.206695143231965"><ele>2450.0</ele><time>2026-05-04T11:26:41Z</time></trkpt><trkpt lat="31.802710351860647" lon="-6.206879691917631"><ele>2450.0</ele><time>2026-05-04T11:26:42Z</time></trkpt><trkpt lat="31.802677944778367" lon="-6.207056536731676"><ele>2450.0</ele><time>2026-05-04T11:26:43Z</time></trkpt><trkpt lat="31.802653465935457" lon="-6.207228829844568"><ele>2450.0</ele><time>2026-05-04T11:26:44Z</time></trkpt><trkpt lat="31.802633261882367" lon="-6.207400857160424"><ele>2456.75</ele><time>2026-05-04T11:26:45Z</time></trkpt><trkpt lat="31.80261695177094" lon="-6.207566490265269"><ele>2463.5</ele><time>2026-05-04T11:26:46Z</time></trkpt><trkpt lat="31.80259825290693" lon="-6.207724859243841"><ele>2470.25</ele><time>2026-05-04T11:26:47Z</time></trkpt><trkpt lat="31.80257688287104" lon="-6.207868207780487"><ele>2477.0</ele><time>2026-05-04T11:26:48Z</time></trkpt><trkpt lat="31.802524735047207" lon="-6.207989964654198"><ele>2477.0</ele><time>2026-05-04T11:26:49Z</time></trkpt><trkpt lat="31.802439485548614" lon="-6.208089072791773"><ele>2477.0</ele><time>2026-05-04T11:26:50Z</time></trkpt><trkpt lat="31.802326054124908" lon="-6.208162387293133"><ele>2477.0</ele><time>2026-05-04T11:26:51Z</time></trkpt><trkpt lat="31.80219623383563" lon="-6.20820593882115"><ele>2477.0</ele><time>2026-05-04T11:26:52Z</time></trkpt><trkpt lat="31.80207181759491" lon="-6.208235421382919"><ele>2477.7999999999997</ele><time>2026-05-04T11:26:53Z</time></trkpt><trkpt lat="31.80195549678507" lon="-6.2082598838499035"><ele>2478.6</ele><time>2026-05-04T11:26:54Z</time></trkpt><trkpt lat="31.801856058157167" lon="-6.208278128437081"><ele>2479.3999999999996</ele><time>2026-05-04T11:26:55Z</time></trkpt><trkpt lat="31.801790084152632" lon="-6.20830670699112"><ele>2480.2</ele><time>2026-05-04T11:26:56Z</time></trkpt><trkpt lat="31.801716546916317" lon="-6.208339391152339"><ele>2481.0</ele><time>2026-05-04T11:26:57Z</time></trkpt><trkpt lat="31.801716643867543" lon="-6.208481066624883"><ele>2481.0</ele><time>2026-05-04T11:26:59Z</time></trkpt><trkpt lat="31.8017703984945" lon="-6.208680245764798"><ele>2481.0</ele><time>2026-05-04T11:27:01Z</time></trkpt><trkpt lat="31.801801204690324" lon="-6.208819627106192"><ele>2481.0</ele><time>2026-05-04T11:27:02Z</time></trkpt><trkpt lat="31.80182592912096" lon="-6.208952844296948"><ele>2481.0</ele><time>2026-05-04T11:27:03Z</time></trkpt><trkpt lat="31.80182956628722" lon="-6.209100115338065"><ele>2478.0</ele><time>2026-05-04T11:27:04Z</time></trkpt><trkpt lat="31.80181236462995" lon="-6.209251367778411"><ele>2475.0</ele><time>2026-05-04T11:27:05Z</time></trkpt><trkpt lat="31.801790938014943" lon="-6.209392583179393"><ele>2472.0</ele><time>2026-05-04T11:27:06Z</time></trkpt><trkpt lat="31.801773185196367" lon="-6.209524709328937"><ele>2469.0</ele><time>2026-05-04T11:27:07Z</time></trkpt><trkpt lat="31.801772415227536" lon="-6.209637021969977"><ele>2469.0</ele><time>2026-05-04T11:27:08Z</time></trkpt><trkpt lat="31.801791886844907" lon="-6.209732441176917"><ele>2469.0</ele><time>2026-05-04T11:27:09Z</time></trkpt><trkpt lat="31.80181457180226" lon="-6.209828607409108"><ele>2469.0</ele><time>2026-05-04T11:27:10Z</time></trkpt><trkpt lat="31.80181476408045" lon="-6.209913899568423"><ele>2469.0</ele><time>2026-05-04T11:27:11Z</time></trkpt><trkpt lat="31.801817746424117" lon="-6.210004257856316"><ele>2469.0</ele><time>2026-05-04T11:27:13Z</time></trkpt><trkpt lat="31.801784280727297" lon="-6.210105566556928"><ele>2469.0</ele><time>2026-05-04T11:27:15Z</time></trkpt><trkpt lat="31.80173917033719" lon="-6.210184687278572"><ele>2466.6</ele><time>2026-05-04T11:27:16Z</time></trkpt><trkpt lat="31.80166710004527" lon="-6.210265257390781"><ele>2464.2</ele><time>2026-05-04T11:27:17Z</time></trkpt><trkpt lat="31.801574230060055" lon="-6.21032364328079"><ele>2461.7999999999997</ele><time>2026-05-04T11:27:18Z</time></trkpt><trkpt lat="31.801454802399444" lon="-6.210360119747984"><ele>2459.4</ele><time>2026-05-04T11:27:19Z</time></trkpt><trkpt lat="31.801345804307577" lon="-6.210386527364568"><ele>2457.0</ele><time>2026-05-04T11:27:20Z</time></trkpt><trkpt lat="31.801256314466826" lon="-6.210411311610435"><ele>2457.0</ele><time>2026-05-04T11:27:21Z</time></trkpt><trkpt lat="31.80120164549326" lon="-6.21045220402289"><ele>2457.0</ele><time>2026-05-04T11:27:22Z</time></trkpt><trkpt lat="31.801186178203576" lon="-6.210607846981071"><ele>2457.0</ele><time>2026-05-04T11:27:23.999Z</time></trkpt><trkpt lat="31.80121504355712" lon="-6.21072470404173"><ele>2457.0</ele><time>2026-05-04T11:27:24.999Z</time></trkpt><trkpt lat="31.80124646840634" lon="-6.210868466505664"><ele>2457.0</ele><time>2026-05-04T11:27:25.999Z</time></trkpt><trkpt lat="31.801276217091313" lon="-6.210997891302881"><ele>2459.4</ele><time>2026-05-04T11:27:26.999Z</time></trkpt><trkpt lat="31.801300382407657" lon="-6.211107377829864"><ele>2461.7999999999997</ele><time>2026-05-04T11:27:27.999Z</time></trkpt><trkpt lat="31.801286104289943" lon="-6.211226276108237"><ele>2464.2</ele><time>2026-05-04T11:27:28.999Z</time></trkpt><trkpt lat="31.801229611362402" lon="-6.211334777358945"><ele>2466.6</ele><time>2026-05-04T11:27:29.999Z</time></trkpt><trkpt lat="31.801100229024346" lon="-6.211398623599259"><ele>2469.0</ele><time>2026-05-04T11:27:30.999Z</time></trkpt><trkpt lat="31.80098699899649" lon="-6.211447976811853"><ele>2466.4</ele><time>2026-05-04T11:27:31.999Z</time></trkpt><trkpt lat="31.8009082040345" lon="-6.211492364554273"><ele>2463.8</ele><time>2026-05-04T11:27:32.999Z</time></trkpt><trkpt lat="31.80082965345399" lon="-6.211542082322241"><ele>2461.2</ele><time>2026-05-04T11:27:33.999Z</time></trkpt><trkpt lat="31.800816039588987" lon="-6.211638048044809"><ele>2458.6</ele><time>2026-05-04T11:27:35.999Z</time></trkpt><trkpt lat="31.80094089458307" lon="-6.211747544030281"><ele>2456.0</ele><time>2026-05-04T11:27:37.999Z</time></trkpt><trkpt lat="31.801049463622643" lon="-6.211809001355872"><ele>2449.25</ele><time>2026-05-04T11:27:38.999Z</time></trkpt><trkpt lat="31.80115626697691" lon="-6.2119029245365205"><ele>2442.5</ele><time>2026-05-04T11:27:39.999Z</time></trkpt><trkpt lat="31.80124871935464" lon="-6.212011217618572"><ele>2435.75</ele><time>2026-05-04T11:27:40.999Z</time></trkpt><trkpt lat="31.801324409372107" lon="-6.2121212712054295"><ele>2429.0</ele><time>2026-05-04T11:27:41.999Z</time></trkpt><trkpt lat="31.801386505160043" lon="-6.212238285511892"><ele>2429.8</ele><time>2026-05-04T11:27:43Z</time></trkpt><trkpt lat="31.801435009547994" lon="-6.2123602576570605"><ele>2430.6000000000004</ele><time>2026-05-04T11:27:44Z</time></trkpt><trkpt lat="31.801476418540897" lon="-6.212483161832384"><ele>2431.4</ele><time>2026-05-04T11:27:45Z</time></trkpt><trkpt lat="31.801528585727482" lon="-6.212594042954186"><ele>2432.2000000000003</ele><time>2026-05-04T11:27:46Z</time></trkpt><trkpt lat="31.801564377590573" lon="-6.212707529377119"><ele>2433.0</ele><time>2026-05-04T11:27:47Z</time></trkpt><trkpt lat="31.801559105681317" lon="-6.212837782480662"><ele>2433.0</ele><time>2026-05-04T11:27:48Z</time></trkpt><trkpt lat="31.801520676435842" lon="-6.212974179923089"><ele>2433.0</ele><time>2026-05-04T11:27:49Z</time></trkpt><trkpt lat="31.801454285250212" lon="-6.213106533482386"><ele>2433.0</ele><time>2026-05-04T11:27:50Z</time></trkpt><trkpt lat="31.80135743525033" lon="-6.213227063067743"><ele>2433.0</ele><time>2026-05-04T11:27:51Z</time></trkpt><trkpt lat="31.801256346698665" lon="-6.213337687374177"><ele>2431.0</ele><time>2026-05-04T11:27:52Z</time></trkpt><trkpt lat="31.801158961151053" lon="-6.2134345430773585"><ele>2429.0</ele><time>2026-05-04T11:27:53Z</time></trkpt><trkpt lat="31.80106771561658" lon="-6.213525308960857"><ele>2427.0</ele><time>2026-05-04T11:27:54Z</time></trkpt><trkpt lat="31.800981370076162" lon="-6.213611135874086"><ele>2425.0</ele><time>2026-05-04T11:27:55Z</time></trkpt><trkpt lat="31.80090984452343" lon="-6.213688725925966"><ele>2426.2</ele><time>2026-05-04T11:27:56Z</time></trkpt><trkpt lat="31.80084629024964" lon="-6.2137647620703955"><ele>2427.4</ele><time>2026-05-04T11:27:57Z</time></trkpt><trkpt lat="31.800855147373777" lon="-6.2138539317199974"><ele>2428.6</ele><time>2026-05-04T11:27:58Z</time></trkpt><trkpt lat="31.800878837469064" lon="-6.213960188879526"><ele>2429.8</ele><time>2026-05-04T11:27:59Z</time></trkpt><trkpt lat="31.80094567893063" lon="-6.214050937354925"><ele>2431.0</ele><time>2026-05-04T11:28:00Z</time></trkpt><trkpt lat="31.800987206931882" lon="-6.214150568574157"><ele>2431.0</ele><time>2026-05-04T11:28:01Z</time></trkpt><trkpt lat="31.80099888552462" lon="-6.214274283658296"><ele>2431.0</ele><time>2026-05-04T11:28:02Z</time></trkpt><trkpt lat="31.800985933880384" lon="-6.214401686707397"><ele>2431.0</ele><time>2026-05-04T11:28:03Z</time></trkpt><trkpt lat="31.800928557284937" lon="-6.214533957662313"><ele>2431.0</ele><time>2026-05-04T11:28:04Z</time></trkpt><trkpt lat="31.800842146233492" lon="-6.214641939148953"><ele>2431.0</ele><time>2026-05-04T11:28:05Z</time></trkpt><trkpt lat="31.800710125887473" lon="-6.214700092048508"><ele>2431.0</ele><time>2026-05-04T11:28:06Z</time></trkpt><trkpt lat="31.800592288110888" lon="-6.214743037685019"><ele>2431.0</ele><time>2026-05-04T11:28:07Z</time></trkpt><trkpt lat="31.800481341008837" lon="-6.214770091412287"><ele>2431.0</ele><time>2026-05-04T11:28:08Z</time></trkpt><trkpt lat="31.800379955743995" lon="-6.214792791391533"><ele>2428.0</ele><time>2026-05-04T11:28:09Z</time></trkpt><trkpt lat="31.800317451677476" lon="-6.214851692698771"><ele>2425.0</ele><time>2026-05-04T11:28:10Z</time></trkpt><trkpt lat="31.800285809872868" lon="-6.214920603224718"><ele>2422.0</ele><time>2026-05-04T11:28:11Z</time></trkpt><trkpt lat="31.800324625911166" lon="-6.215053462659102"><ele>2419.0</ele><time>2026-05-04T11:28:13Z</time></trkpt><trkpt lat="31.800378138628464" lon="-6.215166202932187"><ele>2416.0</ele><time>2026-05-04T11:28:14Z</time></trkpt><trkpt lat="31.80043429011364" lon="-6.215299242964229"><ele>2416.0</ele><time>2026-05-04T11:28:15Z</time></trkpt><trkpt lat="31.800500425992706" lon="-6.215432157321074"><ele>2416.0</ele><time>2026-05-04T11:28:16Z</time></trkpt><trkpt lat="31.800546719569383" lon="-6.215562201506976"><ele>2416.0</ele><time>2026-05-04T11:28:17Z</time></trkpt><trkpt lat="31.800575134023724" lon="-6.2156936665695355"><ele>2416.0</ele><time>2026-05-04T11:28:18Z</time></trkpt><trkpt lat="31.80060525089137" lon="-6.215821160825482"><ele>2412.0</ele><time>2026-05-04T11:28:19Z</time></trkpt><trkpt lat="31.80059081063546" lon="-6.215962814580498"><ele>2408.0</ele><time>2026-05-04T11:28:20Z</time></trkpt><trkpt lat="31.80056478537606" lon="-6.216105237362205"><ele>2404.0</ele><time>2026-05-04T11:28:21Z</time></trkpt><trkpt lat="31.800526734225432" lon="-6.216249038902288"><ele>2400.0</ele><time>2026-05-04T11:28:22Z</time></trkpt><trkpt lat="31.800482030287228" lon="-6.216388562900369"><ele>2400.3333333333335</ele><time>2026-05-04T11:28:23Z</time></trkpt><trkpt lat="31.800428470238973" lon="-6.2165072090697535"><ele>2400.6666666666665</ele><time>2026-05-04T11:28:24Z</time></trkpt><trkpt lat="31.800377437815012" lon="-6.216617027095535"><ele>2401.0</ele><time>2026-05-04T11:28:25Z</time></trkpt><trkpt lat="31.800364591373615" lon="-6.216693993728658"><ele>2401.333333333333</ele><time>2026-05-04T11:28:26Z</time></trkpt><trkpt lat="31.800385723806684" lon="-6.216780373020179"><ele>2401.6666666666665</ele><time>2026-05-04T11:28:28Z</time></trkpt><trkpt lat="31.800446603005568" lon="-6.216841706672156"><ele>2402.0</ele><time>2026-05-04T11:28:29Z</time></trkpt><trkpt lat="31.80054366642814" lon="-6.216862958825092"><ele>2402.0</ele><time>2026-05-04T11:28:30Z</time></trkpt><trkpt lat="31.800643245173465" lon="-6.216899902981556"><ele>2402.0</ele><time>2026-05-04T11:28:31Z</time></trkpt><trkpt lat="31.800747921415745" lon="-6.216958304184269"><ele>2402.0</ele><time>2026-05-04T11:28:32Z</time></trkpt><trkpt lat="31.800843591758312" lon="-6.217050887343652"><ele>2402.0</ele><time>2026-05-04T11:28:33Z</time></trkpt><trkpt lat="31.800927369773625" lon="-6.217166620638444"><ele>2402.0</ele><time>2026-05-04T11:28:34Z</time></trkpt><trkpt lat="31.800995170799048" lon="-6.217297944535823"><ele>2402.0</ele><time>2026-05-04T11:28:35Z</time></trkpt><trkpt lat="31.80103946773722" lon="-6.217439789017957"><ele>2402.0</ele><time>2026-05-04T11:28:36Z</time></trkpt><trkpt lat="31.80109797058357" lon="-6.217580783385292"><ele>2402.0</ele><time>2026-05-04T11:28:37Z</time></trkpt><trkpt lat="31.801145262924916" lon="-6.2177209368234685"><ele>2398.25</ele><time>2026-05-04T11:28:38Z</time></trkpt><trkpt lat="31.80118992694451" lon="-6.217859574447068"><ele>2394.5</ele><time>2026-05-04T11:28:39Z</time></trkpt><trkpt lat="31.801254209558703" lon="-6.217983767852664"><ele>2390.75</ele><time>2026-05-04T11:28:40Z</time></trkpt><trkpt lat="31.801317490805893" lon="-6.218105020619789"><ele>2387.0</ele><time>2026-05-04T11:28:41Z</time></trkpt><trkpt lat="31.80139469374649" lon="-6.218203042191441"><ele>2387.0</ele><time>2026-05-04T11:28:42Z</time></trkpt><trkpt lat="31.80146380399454" lon="-6.218336209587907"><ele>2387.0</ele><time>2026-05-04T11:28:43Z</time></trkpt><trkpt lat="31.801530295659248" lon="-6.218435953914917"><ele>2387.0</ele><time>2026-05-04T11:28:44Z</time></trkpt><trkpt lat="31.80157012540971" lon="-6.218541066990747"><ele>2387.0</ele><time>2026-05-04T11:28:45Z</time></trkpt><trkpt lat="31.80157167073503" lon="-6.218653593948643"><ele>2387.0</ele><time>2026-05-04T11:28:46Z</time></trkpt><trkpt lat="31.801529929805895" lon="-6.218770530107867"><ele>2387.0</ele><time>2026-05-04T11:28:47Z</time></trkpt><trkpt lat="31.801474704652147" lon="-6.218891225913763"><ele>2387.0</ele><time>2026-05-04T11:28:48Z</time></trkpt><trkpt lat="31.801406213847528" lon="-6.219019291404583"><ele>2387.0</ele><time>2026-05-04T11:28:49Z</time></trkpt><trkpt lat="31.80133238593328" lon="-6.2191478453019595"><ele>2387.0</ele><time>2026-05-04T11:28:50Z</time></trkpt><trkpt lat="31.801246227450367" lon="-6.219277731625945"><ele>2386.25</ele><time>2026-05-04T11:28:51Z</time></trkpt><trkpt lat="31.801162655348907" lon="-6.219393915119569"><ele>2385.5</ele><time>2026-05-04T11:28:52Z</time></trkpt><trkpt lat="31.801077369258383" lon="-6.219506270013577"><ele>2384.75</ele><time>2026-05-04T11:28:53Z</time></trkpt><trkpt lat="31.800989833892032" lon="-6.219612233568014"><ele>2384.0</ele><time>2026-05-04T11:28:54Z</time></trkpt><trkpt lat="31.80091183740133" lon="-6.2197131780649695"><ele>2386.4</ele><time>2026-05-04T11:28:55Z</time></trkpt><trkpt lat="31.80083795735519" lon="-6.219821839400631"><ele>2388.8</ele><time>2026-05-04T11:28:56Z</time></trkpt><trkpt lat="31.800812527087956" lon="-6.219933310495462"><ele>2391.2</ele><time>2026-05-04T11:28:57Z</time></trkpt><trkpt lat="31.800805743629788" lon="-6.220055691770552"><ele>2393.6</ele><time>2026-05-04T11:28:58Z</time></trkpt><trkpt lat="31.80082348371577" lon="-6.220177767954833"><ele>2396.0</ele><time>2026-05-04T11:28:59Z</time></trkpt><trkpt lat="31.80085962257957" lon="-6.2203140595907405"><ele>2396.0</ele><time>2026-05-04T11:29:00Z</time></trkpt><trkpt lat="31.80090442919275" lon="-6.220446481465701"><ele>2396.0</ele><time>2026-05-04T11:29:01Z</time></trkpt><trkpt lat="31.80093262266386" lon="-6.220574637220975"><ele>2396.0</ele><time>2026-05-04T11:29:02Z</time></trkpt><trkpt lat="31.800924197591097" lon="-6.220709026321483"><ele>2396.0</ele><time>2026-05-04T11:29:03Z</time></trkpt><trkpt lat="31.80091365703044" lon="-6.220861208577923"><ele>2395.0</ele><time>2026-05-04T11:29:04Z</time></trkpt><trkpt lat="31.800867842490764" lon="-6.221007300577829"><ele>2394.0</ele><time>2026-05-04T11:29:05Z</time></trkpt><trkpt lat="31.80079103579868" lon="-6.221142811578349"><ele>2393.0</ele><time>2026-05-04T11:29:06Z</time></trkpt><trkpt lat="31.800690884925288" lon="-6.22123939689164"><ele>2392.0</ele><time>2026-05-04T11:29:07Z</time></trkpt><trkpt lat="31.80058079795032" lon="-6.2213142929581355"><ele>2392.0</ele><time>2026-05-04T11:29:08Z</time></trkpt><trkpt lat="31.800468482929414" lon="-6.221373260647143"><ele>2392.0</ele><time>2026-05-04T11:29:09Z</time></trkpt><trkpt lat="31.80034853186382" lon="-6.221412347103526"><ele>2392.0</ele><time>2026-05-04T11:29:10Z</time></trkpt><trkpt lat="31.800233605678315" lon="-6.221438474501145"><ele>2392.0</ele><time>2026-05-04T11:29:11Z</time></trkpt><trkpt lat="31.80012587941414" lon="-6.221460391524337"><ele>2391.7999999999997</ele><time>2026-05-04T11:29:12Z</time></trkpt><trkpt lat="31.80002806710121" lon="-6.221483102868807"><ele>2391.6</ele><time>2026-05-04T11:29:13Z</time></trkpt><trkpt lat="31.79994753859476" lon="-6.221503235279297"><ele>2391.3999999999996</ele><time>2026-05-04T11:29:14Z</time></trkpt><trkpt lat="31.799892145975107" lon="-6.221586250259195"><ele>2391.2</ele><time>2026-05-04T11:29:16Z</time></trkpt><trkpt lat="31.799958925873415" lon="-6.221689601411831"><ele>2391.0</ele><time>2026-05-04T11:29:18Z</time></trkpt><trkpt lat="31.800020436519443" lon="-6.221805345590946"><ele>2391.0</ele><time>2026-05-04T11:29:18.999Z</time></trkpt><trkpt lat="31.800094474640503" lon="-6.221915367711663"><ele>2391.0</ele><time>2026-05-04T11:29:19.999Z</time></trkpt><trkpt lat="31.80015748901449" lon="-6.222052708307214"><ele>2391.0</ele><time>2026-05-04T11:29:20.999Z</time></trkpt><trkpt lat="31.800216239417978" lon="-6.222202935298247"><ele>2391.0</ele><time>2026-05-04T11:29:21.999Z</time></trkpt><trkpt lat="31.800269625191902" lon="-6.222346793400511"><ele>2382.5</ele><time>2026-05-04T11:29:22.999Z</time></trkpt><trkpt lat="31.8003197383135" lon="-6.222484680767931"><ele>2374.0</ele><time>2026-05-04T11:29:23.999Z</time></trkpt><trkpt lat="31.8003931708457" lon="-6.222604315597959"><ele>2365.5</ele><time>2026-05-04T11:29:24.999Z</time></trkpt><trkpt lat="31.800443775876882" lon="-6.222734913870287"><ele>2357.0</ele><time>2026-05-04T11:29:25.999Z</time></trkpt><trkpt lat="31.80051032707556" lon="-6.222849268070659"><ele>2357.0</ele><time>2026-05-04T11:29:26.999Z</time></trkpt><trkpt lat="31.800564798438582" lon="-6.222958003811872"><ele>2357.0</ele><time>2026-05-04T11:29:27.999Z</time></trkpt><trkpt lat="31.80060351019556" lon="-6.2230550857098725"><ele>2357.0</ele><time>2026-05-04T11:29:28.999Z</time></trkpt><trkpt lat="31.800632724983117" lon="-6.223166363609807"><ele>2357.0</ele><time>2026-05-04T11:29:29.999Z</time></trkpt><trkpt lat="31.800605882438635" lon="-6.2232926750323765"><ele>2357.0</ele><time>2026-05-04T11:29:30.999Z</time></trkpt><trkpt lat="31.800530003339237" lon="-6.223416667282725"><ele>2357.75</ele><time>2026-05-04T11:29:31.999Z</time></trkpt><trkpt lat="31.80043477022444" lon="-6.223515123221745"><ele>2358.5</ele><time>2026-05-04T11:29:32.999Z</time></trkpt><trkpt lat="31.80031424337437" lon="-6.223576739792341"><ele>2359.25</ele><time>2026-05-04T11:29:33.999Z</time></trkpt><trkpt lat="31.800182727662587" lon="-6.223620506253819"><ele>2360.0</ele><time>2026-05-04T11:29:34.999Z</time></trkpt><trkpt lat="31.800082275586863" lon="-6.223696312351799"><ele>2358.0</ele><time>2026-05-04T11:29:35.999Z</time></trkpt><trkpt lat="31.799995573169543" lon="-6.223790478965228"><ele>2356.0</ele><time>2026-05-04T11:29:36.999Z</time></trkpt><trkpt lat="31.79990149014487" lon="-6.223911909492825"><ele>2354.0</ele><time>2026-05-04T11:29:37.999Z</time></trkpt><trkpt lat="31.799800832499212" lon="-6.224027370426281"><ele>2352.0</ele><time>2026-05-04T11:29:38.999Z</time></trkpt><trkpt lat="31.799696441097794" lon="-6.2241217912681535"><ele>2352.0</ele><time>2026-05-04T11:29:39.999Z</time></trkpt><trkpt lat="31.79958931913346" lon="-6.22420959809599"><ele>2352.0</ele><time>2026-05-04T11:29:40.999Z</time></trkpt><trkpt lat="31.799497376810105" lon="-6.224298199360677"><ele>2352.0</ele><time>2026-05-04T11:29:41.999Z</time></trkpt><trkpt lat="31.79941592583822" lon="-6.224401495832483"><ele>2352.0</ele><time>2026-05-04T11:29:42.999Z</time></trkpt><trkpt lat="31.799318897927932" lon="-6.224486104462776"><ele>2354.7999999999997</ele><time>2026-05-04T11:29:43.999Z</time></trkpt><trkpt lat="31.799206338637376" lon="-6.224510055190171"><ele>2357.6</ele><time>2026-05-04T11:29:44.999Z</time></trkpt><trkpt lat="31.799096703393" lon="-6.2245175789698"><ele>2360.3999999999996</ele><time>2026-05-04T11:29:45.999Z</time></trkpt><trkpt lat="31.798998346039156" lon="-6.224535501943249"><ele>2363.2</ele><time>2026-05-04T11:29:46.999Z</time></trkpt><trkpt lat="31.798900083476763" lon="-6.224555127498835"><ele>2366.0</ele><time>2026-05-04T11:29:47.999Z</time></trkpt><trkpt lat="31.798843288866593" lon="-6.224626559230195"><ele>2366.0</ele><time>2026-05-04T11:29:49Z</time></trkpt><trkpt lat="31.798862074093375" lon="-6.224717014324801"><ele>2366.0</ele><time>2026-05-04T11:29:50Z</time></trkpt><trkpt lat="31.798820750521678" lon="-6.224823895987211"><ele>2366.0</ele><time>2026-05-04T11:29:51Z</time></trkpt><trkpt lat="31.798752620801526" lon="-6.2249247208894785"><ele>2366.0</ele><time>2026-05-04T11:29:52Z</time></trkpt><trkpt lat="31.798648824348497" lon="-6.224990891114664"><ele>2366.0</ele><time>2026-05-04T11:29:53Z</time></trkpt><trkpt lat="31.798522696299386" lon="-6.22502276098039"><ele>2360.333333333333</ele><time>2026-05-04T11:29:54Z</time></trkpt><trkpt lat="31.798380651816835" lon="-6.225048854852541"><ele>2354.6666666666665</ele><time>2026-05-04T11:29:55Z</time></trkpt><trkpt lat="31.79822899343562" lon="-6.225078967513043"><ele>2349.0</ele><time>2026-05-04T11:29:56Z</time></trkpt><trkpt lat="31.798066905043875" lon="-6.225110517191813"><ele>2349.0</ele><time>2026-05-04T11:29:57Z</time></trkpt><trkpt lat="31.797909889038248" lon="-6.22515202909281"><ele>2349.0</ele><time>2026-05-04T11:29:58Z</time></trkpt><trkpt lat="31.797753725633495" lon="-6.22519576311482"><ele>2349.0</ele><time>2026-05-04T11:29:59Z</time></trkpt><trkpt lat="31.797603050526888" lon="-6.225238398325051"><ele>2350.75</ele><time>2026-05-04T11:30:00Z</time></trkpt><trkpt lat="31.797454828311565" lon="-6.225279061724057"><ele>2352.5</ele><time>2026-05-04T11:30:01Z</time></trkpt><trkpt lat="31.797308028043" lon="-6.22531888964923"><ele>2354.25</ele><time>2026-05-04T11:30:02Z</time></trkpt><trkpt lat="31.797167255636133" lon="-6.2253613705968025"><ele>2356.0</ele><time>2026-05-04T11:30:03Z</time></trkpt><trkpt lat="31.79702768996268" lon="-6.225408581399195"><ele>2356.0</ele><time>2026-05-04T11:30:04Z</time></trkpt><trkpt lat="31.79687597562477" lon="-6.22543136348746"><ele>2356.0</ele><time>2026-05-04T11:30:05Z</time></trkpt><trkpt lat="31.79671775008805" lon="-6.225424762442809"><ele>2356.0</ele><time>2026-05-04T11:30:06Z</time></trkpt><trkpt lat="31.796562549250645" lon="-6.225423238377326"><ele>2356.0</ele><time>2026-05-04T11:30:07Z</time></trkpt><trkpt lat="31.79641071900297" lon="-6.225419667809176"><ele>2356.0</ele><time>2026-05-04T11:30:08Z</time></trkpt><trkpt lat="31.796263280768937" lon="-6.225427742302204"><ele>2356.0</ele><time>2026-05-04T11:30:09Z</time></trkpt><trkpt lat="31.796112609190693" lon="-6.225445347012249"><ele>2355.5</ele><time>2026-05-04T11:30:10Z</time></trkpt><trkpt lat="31.795973619505922" lon="-6.225480671515706"><ele>2355.0</ele><time>2026-05-04T11:30:11Z</time></trkpt><trkpt lat="31.79583429510985" lon="-6.225515453268886"><ele>2354.5</ele><time>2026-05-04T11:30:12Z</time></trkpt><trkpt lat="31.795702157661502" lon="-6.225549988869936"><ele>2354.0</ele><time>2026-05-04T11:30:13Z</time></trkpt><trkpt lat="31.795588334259744" lon="-6.22558236245959"><ele>2354.0</ele><time>2026-05-04T11:30:14Z</time></trkpt><trkpt lat="31.795482504116706" lon="-6.225593642620306"><ele>2354.0</ele><time>2026-05-04T11:30:15Z</time></trkpt><trkpt lat="31.79537659121986" lon="-6.225544070486341"><ele>2354.0</ele><time>2026-05-04T11:30:16Z</time></trkpt><trkpt lat="31.79526308721481" lon="-6.225496552585803"><ele>2354.0</ele><time>2026-05-04T11:30:17Z</time></trkpt><trkpt lat="31.79517201316413" lon="-6.2253285906698865"><ele>2347.333333333333</ele><time>2026-05-04T11:30:18Z</time></trkpt><trkpt lat="31.79506764288958" lon="-6.225171902814199"><ele>2340.6666666666665</ele><time>2026-05-04T11:30:19Z</time></trkpt><trkpt lat="31.7949460093172" lon="-6.225025557233349"><ele>2334.0</ele><time>2026-05-04T11:30:20Z</time></trkpt><trkpt lat="31.794822493824743" lon="-6.224859719489346"><ele>2341.3333333333335</ele><time>2026-05-04T11:30:21Z</time></trkpt><trkpt lat="31.794688709580086" lon="-6.2247031427579085"><ele>2348.666666666667</ele><time>2026-05-04T11:30:22Z</time></trkpt><trkpt lat="31.794540081250776" lon="-6.22455177525645"><ele>2356.0</ele><time>2026-05-04T11:30:23Z</time></trkpt><trkpt lat="31.794385943495953" lon="-6.224406385992487"><ele>2347.3333333333335</ele><time>2026-05-04T11:30:24Z</time></trkpt><trkpt lat="31.794226590833947" lon="-6.224260371846311"><ele>2338.6666666666665</ele><time>2026-05-04T11:30:25Z</time></trkpt><trkpt lat="31.794055922408013" lon="-6.224144669057724"><ele>2330.0</ele><time>2026-05-04T11:30:26Z</time></trkpt><trkpt lat="31.793872130567074" lon="-6.2240257620828245"><ele>2331.6666666666665</ele><time>2026-05-04T11:30:27Z</time></trkpt><trkpt lat="31.793680862210746" lon="-6.223927409175398"><ele>2333.3333333333335</ele><time>2026-05-04T11:30:28Z</time></trkpt><trkpt lat="31.793483717698614" lon="-6.223835852053846"><ele>2335.0</ele><time>2026-05-04T11:30:29Z</time></trkpt><trkpt lat="31.793284906236167" lon="-6.223753589897627"><ele>2335.0</ele><time>2026-05-04T11:30:30Z</time></trkpt><trkpt lat="31.79308602169519" lon="-6.223672647849202"><ele>2335.0</ele><time>2026-05-04T11:30:31Z</time></trkpt><trkpt lat="31.79289417268662" lon="-6.2235625259739455"><ele>2335.0</ele><time>2026-05-04T11:30:32Z</time></trkpt><trkpt lat="31.79272205230339" lon="-6.2234181933889055"><ele>2335.3333333333335</ele><time>2026-05-04T11:30:33Z</time></trkpt><trkpt lat="31.792549875009108" lon="-6.2232864522508695"><ele>2335.6666666666665</ele><time>2026-05-04T11:30:34Z</time></trkpt><trkpt lat="31.792365007838303" lon="-6.223200335567685"><ele>2336.0</ele><time>2026-05-04T11:30:35Z</time></trkpt><trkpt lat="31.792165748089175" lon="-6.223144102207893"><ele>2336.0</ele><time>2026-05-04T11:30:36Z</time></trkpt><trkpt lat="31.791962634208044" lon="-6.22308702675955"><ele>2336.0</ele><time>2026-05-04T11:30:37Z</time></trkpt><trkpt lat="31.791764179123078" lon="-6.223024556527804"><ele>2336.0</ele><time>2026-05-04T11:30:38Z</time></trkpt><trkpt lat="31.791580286756336" lon="-6.22296483365887"><ele>2335.6666666666665</ele><time>2026-05-04T11:30:39Z</time></trkpt><trkpt lat="31.79140244450479" lon="-6.222899220810194"><ele>2335.3333333333335</ele><time>2026-05-04T11:30:40Z</time></trkpt><trkpt lat="31.79124046899684" lon="-6.222797472801896"><ele>2335.0</ele><time>2026-05-04T11:30:41Z</time></trkpt><trkpt lat="31.791076000072184" lon="-6.22271024124054"><ele>2336.3333333333335</ele><time>2026-05-04T11:30:42Z</time></trkpt><trkpt lat="31.79091520737738" lon="-6.222616211376104"><ele>2337.6666666666665</ele><time>2026-05-04T11:30:43Z</time></trkpt><trkpt lat="31.790741633139216" lon="-6.22254705776628"><ele>2339.0</ele><time>2026-05-04T11:30:44Z</time></trkpt><trkpt lat="31.790580492985807" lon="-6.222448194172151"><ele>2339.0</ele><time>2026-05-04T11:30:45Z</time></trkpt><trkpt lat="31.79041500896624" lon="-6.222373802948294"><ele>2339.0</ele><time>2026-05-04T11:30:46Z</time></trkpt><trkpt lat="31.790250048711986" lon="-6.222321479018437"><ele>2339.0</ele><time>2026-05-04T11:30:47Z</time></trkpt><trkpt lat="31.790090086838724" lon="-6.222277804703846"><ele>2341.25</ele><time>2026-05-04T11:30:48Z</time></trkpt><trkpt lat="31.789936229601476" lon="-6.222239015701006"><ele>2343.5</ele><time>2026-05-04T11:30:49Z</time></trkpt><trkpt lat="31.789802061625686" lon="-6.222205566395434"><ele>2345.75</ele><time>2026-05-04T11:30:50Z</time></trkpt><trkpt lat="31.78969169333047" lon="-6.222178050602865"><ele>2348.0</ele><time>2026-05-04T11:30:51Z</time></trkpt><trkpt lat="31.789606372012496" lon="-6.222156970299463"><ele>2348.0</ele><time>2026-05-04T11:30:52Z</time></trkpt><trkpt lat="31.789533012611177" lon="-6.222139178145386"><ele>2348.0</ele><time>2026-05-04T11:30:53Z</time></trkpt><trkpt lat="31.78945896501271" lon="-6.222112584975564"><ele>2348.0</ele><time>2026-05-04T11:30:54Z</time></trkpt><trkpt lat="31.789396654499715" lon="-6.222089996866368"><ele>2348.0</ele><time>2026-05-04T11:30:55Z</time></trkpt><trkpt lat="31.78929756321922" lon="-6.2220585097488685"><ele>2348.0</ele><time>2026-05-04T11:30:57Z</time></trkpt><trkpt lat="31.78919598906066" lon="-6.222025525161434"><ele>2348.0</ele><time>2026-05-04T11:30:59Z</time></trkpt><trkpt lat="31.78912577830587" lon="-6.222007812555654"><ele>2347.833333333333</ele><time>2026-05-04T11:31:00Z</time></trkpt><trkpt lat="31.789052476602752" lon="-6.22198932015526"><ele>2347.6666666666665</ele><time>2026-05-04T11:31:01Z</time></trkpt><trkpt lat="31.78898264592128" lon="-6.221974537820673"><ele>2347.5</ele><time>2026-05-04T11:31:02Z</time></trkpt><trkpt lat="31.788913393676523" lon="-6.221962941677369"><ele>2347.3333333333335</ele><time>2026-05-04T11:31:03Z</time></trkpt><trkpt lat="31.788851112373454" lon="-6.22201792137727"><ele>2347.166666666667</ele><time>2026-05-04T11:31:05Z</time></trkpt><trkpt lat="31.788841187326533" lon="-6.222126496696882"><ele>2347.0</ele><time>2026-05-04T11:31:07Z</time></trkpt><trkpt lat="31.78885140464646" lon="-6.222203090936307"><ele>2347.0</ele><time>2026-05-04T11:31:08Z</time></trkpt><trkpt lat="31.78887811288046" lon="-6.222302418213817"><ele>2347.0</ele><time>2026-05-04T11:31:09Z</time></trkpt><trkpt lat="31.788907268251098" lon="-6.222408502464084"><ele>2347.0</ele><time>2026-05-04T11:31:10Z</time></trkpt><trkpt lat="31.788932975200236" lon="-6.222513793471534"><ele>2347.0</ele><time>2026-05-04T11:31:11Z</time></trkpt><trkpt lat="31.78895091900042" lon="-6.2226196284517625"><ele>2347.0</ele><time>2026-05-04T11:31:12Z</time></trkpt><trkpt lat="31.788958214340074" lon="-6.222739405897013"><ele>2347.0</ele><time>2026-05-04T11:31:13Z</time></trkpt><trkpt lat="31.788929764578217" lon="-6.222871743229727"><ele>2347.0</ele><time>2026-05-04T11:31:14Z</time></trkpt><trkpt lat="31.788881542259173" lon="-6.222994632806228"><ele>2347.0</ele><time>2026-05-04T11:31:14.999Z</time></trkpt><trkpt lat="31.78881115483846" lon="-6.223118928713574"><ele>2347.0</ele><time>2026-05-04T11:31:15.999Z</time></trkpt><trkpt lat="31.788746052477237" lon="-6.223236978925652"><ele>2346.0</ele><time>2026-05-04T11:31:16.999Z</time></trkpt><trkpt lat="31.78867722507085" lon="-6.223358826872211"><ele>2345.0</ele><time>2026-05-04T11:31:17.999Z</time></trkpt><trkpt lat="31.78859250995047" lon="-6.223466580178293"><ele>2344.0</ele><time>2026-05-04T11:31:18.999Z</time></trkpt><trkpt lat="31.788503904741862" lon="-6.223577028504651"><ele>2343.0</ele><time>2026-05-04T11:31:19.999Z</time></trkpt><trkpt lat="31.788401951792412" lon="-6.223677488616277"><ele>2346.5</ele><time>2026-05-04T11:31:20.999Z</time></trkpt><trkpt lat="31.78828678929355" lon="-6.223764410617581"><ele>2350.0</ele><time>2026-05-04T11:31:21.999Z</time></trkpt><trkpt lat="31.788181955029668" lon="-6.2238374184498335"><ele>2353.5</ele><time>2026-05-04T11:31:22.999Z</time></trkpt><trkpt lat="31.788070872662594" lon="-6.223923006790774"><ele>2357.0</ele><time>2026-05-04T11:31:23.999Z</time></trkpt><trkpt lat="31.78797675715133" lon="-6.224032737610881"><ele>2357.0</ele><time>2026-05-04T11:31:24.999Z</time></trkpt><trkpt lat="31.787869447411463" lon="-6.224168419858081"><ele>2357.0</ele><time>2026-05-04T11:31:25.999Z</time></trkpt><trkpt lat="31.78773722955882" lon="-6.224333949800659"><ele>2357.0</ele><time>2026-05-04T11:31:27.999Z</time></trkpt><trkpt lat="31.787672360788562" lon="-6.224440499338988"><ele>2363.0</ele><time>2026-05-04T11:31:28.999Z</time></trkpt><trkpt lat="31.78763744966163" lon="-6.224556047587029"><ele>2369.0</ele><time>2026-05-04T11:31:29.999Z</time></trkpt><trkpt lat="31.787591799933043" lon="-6.224691154597862"><ele>2375.0</ele><time>2026-05-04T11:31:30.999Z</time></trkpt><trkpt lat="31.78757552502287" lon="-6.224830849202233"><ele>2381.0</ele><time>2026-05-04T11:31:31.999Z</time></trkpt><trkpt lat="31.787548913238357" lon="-6.224990809975088"><ele>2381.0</ele><time>2026-05-04T11:31:32.999Z</time></trkpt><trkpt lat="31.78749178218549" lon="-6.22515541472481"><ele>2381.0</ele><time>2026-05-04T11:31:33.999Z</time></trkpt><trkpt lat="31.787379701465458" lon="-6.225307827346875"><ele>2381.0</ele><time>2026-05-04T11:31:34.999Z</time></trkpt><trkpt lat="31.787279820343585" lon="-6.22544763863989"><ele>2381.0</ele><time>2026-05-04T11:31:35.999Z</time></trkpt><trkpt lat="31.78717027804466" lon="-6.225585317706332"><ele>2381.0</ele><time>2026-05-04T11:31:36.999Z</time></trkpt><trkpt lat="31.787074788686276" lon="-6.225723513565163"><ele>2381.0</ele><time>2026-05-04T11:31:37.999Z</time></trkpt><trkpt lat="31.787005739199564" lon="-6.2258717753328074"><ele>2378.6666666666665</ele><time>2026-05-04T11:31:38.999Z</time></trkpt><trkpt lat="31.786934348492156" lon="-6.226046632820646"><ele>2376.3333333333335</ele><time>2026-05-04T11:31:39.999Z</time></trkpt><trkpt lat="31.786891911122428" lon="-6.226218186840898"><ele>2374.0</ele><time>2026-05-04T11:31:40.999Z</time></trkpt><trkpt lat="31.786842725812853" lon="-6.2264005978174435"><ele>2379.666666666667</ele><time>2026-05-04T11:31:41.999Z</time></trkpt><trkpt lat="31.786790396329767" lon="-6.226578119507818"><ele>2385.3333333333335</ele><time>2026-05-04T11:31:42.999Z</time></trkpt><trkpt lat="31.786737688074556" lon="-6.226749750361918"><ele>2391.0</ele><time>2026-05-04T11:31:43.999Z</time></trkpt><trkpt lat="31.786701876074858" lon="-6.226930652876055"><ele>2391.0</ele><time>2026-05-04T11:31:44.999Z</time></trkpt><trkpt lat="31.786669163529353" lon="-6.2271229192881785"><ele>2391.0</ele><time>2026-05-04T11:31:45.999Z</time></trkpt><trkpt lat="31.786640588422372" lon="-6.227315210493155"><ele>2391.0</ele><time>2026-05-04T11:31:46.999Z</time></trkpt><trkpt lat="31.786612931398942" lon="-6.2275102156434095"><ele>2394.0</ele><time>2026-05-04T11:31:47.999Z</time></trkpt><trkpt lat="31.78656669187801" lon="-6.227700797705736"><ele>2397.0</ele><time>2026-05-04T11:31:48.999Z</time></trkpt><trkpt lat="31.78654939086777" lon="-6.227902712542248"><ele>2400.0</ele><time>2026-05-04T11:31:49.999Z</time></trkpt><trkpt lat="31.786493048799443" lon="-6.228099529000062"><ele>2402.3333333333335</ele><time>2026-05-04T11:31:50.999Z</time></trkpt><trkpt lat="31.786454711995518" lon="-6.22829598142441"><ele>2404.666666666667</ele><time>2026-05-04T11:31:51.999Z</time></trkpt><trkpt lat="31.78641847864843" lon="-6.228484856942552"><ele>2407.0</ele><time>2026-05-04T11:31:52.999Z</time></trkpt><trkpt lat="31.78638424716448" lon="-6.22866962531088"><ele>2407.0</ele><time>2026-05-04T11:31:53.999Z</time></trkpt><trkpt lat="31.786344869861995" lon="-6.228864847899932"><ele>2407.0</ele><time>2026-05-04T11:31:55Z</time></trkpt><trkpt lat="31.786326594981304" lon="-6.229068138071943"><ele>2407.0</ele><time>2026-05-04T11:31:56Z</time></trkpt><trkpt lat="31.786306415566376" lon="-6.229274561461088"><ele>2407.666666666667</ele><time>2026-05-04T11:31:57Z</time></trkpt><trkpt lat="31.78628036697698" lon="-6.229503311460235"><ele>2408.3333333333335</ele><time>2026-05-04T11:31:58Z</time></trkpt><trkpt lat="31.786235973655234" lon="-6.229725071318814"><ele>2409.0</ele><time>2026-05-04T11:31:59Z</time></trkpt><trkpt lat="31.78618552867342" lon="-6.229949432254774"><ele>2411.0</ele><time>2026-05-04T11:32:00Z</time></trkpt><trkpt lat="31.78610704901396" lon="-6.23016780383516"><ele>2413.0</ele><time>2026-05-04T11:32:01Z</time></trkpt><trkpt lat="31.786021706188762" lon="-6.230372970082229"><ele>2415.0</ele><time>2026-05-04T11:32:02Z</time></trkpt><trkpt lat="31.785909286467184" lon="-6.230565381917956"><ele>2416.0</ele><time>2026-05-04T11:32:03Z</time></trkpt><trkpt lat="31.785777601881648" lon="-6.230752166960809"><ele>2417.0</ele><time>2026-05-04T11:32:04Z</time></trkpt><trkpt lat="31.785668114236" lon="-6.230936117154499"><ele>2418.0</ele><time>2026-05-04T11:32:05Z</time></trkpt><trkpt lat="31.78557063949067" lon="-6.231102708636592"><ele>2418.0</ele><time>2026-05-04T11:32:06Z</time></trkpt><trkpt lat="31.785480156365335" lon="-6.2312615078696325"><ele>2418.0</ele><time>2026-05-04T11:32:07Z</time></trkpt><trkpt lat="31.785402710033427" lon="-6.231414319009903"><ele>2418.0</ele><time>2026-05-04T11:32:08Z</time></trkpt><trkpt lat="31.785364629564263" lon="-6.231565770003525"><ele>2418.0</ele><time>2026-05-04T11:32:09Z</time></trkpt><trkpt lat="31.785335801431287" lon="-6.231719870622646"><ele>2420.5</ele><time>2026-05-04T11:32:10Z</time></trkpt><trkpt lat="31.785343151794756" lon="-6.231884167881127"><ele>2423.0</ele><time>2026-05-04T11:32:11Z</time></trkpt><trkpt lat="31.7853370233358" lon="-6.232057973416169"><ele>2425.5</ele><time>2026-05-04T11:32:12Z</time></trkpt><trkpt lat="31.7853098967608" lon="-6.232230249798177"><ele>2428.0</ele><time>2026-05-04T11:32:13Z</time></trkpt><trkpt lat="31.785201821499076" lon="-6.232389189929993"><ele>2427.3333333333335</ele><time>2026-05-04T11:32:14Z</time></trkpt><trkpt lat="31.785117540722847" lon="-6.232553102374288"><ele>2426.6666666666665</ele><time>2026-05-04T11:32:15Z</time></trkpt><trkpt lat="31.785031202697915" lon="-6.2327218723495745"><ele>2426.0</ele><time>2026-05-04T11:32:16Z</time></trkpt><trkpt lat="31.784952397676978" lon="-6.232894650685076"><ele>2426.0</ele><time>2026-05-04T11:32:17Z</time></trkpt><trkpt lat="31.78490306800752" lon="-6.233077424238185"><ele>2426.0</ele><time>2026-05-04T11:32:18Z</time></trkpt><trkpt lat="31.784904120307324" lon="-6.233248451452148"><ele>2426.0</ele><time>2026-05-04T11:32:19Z</time></trkpt><trkpt lat="31.784926108241415" lon="-6.233397014551153"><ele>2426.0</ele><time>2026-05-04T11:32:20Z</time></trkpt><trkpt lat="31.78493667491205" lon="-6.233519904187973"><ele>2426.6</ele><time>2026-05-04T11:32:21Z</time></trkpt><trkpt lat="31.784934777862595" lon="-6.233620287554475"><ele>2427.2</ele><time>2026-05-04T11:32:22Z</time></trkpt><trkpt lat="31.784833503486826" lon="-6.233701948501428"><ele>2427.8</ele><time>2026-05-04T11:32:23Z</time></trkpt><trkpt lat="31.784736921631794" lon="-6.233758553316119"><ele>2428.4</ele><time>2026-05-04T11:32:24Z</time></trkpt><trkpt lat="31.784644345410236" lon="-6.233825570217062"><ele>2429.0</ele><time>2026-05-04T11:32:25Z</time></trkpt><trkpt lat="31.78460597334117" lon="-6.233938225606907"><ele>2428.2</ele><time>2026-05-04T11:32:26Z</time></trkpt><trkpt lat="31.784598899913618" lon="-6.234060996271569"><ele>2427.4</ele><time>2026-05-04T11:32:27Z</time></trkpt><trkpt lat="31.78458095797562" lon="-6.234179131850784"><ele>2426.6</ele><time>2026-05-04T11:32:28Z</time></trkpt><trkpt lat="31.7845124643408" lon="-6.234276492520156"><ele>2425.8</ele><time>2026-05-04T11:32:29Z</time></trkpt><trkpt lat="31.784426180896418" lon="-6.234347271799586"><ele>2425.0</ele><time>2026-05-04T11:32:30Z</time></trkpt><trkpt lat="31.784320257164172" lon="-6.234407452534566"><ele>2425.0</ele><time>2026-05-04T11:32:31Z</time></trkpt><trkpt lat="31.78421616985416" lon="-6.234470093474177"><ele>2425.0</ele><time>2026-05-04T11:32:32Z</time></trkpt><trkpt lat="31.784123526318353" lon="-6.234539711230344"><ele>2425.0</ele><time>2026-05-04T11:32:33Z</time></trkpt><trkpt lat="31.78405211926507" lon="-6.234638192723708"><ele>2425.0</ele><time>2026-05-04T11:32:34Z</time></trkpt><trkpt lat="31.784012373635374" lon="-6.234766763204961"><ele>2428.5</ele><time>2026-05-04T11:32:35Z</time></trkpt><trkpt lat="31.784008229966243" lon="-6.234908549473701"><ele>2432.0</ele><time>2026-05-04T11:32:36Z</time></trkpt><trkpt lat="31.784034809052475" lon="-6.235045365762336"><ele>2435.5</ele><time>2026-05-04T11:32:37Z</time></trkpt><trkpt lat="31.7841044297229" lon="-6.2351662977141435"><ele>2439.0</ele><time>2026-05-04T11:32:38Z</time></trkpt><trkpt lat="31.78413226205362" lon="-6.235284839001886"><ele>2439.0</ele><time>2026-05-04T11:32:39Z</time></trkpt><trkpt lat="31.78410986473869" lon="-6.235410158589136"><ele>2439.0</ele><time>2026-05-04T11:32:40Z</time></trkpt><trkpt lat="31.784052867305842" lon="-6.235535405946719"><ele>2439.0</ele><time>2026-05-04T11:32:41Z</time></trkpt><trkpt lat="31.783968118605088" lon="-6.2356583435333395"><ele>2439.0</ele><time>2026-05-04T11:32:42Z</time></trkpt><trkpt lat="31.78387126005511" lon="-6.23577829168496"><ele>2438.0</ele><time>2026-05-04T11:32:43Z</time></trkpt><trkpt lat="31.783782294136245" lon="-6.235899672327596"><ele>2437.0</ele><time>2026-05-04T11:32:44Z</time></trkpt><trkpt lat="31.78367586241615" lon="-6.2359900815292875"><ele>2436.0</ele><time>2026-05-04T11:32:45Z</time></trkpt><trkpt lat="31.783561734525062" lon="-6.236033895669678"><ele>2435.0</ele><time>2026-05-04T11:32:46Z</time></trkpt><trkpt lat="31.783457351098736" lon="-6.236086137490084"><ele>2435.0</ele><time>2026-05-04T11:32:47Z</time></trkpt><trkpt lat="31.783377925097295" lon="-6.236180153409937"><ele>2435.0</ele><time>2026-05-04T11:32:48Z</time></trkpt><trkpt lat="31.78331008837632" lon="-6.23630143245218"><ele>2435.0</ele><time>2026-05-04T11:32:49Z</time></trkpt><trkpt lat="31.783281267830148" lon="-6.236451265895248"><ele>2435.0</ele><time>2026-05-04T11:32:50Z</time></trkpt><trkpt lat="31.783209272450396" lon="-6.236603271279304"><ele>2438.75</ele><time>2026-05-04T11:32:51Z</time></trkpt><trkpt lat="31.783101904374572" lon="-6.236730773017424"><ele>2442.5</ele><time>2026-05-04T11:32:52Z</time></trkpt><trkpt lat="31.783029010906425" lon="-6.236876526777524"><ele>2446.25</ele><time>2026-05-04T11:32:53Z</time></trkpt><trkpt lat="31.78296111139534" lon="-6.23700133726619"><ele>2450.0</ele><time>2026-05-04T11:32:54Z</time></trkpt><trkpt lat="31.78293882846883" lon="-6.237120000677746"><ele>2450.0</ele><time>2026-05-04T11:32:55Z</time></trkpt><trkpt lat="31.7829144780146" lon="-6.237228900604335"><ele>2450.0</ele><time>2026-05-04T11:32:56Z</time></trkpt><trkpt lat="31.78294625491941" lon="-6.237316617655175"><ele>2450.0</ele><time>2026-05-04T11:32:57Z</time></trkpt><trkpt lat="31.78297758342508" lon="-6.237398851431217"><ele>2450.0</ele><time>2026-05-04T11:32:58Z</time></trkpt><trkpt lat="31.78306457897087" lon="-6.237428299389885"><ele>2450.0</ele><time>2026-05-04T11:32:59Z</time></trkpt><trkpt lat="31.783155605662223" lon="-6.237402125194671"><ele>2450.0</ele><time>2026-05-04T11:33:00Z</time></trkpt><trkpt lat="31.78323291080645" lon="-6.237320504741738"><ele>2450.0</ele><time>2026-05-04T11:33:01Z</time></trkpt><trkpt lat="31.783292454887903" lon="-6.23721001910123"><ele>2450.0</ele><time>2026-05-04T11:33:02Z</time></trkpt><trkpt lat="31.783336192942002" lon="-6.2370903968805145"><ele>2450.0</ele><time>2026-05-04T11:33:03Z</time></trkpt><trkpt lat="31.783406817961907" lon="-6.237004929700468"><ele>2450.0</ele><time>2026-05-04T11:33:04Z</time></trkpt><trkpt lat="31.78351427106609" lon="-6.236951332308112"><ele>2450.0</ele><time>2026-05-04T11:33:05Z</time></trkpt><trkpt lat="31.783626230548332" lon="-6.236908982527937"><ele>2453.6666666666665</ele><time>2026-05-04T11:33:06Z</time></trkpt><trkpt lat="31.783719988900287" lon="-6.23687646281631"><ele>2457.333333333333</ele><time>2026-05-04T11:33:07Z</time></trkpt><trkpt lat="31.783798951151397" lon="-6.236856141621338"><ele>2461.0</ele><time>2026-05-04T11:33:08Z</time></trkpt><trkpt lat="31.783874857219722" lon="-6.236867312242641"><ele>2464.6666666666665</ele><time>2026-05-04T11:33:08.999Z</time></trkpt><trkpt lat="31.78392830113521" lon="-6.236923744033026"><ele>2468.3333333333335</ele><time>2026-05-04T11:33:09.999Z</time></trkpt><trkpt lat="31.78398276549921" lon="-6.236992352195311"><ele>2472.0</ele><time>2026-05-04T11:33:10.999Z</time></trkpt><trkpt lat="31.783990492537534" lon="-6.237091500504419"><ele>2472.0</ele><time>2026-05-04T11:33:11.999Z</time></trkpt><trkpt lat="31.783865157322925" lon="-6.237212890670327"><ele>2472.0</ele><time>2026-05-04T11:33:12.999Z</time></trkpt><trkpt lat="31.783771848823683" lon="-6.2372542121672305"><ele>2472.0</ele><time>2026-05-04T11:33:13.999Z</time></trkpt><trkpt lat="31.783695010780594" lon="-6.237332106134819"><ele>2472.0</ele><time>2026-05-04T11:33:14.999Z</time></trkpt><trkpt lat="31.78366187970549" lon="-6.237436864722336"><ele>2474.5</ele><time>2026-05-04T11:33:15.999Z</time></trkpt><trkpt lat="31.78365111491854" lon="-6.237562139475355"><ele>2477.0</ele><time>2026-05-04T11:33:16.999Z</time></trkpt><trkpt lat="31.783625120071495" lon="-6.237709906711373"><ele>2479.5</ele><time>2026-05-04T11:33:17.999Z</time></trkpt><trkpt lat="31.78356748899879" lon="-6.2378741653936105"><ele>2482.0</ele><time>2026-05-04T11:33:18.999Z</time></trkpt><trkpt lat="31.783459797218526" lon="-6.2379906849619555"><ele>2481.0</ele><time>2026-05-04T11:33:19.999Z</time></trkpt><trkpt lat="31.783349653413488" lon="-6.238106608538461"><ele>2480.0</ele><time>2026-05-04T11:33:20.999Z</time></trkpt><trkpt lat="31.783248052823765" lon="-6.238212542500381"><ele>2479.0</ele><time>2026-05-04T11:33:21.999Z</time></trkpt><trkpt lat="31.7831581552294" lon="-6.238336381673044"><ele>2478.0</ele><time>2026-05-04T11:33:22.999Z</time></trkpt><trkpt lat="31.783102307547022" lon="-6.2385042073579635"><ele>2478.0</ele><time>2026-05-04T11:33:23.999Z</time></trkpt><trkpt lat="31.783039030824963" lon="-6.238683949965712"><ele>2478.0</ele><time>2026-05-04T11:33:24.999Z</time></trkpt><trkpt lat="31.78297532421932" lon="-6.238865809848555"><ele>2478.0</ele><time>2026-05-04T11:33:25.999Z</time></trkpt><trkpt lat="31.782915373162766" lon="-6.2390411112869035"><ele>2487.3333333333335</ele><time>2026-05-04T11:33:26.999Z</time></trkpt><trkpt lat="31.78285775774914" lon="-6.239209216345353"><ele>2496.666666666667</ele><time>2026-05-04T11:33:27.999Z</time></trkpt><trkpt lat="31.782822005259746" lon="-6.239378442165487"><ele>2506.0</ele><time>2026-05-04T11:33:28.999Z</time></trkpt><trkpt lat="31.782833430833406" lon="-6.239558939944833"><ele>2506.0</ele><time>2026-05-04T11:33:29.999Z</time></trkpt><trkpt lat="31.782805616116907" lon="-6.2397359817285825"><ele>2506.0</ele><time>2026-05-04T11:33:30.999Z</time></trkpt><trkpt lat="31.782749644196343" lon="-6.239910269807905"><ele>2506.0</ele><time>2026-05-04T11:33:31.999Z</time></trkpt><trkpt lat="31.78270156159078" lon="-6.240074901997837"><ele>2497.5</ele><time>2026-05-04T11:33:32.999Z</time></trkpt><trkpt lat="31.782635831875158" lon="-6.240222857308505"><ele>2489.0</ele><time>2026-05-04T11:33:33.999Z</time></trkpt><trkpt lat="31.78258821505095" lon="-6.240359118667648"><ele>2480.5</ele><time>2026-05-04T11:33:34.999Z</time></trkpt><trkpt lat="31.782597226581636" lon="-6.240487807609977"><ele>2472.0</ele><time>2026-05-04T11:33:35.999Z</time></trkpt><trkpt lat="31.782624038092756" lon="-6.2406096314174375"><ele>2477.0</ele><time>2026-05-04T11:33:36.999Z</time></trkpt><trkpt lat="31.78265517538522" lon="-6.240751645143633"><ele>2482.0</ele><time>2026-05-04T11:33:37.999Z</time></trkpt><trkpt lat="31.782639256639875" lon="-6.240883482825983"><ele>2487.0</ele><time>2026-05-04T11:33:38.999Z</time></trkpt><trkpt lat="31.78253443300446" lon="-6.241009677006441"><ele>2492.0</ele><time>2026-05-04T11:33:39.999Z</time></trkpt><trkpt lat="31.782394501770078" lon="-6.2410561064701"><ele>2492.0</ele><time>2026-05-04T11:33:40.999Z</time></trkpt><trkpt lat="31.78228159591611" lon="-6.241135549782397"><ele>2492.0</ele><time>2026-05-04T11:33:41.999Z</time></trkpt><trkpt lat="31.782173346732915" lon="-6.2412376692331595"><ele>2492.0</ele><time>2026-05-04T11:33:42.999Z</time></trkpt><trkpt lat="31.782071975935416" lon="-6.241365132471255"><ele>2492.0</ele><time>2026-05-04T11:33:43.999Z</time></trkpt><trkpt lat="31.78197198322043" lon="-6.241509639408779"><ele>2489.6666666666665</ele><time>2026-05-04T11:33:44.999Z</time></trkpt><trkpt lat="31.781887477944554" lon="-6.241680544192515"><ele>2487.3333333333335</ele><time>2026-05-04T11:33:45.999Z</time></trkpt><trkpt lat="31.78178014087048" lon="-6.241844409545057"><ele>2485.0</ele><time>2026-05-04T11:33:46.999Z</time></trkpt><trkpt lat="31.781666000159987" lon="-6.242008261721984"><ele>2485.0</ele><time>2026-05-04T11:33:47.999Z</time></trkpt><trkpt lat="31.78155082602" lon="-6.242161115431428"><ele>2485.0</ele><time>2026-05-04T11:33:48.999Z</time></trkpt><trkpt lat="31.781411701064034" lon="-6.242275625033839"><ele>2485.0</ele><time>2026-05-04T11:33:49.999Z</time></trkpt><trkpt lat="31.781327907796513" lon="-6.24241659987483"><ele>2494.0</ele><time>2026-05-04T11:33:50.999Z</time></trkpt><trkpt lat="31.781263705722665" lon="-6.242552781412294"><ele>2503.0</ele><time>2026-05-04T11:33:51.999Z</time></trkpt><trkpt lat="31.7812543162806" lon="-6.242710135569553"><ele>2512.0</ele><time>2026-05-04T11:33:52.999Z</time></trkpt><trkpt lat="31.781205331558287" lon="-6.2428428948983"><ele>2521.0</ele><time>2026-05-04T11:33:53.999Z</time></trkpt><trkpt lat="31.78117244031914" lon="-6.242962488320324"><ele>2521.0</ele><time>2026-05-04T11:33:54.999Z</time></trkpt><trkpt lat="31.78112782571878" lon="-6.243074925133655"><ele>2521.0</ele><time>2026-05-04T11:33:55.999Z</time></trkpt><trkpt lat="31.781080572799855" lon="-6.243184543917173"><ele>2521.0</ele><time>2026-05-04T11:33:56.999Z</time></trkpt><trkpt lat="31.781003271460595" lon="-6.243301653758903"><ele>2521.0</ele><time>2026-05-04T11:33:57.999Z</time></trkpt><trkpt lat="31.780905717296893" lon="-6.243408948270255"><ele>2518.5</ele><time>2026-05-04T11:33:58.999Z</time></trkpt><trkpt lat="31.780811213222385" lon="-6.243510701643351"><ele>2516.0</ele><time>2026-05-04T11:33:59.999Z</time></trkpt><trkpt lat="31.780715352374514" lon="-6.243629681224884"><ele>2513.5</ele><time>2026-05-04T11:34:01Z</time></trkpt><trkpt lat="31.780622917020303" lon="-6.243757569968646"><ele>2511.0</ele><time>2026-05-04T11:34:02Z</time></trkpt><trkpt lat="31.780525140751852" lon="-6.243897121229581"><ele>2518.0</ele><time>2026-05-04T11:34:03Z</time></trkpt><trkpt lat="31.7804258513275" lon="-6.244040213939037"><ele>2525.0</ele><time>2026-05-04T11:34:04Z</time></trkpt><trkpt lat="31.78034039587586" lon="-6.244178312676824"><ele>2532.0</ele><time>2026-05-04T11:34:05Z</time></trkpt><trkpt lat="31.780268677148516" lon="-6.244305620840669"><ele>2539.0</ele><time>2026-05-04T11:34:06Z</time></trkpt><trkpt lat="31.780256619935603" lon="-6.244438114986717"><ele>2539.0</ele><time>2026-05-04T11:34:07Z</time></trkpt><trkpt lat="31.78030178912367" lon="-6.24455992359529"><ele>2539.0</ele><time>2026-05-04T11:34:08Z</time></trkpt><trkpt lat="31.780289680995825" lon="-6.244660349381684"><ele>2539.0</ele><time>2026-05-04T11:34:09Z</time></trkpt><trkpt lat="31.780238138738888" lon="-6.244780863842454"><ele>2539.0</ele><time>2026-05-04T11:34:10Z</time></trkpt><trkpt lat="31.780081053698712" lon="-6.244841910528866"><ele>2535.0</ele><time>2026-05-04T11:34:11Z</time></trkpt><trkpt lat="31.779963294302483" lon="-6.24489423392961"><ele>2531.0</ele><time>2026-05-04T11:34:12Z</time></trkpt><trkpt lat="31.779861415873548" lon="-6.244986723359876"><ele>2527.0</ele><time>2026-05-04T11:34:13Z</time></trkpt><trkpt lat="31.77977694342495" lon="-6.2450978994793465"><ele>2523.0</ele><time>2026-05-04T11:34:14Z</time></trkpt><trkpt lat="31.779688647128804" lon="-6.24522931480789"><ele>2523.0</ele><time>2026-05-04T11:34:15Z</time></trkpt><trkpt lat="31.77960438014519" lon="-6.245371371273008"><ele>2523.0</ele><time>2026-05-04T11:34:16Z</time></trkpt><trkpt lat="31.779514514339077" lon="-6.245520505596755"><ele>2523.0</ele><time>2026-05-04T11:34:17Z</time></trkpt><trkpt lat="31.779422413527232" lon="-6.245671600375838"><ele>2520.6666666666665</ele><time>2026-05-04T11:34:18Z</time></trkpt><trkpt lat="31.779328254308197" lon="-6.245830639217353"><ele>2518.333333333333</ele><time>2026-05-04T11:34:19Z</time></trkpt><trkpt lat="31.779223533570594" lon="-6.2459820091972515"><ele>2516.0</ele><time>2026-05-04T11:34:20Z</time></trkpt><trkpt lat="31.77916440070975" lon="-6.2461638372291235"><ele>2516.0</ele><time>2026-05-04T11:34:21Z</time></trkpt><trkpt lat="31.779094167792284" lon="-6.246343158855345"><ele>2516.0</ele><time>2026-05-04T11:34:22Z</time></trkpt><trkpt lat="31.779054355281495" lon="-6.246528035618328"><ele>2516.0</ele><time>2026-05-04T11:34:23Z</time></trkpt><trkpt lat="31.778995900207" lon="-6.246717179804214"><ele>2521.5</ele><time>2026-05-04T11:34:24Z</time></trkpt><trkpt lat="31.778940708297625" lon="-6.2468861633572565"><ele>2527.0</ele><time>2026-05-04T11:34:25Z</time></trkpt><trkpt lat="31.778881698434738" lon="-6.247041020767769"><ele>2532.5</ele><time>2026-05-04T11:34:26Z</time></trkpt><trkpt lat="31.77883031108193" lon="-6.247181501569526"><ele>2538.0</ele><time>2026-05-04T11:34:27Z</time></trkpt><trkpt lat="31.77882602828502" lon="-6.247333721031031"><ele>2540.4</ele><time>2026-05-04T11:34:28Z</time></trkpt><trkpt lat="31.778845001028465" lon="-6.247473747154091"><ele>2542.8</ele><time>2026-05-04T11:34:29Z</time></trkpt><trkpt lat="31.778884338479486" lon="-6.247583533952801"><ele>2545.2</ele><time>2026-05-04T11:34:30Z</time></trkpt><trkpt lat="31.778895281975174" lon="-6.24770345018581"><ele>2547.6</ele><time>2026-05-04T11:34:31Z</time></trkpt><trkpt lat="31.778866962953504" lon="-6.247830891351517"><ele>2550.0</ele><time>2026-05-04T11:34:32Z</time></trkpt><trkpt lat="31.778811526014035" lon="-6.247939537156436"><ele>2550.0</ele><time>2026-05-04T11:34:33Z</time></trkpt><trkpt lat="31.778710505512528" lon="-6.248041739487056"><ele>2550.0</ele><time>2026-05-04T11:34:34Z</time></trkpt><trkpt lat="31.778584119794544" lon="-6.24810745617723"><ele>2550.0</ele><time>2026-05-04T11:34:35Z</time></trkpt><trkpt lat="31.778476549005685" lon="-6.248197511714426"><ele>2550.0</ele><time>2026-05-04T11:34:36Z</time></trkpt><trkpt lat="31.778347008244744" lon="-6.248254442142529"><ele>2548.0</ele><time>2026-05-04T11:34:37Z</time></trkpt><trkpt lat="31.778226407636733" lon="-6.248312436377651"><ele>2546.0</ele><time>2026-05-04T11:34:38Z</time></trkpt><trkpt lat="31.77812368816244" lon="-6.2483730118264935"><ele>2544.0</ele><time>2026-05-04T11:34:39Z</time></trkpt><trkpt lat="31.778034040072832" lon="-6.248444405773293"><ele>2542.0</ele><time>2026-05-04T11:34:40Z</time></trkpt><trkpt lat="31.777944889352085" lon="-6.248518984582745"><ele>2542.0</ele><time>2026-05-04T11:34:41Z</time></trkpt><trkpt lat="31.777899645733942" lon="-6.248628276297096"><ele>2542.0</ele><time>2026-05-04T11:34:42Z</time></trkpt><trkpt lat="31.777865744547807" lon="-6.2487279695080575"><ele>2542.0</ele><time>2026-05-04T11:34:43Z</time></trkpt><trkpt lat="31.77785581176421" lon="-6.248813661532562"><ele>2542.0</ele><time>2026-05-04T11:34:44Z</time></trkpt><trkpt lat="31.777849662751084" lon="-6.2489234936157665"><ele>2542.0</ele><time>2026-05-04T11:34:46Z</time></trkpt><trkpt lat="31.777844824093002" lon="-6.249003970119384"><ele>2542.0</ele><time>2026-05-04T11:35:07Z</time></trkpt><trkpt lat="31.77785006706638" lon="-6.249170249841318"><ele>2546.3999999999996</ele><time>2026-05-04T11:35:09Z</time></trkpt><trkpt lat="31.777866190902902" lon="-6.249268870286934"><ele>2550.7999999999997</ele><time>2026-05-04T11:35:09.999Z</time></trkpt><trkpt lat="31.777892999487218" lon="-6.249378163393671"><ele>2555.2</ele><time>2026-05-04T11:35:10.999Z</time></trkpt><trkpt lat="31.77793518480804" lon="-6.249512577914431"><ele>2559.6</ele><time>2026-05-04T11:35:11.999Z</time></trkpt><trkpt lat="31.777976582890144" lon="-6.249635849984047"><ele>2564.0</ele><time>2026-05-04T11:35:12.999Z</time></trkpt><trkpt lat="31.77801362392225" lon="-6.249742789182047"><ele>2565.3999999999996</ele><time>2026-05-04T11:35:13.999Z</time></trkpt><trkpt lat="31.778046931819368" lon="-6.249835108765497"><ele>2566.8</ele><time>2026-05-04T11:35:14.999Z</time></trkpt><trkpt lat="31.7780513712217" lon="-6.249941100881629"><ele>2568.2</ele><time>2026-05-04T11:35:15.999Z</time></trkpt><trkpt lat="31.777982133308868" lon="-6.250043482126926"><ele>2569.6000000000004</ele><time>2026-05-04T11:35:16.999Z</time></trkpt><trkpt lat="31.777884363918204" lon="-6.250094823865996"><ele>2571.0</ele><time>2026-05-04T11:35:17.999Z</time></trkpt><trkpt lat="31.777737348815005" lon="-6.249992433216683"><ele>2566.8</ele><time>2026-05-04T11:35:18.999Z</time></trkpt><trkpt lat="31.777638654577732" lon="-6.2499821380301634"><ele>2562.6000000000004</ele><time>2026-05-04T11:35:19.999Z</time></trkpt><trkpt lat="31.777552897503355" lon="-6.250041249875853"><ele>2558.4</ele><time>2026-05-04T11:35:20.999Z</time></trkpt><trkpt lat="31.777463086315567" lon="-6.250095121795834"><ele>2554.2</ele><time>2026-05-04T11:35:21.999Z</time></trkpt><trkpt lat="31.777380528367523" lon="-6.250168039712838"><ele>2550.0</ele><time>2026-05-04T11:35:22.999Z</time></trkpt><trkpt lat="31.777282477549736" lon="-6.250248477771774"><ele>2550.0</ele><time>2026-05-04T11:35:23.999Z</time></trkpt><trkpt lat="31.777184778969207" lon="-6.250351785471625"><ele>2550.0</ele><time>2026-05-04T11:35:24.999Z</time></trkpt><trkpt lat="31.77708025099934" lon="-6.250455975676554"><ele>2550.0</ele><time>2026-05-04T11:35:25.999Z</time></trkpt><trkpt lat="31.776977519375198" lon="-6.250553519164304"><ele>2550.0</ele><time>2026-05-04T11:35:26.999Z</time></trkpt><trkpt lat="31.776878018561728" lon="-6.250653766327904"><ele>2552.0</ele><time>2026-05-04T11:35:27.999Z</time></trkpt><trkpt lat="31.776772194680394" lon="-6.2507650425961465"><ele>2554.0</ele><time>2026-05-04T11:35:28.999Z</time></trkpt><trkpt lat="31.7766810823746" lon="-6.250902780488881"><ele>2556.0</ele><time>2026-05-04T11:35:29.999Z</time></trkpt><trkpt lat="31.77659086737742" lon="-6.251037333795377"><ele>2558.0</ele><time>2026-05-04T11:35:30.999Z</time></trkpt><trkpt lat="31.776504983470698" lon="-6.251186008810332"><ele>2558.0</ele><time>2026-05-04T11:35:31.999Z</time></trkpt><trkpt lat="31.776416905701165" lon="-6.251339097836308"><ele>2558.0</ele><time>2026-05-04T11:35:32.999Z</time></trkpt><trkpt lat="31.7763191075085" lon="-6.251493861217185"><ele>2558.0</ele><time>2026-05-04T11:35:33.999Z</time></trkpt><trkpt lat="31.776216878580453" lon="-6.251637911362196"><ele>2556.333333333333</ele><time>2026-05-04T11:35:34.999Z</time></trkpt><trkpt lat="31.776104721646817" lon="-6.251761724769236"><ele>2554.6666666666665</ele><time>2026-05-04T11:35:35.999Z</time></trkpt><trkpt lat="31.776010092479893" lon="-6.251912449661095"><ele>2553.0</ele><time>2026-05-04T11:35:36.999Z</time></trkpt><trkpt lat="31.77593750352346" lon="-6.25208719132054"><ele>2553.0</ele><time>2026-05-04T11:35:37.999Z</time></trkpt><trkpt lat="31.775855008435087" lon="-6.252252156363716"><ele>2553.0</ele><time>2026-05-04T11:35:38.999Z</time></trkpt><trkpt lat="31.77580416759837" lon="-6.252424063528454"><ele>2553.0</ele><time>2026-05-04T11:35:39.999Z</time></trkpt><trkpt lat="31.77576186680937" lon="-6.252598822434264"><ele>2559.3333333333335</ele><time>2026-05-04T11:35:40.999Z</time></trkpt><trkpt lat="31.77572025735121" lon="-6.252777031858482"><ele>2565.666666666667</ele><time>2026-05-04T11:35:41.999Z</time></trkpt><trkpt lat="31.775675944300133" lon="-6.2529591947351"><ele>2572.0</ele><time>2026-05-04T11:35:42.999Z</time></trkpt><trkpt lat="31.775621874703663" lon="-6.253131679378046"><ele>2574.5</ele><time>2026-05-04T11:35:43.999Z</time></trkpt><trkpt lat="31.77557019952624" lon="-6.2532933211804345"><ele>2577.0</ele><time>2026-05-04T11:35:44.999Z</time></trkpt><trkpt lat="31.775521150692647" lon="-6.253439475907548"><ele>2579.5</ele><time>2026-05-04T11:35:45.999Z</time></trkpt><trkpt lat="31.775496267881262" lon="-6.253573706195096"><ele>2582.0</ele><time>2026-05-04T11:35:46.999Z</time></trkpt><trkpt lat="31.775492786720076" lon="-6.253693910466056"><ele>2582.0</ele><time>2026-05-04T11:35:47.999Z</time></trkpt><trkpt lat="31.77549729607886" lon="-6.253813792131337"><ele>2582.0</ele><time>2026-05-04T11:35:48.999Z</time></trkpt><trkpt lat="31.77549278810774" lon="-6.2539355202542035"><ele>2582.0</ele><time>2026-05-04T11:35:49.999Z</time></trkpt><trkpt lat="31.775469955981762" lon="-6.254039586154109"><ele>2582.0</ele><time>2026-05-04T11:35:50.999Z</time></trkpt><trkpt lat="31.77543390543879" lon="-6.2541521016338555"><ele>2582.0</ele><time>2026-05-04T11:35:51.999Z</time></trkpt><trkpt lat="31.77538765179796" lon="-6.2542615282147"><ele>2582.0</ele><time>2026-05-04T11:35:52.999Z</time></trkpt><trkpt lat="31.7753341435938" lon="-6.254372683881314"><ele>2582.0</ele><time>2026-05-04T11:35:53.999Z</time></trkpt><trkpt lat="31.775257270599155" lon="-6.254501233309968"><ele>2582.0</ele><time>2026-05-04T11:35:54.999Z</time></trkpt><trkpt lat="31.775187971975807" lon="-6.254608597130456"><ele>2582.0</ele><time>2026-05-04T11:35:55.999Z</time></trkpt><trkpt lat="31.775119728142812" lon="-6.254740370085876"><ele>2583.75</ele><time>2026-05-04T11:35:56.999Z</time></trkpt><trkpt lat="31.77505477869855" lon="-6.254872739251766"><ele>2585.5</ele><time>2026-05-04T11:35:57.999Z</time></trkpt><trkpt lat="31.774998581415243" lon="-6.25502197552129"><ele>2587.25</ele><time>2026-05-04T11:35:58.999Z</time></trkpt><trkpt lat="31.774943881334462" lon="-6.255169418217979"><ele>2589.0</ele><time>2026-05-04T11:35:59.999Z</time></trkpt><trkpt lat="31.774887384427917" lon="-6.255310895132614"><ele>2589.0</ele><time>2026-05-04T11:36:00.999Z</time></trkpt><trkpt lat="31.774826120353026" lon="-6.255453475859618"><ele>2589.0</ele><time>2026-05-04T11:36:01.999Z</time></trkpt><trkpt lat="31.774731092549303" lon="-6.255585625505771"><ele>2589.0</ele><time>2026-05-04T11:36:02.999Z</time></trkpt><trkpt lat="31.77463754745869" lon="-6.2557000844594315"><ele>2589.0</ele><time>2026-05-04T11:36:03.999Z</time></trkpt><trkpt lat="31.77453574802909" lon="-6.25579434453664"><ele>2589.5</ele><time>2026-05-04T11:36:04.999Z</time></trkpt><trkpt lat="31.774456699792143" lon="-6.255910439023679"><ele>2590.0</ele><time>2026-05-04T11:36:05.999Z</time></trkpt><trkpt lat="31.774369736490428" lon="-6.256016306861324"><ele>2590.5</ele><time>2026-05-04T11:36:07Z</time></trkpt><trkpt lat="31.77428772691809" lon="-6.256124621410996"><ele>2591.0</ele><time>2026-05-04T11:36:08Z</time></trkpt><trkpt lat="31.774239543744752" lon="-6.2562533953793"><ele>2591.0</ele><time>2026-05-04T11:36:09Z</time></trkpt><trkpt lat="31.77419181810227" lon="-6.256390546905338"><ele>2591.0</ele><time>2026-05-04T11:36:10Z</time></trkpt><trkpt lat="31.77414477103741" lon="-6.256532425812222"><ele>2591.0</ele><time>2026-05-04T11:36:11Z</time></trkpt><trkpt lat="31.774101786185486" lon="-6.256676493173719"><ele>2591.0</ele><time>2026-05-04T11:36:12Z</time></trkpt><trkpt lat="31.77407412118573" lon="-6.256815640680287"><ele>2594.5</ele><time>2026-05-04T11:36:13Z</time></trkpt><trkpt lat="31.774053492331827" lon="-6.256970091753498"><ele>2598.0</ele><time>2026-05-04T11:36:14Z</time></trkpt><trkpt lat="31.77401865568365" lon="-6.257122720857781"><ele>2601.5</ele><time>2026-05-04T11:36:15Z</time></trkpt><trkpt lat="31.773962860506945" lon="-6.257278422290914"><ele>2605.0</ele><time>2026-05-04T11:36:16Z</time></trkpt><trkpt lat="31.773916130112834" lon="-6.257430492440709"><ele>2610.0</ele><time>2026-05-04T11:36:17Z</time></trkpt><trkpt lat="31.773880597204965" lon="-6.257592857466768"><ele>2615.0</ele><time>2026-05-04T11:36:18Z</time></trkpt><trkpt lat="31.773846096434443" lon="-6.257755313413127"><ele>2620.0</ele><time>2026-05-04T11:36:19Z</time></trkpt><trkpt lat="31.773849722225314" lon="-6.257918374627171"><ele>2625.0</ele><time>2026-05-04T11:36:20Z</time></trkpt><trkpt lat="31.77383522570834" lon="-6.258087582867708"><ele>2630.3333333333335</ele><time>2026-05-04T11:36:21Z</time></trkpt><trkpt lat="31.77381512411599" lon="-6.258258480554283"><ele>2635.666666666667</ele><time>2026-05-04T11:36:22Z</time></trkpt><trkpt lat="31.773746063911627" lon="-6.258431288452243"><ele>2641.0</ele><time>2026-05-04T11:36:23Z</time></trkpt><trkpt lat="31.773664622099517" lon="-6.258585514771512"><ele>2641.0</ele><time>2026-05-04T11:36:24Z</time></trkpt><trkpt lat="31.77356762695337" lon="-6.2587226612312135"><ele>2641.0</ele><time>2026-05-04T11:36:25Z</time></trkpt><trkpt lat="31.77346206593809" lon="-6.2588436300633585"><ele>2641.0</ele><time>2026-05-04T11:36:26Z</time></trkpt><trkpt lat="31.773355130008092" lon="-6.258960099438766"><ele>2641.0</ele><time>2026-05-04T11:36:27Z</time></trkpt><trkpt lat="31.77324557497901" lon="-6.2590783395104275"><ele>2639.0</ele><time>2026-05-04T11:36:28Z</time></trkpt><trkpt lat="31.773131243348345" lon="-6.259201527992101"><ele>2637.0</ele><time>2026-05-04T11:36:29Z</time></trkpt><trkpt lat="31.7730165185993" lon="-6.259328378763847"><ele>2635.0</ele><time>2026-05-04T11:36:30Z</time></trkpt><trkpt lat="31.772905227432584" lon="-6.259462583002961"><ele>2635.0</ele><time>2026-05-04T11:36:31Z</time></trkpt><trkpt lat="31.772794900614013" lon="-6.259594430343413"><ele>2635.0</ele><time>2026-05-04T11:36:32Z</time></trkpt><trkpt lat="31.77267920326594" lon="-6.259732339364874"><ele>2635.0</ele><time>2026-05-04T11:36:33Z</time></trkpt><trkpt lat="31.772560328688822" lon="-6.259878192989182"><ele>2632.3333333333335</ele><time>2026-05-04T11:36:34Z</time></trkpt><trkpt lat="31.772438556193105" lon="-6.260029992798887"><ele>2629.6666666666665</ele><time>2026-05-04T11:36:35Z</time></trkpt><trkpt lat="31.772315538562747" lon="-6.260186444432344"><ele>2627.0</ele><time>2026-05-04T11:36:36Z</time></trkpt><trkpt lat="31.772198288452522" lon="-6.2603488036711985"><ele>2627.0</ele><time>2026-05-04T11:36:37Z</time></trkpt><trkpt lat="31.772086613025483" lon="-6.26051986543917"><ele>2627.0</ele><time>2026-05-04T11:36:38Z</time></trkpt><trkpt lat="31.772006054669138" lon="-6.260701147109052"><ele>2627.0</ele><time>2026-05-04T11:36:39Z</time></trkpt><trkpt lat="31.771939657891846" lon="-6.260897097730657"><ele>2626.6666666666665</ele><time>2026-05-04T11:36:40Z</time></trkpt><trkpt lat="31.7718842934963" lon="-6.261103807019469"><ele>2626.3333333333335</ele><time>2026-05-04T11:36:41Z</time></trkpt><trkpt lat="31.771830859949024" lon="-6.261318354817296"><ele>2626.0</ele><time>2026-05-04T11:36:42Z</time></trkpt><trkpt lat="31.771776509493705" lon="-6.261533165707513"><ele>2627.3333333333335</ele><time>2026-05-04T11:36:43Z</time></trkpt><trkpt lat="31.77172348141609" lon="-6.2617460973473875"><ele>2628.6666666666665</ele><time>2026-05-04T11:36:44Z</time></trkpt><trkpt lat="31.771678384391027" lon="-6.261956890565563"><ele>2630.0</ele><time>2026-05-04T11:36:45Z</time></trkpt><trkpt lat="31.771643133013622" lon="-6.262168218397331"><ele>2633.0</ele><time>2026-05-04T11:36:46Z</time></trkpt><trkpt lat="31.77162010196621" lon="-6.26237885386476"><ele>2636.0</ele><time>2026-05-04T11:36:47Z</time></trkpt><trkpt lat="31.771612341521163" lon="-6.2625875069164465"><ele>2639.0</ele><time>2026-05-04T11:36:48Z</time></trkpt><trkpt lat="31.77160902234496" lon="-6.262798061476293"><ele>2639.0</ele><time>2026-05-04T11:36:49Z</time></trkpt><trkpt lat="31.771599010857404" lon="-6.263005293070561"><ele>2639.0</ele><time>2026-05-04T11:36:50Z</time></trkpt><trkpt lat="31.771533090206063" lon="-6.263202734357003"><ele>2639.0</ele><time>2026-05-04T11:36:51Z</time></trkpt><trkpt lat="31.771439434886737" lon="-6.263373640751758"><ele>2640.333333333333</ele><time>2026-05-04T11:36:52Z</time></trkpt><trkpt lat="31.771328586047257" lon="-6.26353367849025"><ele>2641.6666666666665</ele><time>2026-05-04T11:36:53Z</time></trkpt><trkpt lat="31.771225832492625" lon="-6.263700346090052"><ele>2643.0</ele><time>2026-05-04T11:36:54Z</time></trkpt><trkpt lat="31.77114776303102" lon="-6.263875182840713"><ele>2642.6666666666665</ele><time>2026-05-04T11:36:55Z</time></trkpt><trkpt lat="31.771071396678387" lon="-6.264059012839995"><ele>2642.333333333333</ele><time>2026-05-04T11:36:56Z</time></trkpt><trkpt lat="31.77100099148621" lon="-6.264248763117684"><ele>2642.0</ele><time>2026-05-04T11:36:57Z</time></trkpt><trkpt lat="31.77093260722559" lon="-6.264450785456406"><ele>2642.0</ele><time>2026-05-04T11:36:58Z</time></trkpt><trkpt lat="31.77086321439576" lon="-6.264655588438331"><ele>2642.0</ele><time>2026-05-04T11:36:59Z</time></trkpt><trkpt lat="31.770788580081614" lon="-6.264864405850153"><ele>2642.0</ele><time>2026-05-04T11:37:00Z</time></trkpt><trkpt lat="31.770710022746837" lon="-6.265074275453063"><ele>2644.6666666666665</ele><time>2026-05-04T11:37:01Z</time></trkpt><trkpt lat="31.770631386171946" lon="-6.2652855613353"><ele>2647.3333333333335</ele><time>2026-05-04T11:37:02Z</time></trkpt><trkpt lat="31.77055365427726" lon="-6.2654977537696475"><ele>2650.0</ele><time>2026-05-04T11:37:03Z</time></trkpt><trkpt lat="31.770483611645396" lon="-6.265703877587957"><ele>2651.3333333333335</ele><time>2026-05-04T11:37:04Z</time></trkpt><trkpt lat="31.770410358855273" lon="-6.265904488860509"><ele>2652.6666666666665</ele><time>2026-05-04T11:37:05Z</time></trkpt><trkpt lat="31.770326998646595" lon="-6.26609109605873"><ele>2654.0</ele><time>2026-05-04T11:37:06Z</time></trkpt><trkpt lat="31.77023080005434" lon="-6.266262939728346"><ele>2653.333333333333</ele><time>2026-05-04T11:37:06.999Z</time></trkpt><trkpt lat="31.770097461342154" lon="-6.266417818281639"><ele>2652.6666666666665</ele><time>2026-05-04T11:37:07.999Z</time></trkpt><trkpt lat="31.769965952762185" lon="-6.26656530342093"><ele>2652.0</ele><time>2026-05-04T11:37:08.999Z</time></trkpt><trkpt lat="31.76983651988316" lon="-6.266724035780303"><ele>2652.0</ele><time>2026-05-04T11:37:09.999Z</time></trkpt><trkpt lat="31.769705216862423" lon="-6.266885716322172"><ele>2652.0</ele><time>2026-05-04T11:37:10.999Z</time></trkpt><trkpt lat="31.769571523230784" lon="-6.267049374901209"><ele>2652.0</ele><time>2026-05-04T11:37:11.999Z</time></trkpt><trkpt lat="31.769436801568418" lon="-6.267215045988878"><ele>2653.6666666666665</ele><time>2026-05-04T11:37:12.999Z</time></trkpt><trkpt lat="31.76930199630067" lon="-6.267383934093602"><ele>2655.333333333333</ele><time>2026-05-04T11:37:13.999Z</time></trkpt><trkpt lat="31.76917045525737" lon="-6.267548697430483"><ele>2657.0</ele><time>2026-05-04T11:37:14.999Z</time></trkpt><trkpt lat="31.769054258770783" lon="-6.267718313016405"><ele>2657.0</ele><time>2026-05-04T11:37:15.999Z</time></trkpt><trkpt lat="31.76894463158179" lon="-6.267898630154881"><ele>2657.0</ele><time>2026-05-04T11:37:16.999Z</time></trkpt><trkpt lat="31.768837260514456" lon="-6.268077116672153"><ele>2657.0</ele><time>2026-05-04T11:37:17.999Z</time></trkpt><trkpt lat="31.768733582601563" lon="-6.268265327581778"><ele>2657.6666666666665</ele><time>2026-05-04T11:37:18.999Z</time></trkpt><trkpt lat="31.76862901267915" lon="-6.268453526438091"><ele>2658.3333333333335</ele><time>2026-05-04T11:37:19.999Z</time></trkpt><trkpt lat="31.7685494795541" lon="-6.26864724537691"><ele>2659.0</ele><time>2026-05-04T11:37:20.999Z</time></trkpt><trkpt lat="31.768467035959954" lon="-6.2688469875728074"><ele>2661.3333333333335</ele><time>2026-05-04T11:37:21.999Z</time></trkpt><trkpt lat="31.768368775317292" lon="-6.2690416243428775"><ele>2663.6666666666665</ele><time>2026-05-04T11:37:22.999Z</time></trkpt><trkpt lat="31.768245806009087" lon="-6.269217077800868"><ele>2666.0</ele><time>2026-05-04T11:37:23.999Z</time></trkpt><trkpt lat="31.768128611532475" lon="-6.269387088166029"><ele>2666.0</ele><time>2026-05-04T11:37:24.999Z</time></trkpt><trkpt lat="31.768007537440084" lon="-6.269552663474523"><ele>2666.0</ele><time>2026-05-04T11:37:25.999Z</time></trkpt><trkpt lat="31.76788601225607" lon="-6.269716051484348"><ele>2666.0</ele><time>2026-05-04T11:37:26.999Z</time></trkpt><trkpt lat="31.767772424046523" lon="-6.269879316355484"><ele>2667.0</ele><time>2026-05-04T11:37:27.999Z</time></trkpt><trkpt lat="31.767660217856854" lon="-6.270048942849983"><ele>2668.0</ele><time>2026-05-04T11:37:28.999Z</time></trkpt><trkpt lat="31.767560641996212" lon="-6.270223496892754"><ele>2669.0</ele><time>2026-05-04T11:37:29.999Z</time></trkpt><trkpt lat="31.767480326952448" lon="-6.270404327117543"><ele>2669.0</ele><time>2026-05-04T11:37:30.999Z</time></trkpt><trkpt lat="31.76740943417586" lon="-6.2706017360732735"><ele>2669.0</ele><time>2026-05-04T11:37:31.999Z</time></trkpt><trkpt lat="31.767368462895806" lon="-6.270807018635239"><ele>2669.0</ele><time>2026-05-04T11:37:32.999Z</time></trkpt><trkpt lat="31.767302438833433" lon="-6.270999968120884"><ele>2672.333333333333</ele><time>2026-05-04T11:37:33.999Z</time></trkpt><trkpt lat="31.767238953169045" lon="-6.271183950732317"><ele>2675.6666666666665</ele><time>2026-05-04T11:37:34.999Z</time></trkpt><trkpt lat="31.76718296485321" lon="-6.271372546841188"><ele>2679.0</ele><time>2026-05-04T11:37:35.999Z</time></trkpt><trkpt lat="31.767127527986197" lon="-6.271559285378141"><ele>2682.0</ele><time>2026-05-04T11:37:36.999Z</time></trkpt><trkpt lat="31.76708175055823" lon="-6.271737147968197"><ele>2685.0</ele><time>2026-05-04T11:37:37.999Z</time></trkpt><trkpt lat="31.767051677632864" lon="-6.271910760634838"><ele>2688.0</ele><time>2026-05-04T11:37:38.999Z</time></trkpt><trkpt lat="31.767034850475135" lon="-6.272100604660114"><ele>2690.3333333333335</ele><time>2026-05-04T11:37:39.999Z</time></trkpt><trkpt lat="31.76701662049039" lon="-6.272284145310074"><ele>2692.666666666667</ele><time>2026-05-04T11:37:40.999Z</time></trkpt><trkpt lat="31.767012994149365" lon="-6.272473757474151"><ele>2695.0</ele><time>2026-05-04T11:37:41.999Z</time></trkpt><trkpt lat="31.76703800450087" lon="-6.272654365252311"><ele>2695.0</ele><time>2026-05-04T11:37:42.999Z</time></trkpt><trkpt lat="31.767067416396376" lon="-6.272836306458569"><ele>2695.0</ele><time>2026-05-04T11:37:43.999Z</time></trkpt><trkpt lat="31.767099052449005" lon="-6.273017492582127"><ele>2695.0</ele><time>2026-05-04T11:37:44.999Z</time></trkpt><trkpt lat="31.767107173645996" lon="-6.2732242257479225"><ele>2694.666666666667</ele><time>2026-05-04T11:37:45.999Z</time></trkpt><trkpt lat="31.767084182825673" lon="-6.27342468145557"><ele>2694.3333333333335</ele><time>2026-05-04T11:37:46.999Z</time></trkpt><trkpt lat="31.76702620289874" lon="-6.273619997142053"><ele>2694.0</ele><time>2026-05-04T11:37:47.999Z</time></trkpt><trkpt lat="31.76694155631542" lon="-6.273805588135782"><ele>2692.3333333333335</ele><time>2026-05-04T11:37:48.999Z</time></trkpt><trkpt lat="31.766849447293524" lon="-6.273984486234391"><ele>2690.666666666667</ele><time>2026-05-04T11:37:49.999Z</time></trkpt><trkpt lat="31.766764412872398" lon="-6.274161919840696"><ele>2689.0</ele><time>2026-05-04T11:37:50.999Z</time></trkpt><trkpt lat="31.76668886061029" lon="-6.274326814910661"><ele>2689.0</ele><time>2026-05-04T11:37:51.999Z</time></trkpt><trkpt lat="31.76662583849413" lon="-6.274463017621655"><ele>2689.0</ele><time>2026-05-04T11:37:52.999Z</time></trkpt><trkpt lat="31.766569809883276" lon="-6.274571969486847"><ele>2689.0</ele><time>2026-05-04T11:37:53.999Z</time></trkpt><trkpt lat="31.766527115381695" lon="-6.274654851218265"><ele>2689.0</ele><time>2026-05-04T11:37:54.999Z</time></trkpt><trkpt lat="31.766472516000466" lon="-6.274725762106455"><ele>2689.0</ele><time>2026-05-04T11:37:56.999Z</time></trkpt><trkpt lat="31.766449587489532" lon="-6.274800729156972"><ele>2691.3999999999996</ele><time>2026-05-04T11:38:46Z</time></trkpt><trkpt lat="31.766411979981307" lon="-6.274866823661173"><ele>2693.8</ele><time>2026-05-04T11:38:47Z</time></trkpt><trkpt lat="31.766359322414974" lon="-6.274959290216041"><ele>2696.2</ele><time>2026-05-04T11:38:48Z</time></trkpt><trkpt lat="31.766299495351888" lon="-6.275056177074904"><ele>2698.6000000000004</ele><time>2026-05-04T11:38:49Z</time></trkpt><trkpt lat="31.76622631726902" lon="-6.275164032317728"><ele>2701.0</ele><time>2026-05-04T11:38:50Z</time></trkpt><trkpt lat="31.76614948797979" lon="-6.275277822730753"><ele>2701.0</ele><time>2026-05-04T11:38:51Z</time></trkpt><trkpt lat="31.76606614501727" lon="-6.2754044135821525"><ele>2701.0</ele><time>2026-05-04T11:38:52Z</time></trkpt><trkpt lat="31.765977714340412" lon="-6.27553705976932"><ele>2701.0</ele><time>2026-05-04T11:38:53Z</time></trkpt><trkpt lat="31.76589024737838" lon="-6.275668487590398"><ele>2701.0</ele><time>2026-05-04T11:38:54Z</time></trkpt><trkpt lat="31.765799200495284" lon="-6.2758054692546255"><ele>2700.0</ele><time>2026-05-04T11:38:55Z</time></trkpt><trkpt lat="31.765706504019875" lon="-6.275945983662656"><ele>2699.0</ele><time>2026-05-04T11:38:56Z</time></trkpt><trkpt lat="31.76561337737342" lon="-6.276087009492563"><ele>2698.0</ele><time>2026-05-04T11:38:57Z</time></trkpt><trkpt lat="31.765525100227403" lon="-6.276230441012198"><ele>2698.0</ele><time>2026-05-04T11:38:58Z</time></trkpt><trkpt lat="31.765447266123715" lon="-6.276369911672641"><ele>2698.0</ele><time>2026-05-04T11:38:59Z</time></trkpt><trkpt lat="31.76537273101432" lon="-6.276517008501589"><ele>2698.0</ele><time>2026-05-04T11:39:00Z</time></trkpt><trkpt lat="31.765300367756364" lon="-6.27666701407379"><ele>2698.0</ele><time>2026-05-04T11:39:01Z</time></trkpt><trkpt lat="31.765216838812538" lon="-6.276818514906672"><ele>2699.3333333333335</ele><time>2026-05-04T11:39:02Z</time></trkpt><trkpt lat="31.76511263605362" lon="-6.276954115264859"><ele>2700.6666666666665</ele><time>2026-05-04T11:39:03Z</time></trkpt><trkpt lat="31.76501158652481" lon="-6.277068638949524"><ele>2702.0</ele><time>2026-05-04T11:39:04Z</time></trkpt><trkpt lat="31.764900167099857" lon="-6.277193505347029"><ele>2705.333333333333</ele><time>2026-05-04T11:39:05Z</time></trkpt><trkpt lat="31.76481324841043" lon="-6.277348650236876"><ele>2708.6666666666665</ele><time>2026-05-04T11:39:05.999Z</time></trkpt><trkpt lat="31.76472309161551" lon="-6.277495045722908"><ele>2712.0</ele><time>2026-05-04T11:39:06.999Z</time></trkpt><trkpt lat="31.764646586560595" lon="-6.277647384194118"><ele>2712.0</ele><time>2026-05-04T11:39:07.999Z</time></trkpt><trkpt lat="31.76457491705322" lon="-6.277811006751646"><ele>2712.0</ele><time>2026-05-04T11:39:08.999Z</time></trkpt><trkpt lat="31.764488651872448" lon="-6.277967615433503"><ele>2712.0</ele><time>2026-05-04T11:39:09.999Z</time></trkpt><trkpt lat="31.764412406006983" lon="-6.278132503692046"><ele>2712.6666666666665</ele><time>2026-05-04T11:39:10.999Z</time></trkpt><trkpt lat="31.764326101709223" lon="-6.278287867202264"><ele>2713.333333333333</ele><time>2026-05-04T11:39:11.999Z</time></trkpt><trkpt lat="31.764249348767613" lon="-6.27846071254343"><ele>2714.0</ele><time>2026-05-04T11:39:12.999Z</time></trkpt><trkpt lat="31.764161099086376" lon="-6.278624254308185"><ele>2714.0</ele><time>2026-05-04T11:39:13.999Z</time></trkpt><trkpt lat="31.764069268624954" lon="-6.27878483874401"><ele>2714.0</ele><time>2026-05-04T11:39:14.999Z</time></trkpt><trkpt lat="31.763973197361548" lon="-6.278943960453941"><ele>2714.0</ele><time>2026-05-04T11:39:15.999Z</time></trkpt><trkpt lat="31.763870968260054" lon="-6.2790987374242615"><ele>2718.6666666666665</ele><time>2026-05-04T11:39:16.999Z</time></trkpt><trkpt lat="31.76376904664599" lon="-6.279253364215514"><ele>2723.3333333333335</ele><time>2026-05-04T11:39:17.999Z</time></trkpt><trkpt lat="31.763670905208166" lon="-6.279406819061109"><ele>2728.0</ele><time>2026-05-04T11:39:18.999Z</time></trkpt><trkpt lat="31.763568508582456" lon="-6.279561078041111"><ele>2726.0</ele><time>2026-05-04T11:39:19.999Z</time></trkpt><trkpt lat="31.763459616450643" lon="-6.279714415140541"><ele>2724.0</ele><time>2026-05-04T11:39:20.999Z</time></trkpt><trkpt lat="31.763344402377413" lon="-6.279861173425498"><ele>2722.0</ele><time>2026-05-04T11:39:21.999Z</time></trkpt><trkpt lat="31.763228564284592" lon="-6.2800051670060055"><ele>2722.0</ele><time>2026-05-04T11:39:22.999Z</time></trkpt><trkpt lat="31.76312244818953" lon="-6.280156836683474"><ele>2722.0</ele><time>2026-05-04T11:39:23.999Z</time></trkpt><trkpt lat="31.763034145960216" lon="-6.280322376403096"><ele>2722.0</ele><time>2026-05-04T11:39:24.999Z</time></trkpt><trkpt lat="31.76295400679079" lon="-6.280504666487125"><ele>2725.0</ele><time>2026-05-04T11:39:25.999Z</time></trkpt><trkpt lat="31.762876773902136" lon="-6.280687904940103"><ele>2728.0</ele><time>2026-05-04T11:39:26.999Z</time></trkpt><trkpt lat="31.76279847911821" lon="-6.280868835168081"><ele>2731.0</ele><time>2026-05-04T11:39:27.999Z</time></trkpt><trkpt lat="31.7627155049743" lon="-6.28105370007963"><ele>2729.3333333333335</ele><time>2026-05-04T11:39:28.999Z</time></trkpt><trkpt lat="31.762630027184592" lon="-6.281237081646153"><ele>2727.6666666666665</ele><time>2026-05-04T11:39:29.999Z</time></trkpt><trkpt lat="31.762543952727594" lon="-6.281422819185766"><ele>2726.0</ele><time>2026-05-04T11:39:30.999Z</time></trkpt><trkpt lat="31.76245735231211" lon="-6.281611034322453"><ele>2726.0</ele><time>2026-05-04T11:39:31.999Z</time></trkpt><trkpt lat="31.762369338175464" lon="-6.281802311643509"><ele>2726.0</ele><time>2026-05-04T11:39:32.999Z</time></trkpt><trkpt lat="31.762280845177095" lon="-6.281994888103944"><ele>2726.0</ele><time>2026-05-04T11:39:33.999Z</time></trkpt><trkpt lat="31.76219247701687" lon="-6.282187623188745"><ele>2730.0</ele><time>2026-05-04T11:39:34.999Z</time></trkpt><trkpt lat="31.76210588414153" lon="-6.282384081218435"><ele>2734.0</ele><time>2026-05-04T11:39:35.999Z</time></trkpt><trkpt lat="31.762017491632232" lon="-6.2825825978404835"><ele>2738.0</ele><time>2026-05-04T11:39:36.999Z</time></trkpt><trkpt lat="31.76192764342544" lon="-6.282781102368618"><ele>2735.6666666666665</ele><time>2026-05-04T11:39:37.999Z</time></trkpt><trkpt lat="31.76183502552519" lon="-6.282981498249711"><ele>2733.3333333333335</ele><time>2026-05-04T11:39:38.999Z</time></trkpt><trkpt lat="31.761744657855914" lon="-6.283185255367566"><ele>2731.0</ele><time>2026-05-04T11:39:39.999Z</time></trkpt><trkpt lat="31.761656707718327" lon="-6.2833882938815915"><ele>2731.0</ele><time>2026-05-04T11:39:40.999Z</time></trkpt><trkpt lat="31.761568149458896" lon="-6.283598900592713"><ele>2731.0</ele><time>2026-05-04T11:39:41.999Z</time></trkpt><trkpt lat="31.761482690867705" lon="-6.283807843948692"><ele>2731.0</ele><time>2026-05-04T11:39:42.999Z</time></trkpt><trkpt lat="31.76139628343119" lon="-6.284016724529043"><ele>2733.666666666667</ele><time>2026-05-04T11:39:43.999Z</time></trkpt><trkpt lat="31.761310438696714" lon="-6.28422636364083"><ele>2736.3333333333335</ele><time>2026-05-04T11:39:44.999Z</time></trkpt><trkpt lat="31.761224016616765" lon="-6.28443678261514"><ele>2739.0</ele><time>2026-05-04T11:39:45.999Z</time></trkpt><trkpt lat="31.76113455557952" lon="-6.284645622856727"><ele>2738.3333333333335</ele><time>2026-05-04T11:39:46.999Z</time></trkpt><trkpt lat="31.76102817275941" lon="-6.284845488750082"><ele>2737.666666666667</ele><time>2026-05-04T11:39:47.999Z</time></trkpt><trkpt lat="31.760910701462656" lon="-6.285035095867174"><ele>2737.0</ele><time>2026-05-04T11:39:48.999Z</time></trkpt><trkpt lat="31.760784036415643" lon="-6.285214329719531"><ele>2737.0</ele><time>2026-05-04T11:39:49.999Z</time></trkpt><trkpt lat="31.76065721213166" lon="-6.285392259975752"><ele>2737.0</ele><time>2026-05-04T11:39:50.999Z</time></trkpt><trkpt lat="31.76053187631245" lon="-6.28556810261729"><ele>2737.0</ele><time>2026-05-04T11:39:51.999Z</time></trkpt><trkpt lat="31.760407111998067" lon="-6.285742528837274"><ele>2738.3333333333335</ele><time>2026-05-04T11:39:52.999Z</time></trkpt><trkpt lat="31.760283169255345" lon="-6.285920348838026"><ele>2739.6666666666665</ele><time>2026-05-04T11:39:53.999Z</time></trkpt><trkpt lat="31.760160316801137" lon="-6.286097309376677"><ele>2741.0</ele><time>2026-05-04T11:39:54.999Z</time></trkpt><trkpt lat="31.760026293625803" lon="-6.28626522248494"><ele>2744.0</ele><time>2026-05-04T11:39:55.999Z</time></trkpt><trkpt lat="31.75990748682999" lon="-6.286447092565448"><ele>2747.0</ele><time>2026-05-04T11:39:56.999Z</time></trkpt><trkpt lat="31.7597913954234" lon="-6.286628693673339"><ele>2750.0</ele><time>2026-05-04T11:39:57.999Z</time></trkpt><trkpt lat="31.759696251422017" lon="-6.286825667848963"><ele>2750.0</ele><time>2026-05-04T11:39:58.999Z</time></trkpt><trkpt lat="31.759588706073785" lon="-6.287012064714837"><ele>2750.0</ele><time>2026-05-04T11:39:59.999Z</time></trkpt><trkpt lat="31.759473445824348" lon="-6.287194655248122"><ele>2750.0</ele><time>2026-05-04T11:40:00.999Z</time></trkpt><trkpt lat="31.75935275273036" lon="-6.2873641090506895"><ele>2752.333333333333</ele><time>2026-05-04T11:40:01.999Z</time></trkpt><trkpt lat="31.759229455687706" lon="-6.287529592959406"><ele>2754.6666666666665</ele><time>2026-05-04T11:40:02.999Z</time></trkpt><trkpt lat="31.759099680147184" lon="-6.2876850965201925"><ele>2757.0</ele><time>2026-05-04T11:40:03.999Z</time></trkpt><trkpt lat="31.75897116874154" lon="-6.287827588867145"><ele>2757.0</ele><time>2026-05-04T11:40:04.999Z</time></trkpt><trkpt lat="31.758850450229055" lon="-6.2879556102738405"><ele>2757.0</ele><time>2026-05-04T11:40:05.999Z</time></trkpt><trkpt lat="31.758735998215656" lon="-6.288070419174572"><ele>2757.0</ele><time>2026-05-04T11:40:06.999Z</time></trkpt><trkpt lat="31.75862943554978" lon="-6.288171645908234"><ele>2757.25</ele><time>2026-05-04T11:40:07.999Z</time></trkpt><trkpt lat="31.75852959782618" lon="-6.288262299057906"><ele>2757.5</ele><time>2026-05-04T11:40:08.999Z</time></trkpt><trkpt lat="31.75843197121434" lon="-6.288344142175508"><ele>2757.75</ele><time>2026-05-04T11:40:09.999Z</time></trkpt><trkpt lat="31.758355532503558" lon="-6.2884350859870235"><ele>2758.0</ele><time>2026-05-04T11:40:10.999Z</time></trkpt><trkpt lat="31.758279290200225" lon="-6.288514698922887"><ele>2758.0</ele><time>2026-05-04T11:40:11.999Z</time></trkpt><trkpt lat="31.758200028599283" lon="-6.2885817613247275"><ele>2758.0</ele><time>2026-05-04T11:40:12.999Z</time></trkpt><trkpt lat="31.75811234435224" lon="-6.288643293886289"><ele>2758.0</ele><time>2026-05-04T11:40:13.999Z</time></trkpt><trkpt lat="31.758011700640047" lon="-6.2886945563346766"><ele>2758.0</ele><time>2026-05-04T11:40:14.999Z</time></trkpt><trkpt lat="31.75789053158798" lon="-6.288730413885548"><ele>2758.0</ele><time>2026-05-04T11:40:15.999Z</time></trkpt><trkpt lat="31.75776386728655" lon="-6.288778701999905"><ele>2759.75</ele><time>2026-05-04T11:40:16.999Z</time></trkpt><trkpt lat="31.75762026899316" lon="-6.288756739777009"><ele>2761.5</ele><time>2026-05-04T11:40:18Z</time></trkpt><trkpt lat="31.75747495653384" lon="-6.288723297779272"><ele>2763.25</ele><time>2026-05-04T11:40:19Z</time></trkpt><trkpt lat="31.75732596911866" lon="-6.2886963605141615"><ele>2765.0</ele><time>2026-05-04T11:40:20Z</time></trkpt><trkpt lat="31.757187434295208" lon="-6.288677214467458"><ele>2765.0</ele><time>2026-05-04T11:40:21Z</time></trkpt><trkpt lat="31.757054117613823" lon="-6.288677077689616"><ele>2765.0</ele><time>2026-05-04T11:40:22Z</time></trkpt><trkpt lat="31.756931645588143" lon="-6.288697876040068"><ele>2765.0</ele><time>2026-05-04T11:40:23Z</time></trkpt><trkpt lat="31.756807366237194" lon="-6.288745016913206"><ele>2765.0</ele><time>2026-05-04T11:40:24Z</time></trkpt><trkpt lat="31.756705282363228" lon="-6.288830803815148"><ele>2762.25</ele><time>2026-05-04T11:40:25Z</time></trkpt><trkpt lat="31.7565858022623" lon="-6.288924319756098"><ele>2759.5</ele><time>2026-05-04T11:40:26Z</time></trkpt><trkpt lat="31.75646110104007" lon="-6.289018006164788"><ele>2756.75</ele><time>2026-05-04T11:40:27Z</time></trkpt><trkpt lat="31.756344464228768" lon="-6.289114537452541"><ele>2754.0</ele><time>2026-05-04T11:40:28Z</time></trkpt><trkpt lat="31.756240289865218" lon="-6.289231163191089"><ele>2754.0</ele><time>2026-05-04T11:40:29Z</time></trkpt><trkpt lat="31.75613538188723" lon="-6.289361295418205"><ele>2754.0</ele><time>2026-05-04T11:40:30Z</time></trkpt><trkpt lat="31.756038839899926" lon="-6.289503592830781"><ele>2754.0</ele><time>2026-05-04T11:40:31Z</time></trkpt><trkpt lat="31.75594193870255" lon="-6.289655719464775"><ele>2755.0</ele><time>2026-05-04T11:40:32Z</time></trkpt><trkpt lat="31.75585043503821" lon="-6.289804516176697"><ele>2756.0</ele><time>2026-05-04T11:40:33Z</time></trkpt><trkpt lat="31.75577391573369" lon="-6.289950377139921"><ele>2757.0</ele><time>2026-05-04T11:40:34Z</time></trkpt><trkpt lat="31.755715456835887" lon="-6.290093007992839"><ele>2758.0</ele><time>2026-05-04T11:40:35Z</time></trkpt><trkpt lat="31.75565680708379" lon="-6.290238168442189"><ele>2758.0</ele><time>2026-05-04T11:40:36Z</time></trkpt><trkpt lat="31.755585614166613" lon="-6.290377268189827"><ele>2758.0</ele><time>2026-05-04T11:40:37Z</time></trkpt><trkpt lat="31.755507186960276" lon="-6.290501156914193"><ele>2758.0</ele><time>2026-05-04T11:40:38Z</time></trkpt><trkpt lat="31.75539167646263" lon="-6.29060318104949"><ele>2758.0</ele><time>2026-05-04T11:40:39Z</time></trkpt><trkpt lat="31.755277670419275" lon="-6.290675232080914"><ele>2760.0</ele><time>2026-05-04T11:40:40Z</time></trkpt><trkpt lat="31.75517353448723" lon="-6.290738997494881"><ele>2762.0</ele><time>2026-05-04T11:40:41Z</time></trkpt><trkpt lat="31.755087801089225" lon="-6.290805714490625"><ele>2764.0</ele><time>2026-05-04T11:40:42Z</time></trkpt><trkpt lat="31.755031675493065" lon="-6.290891760510983"><ele>2766.0</ele><time>2026-05-04T11:40:43Z</time></trkpt><trkpt lat="31.754985424475837" lon="-6.2910022693610985"><ele>2768.0</ele><time>2026-05-04T11:40:44Z</time></trkpt><trkpt lat="31.754954209024184" lon="-6.291134654339076"><ele>2768.0</ele><time>2026-05-04T11:40:45Z</time></trkpt><trkpt lat="31.75491122234436" lon="-6.291276781390322"><ele>2768.0</ele><time>2026-05-04T11:40:46Z</time></trkpt><trkpt lat="31.754872559858494" lon="-6.291421188145765"><ele>2768.0</ele><time>2026-05-04T11:40:47Z</time></trkpt><trkpt lat="31.754836962883044" lon="-6.291568879424109"><ele>2768.0</ele><time>2026-05-04T11:40:48Z</time></trkpt><trkpt lat="31.754809077541342" lon="-6.291718636523317"><ele>2764.5</ele><time>2026-05-04T11:40:49Z</time></trkpt><trkpt lat="31.75478242723271" lon="-6.29186022749464"><ele>2761.0</ele><time>2026-05-04T11:40:50Z</time></trkpt><trkpt lat="31.75476597155219" lon="-6.291992265591483"><ele>2757.5</ele><time>2026-05-04T11:40:51Z</time></trkpt><trkpt lat="31.754777553317368" lon="-6.292115889130366"><ele>2754.0</ele><time>2026-05-04T11:40:52Z</time></trkpt><trkpt lat="31.754836666739184" lon="-6.292226000424589"><ele>2754.5</ele><time>2026-05-04T11:40:53Z</time></trkpt><trkpt lat="31.75488728835819" lon="-6.2923567125808715"><ele>2755.0</ele><time>2026-05-04T11:40:54Z</time></trkpt><trkpt lat="31.754948773108396" lon="-6.292477892337624"><ele>2755.5</ele><time>2026-05-04T11:40:55Z</time></trkpt><trkpt lat="31.754999087347436" lon="-6.29259572572227"><ele>2756.0</ele><time>2026-05-04T11:40:56Z</time></trkpt><trkpt lat="31.755012423636995" lon="-6.2927303104891505"><ele>2756.0</ele><time>2026-05-04T11:40:57Z</time></trkpt><trkpt lat="31.75499715900209" lon="-6.292865858285234"><ele>2756.0</ele><time>2026-05-04T11:40:58Z</time></trkpt><trkpt lat="31.754951788302748" lon="-6.292987882152595"><ele>2756.0</ele><time>2026-05-04T11:40:59Z</time></trkpt><trkpt lat="31.754883987149984" lon="-6.293093408663878"><ele>2756.0</ele><time>2026-05-04T11:41:00Z</time></trkpt><trkpt lat="31.754796242910093" lon="-6.293188848400175"><ele>2753.0</ele><time>2026-05-04T11:41:01Z</time></trkpt><trkpt lat="31.754697800711586" lon="-6.293282289420269"><ele>2750.0</ele><time>2026-05-04T11:41:02Z</time></trkpt><trkpt lat="31.754585097129013" lon="-6.293369100643415"><ele>2747.0</ele><time>2026-05-04T11:41:03Z</time></trkpt><trkpt lat="31.754457941727935" lon="-6.293448975170023"><ele>2744.0</ele><time>2026-05-04T11:41:04Z</time></trkpt><trkpt lat="31.75431569972231" lon="-6.293498640848558"><ele>2750.5</ele><time>2026-05-04T11:41:05Z</time></trkpt><trkpt lat="31.75419003456037" lon="-6.293565118879702"><ele>2757.0</ele><time>2026-05-04T11:41:06Z</time></trkpt><trkpt lat="31.75406884209986" lon="-6.2936331775812375"><ele>2763.5</ele><time>2026-05-04T11:41:07Z</time></trkpt><trkpt lat="31.753955359917132" lon="-6.29371341316199"><ele>2770.0</ele><time>2026-05-04T11:41:08Z</time></trkpt><trkpt lat="31.753851440287125" lon="-6.29380541714827"><ele>2770.0</ele><time>2026-05-04T11:41:08.999Z</time></trkpt><trkpt lat="31.75375218397785" lon="-6.293901377388384"><ele>2770.0</ele><time>2026-05-04T11:41:09.999Z</time></trkpt><trkpt lat="31.75365481260987" lon="-6.293996225082103"><ele>2770.0</ele><time>2026-05-04T11:41:10.999Z</time></trkpt><trkpt lat="31.7535642461911" lon="-6.294088732195213"><ele>2770.0</ele><time>2026-05-04T11:41:11.999Z</time></trkpt><trkpt lat="31.75353154571927" lon="-6.294205200731598"><ele>2770.4</ele><time>2026-05-04T11:41:12.999Z</time></trkpt><trkpt lat="31.75352827638166" lon="-6.294318095172429"><ele>2770.8</ele><time>2026-05-04T11:41:13.999Z</time></trkpt><trkpt lat="31.753548030466497" lon="-6.294431080329498"><ele>2771.2</ele><time>2026-05-04T11:41:14.999Z</time></trkpt><trkpt lat="31.753567948147612" lon="-6.294576790041371"><ele>2771.6</ele><time>2026-05-04T11:41:15.999Z</time></trkpt><trkpt lat="31.753597822771134" lon="-6.294710658656456"><ele>2772.0</ele><time>2026-05-04T11:41:16.999Z</time></trkpt><trkpt lat="31.753629352727778" lon="-6.294850904061603"><ele>2761.6</ele><time>2026-05-04T11:41:17.999Z</time></trkpt><trkpt lat="31.753649879263513" lon="-6.294985279006308"><ele>2751.2</ele><time>2026-05-04T11:41:18.999Z</time></trkpt><trkpt lat="31.753653677100974" lon="-6.295133167917133"><ele>2740.8</ele><time>2026-05-04T11:41:19.999Z</time></trkpt><trkpt lat="31.753649759921384" lon="-6.295261904032956"><ele>2730.4</ele><time>2026-05-04T11:41:20.999Z</time></trkpt><trkpt lat="31.753628385765577" lon="-6.295352135937667"><ele>2720.0</ele><time>2026-05-04T11:41:21.999Z</time></trkpt><trkpt lat="31.753578190132863" lon="-6.295434000423172"><ele>2720.0</ele><time>2026-05-04T11:41:22.999Z</time></trkpt><trkpt lat="31.75354909145281" lon="-6.295546172547901"><ele>2720.0</ele><time>2026-05-04T11:41:23.999Z</time></trkpt><trkpt lat="31.753466270971167" lon="-6.295646550209275"><ele>2720.0</ele><time>2026-05-04T11:41:24.999Z</time></trkpt><trkpt lat="31.753376073700544" lon="-6.295752350920044"><ele>2720.0</ele><time>2026-05-04T11:41:25.999Z</time></trkpt><trkpt lat="31.753268976208556" lon="-6.295849549263688"><ele>2725.25</ele><time>2026-05-04T11:41:26.999Z</time></trkpt><trkpt lat="31.7531631706696" lon="-6.295962845609322"><ele>2730.5</ele><time>2026-05-04T11:41:27.999Z</time></trkpt><trkpt lat="31.753030195852915" lon="-6.296040452601071"><ele>2735.75</ele><time>2026-05-04T11:41:28.999Z</time></trkpt><trkpt lat="31.752912131458164" lon="-6.296134101147624"><ele>2741.0</ele><time>2026-05-04T11:41:29.999Z</time></trkpt><trkpt lat="31.752798896796975" lon="-6.296220967350187"><ele>2741.0</ele><time>2026-05-04T11:41:30.999Z</time></trkpt><trkpt lat="31.752710468299973" lon="-6.296330538254121"><ele>2741.0</ele><time>2026-05-04T11:41:31.999Z</time></trkpt><trkpt lat="31.75263793208855" lon="-6.296445519400101"><ele>2741.0</ele><time>2026-05-04T11:41:32.999Z</time></trkpt><trkpt lat="31.752618456821217" lon="-6.296585895774315"><ele>2741.0</ele><time>2026-05-04T11:41:33.999Z</time></trkpt><trkpt lat="31.752578148020515" lon="-6.296751501896902"><ele>2742.5</ele><time>2026-05-04T11:41:34.999Z</time></trkpt><trkpt lat="31.752530197451907" lon="-6.296919711661387"><ele>2744.0</ele><time>2026-05-04T11:41:35.999Z</time></trkpt><trkpt lat="31.75248186915569" lon="-6.297076049428497"><ele>2745.5</ele><time>2026-05-04T11:41:36.999Z</time></trkpt><trkpt lat="31.75244498367267" lon="-6.297220804199413"><ele>2747.0</ele><time>2026-05-04T11:41:37.999Z</time></trkpt><trkpt lat="31.75243804280594" lon="-6.297362399584653"><ele>2747.0</ele><time>2026-05-04T11:41:38.999Z</time></trkpt><trkpt lat="31.752440062163092" lon="-6.29750919376385"><ele>2747.0</ele><time>2026-05-04T11:41:39.999Z</time></trkpt><trkpt lat="31.752438877442703" lon="-6.297655462880371"><ele>2747.0</ele><time>2026-05-04T11:41:40.999Z</time></trkpt><trkpt lat="31.75244248943199" lon="-6.2977763279662256"><ele>2747.0</ele><time>2026-05-04T11:41:41.999Z</time></trkpt><trkpt lat="31.752475777731483" lon="-6.297871587222378"><ele>2747.0</ele><time>2026-05-04T11:41:42.999Z</time></trkpt><trkpt lat="31.752537571591795" lon="-6.297941349964713"><ele>2747.0</ele><time>2026-05-04T11:41:43.999Z</time></trkpt><trkpt lat="31.752618006644934" lon="-6.298018856677262"><ele>2747.0</ele><time>2026-05-04T11:41:44.999Z</time></trkpt><trkpt lat="31.752711155707598" lon="-6.298101190041722"><ele>2747.0</ele><time>2026-05-04T11:41:45.999Z</time></trkpt><trkpt lat="31.75281081439382" lon="-6.298182123696036"><ele>2747.0</ele><time>2026-05-04T11:41:46.999Z</time></trkpt><trkpt lat="31.75290409114894" lon="-6.29826241237458"><ele>2741.0</ele><time>2026-05-04T11:41:47.999Z</time></trkpt><trkpt lat="31.752993600702474" lon="-6.2983476944612296"><ele>2735.0</ele><time>2026-05-04T11:41:48.999Z</time></trkpt><trkpt lat="31.75307304570809" lon="-6.298441239583349"><ele>2729.0</ele><time>2026-05-04T11:41:49.999Z</time></trkpt><trkpt lat="31.753134494459633" lon="-6.29854709262198"><ele>2723.0</ele><time>2026-05-04T11:41:50.999Z</time></trkpt><trkpt lat="31.753173793029905" lon="-6.298674956547645"><ele>2723.0</ele><time>2026-05-04T11:41:51.999Z</time></trkpt><trkpt lat="31.75317819171162" lon="-6.29881940434564"><ele>2723.0</ele><time>2026-05-04T11:41:52.999Z</time></trkpt><trkpt lat="31.75316854385327" lon="-6.298971605286927"><ele>2723.0</ele><time>2026-05-04T11:41:53.999Z</time></trkpt><trkpt lat="31.753150475633454" lon="-6.2991348684032245"><ele>2723.0</ele><time>2026-05-04T11:41:54.999Z</time></trkpt><trkpt lat="31.75312680333142" lon="-6.299293659917531"><ele>2725.0</ele><time>2026-05-04T11:41:55.999Z</time></trkpt><trkpt lat="31.753113049166462" lon="-6.299441317170212"><ele>2727.0</ele><time>2026-05-04T11:41:56.999Z</time></trkpt><trkpt lat="31.753111977130107" lon="-6.2995834872158465"><ele>2729.0</ele><time>2026-05-04T11:41:57.999Z</time></trkpt><trkpt lat="31.753127249266957" lon="-6.299714064998773"><ele>2731.0</ele><time>2026-05-04T11:41:58.999Z</time></trkpt><trkpt lat="31.753171444859195" lon="-6.299824118696014"><ele>2733.25</ele><time>2026-05-04T11:41:59.999Z</time></trkpt><trkpt lat="31.753238121109764" lon="-6.2999172017776415"><ele>2735.5</ele><time>2026-05-04T11:42:00.999Z</time></trkpt><trkpt lat="31.75331958106348" lon="-6.299998444910618"><ele>2737.75</ele><time>2026-05-04T11:42:01.999Z</time></trkpt><trkpt lat="31.753416117311236" lon="-6.300081369229256"><ele>2740.0</ele><time>2026-05-04T11:42:02.999Z</time></trkpt><trkpt lat="31.75350781476024" lon="-6.30018129195398"><ele>2736.0</ele><time>2026-05-04T11:42:03.999Z</time></trkpt><trkpt lat="31.753584892179454" lon="-6.3003033751753135"><ele>2732.0</ele><time>2026-05-04T11:42:04.999Z</time></trkpt><trkpt lat="31.753638664974268" lon="-6.300443508956138"><ele>2728.0</ele><time>2026-05-04T11:42:05.999Z</time></trkpt><trkpt lat="31.753683336955874" lon="-6.300585994297776"><ele>2724.0</ele><time>2026-05-04T11:42:06.999Z</time></trkpt><trkpt lat="31.753732255575642" lon="-6.300727996709251"><ele>2724.0</ele><time>2026-05-04T11:42:07.999Z</time></trkpt><trkpt lat="31.753807138857017" lon="-6.300845380355467"><ele>2724.0</ele><time>2026-05-04T11:42:08.999Z</time></trkpt><trkpt lat="31.753882026393885" lon="-6.300964123498332"><ele>2724.0</ele><time>2026-05-04T11:42:09.999Z</time></trkpt><trkpt lat="31.75396061075597" lon="-6.3010825581194005"><ele>2724.0</ele><time>2026-05-04T11:42:10.999Z</time></trkpt><trkpt lat="31.754043078420835" lon="-6.301176189587893"><ele>2724.0</ele><time>2026-05-04T11:42:11.999Z</time></trkpt><trkpt lat="31.754145354658558" lon="-6.3012544046956105"><ele>2724.0</ele><time>2026-05-04T11:42:12.999Z</time></trkpt><trkpt lat="31.754260413397127" lon="-6.301296295077983"><ele>2724.0</ele><time>2026-05-04T11:42:13.999Z</time></trkpt><trkpt lat="31.754392563502304" lon="-6.301297246513868"><ele>2724.0</ele><time>2026-05-04T11:42:14.999Z</time></trkpt><trkpt lat="31.754528023889524" lon="-6.301252662754878"><ele>2723.25</ele><time>2026-05-04T11:42:15.999Z</time></trkpt><trkpt lat="31.754664003231188" lon="-6.3011895508481"><ele>2722.5</ele><time>2026-05-04T11:42:16.999Z</time></trkpt><trkpt lat="31.75479928584027" lon="-6.301114202052954"><ele>2721.75</ele><time>2026-05-04T11:42:17.999Z</time></trkpt><trkpt lat="31.754928731042565" lon="-6.301034340045938"><ele>2721.0</ele><time>2026-05-04T11:42:18.999Z</time></trkpt><trkpt lat="31.75505740414859" lon="-6.300946776703662"><ele>2721.0</ele><time>2026-05-04T11:42:19.999Z</time></trkpt><trkpt lat="31.7551823578139" lon="-6.300886089118001"><ele>2721.0</ele><time>2026-05-04T11:42:20.999Z</time></trkpt><trkpt lat="31.75530113227145" lon="-6.3008002828642065"><ele>2721.0</ele><time>2026-05-04T11:42:21.999Z</time></trkpt><trkpt lat="31.755420445916894" lon="-6.300721316768439"><ele>2721.0</ele><time>2026-05-04T11:42:22.999Z</time></trkpt><trkpt lat="31.755535309184342" lon="-6.300642440203874"><ele>2716.75</ele><time>2026-05-04T11:42:24Z</time></trkpt><trkpt lat="31.755648120543878" lon="-6.300567732538647"><ele>2712.5</ele><time>2026-05-04T11:42:25Z</time></trkpt><trkpt lat="31.75576347406394" lon="-6.30049828593948"><ele>2708.25</ele><time>2026-05-04T11:42:26Z</time></trkpt><trkpt lat="31.755874626145005" lon="-6.300439630166657"><ele>2704.0</ele><time>2026-05-04T11:42:27Z</time></trkpt><trkpt lat="31.755986272702817" lon="-6.300389244351392"><ele>2702.2</ele><time>2026-05-04T11:42:28Z</time></trkpt><trkpt lat="31.756095098830937" lon="-6.300349462948353"><ele>2700.3999999999996</ele><time>2026-05-04T11:42:29Z</time></trkpt><trkpt lat="31.756193908351353" lon="-6.300331449975928"><ele>2698.6</ele><time>2026-05-04T11:42:30Z</time></trkpt><trkpt lat="31.756282412434768" lon="-6.300351856223974"><ele>2696.8</ele><time>2026-05-04T11:42:31Z</time></trkpt><trkpt lat="31.75636346610603" lon="-6.300414197855487"><ele>2695.0</ele><time>2026-05-04T11:42:32Z</time></trkpt><trkpt lat="31.7564408089387" lon="-6.300520198646578"><ele>2699.25</ele><time>2026-05-04T11:42:33Z</time></trkpt><trkpt lat="31.756452699574464" lon="-6.300636534155671"><ele>2703.5</ele><time>2026-05-04T11:42:34Z</time></trkpt><trkpt lat="31.756487993474288" lon="-6.300763272878967"><ele>2707.75</ele><time>2026-05-04T11:42:35Z</time></trkpt><trkpt lat="31.75652059861986" lon="-6.30090579289778"><ele>2712.0</ele><time>2026-05-04T11:42:36Z</time></trkpt><trkpt lat="31.756552594216775" lon="-6.301056010915118"><ele>2712.0</ele><time>2026-05-04T11:42:37Z</time></trkpt><trkpt lat="31.756597973549425" lon="-6.301207073664604"><ele>2712.0</ele><time>2026-05-04T11:42:38Z</time></trkpt><trkpt lat="31.75666126546024" lon="-6.301338750972471"><ele>2712.0</ele><time>2026-05-04T11:42:39Z</time></trkpt><trkpt lat="31.75674305495839" lon="-6.301464267288584"><ele>2712.0</ele><time>2026-05-04T11:42:40Z</time></trkpt><trkpt lat="31.75684221757963" lon="-6.30159616436167"><ele>2702.0</ele><time>2026-05-04T11:42:41Z</time></trkpt><trkpt lat="31.756943712144892" lon="-6.301731442804824"><ele>2692.0</ele><time>2026-05-04T11:42:42Z</time></trkpt><trkpt lat="31.7570450867784" lon="-6.3018717471993675"><ele>2682.0</ele><time>2026-05-04T11:42:43Z</time></trkpt><trkpt lat="31.757138739400443" lon="-6.302014902424836"><ele>2682.0</ele><time>2026-05-04T11:42:44Z</time></trkpt><trkpt lat="31.75722986752276" lon="-6.302160136282745"><ele>2682.0</ele><time>2026-05-04T11:42:45Z</time></trkpt><trkpt lat="31.757315265340704" lon="-6.302317283410284"><ele>2682.0</ele><time>2026-05-04T11:42:46Z</time></trkpt><trkpt lat="31.757390998084027" lon="-6.302482834594385"><ele>2689.0</ele><time>2026-05-04T11:42:47Z</time></trkpt><trkpt lat="31.757460223030105" lon="-6.302654135476358"><ele>2696.0</ele><time>2026-05-04T11:42:48Z</time></trkpt><trkpt lat="31.757519963630198" lon="-6.302827501065443"><ele>2703.0</ele><time>2026-05-04T11:42:49Z</time></trkpt><trkpt lat="31.757576887161022" lon="-6.303007582391333"><ele>2706.3333333333335</ele><time>2026-05-04T11:42:50Z</time></trkpt><trkpt lat="31.75762843622517" lon="-6.3031949350744565"><ele>2709.666666666667</ele><time>2026-05-04T11:42:51Z</time></trkpt><trkpt lat="31.75766712616133" lon="-6.303392845956322"><ele>2713.0</ele><time>2026-05-04T11:42:52Z</time></trkpt><trkpt lat="31.757702664595836" lon="-6.303594179125926"><ele>2699.3333333333335</ele><time>2026-05-04T11:42:53Z</time></trkpt><trkpt lat="31.757737157286414" lon="-6.303791190308082"><ele>2685.6666666666665</ele><time>2026-05-04T11:42:54Z</time></trkpt><trkpt lat="31.75776855557168" lon="-6.303975029265246"><ele>2672.0</ele><time>2026-05-04T11:42:55Z</time></trkpt><trkpt lat="31.75779556462993" lon="-6.304133908721926"><ele>2672.0</ele><time>2026-05-04T11:42:56Z</time></trkpt><trkpt lat="31.757818198658935" lon="-6.304268194319338"><ele>2672.0</ele><time>2026-05-04T11:42:57Z</time></trkpt><trkpt lat="31.757842620368706" lon="-6.304396352195378"><ele>2672.0</ele><time>2026-05-04T11:42:58Z</time></trkpt><trkpt lat="31.75787008039444" lon="-6.304528266746463"><ele>2672.0</ele><time>2026-05-04T11:42:59Z</time></trkpt><trkpt lat="31.757942675601413" lon="-6.30462752635456"><ele>2672.0</ele><time>2026-05-04T11:43:00Z</time></trkpt><trkpt lat="31.7580424458116" lon="-6.304718673175873"><ele>2672.0</ele><time>2026-05-04T11:43:01Z</time></trkpt><trkpt lat="31.758153442228764" lon="-6.304820958725202"><ele>2672.0</ele><time>2026-05-04T11:43:02Z</time></trkpt><trkpt lat="31.758252429034357" lon="-6.30494060899091"><ele>2672.0</ele><time>2026-05-04T11:43:03Z</time></trkpt><trkpt lat="31.75832640992598" lon="-6.30507468123566"><ele>2678.333333333333</ele><time>2026-05-04T11:43:04Z</time></trkpt><trkpt lat="31.758376296200673" lon="-6.30523894131332"><ele>2684.6666666666665</ele><time>2026-05-04T11:43:05Z</time></trkpt><trkpt lat="31.758427778821844" lon="-6.305402521347741"><ele>2691.0</ele><time>2026-05-04T11:43:06Z</time></trkpt><trkpt lat="31.758489196560884" lon="-6.3055760720197505"><ele>2684.3333333333335</ele><time>2026-05-04T11:43:07Z</time></trkpt><trkpt lat="31.758551565992565" lon="-6.305735163727354"><ele>2677.666666666667</ele><time>2026-05-04T11:43:08Z</time></trkpt><trkpt lat="31.75863959617603" lon="-6.3058887563437285"><ele>2671.0</ele><time>2026-05-04T11:43:09Z</time></trkpt><trkpt lat="31.75873690343313" lon="-6.3060254774029"><ele>2671.0</ele><time>2026-05-04T11:43:10Z</time></trkpt><trkpt lat="31.758845242688892" lon="-6.306160094470664"><ele>2671.0</ele><time>2026-05-04T11:43:11Z</time></trkpt><trkpt lat="31.758955080963673" lon="-6.306280890202499"><ele>2671.0</ele><time>2026-05-04T11:43:12Z</time></trkpt><trkpt lat="31.759069752157902" lon="-6.306396108075385"><ele>2670.0</ele><time>2026-05-04T11:43:13Z</time></trkpt><trkpt lat="31.759181746286146" lon="-6.306508978021094"><ele>2669.0</ele><time>2026-05-04T11:43:14Z</time></trkpt><trkpt lat="31.759293249512215" lon="-6.306608376873109"><ele>2668.0</ele><time>2026-05-04T11:43:15Z</time></trkpt><trkpt lat="31.759400558346183" lon="-6.306704370517999"><ele>2667.0</ele><time>2026-05-04T11:43:16Z</time></trkpt><trkpt lat="31.7594911636076" lon="-6.306785443638931"><ele>2667.0</ele><time>2026-05-04T11:43:17Z</time></trkpt><trkpt lat="31.759568182675373" lon="-6.306855602694791"><ele>2667.0</ele><time>2026-05-04T11:43:18Z</time></trkpt><trkpt lat="31.759621891984526" lon="-6.306953829175879"><ele>2667.0</ele><time>2026-05-04T11:43:19Z</time></trkpt><trkpt lat="31.75965449041245" lon="-6.307056940488131"><ele>2667.0</ele><time>2026-05-04T11:43:19.999Z</time></trkpt><trkpt lat="31.759642207015577" lon="-6.3071882884427035"><ele>2667.0</ele><time>2026-05-04T11:43:20.999Z</time></trkpt><trkpt lat="31.759536529428345" lon="-6.30728196781197"><ele>2670.25</ele><time>2026-05-04T11:43:21.999Z</time></trkpt><trkpt lat="31.759449925444926" lon="-6.30734554591807"><ele>2673.5</ele><time>2026-05-04T11:43:22.999Z</time></trkpt><trkpt lat="31.759349289858044" lon="-6.307386111143823"><ele>2676.75</ele><time>2026-05-04T11:43:23.999Z</time></trkpt><trkpt lat="31.75921878786437" lon="-6.307399587160622"><ele>2680.0</ele><time>2026-05-04T11:43:24.999Z</time></trkpt><trkpt lat="31.759088088785294" lon="-6.30740792068875"><ele>2680.5</ele><time>2026-05-04T11:43:25.999Z</time></trkpt><trkpt lat="31.758947145201546" lon="-6.307409210296312"><ele>2681.0</ele><time>2026-05-04T11:43:26.999Z</time></trkpt><trkpt lat="31.75879154798875" lon="-6.307416832279837"><ele>2681.5</ele><time>2026-05-04T11:43:27.999Z</time></trkpt><trkpt lat="31.758639201850755" lon="-6.307427126368796"><ele>2682.0</ele><time>2026-05-04T11:43:28.999Z</time></trkpt><trkpt lat="31.758496793081346" lon="-6.307438800316215"><ele>2682.25</ele><time>2026-05-04T11:43:29.999Z</time></trkpt><trkpt lat="31.758359030571388" lon="-6.3074522299467"><ele>2682.5</ele><time>2026-05-04T11:43:30.999Z</time></trkpt><trkpt lat="31.7582282549459" lon="-6.307493036017248"><ele>2682.75</ele><time>2026-05-04T11:43:31.999Z</time></trkpt><trkpt lat="31.75809565486377" lon="-6.307521992135254"><ele>2683.0</ele><time>2026-05-04T11:43:32.999Z</time></trkpt><trkpt lat="31.757973932752133" lon="-6.307566072745751"><ele>2683.0</ele><time>2026-05-04T11:43:33.999Z</time></trkpt><trkpt lat="31.757844600875824" lon="-6.30761218974441"><ele>2683.0</ele><time>2026-05-04T11:43:34.999Z</time></trkpt><trkpt lat="31.757731205421592" lon="-6.307676280140381"><ele>2683.0</ele><time>2026-05-04T11:43:35.999Z</time></trkpt><trkpt lat="31.75761428573108" lon="-6.307741577303548"><ele>2683.0</ele><time>2026-05-04T11:43:36.999Z</time></trkpt><trkpt lat="31.75750558553384" lon="-6.307823602110184"><ele>2687.0</ele><time>2026-05-04T11:43:37.999Z</time></trkpt><trkpt lat="31.757389977402706" lon="-6.307912826422934"><ele>2691.0</ele><time>2026-05-04T11:43:38.999Z</time></trkpt><trkpt lat="31.757306888573137" lon="-6.308019760355584"><ele>2695.0</ele><time>2026-05-04T11:43:39.999Z</time></trkpt><trkpt lat="31.75724223927163" lon="-6.308151572007727"><ele>2699.0</ele><time>2026-05-04T11:43:40.999Z</time></trkpt><trkpt lat="31.757197531168366" lon="-6.30830150300604"><ele>2688.333333333333</ele><time>2026-05-04T11:43:41.999Z</time></trkpt><trkpt lat="31.757170938515195" lon="-6.308473145765566"><ele>2677.6666666666665</ele><time>2026-05-04T11:43:42.999Z</time></trkpt><trkpt lat="31.75715323670046" lon="-6.308669382060166"><ele>2667.0</ele><time>2026-05-04T11:43:43.999Z</time></trkpt><trkpt lat="31.757135553764044" lon="-6.30886540907848"><ele>2660.3333333333335</ele><time>2026-05-04T11:43:44.999Z</time></trkpt><trkpt lat="31.757121806205838" lon="-6.309068914710783"><ele>2653.666666666667</ele><time>2026-05-04T11:43:45.999Z</time></trkpt><trkpt lat="31.757111618479094" lon="-6.309282679261337"><ele>2647.0</ele><time>2026-05-04T11:43:46.999Z</time></trkpt><trkpt lat="31.7571031139744" lon="-6.309492238243194"><ele>2647.0</ele><time>2026-05-04T11:43:47.999Z</time></trkpt><trkpt lat="31.75709364651879" lon="-6.309696439046134"><ele>2647.0</ele><time>2026-05-04T11:43:48.999Z</time></trkpt><trkpt lat="31.757099289260502" lon="-6.309895001843002"><ele>2647.0</ele><time>2026-05-04T11:43:49.999Z</time></trkpt><trkpt lat="31.757118262213883" lon="-6.310082822638127"><ele>2646.666666666667</ele><time>2026-05-04T11:43:50.999Z</time></trkpt><trkpt lat="31.75715659262769" lon="-6.310277315768609"><ele>2646.3333333333335</ele><time>2026-05-04T11:43:51.999Z</time></trkpt><trkpt lat="31.757194816619997" lon="-6.310469242336869"><ele>2646.0</ele><time>2026-05-04T11:43:52.999Z</time></trkpt><trkpt lat="31.757232210892063" lon="-6.3106585569853575"><ele>2646.0</ele><time>2026-05-04T11:43:53.999Z</time></trkpt><trkpt lat="31.757266865438893" lon="-6.310856499923479"><ele>2646.0</ele><time>2026-05-04T11:43:54.999Z</time></trkpt><trkpt lat="31.757292503498746" lon="-6.311064001342782"><ele>2646.0</ele><time>2026-05-04T11:43:55.999Z</time></trkpt><trkpt lat="31.757278117710598" lon="-6.311282277825202"><ele>2644.3333333333335</ele><time>2026-05-04T11:43:56.999Z</time></trkpt><trkpt lat="31.75724181583853" lon="-6.311488618179729"><ele>2642.666666666667</ele><time>2026-05-04T11:43:57.999Z</time></trkpt><trkpt lat="31.757203398386338" lon="-6.3116896464406125"><ele>2641.0</ele><time>2026-05-04T11:43:58.999Z</time></trkpt><trkpt lat="31.757159807630153" lon="-6.3118653354196965"><ele>2641.0</ele><time>2026-05-04T11:43:59.999Z</time></trkpt><trkpt lat="31.757104528741692" lon="-6.31202336177109"><ele>2641.0</ele><time>2026-05-04T11:44:00.999Z</time></trkpt><trkpt lat="31.75705583654998" lon="-6.312147515251288"><ele>2641.0</ele><time>2026-05-04T11:44:01.999Z</time></trkpt><trkpt lat="31.75705621168823" lon="-6.312255582494163"><ele>2641.0</ele><time>2026-05-04T11:44:02.999Z</time></trkpt><trkpt lat="31.757121628811497" lon="-6.3123790024363515"><ele>2638.5</ele><time>2026-05-04T11:44:03.999Z</time></trkpt><trkpt lat="31.75713589555331" lon="-6.312546461546044"><ele>2636.0</ele><time>2026-05-04T11:44:04.999Z</time></trkpt><trkpt lat="31.757113574442357" lon="-6.312728997314166"><ele>2633.5</ele><time>2026-05-04T11:44:05.999Z</time></trkpt><trkpt lat="31.75709924624159" lon="-6.312899062044944"><ele>2631.0</ele><time>2026-05-04T11:44:06.999Z</time></trkpt><trkpt lat="31.75709447737305" lon="-6.313070938110719"><ele>2629.0</ele><time>2026-05-04T11:44:07.999Z</time></trkpt><trkpt lat="31.75714346079644" lon="-6.313221285001901"><ele>2627.0</ele><time>2026-05-04T11:44:08.999Z</time></trkpt><trkpt lat="31.757210577001246" lon="-6.313388036190301"><ele>2625.0</ele><time>2026-05-04T11:44:09.999Z</time></trkpt><trkpt lat="31.757296097993837" lon="-6.313548367128149"><ele>2625.0</ele><time>2026-05-04T11:44:10.999Z</time></trkpt><trkpt lat="31.757383700014973" lon="-6.31370666857274"><ele>2625.0</ele><time>2026-05-04T11:44:11.999Z</time></trkpt><trkpt lat="31.757477013080052" lon="-6.3138442135880455"><ele>2625.0</ele><time>2026-05-04T11:44:12.999Z</time></trkpt><trkpt lat="31.75757461500575" lon="-6.313986334559638"><ele>2629.0</ele><time>2026-05-04T11:44:13.999Z</time></trkpt><trkpt lat="31.757673125373053" lon="-6.3141333752730775"><ele>2633.0</ele><time>2026-05-04T11:44:14.999Z</time></trkpt><trkpt lat="31.757768704313772" lon="-6.3142874919697"><ele>2637.0</ele><time>2026-05-04T11:44:15.999Z</time></trkpt><trkpt lat="31.7578539573145" lon="-6.314459764319488"><ele>2629.3333333333335</ele><time>2026-05-04T11:44:16.999Z</time></trkpt><trkpt lat="31.75791702816601" lon="-6.314645494601892"><ele>2621.666666666667</ele><time>2026-05-04T11:44:17.999Z</time></trkpt><trkpt lat="31.757966006172133" lon="-6.314834856743494"><ele>2614.0</ele><time>2026-05-04T11:44:18.999Z</time></trkpt><trkpt lat="31.75800198781826" lon="-6.315017836500997"><ele>2614.0</ele><time>2026-05-04T11:44:19.999Z</time></trkpt><trkpt lat="31.758034709369966" lon="-6.315195041269932"><ele>2614.0</ele><time>2026-05-04T11:44:20.999Z</time></trkpt><trkpt lat="31.758085384422277" lon="-6.315353155605776"><ele>2614.0</ele><time>2026-05-04T11:44:21.999Z</time></trkpt><trkpt lat="31.758164550245983" lon="-6.315495209000761"><ele>2614.0</ele><time>2026-05-04T11:44:22.999Z</time></trkpt><trkpt lat="31.75827111769609" lon="-6.315622597110178"><ele>2612.0</ele><time>2026-05-04T11:44:23.999Z</time></trkpt><trkpt lat="31.75840399925439" lon="-6.315722598386242"><ele>2610.0</ele><time>2026-05-04T11:44:24.999Z</time></trkpt><trkpt lat="31.758536900957754" lon="-6.315815356665364"><ele>2608.0</ele><time>2026-05-04T11:44:25.999Z</time></trkpt><trkpt lat="31.758668457383273" lon="-6.315901684821244"><ele>2608.0</ele><time>2026-05-04T11:44:26.999Z</time></trkpt><trkpt lat="31.75879880189438" lon="-6.315982912790724"><ele>2608.0</ele><time>2026-05-04T11:44:27.999Z</time></trkpt><trkpt lat="31.75893726776341" lon="-6.316039971787883"><ele>2608.0</ele><time>2026-05-04T11:44:28.999Z</time></trkpt><trkpt lat="31.759078162281202" lon="-6.316102571975496"><ele>2608.0</ele><time>2026-05-04T11:44:30Z</time></trkpt><trkpt lat="31.75922269862194" lon="-6.31617163375603"><ele>2607.0</ele><time>2026-05-04T11:44:31Z</time></trkpt><trkpt lat="31.75936760898269" lon="-6.3162559862500895"><ele>2606.0</ele><time>2026-05-04T11:44:32Z</time></trkpt><trkpt lat="31.75950750635353" lon="-6.316358486721437"><ele>2605.0</ele><time>2026-05-04T11:44:33Z</time></trkpt><trkpt lat="31.759652826101018" lon="-6.316453499904207"><ele>2605.0</ele><time>2026-05-04T11:44:34Z</time></trkpt><trkpt lat="31.759773576143242" lon="-6.316572119071646"><ele>2605.0</ele><time>2026-05-04T11:44:35Z</time></trkpt><trkpt lat="31.759887744672355" lon="-6.316683753176441"><ele>2605.0</ele><time>2026-05-04T11:44:36Z</time></trkpt><trkpt lat="31.759987109708653" lon="-6.316780794987814"><ele>2605.0</ele><time>2026-05-04T11:44:37Z</time></trkpt><trkpt lat="31.760061479791087" lon="-6.316880324933613"><ele>2605.0</ele><time>2026-05-04T11:44:38Z</time></trkpt><trkpt lat="31.760085573559" lon="-6.316996024115743"><ele>2605.0</ele><time>2026-05-04T11:44:39Z</time></trkpt><trkpt lat="31.760093319129147" lon="-6.317104614343008"><ele>2605.0</ele><time>2026-05-04T11:44:40Z</time></trkpt><trkpt lat="31.76007479902143" lon="-6.3172047904305435"><ele>2605.0</ele><time>2026-05-04T11:44:41Z</time></trkpt><trkpt lat="31.760060697983096" lon="-6.317278845052704"><ele>2605.0</ele><time>2026-05-04T11:44:42Z</time></trkpt><trkpt lat="31.76004286505227" lon="-6.317387820750201"><ele>2605.0</ele><time>2026-05-04T11:44:44Z</time></trkpt><trkpt lat="31.759974409065286" lon="-6.3174202664189405"><ele>2604.6</ele><time>2026-05-04T11:44:45Z</time></trkpt><trkpt lat="31.759905194595248" lon="-6.317447688927845"><ele>2604.2</ele><time>2026-05-04T11:44:46Z</time></trkpt><trkpt lat="31.759824757714405" lon="-6.317468178340747"><ele>2603.8</ele><time>2026-05-04T11:44:47Z</time></trkpt><trkpt lat="31.759727369139494" lon="-6.317476453925156"><ele>2603.4</ele><time>2026-05-04T11:44:48Z</time></trkpt><trkpt lat="31.759611294600795" lon="-6.317476264553745"><ele>2603.0</ele><time>2026-05-04T11:44:49Z</time></trkpt><trkpt lat="31.759487689122096" lon="-6.317507473413611"><ele>2606.5</ele><time>2026-05-04T11:44:50Z</time></trkpt><trkpt lat="31.759365875434952" lon="-6.317569070028257"><ele>2610.0</ele><time>2026-05-04T11:44:51Z</time></trkpt><trkpt lat="31.759247358792305" lon="-6.317658968578382"><ele>2613.5</ele><time>2026-05-04T11:44:52Z</time></trkpt><trkpt lat="31.75913350923872" lon="-6.31776649169296"><ele>2617.0</ele><time>2026-05-04T11:44:53Z</time></trkpt><trkpt lat="31.75903109803572" lon="-6.317887158114433"><ele>2617.0</ele><time>2026-05-04T11:44:54Z</time></trkpt><trkpt lat="31.758929069043962" lon="-6.318028104844509"><ele>2617.0</ele><time>2026-05-04T11:44:55Z</time></trkpt><trkpt lat="31.758831471770105" lon="-6.318175299096882"><ele>2617.0</ele><time>2026-05-04T11:44:56Z</time></trkpt><trkpt lat="31.75873531907913" lon="-6.318331369709207"><ele>2613.0</ele><time>2026-05-04T11:44:57Z</time></trkpt><trkpt lat="31.758642797554074" lon="-6.318482119435228"><ele>2609.0</ele><time>2026-05-04T11:44:58Z</time></trkpt><trkpt lat="31.758556692817205" lon="-6.318630711714585"><ele>2605.0</ele><time>2026-05-04T11:44:59Z</time></trkpt><trkpt lat="31.758479729187112" lon="-6.3187800056968655"><ele>2608.75</ele><time>2026-05-04T11:45:00Z</time></trkpt><trkpt lat="31.758430348483394" lon="-6.318917728881871"><ele>2612.5</ele><time>2026-05-04T11:45:01Z</time></trkpt><trkpt lat="31.758384009593634" lon="-6.319053462239368"><ele>2616.25</ele><time>2026-05-04T11:45:02Z</time></trkpt><trkpt lat="31.758333884677967" lon="-6.319166338116659"><ele>2620.0</ele><time>2026-05-04T11:45:03Z</time></trkpt><trkpt lat="31.758233367629398" lon="-6.319263539275842"><ele>2620.0</ele><time>2026-05-04T11:45:04Z</time></trkpt><trkpt lat="31.758089985926766" lon="-6.319262818426622"><ele>2620.0</ele><time>2026-05-04T11:45:05Z</time></trkpt><trkpt lat="31.75797758298622" lon="-6.319307456444622"><ele>2620.0</ele><time>2026-05-04T11:45:06Z</time></trkpt><trkpt lat="31.757844834993975" lon="-6.319327986297801"><ele>2620.0</ele><time>2026-05-04T11:45:07Z</time></trkpt><trkpt lat="31.757730860298846" lon="-6.319379795426318"><ele>2622.0</ele><time>2026-05-04T11:45:08Z</time></trkpt><trkpt lat="31.757627049023704" lon="-6.319411132136697"><ele>2624.0</ele><time>2026-05-04T11:45:09Z</time></trkpt><trkpt lat="31.75752589986758" lon="-6.3194339379202615"><ele>2626.0</ele><time>2026-05-04T11:45:10Z</time></trkpt><trkpt lat="31.757420215756746" lon="-6.3194565973477745"><ele>2628.0</ele><time>2026-05-04T11:45:11Z</time></trkpt><trkpt lat="31.757301400062406" lon="-6.3194820722673075"><ele>2630.0</ele><time>2026-05-04T11:45:12Z</time></trkpt><trkpt lat="31.757192591137425" lon="-6.319507588000797"><ele>2630.0</ele><time>2026-05-04T11:45:13Z</time></trkpt><trkpt lat="31.757098528186177" lon="-6.3195314728720104"><ele>2630.0</ele><time>2026-05-04T11:45:14Z</time></trkpt><trkpt lat="31.75701050586879" lon="-6.319504323172482"><ele>2630.0</ele><time>2026-05-04T11:45:15Z</time></trkpt><trkpt lat="31.75694045567001" lon="-6.319461989987874"><ele>2630.0</ele><time>2026-05-04T11:45:16Z</time></trkpt><trkpt lat="31.756874951886353" lon="-6.319371945041587"><ele>2630.0</ele><time>2026-05-04T11:45:17Z</time></trkpt><trkpt lat="31.75683923766219" lon="-6.319230193070029"><ele>2629.25</ele><time>2026-05-04T11:45:18Z</time></trkpt><trkpt lat="31.756789789490224" lon="-6.319098597983266"><ele>2628.5</ele><time>2026-05-04T11:45:19Z</time></trkpt><trkpt lat="31.756739597044046" lon="-6.318965088797822"><ele>2627.75</ele><time>2026-05-04T11:45:20Z</time></trkpt><trkpt lat="31.75668419474565" lon="-6.318816836458177"><ele>2627.0</ele><time>2026-05-04T11:45:21Z</time></trkpt><trkpt lat="31.75664529900261" lon="-6.318667868837374"><ele>2627.0</ele><time>2026-05-04T11:45:22Z</time></trkpt><trkpt lat="31.75656605127198" lon="-6.318548811104713"><ele>2627.0</ele><time>2026-05-04T11:45:23Z</time></trkpt><trkpt lat="31.756502674986972" lon="-6.318419949604887"><ele>2627.0</ele><time>2026-05-04T11:45:24Z</time></trkpt><trkpt lat="31.756424907069416" lon="-6.318304843398413"><ele>2627.0</ele><time>2026-05-04T11:45:24.999Z</time></trkpt><trkpt lat="31.756332096779314" lon="-6.318211263035035"><ele>2627.0</ele><time>2026-05-04T11:45:25.999Z</time></trkpt><trkpt lat="31.756243332908806" lon="-6.318114165685646"><ele>2627.0</ele><time>2026-05-04T11:45:26.999Z</time></trkpt><trkpt lat="31.756152840900796" lon="-6.318019567909221"><ele>2627.0</ele><time>2026-05-04T11:45:27.999Z</time></trkpt><trkpt lat="31.7560602134763" lon="-6.317930767674509"><ele>2627.0</ele><time>2026-05-04T11:45:28.999Z</time></trkpt><trkpt lat="31.755970786642152" lon="-6.317832339977879"><ele>2626.0</ele><time>2026-05-04T11:45:29.999Z</time></trkpt><trkpt lat="31.755877174197476" lon="-6.317749354286115"><ele>2625.0</ele><time>2026-05-04T11:45:30.999Z</time></trkpt><trkpt lat="31.755774770323107" lon="-6.31767507583762"><ele>2624.0</ele><time>2026-05-04T11:45:31.999Z</time></trkpt><trkpt lat="31.75567436417306" lon="-6.317606259033278"><ele>2623.0</ele><time>2026-05-04T11:45:32.999Z</time></trkpt><trkpt lat="31.755578664217012" lon="-6.31753834589229"><ele>2623.0</ele><time>2026-05-04T11:45:33.999Z</time></trkpt><trkpt lat="31.755497569213308" lon="-6.317482722310781"><ele>2623.0</ele><time>2026-05-04T11:45:34.999Z</time></trkpt><trkpt lat="31.755438675236807" lon="-6.317438189973927"><ele>2623.0</ele><time>2026-05-04T11:45:35.999Z</time></trkpt><trkpt lat="31.755382148435455" lon="-6.31738973017478"><ele>2623.0</ele><time>2026-05-04T11:45:36.999Z</time></trkpt><trkpt lat="31.75532342051288" lon="-6.317327239091213"><ele>2623.0</ele><time>2026-05-04T11:45:37.999Z</time></trkpt><trkpt lat="31.75526912173356" lon="-6.317272261250648"><ele>2623.0</ele><time>2026-05-04T11:45:38.999Z</time></trkpt><trkpt lat="31.755222792707876" lon="-6.3172194113627835"><ele>2623.0</ele><time>2026-05-04T11:45:39.999Z</time></trkpt><trkpt lat="31.75513891234468" lon="-6.317139905323839"><ele>2620.4</ele><time>2026-05-04T11:45:41.999Z</time></trkpt><trkpt lat="31.75509101399696" lon="-6.317058369289074"><ele>2617.8</ele><time>2026-05-04T11:45:42.999Z</time></trkpt><trkpt lat="31.755029075696655" lon="-6.316959123077202"><ele>2615.2</ele><time>2026-05-04T11:45:43.999Z</time></trkpt><trkpt lat="31.754978708663344" lon="-6.316831491666212"><ele>2612.6</ele><time>2026-05-04T11:45:44.999Z</time></trkpt><trkpt lat="31.75490929930097" lon="-6.316698767425291"><ele>2610.0</ele><time>2026-05-04T11:45:45.999Z</time></trkpt><trkpt lat="31.75485967143761" lon="-6.3165424234396195"><ele>2613.0</ele><time>2026-05-04T11:45:46.999Z</time></trkpt><trkpt lat="31.754803104514917" lon="-6.316396516044328"><ele>2616.0</ele><time>2026-05-04T11:45:47.999Z</time></trkpt><trkpt lat="31.754745516113285" lon="-6.316236068346983"><ele>2619.0</ele><time>2026-05-04T11:45:48.999Z</time></trkpt><trkpt lat="31.75467274121992" lon="-6.3160838925330856"><ele>2622.0</ele><time>2026-05-04T11:45:49.999Z</time></trkpt><trkpt lat="31.754604229065883" lon="-6.315928455900324"><ele>2622.0</ele><time>2026-05-04T11:45:50.999Z</time></trkpt><trkpt lat="31.754528020941134" lon="-6.3157899599067235"><ele>2622.0</ele><time>2026-05-04T11:45:51.999Z</time></trkpt><trkpt lat="31.754446426119102" lon="-6.315655363081145"><ele>2622.0</ele><time>2026-05-04T11:45:52.999Z</time></trkpt><trkpt lat="31.754364978038318" lon="-6.315522978065551"><ele>2622.0</ele><time>2026-05-04T11:45:53.999Z</time></trkpt><trkpt lat="31.754281627451554" lon="-6.315393423454703"><ele>2617.25</ele><time>2026-05-04T11:45:54.999Z</time></trkpt><trkpt lat="31.75418300024548" lon="-6.315280667810787"><ele>2612.5</ele><time>2026-05-04T11:45:55.999Z</time></trkpt><trkpt lat="31.754105896398073" lon="-6.315154750343496"><ele>2607.75</ele><time>2026-05-04T11:45:56.999Z</time></trkpt><trkpt lat="31.754013650798584" lon="-6.3150395872479645"><ele>2603.0</ele><time>2026-05-04T11:45:57.999Z</time></trkpt><trkpt lat="31.753934043945716" lon="-6.314920202440544"><ele>2603.0</ele><time>2026-05-04T11:45:58.999Z</time></trkpt><trkpt lat="31.75382507351807" lon="-6.314825272746465"><ele>2603.0</ele><time>2026-05-04T11:45:59.999Z</time></trkpt><trkpt lat="31.753711586198044" lon="-6.314740299698847"><ele>2603.0</ele><time>2026-05-04T11:46:00.999Z</time></trkpt><trkpt lat="31.753637175832377" lon="-6.314645998402224"><ele>2603.0</ele><time>2026-05-04T11:46:01.999Z</time></trkpt><trkpt lat="31.753574293321343" lon="-6.314533801897846"><ele>2605.25</ele><time>2026-05-04T11:46:02.999Z</time></trkpt><trkpt lat="31.753522041988894" lon="-6.314436164847261"><ele>2607.5</ele><time>2026-05-04T11:46:03.999Z</time></trkpt><trkpt lat="31.753577396128723" lon="-6.31424307367558"><ele>2609.75</ele><time>2026-05-04T11:46:04.999Z</time></trkpt><trkpt lat="31.753578126481784" lon="-6.314102490889006"><ele>2612.0</ele><time>2026-05-04T11:46:05.999Z</time></trkpt><trkpt lat="31.753572723706746" lon="-6.313948484729756"><ele>2612.75</ele><time>2026-05-04T11:46:06.999Z</time></trkpt><trkpt lat="31.753566782814293" lon="-6.313797597657964"><ele>2613.5</ele><time>2026-05-04T11:46:07.999Z</time></trkpt><trkpt lat="31.753571462996554" lon="-6.313648774389969"><ele>2614.25</ele><time>2026-05-04T11:46:08.999Z</time></trkpt><trkpt lat="31.753582547633115" lon="-6.313511000430876"><ele>2615.0</ele><time>2026-05-04T11:46:09.999Z</time></trkpt><trkpt lat="31.75360663431545" lon="-6.313382561272746"><ele>2615.0</ele><time>2026-05-04T11:46:10.999Z</time></trkpt><trkpt lat="31.75360315987789" lon="-6.313264921732782"><ele>2615.0</ele><time>2026-05-04T11:46:11.999Z</time></trkpt><trkpt lat="31.753602187149426" lon="-6.313172014119086"><ele>2615.0</ele><time>2026-05-04T11:46:12.999Z</time></trkpt><trkpt lat="31.7535854946176" lon="-6.313092675622498"><ele>2615.0</ele><time>2026-05-04T11:46:13.999Z</time></trkpt><trkpt lat="31.753521198648663" lon="-6.3130484376700355"><ele>2615.0</ele><time>2026-05-04T11:46:14.999Z</time></trkpt><trkpt lat="31.753456635307735" lon="-6.313019283248846"><ele>2615.0</ele><time>2026-05-04T11:46:15.999Z</time></trkpt><trkpt lat="31.753354942002172" lon="-6.313087931636367"><ele>2608.0</ele><time>2026-05-04T11:46:16.999Z</time></trkpt><trkpt lat="31.753266694572797" lon="-6.313147256354411"><ele>2601.0</ele><time>2026-05-04T11:46:17.999Z</time></trkpt><trkpt lat="31.753176898143646" lon="-6.313209221609247"><ele>2594.0</ele><time>2026-05-04T11:46:18.999Z</time></trkpt><trkpt lat="31.75306757898331" lon="-6.31327237281516"><ele>2587.0</ele><time>2026-05-04T11:46:19.999Z</time></trkpt><trkpt lat="31.752953850100813" lon="-6.313344536734661"><ele>2587.0</ele><time>2026-05-04T11:46:20.999Z</time></trkpt><trkpt lat="31.75283590042376" lon="-6.313422359161035"><ele>2587.0</ele><time>2026-05-04T11:46:21.999Z</time></trkpt><trkpt lat="31.75271222120777" lon="-6.313476119242752"><ele>2587.0</ele><time>2026-05-04T11:46:22.999Z</time></trkpt><trkpt lat="31.75258293831836" lon="-6.313513858130919"><ele>2587.0</ele><time>2026-05-04T11:46:23.999Z</time></trkpt><trkpt lat="31.752460103538464" lon="-6.313530023496095"><ele>2589.6</ele><time>2026-05-04T11:46:24.999Z</time></trkpt><trkpt lat="31.752353247119018" lon="-6.313532468486748"><ele>2592.2</ele><time>2026-05-04T11:46:25.999Z</time></trkpt><trkpt lat="31.752264745689747" lon="-6.3135499253908804"><ele>2594.8</ele><time>2026-05-04T11:46:26.999Z</time></trkpt><trkpt lat="31.75218885234045" lon="-6.313598812160837"><ele>2597.4</ele><time>2026-05-04T11:46:27.999Z</time></trkpt><trkpt lat="31.752156094904784" lon="-6.31371112929302"><ele>2600.0</ele><time>2026-05-04T11:46:28.999Z</time></trkpt><trkpt lat="31.752096395050234" lon="-6.313803923835313"><ele>2600.0</ele><time>2026-05-04T11:46:29.999Z</time></trkpt><trkpt lat="31.752013390542878" lon="-6.313856316757184"><ele>2600.0</ele><time>2026-05-04T11:46:30.999Z</time></trkpt><trkpt lat="31.751934563862893" lon="-6.313904079137299"><ele>2600.0</ele><time>2026-05-04T11:46:31.999Z</time></trkpt><trkpt lat="31.751844135946452" lon="-6.313922566980778"><ele>2600.0</ele><time>2026-05-04T11:46:32.999Z</time></trkpt><trkpt lat="31.751737478778686" lon="-6.313915477777174"><ele>2600.0</ele><time>2026-05-04T11:46:33.999Z</time></trkpt><trkpt lat="31.751620562807368" lon="-6.313889613203012"><ele>2600.75</ele><time>2026-05-04T11:46:34.999Z</time></trkpt><trkpt lat="31.751508025577923" lon="-6.313857541331942"><ele>2601.5</ele><time>2026-05-04T11:46:36Z</time></trkpt><trkpt lat="31.75139550773291" lon="-6.313814165048486"><ele>2602.25</ele><time>2026-05-04T11:46:37Z</time></trkpt><trkpt lat="31.751271349580207" lon="-6.313766600835044"><ele>2603.0</ele><time>2026-05-04T11:46:38Z</time></trkpt><trkpt lat="31.751150175563534" lon="-6.313713135254093"><ele>2603.0</ele><time>2026-05-04T11:46:39Z</time></trkpt><trkpt lat="31.7510430698759" lon="-6.313655310347837"><ele>2603.0</ele><time>2026-05-04T11:46:40Z</time></trkpt><trkpt lat="31.750955200963883" lon="-6.313605937870387"><ele>2603.0</ele><time>2026-05-04T11:46:41Z</time></trkpt><trkpt lat="31.750874819392777" lon="-6.313584269601125"><ele>2603.0</ele><time>2026-05-04T11:46:42Z</time></trkpt><trkpt lat="31.75079998796452" lon="-6.313600590748921"><ele>2603.0</ele><time>2026-05-04T11:46:43Z</time></trkpt><trkpt lat="31.750732130664577" lon="-6.313612888172791"><ele>2603.0</ele><time>2026-05-04T11:46:44Z</time></trkpt><trkpt lat="31.750771620346946" lon="-6.313761513844973"><ele>2604.2</ele><time>2026-05-04T11:46:45Z</time></trkpt><trkpt lat="31.750773877517936" lon="-6.313873644542798"><ele>2605.4</ele><time>2026-05-04T11:46:46Z</time></trkpt><trkpt lat="31.750773877517346" lon="-6.314004761665142"><ele>2606.6</ele><time>2026-05-04T11:46:47Z</time></trkpt><trkpt lat="31.750756560051084" lon="-6.314147945554322"><ele>2607.7999999999997</ele><time>2026-05-04T11:46:48Z</time></trkpt><trkpt lat="31.750740142486926" lon="-6.314279595358419"><ele>2609.0</ele><time>2026-05-04T11:46:49Z</time></trkpt><trkpt lat="31.75069834081691" lon="-6.3144012457596865"><ele>2603.75</ele><time>2026-05-04T11:46:50Z</time></trkpt><trkpt lat="31.750628910681186" lon="-6.314507108056222"><ele>2598.5</ele><time>2026-05-04T11:46:51Z</time></trkpt><trkpt lat="31.75051047701273" lon="-6.31457537868283"><ele>2593.25</ele><time>2026-05-04T11:46:52Z</time></trkpt><trkpt lat="31.750388107487574" lon="-6.314604106843184"><ele>2588.0</ele><time>2026-05-04T11:46:53Z</time></trkpt><trkpt lat="31.750283049591257" lon="-6.314640002017622"><ele>2591.4</ele><time>2026-05-04T11:46:54Z</time></trkpt><trkpt lat="31.750196594436467" lon="-6.314690788086726"><ele>2594.8</ele><time>2026-05-04T11:46:55Z</time></trkpt><trkpt lat="31.750136128893423" lon="-6.3147792751792355"><ele>2598.2</ele><time>2026-05-04T11:46:56Z</time></trkpt><trkpt lat="31.750106759102863" lon="-6.314895054833922"><ele>2601.6</ele><time>2026-05-04T11:46:57Z</time></trkpt><trkpt lat="31.750152572432466" lon="-6.315034964623733"><ele>2605.0</ele><time>2026-05-04T11:46:58Z</time></trkpt><trkpt lat="31.750136027544222" lon="-6.315193926817329"><ele>2605.0</ele><time>2026-05-04T11:46:59Z</time></trkpt><trkpt lat="31.75008240363878" lon="-6.315338440761127"><ele>2605.0</ele><time>2026-05-04T11:47:00Z</time></trkpt><trkpt lat="31.750046074597538" lon="-6.3154691096581015"><ele>2605.0</ele><time>2026-05-04T11:47:01Z</time></trkpt><trkpt lat="31.75000663530718" lon="-6.315602281679924"><ele>2605.0</ele><time>2026-05-04T11:47:02Z</time></trkpt><trkpt lat="31.749938322584644" lon="-6.315731867432281"><ele>2601.25</ele><time>2026-05-04T11:47:03Z</time></trkpt><trkpt lat="31.74987232155887" lon="-6.315858290921875"><ele>2597.5</ele><time>2026-05-04T11:47:04Z</time></trkpt><trkpt lat="31.749799547880926" lon="-6.315970468604406"><ele>2593.75</ele><time>2026-05-04T11:47:05Z</time></trkpt><trkpt lat="31.74972437873035" lon="-6.316064433260409"><ele>2590.0</ele><time>2026-05-04T11:47:06Z</time></trkpt><trkpt lat="31.74960373661731" lon="-6.3161342865425585"><ele>2590.0</ele><time>2026-05-04T11:47:07Z</time></trkpt><trkpt lat="31.74949540341162" lon="-6.316209178361093"><ele>2590.0</ele><time>2026-05-04T11:47:08Z</time></trkpt><trkpt lat="31.749381663243636" lon="-6.316262377812572"><ele>2590.0</ele><time>2026-05-04T11:47:09Z</time></trkpt><trkpt lat="31.749258879001534" lon="-6.316293347032117"><ele>2590.0</ele><time>2026-05-04T11:47:10Z</time></trkpt><trkpt lat="31.749125611466802" lon="-6.3163164470525155"><ele>2592.5</ele><time>2026-05-04T11:47:11Z</time></trkpt><trkpt lat="31.748989929695636" lon="-6.316346721695083"><ele>2595.0</ele><time>2026-05-04T11:47:12Z</time></trkpt><trkpt lat="31.748856818909235" lon="-6.316386653598973"><ele>2597.5</ele><time>2026-05-04T11:47:13Z</time></trkpt><trkpt lat="31.748730731718755" lon="-6.316436950495793"><ele>2600.0</ele><time>2026-05-04T11:47:14Z</time></trkpt><trkpt lat="31.74861519640594" lon="-6.316490985683315"><ele>2608.5</ele><time>2026-05-04T11:47:15Z</time></trkpt><trkpt lat="31.748520559031036" lon="-6.316557317792729"><ele>2617.0</ele><time>2026-05-04T11:47:16Z</time></trkpt><trkpt lat="31.748445457226026" lon="-6.3166495718352955"><ele>2625.5</ele><time>2026-05-04T11:47:17Z</time></trkpt><trkpt lat="31.74839043969351" lon="-6.31676528739995"><ele>2634.0</ele><time>2026-05-04T11:47:18Z</time></trkpt><trkpt lat="31.74844487748248" lon="-6.316903243999246"><ele>2634.0</ele><time>2026-05-04T11:47:19Z</time></trkpt><trkpt lat="31.74844551705531" lon="-6.3170588965630285"><ele>2634.0</ele><time>2026-05-04T11:47:20Z</time></trkpt><trkpt lat="31.74844677346189" lon="-6.317220263130771"><ele>2634.0</ele><time>2026-05-04T11:47:21Z</time></trkpt><trkpt lat="31.74844830757817" lon="-6.317377676714033"><ele>2634.0</ele><time>2026-05-04T11:47:22Z</time></trkpt><trkpt lat="31.748449398605675" lon="-6.31752556644666"><ele>2631.0</ele><time>2026-05-04T11:47:23Z</time></trkpt><trkpt lat="31.74845057281338" lon="-6.317661161658308"><ele>2628.0</ele><time>2026-05-04T11:47:24Z</time></trkpt><trkpt lat="31.748459750491016" lon="-6.317777907354896"><ele>2625.0</ele><time>2026-05-04T11:47:25Z</time></trkpt><trkpt lat="31.748449488024097" lon="-6.317898838035792"><ele>2622.0</ele><time>2026-05-04T11:47:26Z</time></trkpt><trkpt lat="31.748440030752718" lon="-6.317987402898919"><ele>2619.0</ele><time>2026-05-04T11:47:26.999Z</time></trkpt><trkpt lat="31.74840628856095" lon="-6.318088994795446"><ele>2616.6</ele><time>2026-05-04T11:47:27.999Z</time></trkpt><trkpt lat="31.74831992865844" lon="-6.318166555406419"><ele>2614.2</ele><time>2026-05-04T11:47:28.999Z</time></trkpt><trkpt lat="31.748228431356516" lon="-6.318207506927775"><ele>2611.7999999999997</ele><time>2026-05-04T11:47:29.999Z</time></trkpt><trkpt lat="31.74813744219105" lon="-6.318258221380948"><ele>2609.3999999999996</ele><time>2026-05-04T11:47:30.999Z</time></trkpt><trkpt lat="31.748039054196706" lon="-6.318301443960488"><ele>2607.0</ele><time>2026-05-04T11:47:31.999Z</time></trkpt><trkpt lat="31.747931846611543" lon="-6.31833371541755"><ele>2607.0</ele><time>2026-05-04T11:47:32.999Z</time></trkpt><trkpt lat="31.747815815653478" lon="-6.318351127640037"><ele>2607.0</ele><time>2026-05-04T11:47:33.999Z</time></trkpt><trkpt lat="31.747691533469897" lon="-6.318360823268401"><ele>2607.0</ele><time>2026-05-04T11:47:34.999Z</time></trkpt><trkpt lat="31.74756558752879" lon="-6.318364726802908"><ele>2607.0</ele><time>2026-05-04T11:47:35.999Z</time></trkpt><trkpt lat="31.747440845194262" lon="-6.318354125572273"><ele>2607.5</ele><time>2026-05-04T11:47:36.999Z</time></trkpt><trkpt lat="31.747315044104457" lon="-6.318335843620509"><ele>2608.0</ele><time>2026-05-04T11:47:37.999Z</time></trkpt><trkpt lat="31.747183712211104" lon="-6.3183077209138485"><ele>2608.5</ele><time>2026-05-04T11:47:38.999Z</time></trkpt><trkpt lat="31.747055223141455" lon="-6.3182699681530945"><ele>2609.0</ele><time>2026-05-04T11:47:39.999Z</time></trkpt><trkpt lat="31.74693745078177" lon="-6.318227457927835"><ele>2608.6</ele><time>2026-05-04T11:47:40.999Z</time></trkpt><trkpt lat="31.74682481707525" lon="-6.318186440203058"><ele>2608.2</ele><time>2026-05-04T11:47:41.999Z</time></trkpt><trkpt lat="31.746728079081432" lon="-6.318162455764851"><ele>2607.7999999999997</ele><time>2026-05-04T11:47:42.999Z</time></trkpt><trkpt lat="31.746632178191245" lon="-6.318157857789102"><ele>2607.3999999999996</ele><time>2026-05-04T11:47:43.999Z</time></trkpt><trkpt lat="31.74653612729194" lon="-6.318179874879058"><ele>2607.0</ele><time>2026-05-04T11:47:44.999Z</time></trkpt><trkpt lat="31.74644347301228" lon="-6.318239681589822"><ele>2607.0</ele><time>2026-05-04T11:47:45.999Z</time></trkpt><trkpt lat="31.746380681126535" lon="-6.318343765474675"><ele>2607.0</ele><time>2026-05-04T11:47:46.999Z</time></trkpt><trkpt lat="31.74633204033094" lon="-6.3184585966888775"><ele>2607.0</ele><time>2026-05-04T11:47:47.999Z</time></trkpt><trkpt lat="31.746278835500544" lon="-6.318587187621928"><ele>2607.0</ele><time>2026-05-04T11:47:48.999Z</time></trkpt><trkpt lat="31.746225323870956" lon="-6.318723355097077"><ele>2607.0</ele><time>2026-05-04T11:47:49.999Z</time></trkpt><trkpt lat="31.746170893595995" lon="-6.318861860163541"><ele>2607.0</ele><time>2026-05-04T11:47:50.999Z</time></trkpt><trkpt lat="31.746113856697008" lon="-6.319006998220368"><ele>2607.0</ele><time>2026-05-04T11:47:51.999Z</time></trkpt><trkpt lat="31.74607263792234" lon="-6.319146440167743"><ele>2607.0</ele><time>2026-05-04T11:47:52.999Z</time></trkpt><trkpt lat="31.746035233545477" lon="-6.319287206265011"><ele>2606.5</ele><time>2026-05-04T11:47:53.999Z</time></trkpt><trkpt lat="31.746003949030506" lon="-6.3194315566531625"><ele>2606.0</ele><time>2026-05-04T11:47:54.999Z</time></trkpt><trkpt lat="31.74597576409196" lon="-6.319584359212661"><ele>2605.5</ele><time>2026-05-04T11:47:55.999Z</time></trkpt><trkpt lat="31.74594990357524" lon="-6.319725668692551"><ele>2605.0</ele><time>2026-05-04T11:47:56.999Z</time></trkpt><trkpt lat="31.745887475690804" lon="-6.319844878671741"><ele>2605.0</ele><time>2026-05-04T11:47:57.999Z</time></trkpt><trkpt lat="31.74582229516529" lon="-6.319932753212091"><ele>2605.0</ele><time>2026-05-04T11:47:58.999Z</time></trkpt><trkpt lat="31.745715493422512" lon="-6.319967226455453"><ele>2605.0</ele><time>2026-05-04T11:47:59.999Z</time></trkpt><trkpt lat="31.74562279416955" lon="-6.320018051707689"><ele>2605.0</ele><time>2026-05-04T11:48:00.999Z</time></trkpt><trkpt lat="31.745509338967388" lon="-6.320043569366022"><ele>2605.0</ele><time>2026-05-04T11:48:01.999Z</time></trkpt><trkpt lat="31.745382110239643" lon="-6.3200472966881245"><ele>2605.0</ele><time>2026-05-04T11:48:02.999Z</time></trkpt><trkpt lat="31.745245807583302" lon="-6.320066271762484"><ele>2605.0</ele><time>2026-05-04T11:48:03.999Z</time></trkpt><trkpt lat="31.745123413730752" lon="-6.320151339178966"><ele>2605.0</ele><time>2026-05-04T11:48:04.999Z</time></trkpt><trkpt lat="31.744990191276475" lon="-6.320238822076718"><ele>2605.0</ele><time>2026-05-04T11:48:05.999Z</time></trkpt><trkpt lat="31.744851234437355" lon="-6.320328352403205"><ele>2599.0</ele><time>2026-05-04T11:48:06.999Z</time></trkpt><trkpt lat="31.74473100094044" lon="-6.320451360574721"><ele>2593.0</ele><time>2026-05-04T11:48:07.999Z</time></trkpt><trkpt lat="31.744617624636636" lon="-6.320590402821122"><ele>2587.0</ele><time>2026-05-04T11:48:08.999Z</time></trkpt><trkpt lat="31.744470160659162" lon="-6.320696584771663"><ele>2598.0</ele><time>2026-05-04T11:48:09.999Z</time></trkpt><trkpt lat="31.74433253977274" lon="-6.320796304266415"><ele>2609.0</ele><time>2026-05-04T11:48:10.999Z</time></trkpt><trkpt lat="31.744184081496552" lon="-6.320881807884481"><ele>2620.0</ele><time>2026-05-04T11:48:11.999Z</time></trkpt><trkpt lat="31.744036642968684" lon="-6.320952819095504"><ele>2620.0</ele><time>2026-05-04T11:48:12.999Z</time></trkpt><trkpt lat="31.74388872685259" lon="-6.321015409759707"><ele>2620.0</ele><time>2026-05-04T11:48:13.999Z</time></trkpt><trkpt lat="31.743749333337263" lon="-6.321101051505757"><ele>2620.0</ele><time>2026-05-04T11:48:14.999Z</time></trkpt><trkpt lat="31.743617946463115" lon="-6.321204383532103"><ele>2619.75</ele><time>2026-05-04T11:48:15.999Z</time></trkpt><trkpt lat="31.743495939884443" lon="-6.32131346164859"><ele>2619.5</ele><time>2026-05-04T11:48:16.999Z</time></trkpt><trkpt lat="31.74338341958059" lon="-6.321421681745053"><ele>2619.25</ele><time>2026-05-04T11:48:17.999Z</time></trkpt><trkpt lat="31.74327574452599" lon="-6.321530190066374"><ele>2619.0</ele><time>2026-05-04T11:48:18.999Z</time></trkpt><trkpt lat="31.74316991842367" lon="-6.321642157160078"><ele>2619.0</ele><time>2026-05-04T11:48:19.999Z</time></trkpt><trkpt lat="31.743076536004406" lon="-6.321761865693445"><ele>2619.0</ele><time>2026-05-04T11:48:20.999Z</time></trkpt><trkpt lat="31.742984723129954" lon="-6.321874071070228"><ele>2619.0</ele><time>2026-05-04T11:48:21.999Z</time></trkpt><trkpt lat="31.742888442848695" lon="-6.321982249909685"><ele>2619.0</ele><time>2026-05-04T11:48:22.999Z</time></trkpt><trkpt lat="31.742816506676736" lon="-6.322122034372231"><ele>2621.5</ele><time>2026-05-04T11:48:23.999Z</time></trkpt><trkpt lat="31.74274095688037" lon="-6.322264698073215"><ele>2624.0</ele><time>2026-05-04T11:48:24.999Z</time></trkpt><trkpt lat="31.742664399517153" lon="-6.322403962733368"><ele>2626.5</ele><time>2026-05-04T11:48:25.999Z</time></trkpt><trkpt lat="31.74260169482701" lon="-6.322510978930439"><ele>2629.0</ele><time>2026-05-04T11:48:26.999Z</time></trkpt><trkpt lat="31.742503728729424" lon="-6.322570977871508"><ele>2629.0</ele><time>2026-05-04T11:48:27.999Z</time></trkpt><trkpt lat="31.742417253463696" lon="-6.322628614563621"><ele>2629.0</ele><time>2026-05-04T11:48:28.999Z</time></trkpt><trkpt lat="31.742333312974125" lon="-6.322708548550094"><ele>2629.0</ele><time>2026-05-04T11:48:29.999Z</time></trkpt><trkpt lat="31.74224424480668" lon="-6.322790914855317"><ele>2629.0</ele><time>2026-05-04T11:48:30.999Z</time></trkpt><trkpt lat="31.742148136690822" lon="-6.322888505405263"><ele>2629.0</ele><time>2026-05-04T11:48:31.999Z</time></trkpt><trkpt lat="31.74206001917626" lon="-6.323006168968099"><ele>2631.75</ele><time>2026-05-04T11:48:32.999Z</time></trkpt><trkpt lat="31.74197533378588" lon="-6.3231372846608185"><ele>2634.5</ele><time>2026-05-04T11:48:33.999Z</time></trkpt><trkpt lat="31.741882048935178" lon="-6.323260218746345"><ele>2637.25</ele><time>2026-05-04T11:48:34.999Z</time></trkpt><trkpt lat="31.74179813380357" lon="-6.323395335515958"><ele>2640.0</ele><time>2026-05-04T11:48:35.999Z</time></trkpt><trkpt lat="31.741701802647057" lon="-6.323526428539102"><ele>2640.0</ele><time>2026-05-04T11:48:36.999Z</time></trkpt><trkpt lat="31.74159304082803" lon="-6.323643166387231"><ele>2640.0</ele><time>2026-05-04T11:48:37.999Z</time></trkpt><trkpt lat="31.74147247330061" lon="-6.323751069805131"><ele>2640.0</ele><time>2026-05-04T11:48:38.999Z</time></trkpt><trkpt lat="31.741370200404326" lon="-6.323891076866665"><ele>2632.25</ele><time>2026-05-04T11:48:39.999Z</time></trkpt><trkpt lat="31.74127686090306" lon="-6.32403020290252"><ele>2624.5</ele><time>2026-05-04T11:48:40.999Z</time></trkpt><trkpt lat="31.741197661181147" lon="-6.324173504484244"><ele>2616.75</ele><time>2026-05-04T11:48:42Z</time></trkpt><trkpt lat="31.741131005735095" lon="-6.324313114685956"><ele>2609.0</ele><time>2026-05-04T11:48:43Z</time></trkpt><trkpt lat="31.74107237061559" lon="-6.324461169327246"><ele>2613.25</ele><time>2026-05-04T11:48:44Z</time></trkpt><trkpt lat="31.741014370292124" lon="-6.324601844745765"><ele>2617.5</ele><time>2026-05-04T11:48:45Z</time></trkpt><trkpt lat="31.74095655385889" lon="-6.324728981303515"><ele>2621.75</ele><time>2026-05-04T11:48:46Z</time></trkpt><trkpt lat="31.740899147513307" lon="-6.324853851714846"><ele>2626.0</ele><time>2026-05-04T11:48:47Z</time></trkpt><trkpt lat="31.740822861147336" lon="-6.324968840333676"><ele>2626.0</ele><time>2026-05-04T11:48:48Z</time></trkpt><trkpt lat="31.740740732389376" lon="-6.325079347370859"><ele>2626.0</ele><time>2026-05-04T11:48:49Z</time></trkpt><trkpt lat="31.740644823214513" lon="-6.32517966960854"><ele>2626.0</ele><time>2026-05-04T11:48:50Z</time></trkpt><trkpt lat="31.740540336688525" lon="-6.3252485853693114"><ele>2626.0</ele><time>2026-05-04T11:48:51Z</time></trkpt><trkpt lat="31.74045951894353" lon="-6.325344114910041"><ele>2626.0</ele><time>2026-05-04T11:48:52Z</time></trkpt><trkpt lat="31.74038120959593" lon="-6.325431611391459"><ele>2626.0</ele><time>2026-05-04T11:48:53Z</time></trkpt><trkpt lat="31.74030767868615" lon="-6.325526823903941"><ele>2626.0</ele><time>2026-05-04T11:48:54Z</time></trkpt><trkpt lat="31.740255247116448" lon="-6.325642003938619"><ele>2626.0</ele><time>2026-05-04T11:48:55Z</time></trkpt><trkpt lat="31.74017919520688" lon="-6.325747496777251"><ele>2626.0</ele><time>2026-05-04T11:48:56Z</time></trkpt><trkpt lat="31.74012712341796" lon="-6.325879836667498"><ele>2622.666666666667</ele><time>2026-05-04T11:48:57Z</time></trkpt><trkpt lat="31.74007212585915" lon="-6.326028839071334"><ele>2619.3333333333335</ele><time>2026-05-04T11:48:58Z</time></trkpt><trkpt lat="31.740030985562875" lon="-6.326205108816896"><ele>2616.0</ele><time>2026-05-04T11:48:59Z</time></trkpt><trkpt lat="31.73996828455888" lon="-6.326375411178606"><ele>2619.6666666666665</ele><time>2026-05-04T11:49:00Z</time></trkpt><trkpt lat="31.739923697349017" lon="-6.326546383995494"><ele>2623.333333333333</ele><time>2026-05-04T11:49:01Z</time></trkpt><trkpt lat="31.73988992155169" lon="-6.326722856736574"><ele>2627.0</ele><time>2026-05-04T11:49:02Z</time></trkpt><trkpt lat="31.739842428141454" lon="-6.326884019798547"><ele>2627.0</ele><time>2026-05-04T11:49:03Z</time></trkpt><trkpt lat="31.739786298586264" lon="-6.327026238945094"><ele>2627.0</ele><time>2026-05-04T11:49:04Z</time></trkpt><trkpt lat="31.739733078727305" lon="-6.327161085190764"><ele>2627.0</ele><time>2026-05-04T11:49:05Z</time></trkpt><trkpt lat="31.73965524444414" lon="-6.3272694628500235"><ele>2627.0</ele><time>2026-05-04T11:49:06Z</time></trkpt><trkpt lat="31.739577906704728" lon="-6.327370516609397"><ele>2625.0</ele><time>2026-05-04T11:49:07Z</time></trkpt><trkpt lat="31.739481944415918" lon="-6.327440632909817"><ele>2623.0</ele><time>2026-05-04T11:49:08Z</time></trkpt><trkpt lat="31.739387622025493" lon="-6.327517281326962"><ele>2621.0</ele><time>2026-05-04T11:49:09Z</time></trkpt><trkpt lat="31.739184095587802" lon="-6.327521051858672"><ele>2619.0</ele><time>2026-05-04T11:49:10Z</time></trkpt><trkpt lat="31.73902303609115" lon="-6.327530170149229"><ele>2619.0</ele><time>2026-05-04T11:49:11Z</time></trkpt><trkpt lat="31.738869629692378" lon="-6.327539576722277"><ele>2619.0</ele><time>2026-05-04T11:49:12Z</time></trkpt><trkpt lat="31.73872930751039" lon="-6.327582376813477"><ele>2619.0</ele><time>2026-05-04T11:49:13Z</time></trkpt><trkpt lat="31.738589124101544" lon="-6.327610106213714"><ele>2619.0</ele><time>2026-05-04T11:49:14Z</time></trkpt><trkpt lat="31.738472367921087" lon="-6.327656447234412"><ele>2617.6</ele><time>2026-05-04T11:49:15Z</time></trkpt><trkpt lat="31.73837411807748" lon="-6.327708162265507"><ele>2616.2</ele><time>2026-05-04T11:49:16Z</time></trkpt><trkpt lat="31.73829788363202" lon="-6.327781129890818"><ele>2614.7999999999997</ele><time>2026-05-04T11:49:17Z</time></trkpt><trkpt lat="31.738272747510372" lon="-6.327896320547656"><ele>2613.3999999999996</ele><time>2026-05-04T11:49:18Z</time></trkpt><trkpt lat="31.738260092106376" lon="-6.328014105088967"><ele>2612.0</ele><time>2026-05-04T11:49:19Z</time></trkpt><trkpt lat="31.73824477522837" lon="-6.328153926894534"><ele>2612.0</ele><time>2026-05-04T11:49:20Z</time></trkpt><trkpt lat="31.73823791962605" lon="-6.328316263469178"><ele>2612.0</ele><time>2026-05-04T11:49:21Z</time></trkpt><trkpt lat="31.738219252356394" lon="-6.328486955732869"><ele>2612.0</ele><time>2026-05-04T11:49:22Z</time></trkpt><trkpt lat="31.738208946630575" lon="-6.328655165590571"><ele>2612.0</ele><time>2026-05-04T11:49:23Z</time></trkpt><trkpt lat="31.73819984433362" lon="-6.328816778339106"><ele>2613.0</ele><time>2026-05-04T11:49:24Z</time></trkpt><trkpt lat="31.738177879514424" lon="-6.3289757608183494"><ele>2614.0</ele><time>2026-05-04T11:49:25Z</time></trkpt><trkpt lat="31.73811965652938" lon="-6.329116278631115"><ele>2615.0</ele><time>2026-05-04T11:49:26Z</time></trkpt><trkpt lat="31.73802981705222" lon="-6.329239373840647"><ele>2616.0</ele><time>2026-05-04T11:49:27Z</time></trkpt><trkpt lat="31.737920521171905" lon="-6.329345255503471"><ele>2616.0</ele><time>2026-05-04T11:49:28Z</time></trkpt><trkpt lat="31.737810513000458" lon="-6.329448455434196"><ele>2616.0</ele><time>2026-05-04T11:49:29Z</time></trkpt><trkpt lat="31.73773232457285" lon="-6.329575050217008"><ele>2616.0</ele><time>2026-05-04T11:49:30Z</time></trkpt><trkpt lat="31.737652182086393" lon="-6.329688241349589"><ele>2616.0</ele><time>2026-05-04T11:49:31Z</time></trkpt><trkpt lat="31.7375764881726" lon="-6.329809174126672"><ele>2611.0</ele><time>2026-05-04T11:49:32Z</time></trkpt><trkpt lat="31.737508911634407" lon="-6.329928739265327"><ele>2606.0</ele><time>2026-05-04T11:49:32.999Z</time></trkpt><trkpt lat="31.7374454310218" lon="-6.330059584401114"><ele>2601.0</ele><time>2026-05-04T11:49:33.999Z</time></trkpt><trkpt lat="31.737384304750424" lon="-6.330185576851224"><ele>2596.0</ele><time>2026-05-04T11:49:34.999Z</time></trkpt><trkpt lat="31.737310295039382" lon="-6.330298491496607"><ele>2596.0</ele><time>2026-05-04T11:49:35.999Z</time></trkpt><trkpt lat="31.737234224802776" lon="-6.330409633279222"><ele>2596.0</ele><time>2026-05-04T11:49:36.999Z</time></trkpt><trkpt lat="31.737160149344696" lon="-6.330516089953886"><ele>2596.0</ele><time>2026-05-04T11:49:37.999Z</time></trkpt><trkpt lat="31.73708904755738" lon="-6.330622700748554"><ele>2596.0</ele><time>2026-05-04T11:49:38.999Z</time></trkpt><trkpt lat="31.73704257725791" lon="-6.330743426576193"><ele>2593.4</ele><time>2026-05-04T11:49:39.999Z</time></trkpt><trkpt lat="31.7369981536061" lon="-6.330862168755135"><ele>2590.8</ele><time>2026-05-04T11:49:40.999Z</time></trkpt><trkpt lat="31.736954172369032" lon="-6.330975570823964"><ele>2588.2000000000003</ele><time>2026-05-04T11:49:41.999Z</time></trkpt><trkpt lat="31.7369023523316" lon="-6.331078325544956"><ele>2585.6000000000004</ele><time>2026-05-04T11:49:42.999Z</time></trkpt><trkpt lat="31.73683192283963" lon="-6.331161194726489"><ele>2583.0</ele><time>2026-05-04T11:49:43.999Z</time></trkpt><trkpt lat="31.736779888289988" lon="-6.331255240589139"><ele>2583.0</ele><time>2026-05-04T11:49:44.999Z</time></trkpt><trkpt lat="31.73670345734496" lon="-6.331312575758046"><ele>2583.0</ele><time>2026-05-04T11:49:45.999Z</time></trkpt><trkpt lat="31.736634609847943" lon="-6.331376833424244"><ele>2583.0</ele><time>2026-05-04T11:49:46.999Z</time></trkpt><trkpt lat="31.736539793318066" lon="-6.3314318459927135"><ele>2583.0</ele><time>2026-05-04T11:49:47.999Z</time></trkpt><trkpt lat="31.73642879180377" lon="-6.3314832185142755"><ele>2583.0</ele><time>2026-05-04T11:49:48.999Z</time></trkpt><trkpt lat="31.736339875915633" lon="-6.331567685255614"><ele>2583.3333333333335</ele><time>2026-05-04T11:49:49.999Z</time></trkpt><trkpt lat="31.736265244571136" lon="-6.331649520281834"><ele>2583.6666666666665</ele><time>2026-05-04T11:49:50.999Z</time></trkpt><trkpt lat="31.73619813886761" lon="-6.331730420217215"><ele>2584.0</ele><time>2026-05-04T11:49:51.999Z</time></trkpt><trkpt lat="31.736152001018652" lon="-6.331815163597603"><ele>2584.333333333333</ele><time>2026-05-04T11:49:52.999Z</time></trkpt><trkpt lat="31.736089731442306" lon="-6.331872774551058"><ele>2584.6666666666665</ele><time>2026-05-04T11:49:53.999Z</time></trkpt><trkpt lat="31.736012424626978" lon="-6.331892006689246"><ele>2585.0</ele><time>2026-05-04T11:49:54.999Z</time></trkpt><trkpt lat="31.7359258881565" lon="-6.331849315300055"><ele>2585.0</ele><time>2026-05-04T11:49:55.999Z</time></trkpt><trkpt lat="31.735842836082327" lon="-6.331789754159703"><ele>2585.0</ele><time>2026-05-04T11:49:56.999Z</time></trkpt><trkpt lat="31.735781360948653" lon="-6.331701124228522"><ele>2585.0</ele><time>2026-05-04T11:49:57.999Z</time></trkpt><trkpt lat="31.735708231599766" lon="-6.331589873681648"><ele>2585.0</ele><time>2026-05-04T11:49:58.999Z</time></trkpt><trkpt lat="31.735618215153455" lon="-6.3314733960887155"><ele>2585.0</ele><time>2026-05-04T11:49:59.999Z</time></trkpt><trkpt lat="31.73552548206982" lon="-6.331348384127177"><ele>2581.5</ele><time>2026-05-04T11:50:00.999Z</time></trkpt><trkpt lat="31.73544503363842" lon="-6.33121710124763"><ele>2578.0</ele><time>2026-05-04T11:50:01.999Z</time></trkpt><trkpt lat="31.735368975373422" lon="-6.331091853087807"><ele>2574.5</ele><time>2026-05-04T11:50:02.999Z</time></trkpt><trkpt lat="31.73529441658226" lon="-6.330973086149311"><ele>2571.0</ele><time>2026-05-04T11:50:03.999Z</time></trkpt><trkpt lat="31.735204591332426" lon="-6.330883785230985"><ele>2573.4</ele><time>2026-05-04T11:50:04.999Z</time></trkpt><trkpt lat="31.73514578087956" lon="-6.330771991239763"><ele>2575.8</ele><time>2026-05-04T11:50:05.999Z</time></trkpt><trkpt lat="31.73515386044904" lon="-6.330637254556567"><ele>2578.2000000000003</ele><time>2026-05-04T11:50:06.999Z</time></trkpt><trkpt lat="31.735131439407084" lon="-6.330518094036719"><ele>2580.6000000000004</ele><time>2026-05-04T11:50:07.999Z</time></trkpt><trkpt lat="31.735104167250654" lon="-6.330386745219128"><ele>2583.0</ele><time>2026-05-04T11:50:08.999Z</time></trkpt><trkpt lat="31.735029747797654" lon="-6.330254136077059"><ele>2583.0</ele><time>2026-05-04T11:50:09.999Z</time></trkpt><trkpt lat="31.734959234081245" lon="-6.3300902262145735"><ele>2583.0</ele><time>2026-05-04T11:50:10.999Z</time></trkpt><trkpt lat="31.73492735935968" lon="-6.329920959164093"><ele>2583.0</ele><time>2026-05-04T11:50:11.999Z</time></trkpt><trkpt lat="31.73488163979245" lon="-6.329759346714983"><ele>2583.0</ele><time>2026-05-04T11:50:12.999Z</time></trkpt><trkpt lat="31.73482423937668" lon="-6.3296023812698605"><ele>2577.0</ele><time>2026-05-04T11:50:13.999Z</time></trkpt><trkpt lat="31.734778514483647" lon="-6.329435061997965"><ele>2571.0</ele><time>2026-05-04T11:50:14.999Z</time></trkpt><trkpt lat="31.734732641653093" lon="-6.3292515123313455"><ele>2565.0</ele><time>2026-05-04T11:50:15.999Z</time></trkpt><trkpt lat="31.734692055489916" lon="-6.329069289940345"><ele>2565.0</ele><time>2026-05-04T11:50:16.999Z</time></trkpt><trkpt lat="31.734657298459503" lon="-6.328895487977931"><ele>2565.0</ele><time>2026-05-04T11:50:17.999Z</time></trkpt><trkpt lat="31.73463076757744" lon="-6.328727878957227"><ele>2565.0</ele><time>2026-05-04T11:50:18.999Z</time></trkpt><trkpt lat="31.734630434921215" lon="-6.3285534546571744"><ele>2565.0</ele><time>2026-05-04T11:50:19.999Z</time></trkpt><trkpt lat="31.73461191815751" lon="-6.32839052973652"><ele>2565.25</ele><time>2026-05-04T11:50:20.999Z</time></trkpt><trkpt lat="31.734585347896747" lon="-6.328229467365718"><ele>2565.5</ele><time>2026-05-04T11:50:21.999Z</time></trkpt><trkpt lat="31.734501904179403" lon="-6.328087225823987"><ele>2565.75</ele><time>2026-05-04T11:50:22.999Z</time></trkpt><trkpt lat="31.734394868802625" lon="-6.327957771306396"><ele>2566.0</ele><time>2026-05-04T11:50:23.999Z</time></trkpt><trkpt lat="31.734293553041244" lon="-6.327810965339533"><ele>2566.0</ele><time>2026-05-04T11:50:24.999Z</time></trkpt><trkpt lat="31.734185756883164" lon="-6.327665573871957"><ele>2566.0</ele><time>2026-05-04T11:50:25.999Z</time></trkpt><trkpt lat="31.734084170039324" lon="-6.327502378168963"><ele>2566.0</ele><time>2026-05-04T11:50:26.999Z</time></trkpt><trkpt lat="31.733982815008687" lon="-6.327339605578595"><ele>2558.3333333333335</ele><time>2026-05-04T11:50:27.999Z</time></trkpt><trkpt lat="31.733885315700782" lon="-6.327183255030215"><ele>2550.6666666666665</ele><time>2026-05-04T11:50:28.999Z</time></trkpt><trkpt lat="31.733809469700503" lon="-6.326997141219532"><ele>2543.0</ele><time>2026-05-04T11:50:29.999Z</time></trkpt><trkpt lat="31.733744323018723" lon="-6.326816657928823"><ele>2543.0</ele><time>2026-05-04T11:50:30.999Z</time></trkpt><trkpt lat="31.73368266860525" lon="-6.326632405480013"><ele>2543.0</ele><time>2026-05-04T11:50:31.999Z</time></trkpt><trkpt lat="31.733618353157315" lon="-6.326441623598315"><ele>2543.0</ele><time>2026-05-04T11:50:32.999Z</time></trkpt><trkpt lat="31.733551187902137" lon="-6.326264403942831"><ele>2552.333333333333</ele><time>2026-05-04T11:50:33.999Z</time></trkpt><trkpt lat="31.7334827730485" lon="-6.326081978774752"><ele>2561.6666666666665</ele><time>2026-05-04T11:50:34.999Z</time></trkpt><trkpt lat="31.733433910588513" lon="-6.3259049595096"><ele>2571.0</ele><time>2026-05-04T11:50:35.999Z</time></trkpt><trkpt lat="31.733394635452953" lon="-6.325724065910487"><ele>2565.3333333333335</ele><time>2026-05-04T11:50:36.999Z</time></trkpt><trkpt lat="31.73338030935297" lon="-6.325532908991028"><ele>2559.666666666667</ele><time>2026-05-04T11:50:37.999Z</time></trkpt><trkpt lat="31.733374036312007" lon="-6.325360050348992"><ele>2554.0</ele><time>2026-05-04T11:50:38.999Z</time></trkpt><trkpt lat="31.73336719110671" lon="-6.325191308998112"><ele>2554.0</ele><time>2026-05-04T11:50:39.999Z</time></trkpt><trkpt lat="31.73335511621466" lon="-6.325028412720633"><ele>2554.0</ele><time>2026-05-04T11:50:40.999Z</time></trkpt><trkpt lat="31.73332630351671" lon="-6.324869045305848"><ele>2554.0</ele><time>2026-05-04T11:50:41.999Z</time></trkpt><trkpt lat="31.733283798857197" lon="-6.3247174610033845"><ele>2554.0</ele><time>2026-05-04T11:50:42.999Z</time></trkpt><trkpt lat="31.73324109772253" lon="-6.324559866880057"><ele>2552.2</ele><time>2026-05-04T11:50:43.999Z</time></trkpt><trkpt lat="31.733199871242302" lon="-6.324409219736668"><ele>2550.4</ele><time>2026-05-04T11:50:44.999Z</time></trkpt><trkpt lat="31.733159306747147" lon="-6.324267464311723"><ele>2548.6</ele><time>2026-05-04T11:50:45.999Z</time></trkpt><trkpt lat="31.733125746442838" lon="-6.324150270496813"><ele>2546.8</ele><time>2026-05-04T11:50:46.999Z</time></trkpt><trkpt lat="31.73309398621021" lon="-6.324070070588022"><ele>2545.0</ele><time>2026-05-04T11:50:48Z</time></trkpt><trkpt lat="31.733061962896343" lon="-6.323999327997381"><ele>2545.0</ele><time>2026-05-04T11:50:49Z</time></trkpt><trkpt lat="31.73299686002827" lon="-6.323964626944223"><ele>2545.0</ele><time>2026-05-04T11:50:50Z</time></trkpt><trkpt lat="31.73291490470687" lon="-6.323967179341882"><ele>2545.0</ele><time>2026-05-04T11:50:51Z</time></trkpt><trkpt lat="31.732824697789734" lon="-6.324016380418554"><ele>2545.0</ele><time>2026-05-04T11:50:52Z</time></trkpt><trkpt lat="31.732736920283774" lon="-6.324094745950722"><ele>2545.0</ele><time>2026-05-04T11:50:53Z</time></trkpt><trkpt lat="31.73265048912615" lon="-6.32418884660454"><ele>2543.0</ele><time>2026-05-04T11:50:54Z</time></trkpt><trkpt lat="31.73257362129019" lon="-6.3243034694611575"><ele>2541.0</ele><time>2026-05-04T11:50:55Z</time></trkpt><trkpt lat="31.73251872572025" lon="-6.324452474705769"><ele>2539.0</ele><time>2026-05-04T11:50:56Z</time></trkpt><trkpt lat="31.73244255618453" lon="-6.3245937995141315"><ele>2537.0</ele><time>2026-05-04T11:50:57Z</time></trkpt><trkpt lat="31.73237614757935" lon="-6.324735403028566"><ele>2541.25</ele><time>2026-05-04T11:50:58Z</time></trkpt><trkpt lat="31.732316994811654" lon="-6.324879092042773"><ele>2545.5</ele><time>2026-05-04T11:50:59Z</time></trkpt><trkpt lat="31.732247823959145" lon="-6.325028627718608"><ele>2549.75</ele><time>2026-05-04T11:51:00Z</time></trkpt><trkpt lat="31.732191252716095" lon="-6.325189041174026"><ele>2554.0</ele><time>2026-05-04T11:51:01Z</time></trkpt><trkpt lat="31.732121277473933" lon="-6.325350342191885"><ele>2554.0</ele><time>2026-05-04T11:51:02Z</time></trkpt><trkpt lat="31.732066704322175" lon="-6.325520550735029"><ele>2554.0</ele><time>2026-05-04T11:51:03Z</time></trkpt><trkpt lat="31.732012513513105" lon="-6.325686315049495"><ele>2554.0</ele><time>2026-05-04T11:51:04Z</time></trkpt><trkpt lat="31.73195653413051" lon="-6.325854964857744"><ele>2559.3333333333335</ele><time>2026-05-04T11:51:05Z</time></trkpt><trkpt lat="31.731896642416917" lon="-6.326022709632649"><ele>2564.6666666666665</ele><time>2026-05-04T11:51:06Z</time></trkpt><trkpt lat="31.731837533939878" lon="-6.326188486825266"><ele>2570.0</ele><time>2026-05-04T11:51:07Z</time></trkpt><trkpt lat="31.731778137296484" lon="-6.326349556958145"><ele>2559.0</ele><time>2026-05-04T11:51:08Z</time></trkpt><trkpt lat="31.731715318871075" lon="-6.326512651136773"><ele>2548.0</ele><time>2026-05-04T11:51:09Z</time></trkpt><trkpt lat="31.73164620815958" lon="-6.32667060952771"><ele>2537.0</ele><time>2026-05-04T11:51:10Z</time></trkpt><trkpt lat="31.731565043442913" lon="-6.326823352995482"><ele>2537.0</ele><time>2026-05-04T11:51:11Z</time></trkpt><trkpt lat="31.731480018346677" lon="-6.326982456893313"><ele>2537.0</ele><time>2026-05-04T11:51:12Z</time></trkpt><trkpt lat="31.731392487939868" lon="-6.327143697368358"><ele>2537.0</ele><time>2026-05-04T11:51:13Z</time></trkpt><trkpt lat="31.731304935537654" lon="-6.327299595053501"><ele>2542.333333333333</ele><time>2026-05-04T11:51:14Z</time></trkpt><trkpt lat="31.731218108604725" lon="-6.327448060143788"><ele>2547.6666666666665</ele><time>2026-05-04T11:51:15Z</time></trkpt><trkpt lat="31.731125001380743" lon="-6.327587532278998"><ele>2553.0</ele><time>2026-05-04T11:51:16Z</time></trkpt><trkpt lat="31.731019917202985" lon="-6.327713882386104"><ele>2544.75</ele><time>2026-05-04T11:51:17Z</time></trkpt><trkpt lat="31.730909063354613" lon="-6.327828241719143"><ele>2536.5</ele><time>2026-05-04T11:51:18Z</time></trkpt><trkpt lat="31.73081483230279" lon="-6.327945122952883"><ele>2528.25</ele><time>2026-05-04T11:51:19Z</time></trkpt><trkpt lat="31.730708579363032" lon="-6.3280221434596235"><ele>2520.0</ele><time>2026-05-04T11:51:20Z</time></trkpt><trkpt lat="31.730591400501744" lon="-6.328035295348906"><ele>2517.6</ele><time>2026-05-04T11:51:21Z</time></trkpt><trkpt lat="31.730489604614075" lon="-6.32807984386994"><ele>2515.2</ele><time>2026-05-04T11:51:22Z</time></trkpt><trkpt lat="31.730393973666402" lon="-6.328120042863977"><ele>2512.8</ele><time>2026-05-04T11:51:23Z</time></trkpt><trkpt lat="31.730304316597305" lon="-6.328198305871001"><ele>2510.4</ele><time>2026-05-04T11:51:24Z</time></trkpt><trkpt lat="31.730217112199323" lon="-6.32830600016879"><ele>2508.0</ele><time>2026-05-04T11:51:25Z</time></trkpt><trkpt lat="31.73015769349196" lon="-6.328445135463049"><ele>2508.0</ele><time>2026-05-04T11:51:26Z</time></trkpt><trkpt lat="31.730101729826906" lon="-6.3285907183452625"><ele>2508.0</ele><time>2026-05-04T11:51:27Z</time></trkpt><trkpt lat="31.730064471525782" lon="-6.328753170745662"><ele>2508.0</ele><time>2026-05-04T11:51:28Z</time></trkpt><trkpt lat="31.730040209567292" lon="-6.3289132347776595"><ele>2508.0</ele><time>2026-05-04T11:51:29Z</time></trkpt><trkpt lat="31.730019222906144" lon="-6.3290636978541155"><ele>2510.25</ele><time>2026-05-04T11:51:30Z</time></trkpt><trkpt lat="31.72999555013715" lon="-6.329208948927304"><ele>2512.5</ele><time>2026-05-04T11:51:31Z</time></trkpt><trkpt lat="31.729967121789006" lon="-6.329344356418233"><ele>2514.75</ele><time>2026-05-04T11:51:32Z</time></trkpt><trkpt lat="31.729931444247473" lon="-6.3294676254340105"><ele>2517.0</ele><time>2026-05-04T11:51:33Z</time></trkpt><trkpt lat="31.72989738381355" lon="-6.329584017982789"><ele>2517.0</ele><time>2026-05-04T11:51:34Z</time></trkpt><trkpt lat="31.729803021618594" lon="-6.3296647046248795"><ele>2517.0</ele><time>2026-05-04T11:51:35Z</time></trkpt><trkpt lat="31.729725643053527" lon="-6.329751642497723"><ele>2517.0</ele><time>2026-05-04T11:51:36Z</time></trkpt><trkpt lat="31.729643210752" lon="-6.32981808615328"><ele>2517.0</ele><time>2026-05-04T11:51:37Z</time></trkpt><trkpt lat="31.72951877766935" lon="-6.3298117243174"><ele>2517.0</ele><time>2026-05-04T11:51:38Z</time></trkpt><trkpt lat="31.72940721962603" lon="-6.329756631497654"><ele>2517.5</ele><time>2026-05-04T11:51:39Z</time></trkpt><trkpt lat="31.729292491854135" lon="-6.329728474580532"><ele>2518.0</ele><time>2026-05-04T11:51:39.999Z</time></trkpt><trkpt lat="31.729169606069604" lon="-6.329692489574316"><ele>2518.5</ele><time>2026-05-04T11:51:40.999Z</time></trkpt><trkpt lat="31.729037965798728" lon="-6.329642753376626"><ele>2519.0</ele><time>2026-05-04T11:51:41.999Z</time></trkpt><trkpt lat="31.72891781898581" lon="-6.329571326150877"><ele>2512.5</ele><time>2026-05-04T11:51:42.999Z</time></trkpt><trkpt lat="31.72880185866849" lon="-6.329486572701233"><ele>2506.0</ele><time>2026-05-04T11:51:43.999Z</time></trkpt><trkpt lat="31.728687233517142" lon="-6.3293862963502505"><ele>2499.5</ele><time>2026-05-04T11:51:44.999Z</time></trkpt><trkpt lat="31.728565285347837" lon="-6.329294030184215"><ele>2493.0</ele><time>2026-05-04T11:51:45.999Z</time></trkpt><trkpt lat="31.7284287316433" lon="-6.329224411514967"><ele>2493.0</ele><time>2026-05-04T11:51:46.999Z</time></trkpt><trkpt lat="31.728286534945674" lon="-6.329162667025047"><ele>2493.0</ele><time>2026-05-04T11:51:47.999Z</time></trkpt><trkpt lat="31.72815174299582" lon="-6.329087496139015"><ele>2493.0</ele><time>2026-05-04T11:51:48.999Z</time></trkpt><trkpt lat="31.728023071407403" lon="-6.329011326308192"><ele>2493.0</ele><time>2026-05-04T11:51:49.999Z</time></trkpt><trkpt lat="31.72789790775742" lon="-6.328933669947566"><ele>2488.0</ele><time>2026-05-04T11:51:50.999Z</time></trkpt><trkpt lat="31.727813036250353" lon="-6.328772710701623"><ele>2483.0</ele><time>2026-05-04T11:51:51.999Z</time></trkpt><trkpt lat="31.727701105410336" lon="-6.328666571119539"><ele>2478.0</ele><time>2026-05-04T11:51:52.999Z</time></trkpt><trkpt lat="31.727600413178976" lon="-6.328554291520168"><ele>2473.0</ele><time>2026-05-04T11:51:53.999Z</time></trkpt><trkpt lat="31.727502321520504" lon="-6.328433662517213"><ele>2473.0</ele><time>2026-05-04T11:51:54.999Z</time></trkpt><trkpt lat="31.72740627373046" lon="-6.328314095545502"><ele>2473.0</ele><time>2026-05-04T11:51:55.999Z</time></trkpt><trkpt lat="31.72730521323953" lon="-6.328204111162049"><ele>2473.0</ele><time>2026-05-04T11:51:56.999Z</time></trkpt><trkpt lat="31.727200805402877" lon="-6.328104041961497"><ele>2473.0</ele><time>2026-05-04T11:51:57.999Z</time></trkpt><trkpt lat="31.727095600148086" lon="-6.328004161658331"><ele>2472.25</ele><time>2026-05-04T11:51:58.999Z</time></trkpt><trkpt lat="31.7269958758488" lon="-6.327898805044583"><ele>2471.5</ele><time>2026-05-04T11:51:59.999Z</time></trkpt><trkpt lat="31.726897983574194" lon="-6.3277880286308115"><ele>2470.75</ele><time>2026-05-04T11:52:00.999Z</time></trkpt><trkpt lat="31.72680857182469" lon="-6.327674316487163"><ele>2470.0</ele><time>2026-05-04T11:52:01.999Z</time></trkpt><trkpt lat="31.72672182226548" lon="-6.327540352575594"><ele>2470.0</ele><time>2026-05-04T11:52:02.999Z</time></trkpt><trkpt lat="31.726646273691156" lon="-6.327397511197732"><ele>2470.0</ele><time>2026-05-04T11:52:03.999Z</time></trkpt><trkpt lat="31.726576546267655" lon="-6.3272541212523"><ele>2470.0</ele><time>2026-05-04T11:52:04.999Z</time></trkpt><trkpt lat="31.72650259387545" lon="-6.327108772998456"><ele>2470.0</ele><time>2026-05-04T11:52:05.999Z</time></trkpt><trkpt lat="31.72642821711639" lon="-6.326963113261236"><ele>2472.5</ele><time>2026-05-04T11:52:06.999Z</time></trkpt><trkpt lat="31.726353572832128" lon="-6.326813597254344"><ele>2475.0</ele><time>2026-05-04T11:52:07.999Z</time></trkpt><trkpt lat="31.726283266627192" lon="-6.326664495111944"><ele>2477.5</ele><time>2026-05-04T11:52:08.999Z</time></trkpt><trkpt lat="31.72621714275963" lon="-6.32651492688264"><ele>2480.0</ele><time>2026-05-04T11:52:09.999Z</time></trkpt><trkpt lat="31.72615386587014" lon="-6.326366888071205"><ele>2481.75</ele><time>2026-05-04T11:52:10.999Z</time></trkpt><trkpt lat="31.72609859904868" lon="-6.326214206229597"><ele>2483.5</ele><time>2026-05-04T11:52:11.999Z</time></trkpt><trkpt lat="31.72605112034039" lon="-6.32605931602883"><ele>2485.25</ele><time>2026-05-04T11:52:12.999Z</time></trkpt><trkpt lat="31.72599893695091" lon="-6.3259091786926716"><ele>2487.0</ele><time>2026-05-04T11:52:13.999Z</time></trkpt><trkpt lat="31.72592622398025" lon="-6.325770354558961"><ele>2481.6</ele><time>2026-05-04T11:52:14.999Z</time></trkpt><trkpt lat="31.725843426138248" lon="-6.325655324531237"><ele>2476.2</ele><time>2026-05-04T11:52:15.999Z</time></trkpt><trkpt lat="31.725778398310865" lon="-6.325562401535083"><ele>2470.8</ele><time>2026-05-04T11:52:16.999Z</time></trkpt><trkpt lat="31.72574358800924" lon="-6.325470310578237"><ele>2465.4</ele><time>2026-05-04T11:52:17.999Z</time></trkpt><trkpt lat="31.725734251095606" lon="-6.325370728499462"><ele>2460.0</ele><time>2026-05-04T11:52:18.999Z</time></trkpt><trkpt lat="31.725745558996874" lon="-6.325267007280419"><ele>2460.0</ele><time>2026-05-04T11:52:19.999Z</time></trkpt><trkpt lat="31.725768859716858" lon="-6.325150816944834"><ele>2460.0</ele><time>2026-05-04T11:52:20.999Z</time></trkpt><trkpt lat="31.725803342460786" lon="-6.325027739417543"><ele>2460.0</ele><time>2026-05-04T11:52:21.999Z</time></trkpt><trkpt lat="31.72585102379078" lon="-6.3248983371061005"><ele>2460.0</ele><time>2026-05-04T11:52:22.999Z</time></trkpt><trkpt lat="31.72589934947509" lon="-6.3247621762562085"><ele>2461.75</ele><time>2026-05-04T11:52:23.999Z</time></trkpt><trkpt lat="31.725946596304997" lon="-6.324629697957403"><ele>2463.5</ele><time>2026-05-04T11:52:24.999Z</time></trkpt><trkpt lat="31.726007961853536" lon="-6.324497588527706"><ele>2465.25</ele><time>2026-05-04T11:52:25.999Z</time></trkpt><trkpt lat="31.72608399419777" lon="-6.324363104766856"><ele>2467.0</ele><time>2026-05-04T11:52:26.999Z</time></trkpt><trkpt lat="31.726161522870044" lon="-6.324221702403703"><ele>2467.0</ele><time>2026-05-04T11:52:27.999Z</time></trkpt><trkpt lat="31.726233922128806" lon="-6.324071217713516"><ele>2467.0</ele><time>2026-05-04T11:52:28.999Z</time></trkpt><trkpt lat="31.726307010680177" lon="-6.323921365223194"><ele>2467.0</ele><time>2026-05-04T11:52:29.999Z</time></trkpt><trkpt lat="31.72638672463729" lon="-6.32377739139088"><ele>2467.0</ele><time>2026-05-04T11:52:30.999Z</time></trkpt><trkpt lat="31.726469164627176" lon="-6.323641490530791"><ele>2460.75</ele><time>2026-05-04T11:52:31.999Z</time></trkpt><trkpt lat="31.72655266944613" lon="-6.323511533424197"><ele>2454.5</ele><time>2026-05-04T11:52:32.999Z</time></trkpt><trkpt lat="31.726637154382516" lon="-6.323386446014042"><ele>2448.25</ele><time>2026-05-04T11:52:33.999Z</time></trkpt><trkpt lat="31.726719760220558" lon="-6.323255647030001"><ele>2442.0</ele><time>2026-05-04T11:52:34.999Z</time></trkpt><trkpt lat="31.726796511088306" lon="-6.32312060973394"><ele>2440.5</ele><time>2026-05-04T11:52:35.999Z</time></trkpt><trkpt lat="31.726868334045733" lon="-6.322981860987347"><ele>2439.0</ele><time>2026-05-04T11:52:36.999Z</time></trkpt><trkpt lat="31.726934401905773" lon="-6.322835141332527"><ele>2437.5</ele><time>2026-05-04T11:52:37.999Z</time></trkpt><trkpt lat="31.726994420044356" lon="-6.322676581480992"><ele>2436.0</ele><time>2026-05-04T11:52:38.999Z</time></trkpt><trkpt lat="31.72706535129004" lon="-6.322591199057579"><ele>2436.0</ele><time>2026-05-04T11:52:39.999Z</time></trkpt><trkpt lat="31.72707651089264" lon="-6.322408466308159"><ele>2436.0</ele><time>2026-05-04T11:52:40.999Z</time></trkpt><trkpt lat="31.72708629472805" lon="-6.3222327565896865"><ele>2436.0</ele><time>2026-05-04T11:52:41.999Z</time></trkpt><trkpt lat="31.72710702244103" lon="-6.3220626117505105"><ele>2431.75</ele><time>2026-05-04T11:52:42.999Z</time></trkpt><trkpt lat="31.7271307379458" lon="-6.321889470093908"><ele>2427.5</ele><time>2026-05-04T11:52:43.999Z</time></trkpt><trkpt lat="31.72715655545161" lon="-6.321718345493097"><ele>2423.25</ele><time>2026-05-04T11:52:44.999Z</time></trkpt><trkpt lat="31.727176832612425" lon="-6.32154436263637"><ele>2419.0</ele><time>2026-05-04T11:52:45.999Z</time></trkpt><trkpt lat="31.727198255576265" lon="-6.321373731618072"><ele>2417.25</ele><time>2026-05-04T11:52:46.999Z</time></trkpt><trkpt lat="31.72722664932078" lon="-6.32120093518941"><ele>2415.5</ele><time>2026-05-04T11:52:47.999Z</time></trkpt><trkpt lat="31.727263373137454" lon="-6.321035091566214"><ele>2413.75</ele><time>2026-05-04T11:52:48.999Z</time></trkpt><trkpt lat="31.727300583613207" lon="-6.320869894072246"><ele>2412.0</ele><time>2026-05-04T11:52:49.999Z</time></trkpt><trkpt lat="31.72733495991276" lon="-6.3207032139677635"><ele>2411.75</ele><time>2026-05-04T11:52:50.999Z</time></trkpt><trkpt lat="31.727364632248268" lon="-6.320541097297025"><ele>2411.5</ele><time>2026-05-04T11:52:51.999Z</time></trkpt><trkpt lat="31.727388825140245" lon="-6.32038235242392"><ele>2411.25</ele><time>2026-05-04T11:52:52.999Z</time></trkpt><trkpt lat="31.727399606178437" lon="-6.320219652331063"><ele>2411.0</ele><time>2026-05-04T11:52:54Z</time></trkpt><trkpt lat="31.727397876344234" lon="-6.320051824197325"><ele>2411.0</ele><time>2026-05-04T11:52:55Z</time></trkpt><trkpt lat="31.727377929398784" lon="-6.319885175325906"><ele>2411.0</ele><time>2026-05-04T11:52:56Z</time></trkpt><trkpt lat="31.727342521574332" lon="-6.3197100362473035"><ele>2411.0</ele><time>2026-05-04T11:52:57Z</time></trkpt><trkpt lat="31.72730198093644" lon="-6.319538225217583"><ele>2411.0</ele><time>2026-05-04T11:52:58Z</time></trkpt><trkpt lat="31.727256493079103" lon="-6.319359141627798"><ele>2410.0</ele><time>2026-05-04T11:52:59Z</time></trkpt><trkpt lat="31.727231700656727" lon="-6.319182538519799"><ele>2409.0</ele><time>2026-05-04T11:53:00Z</time></trkpt><trkpt lat="31.727217373632943" lon="-6.31900050061722"><ele>2408.0</ele><time>2026-05-04T11:53:01Z</time></trkpt><trkpt lat="31.72721921650478" lon="-6.318824548105927"><ele>2406.25</ele><time>2026-05-04T11:53:02Z</time></trkpt><trkpt lat="31.727223629118" lon="-6.318660809171931"><ele>2404.5</ele><time>2026-05-04T11:53:03Z</time></trkpt><trkpt lat="31.727229346345492" lon="-6.318514455889866"><ele>2402.75</ele><time>2026-05-04T11:53:04Z</time></trkpt><trkpt lat="31.727230224823472" lon="-6.31838400117362"><ele>2401.0</ele><time>2026-05-04T11:53:05Z</time></trkpt><trkpt lat="31.727231778352884" lon="-6.318268011403444"><ele>2401.0</ele><time>2026-05-04T11:53:06Z</time></trkpt><trkpt lat="31.727230263558585" lon="-6.318170916133469"><ele>2401.0</ele><time>2026-05-04T11:53:07Z</time></trkpt><trkpt lat="31.72722213516415" lon="-6.318085925181938"><ele>2401.0</ele><time>2026-05-04T11:53:08Z</time></trkpt><trkpt lat="31.72715173728158" lon="-6.317982732172247"><ele>2401.0</ele><time>2026-05-04T11:53:10Z</time></trkpt><trkpt lat="31.727040708869083" lon="-6.317994729221862"><ele>2401.0</ele><time>2026-05-04T11:53:12Z</time></trkpt><trkpt lat="31.726976644289657" lon="-6.3180580512767595"><ele>2401.0</ele><time>2026-05-04T11:53:13Z</time></trkpt><trkpt lat="31.72691863774578" lon="-6.318154951087565"><ele>2401.0</ele><time>2026-05-04T11:53:14Z</time></trkpt><trkpt lat="31.72685820384825" lon="-6.318268936089349"><ele>2401.0</ele><time>2026-05-04T11:53:15Z</time></trkpt><trkpt lat="31.726796278712904" lon="-6.318381725024504"><ele>2401.0</ele><time>2026-05-04T11:53:16Z</time></trkpt><trkpt lat="31.72674013933433" lon="-6.318488707958301"><ele>2401.0</ele><time>2026-05-04T11:53:17Z</time></trkpt><trkpt lat="31.72669498566787" lon="-6.318582677887575"><ele>2398.4</ele><time>2026-05-04T11:53:18Z</time></trkpt><trkpt lat="31.72664445208516" lon="-6.3186519206727905"><ele>2395.8</ele><time>2026-05-04T11:53:19Z</time></trkpt><trkpt lat="31.726627313244784" lon="-6.318734034317925"><ele>2393.2000000000003</ele><time>2026-05-04T11:53:20Z</time></trkpt><trkpt lat="31.726495694009113" lon="-6.318692608868"><ele>2390.6</ele><time>2026-05-04T11:53:21Z</time></trkpt><trkpt lat="31.726401370709766" lon="-6.3186609035582695"><ele>2388.0</ele><time>2026-05-04T11:53:22Z</time></trkpt><trkpt lat="31.726305217811802" lon="-6.31861123449759"><ele>2388.0</ele><time>2026-05-04T11:53:23Z</time></trkpt><trkpt lat="31.72621281454573" lon="-6.318566911279291"><ele>2388.0</ele><time>2026-05-04T11:53:24Z</time></trkpt><trkpt lat="31.726116816850347" lon="-6.318541807952773"><ele>2388.0</ele><time>2026-05-04T11:53:25Z</time></trkpt><trkpt lat="31.72601640422715" lon="-6.318556317000938"><ele>2388.0</ele><time>2026-05-04T11:53:26Z</time></trkpt><trkpt lat="31.725923581215945" lon="-6.318637020205858"><ele>2388.0</ele><time>2026-05-04T11:53:27Z</time></trkpt><trkpt lat="31.725819397140896" lon="-6.31870080310655"><ele>2385.5</ele><time>2026-05-04T11:53:28Z</time></trkpt><trkpt lat="31.725747604747845" lon="-6.318810602080803"><ele>2383.0</ele><time>2026-05-04T11:53:29Z</time></trkpt><trkpt lat="31.725696974302092" lon="-6.318946977482977"><ele>2380.5</ele><time>2026-05-04T11:53:30Z</time></trkpt><trkpt lat="31.725651055694524" lon="-6.319095572644734"><ele>2378.0</ele><time>2026-05-04T11:53:31Z</time></trkpt><trkpt lat="31.72560150558899" lon="-6.319239548315904"><ele>2378.0</ele><time>2026-05-04T11:53:32Z</time></trkpt><trkpt lat="31.725555039796888" lon="-6.319377913926684"><ele>2378.0</ele><time>2026-05-04T11:53:33Z</time></trkpt><trkpt lat="31.725519186004718" lon="-6.319523779368077"><ele>2378.0</ele><time>2026-05-04T11:53:34Z</time></trkpt><trkpt lat="31.725568831362068" lon="-6.319696475053429"><ele>2378.0</ele><time>2026-05-04T11:53:35Z</time></trkpt><trkpt lat="31.72554002787865" lon="-6.319857102037463"><ele>2379.5</ele><time>2026-05-04T11:53:36Z</time></trkpt><trkpt lat="31.725486887609488" lon="-6.320012903433445"><ele>2381.0</ele><time>2026-05-04T11:53:37Z</time></trkpt><trkpt lat="31.72546130280394" lon="-6.320174817417875"><ele>2382.5</ele><time>2026-05-04T11:53:38Z</time></trkpt><trkpt lat="31.72544143874881" lon="-6.320338015164009"><ele>2384.0</ele><time>2026-05-04T11:53:39Z</time></trkpt><trkpt lat="31.72542622205613" lon="-6.320498495207488"><ele>2384.0</ele><time>2026-05-04T11:53:39.999Z</time></trkpt><trkpt lat="31.725413146179836" lon="-6.320660536383405"><ele>2384.0</ele><time>2026-05-04T11:53:40.999Z</time></trkpt><trkpt lat="31.725400174180624" lon="-6.320816046293158"><ele>2384.0</ele><time>2026-05-04T11:53:41.999Z</time></trkpt><trkpt lat="31.725390325172164" lon="-6.320966752446437"><ele>2384.0</ele><time>2026-05-04T11:53:42.999Z</time></trkpt><trkpt lat="31.725382610265846" lon="-6.321119604781646"><ele>2384.0</ele><time>2026-05-04T11:53:43.999Z</time></trkpt><trkpt lat="31.725374078045515" lon="-6.321275631500788"><ele>2384.0</ele><time>2026-05-04T11:53:44.999Z</time></trkpt><trkpt lat="31.725362613123202" lon="-6.3214341916742605"><ele>2384.0</ele><time>2026-05-04T11:53:45.999Z</time></trkpt><trkpt lat="31.725347515258246" lon="-6.321595541528504"><ele>2384.0</ele><time>2026-05-04T11:53:46.999Z</time></trkpt><trkpt lat="31.725326376960037" lon="-6.321748826247036"><ele>2383.75</ele><time>2026-05-04T11:53:47.999Z</time></trkpt><trkpt lat="31.72530587812416" lon="-6.321896489273944"><ele>2383.5</ele><time>2026-05-04T11:53:48.999Z</time></trkpt><trkpt lat="31.725313414862285" lon="-6.3220391506443665"><ele>2383.25</ele><time>2026-05-04T11:53:49.999Z</time></trkpt><trkpt lat="31.7253112808332" lon="-6.322179323426873"><ele>2383.0</ele><time>2026-05-04T11:53:50.999Z</time></trkpt><trkpt lat="31.725309290864377" lon="-6.3223081598203"><ele>2384.5</ele><time>2026-05-04T11:53:51.999Z</time></trkpt><trkpt lat="31.72528926485429" lon="-6.322434132454884"><ele>2386.0</ele><time>2026-05-04T11:53:52.999Z</time></trkpt><trkpt lat="31.725258123113427" lon="-6.322549005229847"><ele>2387.5</ele><time>2026-05-04T11:53:53.999Z</time></trkpt><trkpt lat="31.72511278510232" lon="-6.322607631682811"><ele>2389.0</ele><time>2026-05-04T11:53:54.999Z</time></trkpt><trkpt lat="31.725052322304563" lon="-6.322698026409703"><ele>2381.25</ele><time>2026-05-04T11:53:55.999Z</time></trkpt><trkpt lat="31.724972908137627" lon="-6.3227475755004"><ele>2373.5</ele><time>2026-05-04T11:53:56.999Z</time></trkpt><trkpt lat="31.72483182821872" lon="-6.322711396671251"><ele>2365.75</ele><time>2026-05-04T11:53:58.999Z</time></trkpt><trkpt lat="31.724770511311" lon="-6.322600743562398"><ele>2358.0</ele><time>2026-05-04T11:53:59.999Z</time></trkpt><trkpt lat="31.72470428232206" lon="-6.3224972238773915"><ele>2358.0</ele><time>2026-05-04T11:54:00.999Z</time></trkpt><trkpt lat="31.724624605594737" lon="-6.322385838148748"><ele>2358.0</ele><time>2026-05-04T11:54:01.999Z</time></trkpt><trkpt lat="31.724528232688563" lon="-6.322279315462564"><ele>2358.0</ele><time>2026-05-04T11:54:02.999Z</time></trkpt><trkpt lat="31.724421843158215" lon="-6.322175313663219"><ele>2358.0</ele><time>2026-05-04T11:54:03.999Z</time></trkpt><trkpt lat="31.724309898951912" lon="-6.322062440655031"><ele>2350.3333333333335</ele><time>2026-05-04T11:54:04.999Z</time></trkpt><trkpt lat="31.72419577927198" lon="-6.32194489535888"><ele>2342.666666666667</ele><time>2026-05-04T11:54:05.999Z</time></trkpt><trkpt lat="31.724084714035882" lon="-6.321825777387036"><ele>2335.0</ele><time>2026-05-04T11:54:06.999Z</time></trkpt><trkpt lat="31.723970422403614" lon="-6.321704887877661"><ele>2335.0</ele><time>2026-05-04T11:54:07.999Z</time></trkpt><trkpt lat="31.723849933363645" lon="-6.321585971807657"><ele>2335.0</ele><time>2026-05-04T11:54:08.999Z</time></trkpt><trkpt lat="31.723733447793965" lon="-6.321461156081556"><ele>2335.0</ele><time>2026-05-04T11:54:09.999Z</time></trkpt><trkpt lat="31.723626282616745" lon="-6.3213181457529775"><ele>2327.3333333333335</ele><time>2026-05-04T11:54:10.999Z</time></trkpt><trkpt lat="31.723511699156447" lon="-6.321173100958772"><ele>2319.6666666666665</ele><time>2026-05-04T11:54:11.999Z</time></trkpt><trkpt lat="31.723416508292722" lon="-6.321020995434557"><ele>2312.0</ele><time>2026-05-04T11:54:12.999Z</time></trkpt><trkpt lat="31.72329712620492" lon="-6.320884984947077"><ele>2312.0</ele><time>2026-05-04T11:54:13.999Z</time></trkpt><trkpt lat="31.723164912311965" lon="-6.320765478449482"><ele>2312.0</ele><time>2026-05-04T11:54:14.999Z</time></trkpt><trkpt lat="31.723021028859016" lon="-6.3206595316298175"><ele>2312.0</ele><time>2026-05-04T11:54:15.999Z</time></trkpt><trkpt lat="31.722870327287897" lon="-6.320555118294502"><ele>2305.333333333333</ele><time>2026-05-04T11:54:16.999Z</time></trkpt><trkpt lat="31.722720486681087" lon="-6.320463843805301"><ele>2298.6666666666665</ele><time>2026-05-04T11:54:17.999Z</time></trkpt><trkpt lat="31.722557329689355" lon="-6.320392145170478"><ele>2292.0</ele><time>2026-05-04T11:54:18.999Z</time></trkpt><trkpt lat="31.722389286571936" lon="-6.320331430888571"><ele>2292.0</ele><time>2026-05-04T11:54:19.999Z</time></trkpt><trkpt lat="31.722225063625014" lon="-6.320268352918248"><ele>2292.0</ele><time>2026-05-04T11:54:20.999Z</time></trkpt><trkpt lat="31.722091389207172" lon="-6.320187868039826"><ele>2292.0</ele><time>2026-05-04T11:54:21.999Z</time></trkpt><trkpt lat="31.721967172157182" lon="-6.320146732376225"><ele>2291.6</ele><time>2026-05-04T11:54:22.999Z</time></trkpt><trkpt lat="31.72185828105861" lon="-6.320142076512783"><ele>2291.2</ele><time>2026-05-04T11:54:23.999Z</time></trkpt><trkpt lat="31.72175864840715" lon="-6.320135084742232"><ele>2290.8</ele><time>2026-05-04T11:54:24.999Z</time></trkpt><trkpt lat="31.721666443537277" lon="-6.320161330034903"><ele>2290.4</ele><time>2026-05-04T11:54:25.999Z</time></trkpt><trkpt lat="31.721618199650166" lon="-6.320287027605363"><ele>2290.0</ele><time>2026-05-04T11:54:26.999Z</time></trkpt><trkpt lat="31.721533506890097" lon="-6.320395266586787"><ele>2290.0</ele><time>2026-05-04T11:54:27.999Z</time></trkpt><trkpt lat="31.72143899312446" lon="-6.320508072823811"><ele>2290.0</ele><time>2026-05-04T11:54:28.999Z</time></trkpt><trkpt lat="31.721394810096637" lon="-6.320651922243088"><ele>2290.0</ele><time>2026-05-04T11:54:29.999Z</time></trkpt><trkpt lat="31.72135489788022" lon="-6.320792416223538"><ele>2290.0</ele><time>2026-05-04T11:54:30.999Z</time></trkpt><trkpt lat="31.721315111729712" lon="-6.320933286380863"><ele>2292.75</ele><time>2026-05-04T11:54:31.999Z</time></trkpt><trkpt lat="31.721269891800592" lon="-6.321053993261691"><ele>2295.5</ele><time>2026-05-04T11:54:32.999Z</time></trkpt><trkpt lat="31.721138134651227" lon="-6.321131240320478"><ele>2298.25</ele><time>2026-05-04T11:54:33.999Z</time></trkpt><trkpt lat="31.721044161592207" lon="-6.321226224396111"><ele>2301.0</ele><time>2026-05-04T11:54:34.999Z</time></trkpt><trkpt lat="31.720973871069468" lon="-6.321351649815332"><ele>2296.0</ele><time>2026-05-04T11:54:35.999Z</time></trkpt><trkpt lat="31.720882097528506" lon="-6.321452632973"><ele>2291.0</ele><time>2026-05-04T11:54:36.999Z</time></trkpt><trkpt lat="31.720756645809757" lon="-6.321515112317494"><ele>2286.0</ele><time>2026-05-04T11:54:37.999Z</time></trkpt><trkpt lat="31.720671428513814" lon="-6.321621403721586"><ele>2281.0</ele><time>2026-05-04T11:54:38.999Z</time></trkpt><trkpt lat="31.720586600583207" lon="-6.321733434855814"><ele>2281.0</ele><time>2026-05-04T11:54:39.999Z</time></trkpt><trkpt lat="31.720505567280355" lon="-6.321852645931778"><ele>2281.0</ele><time>2026-05-04T11:54:40.999Z</time></trkpt><trkpt lat="31.72041127596159" lon="-6.321953046242107"><ele>2281.0</ele><time>2026-05-04T11:54:41.999Z</time></trkpt><trkpt lat="31.72037578585287" lon="-6.322100762767634"><ele>2281.0</ele><time>2026-05-04T11:54:42.999Z</time></trkpt><trkpt lat="31.720381676772913" lon="-6.322257890093183"><ele>2282.25</ele><time>2026-05-04T11:54:43.999Z</time></trkpt><trkpt lat="31.720360272295625" lon="-6.322407969114215"><ele>2283.5</ele><time>2026-05-04T11:54:44.999Z</time></trkpt><trkpt lat="31.72031327369483" lon="-6.32254304193547"><ele>2284.75</ele><time>2026-05-04T11:54:45.999Z</time></trkpt><trkpt lat="31.720302608565873" lon="-6.322672981508806"><ele>2286.0</ele><time>2026-05-04T11:54:46.999Z</time></trkpt><trkpt lat="31.72025531582812" lon="-6.32278701905567"><ele>2279.75</ele><time>2026-05-04T11:54:47.999Z</time></trkpt><trkpt lat="31.720182393274374" lon="-6.3228840284422665"><ele>2273.5</ele><time>2026-05-04T11:54:48.999Z</time></trkpt><trkpt lat="31.720074708769246" lon="-6.322944255196426"><ele>2267.25</ele><time>2026-05-04T11:54:49.999Z</time></trkpt><trkpt lat="31.719971861118026" lon="-6.323001204151622"><ele>2261.0</ele><time>2026-05-04T11:54:50.999Z</time></trkpt><trkpt lat="31.719828732137785" lon="-6.322998329665619"><ele>2261.0</ele><time>2026-05-04T11:54:51.999Z</time></trkpt><trkpt lat="31.719692658614534" lon="-6.322991662857431"><ele>2261.0</ele><time>2026-05-04T11:54:52.999Z</time></trkpt><trkpt lat="31.719551813569712" lon="-6.322957023953934"><ele>2261.0</ele><time>2026-05-04T11:54:53.999Z</time></trkpt><trkpt lat="31.719409397304798" lon="-6.32292894357361"><ele>2261.0</ele><time>2026-05-04T11:54:54.999Z</time></trkpt><trkpt lat="31.719264965397333" lon="-6.322934255023635"><ele>2258.25</ele><time>2026-05-04T11:54:55.999Z</time></trkpt><trkpt lat="31.71912016917641" lon="-6.322946916467874"><ele>2255.5</ele><time>2026-05-04T11:54:56.999Z</time></trkpt><trkpt lat="31.718976858423947" lon="-6.322959031764544"><ele>2252.75</ele><time>2026-05-04T11:54:57.999Z</time></trkpt><trkpt lat="31.718837685013465" lon="-6.32296759008632"><ele>2250.0</ele><time>2026-05-04T11:54:58.999Z</time></trkpt><trkpt lat="31.718706848902396" lon="-6.32297199562988"><ele>2250.0</ele><time>2026-05-04T11:55:00Z</time></trkpt><trkpt lat="31.718590332603487" lon="-6.322965559760296"><ele>2250.0</ele><time>2026-05-04T11:55:01Z</time></trkpt><trkpt lat="31.718475079647508" lon="-6.322912827703959"><ele>2250.0</ele><time>2026-05-04T11:55:02Z</time></trkpt><trkpt lat="31.718386003927684" lon="-6.3227892026005295"><ele>2250.0</ele><time>2026-05-04T11:55:03Z</time></trkpt><trkpt lat="31.718282077417417" lon="-6.322692085299163"><ele>2250.5</ele><time>2026-05-04T11:55:04Z</time></trkpt><trkpt lat="31.71817928835345" lon="-6.322598260205707"><ele>2251.0</ele><time>2026-05-04T11:55:05Z</time></trkpt><trkpt lat="31.71807948842813" lon="-6.322514203099046"><ele>2251.5</ele><time>2026-05-04T11:55:06Z</time></trkpt><trkpt lat="31.717978943184363" lon="-6.322449552614327"><ele>2252.0</ele><time>2026-05-04T11:55:07Z</time></trkpt><trkpt lat="31.71792322936664" lon="-6.322344734254371"><ele>2252.0</ele><time>2026-05-04T11:55:08Z</time></trkpt><trkpt lat="31.717880204974264" lon="-6.322253173930731"><ele>2252.0</ele><time>2026-05-04T11:55:09Z</time></trkpt><trkpt lat="31.717842576474585" lon="-6.322170175044149"><ele>2252.0</ele><time>2026-05-04T11:55:10Z</time></trkpt><trkpt lat="31.717854783061497" lon="-6.322074005119509"><ele>2252.0</ele><time>2026-05-04T11:55:11Z</time></trkpt><trkpt lat="31.71790659547679" lon="-6.321989221520371"><ele>2252.0</ele><time>2026-05-04T11:55:12Z</time></trkpt><trkpt lat="31.71799847599606" lon="-6.321959349553171"><ele>2252.0</ele><time>2026-05-04T11:55:13Z</time></trkpt><trkpt lat="31.718084469206023" lon="-6.321946298709529"><ele>2248.0</ele><time>2026-05-04T11:55:14Z</time></trkpt><trkpt lat="31.718182882295636" lon="-6.321962244048432"><ele>2244.0</ele><time>2026-05-04T11:55:15Z</time></trkpt><trkpt lat="31.71829502293632" lon="-6.321968154886477"><ele>2240.0</ele><time>2026-05-04T11:55:16Z</time></trkpt><trkpt lat="31.718409862961227" lon="-6.322002499128569"><ele>2236.0</ele><time>2026-05-04T11:55:17Z</time></trkpt><trkpt lat="31.718535470609243" lon="-6.3220250970438165"><ele>2234.75</ele><time>2026-05-04T11:55:18Z</time></trkpt><trkpt lat="31.718668883957132" lon="-6.32204974860409"><ele>2233.5</ele><time>2026-05-04T11:55:19Z</time></trkpt><trkpt lat="31.718805349731433" lon="-6.32207911084129"><ele>2232.25</ele><time>2026-05-04T11:55:20Z</time></trkpt><trkpt lat="31.71894684362957" lon="-6.322074536253281"><ele>2231.0</ele><time>2026-05-04T11:55:21Z</time></trkpt><trkpt lat="31.719080085050003" lon="-6.322056614335875"><ele>2231.0</ele><time>2026-05-04T11:55:22Z</time></trkpt><trkpt lat="31.719210679830603" lon="-6.322035264242613"><ele>2231.0</ele><time>2026-05-04T11:55:23Z</time></trkpt><trkpt lat="31.719337485872344" lon="-6.322012195678681"><ele>2231.0</ele><time>2026-05-04T11:55:24Z</time></trkpt><trkpt lat="31.719459379982972" lon="-6.321979822287989"><ele>2231.0</ele><time>2026-05-04T11:55:25Z</time></trkpt><trkpt lat="31.71956195535206" lon="-6.321915459562663"><ele>2233.5</ele><time>2026-05-04T11:55:26Z</time></trkpt><trkpt lat="31.71963314073172" lon="-6.321814604368182"><ele>2236.0</ele><time>2026-05-04T11:55:27Z</time></trkpt><trkpt lat="31.719656161083233" lon="-6.321671970729494"><ele>2238.5</ele><time>2026-05-04T11:55:28Z</time></trkpt><trkpt lat="31.719662223528854" lon="-6.321510221182163"><ele>2241.0</ele><time>2026-05-04T11:55:29Z</time></trkpt><trkpt lat="31.719708110228073" lon="-6.32135975821906"><ele>2241.0</ele><time>2026-05-04T11:55:30Z</time></trkpt><trkpt lat="31.719750359727385" lon="-6.3212212217495765"><ele>2241.0</ele><time>2026-05-04T11:55:31Z</time></trkpt><trkpt lat="31.719789847090695" lon="-6.32109123544548"><ele>2241.0</ele><time>2026-05-04T11:55:32Z</time></trkpt><trkpt lat="31.719831169630933" lon="-6.3209702040916005"><ele>2241.0</ele><time>2026-05-04T11:55:33Z</time></trkpt><trkpt lat="31.71981478521741" lon="-6.320832545573402"><ele>2241.0</ele><time>2026-05-04T11:55:34Z</time></trkpt><trkpt lat="31.71972470212745" lon="-6.320713112731608"><ele>2241.0</ele><time>2026-05-04T11:55:35Z</time></trkpt><trkpt lat="31.719662037644106" lon="-6.320580447546156"><ele>2241.0</ele><time>2026-05-04T11:55:36Z</time></trkpt><trkpt lat="31.719604118722238" lon="-6.320447405445218"><ele>2241.0</ele><time>2026-05-04T11:55:37Z</time></trkpt><trkpt lat="31.71957481883361" lon="-6.320317046123473"><ele>2239.6</ele><time>2026-05-04T11:55:38Z</time></trkpt><trkpt lat="31.719547820675796" lon="-6.32018073329489"><ele>2238.2</ele><time>2026-05-04T11:55:39Z</time></trkpt><trkpt lat="31.719551607148563" lon="-6.320048200302271"><ele>2236.8</ele><time>2026-05-04T11:55:39.999Z</time></trkpt><trkpt lat="31.719562603802885" lon="-6.3199342647808825"><ele>2235.4</ele><time>2026-05-04T11:55:40.999Z</time></trkpt><trkpt lat="31.719584901766318" lon="-6.319841455905068"><ele>2234.0</ele><time>2026-05-04T11:55:41.999Z</time></trkpt><trkpt lat="31.71963323898695" lon="-6.319749821573956"><ele>2234.0</ele><time>2026-05-04T11:55:42.999Z</time></trkpt><trkpt lat="31.719688292633997" lon="-6.319678745470088"><ele>2234.0</ele><time>2026-05-04T11:55:43.999Z</time></trkpt><trkpt lat="31.71982118717257" lon="-6.319622519605575"><ele>2234.0</ele><time>2026-05-04T11:55:44.999Z</time></trkpt><trkpt lat="31.71998107022447" lon="-6.319638616857543"><ele>2234.0</ele><time>2026-05-04T11:55:45.999Z</time></trkpt><trkpt lat="31.720072627901924" lon="-6.319767314001161"><ele>2234.0</ele><time>2026-05-04T11:55:46.999Z</time></trkpt><trkpt lat="31.720155767864373" lon="-6.319803779272415"><ele>2234.0</ele><time>2026-05-04T11:55:47.999Z</time></trkpt><trkpt lat="31.720240015639767" lon="-6.319733464997211"><ele>2234.0</ele><time>2026-05-04T11:55:48.999Z</time></trkpt><trkpt lat="31.720290609150013" lon="-6.319602764092094"><ele>2234.0</ele><time>2026-05-04T11:55:49.999Z</time></trkpt><trkpt lat="31.720368516423925" lon="-6.3194760690236755"><ele>2234.0</ele><time>2026-05-04T11:55:50.999Z</time></trkpt><trkpt lat="31.720433955678008" lon="-6.319341271738912"><ele>2235.25</ele><time>2026-05-04T11:55:51.999Z</time></trkpt><trkpt lat="31.720497363226315" lon="-6.319196532329897"><ele>2236.5</ele><time>2026-05-04T11:55:52.999Z</time></trkpt><trkpt lat="31.720592200025777" lon="-6.319076758712"><ele>2237.75</ele><time>2026-05-04T11:55:53.999Z</time></trkpt><trkpt lat="31.72064933006906" lon="-6.318930990363612"><ele>2239.0</ele><time>2026-05-04T11:55:54.999Z</time></trkpt><trkpt lat="31.72069564716137" lon="-6.318781103775049"><ele>2233.0</ele><time>2026-05-04T11:55:55.999Z</time></trkpt><trkpt lat="31.720743964509822" lon="-6.318645013340028"><ele>2227.0</ele><time>2026-05-04T11:55:56.999Z</time></trkpt><trkpt lat="31.720816813239956" lon="-6.318535491326643"><ele>2221.0</ele><time>2026-05-04T11:55:57.999Z</time></trkpt><trkpt lat="31.720924109251495" lon="-6.3184468916299315"><ele>2215.0</ele><time>2026-05-04T11:55:58.999Z</time></trkpt><trkpt lat="31.721052770461515" lon="-6.318369191475576"><ele>2216.75</ele><time>2026-05-04T11:55:59.999Z</time></trkpt><trkpt lat="31.72117633014805" lon="-6.318292732665208"><ele>2218.5</ele><time>2026-05-04T11:56:00.999Z</time></trkpt><trkpt lat="31.72129302342547" lon="-6.318221381531584"><ele>2220.25</ele><time>2026-05-04T11:56:01.999Z</time></trkpt><trkpt lat="31.721409635580113" lon="-6.318159619727465"><ele>2222.0</ele><time>2026-05-04T11:56:02.999Z</time></trkpt><trkpt lat="31.721527272421415" lon="-6.318102990399249"><ele>2225.0</ele><time>2026-05-04T11:56:03.999Z</time></trkpt><trkpt lat="31.72163261393121" lon="-6.318049431788952"><ele>2228.0</ele><time>2026-05-04T11:56:04.999Z</time></trkpt><trkpt lat="31.721732046242263" lon="-6.318016987048683"><ele>2231.0</ele><time>2026-05-04T11:56:05.999Z</time></trkpt><trkpt lat="31.721843278940074" lon="-6.318029887826304"><ele>2234.0</ele><time>2026-05-04T11:56:06.999Z</time></trkpt><trkpt lat="31.721928367418826" lon="-6.318079564851937"><ele>2237.0</ele><time>2026-05-04T11:56:07.999Z</time></trkpt><trkpt lat="31.722019834255363" lon="-6.318119629841569"><ele>2237.4</ele><time>2026-05-04T11:56:09.999Z</time></trkpt><trkpt lat="31.72205869581827" lon="-6.318049544804727"><ele>2237.7999999999997</ele><time>2026-05-04T11:56:10.999Z</time></trkpt><trkpt lat="31.722069090593372" lon="-6.3179510898643185"><ele>2238.2</ele><time>2026-05-04T11:56:11.999Z</time></trkpt><trkpt lat="31.722022182275015" lon="-6.317850042865886"><ele>2238.6</ele><time>2026-05-04T11:56:12.999Z</time></trkpt><trkpt lat="31.721969088225347" lon="-6.317724333991576"><ele>2239.0</ele><time>2026-05-04T11:56:13.999Z</time></trkpt><trkpt lat="31.721897562876286" lon="-6.317588466466934"><ele>2230.75</ele><time>2026-05-04T11:56:14.999Z</time></trkpt><trkpt lat="31.721841507501228" lon="-6.317440107999879"><ele>2222.5</ele><time>2026-05-04T11:56:15.999Z</time></trkpt><trkpt lat="31.721781396264653" lon="-6.317288704666181"><ele>2214.25</ele><time>2026-05-04T11:56:16.999Z</time></trkpt><trkpt lat="31.721708782653515" lon="-6.3171260484067275"><ele>2206.0</ele><time>2026-05-04T11:56:17.999Z</time></trkpt><trkpt lat="31.721644322617298" lon="-6.316961172132585"><ele>2206.0</ele><time>2026-05-04T11:56:18.999Z</time></trkpt><trkpt lat="31.721571997498117" lon="-6.316806366471738"><ele>2206.0</ele><time>2026-05-04T11:56:19.999Z</time></trkpt><trkpt lat="31.721510025980823" lon="-6.316650185507274"><ele>2206.0</ele><time>2026-05-04T11:56:20.999Z</time></trkpt><trkpt lat="31.72144865674815" lon="-6.316493719318816"><ele>2206.0</ele><time>2026-05-04T11:56:21.999Z</time></trkpt><trkpt lat="31.721388952297204" lon="-6.316341506623583"><ele>2208.75</ele><time>2026-05-04T11:56:22.999Z</time></trkpt><trkpt lat="31.721333146555473" lon="-6.3161880319165595"><ele>2211.5</ele><time>2026-05-04T11:56:23.999Z</time></trkpt><trkpt lat="31.721251810863507" lon="-6.316051943995538"><ele>2214.25</ele><time>2026-05-04T11:56:24.999Z</time></trkpt><trkpt lat="31.72117235823052" lon="-6.3159152600957045"><ele>2217.0</ele><time>2026-05-04T11:56:25.999Z</time></trkpt><trkpt lat="31.721101175720808" lon="-6.315774466816216"><ele>2209.0</ele><time>2026-05-04T11:56:26.999Z</time></trkpt><trkpt lat="31.72104497385516" lon="-6.3156293577435045"><ele>2201.0</ele><time>2026-05-04T11:56:27.999Z</time></trkpt><trkpt lat="31.72099620113447" lon="-6.315481653916248"><ele>2193.0</ele><time>2026-05-04T11:56:28.999Z</time></trkpt><trkpt lat="31.72093833852459" lon="-6.315342600164589"><ele>2185.0</ele><time>2026-05-04T11:56:29.999Z</time></trkpt><trkpt lat="31.720921111635345" lon="-6.315200601436848"><ele>2185.0</ele><time>2026-05-04T11:56:30.999Z</time></trkpt><trkpt lat="31.720904876009538" lon="-6.315084644065891"><ele>2185.0</ele><time>2026-05-04T11:56:31.999Z</time></trkpt><trkpt lat="31.720913915313965" lon="-6.314975024901892"><ele>2185.0</ele><time>2026-05-04T11:56:32.999Z</time></trkpt><trkpt lat="31.720952123854698" lon="-6.314858813577627"><ele>2185.0</ele><time>2026-05-04T11:56:33.999Z</time></trkpt><trkpt lat="31.72102322027825" lon="-6.314733151904219"><ele>2185.0</ele><time>2026-05-04T11:56:34.999Z</time></trkpt><trkpt lat="31.72110153392864" lon="-6.314597879433195"><ele>2189.25</ele><time>2026-05-04T11:56:35.999Z</time></trkpt><trkpt lat="31.7211599872884" lon="-6.3144456667416025"><ele>2193.5</ele><time>2026-05-04T11:56:36.999Z</time></trkpt><trkpt lat="31.72116573848987" lon="-6.314266302002678"><ele>2197.75</ele><time>2026-05-04T11:56:37.999Z</time></trkpt><trkpt lat="31.721227013011276" lon="-6.314112709981911"><ele>2202.0</ele><time>2026-05-04T11:56:38.999Z</time></trkpt><trkpt lat="31.721266044610967" lon="-6.313956323895416"><ele>2199.0</ele><time>2026-05-04T11:56:39.999Z</time></trkpt><trkpt lat="31.721308803607926" lon="-6.313806969813945"><ele>2196.0</ele><time>2026-05-04T11:56:40.999Z</time></trkpt><trkpt lat="31.721335532511247" lon="-6.313653328193919"><ele>2193.0</ele><time>2026-05-04T11:56:41.999Z</time></trkpt><trkpt lat="31.72134278552234" lon="-6.313499963208188"><ele>2190.0</ele><time>2026-05-04T11:56:42.999Z</time></trkpt><trkpt lat="31.72133984111399" lon="-6.313349433191453"><ele>2190.0</ele><time>2026-05-04T11:56:43.999Z</time></trkpt><trkpt lat="31.721299476205473" lon="-6.313197969551544"><ele>2190.0</ele><time>2026-05-04T11:56:44.999Z</time></trkpt><trkpt lat="31.72126656431622" lon="-6.3130348775447445"><ele>2190.0</ele><time>2026-05-04T11:56:45.999Z</time></trkpt><trkpt lat="31.721245833651565" lon="-6.312863046123568"><ele>2190.0</ele><time>2026-05-04T11:56:46.999Z</time></trkpt><trkpt lat="31.721254757637446" lon="-6.3126933071782485"><ele>2188.5</ele><time>2026-05-04T11:56:47.999Z</time></trkpt><trkpt lat="31.721242046589094" lon="-6.312530329240051"><ele>2187.0</ele><time>2026-05-04T11:56:48.999Z</time></trkpt><trkpt lat="31.721219862554918" lon="-6.312376234383814"><ele>2185.5</ele><time>2026-05-04T11:56:49.999Z</time></trkpt><trkpt lat="31.721193048085524" lon="-6.312240092589599"><ele>2184.0</ele><time>2026-05-04T11:56:50.999Z</time></trkpt><trkpt lat="31.72117731245738" lon="-6.312120024186948"><ele>2181.2</ele><time>2026-05-04T11:56:51.999Z</time></trkpt><trkpt lat="31.72119428212001" lon="-6.3120103842544095"><ele>2178.4</ele><time>2026-05-04T11:56:52.999Z</time></trkpt><trkpt lat="31.721254124885792" lon="-6.311922776692487"><ele>2175.6</ele><time>2026-05-04T11:56:53.999Z</time></trkpt><trkpt lat="31.721342870162378" lon="-6.311846320268449"><ele>2172.8</ele><time>2026-05-04T11:56:54.999Z</time></trkpt><trkpt lat="31.721447371048725" lon="-6.31177066781021"><ele>2170.0</ele><time>2026-05-04T11:56:55.999Z</time></trkpt><trkpt lat="31.72155069902206" lon="-6.311691236687273"><ele>2170.0</ele><time>2026-05-04T11:56:56.999Z</time></trkpt><trkpt lat="31.721632004681183" lon="-6.311593758755042"><ele>2170.0</ele><time>2026-05-04T11:56:57.999Z</time></trkpt><trkpt lat="31.72172452737059" lon="-6.311528226289217"><ele>2170.0</ele><time>2026-05-04T11:56:58.999Z</time></trkpt><trkpt lat="31.72183457341432" lon="-6.311510110777207"><ele>2170.0</ele><time>2026-05-04T11:56:59.999Z</time></trkpt><trkpt lat="31.721927513698205" lon="-6.31157881519557"><ele>2170.0</ele><time>2026-05-04T11:57:00.999Z</time></trkpt><trkpt lat="31.72199255950448" lon="-6.311567753860807"><ele>2170.2</ele><time>2026-05-04T11:57:01.999Z</time></trkpt><trkpt lat="31.722041730999695" lon="-6.311510725782833"><ele>2170.4</ele><time>2026-05-04T11:57:02.999Z</time></trkpt><trkpt lat="31.722065835736252" lon="-6.311414235001631"><ele>2170.6</ele><time>2026-05-04T11:57:03.999Z</time></trkpt><trkpt lat="31.72205529613211" lon="-6.311296513207002"><ele>2170.8</ele><time>2026-05-04T11:57:05Z</time></trkpt><trkpt lat="31.72210052169139" lon="-6.3111784971100935"><ele>2171.0</ele><time>2026-05-04T11:57:06Z</time></trkpt><trkpt lat="31.722169625520095" lon="-6.311070499201153"><ele>2171.0</ele><time>2026-05-04T11:57:07Z</time></trkpt><trkpt lat="31.72226897594925" lon="-6.310995213003187"><ele>2171.0</ele><time>2026-05-04T11:57:08Z</time></trkpt><trkpt lat="31.722369016806333" lon="-6.310945751514093"><ele>2171.0</ele><time>2026-05-04T11:57:09Z</time></trkpt><trkpt lat="31.72243524857397" lon="-6.310873346796262"><ele>2171.0</ele><time>2026-05-04T11:57:10Z</time></trkpt><trkpt lat="31.722501584592518" lon="-6.310822128465959"><ele>2171.0</ele><time>2026-05-04T11:57:11Z</time></trkpt><trkpt lat="31.722526981925967" lon="-6.310752434313341"><ele>2171.0</ele><time>2026-05-04T11:57:12Z</time></trkpt><trkpt lat="31.722514961235323" lon="-6.310652425899433"><ele>2171.0</ele><time>2026-05-04T11:57:14Z</time></trkpt><trkpt lat="31.7223757682542" lon="-6.31068022373994"><ele>2171.0</ele><time>2026-05-04T11:57:16Z</time></trkpt><trkpt lat="31.72232883612493" lon="-6.310787281045583"><ele>2171.0</ele><time>2026-05-04T11:57:17Z</time></trkpt><trkpt lat="31.722236592480513" lon="-6.310854690744614"><ele>2171.0</ele><time>2026-05-04T11:57:18Z</time></trkpt><trkpt lat="31.722148411802184" lon="-6.310953933130792"><ele>2171.0</ele><time>2026-05-04T11:57:19Z</time></trkpt><trkpt lat="31.722058560856457" lon="-6.311042111086034"><ele>2171.0</ele><time>2026-05-04T11:57:20Z</time></trkpt><trkpt lat="31.721966136747255" lon="-6.311132741774234"><ele>2171.0</ele><time>2026-05-04T11:57:21Z</time></trkpt><trkpt lat="31.721870409617498" lon="-6.311248127312284"><ele>2171.0</ele><time>2026-05-04T11:57:22Z</time></trkpt><trkpt lat="31.721770588032726" lon="-6.311370816893973"><ele>2170.6666666666665</ele><time>2026-05-04T11:57:23Z</time></trkpt><trkpt lat="31.72161512170811" lon="-6.3114377225929275"><ele>2170.3333333333335</ele><time>2026-05-04T11:57:24Z</time></trkpt><trkpt lat="31.72148665694753" lon="-6.311526353680738"><ele>2170.0</ele><time>2026-05-04T11:57:25Z</time></trkpt><trkpt lat="31.721351444726597" lon="-6.311606454538796"><ele>2170.0</ele><time>2026-05-04T11:57:26Z</time></trkpt><trkpt lat="31.721202699375933" lon="-6.311676216208184"><ele>2170.0</ele><time>2026-05-04T11:57:27Z</time></trkpt><trkpt lat="31.72104138298987" lon="-6.311733479115503"><ele>2170.0</ele><time>2026-05-04T11:57:28Z</time></trkpt><trkpt lat="31.720873141348434" lon="-6.311777146540142"><ele>2166.3333333333335</ele><time>2026-05-04T11:57:29Z</time></trkpt><trkpt lat="31.720705424685917" lon="-6.311815653082344"><ele>2162.6666666666665</ele><time>2026-05-04T11:57:30Z</time></trkpt><trkpt lat="31.7205426694583" lon="-6.311866235178888"><ele>2159.0</ele><time>2026-05-04T11:57:31Z</time></trkpt><trkpt lat="31.720385050129295" lon="-6.311941689235702"><ele>2159.0</ele><time>2026-05-04T11:57:32Z</time></trkpt><trkpt lat="31.72026744586187" lon="-6.312083797439596"><ele>2159.0</ele><time>2026-05-04T11:57:33Z</time></trkpt><trkpt lat="31.720135449790046" lon="-6.312219818322721"><ele>2159.0</ele><time>2026-05-04T11:57:34Z</time></trkpt><trkpt lat="31.71999666472292" lon="-6.312351743532569"><ele>2155.0</ele><time>2026-05-04T11:57:35Z</time></trkpt><trkpt lat="31.719847963986876" lon="-6.312477334654976"><ele>2151.0</ele><time>2026-05-04T11:57:36Z</time></trkpt><trkpt lat="31.719702573553526" lon="-6.312617696642271"><ele>2147.0</ele><time>2026-05-04T11:57:37Z</time></trkpt><trkpt lat="31.719566979352823" lon="-6.312774393610339"><ele>2147.0</ele><time>2026-05-04T11:57:38Z</time></trkpt><trkpt lat="31.719420667628203" lon="-6.312921955562977"><ele>2147.0</ele><time>2026-05-04T11:57:39Z</time></trkpt><trkpt lat="31.71927004038069" lon="-6.313062222272527"><ele>2147.0</ele><time>2026-05-04T11:57:39.999Z</time></trkpt><trkpt lat="31.719116736543334" lon="-6.313202021209123"><ele>2145.333333333333</ele><time>2026-05-04T11:57:40.999Z</time></trkpt><trkpt lat="31.718963850430804" lon="-6.313341439197403"><ele>2143.6666666666665</ele><time>2026-05-04T11:57:41.999Z</time></trkpt><trkpt lat="31.718820562758566" lon="-6.313479116874177"><ele>2142.0</ele><time>2026-05-04T11:57:42.999Z</time></trkpt><trkpt lat="31.718675790482397" lon="-6.313624016679738"><ele>2140.6666666666665</ele><time>2026-05-04T11:57:43.999Z</time></trkpt><trkpt lat="31.718524655218616" lon="-6.313770914406188"><ele>2139.333333333333</ele><time>2026-05-04T11:57:44.999Z</time></trkpt><trkpt lat="31.71836084779924" lon="-6.3138976968751885"><ele>2138.0</ele><time>2026-05-04T11:57:45.999Z</time></trkpt><trkpt lat="31.718213070199663" lon="-6.314056491618804"><ele>2138.0</ele><time>2026-05-04T11:57:46.999Z</time></trkpt><trkpt lat="31.718057978307254" lon="-6.3141987200324285"><ele>2138.0</ele><time>2026-05-04T11:57:47.999Z</time></trkpt><trkpt lat="31.717902568662588" lon="-6.314343396771554"><ele>2138.0</ele><time>2026-05-04T11:57:48.999Z</time></trkpt><trkpt lat="31.717751370299975" lon="-6.314490414967654"><ele>2136.0</ele><time>2026-05-04T11:57:49.999Z</time></trkpt><trkpt lat="31.717606438111996" lon="-6.314644593987711"><ele>2134.0</ele><time>2026-05-04T11:57:50.999Z</time></trkpt><trkpt lat="31.717475454665788" lon="-6.314811661680836"><ele>2132.0</ele><time>2026-05-04T11:57:51.999Z</time></trkpt><trkpt lat="31.717347593439044" lon="-6.3149901552016905"><ele>2132.0</ele><time>2026-05-04T11:57:52.999Z</time></trkpt><trkpt lat="31.71722639226574" lon="-6.315176872450727"><ele>2132.0</ele><time>2026-05-04T11:57:53.999Z</time></trkpt><trkpt lat="31.7171103952096" lon="-6.315353717721183"><ele>2132.0</ele><time>2026-05-04T11:57:54.999Z</time></trkpt><trkpt lat="31.716996852632235" lon="-6.315528324263255"><ele>2129.0</ele><time>2026-05-04T11:57:55.999Z</time></trkpt><trkpt lat="31.716877918263403" lon="-6.315684943445894"><ele>2126.0</ele><time>2026-05-04T11:57:56.999Z</time></trkpt><trkpt lat="31.716774390992434" lon="-6.315849925528024"><ele>2123.0</ele><time>2026-05-04T11:57:57.999Z</time></trkpt><trkpt lat="31.7166679326903" lon="-6.316011728597085"><ele>2123.0</ele><time>2026-05-04T11:57:58.999Z</time></trkpt><trkpt lat="31.716554935093164" lon="-6.316177941515426"><ele>2123.0</ele><time>2026-05-04T11:57:59.999Z</time></trkpt><trkpt lat="31.716452888540037" lon="-6.316361434686822"><ele>2123.0</ele><time>2026-05-04T11:58:00.999Z</time></trkpt><trkpt lat="31.716340158176727" lon="-6.316538212564878"><ele>2124.0</ele><time>2026-05-04T11:58:01.999Z</time></trkpt><trkpt lat="31.71622932544948" lon="-6.316723453223072"><ele>2125.0</ele><time>2026-05-04T11:58:02.999Z</time></trkpt><trkpt lat="31.71611634728708" lon="-6.316912279720437"><ele>2126.0</ele><time>2026-05-04T11:58:03.999Z</time></trkpt><trkpt lat="31.716001794440686" lon="-6.317096360967591"><ele>2122.333333333333</ele><time>2026-05-04T11:58:04.999Z</time></trkpt><trkpt lat="31.71588443684151" lon="-6.317278394621146"><ele>2118.6666666666665</ele><time>2026-05-04T11:58:05.999Z</time></trkpt><trkpt lat="31.715766889888787" lon="-6.317459889038025"><ele>2115.0</ele><time>2026-05-04T11:58:06.999Z</time></trkpt><trkpt lat="31.71564394838254" lon="-6.317631168382189"><ele>2115.0</ele><time>2026-05-04T11:58:07.999Z</time></trkpt><trkpt lat="31.715539194724485" lon="-6.317813870695368"><ele>2115.0</ele><time>2026-05-04T11:58:08.999Z</time></trkpt><trkpt lat="31.71542694298257" lon="-6.317988846929729"><ele>2115.0</ele><time>2026-05-04T11:58:09.999Z</time></trkpt><trkpt lat="31.715315100426515" lon="-6.318162520041259"><ele>2112.6666666666665</ele><time>2026-05-04T11:58:10.999Z</time></trkpt><trkpt lat="31.715209728160666" lon="-6.3183261098336"><ele>2110.333333333333</ele><time>2026-05-04T11:58:11.999Z</time></trkpt><trkpt lat="31.715103458921657" lon="-6.318491106282935"><ele>2108.0</ele><time>2026-05-04T11:58:12.999Z</time></trkpt><trkpt lat="31.714990558329454" lon="-6.318666362053533"><ele>2108.0</ele><time>2026-05-04T11:58:13.999Z</time></trkpt><trkpt lat="31.71488262870483" lon="-6.318833891299905"><ele>2108.0</ele><time>2026-05-04T11:58:14.999Z</time></trkpt><trkpt lat="31.714773591090353" lon="-6.319003140377226"><ele>2108.0</ele><time>2026-05-04T11:58:15.999Z</time></trkpt><trkpt lat="31.71466504491016" lon="-6.319170477775683"><ele>2107.6666666666665</ele><time>2026-05-04T11:58:16.999Z</time></trkpt><trkpt lat="31.71455843392211" lon="-6.319335708823157"><ele>2107.3333333333335</ele><time>2026-05-04T11:58:17.999Z</time></trkpt><trkpt lat="31.714453870563418" lon="-6.319497779479112"><ele>2107.0</ele><time>2026-05-04T11:58:18.999Z</time></trkpt><trkpt lat="31.714349978377413" lon="-6.319658933029034"><ele>2105.0</ele><time>2026-05-04T11:58:19.999Z</time></trkpt><trkpt lat="31.7142483799957" lon="-6.3198165295992865"><ele>2103.0</ele><time>2026-05-04T11:58:20.999Z</time></trkpt><trkpt lat="31.71414615936348" lon="-6.319974387054502"><ele>2101.0</ele><time>2026-05-04T11:58:21.999Z</time></trkpt><trkpt lat="31.71404208439037" lon="-6.320136886274656"><ele>2101.0</ele><time>2026-05-04T11:58:22.999Z</time></trkpt><trkpt lat="31.713929820865527" lon="-6.320307244113554"><ele>2101.0</ele><time>2026-05-04T11:58:23.999Z</time></trkpt><trkpt lat="31.7138157148947" lon="-6.32047288528524"><ele>2101.0</ele><time>2026-05-04T11:58:24.999Z</time></trkpt><trkpt lat="31.71370132804693" lon="-6.320639833921275"><ele>2103.3333333333335</ele><time>2026-05-04T11:58:25.999Z</time></trkpt><trkpt lat="31.713587154797953" lon="-6.320806420516597"><ele>2105.6666666666665</ele><time>2026-05-04T11:58:26.999Z</time></trkpt><trkpt lat="31.713462935709575" lon="-6.320962631974145"><ele>2108.0</ele><time>2026-05-04T11:58:27.999Z</time></trkpt><trkpt lat="31.713355311515276" lon="-6.32113064719864"><ele>2105.0</ele><time>2026-05-04T11:58:28.999Z</time></trkpt><trkpt lat="31.713252416124785" lon="-6.32130530488737"><ele>2102.0</ele><time>2026-05-04T11:58:29.999Z</time></trkpt><trkpt lat="31.713140927813487" lon="-6.321475719328408"><ele>2099.0</ele><time>2026-05-04T11:58:30.999Z</time></trkpt><trkpt lat="31.713030999247774" lon="-6.32164588691467"><ele>2099.0</ele><time>2026-05-04T11:58:31.999Z</time></trkpt><trkpt lat="31.71292206139678" lon="-6.3218160855385905"><ele>2099.0</ele><time>2026-05-04T11:58:32.999Z</time></trkpt><trkpt lat="31.712816981980886" lon="-6.321985641771844"><ele>2099.0</ele><time>2026-05-04T11:58:33.999Z</time></trkpt><trkpt lat="31.712708859516493" lon="-6.322160108236641"><ele>2094.0</ele><time>2026-05-04T11:58:34.999Z</time></trkpt><trkpt lat="31.712614142001858" lon="-6.322340566143512"><ele>2089.0</ele><time>2026-05-04T11:58:35.999Z</time></trkpt><trkpt lat="31.71251798582354" lon="-6.322531600529357"><ele>2084.0</ele><time>2026-05-04T11:58:36.999Z</time></trkpt><trkpt lat="31.712444413408324" lon="-6.322726847220885"><ele>2084.0</ele><time>2026-05-04T11:58:37.999Z</time></trkpt><trkpt lat="31.712370822963532" lon="-6.322930367633068"><ele>2084.0</ele><time>2026-05-04T11:58:38.999Z</time></trkpt><trkpt lat="31.712307377892458" lon="-6.323130338574692"><ele>2084.0</ele><time>2026-05-04T11:58:39.999Z</time></trkpt><trkpt lat="31.712255156615697" lon="-6.323327845275141"><ele>2084.6666666666665</ele><time>2026-05-04T11:58:40.999Z</time></trkpt><trkpt lat="31.712188514424184" lon="-6.323515196088243"><ele>2085.3333333333335</ele><time>2026-05-04T11:58:41.999Z</time></trkpt><trkpt lat="31.712100970392985" lon="-6.323682577478964"><ele>2086.0</ele><time>2026-05-04T11:58:42.999Z</time></trkpt><trkpt lat="31.71203214148115" lon="-6.323828201111511"><ele>2086.5</ele><time>2026-05-04T11:58:43.999Z</time></trkpt><trkpt lat="31.711962712350825" lon="-6.323937353639921"><ele>2087.0</ele><time>2026-05-04T11:58:44.999Z</time></trkpt><trkpt lat="31.711887506232227" lon="-6.324045563921171"><ele>2087.5</ele><time>2026-05-04T11:58:45.999Z</time></trkpt><trkpt lat="31.711804753862776" lon="-6.324152488605787"><ele>2088.0</ele><time>2026-05-04T11:58:46.999Z</time></trkpt><trkpt lat="31.711695588664547" lon="-6.324253075145792"><ele>2085.25</ele><time>2026-05-04T11:58:47.999Z</time></trkpt><trkpt lat="31.711584092566383" lon="-6.324354561082521"><ele>2082.5</ele><time>2026-05-04T11:58:48.999Z</time></trkpt><trkpt lat="31.71147082410459" lon="-6.324455565475"><ele>2079.75</ele><time>2026-05-04T11:58:49.999Z</time></trkpt><trkpt lat="31.711350887656636" lon="-6.3245627503188055"><ele>2077.0</ele><time>2026-05-04T11:58:50.999Z</time></trkpt><trkpt lat="31.7112285956677" lon="-6.324672229156476"><ele>2076.666666666667</ele><time>2026-05-04T11:58:51.999Z</time></trkpt><trkpt lat="31.711102774773618" lon="-6.32478766276008"><ele>2076.3333333333335</ele><time>2026-05-04T11:58:52.999Z</time></trkpt><trkpt lat="31.71097599539132" lon="-6.324913387435189"><ele>2076.0</ele><time>2026-05-04T11:58:53.999Z</time></trkpt><trkpt lat="31.710850878619407" lon="-6.325037079643607"><ele>2076.0</ele><time>2026-05-04T11:58:54.999Z</time></trkpt><trkpt lat="31.71075801990861" lon="-6.3251719389699606"><ele>2076.0</ele><time>2026-05-04T11:58:55.999Z</time></trkpt><trkpt lat="31.710678345934024" lon="-6.325302974133987"><ele>2076.0</ele><time>2026-05-04T11:58:56.999Z</time></trkpt><trkpt lat="31.71061228248208" lon="-6.325420104692882"><ele>2076.0</ele><time>2026-05-04T11:58:57.999Z</time></trkpt><trkpt lat="31.710606687563796" lon="-6.32553928095889"><ele>2076.2</ele><time>2026-05-04T11:58:58.999Z</time></trkpt><trkpt lat="31.710603634524816" lon="-6.325653405860571"><ele>2076.3999999999996</ele><time>2026-05-04T11:58:59.999Z</time></trkpt><trkpt lat="31.71063881887906" lon="-6.325759820438291"><ele>2076.6</ele><time>2026-05-04T11:59:00.999Z</time></trkpt><trkpt lat="31.710694986873875" lon="-6.32585317380535"><ele>2076.7999999999997</ele><time>2026-05-04T11:59:01.999Z</time></trkpt><trkpt lat="31.71079041332075" lon="-6.3259150189445235"><ele>2077.0</ele><time>2026-05-04T11:59:02.999Z</time></trkpt><trkpt lat="31.710895941248996" lon="-6.325934924412187"><ele>2077.0</ele><time>2026-05-04T11:59:03.999Z</time></trkpt><trkpt lat="31.710981846933738" lon="-6.325980725881286"><ele>2077.0</ele><time>2026-05-04T11:59:04.999Z</time></trkpt><trkpt lat="31.71106432070259" lon="-6.326000749820078"><ele>2077.0</ele><time>2026-05-04T11:59:05.999Z</time></trkpt><trkpt lat="31.711183888990945" lon="-6.326099246213602"><ele>2077.0</ele><time>2026-05-04T11:59:07.999Z</time></trkpt><trkpt lat="31.711208082478137" lon="-6.3262018152501085"><ele>2077.0</ele><time>2026-05-04T11:59:08.999Z</time></trkpt><trkpt lat="31.71119079613159" lon="-6.326300315762123"><ele>2077.0</ele><time>2026-05-04T11:59:10Z</time></trkpt><trkpt lat="31.711090763586707" lon="-6.326368443352225"><ele>2077.0</ele><time>2026-05-04T11:59:11Z</time></trkpt><trkpt lat="31.71100369230306" lon="-6.326333930393019"><ele>2077.0</ele><time>2026-05-04T11:59:12Z</time></trkpt><trkpt lat="31.710934473391944" lon="-6.326333738815262"><ele>2077.0</ele><time>2026-05-04T11:59:13Z</time></trkpt><trkpt lat="31.710843609531608" lon="-6.326335946487674"><ele>2077.0</ele><time>2026-05-04T11:59:14Z</time></trkpt><trkpt lat="31.710742437728026" lon="-6.32634784999117"><ele>2077.0</ele><time>2026-05-04T11:59:15Z</time></trkpt><trkpt lat="31.71064758262592" lon="-6.326373476199738"><ele>2077.0</ele><time>2026-05-04T11:59:16Z</time></trkpt><trkpt lat="31.710548156049192" lon="-6.326425789161688"><ele>2077.0</ele><time>2026-05-04T11:59:17Z</time></trkpt><trkpt lat="31.710456434413743" lon="-6.326516979119965"><ele>2077.0</ele><time>2026-05-04T11:59:18Z</time></trkpt><trkpt lat="31.710356554086104" lon="-6.326600545664544"><ele>2077.0</ele><time>2026-05-04T11:59:19Z</time></trkpt><trkpt lat="31.710255169556973" lon="-6.326678244279136"><ele>2076.25</ele><time>2026-05-04T11:59:20Z</time></trkpt><trkpt lat="31.71013762340069" lon="-6.326736780287668"><ele>2075.5</ele><time>2026-05-04T11:59:21Z</time></trkpt><trkpt lat="31.710018799439297" lon="-6.326800187881622"><ele>2074.75</ele><time>2026-05-04T11:59:22Z</time></trkpt><trkpt lat="31.70989885651943" lon="-6.326858984745889"><ele>2074.0</ele><time>2026-05-04T11:59:23Z</time></trkpt><trkpt lat="31.70979851329637" lon="-6.326940710060345"><ele>2074.0</ele><time>2026-05-04T11:59:24Z</time></trkpt><trkpt lat="31.709705491806382" lon="-6.327028791368782"><ele>2074.0</ele><time>2026-05-04T11:59:25Z</time></trkpt><trkpt lat="31.70961060998336" lon="-6.327126972187629"><ele>2074.0</ele><time>2026-05-04T11:59:26Z</time></trkpt><trkpt lat="31.7095145572923" lon="-6.327226364639532"><ele>2074.0</ele><time>2026-05-04T11:59:27Z</time></trkpt><trkpt lat="31.70942206336607" lon="-6.327323785840729"><ele>2073.4</ele><time>2026-05-04T11:59:28Z</time></trkpt><trkpt lat="31.709335003180154" lon="-6.327419272941427"><ele>2072.8</ele><time>2026-05-04T11:59:29Z</time></trkpt><trkpt lat="31.709243117468798" lon="-6.3275050574957366"><ele>2072.2</ele><time>2026-05-04T11:59:30Z</time></trkpt><trkpt lat="31.709148125046195" lon="-6.327567148361218"><ele>2071.6</ele><time>2026-05-04T11:59:31Z</time></trkpt><trkpt lat="31.70906101866576" lon="-6.327633051293906"><ele>2071.0</ele><time>2026-05-04T11:59:32Z</time></trkpt><trkpt lat="31.708970226180412" lon="-6.327683178918806"><ele>2071.0</ele><time>2026-05-04T11:59:33Z</time></trkpt><trkpt lat="31.70887787490246" lon="-6.327721893236219"><ele>2071.0</ele><time>2026-05-04T11:59:33.999Z</time></trkpt><trkpt lat="31.708781360941007" lon="-6.327746638965496"><ele>2071.0</ele><time>2026-05-04T11:59:34.999Z</time></trkpt><trkpt lat="31.70867805520487" lon="-6.327752862079544"><ele>2071.0</ele><time>2026-05-04T11:59:35.999Z</time></trkpt><trkpt lat="31.708575122659116" lon="-6.327793454178744"><ele>2071.0</ele><time>2026-05-04T11:59:36.999Z</time></trkpt><trkpt lat="31.70846790254033" lon="-6.327815773300966"><ele>2069.2</ele><time>2026-05-04T11:59:37.999Z</time></trkpt><trkpt lat="31.708367612392287" lon="-6.327849893582101"><ele>2067.3999999999996</ele><time>2026-05-04T11:59:38.999Z</time></trkpt><trkpt lat="31.708271223965212" lon="-6.327884285704401"><ele>2065.6</ele><time>2026-05-04T11:59:39.999Z</time></trkpt><trkpt lat="31.70818798932661" lon="-6.327925173042265"><ele>2063.7999999999997</ele><time>2026-05-04T11:59:40.999Z</time></trkpt><trkpt lat="31.70811361388115" lon="-6.32796226696493"><ele>2062.0</ele><time>2026-05-04T11:59:41.999Z</time></trkpt><trkpt lat="31.70804256006974" lon="-6.327997788221352"><ele>2062.0</ele><time>2026-05-04T11:59:42.999Z</time></trkpt><trkpt lat="31.707997852864704" lon="-6.3280555598122366"><ele>2062.0</ele><time>2026-05-04T11:59:43.999Z</time></trkpt><trkpt lat="31.7079682441577" lon="-6.328138661531309"><ele>2062.0</ele><time>2026-05-04T11:59:44.999Z</time></trkpt><trkpt lat="31.707985303180784" lon="-6.32823802710689"><ele>2062.0</ele><time>2026-05-04T11:59:45.999Z</time></trkpt><trkpt lat="31.708003394040855" lon="-6.328345588745383"><ele>2062.0</ele><time>2026-05-04T11:59:46.999Z</time></trkpt><trkpt lat="31.708020903565593" lon="-6.328451402407718"><ele>2062.0</ele><time>2026-05-04T11:59:47.999Z</time></trkpt><trkpt lat="31.708038110132126" lon="-6.328554757668249"><ele>2063.666666666667</ele><time>2026-05-04T11:59:48.999Z</time></trkpt><trkpt lat="31.708054864973974" lon="-6.328654473879149"><ele>2065.3333333333335</ele><time>2026-05-04T11:59:49.999Z</time></trkpt><trkpt lat="31.7080711242251" lon="-6.328750648472715"><ele>2067.0</ele><time>2026-05-04T11:59:50.999Z</time></trkpt><trkpt lat="31.708085937830262" lon="-6.3288397713229925"><ele>2068.6666666666665</ele><time>2026-05-04T11:59:51.999Z</time></trkpt><trkpt lat="31.708100257267667" lon="-6.328926901696692"><ele>2070.333333333333</ele><time>2026-05-04T11:59:52.999Z</time></trkpt><trkpt lat="31.708117494593488" lon="-6.329021559066463"><ele>2072.0</ele><time>2026-05-04T11:59:53.999Z</time></trkpt><trkpt lat="31.708135535837453" lon="-6.329120631293379"><ele>2072.0</ele><time>2026-05-04T11:59:54.999Z</time></trkpt><trkpt lat="31.708154330380378" lon="-6.329224195496149"><ele>2072.0</ele><time>2026-05-04T11:59:55.999Z</time></trkpt><trkpt lat="31.708174064318957" lon="-6.329340686939105"><ele>2072.0</ele><time>2026-05-04T11:59:56.999Z</time></trkpt><trkpt lat="31.708189181407835" lon="-6.3294609298810744"><ele>2072.0</ele><time>2026-05-04T11:59:57.999Z</time></trkpt><trkpt lat="31.70819543229912" lon="-6.329577308290703"><ele>2072.0</ele><time>2026-05-04T11:59:58.999Z</time></trkpt><trkpt lat="31.708192995181633" lon="-6.3296840181756115"><ele>2071.333333333333</ele><time>2026-05-04T11:59:59.999Z</time></trkpt><trkpt lat="31.708186749178772" lon="-6.329783226481698"><ele>2070.6666666666665</ele><time>2026-05-04T12:00:00.999Z</time></trkpt><trkpt lat="31.708172093690102" lon="-6.3298809574279895"><ele>2070.0</ele><time>2026-05-04T12:00:01.999Z</time></trkpt><trkpt lat="31.708158346987357" lon="-6.329969250692956"><ele>2069.3333333333335</ele><time>2026-05-04T12:00:02.999Z</time></trkpt><trkpt lat="31.708146060383363" lon="-6.330049785903551"><ele>2068.666666666667</ele><time>2026-05-04T12:00:03.999Z</time></trkpt><trkpt lat="31.708128904034666" lon="-6.330186158793037"><ele>2068.0</ele><time>2026-05-04T12:00:05.999Z</time></trkpt><trkpt lat="31.70811424194759" lon="-6.330307690449075"><ele>2068.0</ele><time>2026-05-04T12:00:07.999Z</time></trkpt><trkpt lat="31.7081022064566" lon="-6.330404713362508"><ele>2068.0</ele><time>2026-05-04T12:00:09.999Z</time></trkpt><trkpt lat="31.708092279915203" lon="-6.330482782266262"><ele>2068.0</ele><time>2026-05-04T12:00:11.999Z</time></trkpt><trkpt lat="31.708080912375816" lon="-6.330591748731908"><ele>2068.0</ele><time>2026-05-04T12:00:14.999Z</time></trkpt><trkpt lat="31.708074005775444" lon="-6.33067313461518"><ele>2068.0</ele><time>2026-05-04T12:00:16.999Z</time></trkpt><trkpt lat="31.708067185263715" lon="-6.33075350688302"><ele>2068.0</ele><time>2026-05-04T12:00:18.999Z</time></trkpt><trkpt lat="31.70808901142435" lon="-6.330830525122187"><ele>2068.0</ele><time>2026-05-04T12:00:20.999Z</time></trkpt><trkpt lat="31.70811089673987" lon="-6.33095654869019"><ele>2068.0</ele><time>2026-05-04T12:00:22.999Z</time></trkpt><trkpt lat="31.70813327534812" lon="-6.331038563918225"><ele>2068.0</ele><time>2026-05-04T12:00:23.999Z</time></trkpt><trkpt lat="31.70815920615325" lon="-6.331128674762213"><ele>2068.0</ele><time>2026-05-04T12:00:24.999Z</time></trkpt><trkpt lat="31.708193238491926" lon="-6.331234987840525"><ele>2068.0</ele><time>2026-05-04T12:00:25.999Z</time></trkpt><trkpt lat="31.7082267896596" lon="-6.331340281950781"><ele>2066.75</ele><time>2026-05-04T12:00:26.999Z</time></trkpt><trkpt lat="31.708242262972202" lon="-6.331470496563943"><ele>2065.5</ele><time>2026-05-04T12:00:27.999Z</time></trkpt><trkpt lat="31.70827492215569" lon="-6.331607103542333"><ele>2064.25</ele><time>2026-05-04T12:00:28.999Z</time></trkpt><trkpt lat="31.708305651042735" lon="-6.3317356362188315"><ele>2063.0</ele><time>2026-05-04T12:00:29.999Z</time></trkpt><trkpt lat="31.70834028967686" lon="-6.331850841171992"><ele>2063.0</ele><time>2026-05-04T12:00:30.999Z</time></trkpt><trkpt lat="31.708376764637382" lon="-6.331966090629128"><ele>2063.0</ele><time>2026-05-04T12:00:31.999Z</time></trkpt><trkpt lat="31.70841437672923" lon="-6.332084790208516"><ele>2063.0</ele><time>2026-05-04T12:00:32.999Z</time></trkpt><trkpt lat="31.708441888483755" lon="-6.332211077391645"><ele>2063.0</ele><time>2026-05-04T12:00:33.999Z</time></trkpt><trkpt lat="31.70846587475057" lon="-6.332342055297367"><ele>2063.0</ele><time>2026-05-04T12:00:34.999Z</time></trkpt><trkpt lat="31.708478888648703" lon="-6.332472727071773"><ele>2062.6</ele><time>2026-05-04T12:00:35.999Z</time></trkpt><trkpt lat="31.70849121318257" lon="-6.332600951035554"><ele>2062.2000000000003</ele><time>2026-05-04T12:00:36.999Z</time></trkpt><trkpt lat="31.708502925011086" lon="-6.332718522468948"><ele>2061.8</ele><time>2026-05-04T12:00:37.999Z</time></trkpt><trkpt lat="31.708514600697573" lon="-6.332835279373393"><ele>2061.4</ele><time>2026-05-04T12:00:38.999Z</time></trkpt><trkpt lat="31.708526126115423" lon="-6.3329505974264855"><ele>2061.0</ele><time>2026-05-04T12:00:39.999Z</time></trkpt><trkpt lat="31.708537503647918" lon="-6.333065217306551"><ele>2060.8333333333335</ele><time>2026-05-04T12:00:40.999Z</time></trkpt><trkpt lat="31.70854829308391" lon="-6.333173912667752"><ele>2060.6666666666665</ele><time>2026-05-04T12:00:41.999Z</time></trkpt><trkpt lat="31.708550081911536" lon="-6.333278949159889"><ele>2060.5</ele><time>2026-05-04T12:00:42.999Z</time></trkpt><trkpt lat="31.708551657645796" lon="-6.33337006153261"><ele>2060.333333333333</ele><time>2026-05-04T12:00:43.999Z</time></trkpt><trkpt lat="31.708552779033973" lon="-6.3334609387014265"><ele>2060.1666666666665</ele><time>2026-05-04T12:00:44.999Z</time></trkpt><trkpt lat="31.708549007888312" lon="-6.333552882686794"><ele>2060.0</ele><time>2026-05-04T12:00:45.999Z</time></trkpt><trkpt lat="31.708545134786018" lon="-6.3336458371782465"><ele>2060.0</ele><time>2026-05-04T12:00:46.999Z</time></trkpt><trkpt lat="31.70854111250489" lon="-6.333741359216855"><ele>2060.0</ele><time>2026-05-04T12:00:47.999Z</time></trkpt><trkpt lat="31.708531433837173" lon="-6.333841585579359"><ele>2060.0</ele><time>2026-05-04T12:00:48.999Z</time></trkpt><trkpt lat="31.708518862198048" lon="-6.333938629729001"><ele>2060.0</ele><time>2026-05-04T12:00:49.999Z</time></trkpt><trkpt lat="31.708506504229103" lon="-6.334034025169509"><ele>2060.0</ele><time>2026-05-04T12:00:50.999Z</time></trkpt><trkpt lat="31.708469877902985" lon="-6.33413181283697"><ele>2060.0</ele><time>2026-05-04T12:00:51.999Z</time></trkpt><trkpt lat="31.708439834765784" lon="-6.334225689882233"><ele>2059.6666666666665</ele><time>2026-05-04T12:00:52.999Z</time></trkpt><trkpt lat="31.70841070541715" lon="-6.33431673644764"><ele>2059.333333333333</ele><time>2026-05-04T12:00:53.999Z</time></trkpt><trkpt lat="31.70838154871598" lon="-6.334408241963255"><ele>2059.0</ele><time>2026-05-04T12:00:54.999Z</time></trkpt><trkpt lat="31.70835458423442" lon="-6.334500603753488"><ele>2058.6666666666665</ele><time>2026-05-04T12:00:55.999Z</time></trkpt><trkpt lat="31.708332169384384" lon="-6.334596071547223"><ele>2058.3333333333335</ele><time>2026-05-04T12:00:56.999Z</time></trkpt><trkpt lat="31.70832949007488" lon="-6.334687220346799"><ele>2058.0</ele><time>2026-05-04T12:00:57.999Z</time></trkpt><trkpt lat="31.708325427565832" lon="-6.3347661749163855"><ele>2057.5</ele><time>2026-05-04T12:00:58.999Z</time></trkpt><trkpt lat="31.70834388632541" lon="-6.334837634223498"><ele>2057.0</ele><time>2026-05-04T12:00:59.999Z</time></trkpt><trkpt lat="31.708337633964977" lon="-6.3349424395135525"><ele>2056.5</ele><time>2026-05-04T12:01:01.999Z</time></trkpt><trkpt lat="31.7083318707628" lon="-6.335051369060972"><ele>2056.0</ele><time>2026-05-04T12:01:03.999Z</time></trkpt><trkpt lat="31.708320199860022" lon="-6.335196582791254"><ele>2055.5</ele><time>2026-05-04T12:01:05.999Z</time></trkpt><trkpt lat="31.70831106237947" lon="-6.335278241262659"><ele>2055.0</ele><time>2026-05-04T12:01:06.999Z</time></trkpt><trkpt lat="31.70828010897879" lon="-6.335352263682982"><ele>2055.0</ele><time>2026-05-04T12:01:07.999Z</time></trkpt><trkpt lat="31.708248059430762" lon="-6.335438800280015"><ele>2055.0</ele><time>2026-05-04T12:01:08.999Z</time></trkpt><trkpt lat="31.708166666162633" lon="-6.335487581808734"><ele>2055.0</ele><time>2026-05-04T12:01:09.999Z</time></trkpt><trkpt lat="31.70808719698448" lon="-6.335500487247299"><ele>2055.0</ele><time>2026-05-04T12:01:10.999Z</time></trkpt><trkpt lat="31.7079711075597" lon="-6.335513715588974"><ele>2055.0</ele><time>2026-05-04T12:01:12.999Z</time></trkpt><trkpt lat="31.707900097077314" lon="-6.335553515399134"><ele>2055.0</ele><time>2026-05-04T12:01:14.999Z</time></trkpt><trkpt lat="31.707827812908874" lon="-6.335667656044977"><ele>2055.3333333333335</ele><time>2026-05-04T12:01:16.999Z</time></trkpt><trkpt lat="31.70778124574953" lon="-6.33574635375229"><ele>2055.6666666666665</ele><time>2026-05-04T12:01:17.999Z</time></trkpt><trkpt lat="31.707748684304445" lon="-6.33584622217254"><ele>2056.0</ele><time>2026-05-04T12:01:18.999Z</time></trkpt><trkpt lat="31.707727896385492" lon="-6.3359414733380985"><ele>2056.333333333333</ele><time>2026-05-04T12:01:19.999Z</time></trkpt><trkpt lat="31.707717863403417" lon="-6.336048246945305"><ele>2056.6666666666665</ele><time>2026-05-04T12:01:20.999Z</time></trkpt><trkpt lat="31.70771333316628" lon="-6.336145385412088"><ele>2057.0</ele><time>2026-05-04T12:01:21.999Z</time></trkpt><trkpt lat="31.707711822952742" lon="-6.3362319179546365"><ele>2057.428571428571</ele><time>2026-05-04T12:01:22.999Z</time></trkpt><trkpt lat="31.707717412335636" lon="-6.336316498944436"><ele>2057.8571428571427</ele><time>2026-05-04T12:01:23.999Z</time></trkpt><trkpt lat="31.707725714136654" lon="-6.336399976446596"><ele>2058.285714285714</ele><time>2026-05-04T12:01:24.999Z</time></trkpt><trkpt lat="31.707733867153895" lon="-6.336478668721503"><ele>2058.7142857142853</ele><time>2026-05-04T12:01:25.999Z</time></trkpt><trkpt lat="31.707741017282025" lon="-6.336565564973961"><ele>2059.142857142857</ele><time>2026-05-04T12:01:26.999Z</time></trkpt><trkpt lat="31.707746955882687" lon="-6.336654542837368"><ele>2059.5714285714284</ele><time>2026-05-04T12:01:27.999Z</time></trkpt><trkpt lat="31.707757052739836" lon="-6.33675319071554"><ele>2060.0</ele><time>2026-05-04T12:01:28.999Z</time></trkpt><trkpt lat="31.70776956079161" lon="-6.336854525152492"><ele>2060.0</ele><time>2026-05-04T12:01:29.999Z</time></trkpt><trkpt lat="31.707787377343546" lon="-6.336963235672278"><ele>2060.0</ele><time>2026-05-04T12:01:30.999Z</time></trkpt><trkpt lat="31.707807211814846" lon="-6.337081006275801"><ele>2060.0</ele><time>2026-05-04T12:01:31.999Z</time></trkpt><trkpt lat="31.707827176331453" lon="-6.337199768287828"><ele>2060.0</ele><time>2026-05-04T12:01:32.999Z</time></trkpt><trkpt lat="31.70784461899836" lon="-6.337322624167116"><ele>2060.0</ele><time>2026-05-04T12:01:33.999Z</time></trkpt><trkpt lat="31.707862686091495" lon="-6.337450417631099"><ele>2060.4</ele><time>2026-05-04T12:01:34.999Z</time></trkpt><trkpt lat="31.707876586938923" lon="-6.337570579370485"><ele>2060.8</ele><time>2026-05-04T12:01:35.999Z</time></trkpt><trkpt lat="31.707890361432842" lon="-6.337687240623804"><ele>2061.2</ele><time>2026-05-04T12:01:36.999Z</time></trkpt><trkpt lat="31.707899518706338" lon="-6.337800187318422"><ele>2061.6</ele><time>2026-05-04T12:01:37.999Z</time></trkpt><trkpt lat="31.707888089266522" lon="-6.337906667617657"><ele>2062.0</ele><time>2026-05-04T12:01:38.999Z</time></trkpt><trkpt lat="31.707865993902995" lon="-6.338009620692503"><ele>2062.166666666667</ele><time>2026-05-04T12:01:39.999Z</time></trkpt><trkpt lat="31.707854825675025" lon="-6.338110201035551"><ele>2062.3333333333335</ele><time>2026-05-04T12:01:40.999Z</time></trkpt><trkpt lat="31.707845746436245" lon="-6.338205036825358"><ele>2062.5</ele><time>2026-05-04T12:01:41.999Z</time></trkpt><trkpt lat="31.707825921296237" lon="-6.338291866454467"><ele>2062.6666666666665</ele><time>2026-05-04T12:01:42.999Z</time></trkpt><trkpt lat="31.707795403242717" lon="-6.338384060266054"><ele>2062.833333333333</ele><time>2026-05-04T12:01:43.999Z</time></trkpt><trkpt lat="31.707759376331957" lon="-6.338471403794822"><ele>2063.0</ele><time>2026-05-04T12:01:44.999Z</time></trkpt><trkpt lat="31.707741482667853" lon="-6.338569238079722"><ele>2061.0</ele><time>2026-05-04T12:01:45.999Z</time></trkpt><trkpt lat="31.70769938486435" lon="-6.338663337210906"><ele>2059.0</ele><time>2026-05-04T12:01:46.999Z</time></trkpt><trkpt lat="31.707656132409465" lon="-6.338755178800179"><ele>2057.0</ele><time>2026-05-04T12:01:47.999Z</time></trkpt><trkpt lat="31.70761688110451" lon="-6.338837187227096"><ele>2055.0</ele><time>2026-05-04T12:01:48.999Z</time></trkpt><trkpt lat="31.707582881666763" lon="-6.338908223435347"><ele>2053.0</ele><time>2026-05-04T12:01:49.999Z</time></trkpt><trkpt lat="31.707540918118642" lon="-6.338974062963436"><ele>2051.0</ele><time>2026-05-04T12:01:50.999Z</time></trkpt><trkpt lat="31.707502222559253" lon="-6.339034969786851"><ele>2051.0</ele><time>2026-05-04T12:01:51.999Z</time></trkpt><trkpt lat="31.70744654615234" lon="-6.3390908752346204"><ele>2051.0</ele><time>2026-05-04T12:01:52.999Z</time></trkpt><trkpt lat="31.707406500294354" lon="-6.339169299326262"><ele>2051.0</ele><time>2026-05-04T12:01:53.999Z</time></trkpt><trkpt lat="31.707361578257434" lon="-6.339257703615231"><ele>2051.0</ele><time>2026-05-04T12:01:54.999Z</time></trkpt><trkpt lat="31.707306441318426" lon="-6.339348303546662"><ele>2051.0</ele><time>2026-05-04T12:01:55.999Z</time></trkpt><trkpt lat="31.707250674013107" lon="-6.339448146566925"><ele>2051.0</ele><time>2026-05-04T12:01:56.999Z</time></trkpt><trkpt lat="31.70719215594557" lon="-6.339556931063701"><ele>2051.0</ele><time>2026-05-04T12:01:57.999Z</time></trkpt><trkpt lat="31.707149738608866" lon="-6.339687149081936"><ele>2051.0</ele><time>2026-05-04T12:01:58.999Z</time></trkpt><trkpt lat="31.70709387317971" lon="-6.33981763062061"><ele>2051.0</ele><time>2026-05-04T12:01:59.999Z</time></trkpt><trkpt lat="31.70704829415877" lon="-6.33995591677952"><ele>2051.0</ele><time>2026-05-04T12:02:00.999Z</time></trkpt><trkpt lat="31.707033288037167" lon="-6.340102158970123"><ele>2051.2</ele><time>2026-05-04T12:02:01.999Z</time></trkpt><trkpt lat="31.7070223897718" lon="-6.3402378490563995"><ele>2051.3999999999996</ele><time>2026-05-04T12:02:02.999Z</time></trkpt><trkpt lat="31.707020963399273" lon="-6.340356463752478"><ele>2051.6</ele><time>2026-05-04T12:02:03.999Z</time></trkpt><trkpt lat="31.707017243523815" lon="-6.340480597909848"><ele>2051.7999999999997</ele><time>2026-05-04T12:02:04.999Z</time></trkpt><trkpt lat="31.70700018327042" lon="-6.340620315048204"><ele>2052.0</ele><time>2026-05-04T12:02:05.999Z</time></trkpt><trkpt lat="31.70700437365441" lon="-6.340761058274167"><ele>2052.25</ele><time>2026-05-04T12:02:06.999Z</time></trkpt><trkpt lat="31.707011192182936" lon="-6.340901501786982"><ele>2052.5</ele><time>2026-05-04T12:02:07.999Z</time></trkpt><trkpt lat="31.706991186553942" lon="-6.341047784348674"><ele>2052.75</ele><time>2026-05-04T12:02:08.999Z</time></trkpt><trkpt lat="31.706964183361777" lon="-6.341197941662183"><ele>2053.0</ele><time>2026-05-04T12:02:09.999Z</time></trkpt><trkpt lat="31.706942303138725" lon="-6.341351929714712"><ele>2052.0</ele><time>2026-05-04T12:02:10.999Z</time></trkpt><trkpt lat="31.706950033313365" lon="-6.341512328575057"><ele>2051.0</ele><time>2026-05-04T12:02:11.999Z</time></trkpt><trkpt lat="31.70693424906838" lon="-6.34167482456267"><ele>2050.0</ele><time>2026-05-04T12:02:12.999Z</time></trkpt><trkpt lat="31.706930110322823" lon="-6.341840772302005"><ele>2049.0</ele><time>2026-05-04T12:02:13.999Z</time></trkpt><trkpt lat="31.706928185823287" lon="-6.342013733242565"><ele>2049.0</ele><time>2026-05-04T12:02:14.999Z</time></trkpt><trkpt lat="31.70692583849403" lon="-6.342195223005824"><ele>2049.0</ele><time>2026-05-04T12:02:15.999Z</time></trkpt><trkpt lat="31.706922845123625" lon="-6.342376225527686"><ele>2049.0</ele><time>2026-05-04T12:02:16.999Z</time></trkpt><trkpt lat="31.706920435836608" lon="-6.342555753891586"><ele>2048.5</ele><time>2026-05-04T12:02:17.999Z</time></trkpt><trkpt lat="31.706911407099046" lon="-6.3427272199989435"><ele>2048.0</ele><time>2026-05-04T12:02:18.999Z</time></trkpt><trkpt lat="31.706925519255524" lon="-6.34289498345451"><ele>2047.5</ele><time>2026-05-04T12:02:19.999Z</time></trkpt><trkpt lat="31.7069231647107" lon="-6.3430700642850795"><ele>2047.0</ele><time>2026-05-04T12:02:20.999Z</time></trkpt><trkpt lat="31.70690360606954" lon="-6.343253092070027"><ele>2041.6666666666667</ele><time>2026-05-04T12:02:21.999Z</time></trkpt><trkpt lat="31.706905278991787" lon="-6.343441957600537"><ele>2036.3333333333335</ele><time>2026-05-04T12:02:22.999Z</time></trkpt><trkpt lat="31.706900089941183" lon="-6.34363318179026"><ele>2031.0</ele><time>2026-05-04T12:02:23.999Z</time></trkpt><trkpt lat="31.70688107914169" lon="-6.343826039240509"><ele>2032.3333333333335</ele><time>2026-05-04T12:02:24.999Z</time></trkpt><trkpt lat="31.706886026831736" lon="-6.34401137990817"><ele>2033.6666666666667</ele><time>2026-05-04T12:02:25.999Z</time></trkpt><trkpt lat="31.706880180720997" lon="-6.344192343962976"><ele>2035.0</ele><time>2026-05-04T12:02:26.999Z</time></trkpt><trkpt lat="31.70688220122782" lon="-6.3443759911206135"><ele>2035.0</ele><time>2026-05-04T12:02:27.999Z</time></trkpt><trkpt lat="31.7068765212503" lon="-6.344560855150882"><ele>2035.0</ele><time>2026-05-04T12:02:28.999Z</time></trkpt><trkpt lat="31.706861363958893" lon="-6.3447378282537255"><ele>2035.0</ele><time>2026-05-04T12:02:29.999Z</time></trkpt><trkpt lat="31.706834438216493" lon="-6.344915352551564"><ele>2035.0</ele><time>2026-05-04T12:02:30.999Z</time></trkpt><trkpt lat="31.70680315701684" lon="-6.345089848098457"><ele>2035.0</ele><time>2026-05-04T12:02:31.999Z</time></trkpt><trkpt lat="31.70677103785986" lon="-6.345258065618483"><ele>2035.0</ele><time>2026-05-04T12:02:32.999Z</time></trkpt><trkpt lat="31.706726689369013" lon="-6.345424437680159"><ele>2035.0</ele><time>2026-05-04T12:02:33.999Z</time></trkpt><trkpt lat="31.70667587557782" lon="-6.34559171071077"><ele>2034.0</ele><time>2026-05-04T12:02:34.999Z</time></trkpt><trkpt lat="31.70662378735966" lon="-6.345752721287973"><ele>2033.0</ele><time>2026-05-04T12:02:35.999Z</time></trkpt><trkpt lat="31.706570081634062" lon="-6.345898812275979"><ele>2032.0</ele><time>2026-05-04T12:02:36.999Z</time></trkpt><trkpt lat="31.70651383099731" lon="-6.346038042227803"><ele>2031.0</ele><time>2026-05-04T12:02:37.999Z</time></trkpt><trkpt lat="31.706447228419133" lon="-6.3461773826011925"><ele>2031.0</ele><time>2026-05-04T12:02:38.999Z</time></trkpt><trkpt lat="31.7063626063873" lon="-6.346305930025994"><ele>2031.0</ele><time>2026-05-04T12:02:39.999Z</time></trkpt><trkpt lat="31.70625656701538" lon="-6.346403432161444"><ele>2031.0</ele><time>2026-05-04T12:02:40.999Z</time></trkpt><trkpt lat="31.706132957569817" lon="-6.346474739543735"><ele>2031.0</ele><time>2026-05-04T12:02:41.999Z</time></trkpt><trkpt lat="31.706007993106706" lon="-6.346538276769059"><ele>2031.0</ele><time>2026-05-04T12:02:42.999Z</time></trkpt><trkpt lat="31.705883146438524" lon="-6.346593377124299"><ele>2031.0</ele><time>2026-05-04T12:02:43.999Z</time></trkpt><trkpt lat="31.705766727856464" lon="-6.3466615313861645"><ele>2031.0</ele><time>2026-05-04T12:02:44.999Z</time></trkpt><trkpt lat="31.705650001223287" lon="-6.346712039760042"><ele>2031.0</ele><time>2026-05-04T12:02:45.999Z</time></trkpt><trkpt lat="31.705533672594093" lon="-6.346762501929627"><ele>2031.0</ele><time>2026-05-04T12:02:46.999Z</time></trkpt><trkpt lat="31.705421407159758" lon="-6.346811246542523"><ele>2031.0</ele><time>2026-05-04T12:02:47.999Z</time></trkpt><trkpt lat="31.70531264777572" lon="-6.346858468862742"><ele>2031.0</ele><time>2026-05-04T12:02:48.999Z</time></trkpt><trkpt lat="31.70520264592093" lon="-6.346906230701227"><ele>2031.0</ele><time>2026-05-04T12:02:49.999Z</time></trkpt><trkpt lat="31.705091792715233" lon="-6.346954361206027"><ele>2029.75</ele><time>2026-05-04T12:02:50.999Z</time></trkpt><trkpt lat="31.704979864607218" lon="-6.347002894928159"><ele>2028.5</ele><time>2026-05-04T12:02:51.999Z</time></trkpt><trkpt lat="31.704864622994958" lon="-6.347051694413865"><ele>2027.25</ele><time>2026-05-04T12:02:52.999Z</time></trkpt><trkpt lat="31.70475038797893" lon="-6.347098622700433"><ele>2026.0</ele><time>2026-05-04T12:02:53.999Z</time></trkpt><trkpt lat="31.704642706209352" lon="-6.347148474424126"><ele>2026.0</ele><time>2026-05-04T12:02:54.999Z</time></trkpt><trkpt lat="31.70453452595039" lon="-6.347187475925608"><ele>2026.0</ele><time>2026-05-04T12:02:55.999Z</time></trkpt><trkpt lat="31.70445916172138" lon="-6.347247461506136"><ele>2026.0</ele><time>2026-05-04T12:02:56.999Z</time></trkpt><trkpt lat="31.70442412857837" lon="-6.347326172499023"><ele>2026.0</ele><time>2026-05-04T12:02:57.999Z</time></trkpt><trkpt lat="31.704437681973868" lon="-6.347424697232738"><ele>2026.0</ele><time>2026-05-04T12:02:58.999Z</time></trkpt><trkpt lat="31.70448169432835" lon="-6.3475309021949435"><ele>2027.1999999999998</ele><time>2026-05-04T12:02:59.999Z</time></trkpt><trkpt lat="31.70452615587225" lon="-6.347639154610606"><ele>2028.3999999999999</ele><time>2026-05-04T12:03:00.999Z</time></trkpt><trkpt lat="31.70455076907376" lon="-6.347745497128531"><ele>2029.6</ele><time>2026-05-04T12:03:01.999Z</time></trkpt><trkpt lat="31.70456966728174" lon="-6.347846328864051"><ele>2030.8</ele><time>2026-05-04T12:03:02.999Z</time></trkpt><trkpt lat="31.70458721964068" lon="-6.347937149952852"><ele>2032.0</ele><time>2026-05-04T12:03:03.999Z</time></trkpt><trkpt lat="31.704584677218328" lon="-6.348063166140734"><ele>2032.0</ele><time>2026-05-04T12:03:05.999Z</time></trkpt><trkpt lat="31.70451467486487" lon="-6.348190154488978"><ele>2031.9999999999998</ele><time>2026-05-04T12:03:07.999Z</time></trkpt><trkpt lat="31.704438842222665" lon="-6.348196971028494"><ele>2031.9999999999998</ele><time>2026-05-04T12:03:08.999Z</time></trkpt><trkpt lat="31.704363866546245" lon="-6.348182126947657"><ele>2032.0</ele><time>2026-05-04T12:03:09.999Z</time></trkpt><trkpt lat="31.70429101278953" lon="-6.348138008374475"><ele>2032.0</ele><time>2026-05-04T12:03:10.999Z</time></trkpt><trkpt lat="31.704215593903594" lon="-6.348081103255341"><ele>2030.0</ele><time>2026-05-04T12:03:11.999Z</time></trkpt><trkpt lat="31.704133234232884" lon="-6.348023811557713"><ele>2027.9999999999998</ele><time>2026-05-04T12:03:12.999Z</time></trkpt><trkpt lat="31.704054397438053" lon="-6.347969376420044"><ele>2025.9999999999998</ele><time>2026-05-04T12:03:13.999Z</time></trkpt><trkpt lat="31.703979134655263" lon="-6.3479414500024065"><ele>2024.0</ele><time>2026-05-04T12:03:14.999Z</time></trkpt><trkpt lat="31.70391445152146" lon="-6.347910247602989"><ele>2022.0</ele><time>2026-05-04T12:03:15.999Z</time></trkpt><trkpt lat="31.70378666493585" lon="-6.347905552193631"><ele>2022.0</ele><time>2026-05-04T12:03:17.999Z</time></trkpt><trkpt lat="31.70368427388088" lon="-6.347956147240574"><ele>2021.9999999999998</ele><time>2026-05-04T12:03:19.999Z</time></trkpt><trkpt lat="31.703576748681876" lon="-6.348014339301534"><ele>2021.9999999999998</ele><time>2026-05-04T12:03:21.999Z</time></trkpt><trkpt lat="31.703511540669147" lon="-6.348050384760882"><ele>2022.0</ele><time>2026-05-04T12:03:22.999Z</time></trkpt><trkpt lat="31.703436347809912" lon="-6.34808900692428"><ele>2022.0</ele><time>2026-05-04T12:03:23.999Z</time></trkpt><trkpt lat="31.703354637688918" lon="-6.3481309766038025"><ele>2022.0</ele><time>2026-05-04T12:03:24.999Z</time></trkpt><trkpt lat="31.703272804415548" lon="-6.348173728316304"><ele>2021.9999999999998</ele><time>2026-05-04T12:03:25.999Z</time></trkpt><trkpt lat="31.703180850668197" lon="-6.348200155751372"><ele>2021.9999999999998</ele><time>2026-05-04T12:03:26.999Z</time></trkpt><trkpt lat="31.703103557687225" lon="-6.3482683714908665"><ele>2022.0</ele><time>2026-05-04T12:03:27.999Z</time></trkpt><trkpt lat="31.703021009021334" lon="-6.348318939577842"><ele>2022.0</ele><time>2026-05-04T12:03:28.999Z</time></trkpt><trkpt lat="31.702938711910328" lon="-6.348370290586627"><ele>2022.0</ele><time>2026-05-04T12:03:29.999Z</time></trkpt><trkpt lat="31.702857503073076" lon="-6.348421882693927"><ele>2022.0</ele><time>2026-05-04T12:03:30.999Z</time></trkpt><trkpt lat="31.702778498513524" lon="-6.348472074765629"><ele>2022.0</ele><time>2026-05-04T12:03:31.999Z</time></trkpt><trkpt lat="31.702688414253767" lon="-6.348487863267311"><ele>2022.0</ele><time>2026-05-04T12:03:32.999Z</time></trkpt><trkpt lat="31.702603240010337" lon="-6.3485136171548096"><ele>2022.0</ele><time>2026-05-04T12:03:33.999Z</time></trkpt><trkpt lat="31.702517590280724" lon="-6.34853320067597"><ele>2022.0</ele><time>2026-05-04T12:03:34.999Z</time></trkpt><trkpt lat="31.70244431860393" lon="-6.348584316042015"><ele>2021.5714285714284</ele><time>2026-05-04T12:03:35.999Z</time></trkpt><trkpt lat="31.702393382695803" lon="-6.348658909115834"><ele>2021.142857142857</ele><time>2026-05-04T12:03:36.999Z</time></trkpt><trkpt lat="31.702356314146435" lon="-6.3487346926278025"><ele>2020.7142857142858</ele><time>2026-05-04T12:03:37.999Z</time></trkpt><trkpt lat="31.7023290910462" lon="-6.3488074185839976"><ele>2020.2857142857142</ele><time>2026-05-04T12:03:38.999Z</time></trkpt><trkpt lat="31.702300488883182" lon="-6.3488833815090855"><ele>2019.8571428571431</ele><time>2026-05-04T12:03:39.999Z</time></trkpt><trkpt lat="31.70227250546767" lon="-6.348955959026109"><ele>2019.4285714285716</ele><time>2026-05-04T12:03:40.999Z</time></trkpt><trkpt lat="31.702230618961018" lon="-6.3490270647766724"><ele>2019.0</ele><time>2026-05-04T12:03:41.999Z</time></trkpt><trkpt lat="31.70220434799938" lon="-6.349107225686682"><ele>2019.0</ele><time>2026-05-04T12:03:42.999Z</time></trkpt><trkpt lat="31.702167181923066" lon="-6.349187794691608"><ele>2019.0</ele><time>2026-05-04T12:03:43.999Z</time></trkpt><trkpt lat="31.70211740480322" lon="-6.349265782722605"><ele>2019.0</ele><time>2026-05-04T12:03:44.999Z</time></trkpt><trkpt lat="31.7020796308903" lon="-6.349354907514756"><ele>2019.0</ele><time>2026-05-04T12:03:45.999Z</time></trkpt><trkpt lat="31.702030653647412" lon="-6.349422468371433"><ele>2019.0</ele><time>2026-05-04T12:03:46.999Z</time></trkpt><trkpt lat="31.70198396536904" lon="-6.349486871879855"><ele>2019.0</ele><time>2026-05-04T12:03:47.999Z</time></trkpt><trkpt lat="31.701935622455835" lon="-6.349554685579244"><ele>2018.1428571428573</ele><time>2026-05-04T12:03:48.999Z</time></trkpt><trkpt lat="31.701890990251194" lon="-6.349617978345115"><ele>2017.2857142857144</ele><time>2026-05-04T12:03:49.999Z</time></trkpt><trkpt lat="31.701847490785124" lon="-6.349679197726737"><ele>2016.4285714285716</ele><time>2026-05-04T12:03:50.999Z</time></trkpt><trkpt lat="31.70180560610557" lon="-6.34973840250995"><ele>2015.5714285714284</ele><time>2026-05-04T12:03:51.999Z</time></trkpt><trkpt lat="31.701762456610098" lon="-6.3497993949840055"><ele>2014.7142857142856</ele><time>2026-05-04T12:03:52.999Z</time></trkpt><trkpt lat="31.701715664729807" lon="-6.349865536184468"><ele>2013.8571428571427</ele><time>2026-05-04T12:03:53.999Z</time></trkpt><trkpt lat="31.701664923073245" lon="-6.349942082050933"><ele>2013.0</ele><time>2026-05-04T12:03:54.999Z</time></trkpt><trkpt lat="31.701615865492496" lon="-6.35001539623145"><ele>2013.0</ele><time>2026-05-04T12:03:55.999Z</time></trkpt><trkpt lat="31.701566617159976" lon="-6.35008925556753"><ele>2013.0</ele><time>2026-05-04T12:03:56.999Z</time></trkpt><trkpt lat="31.701517290025816" lon="-6.3501633085501314"><ele>2013.0</ele><time>2026-05-04T12:03:57.999Z</time></trkpt><trkpt lat="31.70146844465902" lon="-6.350236637957942"><ele>2013.0</ele><time>2026-05-04T12:03:58.999Z</time></trkpt><trkpt lat="31.701418643927703" lon="-6.350311281027464"><ele>2013.0</ele><time>2026-05-04T12:03:59.999Z</time></trkpt><trkpt lat="31.70136908980066" lon="-6.350385554574587"><ele>2013.0</ele><time>2026-05-04T12:04:00.999Z</time></trkpt><trkpt lat="31.701325741249125" lon="-6.350463836301472"><ele>2013.0</ele><time>2026-05-04T12:04:01.999Z</time></trkpt><trkpt lat="31.701277176520332" lon="-6.350539149283852"><ele>2013.0</ele><time>2026-05-04T12:04:02.999Z</time></trkpt><trkpt lat="31.7012846194756" lon="-6.350640166468365"><ele>2013.0</ele><time>2026-05-04T12:04:03.999Z</time></trkpt><trkpt lat="31.70132753698585" lon="-6.350729223343834"><ele>2013.0</ele><time>2026-05-04T12:04:04.999Z</time></trkpt><trkpt lat="31.70141764049114" lon="-6.350768496433134"><ele>2013.0</ele><time>2026-05-04T12:04:05.999Z</time></trkpt><trkpt lat="31.7014947754052" lon="-6.350804380823443"><ele>2013.0</ele><time>2026-05-04T12:04:06.999Z</time></trkpt><trkpt lat="31.701578505262916" lon="-6.350796532446775"><ele>2011.8333333333333</ele><time>2026-05-04T12:04:07.999Z</time></trkpt><trkpt lat="31.701655384113273" lon="-6.350792408833201"><ele>2010.6666666666665</ele><time>2026-05-04T12:04:08.999Z</time></trkpt><trkpt lat="31.70172321235194" lon="-6.3508224023496425"><ele>2009.5</ele><time>2026-05-04T12:04:09.999Z</time></trkpt><trkpt lat="31.701780052381753" lon="-6.3508669896972325"><ele>2008.3333333333333</ele><time>2026-05-04T12:04:10.999Z</time></trkpt><trkpt lat="31.701782383869997" lon="-6.350980235680888"><ele>2007.1666666666665</ele><time>2026-05-04T12:04:11.999Z</time></trkpt><trkpt lat="31.70176473599673" lon="-6.351066779674107"><ele>2006.0</ele><time>2026-05-04T12:04:12.999Z</time></trkpt><trkpt lat="31.7017209348811" lon="-6.351147598286711"><ele>2006.0</ele><time>2026-05-04T12:04:13.999Z</time></trkpt><trkpt lat="31.701651199719105" lon="-6.351221235871998"><ele>2006.0</ele><time>2026-05-04T12:04:14.999Z</time></trkpt><trkpt lat="31.70158894938733" lon="-6.351328244372719"><ele>2006.0</ele><time>2026-05-04T12:04:15.999Z</time></trkpt><trkpt lat="31.70152357545582" lon="-6.351436450929191"><ele>2006.0</ele><time>2026-05-04T12:04:16.999Z</time></trkpt><trkpt lat="31.701474047236545" lon="-6.351529168075672"><ele>2006.0</ele><time>2026-05-04T12:04:17.999Z</time></trkpt><trkpt lat="31.701429549796856" lon="-6.351615146632564"><ele>2006.4</ele><time>2026-05-04T12:04:18.999Z</time></trkpt><trkpt lat="31.701416711301512" lon="-6.351712432522998"><ele>2006.8</ele><time>2026-05-04T12:04:19.999Z</time></trkpt><trkpt lat="31.70140590749069" lon="-6.351825180331161"><ele>2007.2000000000003</ele><time>2026-05-04T12:04:20.999Z</time></trkpt><trkpt lat="31.701436378248836" lon="-6.351935157903961"><ele>2007.6000000000001</ele><time>2026-05-04T12:04:21.999Z</time></trkpt><trkpt lat="31.701499068755755" lon="-6.352030920519597"><ele>2008.0</ele><time>2026-05-04T12:04:22.999Z</time></trkpt><trkpt lat="31.701602373259547" lon="-6.352087506257093"><ele>2008.0</ele><time>2026-05-04T12:04:23.999Z</time></trkpt><trkpt lat="31.70170108137707" lon="-6.35218136417644"><ele>2008.0</ele><time>2026-05-04T12:04:24.999Z</time></trkpt><trkpt lat="31.701819945094265" lon="-6.3522470375361015"><ele>2008.0</ele><time>2026-05-04T12:04:25.999Z</time></trkpt><trkpt lat="31.701940194582104" lon="-6.352314395688706"><ele>2008.0</ele><time>2026-05-04T12:04:26.999Z</time></trkpt><trkpt lat="31.702053911227964" lon="-6.352378772864728"><ele>2007.75</ele><time>2026-05-04T12:04:27.999Z</time></trkpt><trkpt lat="31.70216616850518" lon="-6.352444470923438"><ele>2007.5</ele><time>2026-05-04T12:04:28.999Z</time></trkpt><trkpt lat="31.702274626023637" lon="-6.352515312775748"><ele>2007.25</ele><time>2026-05-04T12:04:29.999Z</time></trkpt><trkpt lat="31.70236997795954" lon="-6.352595714396599"><ele>2007.0</ele><time>2026-05-04T12:04:30.999Z</time></trkpt><trkpt lat="31.702437164386165" lon="-6.352708182251686"><ele>2007.0</ele><time>2026-05-04T12:04:31.999Z</time></trkpt><trkpt lat="31.70246461303333" lon="-6.352838079202373"><ele>2007.0</ele><time>2026-05-04T12:04:32.999Z</time></trkpt><trkpt lat="31.702461611810925" lon="-6.352974624884189"><ele>2007.0</ele><time>2026-05-04T12:04:33.999Z</time></trkpt><trkpt lat="31.702428842602007" lon="-6.353107735586021"><ele>2007.0</ele><time>2026-05-04T12:04:34.999Z</time></trkpt><trkpt lat="31.70238183783934" lon="-6.353220602327493"><ele>2005.75</ele><time>2026-05-04T12:04:35.999Z</time></trkpt><trkpt lat="31.702276634382788" lon="-6.3532949046796015"><ele>2004.5</ele><time>2026-05-04T12:04:36.999Z</time></trkpt><trkpt lat="31.7021650667002" lon="-6.3533542938423135"><ele>2003.25</ele><time>2026-05-04T12:04:37.999Z</time></trkpt><trkpt lat="31.70204599873223" lon="-6.35340311239999"><ele>2002.0</ele><time>2026-05-04T12:04:38.999Z</time></trkpt><trkpt lat="31.70191870770432" lon="-6.353450036273136"><ele>2000.6666666666667</ele><time>2026-05-04T12:04:39.999Z</time></trkpt><trkpt lat="31.70178379248378" lon="-6.353506884815871"><ele>1999.3333333333335</ele><time>2026-05-04T12:04:40.999Z</time></trkpt><trkpt lat="31.701650416292566" lon="-6.353589732017093"><ele>1998.0</ele><time>2026-05-04T12:04:41.999Z</time></trkpt><trkpt lat="31.70149919480442" lon="-6.3536405972258425"><ele>1998.0</ele><time>2026-05-04T12:04:42.999Z</time></trkpt><trkpt lat="31.701362408976806" lon="-6.353710328253916"><ele>1998.0</ele><time>2026-05-04T12:04:43.999Z</time></trkpt><trkpt lat="31.701230239794615" lon="-6.3537761925762455"><ele>1998.0</ele><time>2026-05-04T12:04:44.999Z</time></trkpt><trkpt lat="31.701090472103495" lon="-6.353837666055878"><ele>1998.0</ele><time>2026-05-04T12:04:45.999Z</time></trkpt><trkpt lat="31.700948611359564" lon="-6.353892919815123"><ele>1997.75</ele><time>2026-05-04T12:04:46.999Z</time></trkpt><trkpt lat="31.700812977523075" lon="-6.353942596061701"><ele>1997.5</ele><time>2026-05-04T12:04:47.999Z</time></trkpt><trkpt lat="31.70068462962747" lon="-6.353995969075997"><ele>1997.25</ele><time>2026-05-04T12:04:48.999Z</time></trkpt><trkpt lat="31.700569652908914" lon="-6.354069602670017"><ele>1997.0</ele><time>2026-05-04T12:04:49.999Z</time></trkpt><trkpt lat="31.700466854065937" lon="-6.354162053791283"><ele>1997.0</ele><time>2026-05-04T12:04:50.999Z</time></trkpt><trkpt lat="31.70038443406585" lon="-6.354272693482427"><ele>1997.0</ele><time>2026-05-04T12:04:51.999Z</time></trkpt><trkpt lat="31.700313770791094" lon="-6.354391660211312"><ele>1997.0</ele><time>2026-05-04T12:04:52.999Z</time></trkpt><trkpt lat="31.700311462667102" lon="-6.354555251806073"><ele>1997.0</ele><time>2026-05-04T12:04:53.999Z</time></trkpt><trkpt lat="31.70028638761844" lon="-6.354723328881534"><ele>1999.6666666666665</ele><time>2026-05-04T12:04:54.999Z</time></trkpt><trkpt lat="31.700276732629497" lon="-6.354894085284639"><ele>2002.3333333333335</ele><time>2026-05-04T12:04:55.999Z</time></trkpt><trkpt lat="31.70025868242718" lon="-6.3550778124086476"><ele>2005.0</ele><time>2026-05-04T12:04:56.999Z</time></trkpt><trkpt lat="31.70023684157768" lon="-6.355257919394037"><ele>1999.6666666666667</ele><time>2026-05-04T12:04:57.999Z</time></trkpt><trkpt lat="31.7002065208272" lon="-6.355442461994757"><ele>1994.3333333333335</ele><time>2026-05-04T12:04:58.999Z</time></trkpt><trkpt lat="31.700153741971153" lon="-6.355620169412506"><ele>1989.0</ele><time>2026-05-04T12:04:59.999Z</time></trkpt><trkpt lat="31.700104150587805" lon="-6.355785946624876"><ele>1989.0</ele><time>2026-05-04T12:05:00.999Z</time></trkpt><trkpt lat="31.700055412078754" lon="-6.355944050977944"><ele>1989.0</ele><time>2026-05-04T12:05:01.999Z</time></trkpt><trkpt lat="31.700006965196682" lon="-6.356095879206398"><ele>1989.0</ele><time>2026-05-04T12:05:02.999Z</time></trkpt><trkpt lat="31.69996735148416" lon="-6.356233519851912"><ele>1989.0</ele><time>2026-05-04T12:05:03.999Z</time></trkpt><trkpt lat="31.699924313575323" lon="-6.356324493891596"><ele>1989.0</ele><time>2026-05-04T12:05:04.999Z</time></trkpt><trkpt lat="31.699865622707424" lon="-6.356379138842669"><ele>1989.0</ele><time>2026-05-04T12:05:05.999Z</time></trkpt><trkpt lat="31.69981097093884" lon="-6.356428192828033"><ele>1989.0</ele><time>2026-05-04T12:05:06.999Z</time></trkpt><trkpt lat="31.6997152811965" lon="-6.356422899003366"><ele>1989.0</ele><time>2026-05-04T12:05:07.999Z</time></trkpt><trkpt lat="31.699605901892664" lon="-6.356389176910807"><ele>1989.0</ele><time>2026-05-04T12:05:08.999Z</time></trkpt><trkpt lat="31.699497774192285" lon="-6.356354892841269"><ele>1988.4</ele><time>2026-05-04T12:05:09.999Z</time></trkpt><trkpt lat="31.699400770818762" lon="-6.356329008201866"><ele>1987.8000000000002</ele><time>2026-05-04T12:05:10.999Z</time></trkpt><trkpt lat="31.699320387754106" lon="-6.356335614873224"><ele>1987.1999999999998</ele><time>2026-05-04T12:05:11.999Z</time></trkpt><trkpt lat="31.699240655305893" lon="-6.356393759862174"><ele>1986.6</ele><time>2026-05-04T12:05:12.999Z</time></trkpt><trkpt lat="31.699145090688933" lon="-6.356494324120557"><ele>1986.0</ele><time>2026-05-04T12:05:13.999Z</time></trkpt><trkpt lat="31.699079620973833" lon="-6.35662461341507"><ele>1986.0</ele><time>2026-05-04T12:05:14.999Z</time></trkpt><trkpt lat="31.699024360340125" lon="-6.3567641627882745"><ele>1986.0</ele><time>2026-05-04T12:05:15.999Z</time></trkpt><trkpt lat="31.69895034027623" lon="-6.356919102520568"><ele>1986.0</ele><time>2026-05-04T12:05:16.999Z</time></trkpt><trkpt lat="31.69889457116671" lon="-6.357091998012311"><ele>1986.0</ele><time>2026-05-04T12:05:17.999Z</time></trkpt><trkpt lat="31.698840539979855" lon="-6.3572549574960435"><ele>1988.25</ele><time>2026-05-04T12:05:18.999Z</time></trkpt><trkpt lat="31.698785633250605" lon="-6.357403545206593"><ele>1990.5</ele><time>2026-05-04T12:05:19.999Z</time></trkpt><trkpt lat="31.698747078141565" lon="-6.357553656741183"><ele>1992.75</ele><time>2026-05-04T12:05:20.999Z</time></trkpt><trkpt lat="31.698701142327756" lon="-6.3576933485841876"><ele>1995.0</ele><time>2026-05-04T12:05:21.999Z</time></trkpt><trkpt lat="31.698657217564566" lon="-6.357826951041714"><ele>1995.0</ele><time>2026-05-04T12:05:22.999Z</time></trkpt><trkpt lat="31.698591888242287" lon="-6.3579572284922214"><ele>1995.0</ele><time>2026-05-04T12:05:23.999Z</time></trkpt><trkpt lat="31.698550362459457" lon="-6.358095185590596"><ele>1995.0</ele><time>2026-05-04T12:05:24.999Z</time></trkpt><trkpt lat="31.698500989538243" lon="-6.358227682682755"><ele>1995.0</ele><time>2026-05-04T12:05:25.999Z</time></trkpt><trkpt lat="31.69844592782464" lon="-6.358348523291794"><ele>1993.0</ele><time>2026-05-04T12:05:26.999Z</time></trkpt><trkpt lat="31.69838153996421" lon="-6.358467613505493"><ele>1991.0</ele><time>2026-05-04T12:05:27.999Z</time></trkpt><trkpt lat="31.69832287395316" lon="-6.35859093404314"><ele>1989.0</ele><time>2026-05-04T12:05:28.999Z</time></trkpt><trkpt lat="31.698281571857006" lon="-6.358720734793086"><ele>1987.0</ele><time>2026-05-04T12:05:29.999Z</time></trkpt><trkpt lat="31.69822920782317" lon="-6.358832599192004"><ele>1989.5</ele><time>2026-05-04T12:05:30.999Z</time></trkpt><trkpt lat="31.698177302536568" lon="-6.35894352612164"><ele>1992.0</ele><time>2026-05-04T12:05:31.999Z</time></trkpt><trkpt lat="31.69812146677555" lon="-6.35906259747539"><ele>1994.5</ele><time>2026-05-04T12:05:32.999Z</time></trkpt><trkpt lat="31.69806305051598" lon="-6.359186807542683"><ele>1997.0</ele><time>2026-05-04T12:05:33.999Z</time></trkpt><trkpt lat="31.69802005653501" lon="-6.359319695993386"><ele>1997.0</ele><time>2026-05-04T12:05:34.999Z</time></trkpt><trkpt lat="31.697974835045546" lon="-6.35945427420781"><ele>1997.0</ele><time>2026-05-04T12:05:35.999Z</time></trkpt><trkpt lat="31.697919641038972" lon="-6.3595777925165375"><ele>1997.0</ele><time>2026-05-04T12:05:36.999Z</time></trkpt><trkpt lat="31.69789234120011" lon="-6.3597069882036665"><ele>1997.0</ele><time>2026-05-04T12:05:37.999Z</time></trkpt><trkpt lat="31.69786825805408" lon="-6.3598180745201995"><ele>1997.1999999999998</ele><time>2026-05-04T12:05:38.999Z</time></trkpt><trkpt lat="31.697834196337713" lon="-6.359920487715229"><ele>1997.3999999999999</ele><time>2026-05-04T12:05:39.999Z</time></trkpt><trkpt lat="31.697772250900456" lon="-6.360003737152799"><ele>1997.6000000000001</ele><time>2026-05-04T12:05:40.999Z</time></trkpt><trkpt lat="31.69769627418022" lon="-6.360082473419231"><ele>1997.8000000000002</ele><time>2026-05-04T12:05:41.999Z</time></trkpt><trkpt lat="31.697596655194694" lon="-6.360114042162028"><ele>1998.0</ele><time>2026-05-04T12:05:42.999Z</time></trkpt><trkpt lat="31.69754126422356" lon="-6.360192859420682"><ele>1996.8333333333333</ele><time>2026-05-04T12:05:43.999Z</time></trkpt><trkpt lat="31.69748328090326" lon="-6.360259842737641"><ele>1995.6666666666665</ele><time>2026-05-04T12:05:44.999Z</time></trkpt><trkpt lat="31.697423929864122" lon="-6.360327880938162"><ele>1994.5</ele><time>2026-05-04T12:05:45.999Z</time></trkpt><trkpt lat="31.69735519205185" lon="-6.36040013994744"><ele>1993.3333333333333</ele><time>2026-05-04T12:05:46.999Z</time></trkpt><trkpt lat="31.697299738774706" lon="-6.360491226720615"><ele>1992.1666666666665</ele><time>2026-05-04T12:05:47.999Z</time></trkpt><trkpt lat="31.69726065191137" lon="-6.3605931377320255"><ele>1991.0</ele><time>2026-05-04T12:05:48.999Z</time></trkpt><trkpt lat="31.697271307753233" lon="-6.360734193150026"><ele>1991.0</ele><time>2026-05-04T12:05:49.999Z</time></trkpt><trkpt lat="31.697254246535177" lon="-6.360879001378807"><ele>1991.0</ele><time>2026-05-04T12:05:50.999Z</time></trkpt><trkpt lat="31.69721671630656" lon="-6.361020434720352"><ele>1991.0</ele><time>2026-05-04T12:05:51.999Z</time></trkpt><trkpt lat="31.697169054985274" lon="-6.3611395026428745"><ele>1991.0</ele><time>2026-05-04T12:05:52.999Z</time></trkpt><trkpt lat="31.697127357883794" lon="-6.361247276355279"><ele>1990.9999999999998</ele><time>2026-05-04T12:05:53.999Z</time></trkpt><trkpt lat="31.69709225019059" lon="-6.361340150982041"><ele>1991.0</ele><time>2026-05-04T12:05:54.999Z</time></trkpt><trkpt lat="31.697059216217706" lon="-6.361425171417092"><ele>1991.0</ele><time>2026-05-04T12:05:55.999Z</time></trkpt><trkpt lat="31.697021594089673" lon="-6.361508231873079"><ele>1991.0</ele><time>2026-05-04T12:05:56.999Z</time></trkpt><trkpt lat="31.696983559134996" lon="-6.361597411828075"><ele>1990.9999999999998</ele><time>2026-05-04T12:05:57.999Z</time></trkpt><trkpt lat="31.6969403223572" lon="-6.361690734854693"><ele>1991.0</ele><time>2026-05-04T12:05:58.999Z</time></trkpt><trkpt lat="31.6968893412494" lon="-6.361799779597228"><ele>1991.5</ele><time>2026-05-04T12:05:59.999Z</time></trkpt><trkpt lat="31.696828253102634" lon="-6.361916351713565"><ele>1992.0</ele><time>2026-05-04T12:06:00.999Z</time></trkpt><trkpt lat="31.69675989424734" lon="-6.362038351878423"><ele>1992.5</ele><time>2026-05-04T12:06:01.999Z</time></trkpt><trkpt lat="31.696689153765412" lon="-6.362159567642806"><ele>1993.0</ele><time>2026-05-04T12:06:02.999Z</time></trkpt><trkpt lat="31.696607616331754" lon="-6.3622880502849695"><ele>1993.0</ele><time>2026-05-04T12:06:03.999Z</time></trkpt><trkpt lat="31.696512561858388" lon="-6.362428878664244"><ele>1993.0</ele><time>2026-05-04T12:06:04.999Z</time></trkpt><trkpt lat="31.696417223379758" lon="-6.362568812624114"><ele>1993.0</ele><time>2026-05-04T12:06:05.999Z</time></trkpt><trkpt lat="31.696315948410092" lon="-6.362711340745148"><ele>1993.0</ele><time>2026-05-04T12:06:06.999Z</time></trkpt><trkpt lat="31.696205542934" lon="-6.362847572114971"><ele>1993.0</ele><time>2026-05-04T12:06:07.999Z</time></trkpt><trkpt lat="31.69609598734729" lon="-6.362980479139453"><ele>1993.0</ele><time>2026-05-04T12:06:08.999Z</time></trkpt><trkpt lat="31.696000976148063" lon="-6.363130211845539"><ele>1990.5</ele><time>2026-05-04T12:06:09.999Z</time></trkpt><trkpt lat="31.69591775442137" lon="-6.363285984360344"><ele>1988.0</ele><time>2026-05-04T12:06:10.999Z</time></trkpt><trkpt lat="31.69584261131767" lon="-6.36343817182353"><ele>1985.5</ele><time>2026-05-04T12:06:11.999Z</time></trkpt><trkpt lat="31.695775973751108" lon="-6.363585992333509"><ele>1983.0</ele><time>2026-05-04T12:06:12.999Z</time></trkpt><trkpt lat="31.695707516889755" lon="-6.36372961141077"><ele>1987.0</ele><time>2026-05-04T12:06:13.999Z</time></trkpt><trkpt lat="31.695642361919155" lon="-6.363872216922883"><ele>1991.0</ele><time>2026-05-04T12:06:14.999Z</time></trkpt><trkpt lat="31.695582176272318" lon="-6.364013998966198"><ele>1995.0</ele><time>2026-05-04T12:06:15.999Z</time></trkpt><trkpt lat="31.695537604072605" lon="-6.3641563664295875"><ele>1999.0</ele><time>2026-05-04T12:06:16.999Z</time></trkpt><trkpt lat="31.69551034691794" lon="-6.364301426696769"><ele>1999.0</ele><time>2026-05-04T12:06:17.999Z</time></trkpt><trkpt lat="31.695501033008334" lon="-6.364450092933459"><ele>1999.0</ele><time>2026-05-04T12:06:18.999Z</time></trkpt><trkpt lat="31.695521682424513" lon="-6.3646055692993615"><ele>1999.0</ele><time>2026-05-04T12:06:19.999Z</time></trkpt><trkpt lat="31.69557201622683" lon="-6.3647634348766635"><ele>1999.0</ele><time>2026-05-04T12:06:20.999Z</time></trkpt><trkpt lat="31.695624739026524" lon="-6.364939922026748"><ele>1997.6666666666667</ele><time>2026-05-04T12:06:21.999Z</time></trkpt><trkpt lat="31.695671020393902" lon="-6.365122408601074"><ele>1996.3333333333335</ele><time>2026-05-04T12:06:22.999Z</time></trkpt><trkpt lat="31.695705986577977" lon="-6.365296545125708"><ele>1995.0</ele><time>2026-05-04T12:06:23.999Z</time></trkpt><trkpt lat="31.6957348960243" lon="-6.365459429319345"><ele>1992.25</ele><time>2026-05-04T12:06:24.999Z</time></trkpt><trkpt lat="31.69575713066287" lon="-6.365613850792788"><ele>1989.5</ele><time>2026-05-04T12:06:25.999Z</time></trkpt><trkpt lat="31.695794916705587" lon="-6.365755306035023"><ele>1986.75</ele><time>2026-05-04T12:06:26.999Z</time></trkpt><trkpt lat="31.69585354966462" lon="-6.365885288370563"><ele>1984.0</ele><time>2026-05-04T12:06:27.999Z</time></trkpt><trkpt lat="31.69592235386638" lon="-6.366015481041791"><ele>1984.0000000000002</ele><time>2026-05-04T12:06:28.999Z</time></trkpt><trkpt lat="31.6959950183689" lon="-6.366129429308324"><ele>1984.0</ele><time>2026-05-04T12:06:29.999Z</time></trkpt><trkpt lat="31.696062997163047" lon="-6.366220590252762"><ele>1984.0</ele><time>2026-05-04T12:06:30.999Z</time></trkpt><trkpt lat="31.69610004682372" lon="-6.366297928078157"><ele>1984.0</ele><time>2026-05-04T12:06:31.999Z</time></trkpt><trkpt lat="31.69609303857305" lon="-6.366380111835991"><ele>1984.0000000000002</ele><time>2026-05-04T12:06:32.999Z</time></trkpt><trkpt lat="31.696048275662964" lon="-6.366453193784614"><ele>1984.0</ele><time>2026-05-04T12:06:33.999Z</time></trkpt><trkpt lat="31.695981243404916" lon="-6.366500704334069"><ele>1985.2</ele><time>2026-05-04T12:06:34.999Z</time></trkpt><trkpt lat="31.695901142380762" lon="-6.366525231676301"><ele>1986.4</ele><time>2026-05-04T12:06:35.999Z</time></trkpt><trkpt lat="31.69581724816024" lon="-6.3665319798735025"><ele>1987.6</ele><time>2026-05-04T12:06:36.999Z</time></trkpt><trkpt lat="31.695720091213694" lon="-6.366507824014566"><ele>1988.8</ele><time>2026-05-04T12:06:37.999Z</time></trkpt><trkpt lat="31.695602952618252" lon="-6.366475161305285"><ele>1990.0</ele><time>2026-05-04T12:06:38.999Z</time></trkpt><trkpt lat="31.69546627056062" lon="-6.366462848950618"><ele>1990.0</ele><time>2026-05-04T12:06:39.999Z</time></trkpt><trkpt lat="31.69533131496608" lon="-6.366455225526397"><ele>1990.0</ele><time>2026-05-04T12:06:40.999Z</time></trkpt><trkpt lat="31.695184531834347" lon="-6.3664426214013945"><ele>1990.0</ele><time>2026-05-04T12:06:41.999Z</time></trkpt><trkpt lat="31.69502001800304" lon="-6.366427930464807"><ele>1990.0</ele><time>2026-05-04T12:06:42.999Z</time></trkpt><trkpt lat="31.694855768972996" lon="-6.366415242328395"><ele>1992.0</ele><time>2026-05-04T12:06:43.999Z</time></trkpt><trkpt lat="31.694695112076204" lon="-6.366407974506561"><ele>1994.0</ele><time>2026-05-04T12:06:44.999Z</time></trkpt><trkpt lat="31.69454096655946" lon="-6.366406826673796"><ele>1996.0</ele><time>2026-05-04T12:06:45.999Z</time></trkpt><trkpt lat="31.694393306542278" lon="-6.36640460735803"><ele>1996.5</ele><time>2026-05-04T12:06:46.999Z</time></trkpt><trkpt lat="31.694248302199668" lon="-6.366396142545551"><ele>1997.0</ele><time>2026-05-04T12:06:47.999Z</time></trkpt><trkpt lat="31.69410768258913" lon="-6.36640694705406"><ele>1997.5</ele><time>2026-05-04T12:06:48.999Z</time></trkpt><trkpt lat="31.693965937501936" lon="-6.366405786456427"><ele>1998.0</ele><time>2026-05-04T12:06:49.999Z</time></trkpt><trkpt lat="31.693830726016206" lon="-6.3664206029614885"><ele>1998.0</ele><time>2026-05-04T12:06:50.999Z</time></trkpt><trkpt lat="31.69369484253853" lon="-6.366428461638489"><ele>1998.0</ele><time>2026-05-04T12:06:51.999Z</time></trkpt><trkpt lat="31.693564998369084" lon="-6.366469418297879"><ele>1998.0</ele><time>2026-05-04T12:06:52.999Z</time></trkpt><trkpt lat="31.693437026024288" lon="-6.366521464707187"><ele>1998.0</ele><time>2026-05-04T12:06:53.999Z</time></trkpt><trkpt lat="31.693310569340454" lon="-6.366584696549121"><ele>1993.5</ele><time>2026-05-04T12:06:54.999Z</time></trkpt><trkpt lat="31.69319639337259" lon="-6.366687460561506"><ele>1989.0</ele><time>2026-05-04T12:06:55.999Z</time></trkpt><trkpt lat="31.69308597663332" lon="-6.366788784245139"><ele>1984.5</ele><time>2026-05-04T12:06:56.999Z</time></trkpt><trkpt lat="31.692980573682107" lon="-6.3668922679248405"><ele>1980.0</ele><time>2026-05-04T12:06:57.999Z</time></trkpt><trkpt lat="31.692874943936484" lon="-6.366995445748864"><ele>1980.0</ele><time>2026-05-04T12:06:58.999Z</time></trkpt><trkpt lat="31.692770648191345" lon="-6.36710176603617"><ele>1980.0</ele><time>2026-05-04T12:06:59.999Z</time></trkpt><trkpt lat="31.6926533921644" lon="-6.367207491444001"><ele>1980.0</ele><time>2026-05-04T12:07:00.999Z</time></trkpt><trkpt lat="31.692545920448243" lon="-6.367332777408003"><ele>1980.0</ele><time>2026-05-04T12:07:01.999Z</time></trkpt><trkpt lat="31.692437061052733" lon="-6.367452833174229"><ele>1979.75</ele><time>2026-05-04T12:07:02.999Z</time></trkpt><trkpt lat="31.692334647728014" lon="-6.367574162499852"><ele>1979.5</ele><time>2026-05-04T12:07:03.999Z</time></trkpt><trkpt lat="31.692236727304717" lon="-6.36769221635717"><ele>1979.25</ele><time>2026-05-04T12:07:04.999Z</time></trkpt><trkpt lat="31.692139240593878" lon="-6.367809241066886"><ele>1979.0</ele><time>2026-05-04T12:07:05.999Z</time></trkpt><trkpt lat="31.692040727587315" lon="-6.367926499669083"><ele>1976.25</ele><time>2026-05-04T12:07:06.999Z</time></trkpt><trkpt lat="31.691945525486126" lon="-6.368048347590357"><ele>1973.5</ele><time>2026-05-04T12:07:07.999Z</time></trkpt><trkpt lat="31.69185608406174" lon="-6.3681787081285295"><ele>1970.75</ele><time>2026-05-04T12:07:08.999Z</time></trkpt><trkpt lat="31.69176822142578" lon="-6.368317778060714"><ele>1968.0</ele><time>2026-05-04T12:07:09.999Z</time></trkpt><trkpt lat="31.69167470421937" lon="-6.368468792383626"><ele>1968.0</ele><time>2026-05-04T12:07:10.999Z</time></trkpt><trkpt lat="31.691586907389077" lon="-6.368625842560735"><ele>1968.0</ele><time>2026-05-04T12:07:11.999Z</time></trkpt><trkpt lat="31.6915016201559" lon="-6.3687862603988314"><ele>1968.0</ele><time>2026-05-04T12:07:12.999Z</time></trkpt><trkpt lat="31.691420062945728" lon="-6.3689395150435715"><ele>1965.75</ele><time>2026-05-04T12:07:13.999Z</time></trkpt><trkpt lat="31.69134457421788" lon="-6.3690830871505355"><ele>1963.5</ele><time>2026-05-04T12:07:14.999Z</time></trkpt><trkpt lat="31.69127015757592" lon="-6.3692219567691915"><ele>1961.25</ele><time>2026-05-04T12:07:15.999Z</time></trkpt><trkpt lat="31.69118248362218" lon="-6.369358107587917"><ele>1959.0</ele><time>2026-05-04T12:07:16.999Z</time></trkpt><trkpt lat="31.69108328897932" lon="-6.369490171144506"><ele>1959.0</ele><time>2026-05-04T12:07:17.999Z</time></trkpt><trkpt lat="31.69097341084588" lon="-6.369606422527485"><ele>1959.0</ele><time>2026-05-04T12:07:18.999Z</time></trkpt><trkpt lat="31.690864797148947" lon="-6.36971433370277"><ele>1959.0</ele><time>2026-05-04T12:07:19.999Z</time></trkpt><trkpt lat="31.690755830035396" lon="-6.369810483513833"><ele>1959.0</ele><time>2026-05-04T12:07:20.999Z</time></trkpt><trkpt lat="31.690647620944496" lon="-6.369896166548786"><ele>1962.5</ele><time>2026-05-04T12:07:21.999Z</time></trkpt><trkpt lat="31.690541835138646" lon="-6.369982274997687"><ele>1966.0</ele><time>2026-05-04T12:07:22.999Z</time></trkpt><trkpt lat="31.690453006802905" lon="-6.370087361150975"><ele>1969.5</ele><time>2026-05-04T12:07:23.999Z</time></trkpt><trkpt lat="31.690388906074453" lon="-6.370212066188833"><ele>1973.0</ele><time>2026-05-04T12:07:24.999Z</time></trkpt><trkpt lat="31.690310888092327" lon="-6.3703265474387765"><ele>1970.25</ele><time>2026-05-04T12:07:25.999Z</time></trkpt><trkpt lat="31.690237898869054" lon="-6.370444916057803"><ele>1967.5</ele><time>2026-05-04T12:07:26.999Z</time></trkpt><trkpt lat="31.69015667670264" lon="-6.3705621812567745"><ele>1964.75</ele><time>2026-05-04T12:07:27.999Z</time></trkpt><trkpt lat="31.690060885730137" lon="-6.370677905454562"><ele>1962.0</ele><time>2026-05-04T12:07:28.999Z</time></trkpt><trkpt lat="31.689966188934463" lon="-6.370792300978619"><ele>1962.0</ele><time>2026-05-04T12:07:29.999Z</time></trkpt><trkpt lat="31.68985376817333" lon="-6.370913546521001"><ele>1962.0</ele><time>2026-05-04T12:07:30.999Z</time></trkpt><trkpt lat="31.68973485916383" lon="-6.371047142892281"><ele>1962.0</ele><time>2026-05-04T12:07:31.999Z</time></trkpt><trkpt lat="31.689605824502852" lon="-6.371183810664757"><ele>1962.0</ele><time>2026-05-04T12:07:32.999Z</time></trkpt><trkpt lat="31.689470947360352" lon="-6.371325308356309"><ele>1962.0</ele><time>2026-05-04T12:07:33.999Z</time></trkpt><trkpt lat="31.689331136950425" lon="-6.3714743114348975"><ele>1962.0</ele><time>2026-05-04T12:07:34.999Z</time></trkpt><trkpt lat="31.68920763158501" lon="-6.371642235112325"><ele>1959.6666666666665</ele><time>2026-05-04T12:07:35.999Z</time></trkpt><trkpt lat="31.689099321099246" lon="-6.371815003096409"><ele>1957.3333333333333</ele><time>2026-05-04T12:07:36.999Z</time></trkpt><trkpt lat="31.688989626636616" lon="-6.371974204584105"><ele>1955.0</ele><time>2026-05-04T12:07:37.999Z</time></trkpt><trkpt lat="31.688881819410085" lon="-6.372121247652468"><ele>1952.75</ele><time>2026-05-04T12:07:38.999Z</time></trkpt><trkpt lat="31.688778099848633" lon="-6.372257622791821"><ele>1950.5</ele><time>2026-05-04T12:07:39.999Z</time></trkpt><trkpt lat="31.688686423329056" lon="-6.372380052513487"><ele>1948.25</ele><time>2026-05-04T12:07:40.999Z</time></trkpt><trkpt lat="31.688612220238326" lon="-6.372501651182123"><ele>1946.0</ele><time>2026-05-04T12:07:41.999Z</time></trkpt><trkpt lat="31.68853041041986" lon="-6.372616064236259"><ele>1946.0</ele><time>2026-05-04T12:07:42.999Z</time></trkpt><trkpt lat="31.688477990457464" lon="-6.372728821297828"><ele>1946.0</ele><time>2026-05-04T12:07:43.999Z</time></trkpt><trkpt lat="31.688439783937866" lon="-6.372844954921443"><ele>1946.0</ele><time>2026-05-04T12:07:44.999Z</time></trkpt><trkpt lat="31.688426712372205" lon="-6.3729750904249824"><ele>1946.0</ele><time>2026-05-04T12:07:45.999Z</time></trkpt><trkpt lat="31.68842377666212" lon="-6.37312157274044"><ele>1948.0</ele><time>2026-05-04T12:07:46.999Z</time></trkpt><trkpt lat="31.68843079172501" lon="-6.373286139650458"><ele>1950.0</ele><time>2026-05-04T12:07:47.999Z</time></trkpt><trkpt lat="31.688444100510583" lon="-6.373468476968761"><ele>1952.0</ele><time>2026-05-04T12:07:48.999Z</time></trkpt><trkpt lat="31.688464283673913" lon="-6.373661762311518"><ele>1952.0</ele><time>2026-05-04T12:07:49.999Z</time></trkpt><trkpt lat="31.688500505073208" lon="-6.373854634701761"><ele>1952.0</ele><time>2026-05-04T12:07:50.999Z</time></trkpt><trkpt lat="31.68853210024979" lon="-6.374038768635082"><ele>1952.0</ele><time>2026-05-04T12:07:51.999Z</time></trkpt><trkpt lat="31.68859080866916" lon="-6.374209393466998"><ele>1955.5</ele><time>2026-05-04T12:07:52.999Z</time></trkpt><trkpt lat="31.688645469618013" lon="-6.374369533719976"><ele>1959.0</ele><time>2026-05-04T12:07:53.999Z</time></trkpt><trkpt lat="31.688717535561718" lon="-6.374512118455742"><ele>1962.5</ele><time>2026-05-04T12:07:54.999Z</time></trkpt><trkpt lat="31.688809854362702" lon="-6.374636276414446"><ele>1966.0</ele><time>2026-05-04T12:07:55.999Z</time></trkpt><trkpt lat="31.68889950024138" lon="-6.374760771105877"><ele>1966.0</ele><time>2026-05-04T12:07:56.999Z</time></trkpt><trkpt lat="31.68897605022674" lon="-6.374896389083055"><ele>1966.0</ele><time>2026-05-04T12:07:57.999Z</time></trkpt><trkpt lat="31.68903667712927" lon="-6.375031411973514"><ele>1966.0</ele><time>2026-05-04T12:07:58.999Z</time></trkpt><trkpt lat="31.68909721558489" lon="-6.375155420953739"><ele>1966.0</ele><time>2026-05-04T12:07:59.999Z</time></trkpt><trkpt lat="31.689154283308387" lon="-6.375262512494533"><ele>1966.0</ele><time>2026-05-04T12:08:00.999Z</time></trkpt><trkpt lat="31.689202978360253" lon="-6.375360300755173"><ele>1966.0</ele><time>2026-05-04T12:08:01.999Z</time></trkpt><trkpt lat="31.689207395616794" lon="-6.375453351332191"><ele>1966.0</ele><time>2026-05-04T12:08:02.999Z</time></trkpt><trkpt lat="31.68917209595673" lon="-6.375547003787454"><ele>1966.0</ele><time>2026-05-04T12:08:03.999Z</time></trkpt><trkpt lat="31.68910331761767" lon="-6.375629632196588"><ele>1966.0</ele><time>2026-05-04T12:08:04.999Z</time></trkpt><trkpt lat="31.689014292729222" lon="-6.375681454109552"><ele>1967.25</ele><time>2026-05-04T12:08:05.999Z</time></trkpt><trkpt lat="31.688909396528054" lon="-6.3757065778532"><ele>1968.5</ele><time>2026-05-04T12:08:06.999Z</time></trkpt><trkpt lat="31.688791853818458" lon="-6.375702414974775"><ele>1969.75</ele><time>2026-05-04T12:08:07.999Z</time></trkpt><trkpt lat="31.68866561327359" lon="-6.375682946818166"><ele>1971.0</ele><time>2026-05-04T12:08:08.999Z</time></trkpt><trkpt lat="31.6885438050607" lon="-6.375676891322968"><ele>1971.75</ele><time>2026-05-04T12:08:09.999Z</time></trkpt><trkpt lat="31.688425682352456" lon="-6.3756772984736365"><ele>1972.5</ele><time>2026-05-04T12:08:10.999Z</time></trkpt><trkpt lat="31.68830387668034" lon="-6.375696226097693"><ele>1973.25</ele><time>2026-05-04T12:08:11.999Z</time></trkpt><trkpt lat="31.688192105643672" lon="-6.3757588412652675"><ele>1974.0</ele><time>2026-05-04T12:08:12.999Z</time></trkpt><trkpt lat="31.68808477664204" lon="-6.375828337532986"><ele>1974.0</ele><time>2026-05-04T12:08:13.999Z</time></trkpt><trkpt lat="31.687985965750045" lon="-6.375900321964616"><ele>1974.0</ele><time>2026-05-04T12:08:14.999Z</time></trkpt><trkpt lat="31.687886572655017" lon="-6.375965035684161"><ele>1974.0</ele><time>2026-05-04T12:08:15.999Z</time></trkpt><trkpt lat="31.68777828882072" lon="-6.376007984252681"><ele>1974.0</ele><time>2026-05-04T12:08:16.999Z</time></trkpt><trkpt lat="31.68766517765617" lon="-6.376044289388398"><ele>1975.25</ele><time>2026-05-04T12:08:17.999Z</time></trkpt><trkpt lat="31.68753395945335" lon="-6.376028003783958"><ele>1976.5</ele><time>2026-05-04T12:08:18.999Z</time></trkpt><trkpt lat="31.687409445846093" lon="-6.375960246494777"><ele>1977.75</ele><time>2026-05-04T12:08:19.999Z</time></trkpt><trkpt lat="31.687279893206963" lon="-6.375922281499959"><ele>1979.0</ele><time>2026-05-04T12:08:20.999Z</time></trkpt><trkpt lat="31.687146865980147" lon="-6.375918005271358"><ele>1979.0</ele><time>2026-05-04T12:08:21.999Z</time></trkpt><trkpt lat="31.687025022915712" lon="-6.3759575939458655"><ele>1979.0</ele><time>2026-05-04T12:08:22.999Z</time></trkpt><trkpt lat="31.686937766905025" lon="-6.376068441394773"><ele>1979.0</ele><time>2026-05-04T12:08:23.999Z</time></trkpt><trkpt lat="31.686832209846056" lon="-6.376178072510605"><ele>1979.0</ele><time>2026-05-04T12:08:24.999Z</time></trkpt><trkpt lat="31.68672479795345" lon="-6.3762956909293464"><ele>1982.3333333333333</ele><time>2026-05-04T12:08:25.999Z</time></trkpt><trkpt lat="31.686620116469005" lon="-6.3764187186691625"><ele>1985.6666666666665</ele><time>2026-05-04T12:08:26.999Z</time></trkpt><trkpt lat="31.686523187075828" lon="-6.376545895725652"><ele>1989.0</ele><time>2026-05-04T12:08:27.999Z</time></trkpt><trkpt lat="31.686421584826057" lon="-6.376686184897404"><ele>1989.0</ele><time>2026-05-04T12:08:28.999Z</time></trkpt><trkpt lat="31.68630624695871" lon="-6.37683485872264"><ele>1989.0</ele><time>2026-05-04T12:08:29.999Z</time></trkpt><trkpt lat="31.686188083094418" lon="-6.376959851922144"><ele>1989.0</ele><time>2026-05-04T12:08:30.999Z</time></trkpt><trkpt lat="31.686078718616052" lon="-6.37708264253515"><ele>1985.75</ele><time>2026-05-04T12:08:31.999Z</time></trkpt><trkpt lat="31.685966160625338" lon="-6.377199962424173"><ele>1982.5</ele><time>2026-05-04T12:08:32.999Z</time></trkpt><trkpt lat="31.685871071558577" lon="-6.377331050946365"><ele>1979.25</ele><time>2026-05-04T12:08:33.999Z</time></trkpt><trkpt lat="31.685829004633593" lon="-6.377498287947216"><ele>1976.0</ele><time>2026-05-04T12:08:34.999Z</time></trkpt><trkpt lat="31.685799342616843" lon="-6.377662749862993"><ele>1976.0</ele><time>2026-05-04T12:08:35.999Z</time></trkpt><trkpt lat="31.6857893959638" lon="-6.377827960314107"><ele>1976.0</ele><time>2026-05-04T12:08:36.999Z</time></trkpt><trkpt lat="31.685790594179792" lon="-6.37799159347869"><ele>1976.0</ele><time>2026-05-04T12:08:37.999Z</time></trkpt><trkpt lat="31.685789552571165" lon="-6.378149946301782"><ele>1976.0</ele><time>2026-05-04T12:08:38.999Z</time></trkpt><trkpt lat="31.685858929542498" lon="-6.378275396521019"><ele>1974.6</ele><time>2026-05-04T12:08:39.999Z</time></trkpt><trkpt lat="31.68591074470979" lon="-6.37837880962733"><ele>1973.1999999999998</ele><time>2026-05-04T12:08:40.999Z</time></trkpt><trkpt lat="31.685934654444964" lon="-6.378479253436643"><ele>1971.8000000000002</ele><time>2026-05-04T12:08:41.999Z</time></trkpt><trkpt lat="31.685956097589365" lon="-6.378568331235104"><ele>1970.4</ele><time>2026-05-04T12:08:42.999Z</time></trkpt><trkpt lat="31.685903439800768" lon="-6.378679752040005"><ele>1969.0</ele><time>2026-05-04T12:08:43.999Z</time></trkpt><trkpt lat="31.685845071987597" lon="-6.378798591165162"><ele>1968.0</ele><time>2026-05-04T12:08:44.999Z</time></trkpt><trkpt lat="31.685779501180367" lon="-6.378914696038649"><ele>1967.0</ele><time>2026-05-04T12:08:45.999Z</time></trkpt><trkpt lat="31.685733960419444" lon="-6.379030690461729"><ele>1966.0</ele><time>2026-05-04T12:08:46.999Z</time></trkpt><trkpt lat="31.68574381966593" lon="-6.37915025843272"><ele>1965.0</ele><time>2026-05-04T12:08:47.999Z</time></trkpt><trkpt lat="31.685753679983215" lon="-6.379270601960005"><ele>1964.0</ele><time>2026-05-04T12:08:48.999Z</time></trkpt><trkpt lat="31.685833268446135" lon="-6.379385780843477"><ele>1964.0</ele><time>2026-05-04T12:08:49.999Z</time></trkpt><trkpt lat="31.685891762031723" lon="-6.3795078642147605"><ele>1964.0</ele><time>2026-05-04T12:08:50.999Z</time></trkpt><trkpt lat="31.685948022746846" lon="-6.379638139192651"><ele>1964.0</ele><time>2026-05-04T12:08:51.999Z</time></trkpt><trkpt lat="31.685974670942503" lon="-6.3797941723537255"><ele>1964.0</ele><time>2026-05-04T12:08:52.999Z</time></trkpt><trkpt lat="31.68596299209819" lon="-6.379959205455144"><ele>1962.5</ele><time>2026-05-04T12:08:53.999Z</time></trkpt><trkpt lat="31.68596770091123" lon="-6.380114933184963"><ele>1961.0</ele><time>2026-05-04T12:08:54.999Z</time></trkpt><trkpt lat="31.685973187427038" lon="-6.38026341324699"><ele>1959.5</ele><time>2026-05-04T12:08:55.999Z</time></trkpt><trkpt lat="31.68597791271284" lon="-6.380410687344237"><ele>1958.0</ele><time>2026-05-04T12:08:56.999Z</time></trkpt><trkpt lat="31.6860043951763" lon="-6.380552028157575"><ele>1958.0</ele><time>2026-05-04T12:08:57.999Z</time></trkpt><trkpt lat="31.68601533636656" lon="-6.3806723802596"><ele>1958.0000000000002</ele><time>2026-05-04T12:08:58.999Z</time></trkpt><trkpt lat="31.68599153953855" lon="-6.380777028894792"><ele>1958.0000000000002</ele><time>2026-05-04T12:08:59.999Z</time></trkpt><trkpt lat="31.685928389009483" lon="-6.380863169262167"><ele>1958.0</ele><time>2026-05-04T12:09:00.999Z</time></trkpt><trkpt lat="31.685846598228927" lon="-6.380939895685258"><ele>1958.0</ele><time>2026-05-04T12:09:01.999Z</time></trkpt><trkpt lat="31.68570014180238" lon="-6.380927582647871"><ele>1958.0</ele><time>2026-05-04T12:09:02.999Z</time></trkpt><trkpt lat="31.685565157685637" lon="-6.380904250526078"><ele>1958.0</ele><time>2026-05-04T12:09:03.999Z</time></trkpt><trkpt lat="31.685417286844164" lon="-6.380886336363758"><ele>1958.0</ele><time>2026-05-04T12:09:04.999Z</time></trkpt><trkpt lat="31.685266677912573" lon="-6.380791195723329"><ele>1957.3333333333333</ele><time>2026-05-04T12:09:05.999Z</time></trkpt><trkpt lat="31.68512722805691" lon="-6.380701244917106"><ele>1956.6666666666665</ele><time>2026-05-04T12:09:06.999Z</time></trkpt><trkpt lat="31.684989484541248" lon="-6.380635006183662"><ele>1956.0</ele><time>2026-05-04T12:09:07.999Z</time></trkpt><trkpt lat="31.68485840022308" lon="-6.380564405462235"><ele>1953.0</ele><time>2026-05-04T12:09:08.999Z</time></trkpt><trkpt lat="31.684726462972467" lon="-6.380491226680613"><ele>1950.0</ele><time>2026-05-04T12:09:09.999Z</time></trkpt><trkpt lat="31.684594828187343" lon="-6.380423636649839"><ele>1947.0</ele><time>2026-05-04T12:09:10.999Z</time></trkpt><trkpt lat="31.684462384093894" lon="-6.3803578893686"><ele>1944.0</ele><time>2026-05-04T12:09:11.999Z</time></trkpt><trkpt lat="31.684328641078572" lon="-6.380293361046095"><ele>1944.0</ele><time>2026-05-04T12:09:12.999Z</time></trkpt><trkpt lat="31.684197933202757" lon="-6.380241164751523"><ele>1944.0</ele><time>2026-05-04T12:09:13.999Z</time></trkpt><trkpt lat="31.68407189658929" lon="-6.380200333157116"><ele>1944.0</ele><time>2026-05-04T12:09:14.999Z</time></trkpt><trkpt lat="31.683964880136713" lon="-6.380167254052097"><ele>1944.0</ele><time>2026-05-04T12:09:15.999Z</time></trkpt><trkpt lat="31.683868019812294" lon="-6.3801395459475545"><ele>1944.0</ele><time>2026-05-04T12:09:16.999Z</time></trkpt><trkpt lat="31.68376741660033" lon="-6.38012056563357"><ele>1944.0</ele><time>2026-05-04T12:09:17.999Z</time></trkpt><trkpt lat="31.683682735463762" lon="-6.380165605394041"><ele>1944.0</ele><time>2026-05-04T12:09:18.999Z</time></trkpt><trkpt lat="31.683596716382915" lon="-6.3802545896350535"><ele>1944.0</ele><time>2026-05-04T12:09:19.999Z</time></trkpt><trkpt lat="31.68351435003944" lon="-6.380361465335564"><ele>1944.0</ele><time>2026-05-04T12:09:20.999Z</time></trkpt><trkpt lat="31.68342062217101" lon="-6.380474034513005"><ele>1945.25</ele><time>2026-05-04T12:09:21.999Z</time></trkpt><trkpt lat="31.683350294250936" lon="-6.3806148736043475"><ele>1946.5</ele><time>2026-05-04T12:09:22.999Z</time></trkpt><trkpt lat="31.683281102349977" lon="-6.380752877466476"><ele>1947.75</ele><time>2026-05-04T12:09:23.999Z</time></trkpt><trkpt lat="31.683209982107055" lon="-6.380877719688491"><ele>1949.0</ele><time>2026-05-04T12:09:24.999Z</time></trkpt><trkpt lat="31.683163026248177" lon="-6.381023068648851"><ele>1949.0</ele><time>2026-05-04T12:09:25.999Z</time></trkpt><trkpt lat="31.68315192145519" lon="-6.381182737370035"><ele>1949.0</ele><time>2026-05-04T12:09:26.999Z</time></trkpt><trkpt lat="31.683142951087042" lon="-6.381344866958379"><ele>1949.0</ele><time>2026-05-04T12:09:27.999Z</time></trkpt><trkpt lat="31.683128162712308" lon="-6.381510840232941"><ele>1949.0</ele><time>2026-05-04T12:09:28.999Z</time></trkpt><trkpt lat="31.68313913177825" lon="-6.3816697282652814"><ele>1948.75</ele><time>2026-05-04T12:09:29.999Z</time></trkpt><trkpt lat="31.683139422095856" lon="-6.381826734866928"><ele>1948.5</ele><time>2026-05-04T12:09:30.999Z</time></trkpt><trkpt lat="31.683107303697938" lon="-6.381981642318286"><ele>1948.25</ele><time>2026-05-04T12:09:31.999Z</time></trkpt><trkpt lat="31.683036792106986" lon="-6.3821377123589"><ele>1948.0</ele><time>2026-05-04T12:09:32.999Z</time></trkpt><trkpt lat="31.68293270153271" lon="-6.382288489138732"><ele>1948.6666666666667</ele><time>2026-05-04T12:09:33.999Z</time></trkpt><trkpt lat="31.68282337708408" lon="-6.382441605301594"><ele>1949.3333333333335</ele><time>2026-05-04T12:09:34.999Z</time></trkpt><trkpt lat="31.682722829501454" lon="-6.382596480776995"><ele>1950.0</ele><time>2026-05-04T12:09:35.999Z</time></trkpt><trkpt lat="31.682634212593108" lon="-6.382742450504037"><ele>1948.0</ele><time>2026-05-04T12:09:36.999Z</time></trkpt><trkpt lat="31.68255849891169" lon="-6.382884569305877"><ele>1946.0</ele><time>2026-05-04T12:09:37.999Z</time></trkpt><trkpt lat="31.68252794741324" lon="-6.383042954972986"><ele>1944.0</ele><time>2026-05-04T12:09:38.999Z</time></trkpt><trkpt lat="31.682477901302043" lon="-6.383196835779782"><ele>1942.0</ele><time>2026-05-04T12:09:39.999Z</time></trkpt><trkpt lat="31.682453838804093" lon="-6.383352649510396"><ele>1942.0</ele><time>2026-05-04T12:09:41Z</time></trkpt><trkpt lat="31.68241759899486" lon="-6.383497452067832"><ele>1942.0</ele><time>2026-05-04T12:09:42Z</time></trkpt><trkpt lat="31.68237826394827" lon="-6.383640523179433"><ele>1942.0</ele><time>2026-05-04T12:09:43Z</time></trkpt><trkpt lat="31.68234479389651" lon="-6.3837819497722235"><ele>1942.0</ele><time>2026-05-04T12:09:44Z</time></trkpt><trkpt lat="31.682315064434" lon="-6.383922496466311"><ele>1943.0</ele><time>2026-05-04T12:09:45Z</time></trkpt><trkpt lat="31.682285212020194" lon="-6.384062350154501"><ele>1944.0</ele><time>2026-05-04T12:09:46Z</time></trkpt><trkpt lat="31.682258877289687" lon="-6.384194728061966"><ele>1945.0</ele><time>2026-05-04T12:09:47Z</time></trkpt><trkpt lat="31.68223254275869" lon="-6.384326834253506"><ele>1946.0</ele><time>2026-05-04T12:09:48Z</time></trkpt><trkpt lat="31.682204079002997" lon="-6.38445520159738"><ele>1946.0</ele><time>2026-05-04T12:09:49Z</time></trkpt><trkpt lat="31.682177165095162" lon="-6.384585946866546"><ele>1946.0</ele><time>2026-05-04T12:09:50Z</time></trkpt><trkpt lat="31.682150418890455" lon="-6.38471795634633"><ele>1946.0</ele><time>2026-05-04T12:09:51Z</time></trkpt><trkpt lat="31.682123621147717" lon="-6.3848505295139715"><ele>1946.0</ele><time>2026-05-04T12:09:52Z</time></trkpt><trkpt lat="31.682096273697766" lon="-6.384985051423715"><ele>1947.25</ele><time>2026-05-04T12:09:53Z</time></trkpt><trkpt lat="31.682067235412774" lon="-6.3851168646835115"><ele>1948.5</ele><time>2026-05-04T12:09:54Z</time></trkpt><trkpt lat="31.682035478518575" lon="-6.385250760493032"><ele>1949.75</ele><time>2026-05-04T12:09:55Z</time></trkpt><trkpt lat="31.6820036751932" lon="-6.385380944389921"><ele>1951.0</ele><time>2026-05-04T12:09:56Z</time></trkpt><trkpt lat="31.681972156216435" lon="-6.385509604661862"><ele>1952.1999999999998</ele><time>2026-05-04T12:09:57Z</time></trkpt><trkpt lat="31.681939552884316" lon="-6.385633562748064"><ele>1953.3999999999999</ele><time>2026-05-04T12:09:58Z</time></trkpt><trkpt lat="31.681910491069104" lon="-6.385757416900765"><ele>1954.6</ele><time>2026-05-04T12:09:59Z</time></trkpt><trkpt lat="31.681882671189694" lon="-6.3858805256672815"><ele>1955.8</ele><time>2026-05-04T12:10:00Z</time></trkpt><trkpt lat="31.68185364498017" lon="-6.38600036018769"><ele>1957.0</ele><time>2026-05-04T12:10:01Z</time></trkpt><trkpt lat="31.681815822992725" lon="-6.386111627853853"><ele>1953.8</ele><time>2026-05-04T12:10:02Z</time></trkpt><trkpt lat="31.681763350111606" lon="-6.386215699448221"><ele>1950.6</ele><time>2026-05-04T12:10:03Z</time></trkpt><trkpt lat="31.68171415314334" lon="-6.386321845011675"><ele>1947.3999999999999</ele><time>2026-05-04T12:10:04Z</time></trkpt><trkpt lat="31.681624011207496" lon="-6.386391702889297"><ele>1944.1999999999998</ele><time>2026-05-04T12:10:05Z</time></trkpt><trkpt lat="31.681539808611944" lon="-6.386457728482792"><ele>1941.0</ele><time>2026-05-04T12:10:06Z</time></trkpt><trkpt lat="31.68146559398902" lon="-6.3865472847982145"><ele>1941.0</ele><time>2026-05-04T12:10:07Z</time></trkpt><trkpt lat="31.68134381797843" lon="-6.38659665266943"><ele>1941.0</ele><time>2026-05-04T12:10:08Z</time></trkpt><trkpt lat="31.681227707565633" lon="-6.386643617093399"><ele>1941.0</ele><time>2026-05-04T12:10:09Z</time></trkpt><trkpt lat="31.681106738558054" lon="-6.386692546878299"><ele>1941.0</ele><time>2026-05-04T12:10:10Z</time></trkpt><trkpt lat="31.680982140693324" lon="-6.386743334232576"><ele>1937.5</ele><time>2026-05-04T12:10:11Z</time></trkpt><trkpt lat="31.680861593933436" lon="-6.386793801781766"><ele>1934.0</ele><time>2026-05-04T12:10:12Z</time></trkpt><trkpt lat="31.68074551130438" lon="-6.3868569500369965"><ele>1930.5</ele><time>2026-05-04T12:10:13Z</time></trkpt><trkpt lat="31.680632704261306" lon="-6.386918316363683"><ele>1927.0</ele><time>2026-05-04T12:10:14Z</time></trkpt><trkpt lat="31.680537485667855" lon="-6.3870037406375335"><ele>1927.0</ele><time>2026-05-04T12:10:15Z</time></trkpt><trkpt lat="31.680436970263646" lon="-6.387104563584808"><ele>1927.0</ele><time>2026-05-04T12:10:16Z</time></trkpt><trkpt lat="31.680333989544632" lon="-6.3872069746291755"><ele>1927.0</ele><time>2026-05-04T12:10:17Z</time></trkpt><trkpt lat="31.680226361449936" lon="-6.387314602665502"><ele>1927.0</ele><time>2026-05-04T12:10:18Z</time></trkpt><trkpt lat="31.680115451359466" lon="-6.387425512771376"><ele>1925.5</ele><time>2026-05-04T12:10:19Z</time></trkpt><trkpt lat="31.68000169967545" lon="-6.38753843127319"><ele>1924.0</ele><time>2026-05-04T12:10:20Z</time></trkpt><trkpt lat="31.679888135919583" lon="-6.387650315197755"><ele>1922.5</ele><time>2026-05-04T12:10:21Z</time></trkpt><trkpt lat="31.679768140948983" lon="-6.387748486847144"><ele>1921.0</ele><time>2026-05-04T12:10:22Z</time></trkpt><trkpt lat="31.67966098426735" lon="-6.387861193983415"><ele>1921.0</ele><time>2026-05-04T12:10:23Z</time></trkpt><trkpt lat="31.67955871034595" lon="-6.38797508533021"><ele>1921.0</ele><time>2026-05-04T12:10:24Z</time></trkpt><trkpt lat="31.679472387838377" lon="-6.388100449358519"><ele>1921.0</ele><time>2026-05-04T12:10:25Z</time></trkpt><trkpt lat="31.679402847519068" lon="-6.388241086935083"><ele>1921.0</ele><time>2026-05-04T12:10:26Z</time></trkpt><trkpt lat="31.679344289562852" lon="-6.388389461651229"><ele>1920.75</ele><time>2026-05-04T12:10:27Z</time></trkpt><trkpt lat="31.679285059712882" lon="-6.38854136028336"><ele>1920.5</ele><time>2026-05-04T12:10:28Z</time></trkpt><trkpt lat="31.679218820188954" lon="-6.3886964031655795"><ele>1920.25</ele><time>2026-05-04T12:10:29Z</time></trkpt><trkpt lat="31.679143065172106" lon="-6.3888496046034655"><ele>1920.0</ele><time>2026-05-04T12:10:30Z</time></trkpt><trkpt lat="31.679072436590857" lon="-6.389009563001165"><ele>1920.0</ele><time>2026-05-04T12:10:31Z</time></trkpt><trkpt lat="31.67901647386947" lon="-6.3891786824794625"><ele>1920.0</ele><time>2026-05-04T12:10:32Z</time></trkpt><trkpt lat="31.678974957462952" lon="-6.389356966126376"><ele>1920.0</ele><time>2026-05-04T12:10:33Z</time></trkpt><trkpt lat="31.678940423419586" lon="-6.389542056800512"><ele>1922.0</ele><time>2026-05-04T12:10:34Z</time></trkpt><trkpt lat="31.678905069068783" lon="-6.389731417126783"><ele>1924.0</ele><time>2026-05-04T12:10:35Z</time></trkpt><trkpt lat="31.678869496312476" lon="-6.389923476473338"><ele>1926.0</ele><time>2026-05-04T12:10:36Z</time></trkpt><trkpt lat="31.678833458092033" lon="-6.3901184424218"><ele>1926.0</ele><time>2026-05-04T12:10:37Z</time></trkpt><trkpt lat="31.678801886997842" lon="-6.390315328647454"><ele>1926.0</ele><time>2026-05-04T12:10:38Z</time></trkpt><trkpt lat="31.678770096525557" lon="-6.390512546938109"><ele>1926.0</ele><time>2026-05-04T12:10:39Z</time></trkpt><trkpt lat="31.678736871334088" lon="-6.390714655502398"><ele>1930.3333333333335</ele><time>2026-05-04T12:10:40Z</time></trkpt><trkpt lat="31.678704487017807" lon="-6.39091586625742"><ele>1934.6666666666667</ele><time>2026-05-04T12:10:41Z</time></trkpt><trkpt lat="31.678658795147086" lon="-6.391118977200108"><ele>1939.0</ele><time>2026-05-04T12:10:42Z</time></trkpt><trkpt lat="31.678607690251333" lon="-6.391321727282646"><ele>1929.6666666666667</ele><time>2026-05-04T12:10:43Z</time></trkpt><trkpt lat="31.67856360224297" lon="-6.3915265039659905"><ele>1920.3333333333335</ele><time>2026-05-04T12:10:44Z</time></trkpt><trkpt lat="31.678517061372496" lon="-6.391727468846203"><ele>1911.0</ele><time>2026-05-04T12:10:45Z</time></trkpt><trkpt lat="31.678461077545904" lon="-6.391927680617867"><ele>1911.0</ele><time>2026-05-04T12:10:46Z</time></trkpt><trkpt lat="31.678399382655428" lon="-6.392124984313365"><ele>1911.0</ele><time>2026-05-04T12:10:47Z</time></trkpt><trkpt lat="31.6783355727271" lon="-6.392318010667783"><ele>1911.0</ele><time>2026-05-04T12:10:48Z</time></trkpt><trkpt lat="31.678267701913033" lon="-6.392507100119213"><ele>1912.3333333333335</ele><time>2026-05-04T12:10:49Z</time></trkpt><trkpt lat="31.678200835560137" lon="-6.392692227345976"><ele>1913.6666666666667</ele><time>2026-05-04T12:10:50Z</time></trkpt><trkpt lat="31.67813861972714" lon="-6.392878326108506"><ele>1915.0</ele><time>2026-05-04T12:10:51Z</time></trkpt><trkpt lat="31.678080668304123" lon="-6.3930600385821"><ele>1918.3333333333335</ele><time>2026-05-04T12:10:52Z</time></trkpt><trkpt lat="31.678023990236696" lon="-6.393238625054671"><ele>1921.6666666666665</ele><time>2026-05-04T12:10:53Z</time></trkpt><trkpt lat="31.677963736540534" lon="-6.39341092054832"><ele>1925.0</ele><time>2026-05-04T12:10:54Z</time></trkpt><trkpt lat="31.67789735147348" lon="-6.393575854305504"><ele>1925.0</ele><time>2026-05-04T12:10:55Z</time></trkpt><trkpt lat="31.677823826758168" lon="-6.393737204990898"><ele>1925.0</ele><time>2026-05-04T12:10:56Z</time></trkpt><trkpt lat="31.67774999567055" lon="-6.393894336895185"><ele>1925.0</ele><time>2026-05-04T12:10:57Z</time></trkpt><trkpt lat="31.677674929307916" lon="-6.394047947711369"><ele>1922.0</ele><time>2026-05-04T12:10:58Z</time></trkpt><trkpt lat="31.67760111532132" lon="-6.39419971046563"><ele>1919.0</ele><time>2026-05-04T12:10:59Z</time></trkpt><trkpt lat="31.677550932410977" lon="-6.394362928403426"><ele>1916.0</ele><time>2026-05-04T12:11:00Z</time></trkpt><trkpt lat="31.67749046888688" lon="-6.394523040808651"><ele>1913.0</ele><time>2026-05-04T12:11:01Z</time></trkpt><trkpt lat="31.67741953660531" lon="-6.39468428622753"><ele>1913.0</ele><time>2026-05-04T12:11:02Z</time></trkpt><trkpt lat="31.677343804832393" lon="-6.3948297513689125"><ele>1913.0</ele><time>2026-05-04T12:11:03Z</time></trkpt><trkpt lat="31.677258139159118" lon="-6.394958002952694"><ele>1913.0</ele><time>2026-05-04T12:11:04Z</time></trkpt><trkpt lat="31.677190018649103" lon="-6.3950913075068"><ele>1913.0</ele><time>2026-05-04T12:11:05Z</time></trkpt><trkpt lat="31.67713280716375" lon="-6.395220356338336"><ele>1913.0</ele><time>2026-05-04T12:11:06Z</time></trkpt><trkpt lat="31.677111808339642" lon="-6.395366824297663"><ele>1913.0</ele><time>2026-05-04T12:11:07Z</time></trkpt><trkpt lat="31.677063087211984" lon="-6.395504488337875"><ele>1913.0</ele><time>2026-05-04T12:11:08Z</time></trkpt><trkpt lat="31.677050078883276" lon="-6.395656799392498"><ele>1913.0</ele><time>2026-05-04T12:11:09Z</time></trkpt><trkpt lat="31.67702883114389" lon="-6.395811078462042"><ele>1916.5</ele><time>2026-05-04T12:11:10Z</time></trkpt><trkpt lat="31.67700499807928" lon="-6.395969617824582"><ele>1920.0</ele><time>2026-05-04T12:11:11Z</time></trkpt><trkpt lat="31.676982464495104" lon="-6.3961376705981925"><ele>1923.5</ele><time>2026-05-04T12:11:12Z</time></trkpt><trkpt lat="31.676963316326262" lon="-6.396306779132284"><ele>1927.0</ele><time>2026-05-04T12:11:13Z</time></trkpt><trkpt lat="31.676941436209173" lon="-6.39647620315528"><ele>1922.0</ele><time>2026-05-04T12:11:14Z</time></trkpt><trkpt lat="31.676925568197927" lon="-6.396637108550446"><ele>1917.0</ele><time>2026-05-04T12:11:15Z</time></trkpt><trkpt lat="31.676907767799715" lon="-6.3968069065308155"><ele>1912.0</ele><time>2026-05-04T12:11:16Z</time></trkpt><trkpt lat="31.676897577442002" lon="-6.396978183443853"><ele>1907.0</ele><time>2026-05-04T12:11:17Z</time></trkpt><trkpt lat="31.676879962331476" lon="-6.3971507393531555"><ele>1907.0</ele><time>2026-05-04T12:11:18Z</time></trkpt><trkpt lat="31.676865224084832" lon="-6.397333074684766"><ele>1907.0</ele><time>2026-05-04T12:11:19Z</time></trkpt><trkpt lat="31.676861823511622" lon="-6.397520197516821"><ele>1907.0</ele><time>2026-05-04T12:11:20Z</time></trkpt><trkpt lat="31.676850082247956" lon="-6.397713173593199"><ele>1907.0</ele><time>2026-05-04T12:11:21Z</time></trkpt><trkpt lat="31.67683349312374" lon="-6.39791055271537"><ele>1907.0</ele><time>2026-05-04T12:11:22Z</time></trkpt><trkpt lat="31.676831544632176" lon="-6.398108424098139"><ele>1907.0</ele><time>2026-05-04T12:11:23Z</time></trkpt><trkpt lat="31.67684944287555" lon="-6.398310468072469"><ele>1907.3333333333333</ele><time>2026-05-04T12:11:24Z</time></trkpt><trkpt lat="31.676866108913305" lon="-6.398508641139977"><ele>1907.6666666666665</ele><time>2026-05-04T12:11:25Z</time></trkpt><trkpt lat="31.676866918128916" lon="-6.398702720982183"><ele>1908.0</ele><time>2026-05-04T12:11:26Z</time></trkpt><trkpt lat="31.676890640091173" lon="-6.398892553705252"><ele>1909.3333333333335</ele><time>2026-05-04T12:11:27Z</time></trkpt><trkpt lat="31.67690378662799" lon="-6.399081306504023"><ele>1910.6666666666667</ele><time>2026-05-04T12:11:28Z</time></trkpt><trkpt lat="31.676922334292016" lon="-6.3992640343565075"><ele>1912.0</ele><time>2026-05-04T12:11:29Z</time></trkpt><trkpt lat="31.67694329874844" lon="-6.399441883735224"><ele>1918.0</ele><time>2026-05-04T12:11:30Z</time></trkpt><trkpt lat="31.67696363198403" lon="-6.399604733764726"><ele>1924.0</ele><time>2026-05-04T12:11:31Z</time></trkpt><trkpt lat="31.677009193735" lon="-6.3997520687698675"><ele>1930.0</ele><time>2026-05-04T12:11:32Z</time></trkpt><trkpt lat="31.67704407535139" lon="-6.399889452094247"><ele>1936.0</ele><time>2026-05-04T12:11:33Z</time></trkpt><trkpt lat="31.67707593963299" lon="-6.400020008086927"><ele>1936.0</ele><time>2026-05-04T12:11:34Z</time></trkpt><trkpt lat="31.677110855311163" lon="-6.400145882609534"><ele>1936.0</ele><time>2026-05-04T12:11:35Z</time></trkpt><trkpt lat="31.677145190963785" lon="-6.400264430451992"><ele>1936.0</ele><time>2026-05-04T12:11:36Z</time></trkpt><trkpt lat="31.677189461786007" lon="-6.4003852344508925"><ele>1936.0</ele><time>2026-05-04T12:11:37Z</time></trkpt><trkpt lat="31.67724025953864" lon="-6.400511791150993"><ele>1931.0</ele><time>2026-05-04T12:11:38Z</time></trkpt><trkpt lat="31.677279321578318" lon="-6.400654292034698"><ele>1926.0</ele><time>2026-05-04T12:11:39Z</time></trkpt><trkpt lat="31.67733744921232" lon="-6.400786526372121"><ele>1921.0</ele><time>2026-05-04T12:11:40Z</time></trkpt><trkpt lat="31.677390633207008" lon="-6.4009096492982325"><ele>1916.0</ele><time>2026-05-04T12:11:41Z</time></trkpt><trkpt lat="31.677449358332787" lon="-6.401023124422441"><ele>1916.0</ele><time>2026-05-04T12:11:42Z</time></trkpt><trkpt lat="31.67753692489023" lon="-6.401072655796327"><ele>1916.0</ele><time>2026-05-04T12:11:43Z</time></trkpt><trkpt lat="31.677621421901275" lon="-6.401120929215827"><ele>1916.0</ele><time>2026-05-04T12:11:45Z</time></trkpt><trkpt lat="31.67769654307587" lon="-6.40113755564614"><ele>1916.0</ele><time>2026-05-04T12:11:47Z</time></trkpt><trkpt lat="31.67781751044418" lon="-6.401141363168027"><ele>1916.0</ele><time>2026-05-04T12:11:49Z</time></trkpt><trkpt lat="31.677892083602185" lon="-6.401188435071529"><ele>1917.6</ele><time>2026-05-04T12:11:50Z</time></trkpt><trkpt lat="31.67798440598534" lon="-6.401203629195962"><ele>1919.1999999999998</ele><time>2026-05-04T12:11:51Z</time></trkpt><trkpt lat="31.678046914189338" lon="-6.401291665489437"><ele>1920.8000000000002</ele><time>2026-05-04T12:11:52Z</time></trkpt><trkpt lat="31.678112606295507" lon="-6.401368775916666"><ele>1922.4</ele><time>2026-05-04T12:11:53Z</time></trkpt><trkpt lat="31.67812714805181" lon="-6.401511248930103"><ele>1924.0</ele><time>2026-05-04T12:11:54Z</time></trkpt><trkpt lat="31.678121193765563" lon="-6.4016613634265225"><ele>1922.75</ele><time>2026-05-04T12:11:55Z</time></trkpt><trkpt lat="31.678117223155837" lon="-6.401822300379246"><ele>1921.5</ele><time>2026-05-04T12:11:56Z</time></trkpt><trkpt lat="31.678067707675613" lon="-6.401997845745528"><ele>1920.25</ele><time>2026-05-04T12:11:57Z</time></trkpt><trkpt lat="31.67802230922349" lon="-6.402130169513931"><ele>1919.0</ele><time>2026-05-04T12:11:58Z</time></trkpt><trkpt lat="31.67797032851204" lon="-6.402248794182284"><ele>1919.0</ele><time>2026-05-04T12:11:59Z</time></trkpt><trkpt lat="31.677943124385383" lon="-6.402374356640467"><ele>1919.0</ele><time>2026-05-04T12:12:00Z</time></trkpt><trkpt lat="31.677911175439895" lon="-6.402495047957008"><ele>1919.0</ele><time>2026-05-04T12:12:01Z</time></trkpt><trkpt lat="31.677876488350297" lon="-6.40261805216602"><ele>1919.0</ele><time>2026-05-04T12:12:02Z</time></trkpt><trkpt lat="31.677843410436513" lon="-6.402746996710227"><ele>1919.0</ele><time>2026-05-04T12:12:03Z</time></trkpt><trkpt lat="31.677794407487724" lon="-6.4028731979279385"><ele>1915.5</ele><time>2026-05-04T12:12:04Z</time></trkpt><trkpt lat="31.67773253133647" lon="-6.403001444346363"><ele>1912.0</ele><time>2026-05-04T12:12:05Z</time></trkpt><trkpt lat="31.67765509092759" lon="-6.403127875409505"><ele>1908.5</ele><time>2026-05-04T12:12:06Z</time></trkpt><trkpt lat="31.677553229104625" lon="-6.403246458503297"><ele>1905.0</ele><time>2026-05-04T12:12:07Z</time></trkpt><trkpt lat="31.67743301728635" lon="-6.403351177792357"><ele>1905.0</ele><time>2026-05-04T12:12:08Z</time></trkpt><trkpt lat="31.67731325296683" lon="-6.403465709004245"><ele>1905.0</ele><time>2026-05-04T12:12:09Z</time></trkpt><trkpt lat="31.67719636838456" lon="-6.403579021237946"><ele>1905.0</ele><time>2026-05-04T12:12:10Z</time></trkpt><trkpt lat="31.677089321673176" lon="-6.403687499710793"><ele>1905.0</ele><time>2026-05-04T12:12:11Z</time></trkpt><trkpt lat="31.676992253223005" lon="-6.403797771697741"><ele>1902.75</ele><time>2026-05-04T12:12:12Z</time></trkpt><trkpt lat="31.67692470098373" lon="-6.403937131217953"><ele>1900.5</ele><time>2026-05-04T12:12:13Z</time></trkpt><trkpt lat="31.676844717618497" lon="-6.404058579606834"><ele>1898.25</ele><time>2026-05-04T12:12:14Z</time></trkpt><trkpt lat="31.676765235616998" lon="-6.404179363410282"><ele>1896.0</ele><time>2026-05-04T12:12:15Z</time></trkpt><trkpt lat="31.67671426786391" lon="-6.404295615166827"><ele>1896.0</ele><time>2026-05-04T12:12:16Z</time></trkpt><trkpt lat="31.676667191049756" lon="-6.4044314013541985"><ele>1896.0</ele><time>2026-05-04T12:12:17Z</time></trkpt><trkpt lat="31.676644703493203" lon="-6.404563366797449"><ele>1896.0</ele><time>2026-05-04T12:12:18Z</time></trkpt><trkpt lat="31.6766217894984" lon="-6.404692463306111"><ele>1896.0</ele><time>2026-05-04T12:12:19Z</time></trkpt><trkpt lat="31.67660207326383" lon="-6.404801810923125"><ele>1896.0</ele><time>2026-05-04T12:12:20Z</time></trkpt><trkpt lat="31.676606489111606" lon="-6.404894442907622"><ele>1896.8</ele><time>2026-05-04T12:12:21Z</time></trkpt><trkpt lat="31.67661409288935" lon="-6.405000071377523"><ele>1897.6</ele><time>2026-05-04T12:12:22Z</time></trkpt><trkpt lat="31.676636162263048" lon="-6.405081999681238"><ele>1898.4</ele><time>2026-05-04T12:12:23Z</time></trkpt><trkpt lat="31.676662154954933" lon="-6.40520255602956"><ele>1899.2</ele><time>2026-05-04T12:12:25Z</time></trkpt><trkpt lat="31.67668185916832" lon="-6.405315070904264"><ele>1900.0</ele><time>2026-05-04T12:12:27Z</time></trkpt><trkpt lat="31.676694168409966" lon="-6.405447815837729"><ele>1899.3333333333335</ele><time>2026-05-04T12:12:29Z</time></trkpt><trkpt lat="31.67670840977787" lon="-6.405588643679983"><ele>1898.6666666666667</ele><time>2026-05-04T12:12:31Z</time></trkpt><trkpt lat="31.67673601051888" lon="-6.405734334576583"><ele>1898.0</ele><time>2026-05-04T12:12:33Z</time></trkpt><trkpt lat="31.67675729494111" lon="-6.405808154028495"><ele>1897.3333333333335</ele><time>2026-05-04T12:12:34Z</time></trkpt><trkpt lat="31.67677532852414" lon="-6.405880534762485"><ele>1896.6666666666667</ele><time>2026-05-04T12:12:35Z</time></trkpt><trkpt lat="31.67678369367078" lon="-6.4059615772833345"><ele>1896.0</ele><time>2026-05-04T12:12:36Z</time></trkpt><trkpt lat="31.676786198772252" lon="-6.406047489414367"><ele>1896.0</ele><time>2026-05-04T12:12:37Z</time></trkpt><trkpt lat="31.67677967641374" lon="-6.406136760918601"><ele>1896.0</ele><time>2026-05-04T12:12:38Z</time></trkpt><trkpt lat="31.676770074154973" lon="-6.406225412925476"><ele>1896.0</ele><time>2026-05-04T12:12:39Z</time></trkpt><trkpt lat="31.67674701226939" lon="-6.406314650312796"><ele>1896.0</ele><time>2026-05-04T12:12:40Z</time></trkpt><trkpt lat="31.676713196590796" lon="-6.4064187913588375"><ele>1896.0</ele><time>2026-05-04T12:12:41Z</time></trkpt><trkpt lat="31.676679256038785" lon="-6.4065438628557985"><ele>1896.0</ele><time>2026-05-04T12:12:42Z</time></trkpt><trkpt lat="31.67664424972926" lon="-6.406674745205201"><ele>1895.25</ele><time>2026-05-04T12:12:43Z</time></trkpt><trkpt lat="31.676620112777382" lon="-6.406809872723775"><ele>1894.5</ele><time>2026-05-04T12:12:44Z</time></trkpt><trkpt lat="31.67660514856341" lon="-6.406964344376858"><ele>1893.75</ele><time>2026-05-04T12:12:45Z</time></trkpt><trkpt lat="31.676591007872872" lon="-6.407142263792267"><ele>1893.0</ele><time>2026-05-04T12:12:46Z</time></trkpt><trkpt lat="31.67657697464834" lon="-6.407311193261839"><ele>1894.5</ele><time>2026-05-04T12:12:47Z</time></trkpt><trkpt lat="31.67656798225517" lon="-6.407481656072903"><ele>1896.0</ele><time>2026-05-04T12:12:48Z</time></trkpt><trkpt lat="31.676567581053266" lon="-6.407653800284344"><ele>1897.5</ele><time>2026-05-04T12:12:49Z</time></trkpt><trkpt lat="31.67657128413738" lon="-6.407821445960061"><ele>1899.0</ele><time>2026-05-04T12:12:50Z</time></trkpt><trkpt lat="31.676566300822145" lon="-6.407991210306163"><ele>1898.75</ele><time>2026-05-04T12:12:51Z</time></trkpt><trkpt lat="31.676552396677934" lon="-6.408160867854165"><ele>1898.5</ele><time>2026-05-04T12:12:52Z</time></trkpt><trkpt lat="31.676535241001012" lon="-6.40831935283383"><ele>1898.25</ele><time>2026-05-04T12:12:53Z</time></trkpt><trkpt lat="31.676511833246316" lon="-6.408466308717063"><ele>1898.0</ele><time>2026-05-04T12:12:54Z</time></trkpt><trkpt lat="31.676480838462634" lon="-6.408604469637782"><ele>1898.0</ele><time>2026-05-04T12:12:55Z</time></trkpt><trkpt lat="31.67644884363006" lon="-6.40874157643502"><ele>1898.0</ele><time>2026-05-04T12:12:56Z</time></trkpt><trkpt lat="31.67641770854802" lon="-6.408881006198098"><ele>1898.0</ele><time>2026-05-04T12:12:57Z</time></trkpt><trkpt lat="31.67638754852931" lon="-6.40902837033494"><ele>1898.0</ele><time>2026-05-04T12:12:58Z</time></trkpt><trkpt lat="31.67634903491544" lon="-6.40917925077488"><ele>1899.5</ele><time>2026-05-04T12:12:59Z</time></trkpt><trkpt lat="31.676302479975508" lon="-6.409329769060573"><ele>1901.0</ele><time>2026-05-04T12:13:00Z</time></trkpt><trkpt lat="31.67625257617419" lon="-6.409484022087155"><ele>1902.5</ele><time>2026-05-04T12:13:01Z</time></trkpt><trkpt lat="31.676206520478956" lon="-6.409631178367345"><ele>1904.0</ele><time>2026-05-04T12:13:02Z</time></trkpt><trkpt lat="31.676156346134963" lon="-6.409776869127926"><ele>1898.75</ele><time>2026-05-04T12:13:03Z</time></trkpt><trkpt lat="31.67610136156756" lon="-6.409927621175248"><ele>1893.5</ele><time>2026-05-04T12:13:04Z</time></trkpt><trkpt lat="31.676046204423432" lon="-6.410080035203462"><ele>1888.25</ele><time>2026-05-04T12:13:05Z</time></trkpt><trkpt lat="31.67599889098266" lon="-6.410226844483015"><ele>1883.0</ele><time>2026-05-04T12:13:06Z</time></trkpt><trkpt lat="31.67594935867497" lon="-6.410368484248114"><ele>1885.5</ele><time>2026-05-04T12:13:07Z</time></trkpt><trkpt lat="31.675892448585213" lon="-6.410509453799298"><ele>1888.0</ele><time>2026-05-04T12:13:08Z</time></trkpt><trkpt lat="31.67582798521539" lon="-6.41064344962327"><ele>1890.5</ele><time>2026-05-04T12:13:09Z</time></trkpt><trkpt lat="31.67576459188609" lon="-6.410775692577851"><ele>1893.0</ele><time>2026-05-04T12:13:10Z</time></trkpt><trkpt lat="31.675698183212386" lon="-6.410912190529815"><ele>1893.0</ele><time>2026-05-04T12:13:11Z</time></trkpt><trkpt lat="31.675625513339693" lon="-6.411050834575647"><ele>1893.0</ele><time>2026-05-04T12:13:12Z</time></trkpt><trkpt lat="31.6755483227625" lon="-6.411202498430097"><ele>1893.0</ele><time>2026-05-04T12:13:13Z</time></trkpt><trkpt lat="31.67547533144902" lon="-6.4113652130544345"><ele>1893.0</ele><time>2026-05-04T12:13:14Z</time></trkpt><trkpt lat="31.675400172890843" lon="-6.411537074752768"><ele>1890.6666666666665</ele><time>2026-05-04T12:13:15Z</time></trkpt><trkpt lat="31.675316400037207" lon="-6.411700032251373"><ele>1888.3333333333333</ele><time>2026-05-04T12:13:16Z</time></trkpt><trkpt lat="31.675230611512504" lon="-6.411852680213659"><ele>1886.0</ele><time>2026-05-04T12:13:17Z</time></trkpt><trkpt lat="31.67514843868438" lon="-6.411997392344551"><ele>1886.0</ele><time>2026-05-04T12:13:18Z</time></trkpt><trkpt lat="31.67507007408527" lon="-6.4121260070208725"><ele>1886.0</ele><time>2026-05-04T12:13:19Z</time></trkpt><trkpt lat="31.674995914814275" lon="-6.4122474718927585"><ele>1886.0</ele><time>2026-05-04T12:13:20Z</time></trkpt><trkpt lat="31.67491878084181" lon="-6.412363881386225"><ele>1886.0</ele><time>2026-05-04T12:13:21Z</time></trkpt><trkpt lat="31.674830223748184" lon="-6.412480741256569"><ele>1890.5</ele><time>2026-05-04T12:13:22Z</time></trkpt><trkpt lat="31.674736168827003" lon="-6.412601188764438"><ele>1895.0</ele><time>2026-05-04T12:13:23Z</time></trkpt><trkpt lat="31.67463556247292" lon="-6.412722717736778"><ele>1899.5</ele><time>2026-05-04T12:13:24Z</time></trkpt><trkpt lat="31.67453519027617" lon="-6.412850318123235"><ele>1904.0</ele><time>2026-05-04T12:13:25Z</time></trkpt><trkpt lat="31.67444326659864" lon="-6.412992958960951"><ele>1900.0</ele><time>2026-05-04T12:13:26Z</time></trkpt><trkpt lat="31.674359185515748" lon="-6.413149628482493"><ele>1896.0</ele><time>2026-05-04T12:13:27Z</time></trkpt><trkpt lat="31.67428082888295" lon="-6.413316923410203"><ele>1892.0</ele><time>2026-05-04T12:13:28Z</time></trkpt><trkpt lat="31.674203996657678" lon="-6.4134865891012165"><ele>1892.0</ele><time>2026-05-04T12:13:29Z</time></trkpt><trkpt lat="31.67412389126614" lon="-6.413655620752398"><ele>1892.0</ele><time>2026-05-04T12:13:30Z</time></trkpt><trkpt lat="31.674047620294292" lon="-6.413817746051571"><ele>1892.0</ele><time>2026-05-04T12:13:31Z</time></trkpt><trkpt lat="31.673973328412735" lon="-6.413977735235515"><ele>1896.0</ele><time>2026-05-04T12:13:32Z</time></trkpt><trkpt lat="31.673902350746854" lon="-6.41413261529711"><ele>1900.0</ele><time>2026-05-04T12:13:33Z</time></trkpt><trkpt lat="31.673833291575715" lon="-6.414283569211585"><ele>1904.0</ele><time>2026-05-04T12:13:34Z</time></trkpt><trkpt lat="31.673762076031533" lon="-6.414424658666081"><ele>1908.0</ele><time>2026-05-04T12:13:35Z</time></trkpt><trkpt lat="31.673688707449422" lon="-6.414553935456426"><ele>1912.0</ele><time>2026-05-04T12:13:36Z</time></trkpt><trkpt lat="31.673619831493586" lon="-6.414677067775435"><ele>1916.0</ele><time>2026-05-04T12:13:37Z</time></trkpt><trkpt lat="31.673554783947594" lon="-6.414796237493534"><ele>1920.0</ele><time>2026-05-04T12:13:38Z</time></trkpt><trkpt lat="31.6734959062969" lon="-6.414905131979894"><ele>1924.0</ele><time>2026-05-04T12:13:39Z</time></trkpt><trkpt lat="31.673441035108674" lon="-6.415017171004826"><ele>1919.0</ele><time>2026-05-04T12:13:40Z</time></trkpt><trkpt lat="31.673387717876004" lon="-6.415132288196355"><ele>1914.0</ele><time>2026-05-04T12:13:41Z</time></trkpt><trkpt lat="31.6733402798228" lon="-6.415239080654539"><ele>1909.0</ele><time>2026-05-04T12:13:42Z</time></trkpt><trkpt lat="31.673293215669357" lon="-6.415341787709438"><ele>1904.0</ele><time>2026-05-04T12:13:43Z</time></trkpt><trkpt lat="31.673254804733766" lon="-6.415430565191677"><ele>1899.0</ele><time>2026-05-04T12:13:44Z</time></trkpt><trkpt lat="31.673224480808678" lon="-6.415510548141077"><ele>1899.0</ele><time>2026-05-04T12:13:45Z</time></trkpt><trkpt lat="31.67319490706098" lon="-6.415583288282521"><ele>1899.0</ele><time>2026-05-04T12:13:46Z</time></trkpt><trkpt lat="31.67317045463414" lon="-6.415652879800087"><ele>1899.0</ele><time>2026-05-04T12:13:47Z</time></trkpt><trkpt lat="31.673152682022412" lon="-6.4157296410375775"><ele>1899.0</ele><time>2026-05-04T12:13:48Z</time></trkpt><trkpt lat="31.67313330375395" lon="-6.415813369332401"><ele>1899.0</ele><time>2026-05-04T12:13:49Z</time></trkpt><trkpt lat="31.673110817424284" lon="-6.415904306470231"><ele>1899.0</ele><time>2026-05-04T12:13:50Z</time></trkpt><trkpt lat="31.67307851023478" lon="-6.415988341085098"><ele>1899.0</ele><time>2026-05-04T12:13:51Z</time></trkpt><trkpt lat="31.673045358978914" lon="-6.416069915659426"><ele>1899.0</ele><time>2026-05-04T12:13:52Z</time></trkpt><trkpt lat="31.67301977113052" lon="-6.416149783921605"><ele>1899.0</ele><time>2026-05-04T12:13:53Z</time></trkpt><trkpt lat="31.672997246164247" lon="-6.416228475731563"><ele>1899.0</ele><time>2026-05-04T12:13:54Z</time></trkpt><trkpt lat="31.672975179197575" lon="-6.41630705854983"><ele>1899.0</ele><time>2026-05-04T12:13:55Z</time></trkpt><trkpt lat="31.672951648951113" lon="-6.416383974288675"><ele>1899.0</ele><time>2026-05-04T12:13:56Z</time></trkpt><trkpt lat="31.672922586431014" lon="-6.416455957737984"><ele>1899.0</ele><time>2026-05-04T12:13:57Z</time></trkpt><trkpt lat="31.672888281139976" lon="-6.416573398064673"><ele>1898.2</ele><time>2026-05-04T12:13:59Z</time></trkpt><trkpt lat="31.67290172726768" lon="-6.416698317272137"><ele>1897.4</ele><time>2026-05-04T12:14:01Z</time></trkpt><trkpt lat="31.67296448907792" lon="-6.416811202195332"><ele>1896.6</ele><time>2026-05-04T12:14:03Z</time></trkpt><trkpt lat="31.673023450222548" lon="-6.416873818429002"><ele>1895.8</ele><time>2026-05-04T12:14:04Z</time></trkpt><trkpt lat="31.673082827144636" lon="-6.4169420298577"><ele>1895.0</ele><time>2026-05-04T12:14:05Z</time></trkpt><trkpt lat="31.673141739962833" lon="-6.416997668725745"><ele>1894.9999999999998</ele><time>2026-05-04T12:14:06Z</time></trkpt><trkpt lat="31.673210448429067" lon="-6.417025226238759"><ele>1895.0</ele><time>2026-05-04T12:14:07Z</time></trkpt><trkpt lat="31.67329389402141" lon="-6.417030058428995"><ele>1895.0</ele><time>2026-05-04T12:14:08Z</time></trkpt><trkpt lat="31.673379213210517" lon="-6.417032729486316"><ele>1895.0</ele><time>2026-05-04T12:14:09Z</time></trkpt><trkpt lat="31.673470979482005" lon="-6.417034616056866"><ele>1894.9999999999998</ele><time>2026-05-04T12:14:10Z</time></trkpt><trkpt lat="31.67356804524981" lon="-6.417021498611716"><ele>1895.0</ele><time>2026-05-04T12:14:11Z</time></trkpt><trkpt lat="31.673657810096714" lon="-6.417008412520153"><ele>1895.1666666666665</ele><time>2026-05-04T12:14:12Z</time></trkpt><trkpt lat="31.673740051409748" lon="-6.417000125545544"><ele>1895.3333333333333</ele><time>2026-05-04T12:14:13Z</time></trkpt><trkpt lat="31.67381612518133" lon="-6.41698476389942"><ele>1895.5</ele><time>2026-05-04T12:14:14Z</time></trkpt><trkpt lat="31.67388341095786" lon="-6.416970264825739"><ele>1895.6666666666665</ele><time>2026-05-04T12:14:15Z</time></trkpt><trkpt lat="31.673948731843936" lon="-6.416993583190909"><ele>1895.8333333333333</ele><time>2026-05-04T12:14:16Z</time></trkpt><trkpt lat="31.67399208680949" lon="-6.4170604434670855"><ele>1896.0</ele><time>2026-05-04T12:14:17Z</time></trkpt><trkpt lat="31.67400369985907" lon="-6.417157552552954"><ele>1892.5</ele><time>2026-05-04T12:14:18Z</time></trkpt><trkpt lat="31.6739889476475" lon="-6.417275546181075"><ele>1889.0</ele><time>2026-05-04T12:14:19Z</time></trkpt><trkpt lat="31.673953882157676" lon="-6.4173994275105555"><ele>1885.5</ele><time>2026-05-04T12:14:20Z</time></trkpt><trkpt lat="31.67389981127053" lon="-6.417533319523533"><ele>1882.0</ele><time>2026-05-04T12:14:21Z</time></trkpt><trkpt lat="31.673847702471726" lon="-6.417684892095237"><ele>1882.0</ele><time>2026-05-04T12:14:22Z</time></trkpt><trkpt lat="31.673793258513296" lon="-6.417843776679885"><ele>1882.0</ele><time>2026-05-04T12:14:23Z</time></trkpt><trkpt lat="31.673730559927517" lon="-6.4180188649720975"><ele>1882.0</ele><time>2026-05-04T12:14:24Z</time></trkpt><trkpt lat="31.67366605259897" lon="-6.418210566999026"><ele>1881.6666666666667</ele><time>2026-05-04T12:14:25Z</time></trkpt><trkpt lat="31.673599494277404" lon="-6.418403789388"><ele>1881.3333333333335</ele><time>2026-05-04T12:14:26Z</time></trkpt><trkpt lat="31.67353909096759" lon="-6.418581186719068"><ele>1881.0</ele><time>2026-05-04T12:14:27Z</time></trkpt><trkpt lat="31.673480670273705" lon="-6.41874422773988"><ele>1880.0</ele><time>2026-05-04T12:14:28Z</time></trkpt><trkpt lat="31.673426098245134" lon="-6.418903545131223"><ele>1879.0</ele><time>2026-05-04T12:14:29Z</time></trkpt><trkpt lat="31.673381081890835" lon="-6.419058550919979"><ele>1878.0</ele><time>2026-05-04T12:14:30Z</time></trkpt><trkpt lat="31.67333674730211" lon="-6.4192084050462155"><ele>1877.0</ele><time>2026-05-04T12:14:31Z</time></trkpt><trkpt lat="31.673284410626803" lon="-6.419361576398127"><ele>1877.0</ele><time>2026-05-04T12:14:32Z</time></trkpt><trkpt lat="31.673235158950856" lon="-6.419509317966925"><ele>1877.0</ele><time>2026-05-04T12:14:33Z</time></trkpt><trkpt lat="31.673191972001128" lon="-6.419648057314452"><ele>1877.0</ele><time>2026-05-04T12:14:34Z</time></trkpt><trkpt lat="31.673144918804518" lon="-6.419782223077641"><ele>1877.0</ele><time>2026-05-04T12:14:35Z</time></trkpt><trkpt lat="31.67310214268905" lon="-6.419905284635724"><ele>1876.8</ele><time>2026-05-04T12:14:36Z</time></trkpt><trkpt lat="31.67305840574354" lon="-6.42001987099133"><ele>1876.6</ele><time>2026-05-04T12:14:37Z</time></trkpt><trkpt lat="31.673010050420107" lon="-6.420120883944021"><ele>1876.3999999999999</ele><time>2026-05-04T12:14:38Z</time></trkpt><trkpt lat="31.672949476171002" lon="-6.420203673099525"><ele>1876.1999999999998</ele><time>2026-05-04T12:14:39Z</time></trkpt><trkpt lat="31.67287423362396" lon="-6.42027024235445"><ele>1876.0</ele><time>2026-05-04T12:14:40Z</time></trkpt><trkpt lat="31.67279135243418" lon="-6.420298561394586"><ele>1876.8</ele><time>2026-05-04T12:14:41Z</time></trkpt><trkpt lat="31.67269688625146" lon="-6.420303026730661"><ele>1877.6</ele><time>2026-05-04T12:14:42Z</time></trkpt><trkpt lat="31.672596855106647" lon="-6.420280973254931"><ele>1878.4</ele><time>2026-05-04T12:14:43Z</time></trkpt><trkpt lat="31.67248054106976" lon="-6.420243441869573"><ele>1879.2</ele><time>2026-05-04T12:14:44Z</time></trkpt><trkpt lat="31.672361431956602" lon="-6.420192487779073"><ele>1880.0</ele><time>2026-05-04T12:14:45Z</time></trkpt><trkpt lat="31.672237132184584" lon="-6.4201456175467255"><ele>1880.0</ele><time>2026-05-04T12:14:46Z</time></trkpt><trkpt lat="31.6721036230753" lon="-6.420111101221041"><ele>1880.0</ele><time>2026-05-04T12:14:47Z</time></trkpt><trkpt lat="31.671976782997856" lon="-6.420081942248702"><ele>1880.0</ele><time>2026-05-04T12:14:48Z</time></trkpt><trkpt lat="31.6718544533637" lon="-6.420057797246285"><ele>1880.0</ele><time>2026-05-04T12:14:49Z</time></trkpt><trkpt lat="31.671726332603924" lon="-6.420045076730192"><ele>1880.0</ele><time>2026-05-04T12:14:50Z</time></trkpt><trkpt lat="31.671590972257615" lon="-6.42004406394101"><ele>1880.0</ele><time>2026-05-04T12:14:51Z</time></trkpt><trkpt lat="31.671451418954184" lon="-6.420055282643957"><ele>1880.0</ele><time>2026-05-04T12:14:52Z</time></trkpt><trkpt lat="31.671308518403595" lon="-6.420066481391764"><ele>1880.0</ele><time>2026-05-04T12:14:53Z</time></trkpt><trkpt lat="31.67116472640912" lon="-6.420075055462127"><ele>1879.25</ele><time>2026-05-04T12:14:54Z</time></trkpt><trkpt lat="31.671021684418047" lon="-6.420086398231475"><ele>1878.5</ele><time>2026-05-04T12:14:55Z</time></trkpt><trkpt lat="31.67087296615344" lon="-6.4201038076747015"><ele>1877.75</ele><time>2026-05-04T12:14:56Z</time></trkpt><trkpt lat="31.67072248759243" lon="-6.420127945014884"><ele>1877.0</ele><time>2026-05-04T12:14:57Z</time></trkpt><trkpt lat="31.670577530366277" lon="-6.420153861666046"><ele>1877.0</ele><time>2026-05-04T12:14:58Z</time></trkpt><trkpt lat="31.67044226256063" lon="-6.420190901505745"><ele>1877.0</ele><time>2026-05-04T12:14:59Z</time></trkpt><trkpt lat="31.67031740997036" lon="-6.420242622229646"><ele>1877.0</ele><time>2026-05-04T12:15:00Z</time></trkpt><trkpt lat="31.670200576262907" lon="-6.420310220294265"><ele>1877.0</ele><time>2026-05-04T12:15:01Z</time></trkpt><trkpt lat="31.670096600803305" lon="-6.420392572536953"><ele>1876.1666666666665</ele><time>2026-05-04T12:15:02Z</time></trkpt><trkpt lat="31.670007164302632" lon="-6.4204709749186915"><ele>1875.3333333333333</ele><time>2026-05-04T12:15:03Z</time></trkpt><trkpt lat="31.669944889031814" lon="-6.42052689661349"><ele>1874.5</ele><time>2026-05-04T12:15:04Z</time></trkpt><trkpt lat="31.66986255559425" lon="-6.420584605351972"><ele>1873.6666666666665</ele><time>2026-05-04T12:15:06Z</time></trkpt><trkpt lat="31.66981233831993" lon="-6.420629541372957"><ele>1872.8333333333333</ele><time>2026-05-04T12:15:08Z</time></trkpt><trkpt lat="31.669753468919367" lon="-6.420700712208083"><ele>1872.0</ele><time>2026-05-04T12:15:10Z</time></trkpt><trkpt lat="31.669704318826533" lon="-6.420777146043215"><ele>1872.0</ele><time>2026-05-04T12:15:12Z</time></trkpt><trkpt lat="31.66965000862188" lon="-6.420852659903068"><ele>1872.0000000000002</ele><time>2026-05-04T12:15:14Z</time></trkpt><trkpt lat="31.669594744487828" lon="-6.420918269532804"><ele>1872.0</ele><time>2026-05-04T12:15:16Z</time></trkpt><trkpt lat="31.669549552324046" lon="-6.420970331485604"><ele>1872.0</ele><time>2026-05-04T12:15:18Z</time></trkpt><trkpt lat="31.669491257278274" lon="-6.421026675415339"><ele>1872.0000000000002</ele><time>2026-05-04T12:15:22Z</time></trkpt><trkpt lat="31.669433128353305" lon="-6.421082063735245"><ele>1872.0</ele><time>2026-05-04T12:15:26Z</time></trkpt><trkpt lat="31.66938354538279" lon="-6.421131824976741"><ele>1872.0</ele><time>2026-05-04T12:15:29Z</time></trkpt><trkpt lat="31.669324797411157" lon="-6.42119264992834"><ele>1872.0</ele><time>2026-05-04T12:15:32Z</time></trkpt><trkpt lat="31.669269831810976" lon="-6.421250347078724"><ele>1872.0</ele><time>2026-05-04T12:15:35Z</time></trkpt><trkpt lat="31.669215085814873" lon="-6.421303853281943"><ele>1872.0</ele><time>2026-05-04T12:15:38Z</time></trkpt><trkpt lat="31.669170127867822" lon="-6.421360311632638"><ele>1872.0</ele><time>2026-05-04T12:15:41Z</time></trkpt><trkpt lat="31.669106989947565" lon="-6.421396925156297"><ele>1872.0</ele><time>2026-05-04T12:15:44Z</time></trkpt><trkpt lat="31.66903127216957" lon="-6.421436198268581"><ele>1872.0</ele><time>2026-05-04T12:15:47Z</time></trkpt><trkpt lat="31.66896574136721" lon="-6.421506467838803"><ele>1873.1428571428573</ele><time>2026-05-04T12:15:50Z</time></trkpt><trkpt lat="31.668936067231645" lon="-6.4215913812873815"><ele>1874.2857142857144</ele><time>2026-05-04T12:15:52Z</time></trkpt><trkpt lat="31.668908489773873" lon="-6.421670045808889"><ele>1875.4285714285716</ele><time>2026-05-04T12:15:54Z</time></trkpt><trkpt lat="31.66888120448235" lon="-6.421752015426325"><ele>1876.5714285714284</ele><time>2026-05-04T12:15:56Z</time></trkpt><trkpt lat="31.668843573258222" lon="-6.421836632834483"><ele>1877.7142857142856</ele><time>2026-05-04T12:15:58Z</time></trkpt><trkpt lat="31.66880476444879" lon="-6.42190663455154"><ele>1878.8571428571427</ele><time>2026-05-04T12:15:59Z</time></trkpt><trkpt lat="31.66876692319013" lon="-6.421976603847391"><ele>1880.0</ele><time>2026-05-04T12:16:00Z</time></trkpt><trkpt lat="31.6687227878448" lon="-6.422057063482121"><ele>1881.2</ele><time>2026-05-04T12:16:01Z</time></trkpt><trkpt lat="31.66867581553322" lon="-6.422150608009073"><ele>1882.4</ele><time>2026-05-04T12:16:02Z</time></trkpt><trkpt lat="31.668617180100114" lon="-6.422242065212151"><ele>1883.6</ele><time>2026-05-04T12:16:03Z</time></trkpt><trkpt lat="31.668548542761584" lon="-6.422337914113402"><ele>1884.8</ele><time>2026-05-04T12:16:04Z</time></trkpt><trkpt lat="31.66847907213505" lon="-6.42242380599073"><ele>1886.0</ele><time>2026-05-04T12:16:05Z</time></trkpt><trkpt lat="31.668410494919677" lon="-6.4225235942427945"><ele>1883.1999999999998</ele><time>2026-05-04T12:16:06Z</time></trkpt><trkpt lat="31.66834077896561" lon="-6.422628192898138"><ele>1880.3999999999999</ele><time>2026-05-04T12:16:07Z</time></trkpt><trkpt lat="31.66826910251693" lon="-6.422732361004562"><ele>1877.6</ele><time>2026-05-04T12:16:08Z</time></trkpt><trkpt lat="31.668199470514555" lon="-6.422833437988257"><ele>1874.8</ele><time>2026-05-04T12:16:09Z</time></trkpt><trkpt lat="31.66813082200678" lon="-6.422931679605647"><ele>1872.0</ele><time>2026-05-04T12:16:10Z</time></trkpt><trkpt lat="31.66806472591446" lon="-6.423028230441788"><ele>1872.0</ele><time>2026-05-04T12:16:11Z</time></trkpt><trkpt lat="31.667999432580388" lon="-6.423124515517252"><ele>1871.9999999999998</ele><time>2026-05-04T12:16:12Z</time></trkpt><trkpt lat="31.667933611152783" lon="-6.423216856009639"><ele>1871.9999999999998</ele><time>2026-05-04T12:16:13Z</time></trkpt><trkpt lat="31.667868894310192" lon="-6.42330630288663"><ele>1872.0</ele><time>2026-05-04T12:16:14Z</time></trkpt><trkpt lat="31.667805138223663" lon="-6.423394659248677"><ele>1872.0</ele><time>2026-05-04T12:16:15Z</time></trkpt><trkpt lat="31.667743455781242" lon="-6.423483603656625"><ele>1872.6</ele><time>2026-05-04T12:16:16Z</time></trkpt><trkpt lat="31.667691069415728" lon="-6.4235883752207386"><ele>1873.1999999999998</ele><time>2026-05-04T12:16:17Z</time></trkpt><trkpt lat="31.667617793359767" lon="-6.423648712287105"><ele>1873.8</ele><time>2026-05-04T12:16:18Z</time></trkpt><trkpt lat="31.66759172557956" lon="-6.423760565446254"><ele>1874.4</ele><time>2026-05-04T12:16:19Z</time></trkpt><trkpt lat="31.667528885825405" lon="-6.423825957497739"><ele>1875.0</ele><time>2026-05-04T12:16:20Z</time></trkpt><trkpt lat="31.667461749598115" lon="-6.423883457121288"><ele>1875.0</ele><time>2026-05-04T12:16:21Z</time></trkpt><trkpt lat="31.667393741866295" lon="-6.423943356880492"><ele>1875.0</ele><time>2026-05-04T12:16:22Z</time></trkpt><trkpt lat="31.66731375853834" lon="-6.423989623419404"><ele>1875.0</ele><time>2026-05-04T12:16:23Z</time></trkpt><trkpt lat="31.667247226068152" lon="-6.4240523131156655"><ele>1875.0</ele><time>2026-05-04T12:16:24Z</time></trkpt><trkpt lat="31.667178801840546" lon="-6.424108651158579"><ele>1875.0</ele><time>2026-05-04T12:16:25Z</time></trkpt><trkpt lat="31.66711330683367" lon="-6.424173382826913"><ele>1875.0</ele><time>2026-05-04T12:16:26Z</time></trkpt><trkpt lat="31.667041905682424" lon="-6.424234924538311"><ele>1875.0</ele><time>2026-05-04T12:16:27Z</time></trkpt><trkpt lat="31.66696768168644" lon="-6.4242955016150995"><ele>1875.0</ele><time>2026-05-04T12:16:28Z</time></trkpt><trkpt lat="31.666895457869497" lon="-6.424355674314197"><ele>1875.0</ele><time>2026-05-04T12:16:29Z</time></trkpt><trkpt lat="31.66681940341255" lon="-6.424416151007581"><ele>1875.0</ele><time>2026-05-04T12:16:30Z</time></trkpt><trkpt lat="31.666743797085914" lon="-6.424481506668902"><ele>1875.0</ele><time>2026-05-04T12:16:31Z</time></trkpt><trkpt lat="31.666662259855546" lon="-6.424540577319705"><ele>1873.8</ele><time>2026-05-04T12:16:32Z</time></trkpt><trkpt lat="31.666581130786668" lon="-6.4246063274304515"><ele>1872.6</ele><time>2026-05-04T12:16:33Z</time></trkpt><trkpt lat="31.666496614186915" lon="-6.424668090353834"><ele>1871.4</ele><time>2026-05-04T12:16:34Z</time></trkpt><trkpt lat="31.666411103297065" lon="-6.42473037747822"><ele>1870.2</ele><time>2026-05-04T12:16:35Z</time></trkpt><trkpt lat="31.66632626839316" lon="-6.424789920660034"><ele>1869.0</ele><time>2026-05-04T12:16:36Z</time></trkpt><trkpt lat="31.66623408181053" lon="-6.424855814902225"><ele>1868.8000000000002</ele><time>2026-05-04T12:16:37Z</time></trkpt><trkpt lat="31.666145982661995" lon="-6.424917756819478"><ele>1868.6000000000001</ele><time>2026-05-04T12:16:38Z</time></trkpt><trkpt lat="31.666058567916828" lon="-6.424981780103571"><ele>1868.4</ele><time>2026-05-04T12:16:39Z</time></trkpt><trkpt lat="31.665966260774276" lon="-6.4250493001330815"><ele>1868.2</ele><time>2026-05-04T12:16:40Z</time></trkpt><trkpt lat="31.665875653439457" lon="-6.425111692231452"><ele>1868.0</ele><time>2026-05-04T12:16:41Z</time></trkpt><trkpt lat="31.66578416869237" lon="-6.42517955052607"><ele>1868.0</ele><time>2026-05-04T12:16:42Z</time></trkpt><trkpt lat="31.66569976734642" lon="-6.425252684286974"><ele>1868.0000000000002</ele><time>2026-05-04T12:16:43Z</time></trkpt><trkpt lat="31.665603130481475" lon="-6.425320628852996"><ele>1868.0000000000002</ele><time>2026-05-04T12:16:44Z</time></trkpt><trkpt lat="31.665504877239" lon="-6.425390704608361"><ele>1868.0</ele><time>2026-05-04T12:16:45Z</time></trkpt><trkpt lat="31.66541839348247" lon="-6.425460328764928"><ele>1868.0</ele><time>2026-05-04T12:16:46Z</time></trkpt><trkpt lat="31.66532957092044" lon="-6.425530447235682"><ele>1868.0</ele><time>2026-05-04T12:16:47Z</time></trkpt><trkpt lat="31.665239609003788" lon="-6.425595734169824"><ele>1868.0000000000002</ele><time>2026-05-04T12:16:48Z</time></trkpt><trkpt lat="31.66515030257703" lon="-6.425662990730714"><ele>1868.0000000000002</ele><time>2026-05-04T12:16:49Z</time></trkpt><trkpt lat="31.66505905503852" lon="-6.425729269479186"><ele>1868.0</ele><time>2026-05-04T12:16:50Z</time></trkpt><trkpt lat="31.664965517641683" lon="-6.425798302016267"><ele>1868.0</ele><time>2026-05-04T12:16:51Z</time></trkpt><trkpt lat="31.664875331517315" lon="-6.425872612052372"><ele>1868.0</ele><time>2026-05-04T12:16:52Z</time></trkpt><trkpt lat="31.66478915335107" lon="-6.425953389703977"><ele>1868.0000000000002</ele><time>2026-05-04T12:16:53Z</time></trkpt><trkpt lat="31.664706847535633" lon="-6.426039069629563"><ele>1868.0000000000002</ele><time>2026-05-04T12:16:54Z</time></trkpt><trkpt lat="31.664643649941794" lon="-6.426141820534543"><ele>1868.0</ele><time>2026-05-04T12:16:55Z</time></trkpt><trkpt lat="31.66457507227774" lon="-6.426240538778245"><ele>1868.0</ele><time>2026-05-04T12:16:56Z</time></trkpt><trkpt lat="31.66450720126964" lon="-6.4263380652899675"><ele>1867.8000000000002</ele><time>2026-05-04T12:16:57Z</time></trkpt><trkpt lat="31.664439834238404" lon="-6.426434867607163"><ele>1867.6000000000001</ele><time>2026-05-04T12:16:58Z</time></trkpt><trkpt lat="31.664355361517362" lon="-6.426513418570543"><ele>1867.3999999999999</ele><time>2026-05-04T12:16:59Z</time></trkpt><trkpt lat="31.664284573471356" lon="-6.426604345890455"><ele>1867.1999999999998</ele><time>2026-05-04T12:17:00Z</time></trkpt><trkpt lat="31.66421076200584" lon="-6.4266917379402"><ele>1867.0</ele><time>2026-05-04T12:17:01Z</time></trkpt><trkpt lat="31.664134033169432" lon="-6.426772213489103"><ele>1867.0</ele><time>2026-05-04T12:17:02Z</time></trkpt><trkpt lat="31.664052835368516" lon="-6.426833511068475"><ele>1866.9999999999998</ele><time>2026-05-04T12:17:03Z</time></trkpt><trkpt lat="31.663971495991387" lon="-6.426877115757521"><ele>1866.9999999999998</ele><time>2026-05-04T12:17:04Z</time></trkpt><trkpt lat="31.66388975198093" lon="-6.426911300605024"><ele>1867.0</ele><time>2026-05-04T12:17:05Z</time></trkpt><trkpt lat="31.663802475691586" lon="-6.426932921806151"><ele>1867.0</ele><time>2026-05-04T12:17:06Z</time></trkpt><trkpt lat="31.663702277557004" lon="-6.4269517363886415"><ele>1864.6</ele><time>2026-05-04T12:17:07Z</time></trkpt><trkpt lat="31.66359494750086" lon="-6.426970398757497"><ele>1862.1999999999998</ele><time>2026-05-04T12:17:08Z</time></trkpt><trkpt lat="31.66348362463276" lon="-6.426990467648841"><ele>1859.8</ele><time>2026-05-04T12:17:09Z</time></trkpt><trkpt lat="31.663377250460638" lon="-6.427012577529086"><ele>1857.4</ele><time>2026-05-04T12:17:10Z</time></trkpt><trkpt lat="31.663272820344563" lon="-6.42702944136947"><ele>1855.0</ele><time>2026-05-04T12:17:11Z</time></trkpt><trkpt lat="31.663170026482778" lon="-6.427041280988205"><ele>1855.0</ele><time>2026-05-04T12:17:12Z</time></trkpt><trkpt lat="31.66306683581233" lon="-6.427058203725994"><ele>1855.0</ele><time>2026-05-04T12:17:13Z</time></trkpt><trkpt lat="31.662965824160548" lon="-6.427079989907923"><ele>1855.0</ele><time>2026-05-04T12:17:14Z</time></trkpt><trkpt lat="31.662872516351136" lon="-6.427098654543601"><ele>1855.0</ele><time>2026-05-04T12:17:15Z</time></trkpt><trkpt lat="31.66278878173717" lon="-6.427116687331602"><ele>1855.0</ele><time>2026-05-04T12:17:16Z</time></trkpt><trkpt lat="31.66271522017334" lon="-6.427128958571018"><ele>1854.6666666666667</ele><time>2026-05-04T12:17:17Z</time></trkpt><trkpt lat="31.662648412383504" lon="-6.427140300299811"><ele>1854.3333333333335</ele><time>2026-05-04T12:17:18Z</time></trkpt><trkpt lat="31.662582563873645" lon="-6.42716139274581"><ele>1854.0</ele><time>2026-05-04T12:17:19Z</time></trkpt><trkpt lat="31.66251725608615" lon="-6.427200478139174"><ele>1853.6666666666665</ele><time>2026-05-04T12:17:20Z</time></trkpt><trkpt lat="31.662458108957047" lon="-6.427269721919516"><ele>1853.3333333333333</ele><time>2026-05-04T12:17:21Z</time></trkpt><trkpt lat="31.662413655374152" lon="-6.427369089752238"><ele>1853.0</ele><time>2026-05-04T12:17:22Z</time></trkpt><trkpt lat="31.662383400963225" lon="-6.427490952152151"><ele>1853.0</ele><time>2026-05-04T12:17:23Z</time></trkpt><trkpt lat="31.66235942739592" lon="-6.4276219651593784"><ele>1853.0</ele><time>2026-05-04T12:17:24Z</time></trkpt><trkpt lat="31.662345381942018" lon="-6.427762037429951"><ele>1853.0</ele><time>2026-05-04T12:17:25Z</time></trkpt><trkpt lat="31.662317505492364" lon="-6.427902255947466"><ele>1853.0</ele><time>2026-05-04T12:17:26Z</time></trkpt><trkpt lat="31.66226666075581" lon="-6.42803362631447"><ele>1855.0</ele><time>2026-05-04T12:17:27Z</time></trkpt><trkpt lat="31.662205538192396" lon="-6.4281489748987815"><ele>1857.0</ele><time>2026-05-04T12:17:28Z</time></trkpt><trkpt lat="31.662147866061993" lon="-6.4282691754918195"><ele>1859.0</ele><time>2026-05-04T12:17:29Z</time></trkpt><trkpt lat="31.662067736640758" lon="-6.428372465312083"><ele>1861.0</ele><time>2026-05-04T12:17:30Z</time></trkpt><trkpt lat="31.66197672881794" lon="-6.428476445129791"><ele>1860.25</ele><time>2026-05-04T12:17:31Z</time></trkpt><trkpt lat="31.661887853078998" lon="-6.428581532734991"><ele>1859.5</ele><time>2026-05-04T12:17:32Z</time></trkpt><trkpt lat="31.661799912686263" lon="-6.4286927073130435"><ele>1858.75</ele><time>2026-05-04T12:17:33Z</time></trkpt><trkpt lat="31.66171371315604" lon="-6.428804465437812"><ele>1858.0</ele><time>2026-05-04T12:17:34Z</time></trkpt><trkpt lat="31.661623543719095" lon="-6.428910873360954"><ele>1858.0</ele><time>2026-05-04T12:17:35Z</time></trkpt><trkpt lat="31.66153054293399" lon="-6.4290130018447"><ele>1858.0</ele><time>2026-05-04T12:17:36Z</time></trkpt><trkpt lat="31.661433198083554" lon="-6.42911125908327"><ele>1858.0</ele><time>2026-05-04T12:17:37Z</time></trkpt><trkpt lat="31.661335465272945" lon="-6.42920301229874"><ele>1858.0</ele><time>2026-05-04T12:17:38Z</time></trkpt><trkpt lat="31.661234217316625" lon="-6.429287084989164"><ele>1858.0</ele><time>2026-05-04T12:17:39Z</time></trkpt><trkpt lat="31.66113483746242" lon="-6.429367492510961"><ele>1858.0</ele><time>2026-05-04T12:17:40Z</time></trkpt><trkpt lat="31.661035459579992" lon="-6.429443170498528"><ele>1858.0</ele><time>2026-05-04T12:17:41Z</time></trkpt><trkpt lat="31.660934586926395" lon="-6.42951504497108"><ele>1858.0</ele><time>2026-05-04T12:17:42Z</time></trkpt><trkpt lat="31.660828467407597" lon="-6.429573324133731"><ele>1857.2</ele><time>2026-05-04T12:17:43Z</time></trkpt><trkpt lat="31.660716177239365" lon="-6.4296102482027235"><ele>1856.4</ele><time>2026-05-04T12:17:44Z</time></trkpt><trkpt lat="31.660605556110163" lon="-6.4296266682984236"><ele>1855.6000000000001</ele><time>2026-05-04T12:17:45Z</time></trkpt><trkpt lat="31.660500305657013" lon="-6.429638509403963"><ele>1854.8000000000002</ele><time>2026-05-04T12:17:46Z</time></trkpt><trkpt lat="31.66040265174458" lon="-6.429652295159077"><ele>1854.0</ele><time>2026-05-04T12:17:47Z</time></trkpt><trkpt lat="31.66030938945881" lon="-6.429672539468622"><ele>1853.8000000000002</ele><time>2026-05-04T12:17:48Z</time></trkpt><trkpt lat="31.660219477494998" lon="-6.42969930911654"><ele>1853.6000000000001</ele><time>2026-05-04T12:17:49Z</time></trkpt><trkpt lat="31.660131083541746" lon="-6.429728318197458"><ele>1853.4</ele><time>2026-05-04T12:17:50Z</time></trkpt><trkpt lat="31.660046787188964" lon="-6.429759026045163"><ele>1853.2</ele><time>2026-05-04T12:17:51Z</time></trkpt><trkpt lat="31.65995424237068" lon="-6.429793351605364"><ele>1853.0</ele><time>2026-05-04T12:17:52Z</time></trkpt><trkpt lat="31.659861106905733" lon="-6.429823860487394"><ele>1853.0</ele><time>2026-05-04T12:17:53Z</time></trkpt><trkpt lat="31.65976198834661" lon="-6.429846955794583"><ele>1853.0000000000002</ele><time>2026-05-04T12:17:54Z</time></trkpt><trkpt lat="31.659658268674608" lon="-6.4298635868558485"><ele>1853.0000000000002</ele><time>2026-05-04T12:17:55Z</time></trkpt><trkpt lat="31.65956451455279" lon="-6.429890236336977"><ele>1853.0</ele><time>2026-05-04T12:17:56Z</time></trkpt><trkpt lat="31.65946178407461" lon="-6.429920615792756"><ele>1853.0</ele><time>2026-05-04T12:17:57Z</time></trkpt><trkpt lat="31.659352390494583" lon="-6.429917343442135"><ele>1853.4</ele><time>2026-05-04T12:17:58Z</time></trkpt><trkpt lat="31.659241260061492" lon="-6.429885543678502"><ele>1853.8000000000002</ele><time>2026-05-04T12:17:59Z</time></trkpt><trkpt lat="31.659133927510638" lon="-6.429849851128536"><ele>1854.2</ele><time>2026-05-04T12:18:00Z</time></trkpt><trkpt lat="31.659029562511495" lon="-6.429818233178593"><ele>1854.6</ele><time>2026-05-04T12:18:01Z</time></trkpt><trkpt lat="31.65893447092157" lon="-6.429787796180801"><ele>1855.0</ele><time>2026-05-04T12:18:02Z</time></trkpt><trkpt lat="31.658837375952093" lon="-6.429781729388382"><ele>1855.0</ele><time>2026-05-04T12:18:02.999Z</time></trkpt><trkpt lat="31.658735918129135" lon="-6.42981656103041"><ele>1855.0</ele><time>2026-05-04T12:18:03.999Z</time></trkpt><trkpt lat="31.658634902363556" lon="-6.429876621854822"><ele>1855.0</ele><time>2026-05-04T12:18:04.999Z</time></trkpt><trkpt lat="31.658544009573745" lon="-6.4299552491367775"><ele>1855.0</ele><time>2026-05-04T12:18:05.999Z</time></trkpt><trkpt lat="31.658453550444996" lon="-6.430034680171418"><ele>1855.0</ele><time>2026-05-04T12:18:06.999Z</time></trkpt><trkpt lat="31.658360276491337" lon="-6.430090341117045"><ele>1853.75</ele><time>2026-05-04T12:18:07.999Z</time></trkpt><trkpt lat="31.658252956143627" lon="-6.430124571701323"><ele>1852.5</ele><time>2026-05-04T12:18:08.999Z</time></trkpt><trkpt lat="31.658139906144804" lon="-6.430146274585626"><ele>1851.25</ele><time>2026-05-04T12:18:09.999Z</time></trkpt><trkpt lat="31.658027482952605" lon="-6.430161438688891"><ele>1850.0</ele><time>2026-05-04T12:18:10.999Z</time></trkpt><trkpt lat="31.657918454429137" lon="-6.430185893503284"><ele>1850.0</ele><time>2026-05-04T12:18:11.999Z</time></trkpt><trkpt lat="31.657810299779467" lon="-6.430218259684053"><ele>1850.0</ele><time>2026-05-04T12:18:12.999Z</time></trkpt><trkpt lat="31.657702898034245" lon="-6.430256698052419"><ele>1850.0</ele><time>2026-05-04T12:18:13.999Z</time></trkpt><trkpt lat="31.657597743428727" lon="-6.43029891314647"><ele>1850.0</ele><time>2026-05-04T12:18:14.999Z</time></trkpt><trkpt lat="31.657493030809068" lon="-6.430334904832208"><ele>1850.0</ele><time>2026-05-04T12:18:15.999Z</time></trkpt><trkpt lat="31.657393803923064" lon="-6.43035812996486"><ele>1849.4</ele><time>2026-05-04T12:18:17Z</time></trkpt><trkpt lat="31.657301695898887" lon="-6.430363118461494"><ele>1848.8</ele><time>2026-05-04T12:18:18Z</time></trkpt><trkpt lat="31.65721301046814" lon="-6.430356558548964"><ele>1848.1999999999998</ele><time>2026-05-04T12:18:19Z</time></trkpt><trkpt lat="31.657121449836254" lon="-6.430337458242554"><ele>1847.6</ele><time>2026-05-04T12:18:20Z</time></trkpt><trkpt lat="31.65702342598357" lon="-6.430320985705111"><ele>1847.0</ele><time>2026-05-04T12:18:21Z</time></trkpt><trkpt lat="31.656930617484235" lon="-6.430360562781056"><ele>1846.1999999999998</ele><time>2026-05-04T12:18:22Z</time></trkpt><trkpt lat="31.656823949520515" lon="-6.43039242544316"><ele>1845.3999999999999</ele><time>2026-05-04T12:18:23Z</time></trkpt><trkpt lat="31.656736499315876" lon="-6.43046363692515"><ele>1844.6000000000001</ele><time>2026-05-04T12:18:24Z</time></trkpt><trkpt lat="31.656654861613063" lon="-6.430547654151845"><ele>1843.8000000000002</ele><time>2026-05-04T12:18:25Z</time></trkpt><trkpt lat="31.656579749237064" lon="-6.430634019427847"><ele>1843.0</ele><time>2026-05-04T12:18:26Z</time></trkpt><trkpt lat="31.656508927922502" lon="-6.430728538593208"><ele>1846.0</ele><time>2026-05-04T12:18:27Z</time></trkpt><trkpt lat="31.65643818075218" lon="-6.430832210321047"><ele>1849.0</ele><time>2026-05-04T12:18:28Z</time></trkpt><trkpt lat="31.656374005862872" lon="-6.430944359182163"><ele>1852.0</ele><time>2026-05-04T12:18:29Z</time></trkpt><trkpt lat="31.656311840187936" lon="-6.431062177588883"><ele>1855.0</ele><time>2026-05-04T12:18:30Z</time></trkpt><trkpt lat="31.656249877897924" lon="-6.431186846257174"><ele>1851.25</ele><time>2026-05-04T12:18:31Z</time></trkpt><trkpt lat="31.656193930428113" lon="-6.431319579763328"><ele>1847.5</ele><time>2026-05-04T12:18:32Z</time></trkpt><trkpt lat="31.656155899643792" lon="-6.431457771385705"><ele>1843.75</ele><time>2026-05-04T12:18:33Z</time></trkpt><trkpt lat="31.656104631544984" lon="-6.431597510747816"><ele>1840.0</ele><time>2026-05-04T12:18:34Z</time></trkpt><trkpt lat="31.656053454241825" lon="-6.4317389836375165"><ele>1840.0</ele><time>2026-05-04T12:18:35Z</time></trkpt><trkpt lat="31.656001388554298" lon="-6.43188146798482"><ele>1840.0</ele><time>2026-05-04T12:18:36Z</time></trkpt><trkpt lat="31.65595421769235" lon="-6.432023008948109"><ele>1840.0</ele><time>2026-05-04T12:18:37Z</time></trkpt><trkpt lat="31.65589617893042" lon="-6.432153726139101"><ele>1840.0</ele><time>2026-05-04T12:18:38Z</time></trkpt><trkpt lat="31.655867838272027" lon="-6.432286149892888"><ele>1842.2</ele><time>2026-05-04T12:18:39Z</time></trkpt><trkpt lat="31.655842421433903" lon="-6.432412720042436"><ele>1844.4</ele><time>2026-05-04T12:18:40Z</time></trkpt><trkpt lat="31.655814740270802" lon="-6.43252972767166"><ele>1846.6</ele><time>2026-05-04T12:18:41Z</time></trkpt><trkpt lat="31.65578752878715" lon="-6.432648476957506"><ele>1848.8</ele><time>2026-05-04T12:18:42Z</time></trkpt><trkpt lat="31.65576846245971" lon="-6.43277410184881"><ele>1851.0</ele><time>2026-05-04T12:18:43Z</time></trkpt><trkpt lat="31.655781979750277" lon="-6.4329056386711345"><ele>1850.5</ele><time>2026-05-04T12:18:44Z</time></trkpt><trkpt lat="31.655797037710006" lon="-6.433034389257356"><ele>1850.0</ele><time>2026-05-04T12:18:45Z</time></trkpt><trkpt lat="31.65582589918988" lon="-6.433162010651608"><ele>1849.5</ele><time>2026-05-04T12:18:46Z</time></trkpt><trkpt lat="31.655858507255356" lon="-6.433293344900738"><ele>1849.0</ele><time>2026-05-04T12:18:47Z</time></trkpt><trkpt lat="31.655894831628494" lon="-6.4334225270590615"><ele>1849.0</ele><time>2026-05-04T12:18:48Z</time></trkpt><trkpt lat="31.655934263442447" lon="-6.433549507153975"><ele>1849.0</ele><time>2026-05-04T12:18:49Z</time></trkpt><trkpt lat="31.65595569252555" lon="-6.433686108257722"><ele>1849.0</ele><time>2026-05-04T12:18:50Z</time></trkpt><trkpt lat="31.655992523449086" lon="-6.433818254120224"><ele>1849.0</ele><time>2026-05-04T12:18:51Z</time></trkpt><trkpt lat="31.65603262033768" lon="-6.4339499687002455"><ele>1847.75</ele><time>2026-05-04T12:18:52Z</time></trkpt><trkpt lat="31.65607070900713" lon="-6.434081679158319"><ele>1846.5</ele><time>2026-05-04T12:18:53Z</time></trkpt><trkpt lat="31.656099741713277" lon="-6.434216890283579"><ele>1845.25</ele><time>2026-05-04T12:18:54Z</time></trkpt><trkpt lat="31.65611366991242" lon="-6.434359574842079"><ele>1844.0</ele><time>2026-05-04T12:18:55Z</time></trkpt><trkpt lat="31.6561306108648" lon="-6.434496205063703"><ele>1847.5</ele><time>2026-05-04T12:18:56Z</time></trkpt><trkpt lat="31.656166055549992" lon="-6.434629876136505"><ele>1851.0</ele><time>2026-05-04T12:18:57Z</time></trkpt><trkpt lat="31.656251369659962" lon="-6.4347426432079144"><ele>1854.5</ele><time>2026-05-04T12:18:58Z</time></trkpt><trkpt lat="31.656327217085195" lon="-6.434865770224662"><ele>1858.0</ele><time>2026-05-04T12:18:59Z</time></trkpt><trkpt lat="31.656384959960146" lon="-6.435006252377408"><ele>1858.0</ele><time>2026-05-04T12:19:00Z</time></trkpt><trkpt lat="31.656453788359876" lon="-6.435135614378514"><ele>1858.0</ele><time>2026-05-04T12:19:01Z</time></trkpt><trkpt lat="31.6565172583391" lon="-6.435269470026142"><ele>1858.0</ele><time>2026-05-04T12:19:02Z</time></trkpt><trkpt lat="31.656568911284683" lon="-6.435398761966323"><ele>1858.0</ele><time>2026-05-04T12:19:03Z</time></trkpt><trkpt lat="31.65661757492337" lon="-6.435524418690758"><ele>1854.75</ele><time>2026-05-04T12:19:04Z</time></trkpt><trkpt lat="31.65666776568652" lon="-6.435642145163158"><ele>1851.5</ele><time>2026-05-04T12:19:05Z</time></trkpt><trkpt lat="31.656724464584673" lon="-6.435760640144258"><ele>1848.25</ele><time>2026-05-04T12:19:06Z</time></trkpt><trkpt lat="31.65678703035311" lon="-6.435878181660123"><ele>1845.0</ele><time>2026-05-04T12:19:07Z</time></trkpt><trkpt lat="31.656873282826684" lon="-6.435961417179563"><ele>1845.0</ele><time>2026-05-04T12:19:08Z</time></trkpt><trkpt lat="31.656935765565137" lon="-6.43606632286125"><ele>1845.0</ele><time>2026-05-04T12:19:09Z</time></trkpt><trkpt lat="31.657032163645233" lon="-6.436122968713478"><ele>1845.0</ele><time>2026-05-04T12:19:10Z</time></trkpt><trkpt lat="31.657132376055483" lon="-6.436166587777704"><ele>1845.0</ele><time>2026-05-04T12:19:11Z</time></trkpt><trkpt lat="31.65722790716288" lon="-6.436214152104948"><ele>1845.0</ele><time>2026-05-04T12:19:12Z</time></trkpt><trkpt lat="31.657333161237336" lon="-6.436242442777323"><ele>1844.25</ele><time>2026-05-04T12:19:13Z</time></trkpt><trkpt lat="31.657427608137876" lon="-6.4363036177095605"><ele>1843.5</ele><time>2026-05-04T12:19:14Z</time></trkpt><trkpt lat="31.657533372834955" lon="-6.436347714882242"><ele>1842.75</ele><time>2026-05-04T12:19:15Z</time></trkpt><trkpt lat="31.657650418757868" lon="-6.4363668081681835"><ele>1842.0</ele><time>2026-05-04T12:19:16Z</time></trkpt><trkpt lat="31.657769671577746" lon="-6.436396426350796"><ele>1843.5</ele><time>2026-05-04T12:19:17Z</time></trkpt><trkpt lat="31.657888516460755" lon="-6.436413857130832"><ele>1845.0</ele><time>2026-05-04T12:19:18Z</time></trkpt><trkpt lat="31.658011526452796" lon="-6.4364270638428875"><ele>1846.5</ele><time>2026-05-04T12:19:19Z</time></trkpt><trkpt lat="31.658121244579736" lon="-6.436470209313901"><ele>1848.0</ele><time>2026-05-04T12:19:20Z</time></trkpt><trkpt lat="31.65823382809271" lon="-6.4364859879308725"><ele>1848.0</ele><time>2026-05-04T12:19:21Z</time></trkpt><trkpt lat="31.658347893565452" lon="-6.436521516880886"><ele>1848.0</ele><time>2026-05-04T12:19:22Z</time></trkpt><trkpt lat="31.658458351906066" lon="-6.436578557947545"><ele>1848.0</ele><time>2026-05-04T12:19:23Z</time></trkpt><trkpt lat="31.658560722386575" lon="-6.436644489231501"><ele>1848.0</ele><time>2026-05-04T12:19:24Z</time></trkpt><trkpt lat="31.65865219443411" lon="-6.436717025037562"><ele>1848.2</ele><time>2026-05-04T12:19:25Z</time></trkpt><trkpt lat="31.658736584600057" lon="-6.436797045452339"><ele>1848.4</ele><time>2026-05-04T12:19:26Z</time></trkpt><trkpt lat="31.658829267802666" lon="-6.436868520731936"><ele>1848.6000000000001</ele><time>2026-05-04T12:19:27Z</time></trkpt><trkpt lat="31.65891027091434" lon="-6.436960064879046"><ele>1848.8000000000002</ele><time>2026-05-04T12:19:28Z</time></trkpt><trkpt lat="31.658989505343495" lon="-6.437053946194319"><ele>1849.0</ele><time>2026-05-04T12:19:29Z</time></trkpt><trkpt lat="31.659050265827414" lon="-6.43715774175826"><ele>1849.0</ele><time>2026-05-04T12:19:30Z</time></trkpt><trkpt lat="31.659130409129748" lon="-6.437228840682881"><ele>1849.0</ele><time>2026-05-04T12:19:31Z</time></trkpt><trkpt lat="31.659192325546474" lon="-6.437318875809192"><ele>1849.0</ele><time>2026-05-04T12:19:32Z</time></trkpt><trkpt lat="31.65922971042677" lon="-6.437407282861246"><ele>1849.0</ele><time>2026-05-04T12:19:33Z</time></trkpt><trkpt lat="31.659304984609978" lon="-6.437503383294803"><ele>1849.0</ele><time>2026-05-04T12:19:34Z</time></trkpt><trkpt lat="31.65933418606861" lon="-6.4376118784223335"><ele>1849.0000000000002</ele><time>2026-05-04T12:19:35Z</time></trkpt><trkpt lat="31.65938454955246" lon="-6.437699501517203"><ele>1849.0</ele><time>2026-05-04T12:19:36Z</time></trkpt><trkpt lat="31.659414693884337" lon="-6.437795148352555"><ele>1849.0</ele><time>2026-05-04T12:19:37Z</time></trkpt><trkpt lat="31.659443611987356" lon="-6.437893844356704"><ele>1849.0</ele><time>2026-05-04T12:19:38Z</time></trkpt><trkpt lat="31.659472391647885" lon="-6.4379863131258475"><ele>1849.0000000000002</ele><time>2026-05-04T12:19:39Z</time></trkpt><trkpt lat="31.65950458658291" lon="-6.43807056010413"><ele>1849.0</ele><time>2026-05-04T12:19:40Z</time></trkpt><trkpt lat="31.659534944874395" lon="-6.438160004293784"><ele>1850.8000000000002</ele><time>2026-05-04T12:19:41Z</time></trkpt><trkpt lat="31.659584033936238" lon="-6.438242626764048"><ele>1852.6000000000001</ele><time>2026-05-04T12:19:42Z</time></trkpt><trkpt lat="31.65963816618232" lon="-6.438332600665631"><ele>1854.4</ele><time>2026-05-04T12:19:43Z</time></trkpt><trkpt lat="31.659696683774822" lon="-6.4384326283587665"><ele>1856.2</ele><time>2026-05-04T12:19:44Z</time></trkpt><trkpt lat="31.65975501203952" lon="-6.438536997187955"><ele>1858.0</ele><time>2026-05-04T12:19:45Z</time></trkpt><trkpt lat="31.659809651099685" lon="-6.438646433212195"><ele>1858.0</ele><time>2026-05-04T12:19:46Z</time></trkpt><trkpt lat="31.65985894229739" lon="-6.4387597988191505"><ele>1858.0000000000002</ele><time>2026-05-04T12:19:47Z</time></trkpt><trkpt lat="31.659904831408774" lon="-6.43887981557008"><ele>1858.0000000000002</ele><time>2026-05-04T12:19:48Z</time></trkpt><trkpt lat="31.65996847781905" lon="-6.438989497764503"><ele>1858.0</ele><time>2026-05-04T12:19:49Z</time></trkpt><trkpt lat="31.66001784525424" lon="-6.439109220812724"><ele>1858.0</ele><time>2026-05-04T12:19:50Z</time></trkpt><trkpt lat="31.660054873050644" lon="-6.439238119090922"><ele>1855.0</ele><time>2026-05-04T12:19:51Z</time></trkpt><trkpt lat="31.660102864755864" lon="-6.439362481326433"><ele>1852.0</ele><time>2026-05-04T12:19:52Z</time></trkpt><trkpt lat="31.660143176350616" lon="-6.439497065694148"><ele>1849.0</ele><time>2026-05-04T12:19:53Z</time></trkpt><trkpt lat="31.660197781947282" lon="-6.439631310036923"><ele>1846.0</ele><time>2026-05-04T12:19:54Z</time></trkpt><trkpt lat="31.660237812483132" lon="-6.43977370459495"><ele>1845.5</ele><time>2026-05-04T12:19:55Z</time></trkpt><trkpt lat="31.660278074377693" lon="-6.439916922200198"><ele>1845.0</ele><time>2026-05-04T12:19:56Z</time></trkpt><trkpt lat="31.660318439909222" lon="-6.440060508466972"><ele>1844.5</ele><time>2026-05-04T12:19:57Z</time></trkpt><trkpt lat="31.660358983256952" lon="-6.440204727198024"><ele>1844.0</ele><time>2026-05-04T12:19:58Z</time></trkpt><trkpt lat="31.660397303443467" lon="-6.440348148311373"><ele>1845.6</ele><time>2026-05-04T12:19:59Z</time></trkpt><trkpt lat="31.660413244349854" lon="-6.440492822453371"><ele>1847.2</ele><time>2026-05-04T12:20:00Z</time></trkpt><trkpt lat="31.66042593841723" lon="-6.440623977685881"><ele>1848.7999999999997</ele><time>2026-05-04T12:20:01Z</time></trkpt><trkpt lat="31.660417205579996" lon="-6.4407259199592914"><ele>1850.3999999999999</ele><time>2026-05-04T12:20:02Z</time></trkpt><trkpt lat="31.660392884786464" lon="-6.440818340249735"><ele>1852.0</ele><time>2026-05-04T12:20:03Z</time></trkpt><trkpt lat="31.66037643766795" lon="-6.440920349071552"><ele>1852.0</ele><time>2026-05-04T12:20:04Z</time></trkpt><trkpt lat="31.660353461469217" lon="-6.441037302994058"><ele>1851.9999999999998</ele><time>2026-05-04T12:20:05Z</time></trkpt><trkpt lat="31.660320769641363" lon="-6.441169849282618"><ele>1851.9999999999998</ele><time>2026-05-04T12:20:06Z</time></trkpt><trkpt lat="31.660310574127756" lon="-6.441296837537567"><ele>1852.0</ele><time>2026-05-04T12:20:07Z</time></trkpt><trkpt lat="31.660262258449" lon="-6.441400454216971"><ele>1852.0</ele><time>2026-05-04T12:20:08Z</time></trkpt><trkpt lat="31.660238584142565" lon="-6.441508963976958"><ele>1849.8</ele><time>2026-05-04T12:20:09Z</time></trkpt><trkpt lat="31.660209349817215" lon="-6.441619974269312"><ele>1847.6</ele><time>2026-05-04T12:20:10Z</time></trkpt><trkpt lat="31.66016830906731" lon="-6.441725196866524"><ele>1845.3999999999999</ele><time>2026-05-04T12:20:11Z</time></trkpt><trkpt lat="31.66011597984412" lon="-6.441850087838243"><ele>1843.1999999999998</ele><time>2026-05-04T12:20:12Z</time></trkpt><trkpt lat="31.66007573036488" lon="-6.441993543741817"><ele>1841.0</ele><time>2026-05-04T12:20:13Z</time></trkpt><trkpt lat="31.660037182064677" lon="-6.442133389428459"><ele>1840.25</ele><time>2026-05-04T12:20:14Z</time></trkpt><trkpt lat="31.660002757656816" lon="-6.442270146253757"><ele>1839.5</ele><time>2026-05-04T12:20:15Z</time></trkpt><trkpt lat="31.65996507457791" lon="-6.442400900381351"><ele>1838.75</ele><time>2026-05-04T12:20:16Z</time></trkpt><trkpt lat="31.65993068766211" lon="-6.442529988244681"><ele>1838.0</ele><time>2026-05-04T12:20:17Z</time></trkpt><trkpt lat="31.65990135176389" lon="-6.442658652815096"><ele>1838.0</ele><time>2026-05-04T12:20:18Z</time></trkpt><trkpt lat="31.659862082261935" lon="-6.442790675963016"><ele>1838.0</ele><time>2026-05-04T12:20:19Z</time></trkpt><trkpt lat="31.659808828293702" lon="-6.442929132577274"><ele>1838.0</ele><time>2026-05-04T12:20:20Z</time></trkpt><trkpt lat="31.659739157270593" lon="-6.4430640438139015"><ele>1838.0</ele><time>2026-05-04T12:20:21Z</time></trkpt><trkpt lat="31.659661731302492" lon="-6.4431768913236835"><ele>1839.0</ele><time>2026-05-04T12:20:22Z</time></trkpt><trkpt lat="31.659589732147218" lon="-6.4432921760223385"><ele>1840.0000000000002</ele><time>2026-05-04T12:20:23Z</time></trkpt><trkpt lat="31.659528712369863" lon="-6.443405935416095"><ele>1841.0000000000002</ele><time>2026-05-04T12:20:24Z</time></trkpt><trkpt lat="31.659483031890883" lon="-6.443519382247853"><ele>1842.0</ele><time>2026-05-04T12:20:25Z</time></trkpt><trkpt lat="31.659469927464357" lon="-6.443641876577516"><ele>1843.0</ele><time>2026-05-04T12:20:26Z</time></trkpt><trkpt lat="31.65948383379675" lon="-6.443776733104947"><ele>1843.75</ele><time>2026-05-04T12:20:27Z</time></trkpt><trkpt lat="31.659514513129036" lon="-6.443919288462723"><ele>1844.5</ele><time>2026-05-04T12:20:28Z</time></trkpt><trkpt lat="31.659539844982753" lon="-6.44407109237856"><ele>1845.25</ele><time>2026-05-04T12:20:29Z</time></trkpt><trkpt lat="31.659553856565584" lon="-6.444224320055762"><ele>1846.0</ele><time>2026-05-04T12:20:30Z</time></trkpt><trkpt lat="31.6595580644958" lon="-6.444381842499862"><ele>1846.0</ele><time>2026-05-04T12:20:31Z</time></trkpt><trkpt lat="31.659563928598477" lon="-6.444541894517144"><ele>1846.0</ele><time>2026-05-04T12:20:32Z</time></trkpt><trkpt lat="31.659568057654123" lon="-6.44470327284309"><ele>1846.0</ele><time>2026-05-04T12:20:33Z</time></trkpt><trkpt lat="31.659580922590884" lon="-6.444867323881312"><ele>1846.0</ele><time>2026-05-04T12:20:34Z</time></trkpt><trkpt lat="31.65959545166402" lon="-6.445021383057795"><ele>1845.75</ele><time>2026-05-04T12:20:35Z</time></trkpt><trkpt lat="31.659602539359202" lon="-6.4451787314706985"><ele>1845.5</ele><time>2026-05-04T12:20:36Z</time></trkpt><trkpt lat="31.659610310887636" lon="-6.445324523484747"><ele>1845.25</ele><time>2026-05-04T12:20:37Z</time></trkpt><trkpt lat="31.65960856301798" lon="-6.445464005661546"><ele>1845.0</ele><time>2026-05-04T12:20:38Z</time></trkpt><trkpt lat="31.659600219029315" lon="-6.44559707667167"><ele>1845.0</ele><time>2026-05-04T12:20:39Z</time></trkpt><trkpt lat="31.659571757867727" lon="-6.445715200607087"><ele>1845.0</ele><time>2026-05-04T12:20:40Z</time></trkpt><trkpt lat="31.659521740552282" lon="-6.445816281308567"><ele>1845.0</ele><time>2026-05-04T12:20:41Z</time></trkpt><trkpt lat="31.659447752831216" lon="-6.445886779374345"><ele>1845.0</ele><time>2026-05-04T12:20:42Z</time></trkpt><trkpt lat="31.659343170043364" lon="-6.445942844337068"><ele>1845.0</ele><time>2026-05-04T12:20:43Z</time></trkpt><trkpt lat="31.659235564325137" lon="-6.446005026048164"><ele>1843.5</ele><time>2026-05-04T12:20:44Z</time></trkpt><trkpt lat="31.659120740179077" lon="-6.446070575618748"><ele>1842.0</ele><time>2026-05-04T12:20:45Z</time></trkpt><trkpt lat="31.65900454181087" lon="-6.446144477335739"><ele>1840.5</ele><time>2026-05-04T12:20:46Z</time></trkpt><trkpt lat="31.658884032318518" lon="-6.446219751464235"><ele>1839.0</ele><time>2026-05-04T12:20:47Z</time></trkpt><trkpt lat="31.658756906171345" lon="-6.446305146374261"><ele>1839.0</ele><time>2026-05-04T12:20:48Z</time></trkpt><trkpt lat="31.65863216574573" lon="-6.4464052048334395"><ele>1839.0</ele><time>2026-05-04T12:20:49Z</time></trkpt><trkpt lat="31.658513409490034" lon="-6.446513447518296"><ele>1839.0</ele><time>2026-05-04T12:20:50Z</time></trkpt><trkpt lat="31.658403934841974" lon="-6.446624399037465"><ele>1839.0</ele><time>2026-05-04T12:20:51Z</time></trkpt><trkpt lat="31.658313293884714" lon="-6.446741979034549"><ele>1838.6</ele><time>2026-05-04T12:20:52Z</time></trkpt><trkpt lat="31.658241872618955" lon="-6.446864291139211"><ele>1838.2</ele><time>2026-05-04T12:20:53Z</time></trkpt><trkpt lat="31.65817844787163" lon="-6.446959185573702"><ele>1837.7999999999997</ele><time>2026-05-04T12:20:54Z</time></trkpt><trkpt lat="31.65811460768782" lon="-6.447048960178298"><ele>1837.3999999999999</ele><time>2026-05-04T12:20:55Z</time></trkpt><trkpt lat="31.65806164525292" lon="-6.447137732123377"><ele>1837.0</ele><time>2026-05-04T12:20:56Z</time></trkpt><trkpt lat="31.658021827522603" lon="-6.44722371586178"><ele>1837.0</ele><time>2026-05-04T12:20:57Z</time></trkpt><trkpt lat="31.657979650224007" lon="-6.447299685053416"><ele>1836.9999999999998</ele><time>2026-05-04T12:20:58Z</time></trkpt><trkpt lat="31.657936730699827" lon="-6.447378157062904"><ele>1836.9999999999998</ele><time>2026-05-04T12:20:59Z</time></trkpt><trkpt lat="31.657895266206555" lon="-6.447492857990981"><ele>1837.0</ele><time>2026-05-04T12:21:00Z</time></trkpt><trkpt lat="31.657859321366995" lon="-6.447634706994473"><ele>1837.0</ele><time>2026-05-04T12:21:01Z</time></trkpt><trkpt lat="31.657823520292784" lon="-6.447795885026925"><ele>1835.3333333333335</ele><time>2026-05-04T12:21:02Z</time></trkpt><trkpt lat="31.657776150937536" lon="-6.447968492901512"><ele>1833.6666666666665</ele><time>2026-05-04T12:21:03Z</time></trkpt><trkpt lat="31.657735014621565" lon="-6.448143108519077"><ele>1832.0</ele><time>2026-05-04T12:21:04Z</time></trkpt><trkpt lat="31.65769410186542" lon="-6.448311109507281"><ele>1832.0</ele><time>2026-05-04T12:21:05Z</time></trkpt><trkpt lat="31.65767271890383" lon="-6.448489314190852"><ele>1832.0</ele><time>2026-05-04T12:21:06Z</time></trkpt><trkpt lat="31.657666416647636" lon="-6.448684841725739"><ele>1832.0</ele><time>2026-05-04T12:21:07Z</time></trkpt><trkpt lat="31.657656656229054" lon="-6.448877554095275"><ele>1832.0</ele><time>2026-05-04T12:21:08Z</time></trkpt><trkpt lat="31.65764289055657" lon="-6.4490738069414135"><ele>1832.0</ele><time>2026-05-04T12:21:09Z</time></trkpt><trkpt lat="31.657629671660427" lon="-6.449273501786188"><ele>1832.0</ele><time>2026-05-04T12:21:10Z</time></trkpt><trkpt lat="31.65761362344181" lon="-6.449460087292982"><ele>1832.0</ele><time>2026-05-04T12:21:11Z</time></trkpt><trkpt lat="31.657596257778557" lon="-6.449636169391408"><ele>1832.0</ele><time>2026-05-04T12:21:12Z</time></trkpt><trkpt lat="31.657577890947156" lon="-6.449804181825814"><ele>1832.0</ele><time>2026-05-04T12:21:13Z</time></trkpt><trkpt lat="31.657571162483976" lon="-6.449967864980065"><ele>1832.0</ele><time>2026-05-04T12:21:14Z</time></trkpt><trkpt lat="31.65756187972695" lon="-6.450120678120476"><ele>1832.0</ele><time>2026-05-04T12:21:15Z</time></trkpt><trkpt lat="31.657534625970417" lon="-6.45026185234679"><ele>1831.9999999999998</ele><time>2026-05-04T12:21:16Z</time></trkpt><trkpt lat="31.657493558085616" lon="-6.45037070175683"><ele>1831.9999999999998</ele><time>2026-05-04T12:21:17Z</time></trkpt><trkpt lat="31.65741956838403" lon="-6.450455728864616"><ele>1832.0</ele><time>2026-05-04T12:21:18Z</time></trkpt><trkpt lat="31.657312037329792" lon="-6.450516141009553"><ele>1832.0</ele><time>2026-05-04T12:21:19Z</time></trkpt><trkpt lat="31.657189471942296" lon="-6.45057312057966"><ele>1832.0</ele><time>2026-05-04T12:21:20Z</time></trkpt><trkpt lat="31.657060550798015" lon="-6.450639788373954"><ele>1832.0</ele><time>2026-05-04T12:21:21Z</time></trkpt><trkpt lat="31.656925771983182" lon="-6.450709329281047"><ele>1832.0</ele><time>2026-05-04T12:21:22Z</time></trkpt><trkpt lat="31.656787150202543" lon="-6.450776731816739"><ele>1832.0</ele><time>2026-05-04T12:21:23Z</time></trkpt><trkpt lat="31.656650903072315" lon="-6.450857127721439"><ele>1832.0</ele><time>2026-05-04T12:21:24Z</time></trkpt><trkpt lat="31.65651622904718" lon="-6.45094885783677"><ele>1832.0</ele><time>2026-05-04T12:21:25Z</time></trkpt><trkpt lat="31.65638748320688" lon="-6.451045508052316"><ele>1832.0</ele><time>2026-05-04T12:21:26Z</time></trkpt><trkpt lat="31.656254341466425" lon="-6.451144160505242"><ele>1832.0</ele><time>2026-05-04T12:21:27Z</time></trkpt><trkpt lat="31.656120463689756" lon="-6.451250373683018"><ele>1832.0</ele><time>2026-05-04T12:21:28Z</time></trkpt><trkpt lat="31.655997828239755" lon="-6.451355724316365"><ele>1832.0</ele><time>2026-05-04T12:21:29Z</time></trkpt><trkpt lat="31.655894122040557" lon="-6.451447636547212"><ele>1832.0</ele><time>2026-05-04T12:21:30Z</time></trkpt><trkpt lat="31.655790265610346" lon="-6.451521808432402"><ele>1831.75</ele><time>2026-05-04T12:21:31Z</time></trkpt><trkpt lat="31.655671234220573" lon="-6.451599269743112"><ele>1831.5</ele><time>2026-05-04T12:21:32Z</time></trkpt><trkpt lat="31.655539514114245" lon="-6.451666727809316"><ele>1831.25</ele><time>2026-05-04T12:21:33Z</time></trkpt><trkpt lat="31.655394926679588" lon="-6.451711641076271"><ele>1831.0</ele><time>2026-05-04T12:21:34Z</time></trkpt><trkpt lat="31.655243009430603" lon="-6.451739237960436"><ele>1830.75</ele><time>2026-05-04T12:21:35Z</time></trkpt><trkpt lat="31.655094750606555" lon="-6.451757128004459"><ele>1830.5</ele><time>2026-05-04T12:21:36Z</time></trkpt><trkpt lat="31.65494826768753" lon="-6.451754507997767"><ele>1830.25</ele><time>2026-05-04T12:21:37Z</time></trkpt><trkpt lat="31.6547988403493" lon="-6.451717209565326"><ele>1830.0</ele><time>2026-05-04T12:21:38Z</time></trkpt><trkpt lat="31.654643443304003" lon="-6.451673422411045"><ele>1830.0</ele><time>2026-05-04T12:21:39Z</time></trkpt><trkpt lat="31.65448722295978" lon="-6.451643077652409"><ele>1830.0</ele><time>2026-05-04T12:21:40Z</time></trkpt><trkpt lat="31.654345485725603" lon="-6.451613585032066"><ele>1830.0</ele><time>2026-05-04T12:21:41Z</time></trkpt><trkpt lat="31.65421306224667" lon="-6.451583898950292"><ele>1830.0</ele><time>2026-05-04T12:21:42Z</time></trkpt><trkpt lat="31.65408568204804" lon="-6.451569374493699"><ele>1829.6</ele><time>2026-05-04T12:21:43Z</time></trkpt><trkpt lat="31.653969376682358" lon="-6.451603629588178"><ele>1829.2</ele><time>2026-05-04T12:21:44Z</time></trkpt><trkpt lat="31.653864495614247" lon="-6.451630235814697"><ele>1828.8000000000002</ele><time>2026-05-04T12:21:45Z</time></trkpt><trkpt lat="31.65380595757395" lon="-6.45173204493205"><ele>1828.4</ele><time>2026-05-04T12:21:46Z</time></trkpt><trkpt lat="31.65374897693288" lon="-6.451816032255042"><ele>1828.0</ele><time>2026-05-04T12:21:47Z</time></trkpt><trkpt lat="31.653695641618725" lon="-6.451901670460736"><ele>1828.0</ele><time>2026-05-04T12:21:48Z</time></trkpt><trkpt lat="31.653652978697924" lon="-6.452010940070368"><ele>1828.0</ele><time>2026-05-04T12:21:49Z</time></trkpt><trkpt lat="31.653657497772695" lon="-6.452137514602457"><ele>1828.0</ele><time>2026-05-04T12:21:50Z</time></trkpt><trkpt lat="31.6536786705058" lon="-6.452274331134825"><ele>1828.0</ele><time>2026-05-04T12:21:51Z</time></trkpt><trkpt lat="31.653696616628263" lon="-6.452422327986743"><ele>1827.0</ele><time>2026-05-04T12:21:52Z</time></trkpt><trkpt lat="31.65371202820415" lon="-6.452556371055866"><ele>1826.0</ele><time>2026-05-04T12:21:53Z</time></trkpt><trkpt lat="31.653686601311456" lon="-6.452688305576269"><ele>1825.0</ele><time>2026-05-04T12:21:54Z</time></trkpt><trkpt lat="31.65365799223401" lon="-6.452825362670109"><ele>1824.0</ele><time>2026-05-04T12:21:55Z</time></trkpt><trkpt lat="31.653550856566753" lon="-6.452941255480484"><ele>1824.6666666666665</ele><time>2026-05-04T12:21:56Z</time></trkpt><trkpt lat="31.653445622033228" lon="-6.453064875326512"><ele>1825.3333333333333</ele><time>2026-05-04T12:21:57Z</time></trkpt><trkpt lat="31.65334637869583" lon="-6.453203718078748"><ele>1826.0</ele><time>2026-05-04T12:21:58Z</time></trkpt><trkpt lat="31.653255676624497" lon="-6.453349721708636"><ele>1826.0</ele><time>2026-05-04T12:21:59Z</time></trkpt><trkpt lat="31.653170560878593" lon="-6.453499008322741"><ele>1826.0</ele><time>2026-05-04T12:22:00Z</time></trkpt><trkpt lat="31.653091222656624" lon="-6.453646575718686"><ele>1826.0</ele><time>2026-05-04T12:22:01Z</time></trkpt><trkpt lat="31.6530232555539" lon="-6.453796969512475"><ele>1826.0</ele><time>2026-05-04T12:22:02Z</time></trkpt><trkpt lat="31.65296009960351" lon="-6.453945566746848"><ele>1826.0</ele><time>2026-05-04T12:22:03Z</time></trkpt><trkpt lat="31.652895253448676" lon="-6.454086721111618"><ele>1826.0</ele><time>2026-05-04T12:22:04Z</time></trkpt><trkpt lat="31.65283408342435" lon="-6.454221346533628"><ele>1826.0</ele><time>2026-05-04T12:22:05Z</time></trkpt><trkpt lat="31.652774391138635" lon="-6.454343855549743"><ele>1826.0</ele><time>2026-05-04T12:22:06Z</time></trkpt><trkpt lat="31.652715712248042" lon="-6.454457939860412"><ele>1826.0</ele><time>2026-05-04T12:22:07Z</time></trkpt><trkpt lat="31.65265173410191" lon="-6.4545620804887704"><ele>1826.0</ele><time>2026-05-04T12:22:08Z</time></trkpt><trkpt lat="31.652590654602488" lon="-6.454671471543876"><ele>1826.0</ele><time>2026-05-04T12:22:09Z</time></trkpt><trkpt lat="31.65251193107708" lon="-6.4547787034239645"><ele>1826.0</ele><time>2026-05-04T12:22:10Z</time></trkpt><trkpt lat="31.65241761133571" lon="-6.454883157175603"><ele>1827.0</ele><time>2026-05-04T12:22:11Z</time></trkpt><trkpt lat="31.652315764115123" lon="-6.4549849007160685"><ele>1828.0</ele><time>2026-05-04T12:22:12Z</time></trkpt><trkpt lat="31.65220533186965" lon="-6.4550816414277445"><ele>1829.0</ele><time>2026-05-04T12:22:13Z</time></trkpt><trkpt lat="31.65208751212138" lon="-6.455179901059287"><ele>1830.0</ele><time>2026-05-04T12:22:14Z</time></trkpt><trkpt lat="31.65197426385501" lon="-6.455283530511903"><ele>1830.25</ele><time>2026-05-04T12:22:14.999Z</time></trkpt><trkpt lat="31.651868605629527" lon="-6.455379743626494"><ele>1830.5</ele><time>2026-05-04T12:22:15.999Z</time></trkpt><trkpt lat="31.65179741696899" lon="-6.455496708655903"><ele>1830.75</ele><time>2026-05-04T12:22:16.999Z</time></trkpt><trkpt lat="31.65170430962262" lon="-6.455595046873183"><ele>1831.0</ele><time>2026-05-04T12:22:17.999Z</time></trkpt><trkpt lat="31.65163334195313" lon="-6.455731828233343"><ele>1831.0</ele><time>2026-05-04T12:22:18.999Z</time></trkpt><trkpt lat="31.65156432664874" lon="-6.455880842587219"><ele>1831.0</ele><time>2026-05-04T12:22:19.999Z</time></trkpt><trkpt lat="31.651521758391468" lon="-6.456051535954609"><ele>1831.0</ele><time>2026-05-04T12:22:20.999Z</time></trkpt><trkpt lat="31.651456229798818" lon="-6.45622026168168"><ele>1830.0</ele><time>2026-05-04T12:22:21.999Z</time></trkpt><trkpt lat="31.651427980770997" lon="-6.456391680183496"><ele>1829.0</ele><time>2026-05-04T12:22:22.999Z</time></trkpt><trkpt lat="31.651405505669754" lon="-6.45654849690116"><ele>1828.0</ele><time>2026-05-04T12:22:23.999Z</time></trkpt><trkpt lat="31.651389122570333" lon="-6.456678968341671"><ele>1827.0</ele><time>2026-05-04T12:22:24.999Z</time></trkpt><trkpt lat="31.65136046718526" lon="-6.45678547331057"><ele>1827.0</ele><time>2026-05-04T12:22:25.999Z</time></trkpt><trkpt lat="31.651313106677232" lon="-6.45689604198284"><ele>1827.0</ele><time>2026-05-04T12:22:26.999Z</time></trkpt><trkpt lat="31.65124459817196" lon="-6.457019169544643"><ele>1827.0</ele><time>2026-05-04T12:22:27.999Z</time></trkpt><trkpt lat="31.651152012292137" lon="-6.457138477020485"><ele>1827.0</ele><time>2026-05-04T12:22:28.999Z</time></trkpt><trkpt lat="31.651048017509552" lon="-6.457259293192817"><ele>1825.6666666666665</ele><time>2026-05-04T12:22:29.999Z</time></trkpt><trkpt lat="31.650938222904617" lon="-6.457381248194022"><ele>1824.3333333333333</ele><time>2026-05-04T12:22:30.999Z</time></trkpt><trkpt lat="31.650829873509" lon="-6.457512678000928"><ele>1823.0</ele><time>2026-05-04T12:22:31.999Z</time></trkpt><trkpt lat="31.650729482589593" lon="-6.457648219189068"><ele>1823.0</ele><time>2026-05-04T12:22:32.999Z</time></trkpt><trkpt lat="31.65063836198809" lon="-6.457788697199742"><ele>1823.0</ele><time>2026-05-04T12:22:33.999Z</time></trkpt><trkpt lat="31.65057505050298" lon="-6.457940253844917"><ele>1823.0</ele><time>2026-05-04T12:22:34.999Z</time></trkpt><trkpt lat="31.650509257661323" lon="-6.458078869535054"><ele>1823.0</ele><time>2026-05-04T12:22:35.999Z</time></trkpt><trkpt lat="31.650437637396347" lon="-6.458204571267399"><ele>1823.0</ele><time>2026-05-04T12:22:36.999Z</time></trkpt><trkpt lat="31.650382754964962" lon="-6.458334519853603"><ele>1823.0000000000002</ele><time>2026-05-04T12:22:37.999Z</time></trkpt><trkpt lat="31.650334174507012" lon="-6.458458859926482"><ele>1823.0000000000002</ele><time>2026-05-04T12:22:39Z</time></trkpt><trkpt lat="31.65029307567763" lon="-6.458568559638828"><ele>1823.0</ele><time>2026-05-04T12:22:40Z</time></trkpt><trkpt lat="31.65025705338815" lon="-6.458658757314489"><ele>1823.0</ele><time>2026-05-04T12:22:41Z</time></trkpt><trkpt lat="31.650208932954577" lon="-6.458753729951901"><ele>1822.5</ele><time>2026-05-04T12:22:43Z</time></trkpt><trkpt lat="31.650202014539122" lon="-6.4588346028947505"><ele>1822.0</ele><time>2026-05-04T12:22:46Z</time></trkpt><trkpt lat="31.65179741696899" lon="-6.455496708655903"><ele>1824.25</ele><time>2026-05-04T12:22:16.999Z</time></trkpt><trkpt lat="31.65170430962262" lon="-6.455595046873183"><ele>1826.5</ele><time>2026-05-04T12:22:17.999Z</time></trkpt><trkpt lat="31.65163334195313" lon="-6.455731828233343"><ele>1828.75</ele><time>2026-05-04T12:22:18.999Z</time></trkpt><trkpt lat="31.65156432664874" lon="-6.455880842587219"><ele>1831.0</ele><time>2026-05-04T12:22:19.999Z</time></trkpt><trkpt lat="31.651521758391468" lon="-6.456051535954609"><ele>1831.0</ele><time>2026-05-04T12:22:20.999Z</time></trkpt><trkpt lat="31.651456229798818" lon="-6.45622026168168"><ele>1831.0</ele><time>2026-05-04T12:22:21.999Z</time></trkpt><trkpt lat="31.651427980770997" lon="-6.456391680183496"><ele>1831.0</ele><time>2026-05-04T12:22:22.999Z</time></trkpt><trkpt lat="31.651405505669754" lon="-6.45654849690116"><ele>1831.0</ele><time>2026-05-04T12:22:23.999Z</time></trkpt><trkpt lat="31.651389122570333" lon="-6.456678968341671"><ele>1830.0</ele><time>2026-05-04T12:22:24.999Z</time></trkpt><trkpt lat="31.65136046718526" lon="-6.45678547331057"><ele>1829.0</ele><time>2026-05-04T12:22:25.999Z</time></trkpt><trkpt lat="31.651313106677232" lon="-6.45689604198284"><ele>1828.0</ele><time>2026-05-04T12:22:26.999Z</time></trkpt><trkpt lat="31.65124459817196" lon="-6.457019169544643"><ele>1827.0</ele><time>2026-05-04T12:22:27.999Z</time></trkpt><trkpt lat="31.651152012292137" lon="-6.457138477020485"><ele>1825.6666666666665</ele><time>2026-05-04T12:22:28.999Z</time></trkpt><trkpt lat="31.651048017509552" lon="-6.457259293192817"><ele>1824.3333333333333</ele><time>2026-05-04T12:22:29.999Z</time></trkpt><trkpt lat="31.650938222904617" lon="-6.457381248194022"><ele>1823.0</ele><time>2026-05-04T12:22:30.999Z</time></trkpt><trkpt lat="31.650829873509" lon="-6.457512678000928"><ele>1823.0</ele><time>2026-05-04T12:22:31.999Z</time></trkpt><trkpt lat="31.650729482589593" lon="-6.457648219189068"><ele>1823.0</ele><time>2026-05-04T12:22:32.999Z</time></trkpt><trkpt lat="31.65063836198809" lon="-6.457788697199742"><ele>1823.0</ele><time>2026-05-04T12:22:33.999Z</time></trkpt><trkpt lat="31.65057505050298" lon="-6.457940253844917"><ele>1823.0</ele><time>2026-05-04T12:22:34.999Z</time></trkpt><trkpt lat="31.650509257661323" lon="-6.458078869535054"><ele>1823.0</ele><time>2026-05-04T12:22:35.999Z</time></trkpt><trkpt lat="31.650437637396347" lon="-6.458204571267399"><ele>1823.0</ele><time>2026-05-04T12:22:36.999Z</time></trkpt><trkpt lat="31.650382754964962" lon="-6.458334519853603"><ele>1823.0</ele><time>2026-05-04T12:22:37.999Z</time></trkpt><trkpt lat="31.650334174507012" lon="-6.458458859926482"><ele>1823.0</ele><time>2026-05-04T12:22:39Z</time></trkpt><trkpt lat="31.65029307567763" lon="-6.458568559638828"><ele>1822.9999999999998</ele><time>2026-05-04T12:22:40Z</time></trkpt><trkpt lat="31.65025705338815" lon="-6.458658757314489"><ele>1823.0</ele><time>2026-05-04T12:22:41Z</time></trkpt><trkpt lat="31.650208932954577" lon="-6.458753729951901"><ele>1823.0</ele><time>2026-05-04T12:22:43Z</time></trkpt><trkpt lat="31.650202014539122" lon="-6.4588346028947505"><ele>1823.0</ele><time>2026-05-04T12:22:46Z</time></trkpt><trkpt lat="31.650174871665506" lon="-6.458913582170687"><ele>1822.9999999999998</ele><time>2026-05-04T12:23:05Z</time></trkpt><trkpt lat="31.65017000253112" lon="-6.458990648217506"><ele>1823.0</ele><time>2026-05-04T12:23:06Z</time></trkpt><trkpt lat="31.65016149793471" lon="-6.45908254132773"><ele>1823.0</ele><time>2026-05-04T12:23:07Z</time></trkpt><trkpt lat="31.65015448864644" lon="-6.4591973191366465"><ele>1823.0000000000002</ele><time>2026-05-04T12:23:08Z</time></trkpt><trkpt lat="31.650159773656927" lon="-6.459321000262467"><ele>1823.0000000000002</ele><time>2026-05-04T12:23:09Z</time></trkpt><trkpt lat="31.650176831977024" lon="-6.459460214072246"><ele>1823.0</ele><time>2026-05-04T12:23:10Z</time></trkpt><trkpt lat="31.650194872467814" lon="-6.459606350873036"><ele>1823.0</ele><time>2026-05-04T12:23:11Z</time></trkpt><trkpt lat="31.65020814529892" lon="-6.45976517408421"><ele>1823.0</ele><time>2026-05-04T12:23:12Z</time></trkpt><trkpt lat="31.650220189998386" lon="-6.459922213782079"><ele>1823.0</ele><time>2026-05-04T12:23:13Z</time></trkpt><trkpt lat="31.650226253142495" lon="-6.460083229480976"><ele>1823.0</ele><time>2026-05-04T12:23:14Z</time></trkpt><trkpt lat="31.650225396157108" lon="-6.460237451838027"><ele>1823.0</ele><time>2026-05-04T12:23:15Z</time></trkpt><trkpt lat="31.650218639258984" lon="-6.460384007415915"><ele>1822.75</ele><time>2026-05-04T12:23:16Z</time></trkpt><trkpt lat="31.650213640156622" lon="-6.460522833855463"><ele>1822.5</ele><time>2026-05-04T12:23:17Z</time></trkpt><trkpt lat="31.650209661560567" lon="-6.460657159029517"><ele>1822.25</ele><time>2026-05-04T12:23:18Z</time></trkpt><trkpt lat="31.65019623039944" lon="-6.460800351091311"><ele>1822.0</ele><time>2026-05-04T12:23:19Z</time></trkpt><trkpt lat="31.650180163223148" lon="-6.460947223306188"><ele>1822.0</ele><time>2026-05-04T12:23:20Z</time></trkpt><trkpt lat="31.650165901361213" lon="-6.4610949465992205"><ele>1822.0</ele><time>2026-05-04T12:23:21Z</time></trkpt><trkpt lat="31.650148551470952" lon="-6.461236148149085"><ele>1822.0</ele><time>2026-05-04T12:23:22Z</time></trkpt><trkpt lat="31.650123507940258" lon="-6.461368509012676"><ele>1822.0</ele><time>2026-05-04T12:23:23Z</time></trkpt><trkpt lat="31.650094139318398" lon="-6.461494753744701"><ele>1822.25</ele><time>2026-05-04T12:23:24Z</time></trkpt><trkpt lat="31.65005877552462" lon="-6.461627609921618"><ele>1822.5</ele><time>2026-05-04T12:23:25Z</time></trkpt><trkpt lat="31.6500176240114" lon="-6.461760200668382"><ele>1822.75</ele><time>2026-05-04T12:23:26Z</time></trkpt><trkpt lat="31.649963221214406" lon="-6.461881498327342"><ele>1823.0</ele><time>2026-05-04T12:23:27Z</time></trkpt><trkpt lat="31.649896199667435" lon="-6.461989993833376"><ele>1823.0</ele><time>2026-05-04T12:23:28Z</time></trkpt><trkpt lat="31.649822692311574" lon="-6.462102604567146"><ele>1823.0</ele><time>2026-05-04T12:23:29Z</time></trkpt><trkpt lat="31.64974776854895" lon="-6.462220921264706"><ele>1823.0</ele><time>2026-05-04T12:23:30Z</time></trkpt><trkpt lat="31.649671814190015" lon="-6.462340402442019"><ele>1823.0</ele><time>2026-05-04T12:23:31Z</time></trkpt><trkpt lat="31.649590924862036" lon="-6.462449802036084"><ele>1822.75</ele><time>2026-05-04T12:23:32Z</time></trkpt><trkpt lat="31.649504942510212" lon="-6.462539367979004"><ele>1822.5</ele><time>2026-05-04T12:23:33Z</time></trkpt><trkpt lat="31.649405279165016" lon="-6.46260697015527"><ele>1822.25</ele><time>2026-05-04T12:23:34Z</time></trkpt><trkpt lat="31.649292438234085" lon="-6.462661485430925"><ele>1822.0</ele><time>2026-05-04T12:23:35Z</time></trkpt><trkpt lat="31.6491763416533" lon="-6.462710071591401"><ele>1822.0</ele><time>2026-05-04T12:23:36Z</time></trkpt><trkpt lat="31.64906972002629" lon="-6.462750622152888"><ele>1821.9999999999998</ele><time>2026-05-04T12:23:37Z</time></trkpt><trkpt lat="31.64897628326164" lon="-6.462800168148561"><ele>1821.9999999999998</ele><time>2026-05-04T12:23:38Z</time></trkpt><trkpt lat="31.648893440482997" lon="-6.462862925084209"><ele>1822.0</ele><time>2026-05-04T12:23:39Z</time></trkpt><trkpt lat="31.64880823492745" lon="-6.462942029888161"><ele>1822.0</ele><time>2026-05-04T12:23:40Z</time></trkpt><trkpt lat="31.648730397966936" lon="-6.463039811523914"><ele>1822.1666666666667</ele><time>2026-05-04T12:23:41Z</time></trkpt><trkpt lat="31.648670090606814" lon="-6.463135665982939"><ele>1822.3333333333335</ele><time>2026-05-04T12:23:42Z</time></trkpt><trkpt lat="31.648620416367606" lon="-6.463230650361012"><ele>1822.5</ele><time>2026-05-04T12:23:43Z</time></trkpt><trkpt lat="31.64857452290614" lon="-6.463324445472362"><ele>1822.6666666666665</ele><time>2026-05-04T12:23:44Z</time></trkpt><trkpt lat="31.648536423660172" lon="-6.46341147451237"><ele>1822.8333333333333</ele><time>2026-05-04T12:23:45Z</time></trkpt><trkpt lat="31.6485021055981" lon="-6.46348256131746"><ele>1823.0</ele><time>2026-05-04T12:23:46Z</time></trkpt><trkpt lat="31.648466631503744" lon="-6.463544002168594"><ele>1823.0</ele><time>2026-05-04T12:23:47Z</time></trkpt><trkpt lat="31.64841822587648" lon="-6.4636047624927375"><ele>1823.0000000000002</ele><time>2026-05-04T12:23:48Z</time></trkpt><trkpt lat="31.648357293193634" lon="-6.46365732135052"><ele>1823.0</ele><time>2026-05-04T12:23:49Z</time></trkpt><trkpt lat="31.64829587248006" lon="-6.463697162622305"><ele>1823.0</ele><time>2026-05-04T12:23:50Z</time></trkpt><trkpt lat="31.64823449894317" lon="-6.463735888369601"><ele>1823.0000000000002</ele><time>2026-05-04T12:23:51Z</time></trkpt><trkpt lat="31.648176364324197" lon="-6.4637728844629105"><ele>1823.0</ele><time>2026-05-04T12:23:52Z</time></trkpt><trkpt lat="31.648117920366396" lon="-6.46380939702147"><ele>1823.0</ele><time>2026-05-04T12:23:53Z</time></trkpt><trkpt lat="31.64805412562395" lon="-6.463847643592712"><ele>1823.4</ele><time>2026-05-04T12:23:54Z</time></trkpt><trkpt lat="31.64798461859483" lon="-6.463888704678244"><ele>1823.8000000000002</ele><time>2026-05-04T12:23:55Z</time></trkpt><trkpt lat="31.64791046664753" lon="-6.463936496762743"><ele>1824.2</ele><time>2026-05-04T12:23:56Z</time></trkpt><trkpt lat="31.647827781388038" lon="-6.463995018176476"><ele>1824.6</ele><time>2026-05-04T12:23:57Z</time></trkpt><trkpt lat="31.647734795529846" lon="-6.46406162042761"><ele>1825.0</ele><time>2026-05-04T12:23:58Z</time></trkpt><trkpt lat="31.64763493072083" lon="-6.464131484915442"><ele>1823.75</ele><time>2026-05-04T12:23:59Z</time></trkpt><trkpt lat="31.647529475668005" lon="-6.464197506372074"><ele>1822.5</ele><time>2026-05-04T12:24:00Z</time></trkpt><trkpt lat="31.647413894636856" lon="-6.464270076834447"><ele>1821.25</ele><time>2026-05-04T12:24:01Z</time></trkpt><trkpt lat="31.647295198563796" lon="-6.46434347152358"><ele>1820.0</ele><time>2026-05-04T12:24:02Z</time></trkpt><trkpt lat="31.64718219528671" lon="-6.464410274769617"><ele>1820.0</ele><time>2026-05-04T12:24:03Z</time></trkpt><trkpt lat="31.64707587818045" lon="-6.4644902136198565"><ele>1820.0</ele><time>2026-05-04T12:24:04Z</time></trkpt><trkpt lat="31.646959952673352" lon="-6.464577077002122"><ele>1820.0</ele><time>2026-05-04T12:24:05Z</time></trkpt><trkpt lat="31.646839476924235" lon="-6.4646632865591105"><ele>1820.0</ele><time>2026-05-04T12:24:06Z</time></trkpt><trkpt lat="31.646726711569002" lon="-6.464755566209325"><ele>1820.75</ele><time>2026-05-04T12:24:07Z</time></trkpt><trkpt lat="31.646623065121517" lon="-6.464852764105787"><ele>1821.5</ele><time>2026-05-04T12:24:08Z</time></trkpt><trkpt lat="31.646532361610728" lon="-6.464958708199281"><ele>1822.25</ele><time>2026-05-04T12:24:09Z</time></trkpt><trkpt lat="31.64644761615296" lon="-6.465073521211707"><ele>1823.0</ele><time>2026-05-04T12:24:10Z</time></trkpt><trkpt lat="31.646360389389805" lon="-6.465197539071488"><ele>1823.0</ele><time>2026-05-04T12:24:11Z</time></trkpt><trkpt lat="31.64626687676182" lon="-6.465320801633109"><ele>1823.0</ele><time>2026-05-04T12:24:12Z</time></trkpt><trkpt lat="31.64618961342156" lon="-6.465456885689922"><ele>1823.0</ele><time>2026-05-04T12:24:13Z</time></trkpt><trkpt lat="31.64610452092367" lon="-6.465574968868077"><ele>1823.0</ele><time>2026-05-04T12:24:14Z</time></trkpt><trkpt lat="31.646007721762725" lon="-6.465683163615055"><ele>1823.25</ele><time>2026-05-04T12:24:15Z</time></trkpt><trkpt lat="31.645923094001542" lon="-6.465805053014926"><ele>1823.5</ele><time>2026-05-04T12:24:16Z</time></trkpt><trkpt lat="31.645841959060153" lon="-6.46592099464888"><ele>1823.75</ele><time>2026-05-04T12:24:17Z</time></trkpt><trkpt lat="31.64576621866055" lon="-6.466034485896959"><ele>1824.0</ele><time>2026-05-04T12:24:18Z</time></trkpt><trkpt lat="31.645693498304652" lon="-6.466149756894182"><ele>1824.0</ele><time>2026-05-04T12:24:19Z</time></trkpt><trkpt lat="31.64561944907302" lon="-6.466266257168966"><ele>1824.0</ele><time>2026-05-04T12:24:19.999Z</time></trkpt><trkpt lat="31.645557265976148" lon="-6.46638941703462"><ele>1824.0</ele><time>2026-05-04T12:24:20.999Z</time></trkpt><trkpt lat="31.645487917388582" lon="-6.466515697858655"><ele>1824.0</ele><time>2026-05-04T12:24:21.999Z</time></trkpt><trkpt lat="31.64542483058039" lon="-6.466641703043938"><ele>1824.2</ele><time>2026-05-04T12:24:22.999Z</time></trkpt><trkpt lat="31.645364767700865" lon="-6.466761704597488"><ele>1824.4</ele><time>2026-05-04T12:24:23.999Z</time></trkpt><trkpt lat="31.64530621598788" lon="-6.4668786871668775"><ele>1824.6</ele><time>2026-05-04T12:24:24.999Z</time></trkpt><trkpt lat="31.645265321699547" lon="-6.466995331371645"><ele>1824.8</ele><time>2026-05-04T12:24:25.999Z</time></trkpt><trkpt lat="31.645225239278048" lon="-6.467104357417878"><ele>1825.0</ele><time>2026-05-04T12:24:26.999Z</time></trkpt><trkpt lat="31.64518830324657" lon="-6.467204825419151"><ele>1826.4</ele><time>2026-05-04T12:24:27.999Z</time></trkpt><trkpt lat="31.64515117477292" lon="-6.467305278490834"><ele>1827.8</ele><time>2026-05-04T12:24:28.999Z</time></trkpt><trkpt lat="31.645110221500396" lon="-6.467416885710114"><ele>1829.1999999999998</ele><time>2026-05-04T12:24:29.999Z</time></trkpt><trkpt lat="31.64506937229007" lon="-6.467531889733218"><ele>1830.6</ele><time>2026-05-04T12:24:30.999Z</time></trkpt><trkpt lat="31.64503123116719" lon="-6.467649727019105"><ele>1832.0</ele><time>2026-05-04T12:24:31.999Z</time></trkpt><trkpt lat="31.644978015371663" lon="-6.4677750197498325"><ele>1832.0</ele><time>2026-05-04T12:24:32.999Z</time></trkpt><trkpt lat="31.644962418103713" lon="-6.467923222373955"><ele>1832.0</ele><time>2026-05-04T12:24:33.999Z</time></trkpt><trkpt lat="31.644939583906382" lon="-6.468081895118491"><ele>1832.0</ele><time>2026-05-04T12:24:34.999Z</time></trkpt><trkpt lat="31.644917487993393" lon="-6.468239721275436"><ele>1832.0</ele><time>2026-05-04T12:24:35.999Z</time></trkpt><trkpt lat="31.644895891343722" lon="-6.4683940059744165"><ele>1832.0</ele><time>2026-05-04T12:24:36.999Z</time></trkpt><trkpt lat="31.644874258051185" lon="-6.468548552386984"><ele>1832.0</ele><time>2026-05-04T12:24:37.999Z</time></trkpt><trkpt lat="31.644852198339652" lon="-6.468704448570271"><ele>1832.0</ele><time>2026-05-04T12:24:39Z</time></trkpt><trkpt lat="31.644851315309378" lon="-6.468841456642216"><ele>1832.0</ele><time>2026-05-04T12:24:40Z</time></trkpt><trkpt lat="31.64484856835809" lon="-6.468927570348095"><ele>1831.3999999999999</ele><time>2026-05-04T12:24:41Z</time></trkpt><trkpt lat="31.644912181793305" lon="-6.4689898231069405"><ele>1830.7999999999997</ele><time>2026-05-04T12:24:45Z</time></trkpt><trkpt lat="31.645009162447142" lon="-6.469031237214035"><ele>1830.2</ele><time>2026-05-04T12:24:47Z</time></trkpt><trkpt lat="31.645052643982115" lon="-6.46912467704565"><ele>1829.6</ele><time>2026-05-04T12:24:49Z</time></trkpt><trkpt lat="31.64495615797102" lon="-6.469177428844842"><ele>1829.0</ele><time>2026-05-04T12:24:50Z</time></trkpt><trkpt lat="31.64510009462251" lon="-6.469158324008948"><ele>1829.0</ele><time>2026-05-04T12:28:46.001Z</time></trkpt><trkpt lat="31.64503563457258" lon="-6.469181806913737"><ele>1829.0</ele><time>2026-05-04T12:30:40.001Z</time></trkpt><trkpt lat="31.64507957341541" lon="-6.469257214968639"><ele>1829.0</ele><time>2026-05-04T12:31:38.999Z</time></trkpt><trkpt lat="31.6450516375625" lon="-6.469381739157813"><ele>1829.0</ele><time>2026-05-04T12:31:39.999Z</time></trkpt><trkpt lat="31.64498099834628" lon="-6.469486614723061"><ele>1829.0</ele><time>2026-05-04T12:31:41.999Z</time></trkpt><trkpt lat="31.644905762773313" lon="-6.469522041086332"><ele>1829.0</ele><time>2026-05-04T12:31:43.999Z</time></trkpt><trkpt lat="31.644839929698442" lon="-6.469584710956874"><ele>1829.0</ele><time>2026-05-04T12:31:45.999Z</time></trkpt><trkpt lat="31.644835557684907" lon="-6.469286197983611"><ele>1829.0</ele><time>2026-05-04T12:31:47.999Z</time></trkpt><trkpt lat="31.644821042755847" lon="-6.46915126618146"><ele>1829.0</ele><time>2026-05-04T12:31:48.999Z</time></trkpt><trkpt lat="31.644801319871995" lon="-6.469000697521688"><ele>1829.0</ele><time>2026-05-04T12:31:49.999Z</time></trkpt><trkpt lat="31.644785308068556" lon="-6.468844473044861"><ele>1829.0</ele><time>2026-05-04T12:31:50.999Z</time></trkpt><trkpt lat="31.644779505764454" lon="-6.468703350994606"><ele>1829.0</ele><time>2026-05-04T12:31:51.999Z</time></trkpt><trkpt lat="31.64478797347007" lon="-6.468573229563873"><ele>1829.75</ele><time>2026-05-04T12:31:52.999Z</time></trkpt><trkpt lat="31.644812794246384" lon="-6.468431811707728"><ele>1830.5</ele><time>2026-05-04T12:31:53.999Z</time></trkpt><trkpt lat="31.644845017263812" lon="-6.46828509627887"><ele>1831.25</ele><time>2026-05-04T12:31:54.999Z</time></trkpt><trkpt lat="31.644883152989042" lon="-6.468133211879305"><ele>1832.0</ele><time>2026-05-04T12:31:55.999Z</time></trkpt><trkpt lat="31.64492036436418" lon="-6.46796559929745"><ele>1832.0</ele><time>2026-05-04T12:31:56.999Z</time></trkpt><trkpt lat="31.644960758460154" lon="-6.467786136784926"><ele>1832.0</ele><time>2026-05-04T12:31:57.999Z</time></trkpt><trkpt lat="31.645009669419608" lon="-6.467609159268824"><ele>1832.0</ele><time>2026-05-04T12:31:58.999Z</time></trkpt><trkpt lat="31.64506370041518" lon="-6.4674406383752885"><ele>1832.0</ele><time>2026-05-04T12:31:59.999Z</time></trkpt><trkpt lat="31.64512443726015" lon="-6.46727116265454"><ele>1832.0</ele><time>2026-05-04T12:32:00.999Z</time></trkpt><trkpt lat="31.645185881980304" lon="-6.467106137618912"><ele>1832.0</ele><time>2026-05-04T12:32:01.999Z</time></trkpt><trkpt lat="31.645244113454623" lon="-6.466954194036669"><ele>1831.0</ele><time>2026-05-04T12:32:02.999Z</time></trkpt><trkpt lat="31.645296454224603" lon="-6.46682472319555"><ele>1830.0</ele><time>2026-05-04T12:32:03.999Z</time></trkpt><trkpt lat="31.645350407869866" lon="-6.466704060229932"><ele>1829.0</ele><time>2026-05-04T12:32:04.999Z</time></trkpt><trkpt lat="31.645412233192186" lon="-6.466592930908563"><ele>1828.0</ele><time>2026-05-04T12:32:05.999Z</time></trkpt><trkpt lat="31.645477815543423" lon="-6.4664864173303265"><ele>1828.0</ele><time>2026-05-04T12:32:06.999Z</time></trkpt><trkpt lat="31.645536138470483" lon="-6.46638337197843"><ele>1828.0000000000002</ele><time>2026-05-04T12:32:07.999Z</time></trkpt><trkpt lat="31.645592019640564" lon="-6.466282233958596"><ele>1828.0000000000002</ele><time>2026-05-04T12:32:08.999Z</time></trkpt><trkpt lat="31.645653240919998" lon="-6.466184951422696"><ele>1828.0</ele><time>2026-05-04T12:32:09.999Z</time></trkpt><trkpt lat="31.64571832204329" lon="-6.466083739142164"><ele>1828.0</ele><time>2026-05-04T12:32:10.999Z</time></trkpt><trkpt lat="31.645787331051697" lon="-6.4659835352791175"><ele>1827.0</ele><time>2026-05-04T12:32:11.999Z</time></trkpt><trkpt lat="31.645861179242395" lon="-6.465878141542017"><ele>1826.0</ele><time>2026-05-04T12:32:12.999Z</time></trkpt><trkpt lat="31.6459384012529" lon="-6.465771074909734"><ele>1825.0</ele><time>2026-05-04T12:32:13.999Z</time></trkpt><trkpt lat="31.646013354463367" lon="-6.465668954001887"><ele>1824.0</ele><time>2026-05-04T12:32:14.999Z</time></trkpt><trkpt lat="31.646083002830757" lon="-6.465570315319147"><ele>1823.8000000000002</ele><time>2026-05-04T12:32:15.999Z</time></trkpt><trkpt lat="31.646149215372727" lon="-6.465471234778457"><ele>1823.6000000000001</ele><time>2026-05-04T12:32:16.999Z</time></trkpt><trkpt lat="31.64621599917365" lon="-6.465375100170817"><ele>1823.4</ele><time>2026-05-04T12:32:17.999Z</time></trkpt><trkpt lat="31.646287714526448" lon="-6.465278287688633"><ele>1823.2</ele><time>2026-05-04T12:32:18.999Z</time></trkpt><trkpt lat="31.646362235702167" lon="-6.465178469527201"><ele>1823.0</ele><time>2026-05-04T12:32:19.999Z</time></trkpt><trkpt lat="31.6464388184547" lon="-6.465075246983292"><ele>1823.0</ele><time>2026-05-04T12:32:20.999Z</time></trkpt><trkpt lat="31.646512947287192" lon="-6.46496910636346"><ele>1823.0</ele><time>2026-05-04T12:32:21.999Z</time></trkpt><trkpt lat="31.64659292624197" lon="-6.464869644256318"><ele>1823.0</ele><time>2026-05-04T12:32:22.999Z</time></trkpt><trkpt lat="31.646674352521167" lon="-6.4647670515379865"><ele>1823.0</ele><time>2026-05-04T12:32:23.999Z</time></trkpt><trkpt lat="31.646772381295285" lon="-6.464680551652892"><ele>1822.4</ele><time>2026-05-04T12:32:24.999Z</time></trkpt><trkpt lat="31.646873942777862" lon="-6.46460403284453"><ele>1821.8000000000002</ele><time>2026-05-04T12:32:25.999Z</time></trkpt><trkpt lat="31.646971938373397" lon="-6.46453207400714"><ele>1821.2</ele><time>2026-05-04T12:32:26.999Z</time></trkpt><trkpt lat="31.647065547653725" lon="-6.464463336098648"><ele>1820.6</ele><time>2026-05-04T12:32:27.999Z</time></trkpt><trkpt lat="31.647151818532496" lon="-6.4643999868041915"><ele>1820.0</ele><time>2026-05-04T12:32:28.999Z</time></trkpt><trkpt lat="31.647232951929873" lon="-6.464340410009152"><ele>1819.9999999999998</ele><time>2026-05-04T12:32:29.999Z</time></trkpt><trkpt lat="31.64731686170277" lon="-6.464287981501027"><ele>1820.0</ele><time>2026-05-04T12:32:30.999Z</time></trkpt><trkpt lat="31.64739600646695" lon="-6.464238485241899"><ele>1820.0</ele><time>2026-05-04T12:32:31.999Z</time></trkpt><trkpt lat="31.64747402329695" lon="-6.46418978523014"><ele>1820.0</ele><time>2026-05-04T12:32:32.999Z</time></trkpt><trkpt lat="31.647546358928" lon="-6.464144684333212"><ele>1819.9999999999998</ele><time>2026-05-04T12:32:33.999Z</time></trkpt><trkpt lat="31.647617358725928" lon="-6.464100416277761"><ele>1820.0</ele><time>2026-05-04T12:32:34.999Z</time></trkpt><trkpt lat="31.647682080858782" lon="-6.464059607554991"><ele>1819.9999999999998</ele><time>2026-05-04T12:32:35.999Z</time></trkpt><trkpt lat="31.6477439830216" lon="-6.464019168866293"><ele>1820.0</ele><time>2026-05-04T12:32:36.999Z</time></trkpt><trkpt lat="31.647801308673127" lon="-6.463981719810333"><ele>1820.0</ele><time>2026-05-04T12:32:37.999Z</time></trkpt><trkpt lat="31.647859774184298" lon="-6.46394352621506"><ele>1820.0</ele><time>2026-05-04T12:32:38.999Z</time></trkpt><trkpt lat="31.647926379991212" lon="-6.4639000147933965"><ele>1819.9999999999998</ele><time>2026-05-04T12:32:39.999Z</time></trkpt><trkpt lat="31.647998268295233" lon="-6.463851683262404"><ele>1820.0</ele><time>2026-05-04T12:32:40.999Z</time></trkpt><trkpt lat="31.648076861464716" lon="-6.4637961782968745"><ele>1820.4999999999998</ele><time>2026-05-04T12:32:41.999Z</time></trkpt><trkpt lat="31.648157965344854" lon="-6.463738523447951"><ele>1821.0</ele><time>2026-05-04T12:32:42.999Z</time></trkpt><trkpt lat="31.64824110396896" lon="-6.46368010973196"><ele>1821.5</ele><time>2026-05-04T12:32:43.999Z</time></trkpt><trkpt lat="31.64831605458427" lon="-6.463627498445927"><ele>1822.0</ele><time>2026-05-04T12:32:44.999Z</time></trkpt><trkpt lat="31.64837435621247" lon="-6.463569094128979"><ele>1822.4999999999998</ele><time>2026-05-04T12:32:46Z</time></trkpt><trkpt lat="31.64843294418596" lon="-6.4635117045506805"><ele>1823.0</ele><time>2026-05-04T12:32:47Z</time></trkpt><trkpt lat="31.648473751332524" lon="-6.463439168758144"><ele>1822.9999999999998</ele><time>2026-05-04T12:32:48Z</time></trkpt><trkpt lat="31.648515996024546" lon="-6.463368243847881"><ele>1823.0</ele><time>2026-05-04T12:32:49Z</time></trkpt><trkpt lat="31.648563790009543" lon="-6.463308518280842"><ele>1823.0</ele><time>2026-05-04T12:32:50Z</time></trkpt><trkpt lat="31.648604726665454" lon="-6.4632355065006175"><ele>1823.0</ele><time>2026-05-04T12:32:51Z</time></trkpt><trkpt lat="31.648639189793105" lon="-6.4631429690874445"><ele>1822.9999999999998</ele><time>2026-05-04T12:32:52Z</time></trkpt><trkpt lat="31.64869657468893" lon="-6.46305033931195"><ele>1823.0</ele><time>2026-05-04T12:32:53Z</time></trkpt><trkpt lat="31.648767926178877" lon="-6.462953511997127"><ele>1822.75</ele><time>2026-05-04T12:32:54Z</time></trkpt><trkpt lat="31.648845736447413" lon="-6.462864648464907"><ele>1822.5</ele><time>2026-05-04T12:32:55Z</time></trkpt><trkpt lat="31.648946291685238" lon="-6.462802761368758"><ele>1822.25</ele><time>2026-05-04T12:32:56Z</time></trkpt><trkpt lat="31.649051383931457" lon="-6.462738877517212"><ele>1822.0</ele><time>2026-05-04T12:32:57Z</time></trkpt><trkpt lat="31.649167237365017" lon="-6.462687292454054"><ele>1822.0</ele><time>2026-05-04T12:32:58Z</time></trkpt><trkpt lat="31.64927689889563" lon="-6.462616168963174"><ele>1822.0</ele><time>2026-05-04T12:32:59Z</time></trkpt><trkpt lat="31.649387373253735" lon="-6.462558492261791"><ele>1822.0</ele><time>2026-05-04T12:33:00Z</time></trkpt><trkpt lat="31.649485290987855" lon="-6.462487045684241"><ele>1822.0</ele><time>2026-05-04T12:33:01Z</time></trkpt><trkpt lat="31.64957387962559" lon="-6.46240246564657"><ele>1822.1999999999998</ele><time>2026-05-04T12:33:02Z</time></trkpt><trkpt lat="31.64964319784599" lon="-6.462308319725906"><ele>1822.3999999999999</ele><time>2026-05-04T12:33:03Z</time></trkpt><trkpt lat="31.649714141827225" lon="-6.462207406427307"><ele>1822.6000000000001</ele><time>2026-05-04T12:33:04Z</time></trkpt><trkpt lat="31.64978187449376" lon="-6.462104574058569"><ele>1822.8000000000002</ele><time>2026-05-04T12:33:05Z</time></trkpt><trkpt lat="31.64985448160311" lon="-6.462015439035511"><ele>1823.0</ele><time>2026-05-04T12:33:06Z</time></trkpt><trkpt lat="31.649909637504635" lon="-6.461919169147389"><ele>1823.0</ele><time>2026-05-04T12:33:07Z</time></trkpt><trkpt lat="31.649945866084764" lon="-6.461817638635141"><ele>1823.0000000000002</ele><time>2026-05-04T12:33:08Z</time></trkpt><trkpt lat="31.64998761679239" lon="-6.461723648562319"><ele>1823.0000000000002</ele><time>2026-05-04T12:33:09Z</time></trkpt><trkpt lat="31.650023816170673" lon="-6.461622529136472"><ele>1823.0</ele><time>2026-05-04T12:33:10Z</time></trkpt><trkpt lat="31.650051786517917" lon="-6.461514206744619"><ele>1823.0</ele><time>2026-05-04T12:33:11Z</time></trkpt><trkpt lat="31.650078230144306" lon="-6.46139866140614"><ele>1822.8000000000002</ele><time>2026-05-04T12:33:12Z</time></trkpt><trkpt lat="31.65010165542354" lon="-6.461279748123258"><ele>1822.6000000000001</ele><time>2026-05-04T12:33:13Z</time></trkpt><trkpt lat="31.650122626794257" lon="-6.461158779261725"><ele>1822.3999999999999</ele><time>2026-05-04T12:33:14Z</time></trkpt><trkpt lat="31.65013851993011" lon="-6.461036506596768"><ele>1822.1999999999998</ele><time>2026-05-04T12:33:15Z</time></trkpt><trkpt lat="31.65015030519884" lon="-6.4609097219587746"><ele>1822.0</ele><time>2026-05-04T12:33:16Z</time></trkpt><trkpt lat="31.650160982972903" lon="-6.460776608681029"><ele>1822.0</ele><time>2026-05-04T12:33:17Z</time></trkpt><trkpt lat="31.650170088970413" lon="-6.460635348907063"><ele>1822.0</ele><time>2026-05-04T12:33:18Z</time></trkpt><trkpt lat="31.650176379770627" lon="-6.460492451267249"><ele>1822.0</ele><time>2026-05-04T12:33:19Z</time></trkpt><trkpt lat="31.650182818035624" lon="-6.460346203868267"><ele>1822.0</ele><time>2026-05-04T12:33:20Z</time></trkpt><trkpt lat="31.650187681245942" lon="-6.460206781017384"><ele>1822.0</ele><time>2026-05-04T12:33:21Z</time></trkpt><trkpt lat="31.65018952017169" lon="-6.460079577252397"><ele>1821.9999999999998</ele><time>2026-05-04T12:33:22Z</time></trkpt><trkpt lat="31.65018711857372" lon="-6.459958326082108"><ele>1821.9999999999998</ele><time>2026-05-04T12:33:23Z</time></trkpt><trkpt lat="31.650181299896147" lon="-6.45983888973538"><ele>1822.0</ele><time>2026-05-04T12:33:24Z</time></trkpt><trkpt lat="31.650184986747643" lon="-6.459717435256391"><ele>1822.0</ele><time>2026-05-04T12:33:25Z</time></trkpt><trkpt lat="31.650173481817447" lon="-6.45960002827047"><ele>1822.0</ele><time>2026-05-04T12:33:26Z</time></trkpt><trkpt lat="31.650160212683875" lon="-6.4594845101443035"><ele>1821.9999999999998</ele><time>2026-05-04T12:33:27Z</time></trkpt><trkpt lat="31.650144987141434" lon="-6.45937386292505"><ele>1821.9999999999998</ele><time>2026-05-04T12:33:28Z</time></trkpt><trkpt lat="31.65013475987106" lon="-6.459265068616404"><ele>1822.0</ele><time>2026-05-04T12:33:29Z</time></trkpt><trkpt lat="31.65013035335857" lon="-6.459157938913882"><ele>1822.0</ele><time>2026-05-04T12:33:30Z</time></trkpt><trkpt lat="31.65013622630011" lon="-6.459052952942814"><ele>1822.0000000000002</ele><time>2026-05-04T12:33:31Z</time></trkpt><trkpt lat="31.65015344360047" lon="-6.458951919417601"><ele>1822.0</ele><time>2026-05-04T12:33:32Z</time></trkpt><trkpt lat="31.650179380051537" lon="-6.458851172577341"><ele>1822.0</ele><time>2026-05-04T12:33:33Z</time></trkpt><trkpt lat="31.65019262788287" lon="-6.458745061446167"><ele>1822.0</ele><time>2026-05-04T12:33:34Z</time></trkpt><trkpt lat="31.650227873301894" lon="-6.458647981187537"><ele>1822.0000000000002</ele><time>2026-05-04T12:33:35Z</time></trkpt><trkpt lat="31.650264393517478" lon="-6.458551258412804"><ele>1822.0</ele><time>2026-05-04T12:33:36Z</time></trkpt><trkpt lat="31.6503120630889" lon="-6.458471755525967"><ele>1822.1999999999998</ele><time>2026-05-04T12:33:37Z</time></trkpt><trkpt lat="31.650350897812803" lon="-6.45838721847268"><ele>1822.3999999999999</ele><time>2026-05-04T12:33:38Z</time></trkpt><trkpt lat="31.650381850099958" lon="-6.458284075381358"><ele>1822.6000000000001</ele><time>2026-05-04T12:33:39Z</time></trkpt><trkpt lat="31.650436406296095" lon="-6.458199578979206"><ele>1822.8000000000002</ele><time>2026-05-04T12:33:40Z</time></trkpt><trkpt lat="31.650466316676148" lon="-6.458088841328037"><ele>1823.0</ele><time>2026-05-04T12:33:41Z</time></trkpt><trkpt lat="31.65052904397943" lon="-6.457996780840589"><ele>1823.0</ele><time>2026-05-04T12:33:42Z</time></trkpt><trkpt lat="31.650575654029755" lon="-6.457891287936682"><ele>1823.0000000000002</ele><time>2026-05-04T12:33:43Z</time></trkpt><trkpt lat="31.65062785622796" lon="-6.457790141896584"><ele>1823.0000000000002</ele><time>2026-05-04T12:33:44Z</time></trkpt><trkpt lat="31.650689109444087" lon="-6.457691879916857"><ele>1823.0</ele><time>2026-05-04T12:33:45Z</time></trkpt><trkpt lat="31.650756142059727" lon="-6.457595388125091"><ele>1823.0</ele><time>2026-05-04T12:33:46Z</time></trkpt><trkpt lat="31.650825629957602" lon="-6.457500225257516"><ele>1823.0</ele><time>2026-05-04T12:33:47Z</time></trkpt><trkpt lat="31.65089789426969" lon="-6.457405597307096"><ele>1823.0000000000002</ele><time>2026-05-04T12:33:48Z</time></trkpt><trkpt lat="31.650973650632753" lon="-6.457311635711009"><ele>1823.0000000000002</ele><time>2026-05-04T12:33:49Z</time></trkpt><trkpt lat="31.651050000237785" lon="-6.457217182410313"><ele>1823.0</ele><time>2026-05-04T12:33:50Z</time></trkpt><trkpt lat="31.65112809122684" lon="-6.4571256525444145"><ele>1823.0</ele><time>2026-05-04T12:33:51Z</time></trkpt><trkpt lat="31.651190627269973" lon="-6.457018217752661"><ele>1823.8000000000002</ele><time>2026-05-04T12:33:52Z</time></trkpt><trkpt lat="31.651273774639122" lon="-6.456932414760438"><ele>1824.6000000000001</ele><time>2026-05-04T12:33:53Z</time></trkpt><trkpt lat="31.651324454776507" lon="-6.4568245666795105"><ele>1825.3999999999999</ele><time>2026-05-04T12:33:54Z</time></trkpt><trkpt lat="31.651348892357152" lon="-6.456697032915018"><ele>1826.1999999999998</ele><time>2026-05-04T12:33:55Z</time></trkpt><trkpt lat="31.65137645377369" lon="-6.456575252044119"><ele>1827.0</ele><time>2026-05-04T12:33:56Z</time></trkpt><trkpt lat="31.651414307846412" lon="-6.456449961739348"><ele>1827.0</ele><time>2026-05-04T12:33:57Z</time></trkpt><trkpt lat="31.651435571770193" lon="-6.456315178576816"><ele>1827.0</ele><time>2026-05-04T12:33:58Z</time></trkpt><trkpt lat="31.651462252552825" lon="-6.456179227771936"><ele>1827.0</ele><time>2026-05-04T12:33:59Z</time></trkpt><trkpt lat="31.651498542649108" lon="-6.456047780670016"><ele>1827.0</ele><time>2026-05-04T12:34:00Z</time></trkpt><trkpt lat="31.65154293440636" lon="-6.455919979983064"><ele>1828.0</ele><time>2026-05-04T12:34:01Z</time></trkpt><trkpt lat="31.65159460276096" lon="-6.45579675482333"><ele>1829.0</ele><time>2026-05-04T12:34:02Z</time></trkpt><trkpt lat="31.651651911567015" lon="-6.455678256293066"><ele>1830.0</ele><time>2026-05-04T12:34:03Z</time></trkpt><trkpt lat="31.65169964846026" lon="-6.4555531722387185"><ele>1831.0</ele><time>2026-05-04T12:34:04Z</time></trkpt><trkpt lat="31.65178229413025" lon="-6.455455033350135"><ele>1831.0</ele><time>2026-05-04T12:34:05Z</time></trkpt><trkpt lat="31.65186079965662" lon="-6.45535884479053"><ele>1831.0</ele><time>2026-05-04T12:34:06Z</time></trkpt><trkpt lat="31.651948014718393" lon="-6.455280143381422"><ele>1831.0</ele><time>2026-05-04T12:34:07Z</time></trkpt><trkpt lat="31.65202809957861" lon="-6.455191333168441"><ele>1831.0</ele><time>2026-05-04T12:34:08Z</time></trkpt><trkpt lat="31.65211533781839" lon="-6.455109917766938"><ele>1831.0</ele><time>2026-05-04T12:34:09Z</time></trkpt><trkpt lat="31.6522066386124" lon="-6.455028754857331"><ele>1830.8</ele><time>2026-05-04T12:34:10Z</time></trkpt><trkpt lat="31.65229750119012" lon="-6.45494875405744"><ele>1830.6</ele><time>2026-05-04T12:34:11Z</time></trkpt><trkpt lat="31.6523750535834" lon="-6.454862460683792"><ele>1830.4</ele><time>2026-05-04T12:34:12Z</time></trkpt><trkpt lat="31.652456576119253" lon="-6.454778925788914"><ele>1830.2</ele><time>2026-05-04T12:34:13Z</time></trkpt><trkpt lat="31.652529853430618" lon="-6.454689066517394"><ele>1830.0</ele><time>2026-05-04T12:34:14Z</time></trkpt><trkpt lat="31.652603184141054" lon="-6.454591630152676"><ele>1830.0</ele><time>2026-05-04T12:34:15Z</time></trkpt><trkpt lat="31.652664019114564" lon="-6.454487758468682"><ele>1830.0</ele><time>2026-05-04T12:34:16Z</time></trkpt><trkpt lat="31.652724157361618" lon="-6.454370549689779"><ele>1830.0</ele><time>2026-05-04T12:34:17Z</time></trkpt><trkpt lat="31.652782873425384" lon="-6.454256194819489"><ele>1830.0</ele><time>2026-05-04T12:34:18Z</time></trkpt><trkpt lat="31.652838192426156" lon="-6.454144087254345"><ele>1830.0</ele><time>2026-05-04T12:34:19Z</time></trkpt><trkpt lat="31.652892271714943" lon="-6.454030445964954"><ele>1830.0</ele><time>2026-05-04T12:34:20Z</time></trkpt><trkpt lat="31.652946232464195" lon="-6.453917053770425"><ele>1830.0</ele><time>2026-05-04T12:34:21Z</time></trkpt><trkpt lat="31.652998539683786" lon="-6.453803717953827"><ele>1830.0</ele><time>2026-05-04T12:34:22Z</time></trkpt><trkpt lat="31.653051109512063" lon="-6.453689401208395"><ele>1830.0</ele><time>2026-05-04T12:34:23Z</time></trkpt><trkpt lat="31.65310493598643" lon="-6.45358032172066"><ele>1830.0</ele><time>2026-05-04T12:34:24Z</time></trkpt><trkpt lat="31.653167912685802" lon="-6.453472472366119"><ele>1829.0</ele><time>2026-05-04T12:34:25Z</time></trkpt><trkpt lat="31.653236248539496" lon="-6.453358119968961"><ele>1828.0</ele><time>2026-05-04T12:34:26Z</time></trkpt><trkpt lat="31.653316293910578" lon="-6.453243611386817"><ele>1827.0</ele><time>2026-05-04T12:34:27Z</time></trkpt><trkpt lat="31.65339760444279" lon="-6.453126668560188"><ele>1826.0</ele><time>2026-05-04T12:34:28Z</time></trkpt><trkpt lat="31.653473643706388" lon="-6.453013872217157"><ele>1825.5</ele><time>2026-05-04T12:34:29Z</time></trkpt><trkpt lat="31.653543757589315" lon="-6.452892890331131"><ele>1825.0</ele><time>2026-05-04T12:34:30Z</time></trkpt><trkpt lat="31.653621499471644" lon="-6.4527830467032"><ele>1824.5</ele><time>2026-05-04T12:34:31Z</time></trkpt><trkpt lat="31.653695382309444" lon="-6.452684955534081"><ele>1824.0</ele><time>2026-05-04T12:34:32Z</time></trkpt><trkpt lat="31.65368761898506" lon="-6.4525474197803385"><ele>1824.8000000000002</ele><time>2026-05-04T12:34:33Z</time></trkpt><trkpt lat="31.653662827203686" lon="-6.452421237287462"><ele>1825.6000000000001</ele><time>2026-05-04T12:34:34Z</time></trkpt><trkpt lat="31.65365988006527" lon="-6.452295014648948"><ele>1826.4</ele><time>2026-05-04T12:34:35Z</time></trkpt><trkpt lat="31.653639039823275" lon="-6.452177974758946"><ele>1827.2</ele><time>2026-05-04T12:34:36Z</time></trkpt><trkpt lat="31.653633664346913" lon="-6.452061936864174"><ele>1828.0</ele><time>2026-05-04T12:34:37Z</time></trkpt><trkpt lat="31.65365617426649" lon="-6.451947584064528"><ele>1828.0</ele><time>2026-05-04T12:34:38Z</time></trkpt><trkpt lat="31.653705366457345" lon="-6.4518387356029"><ele>1828.0000000000002</ele><time>2026-05-04T12:34:39Z</time></trkpt><trkpt lat="31.653771788518675" lon="-6.451739808145197"><ele>1828.0000000000002</ele><time>2026-05-04T12:34:40Z</time></trkpt><trkpt lat="31.653848493839124" lon="-6.451652663785063"><ele>1828.0</ele><time>2026-05-04T12:34:41Z</time></trkpt><trkpt lat="31.653923860855453" lon="-6.451571399645755"><ele>1828.0</ele><time>2026-05-04T12:34:42Z</time></trkpt><trkpt lat="31.654024885391884" lon="-6.451548741811523"><ele>1828.0</ele><time>2026-05-04T12:34:43Z</time></trkpt><trkpt lat="31.65412233235083" lon="-6.451545974577779"><ele>1828.0</ele><time>2026-05-04T12:34:44Z</time></trkpt><trkpt lat="31.65423025684739" lon="-6.451577145339191"><ele>1828.0</ele><time>2026-05-04T12:34:45Z</time></trkpt><trkpt lat="31.654354714891" lon="-6.4515840784785095"><ele>1828.0</ele><time>2026-05-04T12:34:46Z</time></trkpt><trkpt lat="31.654486352531173" lon="-6.451609680367226"><ele>1828.6666666666667</ele><time>2026-05-04T12:34:47Z</time></trkpt><trkpt lat="31.654630107482184" lon="-6.451637370905691"><ele>1829.3333333333335</ele><time>2026-05-04T12:34:48Z</time></trkpt><trkpt lat="31.6547861472984" lon="-6.4516678422347935"><ele>1830.0</ele><time>2026-05-04T12:34:49.001Z</time></trkpt><trkpt lat="31.65493276465214" lon="-6.4516928859391705"><ele>1830.0</ele><time>2026-05-04T12:34:50.001Z</time></trkpt><trkpt lat="31.655051561832735" lon="-6.451706782663433"><ele>1830.0</ele><time>2026-05-04T12:34:51.001Z</time></trkpt><trkpt lat="31.655134596192152" lon="-6.451704988379406"><ele>1830.0</ele><time>2026-05-04T12:34:52.001Z</time></trkpt><trkpt lat="31.655208205065087" lon="-6.45169952024964"><ele>1830.0</ele><time>2026-05-04T12:34:53.001Z</time></trkpt><trkpt lat="31.655291496744656" lon="-6.4516850042697005"><ele>1830.0</ele><time>2026-05-04T12:34:54.001Z</time></trkpt><trkpt lat="31.65539582261155" lon="-6.451660534798094"><ele>1830.25</ele><time>2026-05-04T12:34:55.001Z</time></trkpt><trkpt lat="31.65550847444449" lon="-6.4516290869940045"><ele>1830.5</ele><time>2026-05-04T12:34:56.001Z</time></trkpt><trkpt lat="31.655627174424" lon="-6.451582826678109"><ele>1830.75</ele><time>2026-05-04T12:34:57.001Z</time></trkpt><trkpt lat="31.65574707167015" lon="-6.451514564995218"><ele>1831.0</ele><time>2026-05-04T12:34:58.001Z</time></trkpt><trkpt lat="31.655861098413936" lon="-6.451425818263756"><ele>1831.0</ele><time>2026-05-04T12:34:59.001Z</time></trkpt><trkpt lat="31.655970225434558" lon="-6.451341578242872"><ele>1831.0</ele><time>2026-05-04T12:35:00.001Z</time></trkpt><trkpt lat="31.656089474162712" lon="-6.451268884922154"><ele>1831.0</ele><time>2026-05-04T12:35:01.001Z</time></trkpt><trkpt lat="31.656195864522964" lon="-6.451163278994967"><ele>1831.0</ele><time>2026-05-04T12:35:02.001Z</time></trkpt><trkpt lat="31.656314790733514" lon="-6.451076600365535"><ele>1831.25</ele><time>2026-05-04T12:35:03.001Z</time></trkpt><trkpt lat="31.656428499618816" lon="-6.450984415708873"><ele>1831.5</ele><time>2026-05-04T12:35:04.001Z</time></trkpt><trkpt lat="31.656547517169432" lon="-6.450893077712364"><ele>1831.75</ele><time>2026-05-04T12:35:05.001Z</time></trkpt><trkpt lat="31.656684230945014" lon="-6.450829879516049"><ele>1832.0</ele><time>2026-05-04T12:35:06.001Z</time></trkpt><trkpt lat="31.65681030809057" lon="-6.450754357021576"><ele>1832.0</ele><time>2026-05-04T12:35:07.001Z</time></trkpt><trkpt lat="31.656943081722293" lon="-6.450686961929876"><ele>1832.0</ele><time>2026-05-04T12:35:08.001Z</time></trkpt><trkpt lat="31.65706431555942" lon="-6.450601622216554"><ele>1832.0</ele><time>2026-05-04T12:35:09.001Z</time></trkpt><trkpt lat="31.657188659397782" lon="-6.450540356349555"><ele>1832.0</ele><time>2026-05-04T12:35:10.001Z</time></trkpt><trkpt lat="31.657302481003228" lon="-6.45048154721991"><ele>1832.0</ele><time>2026-05-04T12:35:11.001Z</time></trkpt><trkpt lat="31.65740340545836" lon="-6.450415789178981"><ele>1831.9999999999998</ele><time>2026-05-04T12:35:12.001Z</time></trkpt><trkpt lat="31.657494840862036" lon="-6.450328244050303"><ele>1831.9999999999998</ele><time>2026-05-04T12:35:13.001Z</time></trkpt><trkpt lat="31.657524163541275" lon="-6.450223625243686"><ele>1832.0</ele><time>2026-05-04T12:35:14.001Z</time></trkpt><trkpt lat="31.657545023552068" lon="-6.45009076083516"><ele>1832.0</ele><time>2026-05-04T12:35:15Z</time></trkpt><trkpt lat="31.657553539038766" lon="-6.449942103426852"><ele>1832.0</ele><time>2026-05-04T12:35:16Z</time></trkpt><trkpt lat="31.657577071774707" lon="-6.4497935776429065"><ele>1832.0</ele><time>2026-05-04T12:35:17Z</time></trkpt><trkpt lat="31.6575815564845" lon="-6.449646125667182"><ele>1832.0</ele><time>2026-05-04T12:35:18Z</time></trkpt><trkpt lat="31.65759822769764" lon="-6.449489832365349"><ele>1832.0</ele><time>2026-05-04T12:35:19Z</time></trkpt><trkpt lat="31.657616880968984" lon="-6.449327112840195"><ele>1832.0</ele><time>2026-05-04T12:35:20Z</time></trkpt><trkpt lat="31.65763163522453" lon="-6.449157980453403"><ele>1832.0</ele><time>2026-05-04T12:35:21Z</time></trkpt><trkpt lat="31.657641479190627" lon="-6.448989485372046"><ele>1832.0</ele><time>2026-05-04T12:35:22Z</time></trkpt><trkpt lat="31.657650061043835" lon="-6.44882796170587"><ele>1832.0</ele><time>2026-05-04T12:35:23Z</time></trkpt><trkpt lat="31.65765792671403" lon="-6.448677859350469"><ele>1832.0</ele><time>2026-05-04T12:35:24Z</time></trkpt><trkpt lat="31.657667046588124" lon="-6.448533988241509"><ele>1832.0</ele><time>2026-05-04T12:35:25Z</time></trkpt><trkpt lat="31.657679015577777" lon="-6.448391769792954"><ele>1832.0</ele><time>2026-05-04T12:35:26Z</time></trkpt><trkpt lat="31.65770489433312" lon="-6.448237932587064"><ele>1832.0</ele><time>2026-05-04T12:35:27Z</time></trkpt><trkpt lat="31.657741223317274" lon="-6.448088313967872"><ele>1833.25</ele><time>2026-05-04T12:35:28Z</time></trkpt><trkpt lat="31.657787786284196" lon="-6.447934906459018"><ele>1834.5</ele><time>2026-05-04T12:35:29Z</time></trkpt><trkpt lat="31.657831442872787" lon="-6.447780555249565"><ele>1835.75</ele><time>2026-05-04T12:35:30Z</time></trkpt><trkpt lat="31.657875813495977" lon="-6.447622469352958"><ele>1837.0</ele><time>2026-05-04T12:35:31Z</time></trkpt><trkpt lat="31.657925042615982" lon="-6.447465745060579"><ele>1837.0</ele><time>2026-05-04T12:35:32Z</time></trkpt><trkpt lat="31.65797974756878" lon="-6.447312935667467"><ele>1837.0</ele><time>2026-05-04T12:35:33Z</time></trkpt><trkpt lat="31.65803940063853" lon="-6.447170804580345"><ele>1837.0</ele><time>2026-05-04T12:35:34Z</time></trkpt><trkpt lat="31.658104521018252" lon="-6.447040406572599"><ele>1837.0</ele><time>2026-05-04T12:35:35Z</time></trkpt><trkpt lat="31.65818451096698" lon="-6.446920571726422"><ele>1836.0</ele><time>2026-05-04T12:35:36Z</time></trkpt><trkpt lat="31.65827340199975" lon="-6.4468080146736995"><ele>1835.0</ele><time>2026-05-04T12:35:37Z</time></trkpt><trkpt lat="31.658358770553637" lon="-6.446702540457183"><ele>1834.0</ele><time>2026-05-04T12:35:38Z</time></trkpt><trkpt lat="31.658431094007547" lon="-6.446590304994875"><ele>1833.0</ele><time>2026-05-04T12:35:39Z</time></trkpt><trkpt lat="31.658525465938148" lon="-6.44650951744124"><ele>1833.0</ele><time>2026-05-04T12:35:40Z</time></trkpt><trkpt lat="31.65860480889568" lon="-6.446406443533087"><ele>1833.0</ele><time>2026-05-04T12:35:41Z</time></trkpt><trkpt lat="31.658703966793446" lon="-6.446320633107014"><ele>1833.0</ele><time>2026-05-04T12:35:42Z</time></trkpt><trkpt lat="31.65881474044331" lon="-6.446236445290686"><ele>1833.0</ele><time>2026-05-04T12:35:43Z</time></trkpt><trkpt lat="31.65893990032708" lon="-6.446171545690474"><ele>1833.75</ele><time>2026-05-04T12:35:44Z</time></trkpt><trkpt lat="31.659047522221947" lon="-6.446074088330057"><ele>1834.5</ele><time>2026-05-04T12:35:45Z</time></trkpt><trkpt lat="31.65916533820753" lon="-6.446018938439314"><ele>1835.25</ele><time>2026-05-04T12:35:46Z</time></trkpt><trkpt lat="31.659267407325178" lon="-6.445950720865577"><ele>1836.0</ele><time>2026-05-04T12:35:47Z</time></trkpt><trkpt lat="31.65935535363108" lon="-6.445869575458272"><ele>1836.0</ele><time>2026-05-04T12:35:48Z</time></trkpt><trkpt lat="31.659434540899056" lon="-6.445812233683387"><ele>1836.0</ele><time>2026-05-04T12:35:49Z</time></trkpt><trkpt lat="31.65949605424056" lon="-6.445748285904519"><ele>1836.0</ele><time>2026-05-04T12:35:50Z</time></trkpt><trkpt lat="31.659565300580866" lon="-6.445690329047585"><ele>1836.0</ele><time>2026-05-04T12:35:51Z</time></trkpt><trkpt lat="31.659562391921828" lon="-6.445568575860049"><ele>1836.0</ele><time>2026-05-04T12:35:52Z</time></trkpt><trkpt lat="31.659571581322307" lon="-6.445452054918341"><ele>1837.5</ele><time>2026-05-04T12:35:53Z</time></trkpt><trkpt lat="31.6595876900165" lon="-6.445325826799368"><ele>1839.0</ele><time>2026-05-04T12:35:54Z</time></trkpt><trkpt lat="31.65958545256389" lon="-6.445188210041644"><ele>1840.5</ele><time>2026-05-04T12:35:55Z</time></trkpt><trkpt lat="31.659574106740628" lon="-6.445052490182396"><ele>1842.0</ele><time>2026-05-04T12:35:56Z</time></trkpt><trkpt lat="31.6595665111069" lon="-6.444918345230329"><ele>1842.0</ele><time>2026-05-04T12:35:57Z</time></trkpt><trkpt lat="31.65956407937783" lon="-6.44478572452144"><ele>1842.0</ele><time>2026-05-04T12:35:58Z</time></trkpt><trkpt lat="31.65956328916767" lon="-6.444653969487295"><ele>1842.0</ele><time>2026-05-04T12:35:59Z</time></trkpt><trkpt lat="31.659558673998422" lon="-6.444515611770168"><ele>1842.0</ele><time>2026-05-04T12:36:00Z</time></trkpt><trkpt lat="31.659550135531326" lon="-6.444371225156586"><ele>1842.25</ele><time>2026-05-04T12:36:01Z</time></trkpt><trkpt lat="31.65954340151923" lon="-6.444223557610491"><ele>1842.5</ele><time>2026-05-04T12:36:02Z</time></trkpt><trkpt lat="31.65951799009069" lon="-6.444078051518015"><ele>1842.75</ele><time>2026-05-04T12:36:03Z</time></trkpt><trkpt lat="31.65952007327321" lon="-6.443931222414888"><ele>1843.0</ele><time>2026-05-04T12:36:04Z</time></trkpt><trkpt lat="31.65949942181419" lon="-6.443796021809873"><ele>1843.0</ele><time>2026-05-04T12:36:05Z</time></trkpt><trkpt lat="31.65948498140852" lon="-6.443669044224917"><ele>1843.0000000000002</ele><time>2026-05-04T12:36:06Z</time></trkpt><trkpt lat="31.659481164595007" lon="-6.4435499066919295"><ele>1843.0000000000002</ele><time>2026-05-04T12:36:07Z</time></trkpt><trkpt lat="31.659514416975643" lon="-6.443433592178693"><ele>1843.0</ele><time>2026-05-04T12:36:08Z</time></trkpt><trkpt lat="31.659553431187167" lon="-6.443299652913306"><ele>1843.0</ele><time>2026-05-04T12:36:09Z</time></trkpt><trkpt lat="31.659629558415254" lon="-6.443172591980635"><ele>1843.0</ele><time>2026-05-04T12:36:10Z</time></trkpt><trkpt lat="31.659705165542555" lon="-6.4430361695744205"><ele>1843.0</ele><time>2026-05-04T12:36:11Z</time></trkpt><trkpt lat="31.659774790887827" lon="-6.442897416042197"><ele>1843.0</ele><time>2026-05-04T12:36:12Z</time></trkpt><trkpt lat="31.659832702733446" lon="-6.442749292725519"><ele>1843.0</ele><time>2026-05-04T12:36:13Z</time></trkpt><trkpt lat="31.65988193396797" lon="-6.442596555960268"><ele>1842.5</ele><time>2026-05-04T12:36:14Z</time></trkpt><trkpt lat="31.65994297446464" lon="-6.442436179733606"><ele>1842.0</ele><time>2026-05-04T12:36:15Z</time></trkpt><trkpt lat="31.65999266236096" lon="-6.4422716018117665"><ele>1841.5</ele><time>2026-05-04T12:36:16Z</time></trkpt><trkpt lat="31.66002245438345" lon="-6.4421029902788876"><ele>1841.0</ele><time>2026-05-04T12:36:17Z</time></trkpt><trkpt lat="31.660086195516023" lon="-6.441937654535821"><ele>1841.0</ele><time>2026-05-04T12:36:18Z</time></trkpt><trkpt lat="31.66013554175187" lon="-6.441760617205203"><ele>1841.0</ele><time>2026-05-04T12:36:19Z</time></trkpt><trkpt lat="31.66018498335439" lon="-6.441579267992774"><ele>1841.0</ele><time>2026-05-04T12:36:20Z</time></trkpt><trkpt lat="31.660216426546363" lon="-6.441410250666645"><ele>1841.75</ele><time>2026-05-04T12:36:21Z</time></trkpt><trkpt lat="31.66025700131256" lon="-6.441264337596431"><ele>1842.5</ele><time>2026-05-04T12:36:22Z</time></trkpt><trkpt lat="31.660294744065194" lon="-6.441128608876002"><ele>1843.25</ele><time>2026-05-04T12:36:23Z</time></trkpt><trkpt lat="31.660331489553673" lon="-6.440995471604763"><ele>1844.0</ele><time>2026-05-04T12:36:24Z</time></trkpt><trkpt lat="31.6603525415687" lon="-6.4408645183531945"><ele>1846.0</ele><time>2026-05-04T12:36:25Z</time></trkpt><trkpt lat="31.660386327185932" lon="-6.440736008373455"><ele>1848.0</ele><time>2026-05-04T12:36:26Z</time></trkpt><trkpt lat="31.66039204256392" lon="-6.440601353341264"><ele>1850.0</ele><time>2026-05-04T12:36:27Z</time></trkpt><trkpt lat="31.660394729485173" lon="-6.440459958352917"><ele>1852.0</ele><time>2026-05-04T12:36:28Z</time></trkpt><trkpt lat="31.66037217329081" lon="-6.4403138097285595"><ele>1852.25</ele><time>2026-05-04T12:36:29Z</time></trkpt><trkpt lat="31.66032518883166" lon="-6.440164361239426"><ele>1852.5</ele><time>2026-05-04T12:36:30Z</time></trkpt><trkpt lat="31.660272164372508" lon="-6.440008499993251"><ele>1852.75</ele><time>2026-05-04T12:36:31Z</time></trkpt><trkpt lat="31.66022396195547" lon="-6.4398517056072055"><ele>1853.0</ele><time>2026-05-04T12:36:32Z</time></trkpt><trkpt lat="31.660180740512093" lon="-6.439697624384253"><ele>1851.25</ele><time>2026-05-04T12:36:33Z</time></trkpt><trkpt lat="31.660139385019672" lon="-6.439543605791255"><ele>1849.5</ele><time>2026-05-04T12:36:34Z</time></trkpt><trkpt lat="31.660095761880104" lon="-6.439394409402929"><ele>1847.75</ele><time>2026-05-04T12:36:35Z</time></trkpt><trkpt lat="31.660046133131065" lon="-6.439244182696432"><ele>1846.0</ele><time>2026-05-04T12:36:36Z</time></trkpt><trkpt lat="31.659992535063026" lon="-6.439101688943995"><ele>1846.0</ele><time>2026-05-04T12:36:37Z</time></trkpt><trkpt lat="31.65993674350756" lon="-6.43896848180865"><ele>1846.0</ele><time>2026-05-04T12:36:38Z</time></trkpt><trkpt lat="31.659879859707647" lon="-6.43884300571753"><ele>1846.0</ele><time>2026-05-04T12:36:39Z</time></trkpt><trkpt lat="31.65982376314546" lon="-6.4387286901684995"><ele>1846.0</ele><time>2026-05-04T12:36:40Z</time></trkpt><trkpt lat="31.65977725510193" lon="-6.438619648879902"><ele>1848.4</ele><time>2026-05-04T12:36:41Z</time></trkpt><trkpt lat="31.65972974230479" lon="-6.438517204215056"><ele>1850.8</ele><time>2026-05-04T12:36:42Z</time></trkpt><trkpt lat="31.65967452484623" lon="-6.438421497326752"><ele>1853.2000000000003</ele><time>2026-05-04T12:36:43Z</time></trkpt><trkpt lat="31.659612577760118" lon="-6.438325088860011"><ele>1855.6000000000001</ele><time>2026-05-04T12:36:44Z</time></trkpt><trkpt lat="31.659554738008758" lon="-6.438230760559989"><ele>1858.0</ele><time>2026-05-04T12:36:45Z</time></trkpt><trkpt lat="31.65950661882367" lon="-6.438143136519102"><ele>1858.0000000000002</ele><time>2026-05-04T12:36:46Z</time></trkpt><trkpt lat="31.659466413289177" lon="-6.438054157180132"><ele>1858.0</ele><time>2026-05-04T12:36:47Z</time></trkpt><trkpt lat="31.659432953931027" lon="-6.437957328624101"><ele>1858.0</ele><time>2026-05-04T12:36:48Z</time></trkpt><trkpt lat="31.659410121011536" lon="-6.437856926293427"><ele>1858.0</ele><time>2026-05-04T12:36:49Z</time></trkpt><trkpt lat="31.65937012964354" lon="-6.4377665524886645"><ele>1858.0000000000002</ele><time>2026-05-04T12:36:50Z</time></trkpt><trkpt lat="31.659338335095462" lon="-6.437665669608039"><ele>1858.0</ele><time>2026-05-04T12:36:51Z</time></trkpt><trkpt lat="31.659311790653014" lon="-6.437565691282634"><ele>1857.5000000000002</ele><time>2026-05-04T12:36:52Z</time></trkpt><trkpt lat="31.659265775429837" lon="-6.437481368246935"><ele>1857.0</ele><time>2026-05-04T12:36:53Z</time></trkpt><trkpt lat="31.659219599344812" lon="-6.4374003689588415"><ele>1856.5</ele><time>2026-05-04T12:36:54Z</time></trkpt><trkpt lat="31.659166528825516" lon="-6.437324247664952"><ele>1856.0</ele><time>2026-05-04T12:36:55Z</time></trkpt><trkpt lat="31.659102336314373" lon="-6.437248230681843"><ele>1855.5000000000002</ele><time>2026-05-04T12:36:56Z</time></trkpt><trkpt lat="31.65904045359025" lon="-6.437175059281902"><ele>1855.0</ele><time>2026-05-04T12:36:57Z</time></trkpt><trkpt lat="31.65898081936866" lon="-6.437090443031754"><ele>1855.0</ele><time>2026-05-04T12:36:58Z</time></trkpt><trkpt lat="31.658918305798615" lon="-6.43700580314328"><ele>1855.0</ele><time>2026-05-04T12:36:59Z</time></trkpt><trkpt lat="31.658840067030084" lon="-6.436924053208655"><ele>1855.0</ele><time>2026-05-04T12:37:00Z</time></trkpt><trkpt lat="31.65876481949578" lon="-6.436838122227944"><ele>1855.0</ele><time>2026-05-04T12:37:01Z</time></trkpt><trkpt lat="31.658682616907868" lon="-6.436755423272259"><ele>1855.0</ele><time>2026-05-04T12:37:02Z</time></trkpt><trkpt lat="31.658592891732187" lon="-6.436682954602408"><ele>1853.25</ele><time>2026-05-04T12:37:03Z</time></trkpt><trkpt lat="31.658499358685365" lon="-6.436607773505065"><ele>1851.5</ele><time>2026-05-04T12:37:04Z</time></trkpt><trkpt lat="31.658387715988276" lon="-6.436573923658409"><ele>1849.75</ele><time>2026-05-04T12:37:05Z</time></trkpt><trkpt lat="31.658274028377054" lon="-6.436532789135289"><ele>1848.0</ele><time>2026-05-04T12:37:06Z</time></trkpt><trkpt lat="31.658156990196655" lon="-6.436500169318751"><ele>1848.0</ele><time>2026-05-04T12:37:07Z</time></trkpt><trkpt lat="31.658044490904853" lon="-6.436474242610456"><ele>1848.0000000000002</ele><time>2026-05-04T12:37:08Z</time></trkpt><trkpt lat="31.65793806627948" lon="-6.436457882842071"><ele>1848.0000000000002</ele><time>2026-05-04T12:37:09Z</time></trkpt><trkpt lat="31.65783415212735" lon="-6.436448031133937"><ele>1848.0</ele><time>2026-05-04T12:37:10Z</time></trkpt><trkpt lat="31.657729945605684" lon="-6.43642757437451"><ele>1848.0</ele><time>2026-05-04T12:37:11Z</time></trkpt><trkpt lat="31.657626205728796" lon="-6.436385775745923"><ele>1846.5</ele><time>2026-05-04T12:37:12Z</time></trkpt><trkpt lat="31.65751150290037" lon="-6.436349260259975"><ele>1845.0</ele><time>2026-05-04T12:37:13Z</time></trkpt><trkpt lat="31.657389725231805" lon="-6.436300145225718"><ele>1843.5</ele><time>2026-05-04T12:37:14Z</time></trkpt><trkpt lat="31.657264451203034" lon="-6.43624347342653"><ele>1842.0</ele><time>2026-05-04T12:37:15Z</time></trkpt><trkpt lat="31.65713999433436" lon="-6.436180465144171"><ele>1842.75</ele><time>2026-05-04T12:37:16Z</time></trkpt><trkpt lat="31.65702032569891" lon="-6.436120446889846"><ele>1843.5</ele><time>2026-05-04T12:37:17Z</time></trkpt><trkpt lat="31.656910155525292" lon="-6.436053016379527"><ele>1844.25</ele><time>2026-05-04T12:37:18Z</time></trkpt><trkpt lat="31.65681201476639" lon="-6.435961328326398"><ele>1845.0</ele><time>2026-05-04T12:37:19Z</time></trkpt><trkpt lat="31.656739275194596" lon="-6.435841811813252"><ele>1845.0</ele><time>2026-05-04T12:37:20Z</time></trkpt><trkpt lat="31.656681525958145" lon="-6.435704668271262"><ele>1845.0</ele><time>2026-05-04T12:37:21Z</time></trkpt><trkpt lat="31.65660477364099" lon="-6.435569981565863"><ele>1845.0</ele><time>2026-05-04T12:37:22Z</time></trkpt><trkpt lat="31.65654409734142" lon="-6.435427629437399"><ele>1845.0</ele><time>2026-05-04T12:37:23Z</time></trkpt><trkpt lat="31.656489885828023" lon="-6.435293437450632"><ele>1848.25</ele><time>2026-05-04T12:37:24Z</time></trkpt><trkpt lat="31.65643596135155" lon="-6.435164166188489"><ele>1851.5</ele><time>2026-05-04T12:37:25Z</time></trkpt><trkpt lat="31.656381675157878" lon="-6.4350425682852785"><ele>1854.75</ele><time>2026-05-04T12:37:26Z</time></trkpt><trkpt lat="31.65632252541988" lon="-6.434928329916805"><ele>1858.0</ele><time>2026-05-04T12:37:27Z</time></trkpt><trkpt lat="31.656267064618298" lon="-6.434809137242739"><ele>1858.0</ele><time>2026-05-04T12:37:28Z</time></trkpt><trkpt lat="31.656194059698436" lon="-6.4347041155775"><ele>1858.0</ele><time>2026-05-04T12:37:29Z</time></trkpt><trkpt lat="31.65613605194555" lon="-6.434581275734766"><ele>1858.0</ele><time>2026-05-04T12:37:30Z</time></trkpt><trkpt lat="31.656101378232" lon="-6.434429595245254"><ele>1858.0</ele><time>2026-05-04T12:37:31Z</time></trkpt><trkpt lat="31.65608609488399" lon="-6.434257606959813"><ele>1855.75</ele><time>2026-05-04T12:37:32Z</time></trkpt><trkpt lat="31.656036404817094" lon="-6.434092770198533"><ele>1853.5</ele><time>2026-05-04T12:37:33Z</time></trkpt><trkpt lat="31.65599703883004" lon="-6.433928613184429"><ele>1851.25</ele><time>2026-05-04T12:37:34Z</time></trkpt><trkpt lat="31.65595872968745" lon="-6.43377526856997"><ele>1849.0</ele><time>2026-05-04T12:37:35Z</time></trkpt><trkpt lat="31.655928999230813" lon="-6.433628115372428"><ele>1849.0</ele><time>2026-05-04T12:37:36Z</time></trkpt><trkpt lat="31.65588685329402" lon="-6.4334918917814745"><ele>1849.0</ele><time>2026-05-04T12:37:37Z</time></trkpt><trkpt lat="31.655847965291603" lon="-6.4333622817694245"><ele>1849.0</ele><time>2026-05-04T12:37:38Z</time></trkpt><trkpt lat="31.655808600129458" lon="-6.433228292719645"><ele>1849.0</ele><time>2026-05-04T12:37:39Z</time></trkpt><trkpt lat="31.655781312482798" lon="-6.433098405728949"><ele>1849.5</ele><time>2026-05-04T12:37:40Z</time></trkpt><trkpt lat="31.655771487297653" lon="-6.432971839274145"><ele>1850.0</ele><time>2026-05-04T12:37:41Z</time></trkpt><trkpt lat="31.655757788968618" lon="-6.432843567478725"><ele>1850.5</ele><time>2026-05-04T12:37:42Z</time></trkpt><trkpt lat="31.655757698763715" lon="-6.432701671484383"><ele>1851.0</ele><time>2026-05-04T12:37:43Z</time></trkpt><trkpt lat="31.655782415690027" lon="-6.432541510795818"><ele>1851.0</ele><time>2026-05-04T12:37:44Z</time></trkpt><trkpt lat="31.655823614772352" lon="-6.432375086879481"><ele>1851.0</ele><time>2026-05-04T12:37:45Z</time></trkpt><trkpt lat="31.65587407797187" lon="-6.432200094887108"><ele>1851.0</ele><time>2026-05-04T12:37:46Z</time></trkpt><trkpt lat="31.655926196441726" lon="-6.432024570942087"><ele>1847.3333333333335</ele><time>2026-05-04T12:37:47Z</time></trkpt><trkpt lat="31.65597832081682" lon="-6.431854569509399"><ele>1843.6666666666667</ele><time>2026-05-04T12:37:48Z</time></trkpt><trkpt lat="31.656033910590697" lon="-6.43168891263504"><ele>1840.0</ele><time>2026-05-04T12:37:49Z</time></trkpt><trkpt lat="31.656094556976793" lon="-6.43152401327042"><ele>1845.0</ele><time>2026-05-04T12:37:50Z</time></trkpt><trkpt lat="31.656157312364787" lon="-6.431354794111535"><ele>1850.0</ele><time>2026-05-04T12:37:51Z</time></trkpt><trkpt lat="31.65622583540861" lon="-6.431190930969349"><ele>1855.0</ele><time>2026-05-04T12:37:52Z</time></trkpt><trkpt lat="31.656303505883567" lon="-6.431035997852289"><ele>1855.0</ele><time>2026-05-04T12:37:53Z</time></trkpt><trkpt lat="31.65637428248182" lon="-6.43088948669502"><ele>1855.0</ele><time>2026-05-04T12:37:54Z</time></trkpt><trkpt lat="31.656449242861832" lon="-6.4307590575838836"><ele>1855.0</ele><time>2026-05-04T12:37:55Z</time></trkpt><trkpt lat="31.656541687076057" lon="-6.43063733298647"><ele>1855.0</ele><time>2026-05-04T12:37:56Z</time></trkpt><trkpt lat="31.65664301436068" lon="-6.430526256335935"><ele>1853.0</ele><time>2026-05-04T12:37:57Z</time></trkpt><trkpt lat="31.656746025952064" lon="-6.4304273733899295"><ele>1851.0</ele><time>2026-05-04T12:37:58Z</time></trkpt><trkpt lat="31.656853838887177" lon="-6.430351811920683"><ele>1849.0</ele><time>2026-05-04T12:37:59Z</time></trkpt><trkpt lat="31.656971030868693" lon="-6.43030396951909"><ele>1847.0</ele><time>2026-05-04T12:38:00Z</time></trkpt><trkpt lat="31.657098197762455" lon="-6.430291154514391"><ele>1847.0</ele><time>2026-05-04T12:38:01Z</time></trkpt><trkpt lat="31.65722599322301" lon="-6.430320804426226"><ele>1847.0</ele><time>2026-05-04T12:38:02Z</time></trkpt><trkpt lat="31.65735945928485" lon="-6.430311762759327"><ele>1847.0</ele><time>2026-05-04T12:38:03Z</time></trkpt><trkpt lat="31.65748935358459" lon="-6.430301958269436"><ele>1847.0</ele><time>2026-05-04T12:38:04Z</time></trkpt><trkpt lat="31.657618760697872" lon="-6.430256020552891"><ele>1847.0</ele><time>2026-05-04T12:38:05Z</time></trkpt><trkpt lat="31.65775917935254" lon="-6.43019590608427"><ele>1847.0</ele><time>2026-05-04T12:38:06Z</time></trkpt><trkpt lat="31.657912216434536" lon="-6.430170196956958"><ele>1847.0</ele><time>2026-05-04T12:38:07Z</time></trkpt><trkpt lat="31.65807081821759" lon="-6.430128274838022"><ele>1847.75</ele><time>2026-05-04T12:38:08Z</time></trkpt><trkpt lat="31.65822897306928" lon="-6.43008803983125"><ele>1848.5</ele><time>2026-05-04T12:38:09Z</time></trkpt><trkpt lat="31.658368270471687" lon="-6.430036176794792"><ele>1849.25</ele><time>2026-05-04T12:38:10Z</time></trkpt><trkpt lat="31.65848762868632" lon="-6.429961355327473"><ele>1850.0</ele><time>2026-05-04T12:38:11Z</time></trkpt><trkpt lat="31.65859740613932" lon="-6.42987817810301"><ele>1851.0</ele><time>2026-05-04T12:38:12Z</time></trkpt><trkpt lat="31.658696699095973" lon="-6.429800486704896"><ele>1852.0</ele><time>2026-05-04T12:38:13Z</time></trkpt><trkpt lat="31.658799562830403" lon="-6.429764899429858"><ele>1853.0</ele><time>2026-05-04T12:38:14Z</time></trkpt><trkpt lat="31.658897639669103" lon="-6.429750316223469"><ele>1854.0</ele><time>2026-05-04T12:38:15Z</time></trkpt><trkpt lat="31.6590015734336" lon="-6.429775837030796"><ele>1855.0</ele><time>2026-05-04T12:38:16Z</time></trkpt><trkpt lat="31.65911032270244" lon="-6.429823081279396"><ele>1855.0</ele><time>2026-05-04T12:38:17Z</time></trkpt><trkpt lat="31.659221800538756" lon="-6.429840348404682"><ele>1855.0</ele><time>2026-05-04T12:38:18Z</time></trkpt><trkpt lat="31.65932794429987" lon="-6.42986035790584"><ele>1855.0</ele><time>2026-05-04T12:38:19Z</time></trkpt><trkpt lat="31.659431135747624" lon="-6.429873424890873"><ele>1855.0</ele><time>2026-05-04T12:38:20Z</time></trkpt><trkpt lat="31.659531390180224" lon="-6.429867835037682"><ele>1855.0</ele><time>2026-05-04T12:38:21Z</time></trkpt><trkpt lat="31.65962524324481" lon="-6.429835510314715"><ele>1854.6</ele><time>2026-05-04T12:38:22Z</time></trkpt><trkpt lat="31.65972260519081" lon="-6.429804472963368"><ele>1854.2</ele><time>2026-05-04T12:38:23Z</time></trkpt><trkpt lat="31.659814136915738" lon="-6.429775506970451"><ele>1853.8000000000002</ele><time>2026-05-04T12:38:24Z</time></trkpt><trkpt lat="31.659914218571977" lon="-6.429742892505133"><ele>1853.4</ele><time>2026-05-04T12:38:25Z</time></trkpt><trkpt lat="31.65999467919136" lon="-6.4297167408447935"><ele>1853.0</ele><time>2026-05-04T12:38:26Z</time></trkpt><trkpt lat="31.66008371586887" lon="-6.429687891344842"><ele>1852.9999999999998</ele><time>2026-05-04T12:38:27Z</time></trkpt><trkpt lat="31.66016359828174" lon="-6.429657573037383"><ele>1853.0</ele><time>2026-05-04T12:38:28Z</time></trkpt><trkpt lat="31.66024029655165" lon="-6.429628114230843"><ele>1853.0</ele><time>2026-05-04T12:38:29Z</time></trkpt><trkpt lat="31.660310661028863" lon="-6.429601088271565"><ele>1853.0</ele><time>2026-05-04T12:38:30Z</time></trkpt><trkpt lat="31.660392264996016" lon="-6.429606427328585"><ele>1852.9999999999998</ele><time>2026-05-04T12:38:31Z</time></trkpt><trkpt lat="31.660468561435852" lon="-6.429599285655721"><ele>1853.0</ele><time>2026-05-04T12:38:32Z</time></trkpt><trkpt lat="31.660547867800933" lon="-6.429610095720229"><ele>1852.0</ele><time>2026-05-04T12:38:33Z</time></trkpt><trkpt lat="31.66063250394871" lon="-6.429594467515748"><ele>1851.0000000000002</ele><time>2026-05-04T12:38:34Z</time></trkpt><trkpt lat="31.660723596888594" lon="-6.429572143871514"><ele>1850.0000000000002</ele><time>2026-05-04T12:38:35Z</time></trkpt><trkpt lat="31.66081763900676" lon="-6.429529701322783"><ele>1849.0</ele><time>2026-05-04T12:38:36Z</time></trkpt><trkpt lat="31.660919071654803" lon="-6.429498181915126"><ele>1848.0</ele><time>2026-05-04T12:38:37Z</time></trkpt><trkpt lat="31.661001733862722" lon="-6.429421776834105"><ele>1848.0</ele><time>2026-05-04T12:38:38Z</time></trkpt><trkpt lat="31.66110571629814" lon="-6.429360570930608"><ele>1848.0</ele><time>2026-05-04T12:38:39Z</time></trkpt><trkpt lat="31.661200336934268" lon="-6.429274744431285"><ele>1848.0</ele><time>2026-05-04T12:38:40Z</time></trkpt><trkpt lat="31.661307074446732" lon="-6.429189602156662"><ele>1848.0</ele><time>2026-05-04T12:38:41Z</time></trkpt><trkpt lat="31.661406334004795" lon="-6.429090391650522"><ele>1848.0</ele><time>2026-05-04T12:38:42Z</time></trkpt><trkpt lat="31.661506962010833" lon="-6.428994425300698"><ele>1848.0</ele><time>2026-05-04T12:38:43Z</time></trkpt><trkpt lat="31.66160671398382" lon="-6.428892436933531"><ele>1848.0</ele><time>2026-05-04T12:38:44Z</time></trkpt><trkpt lat="31.661699590977175" lon="-6.428781736855675"><ele>1848.0</ele><time>2026-05-04T12:38:45Z</time></trkpt><trkpt lat="31.661791462530115" lon="-6.428666662896968"><ele>1848.0</ele><time>2026-05-04T12:38:46Z</time></trkpt><trkpt lat="31.661883171301813" lon="-6.428551668975584"><ele>1848.0</ele><time>2026-05-04T12:38:47Z</time></trkpt><trkpt lat="31.661970628810373" lon="-6.428442656040419"><ele>1848.0</ele><time>2026-05-04T12:38:48Z</time></trkpt><trkpt lat="31.662045918444466" lon="-6.428339427681988"><ele>1848.0</ele><time>2026-05-04T12:38:49Z</time></trkpt><trkpt lat="31.662122322459147" lon="-6.428235507288367"><ele>1849.25</ele><time>2026-05-04T12:38:50Z</time></trkpt><trkpt lat="31.662189535172065" lon="-6.428114695509635"><ele>1850.5</ele><time>2026-05-04T12:38:51Z</time></trkpt><trkpt lat="31.662238746331855" lon="-6.427968954034988"><ele>1851.75</ele><time>2026-05-04T12:38:52Z</time></trkpt><trkpt lat="31.6622755371348" lon="-6.427823012358094"><ele>1853.0</ele><time>2026-05-04T12:38:53Z</time></trkpt><trkpt lat="31.662308521849116" lon="-6.427690526831006"><ele>1853.0</ele><time>2026-05-04T12:38:54Z</time></trkpt><trkpt lat="31.662344247727084" lon="-6.427567850724061"><ele>1853.0000000000002</ele><time>2026-05-04T12:38:55Z</time></trkpt><trkpt lat="31.662358489495364" lon="-6.427443099464521"><ele>1853.0000000000002</ele><time>2026-05-04T12:38:56Z</time></trkpt><trkpt lat="31.66238532056434" lon="-6.427333262268007"><ele>1853.0</ele><time>2026-05-04T12:38:57Z</time></trkpt><trkpt lat="31.66243950713151" lon="-6.427247648667338"><ele>1853.0</ele><time>2026-05-04T12:38:58Z</time></trkpt><trkpt lat="31.662475366212284" lon="-6.427180580220142"><ele>1852.5</ele><time>2026-05-04T12:38:59Z</time></trkpt><trkpt lat="31.662481565708223" lon="-6.427056630112297"><ele>1852.0</ele><time>2026-05-04T12:39:01Z</time></trkpt><trkpt lat="31.66233879428947" lon="-6.426941208890999"><ele>1851.5</ele><time>2026-05-04T12:39:03Z</time></trkpt><trkpt lat="31.66222436473318" lon="-6.426885100047851"><ele>1851.0</ele><time>2026-05-04T12:39:04Z</time></trkpt><trkpt lat="31.66210862625345" lon="-6.426826231657559"><ele>1851.0</ele><time>2026-05-04T12:39:05Z</time></trkpt><trkpt lat="31.661967838903188" lon="-6.426742772257197"><ele>1851.0</ele><time>2026-05-04T12:39:06Z</time></trkpt><trkpt lat="31.661820010411894" lon="-6.426656327120876"><ele>1851.0</ele><time>2026-05-04T12:39:07Z</time></trkpt><trkpt lat="31.661671044071667" lon="-6.426575478130441"><ele>1850.0</ele><time>2026-05-04T12:39:08Z</time></trkpt><trkpt lat="31.661520274349126" lon="-6.426492546841235"><ele>1849.0</ele><time>2026-05-04T12:39:09Z</time></trkpt><trkpt lat="31.661373976185473" lon="-6.426408321113461"><ele>1848.0</ele><time>2026-05-04T12:39:10Z</time></trkpt><trkpt lat="31.661232267675643" lon="-6.426338280087424"><ele>1848.6666666666665</ele><time>2026-05-04T12:39:11Z</time></trkpt><trkpt lat="31.661096494004827" lon="-6.4262629653564485"><ele>1849.3333333333333</ele><time>2026-05-04T12:39:12Z</time></trkpt><trkpt lat="31.660957520699302" lon="-6.426179717979337"><ele>1850.0</ele><time>2026-05-04T12:39:13Z</time></trkpt><trkpt lat="31.66081406783511" lon="-6.426102422703797"><ele>1850.0</ele><time>2026-05-04T12:39:14Z</time></trkpt><trkpt lat="31.66067429637065" lon="-6.426024552609987"><ele>1850.0</ele><time>2026-05-04T12:39:15Z</time></trkpt><trkpt lat="31.660548026122736" lon="-6.425947853474337"><ele>1850.0</ele><time>2026-05-04T12:39:16Z</time></trkpt><trkpt lat="31.66042706446836" lon="-6.425877349654197"><ele>1850.0</ele><time>2026-05-04T12:39:17Z</time></trkpt><trkpt lat="31.660306376667485" lon="-6.425812055240504"><ele>1849.6</ele><time>2026-05-04T12:39:18Z</time></trkpt><trkpt lat="31.660191738784896" lon="-6.42574682574193"><ele>1849.2</ele><time>2026-05-04T12:39:19Z</time></trkpt><trkpt lat="31.660085092264328" lon="-6.425716844255628"><ele>1848.8000000000002</ele><time>2026-05-04T12:39:20Z</time></trkpt><trkpt lat="31.66000992577509" lon="-6.425678229091899"><ele>1848.4</ele><time>2026-05-04T12:39:21Z</time></trkpt><trkpt lat="31.65993836121397" lon="-6.425700121225925"><ele>1848.0</ele><time>2026-05-04T12:39:22Z</time></trkpt><trkpt lat="31.65987735630672" lon="-6.4257721517750275"><ele>1848.0</ele><time>2026-05-04T12:39:23Z</time></trkpt><trkpt lat="31.659821683327404" lon="-6.4258856334535315"><ele>1848.0</ele><time>2026-05-04T12:39:24Z</time></trkpt><trkpt lat="31.65975694243422" lon="-6.426015175423847"><ele>1848.0</ele><time>2026-05-04T12:39:25Z</time></trkpt><trkpt lat="31.659689099390437" lon="-6.426129383987028"><ele>1848.0</ele><time>2026-05-04T12:39:26Z</time></trkpt><trkpt lat="31.65963121357973" lon="-6.426227812848892"><ele>1847.2</ele><time>2026-05-04T12:39:27Z</time></trkpt><trkpt lat="31.65957879211572" lon="-6.426317917562171"><ele>1846.4</ele><time>2026-05-04T12:39:28Z</time></trkpt><trkpt lat="31.659528641963117" lon="-6.426403017515303"><ele>1845.6000000000001</ele><time>2026-05-04T12:39:29Z</time></trkpt><trkpt lat="31.659466056946926" lon="-6.426474466254868"><ele>1844.8000000000002</ele><time>2026-05-04T12:39:30Z</time></trkpt><trkpt lat="31.659392729567674" lon="-6.426542195776015"><ele>1844.0</ele><time>2026-05-04T12:39:31Z</time></trkpt><trkpt lat="31.659270691100257" lon="-6.426520842124566"><ele>1846.25</ele><time>2026-05-04T12:39:32Z</time></trkpt><trkpt lat="31.65916102952982" lon="-6.426563721784635"><ele>1848.5</ele><time>2026-05-04T12:39:33Z</time></trkpt><trkpt lat="31.659050991461907" lon="-6.426635293365416"><ele>1850.75</ele><time>2026-05-04T12:39:34Z</time></trkpt><trkpt lat="31.658942650869186" lon="-6.42668034391094"><ele>1853.0</ele><time>2026-05-04T12:39:35Z</time></trkpt><trkpt lat="31.658847054523008" lon="-6.426736230188151"><ele>1853.0</ele><time>2026-05-04T12:39:36Z</time></trkpt><trkpt lat="31.65874356678432" lon="-6.426772075582747"><ele>1853.0000000000002</ele><time>2026-05-04T12:39:37Z</time></trkpt><trkpt lat="31.65863852537322" lon="-6.42679209013019"><ele>1853.0000000000002</ele><time>2026-05-04T12:39:38Z</time></trkpt><trkpt lat="31.658533015449606" lon="-6.42679897658005"><ele>1853.0</ele><time>2026-05-04T12:39:39Z</time></trkpt><trkpt lat="31.65842901088647" lon="-6.426795526001309"><ele>1853.0</ele><time>2026-05-04T12:39:40Z</time></trkpt><trkpt lat="31.6583285941507" lon="-6.426777695343269"><ele>1852.6000000000001</ele><time>2026-05-04T12:39:41Z</time></trkpt><trkpt lat="31.65823047675085" lon="-6.426736739893483"><ele>1852.2000000000003</ele><time>2026-05-04T12:39:42Z</time></trkpt><trkpt lat="31.658138106820438" lon="-6.426681704678592"><ele>1851.8</ele><time>2026-05-04T12:39:43Z</time></trkpt><trkpt lat="31.658057860161726" lon="-6.426623402083977"><ele>1851.4</ele><time>2026-05-04T12:39:44Z</time></trkpt><trkpt lat="31.657984263369357" lon="-6.426569147691788"><ele>1851.0</ele><time>2026-05-04T12:39:45Z</time></trkpt><trkpt lat="31.657912941752258" lon="-6.426508873919676"><ele>1851.0</ele><time>2026-05-04T12:39:46Z</time></trkpt><trkpt lat="31.657846835605238" lon="-6.42644506509008"><ele>1851.0</ele><time>2026-05-04T12:39:47Z</time></trkpt><trkpt lat="31.657789470775317" lon="-6.426380638233857"><ele>1851.0</ele><time>2026-05-04T12:39:48Z</time></trkpt><trkpt lat="31.657743664310523" lon="-6.426299129125905"><ele>1851.0</ele><time>2026-05-04T12:39:49Z</time></trkpt><trkpt lat="31.657704974440005" lon="-6.426209478096192"><ele>1851.0</ele><time>2026-05-04T12:39:50Z</time></trkpt><trkpt lat="31.657682594889966" lon="-6.426109774172002"><ele>1851.0</ele><time>2026-05-04T12:39:51Z</time></trkpt><trkpt lat="31.657635471857265" lon="-6.426021230178412"><ele>1851.0</ele><time>2026-05-04T12:39:52Z</time></trkpt><trkpt lat="31.65763824687904" lon="-6.425906862233613"><ele>1851.0</ele><time>2026-05-04T12:39:53Z</time></trkpt><trkpt lat="31.65763213788203" lon="-6.425801699107912"><ele>1851.0</ele><time>2026-05-04T12:39:54Z</time></trkpt><trkpt lat="31.65762869743971" lon="-6.425701997766755"><ele>1851.0</ele><time>2026-05-04T12:39:55Z</time></trkpt><trkpt lat="31.657628543703947" lon="-6.42560357014657"><ele>1851.0</ele><time>2026-05-04T12:39:56Z</time></trkpt><trkpt lat="31.657630948880044" lon="-6.425507210622892"><ele>1851.0</ele><time>2026-05-04T12:39:57Z</time></trkpt><trkpt lat="31.657619749155362" lon="-6.425408655734781"><ele>1851.0</ele><time>2026-05-04T12:39:58Z</time></trkpt><trkpt lat="31.65762801956256" lon="-6.425313436311604"><ele>1851.0000000000002</ele><time>2026-05-04T12:39:59Z</time></trkpt><trkpt lat="31.657635030411615" lon="-6.425221307221118"><ele>1851.0</ele><time>2026-05-04T12:40:00Z</time></trkpt><trkpt lat="31.657642427429696" lon="-6.425135024733673"><ele>1851.0</ele><time>2026-05-04T12:40:01Z</time></trkpt><trkpt lat="31.657650810324938" lon="-6.425055213525767"><ele>1851.0000000000002</ele><time>2026-05-04T12:40:02Z</time></trkpt><trkpt lat="31.65765899133477" lon="-6.424977324218498"><ele>1851.0</ele><time>2026-05-04T12:40:03Z</time></trkpt><trkpt lat="31.657670049085358" lon="-6.424902072294313"><ele>1851.0</ele><time>2026-05-04T12:40:04Z</time></trkpt><trkpt lat="31.657695057925793" lon="-6.42476624579667"><ele>1851.0</ele><time>2026-05-04T12:40:06Z</time></trkpt><trkpt lat="31.65771494255248" lon="-6.424629647443927"><ele>1851.0</ele><time>2026-05-04T12:40:08Z</time></trkpt><trkpt lat="31.657733420822176" lon="-6.42448407777634"><ele>1851.0</ele><time>2026-05-04T12:40:10Z</time></trkpt><trkpt lat="31.657742628936347" lon="-6.424404872534069"><ele>1851.0</ele><time>2026-05-04T12:40:11Z</time></trkpt><trkpt lat="31.657752376095335" lon="-6.42432103029458"><ele>1851.0</ele><time>2026-05-04T12:40:12Z</time></trkpt><trkpt lat="31.657774784038793" lon="-6.4242384802260615"><ele>1851.0</ele><time>2026-05-04T12:40:13Z</time></trkpt><trkpt lat="31.65778600302504" lon="-6.424149855922314"><ele>1851.0</ele><time>2026-05-04T12:40:14Z</time></trkpt><trkpt lat="31.657782127553084" lon="-6.424057389922331"><ele>1851.0</ele><time>2026-05-04T12:40:15Z</time></trkpt><trkpt lat="31.65779393508286" lon="-6.423966635649696"><ele>1851.0</ele><time>2026-05-04T12:40:16Z</time></trkpt><trkpt lat="31.657804737090657" lon="-6.423883610116036"><ele>1851.0</ele><time>2026-05-04T12:40:17Z</time></trkpt><trkpt lat="31.65781733413945" lon="-6.423808230956199"><ele>1851.0</ele><time>2026-05-04T12:40:18Z</time></trkpt><trkpt lat="31.657839505825553" lon="-6.423676612359853"><ele>1854.8333333333333</ele><time>2026-05-04T12:40:20Z</time></trkpt><trkpt lat="31.65787243910104" lon="-6.423573331327082"><ele>1858.6666666666665</ele><time>2026-05-04T12:40:22Z</time></trkpt><trkpt lat="31.657875792775044" lon="-6.423470290055107"><ele>1862.5</ele><time>2026-05-04T12:40:24Z</time></trkpt><trkpt lat="31.657910446020757" lon="-6.4233734778073615"><ele>1866.3333333333333</ele><time>2026-05-04T12:40:26Z</time></trkpt><trkpt lat="31.657918111668934" lon="-6.423275665720056"><ele>1870.1666666666665</ele><time>2026-05-04T12:40:28Z</time></trkpt><trkpt lat="31.657931744686454" lon="-6.423190261443513"><ele>1874.0</ele><time>2026-05-04T12:40:30Z</time></trkpt><trkpt lat="31.657942376222604" lon="-6.423086415214659"><ele>1872.9999999999998</ele><time>2026-05-04T12:40:32Z</time></trkpt><trkpt lat="31.657939322671016" lon="-6.422965858234063"><ele>1872.0</ele><time>2026-05-04T12:40:34Z</time></trkpt><trkpt lat="31.657946137066308" lon="-6.422826855536808"><ele>1871.0</ele><time>2026-05-04T12:40:36Z</time></trkpt><trkpt lat="31.65795804431684" lon="-6.422752111110025"><ele>1870.0</ele><time>2026-05-04T12:40:37Z</time></trkpt><trkpt lat="31.65797133935038" lon="-6.422674449423136"><ele>1868.9999999999998</ele><time>2026-05-04T12:40:38Z</time></trkpt><trkpt lat="31.6579852079936" lon="-6.422589995303538"><ele>1868.0</ele><time>2026-05-04T12:40:39Z</time></trkpt><trkpt lat="31.658001963547406" lon="-6.422505727693085"><ele>1867.9999999999998</ele><time>2026-05-04T12:40:40Z</time></trkpt><trkpt lat="31.6580181918543" lon="-6.42241842261921"><ele>1868.0</ele><time>2026-05-04T12:40:41Z</time></trkpt><trkpt lat="31.658030938522394" lon="-6.4223303585297895"><ele>1868.0</ele><time>2026-05-04T12:40:42Z</time></trkpt><trkpt lat="31.658047394145758" lon="-6.422242060555549"><ele>1868.0</ele><time>2026-05-04T12:40:43Z</time></trkpt><trkpt lat="31.658065992718807" lon="-6.422151423996837"><ele>1867.9999999999998</ele><time>2026-05-04T12:40:44Z</time></trkpt><trkpt lat="31.65808492486122" lon="-6.42206182746978"><ele>1868.0</ele><time>2026-05-04T12:40:45Z</time></trkpt><trkpt lat="31.65810391230333" lon="-6.421977254831356"><ele>1867.1666666666665</ele><time>2026-05-04T12:40:46Z</time></trkpt><trkpt lat="31.65812363302343" lon="-6.421891169733329"><ele>1866.3333333333333</ele><time>2026-05-04T12:40:47Z</time></trkpt><trkpt lat="31.658143315993204" lon="-6.42180983996388"><ele>1865.5</ele><time>2026-05-04T12:40:48Z</time></trkpt><trkpt lat="31.658163609415954" lon="-6.421732427040203"><ele>1864.6666666666665</ele><time>2026-05-04T12:40:49Z</time></trkpt><trkpt lat="31.658160518977848" lon="-6.421654977675168"><ele>1863.8333333333333</ele><time>2026-05-04T12:40:50Z</time></trkpt><trkpt lat="31.65818316210072" lon="-6.421521052323033"><ele>1863.0</ele><time>2026-05-04T12:40:52Z</time></trkpt><trkpt lat="31.65819734268621" lon="-6.421398642168771"><ele>1862.0</ele><time>2026-05-04T12:40:54Z</time></trkpt><trkpt lat="31.658210426069306" lon="-6.421283799378564"><ele>1861.0</ele><time>2026-05-04T12:40:56Z</time></trkpt><trkpt lat="31.65822093962948" lon="-6.4211849286914475"><ele>1860.0</ele><time>2026-05-04T12:40:58Z</time></trkpt><trkpt lat="31.658228174781517" lon="-6.421104785465258"><ele>1859.0</ele><time>2026-05-04T12:41:00Z</time></trkpt><trkpt lat="31.658250972929498" lon="-6.4210333734115945"><ele>1858.0</ele><time>2026-05-04T12:41:02.999Z</time></trkpt><trkpt lat="31.6582490150297" lon="-6.420925044636704"><ele>1857.0</ele><time>2026-05-04T12:41:05.999Z</time></trkpt><trkpt lat="31.658265416778015" lon="-6.420815582655148"><ele>1857.0</ele><time>2026-05-04T12:41:08Z</time></trkpt><trkpt lat="31.658283246913857" lon="-6.420701822317262"><ele>1857.0</ele><time>2026-05-04T12:41:10Z</time></trkpt><trkpt lat="31.65829974482173" lon="-6.4205955439092905"><ele>1857.0</ele><time>2026-05-04T12:41:12Z</time></trkpt><trkpt lat="31.658309551133872" lon="-6.420505591472744"><ele>1857.0</ele><time>2026-05-04T12:41:14Z</time></trkpt><trkpt lat="31.658329888184472" lon="-6.420401327670636"><ele>1857.0</ele><time>2026-05-04T12:41:17Z</time></trkpt><trkpt lat="31.65836609445453" lon="-6.420312636662403"><ele>1857.0</ele><time>2026-05-04T12:41:19Z</time></trkpt><trkpt lat="31.658379140122943" lon="-6.420218309550141"><ele>1856.8</ele><time>2026-05-04T12:41:21Z</time></trkpt><trkpt lat="31.658401575702065" lon="-6.420119694408039"><ele>1856.6</ele><time>2026-05-04T12:41:23Z</time></trkpt><trkpt lat="31.658427938842205" lon="-6.420017782706789"><ele>1856.3999999999999</ele><time>2026-05-04T12:41:25Z</time></trkpt><trkpt lat="31.658457780573748" lon="-6.419914386532142"><ele>1856.1999999999998</ele><time>2026-05-04T12:41:27Z</time></trkpt><trkpt lat="31.658487961026726" lon="-6.419816919985948"><ele>1856.0</ele><time>2026-05-04T12:41:29Z</time></trkpt><trkpt lat="31.658543766918694" lon="-6.419726105158762"><ele>1856.0</ele><time>2026-05-04T12:41:31Z</time></trkpt><trkpt lat="31.658614501570412" lon="-6.419656437137388"><ele>1856.0</ele><time>2026-05-04T12:41:33Z</time></trkpt><trkpt lat="31.658658000203577" lon="-6.419560844447098"><ele>1856.0</ele><time>2026-05-04T12:41:35Z</time></trkpt><trkpt lat="31.658712651228527" lon="-6.419453491427144"><ele>1856.0</ele><time>2026-05-04T12:41:37Z</time></trkpt><trkpt lat="31.658798153429164" lon="-6.419342179116146"><ele>1856.0</ele><time>2026-05-04T12:41:39Z</time></trkpt><trkpt lat="31.65884697289949" lon="-6.419281055399673"><ele>1858.0000000000002</ele><time>2026-05-04T12:41:40Z</time></trkpt><trkpt lat="31.658897569962026" lon="-6.419222079738836"><ele>1860.0</ele><time>2026-05-04T12:41:41Z</time></trkpt><trkpt lat="31.65895281750867" lon="-6.41916179936515"><ele>1862.0000000000002</ele><time>2026-05-04T12:41:42Z</time></trkpt><trkpt lat="31.65900992626552" lon="-6.419098430927159"><ele>1864.0000000000002</ele><time>2026-05-04T12:41:43Z</time></trkpt><trkpt lat="31.65903452918487" lon="-6.41902133787327"><ele>1866.0</ele><time>2026-05-04T12:41:44Z</time></trkpt><trkpt lat="31.659080517065224" lon="-6.418946398614136"><ele>1868.0000000000002</ele><time>2026-05-04T12:41:45Z</time></trkpt><trkpt lat="31.659134754687873" lon="-6.418889471791277"><ele>1870.0000000000002</ele><time>2026-05-04T12:41:46Z</time></trkpt><trkpt lat="31.659171031492587" lon="-6.418820587086453"><ele>1869.1666666666667</ele><time>2026-05-04T12:41:47Z</time></trkpt><trkpt lat="31.659231889948796" lon="-6.418691966238028"><ele>1868.3333333333335</ele><time>2026-05-04T12:41:49Z</time></trkpt><trkpt lat="31.659254603943264" lon="-6.41861876117306"><ele>1867.5</ele><time>2026-05-04T12:41:50Z</time></trkpt><trkpt lat="31.65928212894832" lon="-6.418539117684283"><ele>1866.6666666666665</ele><time>2026-05-04T12:41:51Z</time></trkpt><trkpt lat="31.659318887815736" lon="-6.418450906922689"><ele>1865.8333333333333</ele><time>2026-05-04T12:41:52Z</time></trkpt><trkpt lat="31.659331822948495" lon="-6.418354141882912"><ele>1865.0</ele><time>2026-05-04T12:41:53Z</time></trkpt><trkpt lat="31.65935990775241" lon="-6.418273671058732"><ele>1864.9999999999998</ele><time>2026-05-04T12:41:54Z</time></trkpt><trkpt lat="31.659369107327194" lon="-6.4181975039845875"><ele>1865.0</ele><time>2026-05-04T12:41:55Z</time></trkpt><trkpt lat="31.65937742661151" lon="-6.418115974435749"><ele>1865.0</ele><time>2026-05-04T12:41:56Z</time></trkpt><trkpt lat="31.659384296452338" lon="-6.418032238557699"><ele>1865.0</ele><time>2026-05-04T12:41:57Z</time></trkpt><trkpt lat="31.659395607147" lon="-6.417938858918089"><ele>1864.9999999999998</ele><time>2026-05-04T12:41:58Z</time></trkpt><trkpt lat="31.659406269956634" lon="-6.41784328304011"><ele>1865.0</ele><time>2026-05-04T12:41:59Z</time></trkpt><trkpt lat="31.659420612743876" lon="-6.417728775351207"><ele>1864.6666666666665</ele><time>2026-05-04T12:42:00Z</time></trkpt><trkpt lat="31.659436210502" lon="-6.4176120871696405"><ele>1864.3333333333333</ele><time>2026-05-04T12:42:01Z</time></trkpt><trkpt lat="31.6594453170506" lon="-6.417508781540042"><ele>1864.0</ele><time>2026-05-04T12:42:02Z</time></trkpt><trkpt lat="31.659456802862504" lon="-6.417412687924853"><ele>1863.6666666666665</ele><time>2026-05-04T12:42:03Z</time></trkpt><trkpt lat="31.659471717588392" lon="-6.417312946256753"><ele>1863.3333333333333</ele><time>2026-05-04T12:42:04Z</time></trkpt><trkpt lat="31.65947804438042" lon="-6.417212971336717"><ele>1863.0</ele><time>2026-05-04T12:42:05Z</time></trkpt><trkpt lat="31.659491773804774" lon="-6.4171113082853"><ele>1867.3333333333333</ele><time>2026-05-04T12:42:06Z</time></trkpt><trkpt lat="31.659506778423975" lon="-6.417005511436805"><ele>1871.6666666666665</ele><time>2026-05-04T12:42:07Z</time></trkpt><trkpt lat="31.659511124410912" lon="-6.416903313740223"><ele>1876.0</ele><time>2026-05-04T12:42:08Z</time></trkpt><trkpt lat="31.659524141670737" lon="-6.416812522120299"><ele>1880.3333333333333</ele><time>2026-05-04T12:42:09Z</time></trkpt><trkpt lat="31.65953900475634" lon="-6.416719854787899"><ele>1884.6666666666665</ele><time>2026-05-04T12:42:10Z</time></trkpt><trkpt lat="31.659553696799684" lon="-6.416623183534391"><ele>1889.0</ele><time>2026-05-04T12:42:11Z</time></trkpt><trkpt lat="31.659560491705463" lon="-6.416523129563484"><ele>1888.9999999999998</ele><time>2026-05-04T12:42:12Z</time></trkpt><trkpt lat="31.65956138336955" lon="-6.416420677193761"><ele>1889.0</ele><time>2026-05-04T12:42:13Z</time></trkpt><trkpt lat="31.659564697737004" lon="-6.4163182043838605"><ele>1889.0</ele><time>2026-05-04T12:42:14Z</time></trkpt><trkpt lat="31.65956782731126" lon="-6.416216616884908"><ele>1889.0</ele><time>2026-05-04T12:42:15Z</time></trkpt><trkpt lat="31.65956901301578" lon="-6.416115611241252"><ele>1888.9999999999998</ele><time>2026-05-04T12:42:16Z</time></trkpt><trkpt lat="31.659568389231804" lon="-6.416015281953503"><ele>1889.0</ele><time>2026-05-04T12:42:17Z</time></trkpt><trkpt lat="31.659569415277616" lon="-6.41592040068883"><ele>1888.6666666666665</ele><time>2026-05-04T12:42:18Z</time></trkpt><trkpt lat="31.659573886152092" lon="-6.415824240754837"><ele>1888.3333333333333</ele><time>2026-05-04T12:42:19Z</time></trkpt><trkpt lat="31.659569771185517" lon="-6.415729394419763"><ele>1888.0</ele><time>2026-05-04T12:42:20Z</time></trkpt><trkpt lat="31.65956376378492" lon="-6.41563694700674"><ele>1887.6666666666665</ele><time>2026-05-04T12:42:21Z</time></trkpt><trkpt lat="31.659560633582057" lon="-6.415542512926514"><ele>1887.3333333333333</ele><time>2026-05-04T12:42:22Z</time></trkpt><trkpt lat="31.65955520658579" lon="-6.415449798442181"><ele>1887.0</ele><time>2026-05-04T12:42:23Z</time></trkpt><trkpt lat="31.659554030245538" lon="-6.415355229528199"><ele>1886.1666666666667</ele><time>2026-05-04T12:42:24Z</time></trkpt><trkpt lat="31.65956176072797" lon="-6.415258082102633"><ele>1885.3333333333335</ele><time>2026-05-04T12:42:25Z</time></trkpt><trkpt lat="31.65958373717023" lon="-6.4151654602344435"><ele>1884.5</ele><time>2026-05-04T12:42:26Z</time></trkpt><trkpt lat="31.65962110765309" lon="-6.415074519964909"><ele>1883.6666666666667</ele><time>2026-05-04T12:42:27Z</time></trkpt><trkpt lat="31.659662254035084" lon="-6.414981464486731"><ele>1882.8333333333335</ele><time>2026-05-04T12:42:28Z</time></trkpt><trkpt lat="31.659678512080514" lon="-6.414881223282111"><ele>1882.0</ele><time>2026-05-04T12:42:29Z</time></trkpt><trkpt lat="31.659708095485005" lon="-6.41477766509432"><ele>1882.0</ele><time>2026-05-04T12:42:30Z</time></trkpt><trkpt lat="31.65973719951596" lon="-6.414671210572382"><ele>1881.9999999999998</ele><time>2026-05-04T12:42:31Z</time></trkpt><trkpt lat="31.659763388448482" lon="-6.414569775873517"><ele>1881.9999999999998</ele><time>2026-05-04T12:42:32Z</time></trkpt><trkpt lat="31.659801488658957" lon="-6.414468294457463"><ele>1882.0</ele><time>2026-05-04T12:42:33Z</time></trkpt><trkpt lat="31.65981982611533" lon="-6.414363030962151"><ele>1882.0</ele><time>2026-05-04T12:42:34Z</time></trkpt><trkpt lat="31.659827290838717" lon="-6.414256897332766"><ele>1881.8333333333335</ele><time>2026-05-04T12:42:35Z</time></trkpt><trkpt lat="31.65983755413247" lon="-6.4141529036352"><ele>1881.6666666666667</ele><time>2026-05-04T12:42:36Z</time></trkpt><trkpt lat="31.659841247438436" lon="-6.4140488799769235"><ele>1881.5</ele><time>2026-05-04T12:42:37Z</time></trkpt><trkpt lat="31.659852607620973" lon="-6.413944807876505"><ele>1881.3333333333335</ele><time>2026-05-04T12:42:38Z</time></trkpt><trkpt lat="31.659860276895053" lon="-6.413841383045337"><ele>1881.1666666666667</ele><time>2026-05-04T12:42:39Z</time></trkpt><trkpt lat="31.65986851278951" lon="-6.413739098855624"><ele>1881.0</ele><time>2026-05-04T12:42:40Z</time></trkpt><trkpt lat="31.659860359619028" lon="-6.413635278089038"><ele>1880.6666666666667</ele><time>2026-05-04T12:42:41Z</time></trkpt><trkpt lat="31.65986658311792" lon="-6.413535776926591"><ele>1880.3333333333335</ele><time>2026-05-04T12:42:42Z</time></trkpt><trkpt lat="31.65987292411437" lon="-6.413435140116664"><ele>1880.0</ele><time>2026-05-04T12:42:43Z</time></trkpt><trkpt lat="31.659881534734776" lon="-6.413340737550428"><ele>1879.6666666666667</ele><time>2026-05-04T12:42:44Z</time></trkpt><trkpt lat="31.659894001529747" lon="-6.413249276443591"><ele>1879.3333333333335</ele><time>2026-05-04T12:42:44.999Z</time></trkpt><trkpt lat="31.659909931846933" lon="-6.413168409835752"><ele>1879.0</ele><time>2026-05-04T12:42:45.999Z</time></trkpt><trkpt lat="31.65992620422708" lon="-6.413085794777962"><ele>1879.0000000000002</ele><time>2026-05-04T12:42:46.999Z</time></trkpt><trkpt lat="31.659943244309876" lon="-6.412999246565219"><ele>1879.0</ele><time>2026-05-04T12:42:47.999Z</time></trkpt><trkpt lat="31.659960203249373" lon="-6.412913140771072"><ele>1879.0</ele><time>2026-05-04T12:42:48.999Z</time></trkpt><trkpt lat="31.659978380342643" lon="-6.41282101029993"><ele>1879.0</ele><time>2026-05-04T12:42:49.999Z</time></trkpt><trkpt lat="31.660012023334744" lon="-6.412728269435886"><ele>1879.0000000000002</ele><time>2026-05-04T12:42:50.999Z</time></trkpt><trkpt lat="31.660030708670558" lon="-6.41263117551014"><ele>1879.0</ele><time>2026-05-04T12:42:51.999Z</time></trkpt><trkpt lat="31.66004717861117" lon="-6.412536569591167"><ele>1878.0000000000002</ele><time>2026-05-04T12:42:52.999Z</time></trkpt><trkpt lat="31.660062650428074" lon="-6.412438106063851"><ele>1877.0</ele><time>2026-05-04T12:42:53.999Z</time></trkpt><trkpt lat="31.66007851622385" lon="-6.412344720510895"><ele>1876.0</ele><time>2026-05-04T12:42:54.999Z</time></trkpt><trkpt lat="31.660098032926083" lon="-6.412251597796507"><ele>1875.0</ele><time>2026-05-04T12:42:55.999Z</time></trkpt><trkpt lat="31.660117192292113" lon="-6.412160803798463"><ele>1874.0000000000002</ele><time>2026-05-04T12:42:56.999Z</time></trkpt><trkpt lat="31.660134068936134" lon="-6.412069472945846"><ele>1873.0</ele><time>2026-05-04T12:42:57.999Z</time></trkpt><trkpt lat="31.660154111882715" lon="-6.411978341553128"><ele>1872.5000000000002</ele><time>2026-05-04T12:42:58.999Z</time></trkpt><trkpt lat="31.660173134805515" lon="-6.411883518369134"><ele>1872.0</ele><time>2026-05-04T12:42:59.999Z</time></trkpt><trkpt lat="31.660194200808238" lon="-6.411788768936837"><ele>1871.5</ele><time>2026-05-04T12:43:00.999Z</time></trkpt><trkpt lat="31.660215960123026" lon="-6.41169291508215"><ele>1871.0</ele><time>2026-05-04T12:43:01.999Z</time></trkpt><trkpt lat="31.660237024675332" lon="-6.411593587181799"><ele>1870.5000000000002</ele><time>2026-05-04T12:43:02.999Z</time></trkpt><trkpt lat="31.66026127030536" lon="-6.4114957537322255"><ele>1870.0</ele><time>2026-05-04T12:43:03.999Z</time></trkpt><trkpt lat="31.660287044378947" lon="-6.411398396954679"><ele>1872.3333333333335</ele><time>2026-05-04T12:43:04.999Z</time></trkpt><trkpt lat="31.660310550410433" lon="-6.411302690901783"><ele>1874.6666666666667</ele><time>2026-05-04T12:43:05.999Z</time></trkpt><trkpt lat="31.660335453179087" lon="-6.411207289524455"><ele>1877.0</ele><time>2026-05-04T12:43:06.999Z</time></trkpt><trkpt lat="31.660357239017358" lon="-6.411113858044844"><ele>1879.3333333333335</ele><time>2026-05-04T12:43:07.999Z</time></trkpt><trkpt lat="31.660376693374317" lon="-6.411019932089035"><ele>1881.6666666666667</ele><time>2026-05-04T12:43:08.999Z</time></trkpt><trkpt lat="31.66039492852791" lon="-6.410929392418604"><ele>1884.0</ele><time>2026-05-04T12:43:09.999Z</time></trkpt><trkpt lat="31.660414298372533" lon="-6.410841040777666"><ele>1884.0</ele><time>2026-05-04T12:43:10.999Z</time></trkpt><trkpt lat="31.660433219503435" lon="-6.4107524106088265"><ele>1884.0</ele><time>2026-05-04T12:43:11.999Z</time></trkpt><trkpt lat="31.660454636614404" lon="-6.4106632927749585"><ele>1884.0</ele><time>2026-05-04T12:43:13Z</time></trkpt><trkpt lat="31.660478100635743" lon="-6.410577126213796"><ele>1884.0</ele><time>2026-05-04T12:43:14Z</time></trkpt><trkpt lat="31.660497487447106" lon="-6.41048783442511"><ele>1884.0</ele><time>2026-05-04T12:43:15Z</time></trkpt><trkpt lat="31.660521321083518" lon="-6.4104015007222"><ele>1884.0</ele><time>2026-05-04T12:43:16Z</time></trkpt><trkpt lat="31.660543363708197" lon="-6.410311765953007"><ele>1883.1666666666667</ele><time>2026-05-04T12:43:17Z</time></trkpt><trkpt lat="31.66055911145399" lon="-6.410219257368605"><ele>1882.3333333333335</ele><time>2026-05-04T12:43:18Z</time></trkpt><trkpt lat="31.660571202197964" lon="-6.410126763080523"><ele>1881.5</ele><time>2026-05-04T12:43:19Z</time></trkpt><trkpt lat="31.660581026493954" lon="-6.410031401209077"><ele>1880.6666666666667</ele><time>2026-05-04T12:43:20Z</time></trkpt><trkpt lat="31.660589329368722" lon="-6.409934160155976"><ele>1879.8333333333335</ele><time>2026-05-04T12:43:21Z</time></trkpt><trkpt lat="31.6605983499879" lon="-6.409831430563526"><ele>1879.0</ele><time>2026-05-04T12:43:22Z</time></trkpt><trkpt lat="31.660594248044898" lon="-6.409728819220727"><ele>1878.8000000000002</ele><time>2026-05-04T12:43:23Z</time></trkpt><trkpt lat="31.660592054825273" lon="-6.409622153462314"><ele>1878.6000000000001</ele><time>2026-05-04T12:43:24Z</time></trkpt><trkpt lat="31.660589172101623" lon="-6.409515674655499"><ele>1878.4</ele><time>2026-05-04T12:43:25Z</time></trkpt><trkpt lat="31.66058389228052" lon="-6.409408212362913"><ele>1878.2</ele><time>2026-05-04T12:43:26Z</time></trkpt><trkpt lat="31.660582265067415" lon="-6.409298378537338"><ele>1878.0</ele><time>2026-05-04T12:43:27Z</time></trkpt><trkpt lat="31.66058106479327" lon="-6.40918616086095"><ele>1878.0</ele><time>2026-05-04T12:43:28Z</time></trkpt><trkpt lat="31.660583310807436" lon="-6.409072872883766"><ele>1878.0</ele><time>2026-05-04T12:43:29Z</time></trkpt><trkpt lat="31.66058558732691" lon="-6.408965009869903"><ele>1878.0</ele><time>2026-05-04T12:43:30Z</time></trkpt><trkpt lat="31.66057695231838" lon="-6.408868074999228"><ele>1878.0</ele><time>2026-05-04T12:43:31Z</time></trkpt><trkpt lat="31.660568540134115" lon="-6.408776327304085"><ele>1878.0</ele><time>2026-05-04T12:43:32Z</time></trkpt><trkpt lat="31.660540240783572" lon="-6.408703445835546"><ele>1878.0</ele><time>2026-05-04T12:43:33Z</time></trkpt><trkpt lat="31.66049695333326" lon="-6.4086480039321"><ele>1878.1666666666667</ele><time>2026-05-04T12:43:34Z</time></trkpt><trkpt lat="31.66044848786553" lon="-6.408576586165259"><ele>1878.3333333333335</ele><time>2026-05-04T12:43:35Z</time></trkpt><trkpt lat="31.660385169866064" lon="-6.408517035657716"><ele>1878.5</ele><time>2026-05-04T12:43:36Z</time></trkpt><trkpt lat="31.660320956923535" lon="-6.408446564482856"><ele>1878.6666666666667</ele><time>2026-05-04T12:43:37Z</time></trkpt><trkpt lat="31.66025090047312" lon="-6.40837311109919"><ele>1878.8333333333335</ele><time>2026-05-04T12:43:38Z</time></trkpt><trkpt lat="31.66017731777933" lon="-6.40829643745704"><ele>1879.0</ele><time>2026-05-04T12:43:39Z</time></trkpt><trkpt lat="31.66010507293606" lon="-6.408211100576197"><ele>1878.4</ele><time>2026-05-04T12:43:40Z</time></trkpt><trkpt lat="31.660034435993193" lon="-6.40812290988569"><ele>1877.8000000000002</ele><time>2026-05-04T12:43:41Z</time></trkpt><trkpt lat="31.659968640712076" lon="-6.408041414350021"><ele>1877.1999999999998</ele><time>2026-05-04T12:43:42Z</time></trkpt><trkpt lat="31.659884662113498" lon="-6.40797753561516"><ele>1876.6</ele><time>2026-05-04T12:43:43Z</time></trkpt><trkpt lat="31.659849647161032" lon="-6.407891036555311"><ele>1876.0</ele><time>2026-05-04T12:43:44Z</time></trkpt><trkpt lat="31.6597949840982" lon="-6.407819165434893"><ele>1876.0000000000002</ele><time>2026-05-04T12:43:45Z</time></trkpt><trkpt lat="31.65974544015914" lon="-6.407743740934284"><ele>1876.0</ele><time>2026-05-04T12:43:46Z</time></trkpt><trkpt lat="31.659699605529504" lon="-6.4076663700748915"><ele>1876.0</ele><time>2026-05-04T12:43:47Z</time></trkpt><trkpt lat="31.65964551043014" lon="-6.407594143372167"><ele>1876.0</ele><time>2026-05-04T12:43:48Z</time></trkpt><trkpt lat="31.65958946144439" lon="-6.407523212715649"><ele>1876.0000000000002</ele><time>2026-05-04T12:43:49Z</time></trkpt><trkpt lat="31.659533916086083" lon="-6.407449059705269"><ele>1876.0</ele><time>2026-05-04T12:43:50Z</time></trkpt><trkpt lat="31.659480110951495" lon="-6.407370243766862"><ele>1876.0</ele><time>2026-05-04T12:43:51Z</time></trkpt><trkpt lat="31.659427706341617" lon="-6.407288494832744"><ele>1876.0</ele><time>2026-05-04T12:43:52Z</time></trkpt><trkpt lat="31.659375147780388" lon="-6.4072019907085505"><ele>1876.0</ele><time>2026-05-04T12:43:53Z</time></trkpt><trkpt lat="31.6593249500415" lon="-6.407112867792269"><ele>1876.0</ele><time>2026-05-04T12:43:54Z</time></trkpt><trkpt lat="31.659274393320075" lon="-6.407025144975431"><ele>1876.0</ele><time>2026-05-04T12:43:55Z</time></trkpt><trkpt lat="31.659222470876514" lon="-6.406935927635004"><ele>1876.0</ele><time>2026-05-04T12:43:56Z</time></trkpt><trkpt lat="31.659168325261422" lon="-6.406839520844519"><ele>1876.0</ele><time>2026-05-04T12:43:57Z</time></trkpt><trkpt lat="31.65911159945223" lon="-6.406741042098623"><ele>1876.0</ele><time>2026-05-04T12:43:58Z</time></trkpt><trkpt lat="31.659051728714665" lon="-6.406640384692863"><ele>1876.0</ele><time>2026-05-04T12:43:59Z</time></trkpt><trkpt lat="31.658992133798296" lon="-6.406534224520317"><ele>1876.0</ele><time>2026-05-04T12:44:00Z</time></trkpt><trkpt lat="31.658933950905222" lon="-6.406424962180767"><ele>1878.5</ele><time>2026-05-04T12:44:01Z</time></trkpt><trkpt lat="31.658869313657764" lon="-6.406316311974919"><ele>1881.0</ele><time>2026-05-04T12:44:02Z</time></trkpt><trkpt lat="31.658804697135203" lon="-6.406206418671114"><ele>1883.5</ele><time>2026-05-04T12:44:03Z</time></trkpt><trkpt lat="31.658744865419298" lon="-6.406090481302925"><ele>1886.0</ele><time>2026-05-04T12:44:04Z</time></trkpt><trkpt lat="31.658677180480307" lon="-6.405973712946811"><ele>1883.25</ele><time>2026-05-04T12:44:05Z</time></trkpt><trkpt lat="31.65861761280205" lon="-6.405852433322905"><ele>1880.5</ele><time>2026-05-04T12:44:06Z</time></trkpt><trkpt lat="31.658556219318523" lon="-6.405731762239829"><ele>1877.75</ele><time>2026-05-04T12:44:07Z</time></trkpt><trkpt lat="31.658494344040626" lon="-6.405613371456966"><ele>1875.0</ele><time>2026-05-04T12:44:08Z</time></trkpt><trkpt lat="31.65843232966199" lon="-6.405493802151157"><ele>1874.75</ele><time>2026-05-04T12:44:09Z</time></trkpt><trkpt lat="31.658371690079235" lon="-6.40536110440149"><ele>1874.5</ele><time>2026-05-04T12:44:10Z</time></trkpt><trkpt lat="31.658302207416362" lon="-6.40521026029613"><ele>1874.25</ele><time>2026-05-04T12:44:11Z</time></trkpt><trkpt lat="31.65822725048381" lon="-6.40506321800691"><ele>1874.0</ele><time>2026-05-04T12:44:12Z</time></trkpt><trkpt lat="31.658148899057526" lon="-6.40490386277803"><ele>1874.0</ele><time>2026-05-04T12:44:13Z</time></trkpt><trkpt lat="31.658066967925148" lon="-6.404729931786576"><ele>1874.0</ele><time>2026-05-04T12:44:14Z</time></trkpt><trkpt lat="31.657985088829246" lon="-6.4045569765066555"><ele>1874.0</ele><time>2026-05-04T12:44:15Z</time></trkpt><trkpt lat="31.65790463128082" lon="-6.404389209636825"><ele>1873.6666666666665</ele><time>2026-05-04T12:44:16Z</time></trkpt><trkpt lat="31.657827705560553" lon="-6.404223493448596"><ele>1873.3333333333335</ele><time>2026-05-04T12:44:17Z</time></trkpt><trkpt lat="31.65776042708024" lon="-6.404055456628392"><ele>1873.0</ele><time>2026-05-04T12:44:18Z</time></trkpt><trkpt lat="31.657709347079248" lon="-6.403888782648397"><ele>1873.5</ele><time>2026-05-04T12:44:19Z</time></trkpt><trkpt lat="31.657665284327823" lon="-6.40370992214741"><ele>1874.0</ele><time>2026-05-04T12:44:20Z</time></trkpt><trkpt lat="31.65762392222725" lon="-6.403551226846004"><ele>1874.5</ele><time>2026-05-04T12:44:21Z</time></trkpt><trkpt lat="31.657585730891842" lon="-6.4033933105630405"><ele>1875.0</ele><time>2026-05-04T12:44:22Z</time></trkpt><trkpt lat="31.65755412581343" lon="-6.403231195282139"><ele>1875.0</ele><time>2026-05-04T12:44:23Z</time></trkpt><trkpt lat="31.657498876874882" lon="-6.403080077955825"><ele>1875.0</ele><time>2026-05-04T12:44:24Z</time></trkpt><trkpt lat="31.657464658894586" lon="-6.402945139969302"><ele>1875.0</ele><time>2026-05-04T12:44:25Z</time></trkpt><trkpt lat="31.65744356448358" lon="-6.402816982946343"><ele>1875.0</ele><time>2026-05-04T12:44:25.999Z</time></trkpt><trkpt lat="31.657421251165964" lon="-6.402679064050365"><ele>1876.75</ele><time>2026-05-04T12:44:26.999Z</time></trkpt><trkpt lat="31.657396217212064" lon="-6.402533878939996"><ele>1878.5</ele><time>2026-05-04T12:44:27.999Z</time></trkpt><trkpt lat="31.657371971461277" lon="-6.402377344770217"><ele>1880.25</ele><time>2026-05-04T12:44:28.999Z</time></trkpt><trkpt lat="31.657359534269556" lon="-6.402203793119286"><ele>1882.0</ele><time>2026-05-04T12:44:29.999Z</time></trkpt><trkpt lat="31.65735711773387" lon="-6.402022506884635"><ele>1885.0</ele><time>2026-05-04T12:44:30.999Z</time></trkpt><trkpt lat="31.65736344753758" lon="-6.401838126512517"><ele>1888.0</ele><time>2026-05-04T12:44:31.999Z</time></trkpt><trkpt lat="31.65736493850128" lon="-6.401644512315695"><ele>1891.0</ele><time>2026-05-04T12:44:32.999Z</time></trkpt><trkpt lat="31.65735556092848" lon="-6.401440959569534"><ele>1892.0</ele><time>2026-05-04T12:44:33.999Z</time></trkpt><trkpt lat="31.657323681550064" lon="-6.401238886172526"><ele>1893.0</ele><time>2026-05-04T12:44:34.999Z</time></trkpt><trkpt lat="31.657318551923176" lon="-6.401043822434974"><ele>1894.0</ele><time>2026-05-04T12:44:35.999Z</time></trkpt><trkpt lat="31.65730690282639" lon="-6.400852361537169"><ele>1894.0</ele><time>2026-05-04T12:44:36.999Z</time></trkpt><trkpt lat="31.657299529038564" lon="-6.400663707126926"><ele>1894.0</ele><time>2026-05-04T12:44:37.999Z</time></trkpt><trkpt lat="31.65729833405054" lon="-6.400483768658969"><ele>1894.0</ele><time>2026-05-04T12:44:38.999Z</time></trkpt><trkpt lat="31.657311500228698" lon="-6.400309139990023"><ele>1894.0</ele><time>2026-05-04T12:44:39.999Z</time></trkpt><trkpt lat="31.65734340007556" lon="-6.400139571670589"><ele>1894.0</ele><time>2026-05-04T12:44:40.999Z</time></trkpt><trkpt lat="31.65738052270238" lon="-6.3999826869541145"><ele>1894.0</ele><time>2026-05-04T12:44:41.999Z</time></trkpt><trkpt lat="31.657413751932662" lon="-6.399814451310006"><ele>1894.0</ele><time>2026-05-04T12:44:42.999Z</time></trkpt><trkpt lat="31.657449676301347" lon="-6.399648641171903"><ele>1894.0</ele><time>2026-05-04T12:44:43.999Z</time></trkpt><trkpt lat="31.65748299215449" lon="-6.399476819028493"><ele>1894.0</ele><time>2026-05-04T12:44:44.999Z</time></trkpt><trkpt lat="31.657511804104256" lon="-6.399302859026801"><ele>1894.0</ele><time>2026-05-04T12:44:45.999Z</time></trkpt><trkpt lat="31.657521697814115" lon="-6.399124831507663"><ele>1894.0</ele><time>2026-05-04T12:44:46.999Z</time></trkpt><trkpt lat="31.65752564408577" lon="-6.39894320056983"><ele>1894.0</ele><time>2026-05-04T12:44:47.999Z</time></trkpt><trkpt lat="31.65753152464365" lon="-6.398756106338486"><ele>1894.0</ele><time>2026-05-04T12:44:48.999Z</time></trkpt><trkpt lat="31.65753979581003" lon="-6.398567048514883"><ele>1894.6666666666667</ele><time>2026-05-04T12:44:49.999Z</time></trkpt><trkpt lat="31.65755067012122" lon="-6.398381628015001"><ele>1895.3333333333335</ele><time>2026-05-04T12:44:50.999Z</time></trkpt><trkpt lat="31.657571507147654" lon="-6.398200783343563"><ele>1896.0</ele><time>2026-05-04T12:44:51.999Z</time></trkpt><trkpt lat="31.657598910803728" lon="-6.398021942962275"><ele>1897.0</ele><time>2026-05-04T12:44:52.999Z</time></trkpt><trkpt lat="31.657626810335767" lon="-6.397850835356103"><ele>1898.0</ele><time>2026-05-04T12:44:53.999Z</time></trkpt><trkpt lat="31.657654666695908" lon="-6.397684093722126"><ele>1899.0</ele><time>2026-05-04T12:44:54.999Z</time></trkpt><trkpt lat="31.65768043415655" lon="-6.397532764810707"><ele>1900.0</ele><time>2026-05-04T12:44:55.999Z</time></trkpt><trkpt lat="31.657705016573992" lon="-6.397389296255725"><ele>1900.0</ele><time>2026-05-04T12:44:56.999Z</time></trkpt><trkpt lat="31.657724319339977" lon="-6.397252403099748"><ele>1900.0</ele><time>2026-05-04T12:44:57.999Z</time></trkpt><trkpt lat="31.657742343913135" lon="-6.39710386604579"><ele>1900.0</ele><time>2026-05-04T12:44:58.999Z</time></trkpt><trkpt lat="31.657760398405255" lon="-6.39695080014432"><ele>1900.0</ele><time>2026-05-04T12:44:59.999Z</time></trkpt><trkpt lat="31.657779105932953" lon="-6.396787589496681"><ele>1901.0</ele><time>2026-05-04T12:45:00.999Z</time></trkpt><trkpt lat="31.657798792927654" lon="-6.396615976279067"><ele>1902.0</ele><time>2026-05-04T12:45:01.999Z</time></trkpt><trkpt lat="31.657826092955247" lon="-6.396452047086553"><ele>1903.0</ele><time>2026-05-04T12:45:02.999Z</time></trkpt><trkpt lat="31.65784821652098" lon="-6.3962935640997225"><ele>1904.0</ele><time>2026-05-04T12:45:03.999Z</time></trkpt><trkpt lat="31.657871334994898" lon="-6.396139342582427"><ele>1904.0</ele><time>2026-05-04T12:45:04.999Z</time></trkpt><trkpt lat="31.657901124071973" lon="-6.395996655895701"><ele>1904.0</ele><time>2026-05-04T12:45:05.999Z</time></trkpt><trkpt lat="31.65793748338172" lon="-6.395859703173114"><ele>1904.0</ele><time>2026-05-04T12:45:06.999Z</time></trkpt><trkpt lat="31.657979650316943" lon="-6.395728485546632"><ele>1904.0</ele><time>2026-05-04T12:45:07.999Z</time></trkpt><trkpt lat="31.658020308852837" lon="-6.395605422238215"><ele>1903.2</ele><time>2026-05-04T12:45:08.999Z</time></trkpt><trkpt lat="31.658053349358163" lon="-6.395485389670604"><ele>1902.4</ele><time>2026-05-04T12:45:09.999Z</time></trkpt><trkpt lat="31.65808430864057" lon="-6.395375243026886"><ele>1901.6</ele><time>2026-05-04T12:45:10.999Z</time></trkpt><trkpt lat="31.658113541135187" lon="-6.395258911829628"><ele>1900.8</ele><time>2026-05-04T12:45:11.999Z</time></trkpt><trkpt lat="31.658141017144658" lon="-6.395139942096316"><ele>1900.0</ele><time>2026-05-04T12:45:12.999Z</time></trkpt><trkpt lat="31.658169832147262" lon="-6.395018679314324"><ele>1900.0</ele><time>2026-05-04T12:45:13.999Z</time></trkpt><trkpt lat="31.658201394006255" lon="-6.394894712238781"><ele>1900.0</ele><time>2026-05-04T12:45:14.999Z</time></trkpt><trkpt lat="31.658233552977197" lon="-6.394768699768068"><ele>1900.0</ele><time>2026-05-04T12:45:15.999Z</time></trkpt><trkpt lat="31.658264083085975" lon="-6.39464109059452"><ele>1900.0</ele><time>2026-05-04T12:45:16.999Z</time></trkpt><trkpt lat="31.658301659194844" lon="-6.39451338879001"><ele>1899.75</ele><time>2026-05-04T12:45:17.999Z</time></trkpt><trkpt lat="31.658351191103478" lon="-6.394389710172394"><ele>1899.5</ele><time>2026-05-04T12:45:19Z</time></trkpt><trkpt lat="31.658417723033576" lon="-6.394272110336548"><ele>1899.25</ele><time>2026-05-04T12:45:20Z</time></trkpt><trkpt lat="31.65848984607703" lon="-6.394162144707019"><ele>1899.0</ele><time>2026-05-04T12:45:21Z</time></trkpt><trkpt lat="31.65856272724789" lon="-6.3940545638867885"><ele>1900.5</ele><time>2026-05-04T12:45:22Z</time></trkpt><trkpt lat="31.658622013697705" lon="-6.393940584282846"><ele>1902.0</ele><time>2026-05-04T12:45:23Z</time></trkpt><trkpt lat="31.65866673320032" lon="-6.393817123131672"><ele>1903.5</ele><time>2026-05-04T12:45:24Z</time></trkpt><trkpt lat="31.658712926274287" lon="-6.39369396602582"><ele>1905.0</ele><time>2026-05-04T12:45:25Z</time></trkpt><trkpt lat="31.658764721783935" lon="-6.393572683910208"><ele>1905.0</ele><time>2026-05-04T12:45:26Z</time></trkpt><trkpt lat="31.658824745896766" lon="-6.393457133288048"><ele>1905.0</ele><time>2026-05-04T12:45:27Z</time></trkpt><trkpt lat="31.658893741579092" lon="-6.3933526651770185"><ele>1905.0</ele><time>2026-05-04T12:45:28Z</time></trkpt><trkpt lat="31.658970768176786" lon="-6.393254566508769"><ele>1905.0</ele><time>2026-05-04T12:45:29Z</time></trkpt><trkpt lat="31.659044761300898" lon="-6.393158820378002"><ele>1905.0</ele><time>2026-05-04T12:45:30Z</time></trkpt><trkpt lat="31.659117110100482" lon="-6.393063668996098"><ele>1905.0</ele><time>2026-05-04T12:45:31Z</time></trkpt><trkpt lat="31.65918986020919" lon="-6.392967532964235"><ele>1905.0</ele><time>2026-05-04T12:45:32Z</time></trkpt><trkpt lat="31.65926276905401" lon="-6.392870875524999"><ele>1905.0</ele><time>2026-05-04T12:45:33Z</time></trkpt><trkpt lat="31.659338235561155" lon="-6.392776462735819"><ele>1905.0</ele><time>2026-05-04T12:45:34Z</time></trkpt><trkpt lat="31.659414477604674" lon="-6.392683739070949"><ele>1905.2</ele><time>2026-05-04T12:45:35Z</time></trkpt><trkpt lat="31.659486176507908" lon="-6.392589632759819"><ele>1905.4</ele><time>2026-05-04T12:45:36Z</time></trkpt><trkpt lat="31.659554889684348" lon="-6.3924939716937725"><ele>1905.6</ele><time>2026-05-04T12:45:37Z</time></trkpt><trkpt lat="31.65961876708612" lon="-6.3923899082096325"><ele>1905.8</ele><time>2026-05-04T12:45:38Z</time></trkpt><trkpt lat="31.65967855444461" lon="-6.392277645768105"><ele>1906.0</ele><time>2026-05-04T12:45:39Z</time></trkpt><trkpt lat="31.65972879073429" lon="-6.392158206595138"><ele>1906.0</ele><time>2026-05-04T12:45:40Z</time></trkpt><trkpt lat="31.65977431301759" lon="-6.392032144084291"><ele>1906.0</ele><time>2026-05-04T12:45:41Z</time></trkpt><trkpt lat="31.659807722690566" lon="-6.391902144454298"><ele>1906.0</ele><time>2026-05-04T12:45:42Z</time></trkpt><trkpt lat="31.65981130578681" lon="-6.391764494576571"><ele>1906.0</ele><time>2026-05-04T12:45:43Z</time></trkpt><trkpt lat="31.65982858655213" lon="-6.391628840431652"><ele>1906.0</ele><time>2026-05-04T12:45:44Z</time></trkpt><trkpt lat="31.65984563519857" lon="-6.391496364070017"><ele>1906.0</ele><time>2026-05-04T12:45:45Z</time></trkpt><trkpt lat="31.6598633295941" lon="-6.391358493017213"><ele>1906.0</ele><time>2026-05-04T12:45:46Z</time></trkpt><trkpt lat="31.659884940658838" lon="-6.3912287312399165"><ele>1906.0</ele><time>2026-05-04T12:45:47Z</time></trkpt><trkpt lat="31.659906833479496" lon="-6.391099949703934"><ele>1905.5</ele><time>2026-05-04T12:45:48Z</time></trkpt><trkpt lat="31.65992173594181" lon="-6.390968311378568"><ele>1905.0</ele><time>2026-05-04T12:45:49Z</time></trkpt><trkpt lat="31.659949135055346" lon="-6.3908378745159"><ele>1904.5</ele><time>2026-05-04T12:45:50Z</time></trkpt><trkpt lat="31.6599477270864" lon="-6.390696948807637"><ele>1904.0</ele><time>2026-05-04T12:45:51Z</time></trkpt><trkpt lat="31.659946510830267" lon="-6.390551950704049"><ele>1903.25</ele><time>2026-05-04T12:45:52Z</time></trkpt><trkpt lat="31.65994477045313" lon="-6.390401892765906"><ele>1902.5</ele><time>2026-05-04T12:45:53Z</time></trkpt><trkpt lat="31.659945987261146" lon="-6.390247898700219"><ele>1901.75</ele><time>2026-05-04T12:45:54Z</time></trkpt><trkpt lat="31.659947148510412" lon="-6.3900902547723435"><ele>1901.0</ele><time>2026-05-04T12:45:55Z</time></trkpt><trkpt lat="31.659944432463153" lon="-6.389940532553965"><ele>1901.0</ele><time>2026-05-04T12:45:56Z</time></trkpt><trkpt lat="31.659940164484187" lon="-6.3897994487547844"><ele>1901.0</ele><time>2026-05-04T12:45:57Z</time></trkpt><trkpt lat="31.659949611461865" lon="-6.389659383175106"><ele>1901.0</ele><time>2026-05-04T12:45:58Z</time></trkpt><trkpt lat="31.65997964739019" lon="-6.389517954000886"><ele>1901.0</ele><time>2026-05-04T12:45:59Z</time></trkpt><trkpt lat="31.660033496018436" lon="-6.389388146937367"><ele>1901.6</ele><time>2026-05-04T12:46:00Z</time></trkpt><trkpt lat="31.660095971272703" lon="-6.389271268932338"><ele>1902.1999999999998</ele><time>2026-05-04T12:46:01Z</time></trkpt><trkpt lat="31.660147785943153" lon="-6.3891567989051"><ele>1902.8000000000002</ele><time>2026-05-04T12:46:02Z</time></trkpt><trkpt lat="31.660162262481148" lon="-6.389040384380735"><ele>1903.4</ele><time>2026-05-04T12:46:03Z</time></trkpt><trkpt lat="31.6601898139684" lon="-6.388932303762054"><ele>1904.0</ele><time>2026-05-04T12:46:04Z</time></trkpt><trkpt lat="31.660175953021724" lon="-6.388810431573224"><ele>1903.9999999999998</ele><time>2026-05-04T12:46:05Z</time></trkpt><trkpt lat="31.66015906019219" lon="-6.388693827750423"><ele>1904.0</ele><time>2026-05-04T12:46:06Z</time></trkpt><trkpt lat="31.660145697524577" lon="-6.388593486487417"><ele>1904.0</ele><time>2026-05-04T12:46:07Z</time></trkpt><trkpt lat="31.660136053274215" lon="-6.388514455486602"><ele>1904.0</ele><time>2026-05-04T12:46:08Z</time></trkpt><trkpt lat="31.66016684947301" lon="-6.388378829439235"><ele>1903.9999999999998</ele><time>2026-05-04T12:46:10Z</time></trkpt><trkpt lat="31.660211278431593" lon="-6.388310060998088"><ele>1904.0</ele><time>2026-05-04T12:46:11Z</time></trkpt><trkpt lat="31.66025975184857" lon="-6.388234531970238"><ele>1904.0</ele><time>2026-05-04T12:46:12Z</time></trkpt><trkpt lat="31.660270180149006" lon="-6.388143428527226"><ele>1904.0</ele><time>2026-05-04T12:46:13Z</time></trkpt><trkpt lat="31.660275972822664" lon="-6.388058941421097"><ele>1904.0</ele><time>2026-05-04T12:46:14Z</time></trkpt><trkpt lat="31.660244275570136" lon="-6.387967568921339"><ele>1904.0</ele><time>2026-05-04T12:46:15Z</time></trkpt><trkpt lat="31.660219154372143" lon="-6.38788585909625"><ele>1904.0</ele><time>2026-05-04T12:46:16Z</time></trkpt><trkpt lat="31.660211791351855" lon="-6.387809236031081"><ele>1904.0</ele><time>2026-05-04T12:46:16.999Z</time></trkpt><trkpt lat="31.660224286431756" lon="-6.387729770904859"><ele>1904.0</ele><time>2026-05-04T12:46:17.999Z</time></trkpt><trkpt lat="31.660252930570334" lon="-6.387654599575593"><ele>1904.3333333333333</ele><time>2026-05-04T12:46:18.999Z</time></trkpt><trkpt lat="31.660287085383686" lon="-6.387587003097094"><ele>1904.6666666666665</ele><time>2026-05-04T12:46:19.999Z</time></trkpt><trkpt lat="31.660304232233198" lon="-6.38746433177855"><ele>1905.0</ele><time>2026-05-04T12:46:21.999Z</time></trkpt><trkpt lat="31.660295356254082" lon="-6.387334473967706"><ele>1905.3333333333335</ele><time>2026-05-04T12:46:23.999Z</time></trkpt><trkpt lat="31.660279875077606" lon="-6.38725356507111"><ele>1905.6666666666667</ele><time>2026-05-04T12:46:24.999Z</time></trkpt><trkpt lat="31.660261006850767" lon="-6.387166905800716"><ele>1906.0</ele><time>2026-05-04T12:46:25.999Z</time></trkpt><trkpt lat="31.660243905326446" lon="-6.387073387908948"><ele>1906.1666666666667</ele><time>2026-05-04T12:46:26.999Z</time></trkpt><trkpt lat="31.660228758525168" lon="-6.386978213344311"><ele>1906.3333333333335</ele><time>2026-05-04T12:46:27.999Z</time></trkpt><trkpt lat="31.66021162128301" lon="-6.386881477554264"><ele>1906.5</ele><time>2026-05-04T12:46:28.999Z</time></trkpt><trkpt lat="31.66019418452077" lon="-6.386784650421994"><ele>1906.6666666666665</ele><time>2026-05-04T12:46:29.999Z</time></trkpt><trkpt lat="31.660161048983685" lon="-6.3866953239839095"><ele>1906.8333333333333</ele><time>2026-05-04T12:46:30.999Z</time></trkpt><trkpt lat="31.66013256263212" lon="-6.3866038460367065"><ele>1907.0</ele><time>2026-05-04T12:46:31.999Z</time></trkpt><trkpt lat="31.660099424351817" lon="-6.386523102558829"><ele>1907.0</ele><time>2026-05-04T12:46:32.999Z</time></trkpt><trkpt lat="31.660069461794723" lon="-6.386431767575174"><ele>1906.9999999999998</ele><time>2026-05-04T12:46:33.999Z</time></trkpt><trkpt lat="31.659992565637058" lon="-6.386367879466221"><ele>1906.9999999999998</ele><time>2026-05-04T12:46:34.999Z</time></trkpt><trkpt lat="31.659939436521256" lon="-6.38627214220735"><ele>1907.0</ele><time>2026-05-04T12:46:35.999Z</time></trkpt><trkpt lat="31.65986226031048" lon="-6.386192726635526"><ele>1907.0</ele><time>2026-05-04T12:46:36.999Z</time></trkpt><trkpt lat="31.65978793933135" lon="-6.386102756230828"><ele>1908.75</ele><time>2026-05-04T12:46:37.999Z</time></trkpt><trkpt lat="31.65971415490247" lon="-6.386000941548731"><ele>1910.5</ele><time>2026-05-04T12:46:38.999Z</time></trkpt><trkpt lat="31.65963952323742" lon="-6.385891743282885"><ele>1912.25</ele><time>2026-05-04T12:46:39.999Z</time></trkpt><trkpt lat="31.659569680949623" lon="-6.3857669444130485"><ele>1914.0</ele><time>2026-05-04T12:46:40.999Z</time></trkpt><trkpt lat="31.65951573476533" lon="-6.385626955195194"><ele>1916.75</ele><time>2026-05-04T12:46:41.999Z</time></trkpt><trkpt lat="31.65947512759441" lon="-6.385484665881898"><ele>1919.5</ele><time>2026-05-04T12:46:42.999Z</time></trkpt><trkpt lat="31.65942415724816" lon="-6.3853557117335225"><ele>1922.25</ele><time>2026-05-04T12:46:43.999Z</time></trkpt><trkpt lat="31.65939430014875" lon="-6.385218916812729"><ele>1925.0</ele><time>2026-05-04T12:46:44.999Z</time></trkpt><trkpt lat="31.659387346249993" lon="-6.385078601743105"><ele>1921.2</ele><time>2026-05-04T12:46:45.999Z</time></trkpt><trkpt lat="31.659368848869153" lon="-6.384946853504417"><ele>1917.4</ele><time>2026-05-04T12:46:46.999Z</time></trkpt><trkpt lat="31.6593639669377" lon="-6.3848245994093595"><ele>1913.6</ele><time>2026-05-04T12:46:47.999Z</time></trkpt><trkpt lat="31.659340596103412" lon="-6.38472014767364"><ele>1909.8</ele><time>2026-05-04T12:46:48.999Z</time></trkpt><trkpt lat="31.659338133596393" lon="-6.3846322089369805"><ele>1906.0</ele><time>2026-05-04T12:46:49.999Z</time></trkpt><trkpt lat="31.65933892963734" lon="-6.384529302378746"><ele>1906.0000000000002</ele><time>2026-05-04T12:46:51.999Z</time></trkpt><trkpt lat="31.659256178570672" lon="-6.384485462680314"><ele>1906.0</ele><time>2026-05-04T12:46:54.999Z</time></trkpt><trkpt lat="31.659183251932483" lon="-6.384483762031577"><ele>1906.0</ele><time>2026-05-04T12:46:55.999Z</time></trkpt><trkpt lat="31.659100752523823" lon="-6.38446946825714"><ele>1906.0</ele><time>2026-05-04T12:46:56.999Z</time></trkpt><trkpt lat="31.659010564455908" lon="-6.384445839524163"><ele>1906.0000000000002</ele><time>2026-05-04T12:46:57.999Z</time></trkpt><trkpt lat="31.658919092796108" lon="-6.384410167656467"><ele>1906.0</ele><time>2026-05-04T12:46:58.999Z</time></trkpt><trkpt lat="31.65881682955922" lon="-6.384360610033389"><ele>1906.0</ele><time>2026-05-04T12:46:59.999Z</time></trkpt><trkpt lat="31.65871281567803" lon="-6.384297039353447"><ele>1906.0</ele><time>2026-05-04T12:47:00.999Z</time></trkpt><trkpt lat="31.658604558503644" lon="-6.384228624989902"><ele>1906.0</ele><time>2026-05-04T12:47:01.999Z</time></trkpt><trkpt lat="31.658493916588768" lon="-6.384167285541962"><ele>1906.0</ele><time>2026-05-04T12:47:02.999Z</time></trkpt><trkpt lat="31.658382839994342" lon="-6.384108073192039"><ele>1904.75</ele><time>2026-05-04T12:47:03.999Z</time></trkpt><trkpt lat="31.658263798869616" lon="-6.384069823444651"><ele>1903.5</ele><time>2026-05-04T12:47:04.999Z</time></trkpt><trkpt lat="31.658148372885034" lon="-6.384012677296252"><ele>1902.25</ele><time>2026-05-04T12:47:05.999Z</time></trkpt><trkpt lat="31.658040772750404" lon="-6.383957332871642"><ele>1901.0</ele><time>2026-05-04T12:47:06.999Z</time></trkpt><trkpt lat="31.657938047215854" lon="-6.383903702339783"><ele>1901.8</ele><time>2026-05-04T12:47:07.999Z</time></trkpt><trkpt lat="31.657833782082687" lon="-6.383836918220423"><ele>1902.6</ele><time>2026-05-04T12:47:08.999Z</time></trkpt><trkpt lat="31.65773894733209" lon="-6.383774278800704"><ele>1903.4</ele><time>2026-05-04T12:47:09.999Z</time></trkpt><trkpt lat="31.65765232871605" lon="-6.383703852918535"><ele>1904.2</ele><time>2026-05-04T12:47:10.999Z</time></trkpt><trkpt lat="31.657560740410776" lon="-6.383643542559035"><ele>1905.0</ele><time>2026-05-04T12:47:11.999Z</time></trkpt><trkpt lat="31.657464432016784" lon="-6.383584031875569"><ele>1905.2</ele><time>2026-05-04T12:47:12.999Z</time></trkpt><trkpt lat="31.657368619611542" lon="-6.383527642045482"><ele>1905.4</ele><time>2026-05-04T12:47:13.999Z</time></trkpt><trkpt lat="31.657270752611993" lon="-6.383479397568728"><ele>1905.6</ele><time>2026-05-04T12:47:14.999Z</time></trkpt><trkpt lat="31.657170222297772" lon="-6.383444605657091"><ele>1905.8</ele><time>2026-05-04T12:47:15.999Z</time></trkpt><trkpt lat="31.65705703168736" lon="-6.383418337925386"><ele>1906.0</ele><time>2026-05-04T12:47:16.999Z</time></trkpt><trkpt lat="31.656943712582496" lon="-6.383402739863262"><ele>1908.0</ele><time>2026-05-04T12:47:17.999Z</time></trkpt><trkpt lat="31.656839799241414" lon="-6.383423563933751"><ele>1910.0</ele><time>2026-05-04T12:47:18.999Z</time></trkpt><trkpt lat="31.656733068268153" lon="-6.383415524580125"><ele>1912.0</ele><time>2026-05-04T12:47:19.999Z</time></trkpt><trkpt lat="31.65665031569506" lon="-6.383366657416504"><ele>1914.0</ele><time>2026-05-04T12:47:20.999Z</time></trkpt><trkpt lat="31.656595623630764" lon="-6.383267845530888"><ele>1916.0</ele><time>2026-05-04T12:47:21.999Z</time></trkpt><trkpt lat="31.656550381317597" lon="-6.383157691834717"><ele>1916.0</ele><time>2026-05-04T12:47:22.999Z</time></trkpt><trkpt lat="31.656504781786374" lon="-6.383035215438705"><ele>1916.0</ele><time>2026-05-04T12:47:23.999Z</time></trkpt><trkpt lat="31.656452970223707" lon="-6.382906986135247"><ele>1916.0</ele><time>2026-05-04T12:47:25Z</time></trkpt><trkpt lat="31.65640209525901" lon="-6.382767315875899"><ele>1916.0</ele><time>2026-05-04T12:47:26Z</time></trkpt><trkpt lat="31.65635349402431" lon="-6.382610336632003"><ele>1915.6666666666665</ele><time>2026-05-04T12:47:27Z</time></trkpt><trkpt lat="31.656301000571602" lon="-6.382449916402614"><ele>1915.3333333333335</ele><time>2026-05-04T12:47:28Z</time></trkpt><trkpt lat="31.65624192490032" lon="-6.382283347601781"><ele>1915.0</ele><time>2026-05-04T12:47:29Z</time></trkpt><trkpt lat="31.656184471238618" lon="-6.382115794214704"><ele>1916.3333333333335</ele><time>2026-05-04T12:47:30Z</time></trkpt><trkpt lat="31.656127822368024" lon="-6.38194712285586"><ele>1917.6666666666665</ele><time>2026-05-04T12:47:31Z</time></trkpt><trkpt lat="31.656069949724262" lon="-6.381778674838823"><ele>1919.0</ele><time>2026-05-04T12:47:32Z</time></trkpt><trkpt lat="31.656006993525036" lon="-6.381606356226757"><ele>1921.3333333333333</ele><time>2026-05-04T12:47:33Z</time></trkpt><trkpt lat="31.65594369381447" lon="-6.381439290695319"><ele>1923.6666666666665</ele><time>2026-05-04T12:47:34Z</time></trkpt><trkpt lat="31.655856274496198" lon="-6.38128754707126"><ele>1926.0</ele><time>2026-05-04T12:47:35Z</time></trkpt><trkpt lat="31.655773523579466" lon="-6.381125243045527"><ele>1926.3333333333335</ele><time>2026-05-04T12:47:36Z</time></trkpt><trkpt lat="31.655726575147604" lon="-6.38094637625582"><ele>1926.6666666666667</ele><time>2026-05-04T12:47:37Z</time></trkpt><trkpt lat="31.655679193386568" lon="-6.380770385862644"><ele>1927.0</ele><time>2026-05-04T12:47:38Z</time></trkpt><trkpt lat="31.65561433114076" lon="-6.38059960852035"><ele>1926.0</ele><time>2026-05-04T12:47:39Z</time></trkpt><trkpt lat="31.65554468785097" lon="-6.380428612496773"><ele>1925.0</ele><time>2026-05-04T12:47:40Z</time></trkpt><trkpt lat="31.655475173112457" lon="-6.380256579787352"><ele>1924.0</ele><time>2026-05-04T12:47:41Z</time></trkpt><trkpt lat="31.655408274950645" lon="-6.380082062122678"><ele>1924.0</ele><time>2026-05-04T12:47:42Z</time></trkpt><trkpt lat="31.655329954759814" lon="-6.379915396422518"><ele>1924.0</ele><time>2026-05-04T12:47:43Z</time></trkpt><trkpt lat="31.655261183037815" lon="-6.379742001487092"><ele>1924.0</ele><time>2026-05-04T12:47:44Z</time></trkpt><trkpt lat="31.655189561778574" lon="-6.379577719021521"><ele>1928.0</ele><time>2026-05-04T12:47:45Z</time></trkpt><trkpt lat="31.655109698247653" lon="-6.379415875385942"><ele>1932.0</ele><time>2026-05-04T12:47:46Z</time></trkpt><trkpt lat="31.655031662325193" lon="-6.379245364407112"><ele>1936.0</ele><time>2026-05-04T12:47:47Z</time></trkpt><trkpt lat="31.654931143343067" lon="-6.379099114863047"><ele>1936.0</ele><time>2026-05-04T12:47:48Z</time></trkpt><trkpt lat="31.654833224827" lon="-6.3789487548439485"><ele>1936.0</ele><time>2026-05-04T12:47:49Z</time></trkpt><trkpt lat="31.654734734351294" lon="-6.3787995815863265"><ele>1936.0</ele><time>2026-05-04T12:47:50Z</time></trkpt><trkpt lat="31.65463638129056" lon="-6.378652381438004"><ele>1935.3333333333335</ele><time>2026-05-04T12:47:51Z</time></trkpt><trkpt lat="31.654536361182554" lon="-6.378504930746265"><ele>1934.6666666666665</ele><time>2026-05-04T12:47:52Z</time></trkpt><trkpt lat="31.654439431693312" lon="-6.3783623580815565"><ele>1934.0</ele><time>2026-05-04T12:47:53Z</time></trkpt><trkpt lat="31.65433949264047" lon="-6.378219542165044"><ele>1940.0</ele><time>2026-05-04T12:47:54Z</time></trkpt><trkpt lat="31.654245605485496" lon="-6.37807890599725"><ele>1946.0</ele><time>2026-05-04T12:47:55Z</time></trkpt><trkpt lat="31.654157188640966" lon="-6.377936059385503"><ele>1952.0</ele><time>2026-05-04T12:47:56Z</time></trkpt><trkpt lat="31.65406298303627" lon="-6.377792329741778"><ele>1952.0</ele><time>2026-05-04T12:47:57Z</time></trkpt><trkpt lat="31.653966828844595" lon="-6.377655501263902"><ele>1952.0</ele><time>2026-05-04T12:47:58Z</time></trkpt><trkpt lat="31.653865251930554" lon="-6.377517653255368"><ele>1952.0</ele><time>2026-05-04T12:47:59Z</time></trkpt><trkpt lat="31.65376341525912" lon="-6.377383483679461"><ele>1952.0</ele><time>2026-05-04T12:48:00Z</time></trkpt><trkpt lat="31.653660860046536" lon="-6.377241087767708"><ele>1952.0</ele><time>2026-05-04T12:48:01Z</time></trkpt><trkpt lat="31.653564926711727" lon="-6.377093085756767"><ele>1952.0</ele><time>2026-05-04T12:48:02Z</time></trkpt><trkpt lat="31.653468447539424" lon="-6.376943619708134"><ele>1954.6666666666665</ele><time>2026-05-04T12:48:03Z</time></trkpt><trkpt lat="31.653369145777287" lon="-6.3768025752445645"><ele>1957.3333333333335</ele><time>2026-05-04T12:48:04Z</time></trkpt><trkpt lat="31.653273574861487" lon="-6.376667144972209"><ele>1960.0</ele><time>2026-05-04T12:48:05Z</time></trkpt><trkpt lat="31.653182524180927" lon="-6.376535510860474"><ele>1960.0</ele><time>2026-05-04T12:48:06Z</time></trkpt><trkpt lat="31.653091343261178" lon="-6.37641608230171"><ele>1960.0</ele><time>2026-05-04T12:48:07Z</time></trkpt><trkpt lat="31.653013953677796" lon="-6.376307625381884"><ele>1960.0</ele><time>2026-05-04T12:48:08Z</time></trkpt><trkpt lat="31.652944717940027" lon="-6.376200668997581"><ele>1960.0</ele><time>2026-05-04T12:48:09Z</time></trkpt><trkpt lat="31.652894540822043" lon="-6.376093995051115"><ele>1961.25</ele><time>2026-05-04T12:48:10Z</time></trkpt><trkpt lat="31.652875932858045" lon="-6.3759788821711165"><ele>1962.5</ele><time>2026-05-04T12:48:11Z</time></trkpt><trkpt lat="31.6528620705916" lon="-6.375866761917321"><ele>1963.75</ele><time>2026-05-04T12:48:12Z</time></trkpt><trkpt lat="31.65295575827479" lon="-6.3756544118177345"><ele>1965.0</ele><time>2026-05-04T12:48:13Z</time></trkpt><trkpt lat="31.652969122187173" lon="-6.37550870509649"><ele>1967.0</ele><time>2026-05-04T12:48:14Z</time></trkpt><trkpt lat="31.652998729047436" lon="-6.375369765783766"><ele>1969.0</ele><time>2026-05-04T12:48:15Z</time></trkpt><trkpt lat="31.653045830356927" lon="-6.375238496405263"><ele>1971.0</ele><time>2026-05-04T12:48:16Z</time></trkpt><trkpt lat="31.653106338320743" lon="-6.375114636761772"><ele>1973.0</ele><time>2026-05-04T12:48:17Z</time></trkpt><trkpt lat="31.653178524927046" lon="-6.374998676312292"><ele>1973.0</ele><time>2026-05-04T12:48:18Z</time></trkpt><trkpt lat="31.653278165469896" lon="-6.374905553397591"><ele>1973.0</ele><time>2026-05-04T12:48:19Z</time></trkpt><trkpt lat="31.653402101219022" lon="-6.3748422493127865"><ele>1973.0</ele><time>2026-05-04T12:48:19.999Z</time></trkpt><trkpt lat="31.65353198136118" lon="-6.374788368996648"><ele>1973.0</ele><time>2026-05-04T12:48:20.999Z</time></trkpt><trkpt lat="31.653656622479144" lon="-6.374723946991199"><ele>1975.0</ele><time>2026-05-04T12:48:21.999Z</time></trkpt><trkpt lat="31.653772659790715" lon="-6.3746408859675725"><ele>1977.0</ele><time>2026-05-04T12:48:22.999Z</time></trkpt><trkpt lat="31.653889337995384" lon="-6.374541497916046"><ele>1979.0</ele><time>2026-05-04T12:48:23.999Z</time></trkpt><trkpt lat="31.654006076821155" lon="-6.37443878565507"><ele>1981.0</ele><time>2026-05-04T12:48:24.999Z</time></trkpt><trkpt lat="31.65413441576083" lon="-6.374363560959713"><ele>1981.0</ele><time>2026-05-04T12:48:25.999Z</time></trkpt><trkpt lat="31.65425907473418" lon="-6.374285933835877"><ele>1981.0</ele><time>2026-05-04T12:48:26.999Z</time></trkpt><trkpt lat="31.654364973249848" lon="-6.374179121733868"><ele>1981.0</ele><time>2026-05-04T12:48:27.999Z</time></trkpt><trkpt lat="31.65443996150174" lon="-6.374062107194744"><ele>1981.0</ele><time>2026-05-04T12:48:28.999Z</time></trkpt><trkpt lat="31.654498625867497" lon="-6.373927198197022"><ele>1980.0</ele><time>2026-05-04T12:48:29.999Z</time></trkpt><trkpt lat="31.654542303046938" lon="-6.373775822275814"><ele>1979.0</ele><time>2026-05-04T12:48:30.999Z</time></trkpt><trkpt lat="31.654570151445082" lon="-6.373622952266787"><ele>1978.0</ele><time>2026-05-04T12:48:31.999Z</time></trkpt><trkpt lat="31.654601248319494" lon="-6.373491764687243"><ele>1977.0</ele><time>2026-05-04T12:48:32.999Z</time></trkpt><trkpt lat="31.654653054590526" lon="-6.373380219432908"><ele>1977.0</ele><time>2026-05-04T12:48:33.999Z</time></trkpt><trkpt lat="31.654725786361706" lon="-6.373291123986651"><ele>1977.0</ele><time>2026-05-04T12:48:34.999Z</time></trkpt><trkpt lat="31.654829581441096" lon="-6.373224091957927"><ele>1977.0</ele><time>2026-05-04T12:48:35.999Z</time></trkpt><trkpt lat="31.65495525303562" lon="-6.373168780966169"><ele>1977.0</ele><time>2026-05-04T12:48:36.999Z</time></trkpt><trkpt lat="31.655087500028255" lon="-6.37311770810278"><ele>1977.0</ele><time>2026-05-04T12:48:37.999Z</time></trkpt><trkpt lat="31.655218090318225" lon="-6.373074109931348"><ele>1977.0</ele><time>2026-05-04T12:48:38.999Z</time></trkpt><trkpt lat="31.655360035794796" lon="-6.37306121510081"><ele>1977.0</ele><time>2026-05-04T12:48:39.999Z</time></trkpt><trkpt lat="31.65550340147787" lon="-6.373069636842351"><ele>1977.0</ele><time>2026-05-04T12:48:40.999Z</time></trkpt><trkpt lat="31.655642527300742" lon="-6.3730638768832275"><ele>1979.0</ele><time>2026-05-04T12:48:41.999Z</time></trkpt><trkpt lat="31.655779378900366" lon="-6.373028523754239"><ele>1981.0</ele><time>2026-05-04T12:48:42.999Z</time></trkpt><trkpt lat="31.655913620912237" lon="-6.37296725760835"><ele>1983.0</ele><time>2026-05-04T12:48:43.999Z</time></trkpt><trkpt lat="31.65604974987892" lon="-6.372918754947953"><ele>1985.0</ele><time>2026-05-04T12:48:44.999Z</time></trkpt><trkpt lat="31.656188149217655" lon="-6.3728645030279765"><ele>1988.25</ele><time>2026-05-04T12:48:45.999Z</time></trkpt><trkpt lat="31.656321958351146" lon="-6.372829214280564"><ele>1991.5</ele><time>2026-05-04T12:48:46.999Z</time></trkpt><trkpt lat="31.65643027813595" lon="-6.3727582308939095"><ele>1994.75</ele><time>2026-05-04T12:48:47.999Z</time></trkpt><trkpt lat="31.656529616633648" lon="-6.372707500881817"><ele>1998.0</ele><time>2026-05-04T12:48:48.999Z</time></trkpt><trkpt lat="31.65660162892972" lon="-6.372647211771524"><ele>1998.0</ele><time>2026-05-04T12:48:49.999Z</time></trkpt><trkpt lat="31.656646270794184" lon="-6.37258558576141"><ele>1998.0000000000002</ele><time>2026-05-04T12:48:50.999Z</time></trkpt><trkpt lat="31.656692639729886" lon="-6.372502768457907"><ele>1998.0000000000002</ele><time>2026-05-04T12:48:51.999Z</time></trkpt><trkpt lat="31.656743198354516" lon="-6.372385894597964"><ele>1998.0</ele><time>2026-05-04T12:48:52.999Z</time></trkpt><trkpt lat="31.65678101437501" lon="-6.372241210348033"><ele>1998.0</ele><time>2026-05-04T12:48:53.999Z</time></trkpt><trkpt lat="31.656834527691835" lon="-6.372096803369953"><ele>1995.25</ele><time>2026-05-04T12:48:54.999Z</time></trkpt><trkpt lat="31.656899754703268" lon="-6.371957192448493"><ele>1992.5</ele><time>2026-05-04T12:48:55.999Z</time></trkpt><trkpt lat="31.656983281011556" lon="-6.371825328005266"><ele>1989.75</ele><time>2026-05-04T12:48:56.999Z</time></trkpt><trkpt lat="31.65704017097265" lon="-6.371681182110581"><ele>1987.0</ele><time>2026-05-04T12:48:57.999Z</time></trkpt><trkpt lat="31.657113016276227" lon="-6.371546223043315"><ele>1987.0</ele><time>2026-05-04T12:48:58.999Z</time></trkpt><trkpt lat="31.65712490717027" lon="-6.371388379228906"><ele>1987.0</ele><time>2026-05-04T12:48:59.999Z</time></trkpt><trkpt lat="31.657164156560086" lon="-6.371233505767685"><ele>1987.0</ele><time>2026-05-04T12:49:00.999Z</time></trkpt><trkpt lat="31.65714831585545" lon="-6.371086953175985"><ele>1987.0</ele><time>2026-05-04T12:49:01.999Z</time></trkpt><trkpt lat="31.65714221340261" lon="-6.3709530402595655"><ele>1988.3999999999999</ele><time>2026-05-04T12:49:02.999Z</time></trkpt><trkpt lat="31.657142720409762" lon="-6.370834011956005"><ele>1989.7999999999997</ele><time>2026-05-04T12:49:03.999Z</time></trkpt><trkpt lat="31.657163065649605" lon="-6.370740244482904"><ele>1991.2</ele><time>2026-05-04T12:49:04.999Z</time></trkpt><trkpt lat="31.657183683580012" lon="-6.37066922731919"><ele>1992.6</ele><time>2026-05-04T12:49:05.999Z</time></trkpt><trkpt lat="31.65717056912704" lon="-6.370544040657961"><ele>1994.0</ele><time>2026-05-04T12:49:07.999Z</time></trkpt><trkpt lat="31.65708006842577" lon="-6.3705022724805"><ele>1994.2</ele><time>2026-05-04T12:49:09.999Z</time></trkpt><trkpt lat="31.657047582069577" lon="-6.370629728749808"><ele>1994.4</ele><time>2026-05-04T12:49:10.999Z</time></trkpt><trkpt lat="31.65698991144893" lon="-6.3707066994093156"><ele>1994.6</ele><time>2026-05-04T12:49:11.999Z</time></trkpt><trkpt lat="31.656925094860245" lon="-6.370793081348939"><ele>1994.8</ele><time>2026-05-04T12:49:12.999Z</time></trkpt><trkpt lat="31.656851060895754" lon="-6.370891500432564"><ele>1995.0</ele><time>2026-05-04T12:49:13.999Z</time></trkpt><trkpt lat="31.656777671695988" lon="-6.370989767331011"><ele>2000.25</ele><time>2026-05-04T12:49:14.999Z</time></trkpt><trkpt lat="31.656688015803475" lon="-6.371081599792419"><ele>2005.5</ele><time>2026-05-04T12:49:15.999Z</time></trkpt><trkpt lat="31.656598240477056" lon="-6.371193527638992"><ele>2010.75</ele><time>2026-05-04T12:49:16.999Z</time></trkpt><trkpt lat="31.656497071784617" lon="-6.371299981241744"><ele>2016.0</ele><time>2026-05-04T12:49:17.999Z</time></trkpt><trkpt lat="31.6563905523432" lon="-6.371395281198413"><ele>2016.0</ele><time>2026-05-04T12:49:18.999Z</time></trkpt><trkpt lat="31.656290631311585" lon="-6.371512954681728"><ele>2016.0</ele><time>2026-05-04T12:49:19.999Z</time></trkpt><trkpt lat="31.65617880262121" lon="-6.371594890701289"><ele>2016.0</ele><time>2026-05-04T12:49:20.999Z</time></trkpt><trkpt lat="31.65608643310544" lon="-6.3716789024208635"><ele>2016.0</ele><time>2026-05-04T12:49:21.999Z</time></trkpt><trkpt lat="31.655980825046708" lon="-6.371729115685553"><ele>2019.5</ele><time>2026-05-04T12:49:22.999Z</time></trkpt><trkpt lat="31.655860150099976" lon="-6.371748347710617"><ele>2023.0</ele><time>2026-05-04T12:49:23.999Z</time></trkpt><trkpt lat="31.65573373371489" lon="-6.371757071268902"><ele>2026.5</ele><time>2026-05-04T12:49:24.999Z</time></trkpt><trkpt lat="31.65560397579302" lon="-6.371751186265581"><ele>2030.0</ele><time>2026-05-04T12:49:25.999Z</time></trkpt><trkpt lat="31.655472061904057" lon="-6.371731909874734"><ele>2030.0</ele><time>2026-05-04T12:49:26.999Z</time></trkpt><trkpt lat="31.655332934667094" lon="-6.3717303953532465"><ele>2030.0</ele><time>2026-05-04T12:49:27.999Z</time></trkpt><trkpt lat="31.655196841337826" lon="-6.371724492129772"><ele>2030.0</ele><time>2026-05-04T12:49:28.999Z</time></trkpt><trkpt lat="31.655066659581824" lon="-6.371762677449403"><ele>2030.0</ele><time>2026-05-04T12:49:29.999Z</time></trkpt><trkpt lat="31.654920119752102" lon="-6.371796484244477"><ele>2033.6666666666665</ele><time>2026-05-04T12:49:31Z</time></trkpt><trkpt lat="31.654769598626952" lon="-6.371813506602109"><ele>2037.3333333333335</ele><time>2026-05-04T12:49:32Z</time></trkpt><trkpt lat="31.654614716911144" lon="-6.371846496513479"><ele>2041.0</ele><time>2026-05-04T12:49:33Z</time></trkpt><trkpt lat="31.654458651750865" lon="-6.371878459494646"><ele>2044.3333333333335</ele><time>2026-05-04T12:49:34Z</time></trkpt><trkpt lat="31.65429755961578" lon="-6.371842662837608"><ele>2047.6666666666665</ele><time>2026-05-04T12:49:35Z</time></trkpt><trkpt lat="31.65413811390607" lon="-6.371806843821234"><ele>2051.0</ele><time>2026-05-04T12:49:36Z</time></trkpt><trkpt lat="31.653975389180207" lon="-6.371782043842243"><ele>2051.0</ele><time>2026-05-04T12:49:37Z</time></trkpt><trkpt lat="31.65382199826289" lon="-6.371743490731287"><ele>2051.0</ele><time>2026-05-04T12:49:38Z</time></trkpt><trkpt lat="31.653666353265745" lon="-6.371706323440627"><ele>2051.0</ele><time>2026-05-04T12:49:39Z</time></trkpt><trkpt lat="31.653517832737766" lon="-6.371642219189665"><ele>2051.75</ele><time>2026-05-04T12:49:40Z</time></trkpt><trkpt lat="31.65338173175659" lon="-6.37158641053412"><ele>2052.5</ele><time>2026-05-04T12:49:41Z</time></trkpt><trkpt lat="31.65325172709374" lon="-6.3715297636138555"><ele>2053.25</ele><time>2026-05-04T12:49:42Z</time></trkpt><trkpt lat="31.65314671382627" lon="-6.371483491822293"><ele>2054.0</ele><time>2026-05-04T12:49:43Z</time></trkpt><trkpt lat="31.65306465398557" lon="-6.3714367324936525"><ele>2060.2</ele><time>2026-05-04T12:49:45Z</time></trkpt><trkpt lat="31.653062392341837" lon="-6.371334131038519"><ele>2066.4</ele><time>2026-05-04T12:49:47Z</time></trkpt><trkpt lat="31.653176594457907" lon="-6.371287167339935"><ele>2072.6</ele><time>2026-05-04T12:49:49Z</time></trkpt><trkpt lat="31.65326319705485" lon="-6.371268900555043"><ele>2078.8</ele><time>2026-05-04T12:49:50Z</time></trkpt><trkpt lat="31.65336733718311" lon="-6.371268900558434"><ele>2085.0</ele><time>2026-05-04T12:49:51Z</time></trkpt><trkpt lat="31.653469860720655" lon="-6.371268728593662"><ele>2085.0</ele><time>2026-05-04T12:49:52Z</time></trkpt><trkpt lat="31.65357881314913" lon="-6.371267500567324"><ele>2085.0</ele><time>2026-05-04T12:49:53Z</time></trkpt><trkpt lat="31.65369425681862" lon="-6.371255747891152"><ele>2085.0</ele><time>2026-05-04T12:49:54Z</time></trkpt><trkpt lat="31.653811723613543" lon="-6.371229099244101"><ele>2085.0</ele><time>2026-05-04T12:49:55Z</time></trkpt><trkpt lat="31.653935204620982" lon="-6.371188632506404"><ele>2081.75</ele><time>2026-05-04T12:49:56Z</time></trkpt><trkpt lat="31.654053584540836" lon="-6.371148424544911"><ele>2078.5</ele><time>2026-05-04T12:49:57Z</time></trkpt><trkpt lat="31.654162200786352" lon="-6.371074942342574"><ele>2075.25</ele><time>2026-05-04T12:49:58Z</time></trkpt><trkpt lat="31.654255930385954" lon="-6.370995912978154"><ele>2072.0</ele><time>2026-05-04T12:49:59Z</time></trkpt><trkpt lat="31.654339563140073" lon="-6.370904848567149"><ele>2072.0</ele><time>2026-05-04T12:50:00Z</time></trkpt><trkpt lat="31.654402694735783" lon="-6.370789828388954"><ele>2072.0</ele><time>2026-05-04T12:50:01Z</time></trkpt><trkpt lat="31.65444596920367" lon="-6.370654281769009"><ele>2072.0</ele><time>2026-05-04T12:50:02Z</time></trkpt><trkpt lat="31.654477744292855" lon="-6.370509720272261"><ele>2072.0</ele><time>2026-05-04T12:50:03Z</time></trkpt><trkpt lat="31.65451670202312" lon="-6.370368385971604"><ele>2071.5</ele><time>2026-05-04T12:50:04Z</time></trkpt><trkpt lat="31.654563536935306" lon="-6.370229388506626"><ele>2071.0</ele><time>2026-05-04T12:50:05Z</time></trkpt><trkpt lat="31.654606953178344" lon="-6.370087480008465"><ele>2070.5</ele><time>2026-05-04T12:50:06Z</time></trkpt><trkpt lat="31.654633463138808" lon="-6.369937334768004"><ele>2070.0</ele><time>2026-05-04T12:50:07Z</time></trkpt><trkpt lat="31.6546485332811" lon="-6.369779623744013"><ele>2071.0</ele><time>2026-05-04T12:50:08Z</time></trkpt><trkpt lat="31.654652241851707" lon="-6.369636152683018"><ele>2072.0</ele><time>2026-05-04T12:50:09Z</time></trkpt><trkpt lat="31.654637718668052" lon="-6.369512219085571"><ele>2073.0</ele><time>2026-05-04T12:50:10Z</time></trkpt><trkpt lat="31.65458964747154" lon="-6.369391847590126"><ele>2074.0</ele><time>2026-05-04T12:50:11Z</time></trkpt><trkpt lat="31.654512615795838" lon="-6.369274157229903"><ele>2076.25</ele><time>2026-05-04T12:50:12Z</time></trkpt><trkpt lat="31.6544275143829" lon="-6.369152173655328"><ele>2078.5</ele><time>2026-05-04T12:50:13Z</time></trkpt><trkpt lat="31.654339005559653" lon="-6.369020134146529"><ele>2080.75</ele><time>2026-05-04T12:50:14Z</time></trkpt><trkpt lat="31.65424233100258" lon="-6.368882382726353"><ele>2083.0</ele><time>2026-05-04T12:50:15Z</time></trkpt><trkpt lat="31.65413749735214" lon="-6.368740304882074"><ele>2084.0</ele><time>2026-05-04T12:50:16Z</time></trkpt><trkpt lat="31.654028303133448" lon="-6.368594102916441"><ele>2085.0</ele><time>2026-05-04T12:50:17Z</time></trkpt><trkpt lat="31.6539196822733" lon="-6.3684489799962"><ele>2086.0</ele><time>2026-05-04T12:50:18Z</time></trkpt><trkpt lat="31.653816968092745" lon="-6.3683079762934165"><ele>2086.0</ele><time>2026-05-04T12:50:19Z</time></trkpt><trkpt lat="31.653716166805236" lon="-6.368156422592314"><ele>2086.0</ele><time>2026-05-04T12:50:20Z</time></trkpt><trkpt lat="31.653624482584082" lon="-6.3680033101590405"><ele>2086.0</ele><time>2026-05-04T12:50:21Z</time></trkpt><trkpt lat="31.653535766106973" lon="-6.367850881100285"><ele>2089.0</ele><time>2026-05-04T12:50:22Z</time></trkpt><trkpt lat="31.65342787810135" lon="-6.36770582812558"><ele>2092.0</ele><time>2026-05-04T12:50:23Z</time></trkpt><trkpt lat="31.653295277718062" lon="-6.367575024729975"><ele>2095.0</ele><time>2026-05-04T12:50:24Z</time></trkpt><trkpt lat="31.65314584370652" lon="-6.367460221919435"><ele>2095.0</ele><time>2026-05-04T12:50:25Z</time></trkpt><trkpt lat="31.65299330464883" lon="-6.367354836841347"><ele>2095.0</ele><time>2026-05-04T12:50:26Z</time></trkpt><trkpt lat="31.652856690019174" lon="-6.367250192607258"><ele>2095.0</ele><time>2026-05-04T12:50:27Z</time></trkpt><trkpt lat="31.652747167332073" lon="-6.367167643754065"><ele>2097.2</ele><time>2026-05-04T12:50:28Z</time></trkpt><trkpt lat="31.652668189428233" lon="-6.367120118882418"><ele>2099.4</ele><time>2026-05-04T12:50:29Z</time></trkpt><trkpt lat="31.65258289919319" lon="-6.367081521510811"><ele>2101.6</ele><time>2026-05-04T12:50:30Z</time></trkpt><trkpt lat="31.652479465897606" lon="-6.367051561719038"><ele>2103.8</ele><time>2026-05-04T12:50:31Z</time></trkpt><trkpt lat="31.65236335404069" lon="-6.367080513668043"><ele>2106.0</ele><time>2026-05-04T12:50:32Z</time></trkpt><trkpt lat="31.652238606489746" lon="-6.3670904499702745"><ele>2106.0</ele><time>2026-05-04T12:50:33Z</time></trkpt><trkpt lat="31.652109945902083" lon="-6.367099089264459"><ele>2106.0</ele><time>2026-05-04T12:50:34Z</time></trkpt><trkpt lat="31.65197334559464" lon="-6.367107522884308"><ele>2106.0</ele><time>2026-05-04T12:50:34.999Z</time></trkpt><trkpt lat="31.651830756684767" lon="-6.367115323210661"><ele>2106.0</ele><time>2026-05-04T12:50:35.999Z</time></trkpt><trkpt lat="31.651682700527097" lon="-6.367123422622742"><ele>2108.75</ele><time>2026-05-04T12:50:36.999Z</time></trkpt><trkpt lat="31.65153281882013" lon="-6.367131678341551"><ele>2111.5</ele><time>2026-05-04T12:50:37.999Z</time></trkpt><trkpt lat="31.651384805780467" lon="-6.367140610728012"><ele>2114.25</ele><time>2026-05-04T12:50:38.999Z</time></trkpt><trkpt lat="31.651241716128183" lon="-6.367134967381322"><ele>2117.0</ele><time>2026-05-04T12:50:39.999Z</time></trkpt><trkpt lat="31.651112075365468" lon="-6.367153788271223"><ele>2120.25</ele><time>2026-05-04T12:50:40.999Z</time></trkpt><trkpt lat="31.650995420202424" lon="-6.367160673771824"><ele>2123.5</ele><time>2026-05-04T12:50:41.999Z</time></trkpt><trkpt lat="31.650874825405985" lon="-6.3671651243619385"><ele>2126.75</ele><time>2026-05-04T12:50:42.999Z</time></trkpt><trkpt lat="31.65075385078405" lon="-6.367161243724241"><ele>2130.0</ele><time>2026-05-04T12:50:43.999Z</time></trkpt><trkpt lat="31.65063427189641" lon="-6.367135048443022"><ele>2130.0</ele><time>2026-05-04T12:50:44.999Z</time></trkpt><trkpt lat="31.650530204925428" lon="-6.367080517198235"><ele>2130.0</ele><time>2026-05-04T12:50:45.999Z</time></trkpt><trkpt lat="31.650448341007202" lon="-6.3669953770348275"><ele>2130.0</ele><time>2026-05-04T12:50:46.999Z</time></trkpt><trkpt lat="31.65039035073916" lon="-6.366889044398387"><ele>2130.0</ele><time>2026-05-04T12:50:47.999Z</time></trkpt><trkpt lat="31.650349822265095" lon="-6.366783273149358"><ele>2130.0</ele><time>2026-05-04T12:50:48.999Z</time></trkpt><trkpt lat="31.650344532637774" lon="-6.366672538456104"><ele>2130.0</ele><time>2026-05-04T12:50:49.999Z</time></trkpt><trkpt lat="31.650368548282966" lon="-6.3665589060927745"><ele>2130.0</ele><time>2026-05-04T12:50:50.999Z</time></trkpt><trkpt lat="31.650422227666834" lon="-6.366454015412331"><ele>2130.0</ele><time>2026-05-04T12:50:51.999Z</time></trkpt><trkpt lat="31.650502267054108" lon="-6.366372022321754"><ele>2130.0</ele><time>2026-05-04T12:50:52.999Z</time></trkpt><trkpt lat="31.650602600424527" lon="-6.366303184430394"><ele>2130.0</ele><time>2026-05-04T12:50:53.999Z</time></trkpt><trkpt lat="31.65070951255663" lon="-6.366234975576039"><ele>2133.0</ele><time>2026-05-04T12:50:54.999Z</time></trkpt><trkpt lat="31.650798898970134" lon="-6.366134909288202"><ele>2136.0</ele><time>2026-05-04T12:50:55.999Z</time></trkpt><trkpt lat="31.650900028805278" lon="-6.3660468599458655"><ele>2139.0</ele><time>2026-05-04T12:50:56.999Z</time></trkpt><trkpt lat="31.650961382603334" lon="-6.365936389427861"><ele>2142.0</ele><time>2026-05-04T12:50:57.999Z</time></trkpt><trkpt lat="31.651004485516747" lon="-6.365850393292622"><ele>2145.0</ele><time>2026-05-04T12:50:58.999Z</time></trkpt><trkpt lat="31.651034881624664" lon="-6.365733221732497"><ele>2145.0</ele><time>2026-05-04T12:51:00.999Z</time></trkpt><trkpt lat="31.65094960298079" lon="-6.36565559649298"><ele>2145.0</ele><time>2026-05-04T12:51:02.999Z</time></trkpt><trkpt lat="31.65088517420182" lon="-6.365664371450415"><ele>2145.0</ele><time>2026-05-04T12:51:03.999Z</time></trkpt><trkpt lat="31.65082534681578" lon="-6.365739882521703"><ele>2145.0</ele><time>2026-05-04T12:51:04.999Z</time></trkpt><trkpt lat="31.650733671367323" lon="-6.365758224643181"><ele>2145.0</ele><time>2026-05-04T12:51:05.999Z</time></trkpt><trkpt lat="31.650622806029833" lon="-6.365766473838616"><ele>2145.0</ele><time>2026-05-04T12:51:06.999Z</time></trkpt><trkpt lat="31.65050977661636" lon="-6.365787656734973"><ele>2145.0</ele><time>2026-05-04T12:51:07.999Z</time></trkpt><trkpt lat="31.65038403204744" lon="-6.365798982888538"><ele>2145.0</ele><time>2026-05-04T12:51:08.999Z</time></trkpt><trkpt lat="31.650251618509223" lon="-6.365809002741328"><ele>2145.0</ele><time>2026-05-04T12:51:09.999Z</time></trkpt><trkpt lat="31.650132291530092" lon="-6.3658383767194655"><ele>2147.2</ele><time>2026-05-04T12:51:10.999Z</time></trkpt><trkpt lat="31.650027476455303" lon="-6.365863079912806"><ele>2149.4</ele><time>2026-05-04T12:51:11.999Z</time></trkpt><trkpt lat="31.649941268606838" lon="-6.365916132552886"><ele>2151.6</ele><time>2026-05-04T12:51:12.999Z</time></trkpt><trkpt lat="31.649863675134267" lon="-6.365999446846325"><ele>2153.8</ele><time>2026-05-04T12:51:13.999Z</time></trkpt><trkpt lat="31.649849198499123" lon="-6.366118706676973"><ele>2156.0</ele><time>2026-05-04T12:51:14.999Z</time></trkpt><trkpt lat="31.649814126736537" lon="-6.36623309229743"><ele>2153.0</ele><time>2026-05-04T12:51:15.999Z</time></trkpt><trkpt lat="31.64977031887874" lon="-6.366365019379261"><ele>2150.0</ele><time>2026-05-04T12:51:16.999Z</time></trkpt><trkpt lat="31.649708401329914" lon="-6.366504888345842"><ele>2147.0</ele><time>2026-05-04T12:51:17.999Z</time></trkpt><trkpt lat="31.64961810260891" lon="-6.366630531577824"><ele>2144.0</ele><time>2026-05-04T12:51:18.999Z</time></trkpt><trkpt lat="31.649533621979504" lon="-6.366743234020324"><ele>2149.5</ele><time>2026-05-04T12:51:19.999Z</time></trkpt><trkpt lat="31.649455437346532" lon="-6.3668648890738675"><ele>2155.0</ele><time>2026-05-04T12:51:20.999Z</time></trkpt><trkpt lat="31.64938061292149" lon="-6.367002617286625"><ele>2160.5</ele><time>2026-05-04T12:51:21.999Z</time></trkpt><trkpt lat="31.64930389069987" lon="-6.367153685800742"><ele>2166.0</ele><time>2026-05-04T12:51:22.999Z</time></trkpt><trkpt lat="31.649215603548495" lon="-6.367306189948563"><ele>2166.0</ele><time>2026-05-04T12:51:23.999Z</time></trkpt><trkpt lat="31.649120221220326" lon="-6.36744669930406"><ele>2166.0</ele><time>2026-05-04T12:51:24.999Z</time></trkpt><trkpt lat="31.649025667707267" lon="-6.367584866447794"><ele>2166.0</ele><time>2026-05-04T12:51:25.999Z</time></trkpt><trkpt lat="31.648937496250362" lon="-6.367720049493158"><ele>2166.0</ele><time>2026-05-04T12:51:26.999Z</time></trkpt><trkpt lat="31.648858627450743" lon="-6.367841644813689"><ele>2166.0</ele><time>2026-05-04T12:51:27.999Z</time></trkpt><trkpt lat="31.64879011984091" lon="-6.367956824272875"><ele>2166.0</ele><time>2026-05-04T12:51:28.999Z</time></trkpt><trkpt lat="31.648727873812557" lon="-6.368053734576018"><ele>2166.0</ele><time>2026-05-04T12:51:29.999Z</time></trkpt><trkpt lat="31.64862839852592" lon="-6.368105313189743"><ele>2166.0</ele><time>2026-05-04T12:51:30.999Z</time></trkpt><trkpt lat="31.648520353466" lon="-6.368154713506268"><ele>2166.0</ele><time>2026-05-04T12:51:31.999Z</time></trkpt><trkpt lat="31.64839375351165" lon="-6.368189900892637"><ele>2168.0</ele><time>2026-05-04T12:51:32.999Z</time></trkpt><trkpt lat="31.64826799191417" lon="-6.368226370910022"><ele>2170.0</ele><time>2026-05-04T12:51:33.999Z</time></trkpt><trkpt lat="31.648149664266256" lon="-6.3682727473408685"><ele>2172.0</ele><time>2026-05-04T12:51:34.999Z</time></trkpt><trkpt lat="31.64802698001699" lon="-6.3683262476936005"><ele>2174.0</ele><time>2026-05-04T12:51:35.999Z</time></trkpt><trkpt lat="31.647890585371293" lon="-6.3683584154317066"><ele>2177.0</ele><time>2026-05-04T12:51:37Z</time></trkpt><trkpt lat="31.647753099197516" lon="-6.368372334702427"><ele>2180.0</ele><time>2026-05-04T12:51:38Z</time></trkpt><trkpt lat="31.64761375246607" lon="-6.368386253860708"><ele>2183.0</ele><time>2026-05-04T12:51:39Z</time></trkpt><trkpt lat="31.647479700570912" lon="-6.368385379240731"><ele>2186.0</ele><time>2026-05-04T12:51:40Z</time></trkpt><trkpt lat="31.647358208004864" lon="-6.368368889050445"><ele>2186.0</ele><time>2026-05-04T12:51:41Z</time></trkpt><trkpt lat="31.647253413831763" lon="-6.368372367560561"><ele>2186.0</ele><time>2026-05-04T12:51:42Z</time></trkpt><trkpt lat="31.647171490573104" lon="-6.3683608018255695"><ele>2186.0</ele><time>2026-05-04T12:51:43Z</time></trkpt><trkpt lat="31.647109072512762" lon="-6.368327489216874"><ele>2186.0</ele><time>2026-05-04T12:51:44Z</time></trkpt><trkpt lat="31.647088479744184" lon="-6.368249328828489"><ele>2186.0</ele><time>2026-05-04T12:51:45Z</time></trkpt><trkpt lat="31.64713039007513" lon="-6.368111557622571"><ele>2186.0</ele><time>2026-05-04T12:51:47Z</time></trkpt><trkpt lat="31.647209802604902" lon="-6.368045424052332"><ele>2186.0</ele><time>2026-05-04T12:51:48Z</time></trkpt><trkpt lat="31.647297184504588" lon="-6.367982163782575"><ele>2186.0</ele><time>2026-05-04T12:51:49Z</time></trkpt><trkpt lat="31.647400225316602" lon="-6.367928033765172"><ele>2186.0</ele><time>2026-05-04T12:51:50Z</time></trkpt><trkpt lat="31.647483078902695" lon="-6.367833473731469"><ele>2186.0</ele><time>2026-05-04T12:51:51Z</time></trkpt><trkpt lat="31.647547682335922" lon="-6.367766441359718"><ele>2187.5</ele><time>2026-05-04T12:51:52Z</time></trkpt><trkpt lat="31.647639219145333" lon="-6.367666347558705"><ele>2189.0</ele><time>2026-05-04T12:51:53Z</time></trkpt><trkpt lat="31.6477205857169" lon="-6.367542682990381"><ele>2190.5</ele><time>2026-05-04T12:51:54Z</time></trkpt><trkpt lat="31.647785492573203" lon="-6.367396808216691"><ele>2192.0</ele><time>2026-05-04T12:51:55Z</time></trkpt><trkpt lat="31.647841470466265" lon="-6.367253955071471"><ele>2196.25</ele><time>2026-05-04T12:51:56Z</time></trkpt><trkpt lat="31.647892961950145" lon="-6.367104499601748"><ele>2200.5</ele><time>2026-05-04T12:51:57Z</time></trkpt><trkpt lat="31.64794538949637" lon="-6.366947809481288"><ele>2204.75</ele><time>2026-05-04T12:51:58Z</time></trkpt><trkpt lat="31.64800489618054" lon="-6.36678758670128"><ele>2209.0</ele><time>2026-05-04T12:51:59Z</time></trkpt><trkpt lat="31.64808206087651" lon="-6.366633632819867"><ele>2209.0</ele><time>2026-05-04T12:52:00Z</time></trkpt><trkpt lat="31.64813893177027" lon="-6.366469150336174"><ele>2209.0</ele><time>2026-05-04T12:52:01Z</time></trkpt><trkpt lat="31.648199095150648" lon="-6.366314557148419"><ele>2209.0</ele><time>2026-05-04T12:52:02Z</time></trkpt><trkpt lat="31.64825669725072" lon="-6.3661679231769135"><ele>2209.0</ele><time>2026-05-04T12:52:03Z</time></trkpt><trkpt lat="31.6482995311982" lon="-6.36601847264243"><ele>2212.0</ele><time>2026-05-04T12:52:04Z</time></trkpt><trkpt lat="31.648340542954575" lon="-6.3658505172959226"><ele>2215.0</ele><time>2026-05-04T12:52:05Z</time></trkpt><trkpt lat="31.64838429399445" lon="-6.365678947175976"><ele>2218.0</ele><time>2026-05-04T12:52:06Z</time></trkpt><trkpt lat="31.64841276079102" lon="-6.365519624698346"><ele>2221.0</ele><time>2026-05-04T12:52:07Z</time></trkpt><trkpt lat="31.64843728159777" lon="-6.365376953163386"><ele>2222.166666666667</ele><time>2026-05-04T12:52:08Z</time></trkpt><trkpt lat="31.648457039976535" lon="-6.365252489431951"><ele>2223.3333333333335</ele><time>2026-05-04T12:52:09Z</time></trkpt><trkpt lat="31.648466520340076" lon="-6.365146445313548"><ele>2224.5</ele><time>2026-05-04T12:52:10Z</time></trkpt><trkpt lat="31.648456723518468" lon="-6.365047387164704"><ele>2225.6666666666665</ele><time>2026-05-04T12:52:11Z</time></trkpt><trkpt lat="31.648424802693842" lon="-6.364959734694716"><ele>2226.833333333333</ele><time>2026-05-04T12:52:12Z</time></trkpt><trkpt lat="31.64835659589197" lon="-6.364907631970708"><ele>2228.0</ele><time>2026-05-04T12:52:13Z</time></trkpt><trkpt lat="31.648263696479013" lon="-6.364917975751854"><ele>2228.0</ele><time>2026-05-04T12:52:14Z</time></trkpt><trkpt lat="31.64818278033167" lon="-6.3649585282590415"><ele>2228.0</ele><time>2026-05-04T12:52:15Z</time></trkpt><trkpt lat="31.64812552500156" lon="-6.3650767698979"><ele>2228.0</ele><time>2026-05-04T12:52:16Z</time></trkpt><trkpt lat="31.64807023874044" lon="-6.3651754626235855"><ele>2228.0</ele><time>2026-05-04T12:52:17Z</time></trkpt><trkpt lat="31.64800428248673" lon="-6.365300441339142"><ele>2228.0</ele><time>2026-05-04T12:52:18Z</time></trkpt><trkpt lat="31.647932666353615" lon="-6.3654420747723375"><ele>2226.25</ele><time>2026-05-04T12:52:19Z</time></trkpt><trkpt lat="31.647859450674645" lon="-6.365586130059128"><ele>2224.5</ele><time>2026-05-04T12:52:20Z</time></trkpt><trkpt lat="31.647777969968036" lon="-6.365712144609086"><ele>2222.75</ele><time>2026-05-04T12:52:21Z</time></trkpt><trkpt lat="31.647710245277665" lon="-6.365839096503394"><ele>2221.0</ele><time>2026-05-04T12:52:22Z</time></trkpt><trkpt lat="31.647623584606848" lon="-6.365948367526998"><ele>2226.25</ele><time>2026-05-04T12:52:23Z</time></trkpt><trkpt lat="31.64752199230136" lon="-6.366037344668245"><ele>2231.5</ele><time>2026-05-04T12:52:24Z</time></trkpt><trkpt lat="31.6474121471759" lon="-6.366127266350007"><ele>2236.75</ele><time>2026-05-04T12:52:25Z</time></trkpt><trkpt lat="31.64729302599108" lon="-6.366215727386224"><ele>2242.0</ele><time>2026-05-04T12:52:26Z</time></trkpt><trkpt lat="31.647177104274054" lon="-6.366316630013808"><ele>2241.666666666667</ele><time>2026-05-04T12:52:27Z</time></trkpt><trkpt lat="31.647042401554984" lon="-6.366407073461068"><ele>2241.3333333333335</ele><time>2026-05-04T12:52:28Z</time></trkpt><trkpt lat="31.64689727978698" lon="-6.366473013073557"><ele>2241.0</ele><time>2026-05-04T12:52:29Z</time></trkpt><trkpt lat="31.646758876970807" lon="-6.366556614555219"><ele>2241.0</ele><time>2026-05-04T12:52:30Z</time></trkpt><trkpt lat="31.646625541763566" lon="-6.366636191509897"><ele>2241.0</ele><time>2026-05-04T12:52:31Z</time></trkpt><trkpt lat="31.64650457192909" lon="-6.366710607254987"><ele>2241.0</ele><time>2026-05-04T12:52:32Z</time></trkpt><trkpt lat="31.646396389324003" lon="-6.366778019236081"><ele>2241.0</ele><time>2026-05-04T12:52:33Z</time></trkpt><trkpt lat="31.64630136028272" lon="-6.366832921285447"><ele>2241.0</ele><time>2026-05-04T12:52:34Z</time></trkpt><trkpt lat="31.646218733448883" lon="-6.36685360457218"><ele>2241.0</ele><time>2026-05-04T12:52:35Z</time></trkpt><trkpt lat="31.646141194971246" lon="-6.366835764750515"><ele>2241.0</ele><time>2026-05-04T12:52:36Z</time></trkpt><trkpt lat="31.646065017511916" lon="-6.36680802255916"><ele>2241.0</ele><time>2026-05-04T12:52:37Z</time></trkpt><trkpt lat="31.645994808191723" lon="-6.366734610257153"><ele>2241.0</ele><time>2026-05-04T12:52:38Z</time></trkpt><trkpt lat="31.645950668316303" lon="-6.366622479642657"><ele>2241.0</ele><time>2026-05-04T12:52:39Z</time></trkpt><trkpt lat="31.645950776948798" lon="-6.366485151307983"><ele>2245.5</ele><time>2026-05-04T12:52:40Z</time></trkpt><trkpt lat="31.645957399571472" lon="-6.366352616228394"><ele>2250.0</ele><time>2026-05-04T12:52:41Z</time></trkpt><trkpt lat="31.645977031554335" lon="-6.366201676036216"><ele>2254.5</ele><time>2026-05-04T12:52:42Z</time></trkpt><trkpt lat="31.645992306852136" lon="-6.366044986729983"><ele>2259.0</ele><time>2026-05-04T12:52:43Z</time></trkpt><trkpt lat="31.64599939447809" lon="-6.365893769360254"><ele>2259.0</ele><time>2026-05-04T12:52:43.999Z</time></trkpt><trkpt lat="31.645994684038566" lon="-6.365755414489698"><ele>2259.0</ele><time>2026-05-04T12:52:44.999Z</time></trkpt><trkpt lat="31.645972416775827" lon="-6.365622091191022"><ele>2259.0</ele><time>2026-05-04T12:52:45.999Z</time></trkpt><trkpt lat="31.64592976450133" lon="-6.3655008220416445"><ele>2259.0</ele><time>2026-05-04T12:52:46.999Z</time></trkpt><trkpt lat="31.645872691785247" lon="-6.3653866331568265"><ele>2262.75</ele><time>2026-05-04T12:52:47.999Z</time></trkpt><trkpt lat="31.645803484447086" lon="-6.365263856154836"><ele>2266.5</ele><time>2026-05-04T12:52:48.999Z</time></trkpt><trkpt lat="31.645730084878753" lon="-6.365132871258485"><ele>2270.25</ele><time>2026-05-04T12:52:49.999Z</time></trkpt><trkpt lat="31.64565867881837" lon="-6.365007424875586"><ele>2274.0</ele><time>2026-05-04T12:52:50.999Z</time></trkpt><trkpt lat="31.645588219949637" lon="-6.364876944713595"><ele>2274.0</ele><time>2026-05-04T12:52:51.999Z</time></trkpt><trkpt lat="31.645520346654404" lon="-6.364742393917727"><ele>2274.0</ele><time>2026-05-04T12:52:52.999Z</time></trkpt><trkpt lat="31.645454324427824" lon="-6.364602235503086"><ele>2274.0</ele><time>2026-05-04T12:52:53.999Z</time></trkpt><trkpt lat="31.645392579121996" lon="-6.364458448522975"><ele>2274.0</ele><time>2026-05-04T12:52:54.999Z</time></trkpt><trkpt lat="31.645345245890137" lon="-6.364327559676078"><ele>2275.8</ele><time>2026-05-04T12:52:55.999Z</time></trkpt><trkpt lat="31.645306860680996" lon="-6.364215140469377"><ele>2277.6000000000004</ele><time>2026-05-04T12:52:56.999Z</time></trkpt><trkpt lat="31.645288498410466" lon="-6.364115252095361"><ele>2279.4</ele><time>2026-05-04T12:52:57.999Z</time></trkpt><trkpt lat="31.645301555792184" lon="-6.364006179624569"><ele>2281.2000000000003</ele><time>2026-05-04T12:52:58.999Z</time></trkpt><trkpt lat="31.645341445984194" lon="-6.363886579356308"><ele>2283.0</ele><time>2026-05-04T12:52:59.999Z</time></trkpt><trkpt lat="31.64540852714077" lon="-6.363754559725001"><ele>2284.0</ele><time>2026-05-04T12:53:00.999Z</time></trkpt><trkpt lat="31.64549385032473" lon="-6.363619356175734"><ele>2285.0</ele><time>2026-05-04T12:53:01.999Z</time></trkpt><trkpt lat="31.64558268949858" lon="-6.363488030383647"><ele>2286.0</ele><time>2026-05-04T12:53:02.999Z</time></trkpt><trkpt lat="31.645674802453154" lon="-6.363342686578993"><ele>2287.0</ele><time>2026-05-04T12:53:03.999Z</time></trkpt><trkpt lat="31.645769375934787" lon="-6.363187007296988"><ele>2289.3333333333335</ele><time>2026-05-04T12:53:04.999Z</time></trkpt><trkpt lat="31.64586431700755" lon="-6.36302779240845"><ele>2291.6666666666665</ele><time>2026-05-04T12:53:05.999Z</time></trkpt><trkpt lat="31.645957223020307" lon="-6.362862697189495"><ele>2294.0</ele><time>2026-05-04T12:53:06.999Z</time></trkpt><trkpt lat="31.64604775683816" lon="-6.3627051084505615"><ele>2290.333333333333</ele><time>2026-05-04T12:53:07.999Z</time></trkpt><trkpt lat="31.646138082476057" lon="-6.362547586425885"><ele>2286.6666666666665</ele><time>2026-05-04T12:53:08.999Z</time></trkpt><trkpt lat="31.64622668853075" lon="-6.362389757322478"><ele>2283.0</ele><time>2026-05-04T12:53:09.999Z</time></trkpt><trkpt lat="31.64631629819355" lon="-6.36223560331112"><ele>2286.3333333333335</ele><time>2026-05-04T12:53:10.999Z</time></trkpt><trkpt lat="31.64640787958297" lon="-6.362085252524097"><ele>2289.666666666667</ele><time>2026-05-04T12:53:11.999Z</time></trkpt><trkpt lat="31.646500398252964" lon="-6.361942331485413"><ele>2293.0</ele><time>2026-05-04T12:53:12.999Z</time></trkpt><trkpt lat="31.646592655186144" lon="-6.361806681777301"><ele>2293.0</ele><time>2026-05-04T12:53:13.999Z</time></trkpt><trkpt lat="31.646681316973275" lon="-6.361673861657764"><ele>2293.0</ele><time>2026-05-04T12:53:14.999Z</time></trkpt><trkpt lat="31.646765697315647" lon="-6.361542226595734"><ele>2293.0</ele><time>2026-05-04T12:53:15.999Z</time></trkpt><trkpt lat="31.646852540223815" lon="-6.361411908752995"><ele>2293.0</ele><time>2026-05-04T12:53:16.999Z</time></trkpt><trkpt lat="31.6469422759526" lon="-6.361281461513556"><ele>2295.0</ele><time>2026-05-04T12:53:17.999Z</time></trkpt><trkpt lat="31.647022999944262" lon="-6.361145191257543"><ele>2297.0</ele><time>2026-05-04T12:53:18.999Z</time></trkpt><trkpt lat="31.647133613069283" lon="-6.361031556064277"><ele>2299.0</ele><time>2026-05-04T12:53:19.999Z</time></trkpt><trkpt lat="31.64725296810388" lon="-6.360933105126484"><ele>2301.0</ele><time>2026-05-04T12:53:20.999Z</time></trkpt><trkpt lat="31.647376499213248" lon="-6.360838179791245"><ele>2301.0</ele><time>2026-05-04T12:53:21.999Z</time></trkpt><trkpt lat="31.647511746568792" lon="-6.360758522021137"><ele>2301.0</ele><time>2026-05-04T12:53:22.999Z</time></trkpt><trkpt lat="31.64765228060548" lon="-6.360712170395739"><ele>2301.0</ele><time>2026-05-04T12:53:23.999Z</time></trkpt><trkpt lat="31.647772462780196" lon="-6.360665326208004"><ele>2301.0</ele><time>2026-05-04T12:53:24.999Z</time></trkpt><trkpt lat="31.647882635839583" lon="-6.360643374530483"><ele>2300.6</ele><time>2026-05-04T12:53:25.999Z</time></trkpt><trkpt lat="31.647976114400635" lon="-6.360613725855401"><ele>2300.2</ele><time>2026-05-04T12:53:26.999Z</time></trkpt><trkpt lat="31.648052241601714" lon="-6.360576949905103"><ele>2299.8</ele><time>2026-05-04T12:53:27.999Z</time></trkpt><trkpt lat="31.648154732003384" lon="-6.360508049484687"><ele>2299.4</ele><time>2026-05-04T12:53:29.999Z</time></trkpt><trkpt lat="31.648114960989723" lon="-6.360410702286923"><ele>2299.0</ele><time>2026-05-04T12:53:31.999Z</time></trkpt><trkpt lat="31.64808899484088" lon="-6.360338823399058"><ele>2304.2</ele><time>2026-05-04T12:53:32.999Z</time></trkpt><trkpt lat="31.64802229333476" lon="-6.3602740017746155"><ele>2309.4</ele><time>2026-05-04T12:53:33.999Z</time></trkpt><trkpt lat="31.647921655004478" lon="-6.360230137199767"><ele>2314.6</ele><time>2026-05-04T12:53:34.999Z</time></trkpt><trkpt lat="31.647819416089906" lon="-6.360185000586186"><ele>2319.8</ele><time>2026-05-04T12:53:35.999Z</time></trkpt><trkpt lat="31.647723695069104" lon="-6.3601404745147185"><ele>2325.0</ele><time>2026-05-04T12:53:36.999Z</time></trkpt><trkpt lat="31.647615442114805" lon="-6.3601075380067424"><ele>2325.25</ele><time>2026-05-04T12:53:37.999Z</time></trkpt><trkpt lat="31.64748949372836" lon="-6.360134266379019"><ele>2325.5</ele><time>2026-05-04T12:53:38.999Z</time></trkpt><trkpt lat="31.64735271152292" lon="-6.360160468021575"><ele>2325.75</ele><time>2026-05-04T12:53:39.999Z</time></trkpt><trkpt lat="31.64721605362268" lon="-6.360172868920653"><ele>2326.0</ele><time>2026-05-04T12:53:40.999Z</time></trkpt><trkpt lat="31.647080045510148" lon="-6.360209287275219"><ele>2330.0</ele><time>2026-05-04T12:53:41.999Z</time></trkpt><trkpt lat="31.64693750815774" lon="-6.360246367449138"><ele>2334.0</ele><time>2026-05-04T12:53:43Z</time></trkpt><trkpt lat="31.646796142121453" lon="-6.360314153021404"><ele>2338.0</ele><time>2026-05-04T12:53:44Z</time></trkpt><trkpt lat="31.64664559225306" lon="-6.360347947318513"><ele>2338.0</ele><time>2026-05-04T12:53:45Z</time></trkpt><trkpt lat="31.646496185630756" lon="-6.360405396292989"><ele>2338.0</ele><time>2026-05-04T12:53:46Z</time></trkpt><trkpt lat="31.64635924768988" lon="-6.360483943272012"><ele>2338.0</ele><time>2026-05-04T12:53:47Z</time></trkpt><trkpt lat="31.64622440192979" lon="-6.3605469839531645"><ele>2336.0</ele><time>2026-05-04T12:53:48Z</time></trkpt><trkpt lat="31.646087805460084" lon="-6.360605618793937"><ele>2334.0</ele><time>2026-05-04T12:53:49Z</time></trkpt><trkpt lat="31.645948774267225" lon="-6.360656454371702"><ele>2332.0</ele><time>2026-05-04T12:53:50Z</time></trkpt><trkpt lat="31.64579552339881" lon="-6.360696466290306"><ele>2330.0</ele><time>2026-05-04T12:53:51Z</time></trkpt><trkpt lat="31.645645055460513" lon="-6.360732948755237"><ele>2330.0</ele><time>2026-05-04T12:53:52Z</time></trkpt><trkpt lat="31.6454887353701" lon="-6.360774245736083"><ele>2330.0</ele><time>2026-05-04T12:53:53Z</time></trkpt><trkpt lat="31.645333005877635" lon="-6.360815386709297"><ele>2330.0</ele><time>2026-05-04T12:53:54Z</time></trkpt><trkpt lat="31.645177418048497" lon="-6.360843771270056"><ele>2337.0</ele><time>2026-05-04T12:53:55Z</time></trkpt><trkpt lat="31.64503074262123" lon="-6.3609062990841485"><ele>2344.0</ele><time>2026-05-04T12:53:56Z</time></trkpt><trkpt lat="31.644889421120126" lon="-6.36096507573705"><ele>2351.0</ele><time>2026-05-04T12:53:57Z</time></trkpt><trkpt lat="31.64475190444002" lon="-6.361026342708669"><ele>2351.0</ele><time>2026-05-04T12:53:58Z</time></trkpt><trkpt lat="31.64461892825192" lon="-6.361099252055424"><ele>2351.0</ele><time>2026-05-04T12:53:59Z</time></trkpt><trkpt lat="31.64450608361745" lon="-6.361197072311188"><ele>2351.0</ele><time>2026-05-04T12:54:00Z</time></trkpt><trkpt lat="31.644392946466805" lon="-6.361281381245583"><ele>2351.0</ele><time>2026-05-04T12:54:01Z</time></trkpt><trkpt lat="31.644288312840594" lon="-6.3613697353742"><ele>2349.75</ele><time>2026-05-04T12:54:02Z</time></trkpt><trkpt lat="31.644185247174978" lon="-6.361458732840928"><ele>2348.5</ele><time>2026-05-04T12:54:03Z</time></trkpt><trkpt lat="31.644079887116604" lon="-6.361549711517015"><ele>2347.25</ele><time>2026-05-04T12:54:04Z</time></trkpt><trkpt lat="31.643967215695326" lon="-6.3616483113133"><ele>2346.0</ele><time>2026-05-04T12:54:05Z</time></trkpt><trkpt lat="31.64382859842775" lon="-6.361707293708581"><ele>2346.0</ele><time>2026-05-04T12:54:06Z</time></trkpt><trkpt lat="31.643708173011365" lon="-6.36178308004855"><ele>2346.0</ele><time>2026-05-04T12:54:07Z</time></trkpt><trkpt lat="31.64359425078031" lon="-6.361809812168127"><ele>2346.0</ele><time>2026-05-04T12:54:08Z</time></trkpt><trkpt lat="31.64350715381963" lon="-6.3618490892213115"><ele>2346.0</ele><time>2026-05-04T12:54:09Z</time></trkpt><trkpt lat="31.6434379079568" lon="-6.361873660259752"><ele>2346.0</ele><time>2026-05-04T12:54:10Z</time></trkpt><trkpt lat="31.64333753573602" lon="-6.361868295449905"><ele>2350.0</ele><time>2026-05-04T12:54:12Z</time></trkpt><trkpt lat="31.643266083439908" lon="-6.3617862058550365"><ele>2354.0</ele><time>2026-05-04T12:54:14Z</time></trkpt><trkpt lat="31.643274555126066" lon="-6.361698977034233"><ele>2358.0</ele><time>2026-05-04T12:54:15Z</time></trkpt><trkpt lat="31.643309645325903" lon="-6.361626836822991"><ele>2362.0</ele><time>2026-05-04T12:54:16Z</time></trkpt><trkpt lat="31.643374100809243" lon="-6.361544511932663"><ele>2366.0</ele><time>2026-05-04T12:54:17Z</time></trkpt><trkpt lat="31.643435825117216" lon="-6.361445842097285"><ele>2370.0</ele><time>2026-05-04T12:54:18Z</time></trkpt><trkpt lat="31.643498272188452" lon="-6.361325291414253"><ele>2370.25</ele><time>2026-05-04T12:54:19Z</time></trkpt><trkpt lat="31.643554952834393" lon="-6.361216620187639"><ele>2370.5</ele><time>2026-05-04T12:54:20Z</time></trkpt><trkpt lat="31.6436156696763" lon="-6.36110808700399"><ele>2370.75</ele><time>2026-05-04T12:54:21Z</time></trkpt><trkpt lat="31.64368781127838" lon="-6.360983869048085"><ele>2371.0</ele><time>2026-05-04T12:54:22Z</time></trkpt><trkpt lat="31.643772544765383" lon="-6.360849371843634"><ele>2371.0</ele><time>2026-05-04T12:54:23Z</time></trkpt><trkpt lat="31.64386842425989" lon="-6.3607186770690225"><ele>2371.0</ele><time>2026-05-04T12:54:24Z</time></trkpt><trkpt lat="31.64397192245221" lon="-6.360604990048581"><ele>2371.0</ele><time>2026-05-04T12:54:25Z</time></trkpt><trkpt lat="31.64408083608894" lon="-6.360477092622589"><ele>2371.0</ele><time>2026-05-04T12:54:26Z</time></trkpt><trkpt lat="31.644179760169447" lon="-6.360338387210439"><ele>2372.3333333333335</ele><time>2026-05-04T12:54:27Z</time></trkpt><trkpt lat="31.64428186882463" lon="-6.3601959852186525"><ele>2373.6666666666665</ele><time>2026-05-04T12:54:28Z</time></trkpt><trkpt lat="31.644390983809146" lon="-6.360048880714954"><ele>2375.0</ele><time>2026-05-04T12:54:29Z</time></trkpt><trkpt lat="31.644502937088614" lon="-6.3598989135855195"><ele>2375.0</ele><time>2026-05-04T12:54:30Z</time></trkpt><trkpt lat="31.644614305694283" lon="-6.359748462410409"><ele>2375.0</ele><time>2026-05-04T12:54:31Z</time></trkpt><trkpt lat="31.644725786568127" lon="-6.359594155968115"><ele>2375.0</ele><time>2026-05-04T12:54:32Z</time></trkpt><trkpt lat="31.64483979589893" lon="-6.3594398082986"><ele>2382.0</ele><time>2026-05-04T12:54:33Z</time></trkpt><trkpt lat="31.644956738937367" lon="-6.359288037633128"><ele>2389.0</ele><time>2026-05-04T12:54:34Z</time></trkpt><trkpt lat="31.645073901462908" lon="-6.359136703102442"><ele>2396.0</ele><time>2026-05-04T12:54:35Z</time></trkpt><trkpt lat="31.64519056397561" lon="-6.358990207955919"><ele>2398.333333333333</ele><time>2026-05-04T12:54:36Z</time></trkpt><trkpt lat="31.645311854864765" lon="-6.358848752004466"><ele>2400.6666666666665</ele><time>2026-05-04T12:54:37Z</time></trkpt><trkpt lat="31.645429885429913" lon="-6.358727105735597"><ele>2403.0</ele><time>2026-05-04T12:54:38Z</time></trkpt><trkpt lat="31.64555529519201" lon="-6.358601451702415"><ele>2403.0</ele><time>2026-05-04T12:54:39Z</time></trkpt><trkpt lat="31.64568563371262" lon="-6.358475081336133"><ele>2403.0</ele><time>2026-05-04T12:54:40Z</time></trkpt><trkpt lat="31.645818458223697" lon="-6.358342499735533"><ele>2403.0</ele><time>2026-05-04T12:54:41Z</time></trkpt><trkpt lat="31.645951637243307" lon="-6.358207112042141"><ele>2403.0</ele><time>2026-05-04T12:54:42Z</time></trkpt><trkpt lat="31.64608931165659" lon="-6.358066259103908"><ele>2403.0</ele><time>2026-05-04T12:54:43Z</time></trkpt><trkpt lat="31.64622717346178" lon="-6.357925162754359"><ele>2403.0</ele><time>2026-05-04T12:54:44Z</time></trkpt><trkpt lat="31.646364286715105" lon="-6.3577792798529105"><ele>2408.0</ele><time>2026-05-04T12:54:45Z</time></trkpt><trkpt lat="31.646498809509815" lon="-6.357637796791509"><ele>2413.0</ele><time>2026-05-04T12:54:46Z</time></trkpt><trkpt lat="31.64663603995522" lon="-6.35749849036516"><ele>2418.0</ele><time>2026-05-04T12:54:47Z</time></trkpt><trkpt lat="31.646773266904685" lon="-6.357363992275657"><ele>2418.0</ele><time>2026-05-04T12:54:48Z</time></trkpt><trkpt lat="31.646902021628573" lon="-6.357229935122807"><ele>2418.0</ele><time>2026-05-04T12:54:49Z</time></trkpt><trkpt lat="31.6470290625746" lon="-6.357099495864227"><ele>2418.0</ele><time>2026-05-04T12:54:49.999Z</time></trkpt><trkpt lat="31.64715760978461" lon="-6.3569794684597944"><ele>2421.6666666666665</ele><time>2026-05-04T12:54:50.999Z</time></trkpt><trkpt lat="31.647287720796342" lon="-6.35686496233526"><ele>2425.333333333333</ele><time>2026-05-04T12:54:51.999Z</time></trkpt><trkpt lat="31.647409338205822" lon="-6.3567597389771135"><ele>2429.0</ele><time>2026-05-04T12:54:52.999Z</time></trkpt><trkpt lat="31.647523130594603" lon="-6.356666604623489"><ele>2429.0</ele><time>2026-05-04T12:54:53.999Z</time></trkpt><trkpt lat="31.6476354706164" lon="-6.356577787572636"><ele>2429.0</ele><time>2026-05-04T12:54:54.999Z</time></trkpt><trkpt lat="31.647743579052857" lon="-6.356495362786515"><ele>2429.0</ele><time>2026-05-04T12:54:55.999Z</time></trkpt><trkpt lat="31.647842262924122" lon="-6.35641369061315"><ele>2429.0</ele><time>2026-05-04T12:54:56.999Z</time></trkpt><trkpt lat="31.647943904642993" lon="-6.356342511320116"><ele>2432.0</ele><time>2026-05-04T12:54:57.999Z</time></trkpt><trkpt lat="31.648034513618384" lon="-6.356285495276106"><ele>2435.0</ele><time>2026-05-04T12:54:58.999Z</time></trkpt><trkpt lat="31.64811409643008" lon="-6.356243777548662"><ele>2438.0</ele><time>2026-05-04T12:54:59.999Z</time></trkpt><trkpt lat="31.64818283271448" lon="-6.35620502122729"><ele>2441.0</ele><time>2026-05-04T12:55:00.999Z</time></trkpt><trkpt lat="31.64822937155658" lon="-6.3561547429123415"><ele>2444.0</ele><time>2026-05-04T12:55:01.999Z</time></trkpt><trkpt lat="31.648231944488522" lon="-6.356031836372986"><ele>2447.0</ele><time>2026-05-04T12:55:03.999Z</time></trkpt><trkpt lat="31.648166087997378" lon="-6.35599079697484"><ele>2447.0</ele><time>2026-05-04T12:55:04.999Z</time></trkpt><trkpt lat="31.648094317329125" lon="-6.355989107156901"><ele>2447.0</ele><time>2026-05-04T12:55:05.999Z</time></trkpt><trkpt lat="31.64800611281107" lon="-6.355974787063538"><ele>2447.0</ele><time>2026-05-04T12:55:06.999Z</time></trkpt><trkpt lat="31.647903386230876" lon="-6.355973557132836"><ele>2447.0</ele><time>2026-05-04T12:55:07.999Z</time></trkpt><trkpt lat="31.64778596503167" lon="-6.355978681459229"><ele>2447.0</ele><time>2026-05-04T12:55:08.999Z</time></trkpt><trkpt lat="31.647659956450475" lon="-6.355984929329942"><ele>2450.0</ele><time>2026-05-04T12:55:09.999Z</time></trkpt><trkpt lat="31.64753520548176" lon="-6.35599978727213"><ele>2453.0</ele><time>2026-05-04T12:55:10.999Z</time></trkpt><trkpt lat="31.64740522246632" lon="-6.356016648573274"><ele>2456.0</ele><time>2026-05-04T12:55:11.999Z</time></trkpt><trkpt lat="31.647266075967895" lon="-6.356035547295524"><ele>2459.0</ele><time>2026-05-04T12:55:12.999Z</time></trkpt><trkpt lat="31.64711809531193" lon="-6.3560582846297775"><ele>2459.0</ele><time>2026-05-04T12:55:13.999Z</time></trkpt><trkpt lat="31.646965073592106" lon="-6.356080630148421"><ele>2459.0</ele><time>2026-05-04T12:55:14.999Z</time></trkpt><trkpt lat="31.646813854040502" lon="-6.356110064628634"><ele>2459.0</ele><time>2026-05-04T12:55:15.999Z</time></trkpt><trkpt lat="31.64665957492312" lon="-6.356127027341399"><ele>2464.0</ele><time>2026-05-04T12:55:16.999Z</time></trkpt><trkpt lat="31.64650070528414" lon="-6.356172127228928"><ele>2469.0</ele><time>2026-05-04T12:55:17.999Z</time></trkpt><trkpt lat="31.646338323027187" lon="-6.35621964059406"><ele>2474.0</ele><time>2026-05-04T12:55:18.999Z</time></trkpt><trkpt lat="31.646172999652045" lon="-6.356273457341759"><ele>2470.0</ele><time>2026-05-04T12:55:19.999Z</time></trkpt><trkpt lat="31.64600451186608" lon="-6.356336582458522"><ele>2466.0</ele><time>2026-05-04T12:55:20.999Z</time></trkpt><trkpt lat="31.645834362477416" lon="-6.356398995691298"><ele>2462.0</ele><time>2026-05-04T12:55:21.999Z</time></trkpt><trkpt lat="31.64567095872924" lon="-6.356460574520599"><ele>2462.0</ele><time>2026-05-04T12:55:22.999Z</time></trkpt><trkpt lat="31.645504571999254" lon="-6.356524316181844"><ele>2462.0</ele><time>2026-05-04T12:55:23.999Z</time></trkpt><trkpt lat="31.645337563862125" lon="-6.356588763311822"><ele>2462.0</ele><time>2026-05-04T12:55:24.999Z</time></trkpt><trkpt lat="31.645179528217042" lon="-6.356666629484346"><ele>2469.6666666666665</ele><time>2026-05-04T12:55:25.999Z</time></trkpt><trkpt lat="31.645028620172738" lon="-6.3567640304275335"><ele>2477.3333333333335</ele><time>2026-05-04T12:55:26.999Z</time></trkpt><trkpt lat="31.64486494216825" lon="-6.356836625502038"><ele>2485.0</ele><time>2026-05-04T12:55:27.999Z</time></trkpt><trkpt lat="31.644699015978667" lon="-6.356901871685369"><ele>2485.0</ele><time>2026-05-04T12:55:28.999Z</time></trkpt><trkpt lat="31.64453002953805" lon="-6.356973207414151"><ele>2485.0</ele><time>2026-05-04T12:55:29.999Z</time></trkpt><trkpt lat="31.644356847427794" lon="-6.3570478681777"><ele>2485.0</ele><time>2026-05-04T12:55:30.999Z</time></trkpt><trkpt lat="31.64418120073809" lon="-6.357122541058389"><ele>2483.0</ele><time>2026-05-04T12:55:31.999Z</time></trkpt><trkpt lat="31.644010422356434" lon="-6.357188223941173"><ele>2481.0</ele><time>2026-05-04T12:55:32.999Z</time></trkpt><trkpt lat="31.643845041594297" lon="-6.357252526139987"><ele>2479.0</ele><time>2026-05-04T12:55:33.999Z</time></trkpt><trkpt lat="31.643682433788538" lon="-6.3573185146486155"><ele>2485.0</ele><time>2026-05-04T12:55:34.999Z</time></trkpt><trkpt lat="31.643526852456336" lon="-6.357380710717205"><ele>2491.0</ele><time>2026-05-04T12:55:35.999Z</time></trkpt><trkpt lat="31.64337515200814" lon="-6.35744654170609"><ele>2497.0</ele><time>2026-05-04T12:55:36.999Z</time></trkpt><trkpt lat="31.64321806354948" lon="-6.357517391266779"><ele>2497.0</ele><time>2026-05-04T12:55:37.999Z</time></trkpt><trkpt lat="31.643054806357586" lon="-6.357591023036586"><ele>2497.0</ele><time>2026-05-04T12:55:38.999Z</time></trkpt><trkpt lat="31.642887383028302" lon="-6.357667756685566"><ele>2497.0</ele><time>2026-05-04T12:55:39.999Z</time></trkpt><trkpt lat="31.64271980599267" lon="-6.357745224054769"><ele>2503.3333333333335</ele><time>2026-05-04T12:55:40.999Z</time></trkpt><trkpt lat="31.642561689031073" lon="-6.357825163812538"><ele>2509.6666666666665</ele><time>2026-05-04T12:55:41.999Z</time></trkpt><trkpt lat="31.64241288352048" lon="-6.357907407731162"><ele>2516.0</ele><time>2026-05-04T12:55:42.999Z</time></trkpt><trkpt lat="31.64226689439767" lon="-6.357996123347155"><ele>2516.6666666666665</ele><time>2026-05-04T12:55:43.999Z</time></trkpt><trkpt lat="31.642131253355267" lon="-6.358088858390649"><ele>2517.3333333333335</ele><time>2026-05-04T12:55:44.999Z</time></trkpt><trkpt lat="31.642006019193815" lon="-6.358189697922238"><ele>2518.0</ele><time>2026-05-04T12:55:45.999Z</time></trkpt><trkpt lat="31.64188547781698" lon="-6.358296633623491"><ele>2518.0</ele><time>2026-05-04T12:55:46.999Z</time></trkpt><trkpt lat="31.641771930699612" lon="-6.358406794496229"><ele>2518.0</ele><time>2026-05-04T12:55:47.999Z</time></trkpt><trkpt lat="31.641657077063222" lon="-6.35851726414012"><ele>2518.0</ele><time>2026-05-04T12:55:49Z</time></trkpt><trkpt lat="31.641538651479923" lon="-6.358631116759231"><ele>2518.0</ele><time>2026-05-04T12:55:50Z</time></trkpt><trkpt lat="31.64141629394229" lon="-6.358735644800501"><ele>2518.0</ele><time>2026-05-04T12:55:51Z</time></trkpt><trkpt lat="31.64128947708471" lon="-6.358836100191955"><ele>2518.0</ele><time>2026-05-04T12:55:52Z</time></trkpt><trkpt lat="31.641161389105786" lon="-6.358934316467016"><ele>2518.0</ele><time>2026-05-04T12:55:53Z</time></trkpt><trkpt lat="31.641027245825914" lon="-6.359025357060657"><ele>2521.0</ele><time>2026-05-04T12:55:54Z</time></trkpt><trkpt lat="31.640895958442535" lon="-6.359114642687617"><ele>2524.0</ele><time>2026-05-04T12:55:55Z</time></trkpt><trkpt lat="31.640770990841503" lon="-6.3592037120611575"><ele>2527.0</ele><time>2026-05-04T12:55:56Z</time></trkpt><trkpt lat="31.64063336883858" lon="-6.359295330747373"><ele>2527.0</ele><time>2026-05-04T12:55:57Z</time></trkpt><trkpt lat="31.64049161157156" lon="-6.359387087889359"><ele>2527.0</ele><time>2026-05-04T12:55:58Z</time></trkpt><trkpt lat="31.640343402455578" lon="-6.359479521623126"><ele>2527.0</ele><time>2026-05-04T12:55:59Z</time></trkpt><trkpt lat="31.640181857277284" lon="-6.359567763283416"><ele>2525.3333333333335</ele><time>2026-05-04T12:56:00Z</time></trkpt><trkpt lat="31.640021650331736" lon="-6.359643828641864"><ele>2523.6666666666665</ele><time>2026-05-04T12:56:01Z</time></trkpt><trkpt lat="31.63987146114476" lon="-6.359718956781682"><ele>2522.0</ele><time>2026-05-04T12:56:02Z</time></trkpt><trkpt lat="31.639728086751152" lon="-6.359791063272019"><ele>2522.0</ele><time>2026-05-04T12:56:03Z</time></trkpt><trkpt lat="31.639592054953347" lon="-6.359856302937181"><ele>2522.0</ele><time>2026-05-04T12:56:04Z</time></trkpt><trkpt lat="31.63946503967235" lon="-6.35989322324394"><ele>2522.0</ele><time>2026-05-04T12:56:05Z</time></trkpt><trkpt lat="31.639353550984463" lon="-6.359943593433313"><ele>2522.0</ele><time>2026-05-04T12:56:06Z</time></trkpt><trkpt lat="31.639254622527787" lon="-6.35997816980344"><ele>2525.4</ele><time>2026-05-04T12:56:07Z</time></trkpt><trkpt lat="31.63915812865125" lon="-6.35999347167876"><ele>2528.7999999999997</ele><time>2026-05-04T12:56:08Z</time></trkpt><trkpt lat="31.639066000680543" lon="-6.359987653208558"><ele>2532.2</ele><time>2026-05-04T12:56:09Z</time></trkpt><trkpt lat="31.638967373912678" lon="-6.359994487155093"><ele>2535.6</ele><time>2026-05-04T12:56:10Z</time></trkpt><trkpt lat="31.638864746446988" lon="-6.359936365480506"><ele>2539.0</ele><time>2026-05-04T12:56:11Z</time></trkpt><trkpt lat="31.638760926921943" lon="-6.359887594384819"><ele>2539.0</ele><time>2026-05-04T12:56:12Z</time></trkpt><trkpt lat="31.638652394419427" lon="-6.359825145379798"><ele>2539.0</ele><time>2026-05-04T12:56:13Z</time></trkpt><trkpt lat="31.63854337983853" lon="-6.359753152231393"><ele>2539.0</ele><time>2026-05-04T12:56:14Z</time></trkpt><trkpt lat="31.638440370341847" lon="-6.359672279079307"><ele>2539.0</ele><time>2026-05-04T12:56:15Z</time></trkpt><trkpt lat="31.63833010975831" lon="-6.359591334229388"><ele>2547.5</ele><time>2026-05-04T12:56:16Z</time></trkpt><trkpt lat="31.638213424941537" lon="-6.359506364977381"><ele>2556.0</ele><time>2026-05-04T12:56:17Z</time></trkpt><trkpt lat="31.638093524859812" lon="-6.359417406460817"><ele>2564.5</ele><time>2026-05-04T12:56:18Z</time></trkpt><trkpt lat="31.637973233506234" lon="-6.359328172790572"><ele>2573.0</ele><time>2026-05-04T12:56:19Z</time></trkpt><trkpt lat="31.63785175614645" lon="-6.3592295420122325"><ele>2576.5</ele><time>2026-05-04T12:56:20Z</time></trkpt><trkpt lat="31.637732244178515" lon="-6.359136649864976"><ele>2580.0</ele><time>2026-05-04T12:56:21Z</time></trkpt><trkpt lat="31.63761250101165" lon="-6.359031323806864"><ele>2583.5</ele><time>2026-05-04T12:56:22Z</time></trkpt><trkpt lat="31.637497638154855" lon="-6.35891186081248"><ele>2587.0</ele><time>2026-05-04T12:56:23Z</time></trkpt><trkpt lat="31.637384022032194" lon="-6.358783630749619"><ele>2587.0</ele><time>2026-05-04T12:56:24Z</time></trkpt><trkpt lat="31.637269954341704" lon="-6.358650718832963"><ele>2587.0</ele><time>2026-05-04T12:56:25Z</time></trkpt><trkpt lat="31.637161693369837" lon="-6.358519193667238"><ele>2587.0</ele><time>2026-05-04T12:56:26Z</time></trkpt><trkpt lat="31.63706020870324" lon="-6.3583816432267435"><ele>2587.0</ele><time>2026-05-04T12:56:27Z</time></trkpt><trkpt lat="31.636952904901253" lon="-6.358239800218646"><ele>2587.0</ele><time>2026-05-04T12:56:28Z</time></trkpt><trkpt lat="31.63684246809125" lon="-6.358095950634243"><ele>2587.0</ele><time>2026-05-04T12:56:29Z</time></trkpt><trkpt lat="31.636741468209678" lon="-6.3579612981769476"><ele>2587.0</ele><time>2026-05-04T12:56:30Z</time></trkpt><trkpt lat="31.636649262972057" lon="-6.3578373107383825"><ele>2587.0</ele><time>2026-05-04T12:56:31Z</time></trkpt><trkpt lat="31.63657161978677" lon="-6.357725572436516"><ele>2587.0</ele><time>2026-05-04T12:56:32Z</time></trkpt><trkpt lat="31.636509023592797" lon="-6.357629422617318"><ele>2587.0</ele><time>2026-05-04T12:56:33Z</time></trkpt><trkpt lat="31.63644713867274" lon="-6.357544257876735"><ele>2587.0</ele><time>2026-05-04T12:56:34Z</time></trkpt><trkpt lat="31.636373617163233" lon="-6.357473175571934"><ele>2587.0</ele><time>2026-05-04T12:56:35Z</time></trkpt><trkpt lat="31.636278765992476" lon="-6.357421888704581"><ele>2587.0</ele><time>2026-05-04T12:56:36Z</time></trkpt><trkpt lat="31.636175384749084" lon="-6.357380815097771"><ele>2587.0</ele><time>2026-05-04T12:56:37Z</time></trkpt><trkpt lat="31.63607813029698" lon="-6.357353813199691"><ele>2587.0</ele><time>2026-05-04T12:56:38Z</time></trkpt><trkpt lat="31.635967701392826" lon="-6.357326524938884"><ele>2585.2</ele><time>2026-05-04T12:56:39Z</time></trkpt><trkpt lat="31.6358651308411" lon="-6.357295162420639"><ele>2583.3999999999996</ele><time>2026-05-04T12:56:40Z</time></trkpt><trkpt lat="31.635775052761" lon="-6.357248055882122"><ele>2581.6000000000004</ele><time>2026-05-04T12:56:41Z</time></trkpt><trkpt lat="31.63568014449248" lon="-6.357184776375356"><ele>2579.8</ele><time>2026-05-04T12:56:42Z</time></trkpt><trkpt lat="31.63558438430843" lon="-6.357097834466621"><ele>2578.0</ele><time>2026-05-04T12:56:43Z</time></trkpt><trkpt lat="31.635486827797433" lon="-6.356999717334952"><ele>2581.75</ele><time>2026-05-04T12:56:44Z</time></trkpt><trkpt lat="31.635377967142563" lon="-6.356897271430702"><ele>2585.5</ele><time>2026-05-04T12:56:45Z</time></trkpt><trkpt lat="31.6352545320802" lon="-6.356804493129124"><ele>2589.25</ele><time>2026-05-04T12:56:46Z</time></trkpt><trkpt lat="31.635119790538166" lon="-6.356726662878725"><ele>2593.0</ele><time>2026-05-04T12:56:47Z</time></trkpt><trkpt lat="31.63498592614654" lon="-6.356648531964869"><ele>2593.0</ele><time>2026-05-04T12:56:48Z</time></trkpt><trkpt lat="31.63485338219073" lon="-6.356563946218641"><ele>2593.0</ele><time>2026-05-04T12:56:49Z</time></trkpt><trkpt lat="31.634715277098458" lon="-6.356483451363175"><ele>2593.0</ele><time>2026-05-04T12:56:50Z</time></trkpt><trkpt lat="31.634582103897436" lon="-6.356406291782413"><ele>2599.25</ele><time>2026-05-04T12:56:51Z</time></trkpt><trkpt lat="31.634451632699268" lon="-6.356336972758569"><ele>2605.5</ele><time>2026-05-04T12:56:52Z</time></trkpt><trkpt lat="31.634324950846004" lon="-6.356285403817885"><ele>2611.75</ele><time>2026-05-04T12:56:53Z</time></trkpt><trkpt lat="31.634197185167363" lon="-6.356308689289499"><ele>2618.0</ele><time>2026-05-04T12:56:54Z</time></trkpt><trkpt lat="31.634073436521355" lon="-6.356300262814995"><ele>2618.0</ele><time>2026-05-04T12:56:54.999Z</time></trkpt><trkpt lat="31.63394837048884" lon="-6.356291746636153"><ele>2618.0</ele><time>2026-05-04T12:56:55.999Z</time></trkpt><trkpt lat="31.633815937542874" lon="-6.356281747952066"><ele>2618.0</ele><time>2026-05-04T12:56:56.999Z</time></trkpt><trkpt lat="31.633696247845457" lon="-6.356260880166566"><ele>2618.0</ele><time>2026-05-04T12:56:57.999Z</time></trkpt><trkpt lat="31.63357994103845" lon="-6.356206488998932"><ele>2619.25</ele><time>2026-05-04T12:56:58.999Z</time></trkpt><trkpt lat="31.633450171579764" lon="-6.3561669482328735"><ele>2620.5</ele><time>2026-05-04T12:56:59.999Z</time></trkpt><trkpt lat="31.633320961182182" lon="-6.3561173632228485"><ele>2621.75</ele><time>2026-05-04T12:57:00.999Z</time></trkpt><trkpt lat="31.63319230152015" lon="-6.356066503215412"><ele>2623.0</ele><time>2026-05-04T12:57:01.999Z</time></trkpt><trkpt lat="31.63305074162028" lon="-6.356016522103551"><ele>2623.0</ele><time>2026-05-04T12:57:02.999Z</time></trkpt><trkpt lat="31.632904921827528" lon="-6.355966721555225"><ele>2623.0</ele><time>2026-05-04T12:57:03.999Z</time></trkpt><trkpt lat="31.63276297235165" lon="-6.355911941142146"><ele>2623.0</ele><time>2026-05-04T12:57:04.999Z</time></trkpt><trkpt lat="31.632627856521623" lon="-6.355854580387135"><ele>2623.0</ele><time>2026-05-04T12:57:05.999Z</time></trkpt><trkpt lat="31.632506149158814" lon="-6.355802612889098"><ele>2622.75</ele><time>2026-05-04T12:57:06.999Z</time></trkpt><trkpt lat="31.63239065034228" lon="-6.355744774439337"><ele>2622.5</ele><time>2026-05-04T12:57:07.999Z</time></trkpt><trkpt lat="31.63227210826521" lon="-6.35568982864765"><ele>2622.25</ele><time>2026-05-04T12:57:08.999Z</time></trkpt><trkpt lat="31.632148868945762" lon="-6.355651574474788"><ele>2622.0</ele><time>2026-05-04T12:57:09.999Z</time></trkpt><trkpt lat="31.63202317280124" lon="-6.3556346056629005"><ele>2623.0</ele><time>2026-05-04T12:57:10.999Z</time></trkpt><trkpt lat="31.631894567144805" lon="-6.355647080664104"><ele>2624.0</ele><time>2026-05-04T12:57:11.999Z</time></trkpt><trkpt lat="31.63176113061684" lon="-6.355695203277208"><ele>2625.0</ele><time>2026-05-04T12:57:12.999Z</time></trkpt><trkpt lat="31.631628589155238" lon="-6.355725561142395"><ele>2626.0</ele><time>2026-05-04T12:57:13.999Z</time></trkpt><trkpt lat="31.631493721099663" lon="-6.355751123724465"><ele>2626.0</ele><time>2026-05-04T12:57:14.999Z</time></trkpt><trkpt lat="31.631356413486852" lon="-6.355775883156353"><ele>2626.0</ele><time>2026-05-04T12:57:15.999Z</time></trkpt><trkpt lat="31.631225626897603" lon="-6.355769504371699"><ele>2626.0</ele><time>2026-05-04T12:57:16.999Z</time></trkpt><trkpt lat="31.631108811270497" lon="-6.355721129096322"><ele>2626.0</ele><time>2026-05-04T12:57:17.999Z</time></trkpt><trkpt lat="31.630996803236503" lon="-6.355674011212433"><ele>2626.75</ele><time>2026-05-04T12:57:18.999Z</time></trkpt><trkpt lat="31.630894370325507" lon="-6.355609093688545"><ele>2627.5</ele><time>2026-05-04T12:57:19.999Z</time></trkpt><trkpt lat="31.630795978580277" lon="-6.355519410814584"><ele>2628.25</ele><time>2026-05-04T12:57:20.999Z</time></trkpt><trkpt lat="31.63068493397597" lon="-6.355440333148516"><ele>2629.0</ele><time>2026-05-04T12:57:21.999Z</time></trkpt><trkpt lat="31.630584107471233" lon="-6.355329985150352"><ele>2633.0</ele><time>2026-05-04T12:57:22.999Z</time></trkpt><trkpt lat="31.630467820970658" lon="-6.355232992936089"><ele>2637.0</ele><time>2026-05-04T12:57:23.999Z</time></trkpt><trkpt lat="31.630363211175368" lon="-6.355136111511643"><ele>2641.0</ele><time>2026-05-04T12:57:24.999Z</time></trkpt><trkpt lat="31.63025446608605" lon="-6.35503934319854"><ele>2645.0</ele><time>2026-05-04T12:57:25.999Z</time></trkpt><trkpt lat="31.630154129807377" lon="-6.354951055157615"><ele>2645.0</ele><time>2026-05-04T12:57:26.999Z</time></trkpt><trkpt lat="31.63007163734193" lon="-6.354870759981495"><ele>2645.0</ele><time>2026-05-04T12:57:27.999Z</time></trkpt><trkpt lat="31.630005525948086" lon="-6.354789580803179"><ele>2645.0</ele><time>2026-05-04T12:57:28.999Z</time></trkpt><trkpt lat="31.62994502909825" lon="-6.354719569953655"><ele>2645.0</ele><time>2026-05-04T12:57:29.999Z</time></trkpt><trkpt lat="31.629877017220092" lon="-6.35466788259332"><ele>2645.0</ele><time>2026-05-04T12:57:30.999Z</time></trkpt><trkpt lat="31.62980203608763" lon="-6.354641453101479"><ele>2645.0</ele><time>2026-05-04T12:57:31.999Z</time></trkpt><trkpt lat="31.629714843357267" lon="-6.3546403348125935"><ele>2645.0</ele><time>2026-05-04T12:57:32.999Z</time></trkpt><trkpt lat="31.629637562769076" lon="-6.354695950578368"><ele>2645.0</ele><time>2026-05-04T12:57:33.999Z</time></trkpt><trkpt lat="31.62955105042999" lon="-6.354727792710645"><ele>2645.0</ele><time>2026-05-04T12:57:34.999Z</time></trkpt><trkpt lat="31.629458496348242" lon="-6.354785188164646"><ele>2645.0</ele><time>2026-05-04T12:57:35.999Z</time></trkpt><trkpt lat="31.629358145864817" lon="-6.35484148756519"><ele>2645.0</ele><time>2026-05-04T12:57:36.999Z</time></trkpt><trkpt lat="31.62924838047085" lon="-6.354897987259344"><ele>2647.75</ele><time>2026-05-04T12:57:37.999Z</time></trkpt><trkpt lat="31.62913571293176" lon="-6.354957712063539"><ele>2650.5</ele><time>2026-05-04T12:57:38.999Z</time></trkpt><trkpt lat="31.629021156291696" lon="-6.355015772866517"><ele>2653.25</ele><time>2026-05-04T12:57:39.999Z</time></trkpt><trkpt lat="31.62890802529249" lon="-6.355068522216282"><ele>2656.0</ele><time>2026-05-04T12:57:40.999Z</time></trkpt><trkpt lat="31.628807253881238" lon="-6.355108205855086"><ele>2656.0</ele><time>2026-05-04T12:57:41.999Z</time></trkpt><trkpt lat="31.628718917266347" lon="-6.35513333241661"><ele>2656.0</ele><time>2026-05-04T12:57:42.999Z</time></trkpt><trkpt lat="31.628629531827873" lon="-6.355170251883329"><ele>2656.0</ele><time>2026-05-04T12:57:43.999Z</time></trkpt><trkpt lat="31.62854156711321" lon="-6.355230195693874"><ele>2656.0</ele><time>2026-05-04T12:57:44.999Z</time></trkpt><trkpt lat="31.62850524288166" lon="-6.355345416049963"><ele>2656.0</ele><time>2026-05-04T12:57:45.999Z</time></trkpt><trkpt lat="31.628446681845716" lon="-6.355441942503091"><ele>2657.2000000000003</ele><time>2026-05-04T12:57:46.999Z</time></trkpt><trkpt lat="31.628380838771044" lon="-6.355546434123192"><ele>2658.4</ele><time>2026-05-04T12:57:47.999Z</time></trkpt><trkpt lat="31.628311908167053" lon="-6.355638672761493"><ele>2659.6</ele><time>2026-05-04T12:57:48.999Z</time></trkpt><trkpt lat="31.628218021713124" lon="-6.355702796852813"><ele>2660.8</ele><time>2026-05-04T12:57:49.999Z</time></trkpt><trkpt lat="31.628127955805386" lon="-6.35577445993338"><ele>2662.0</ele><time>2026-05-04T12:57:50.999Z</time></trkpt><trkpt lat="31.62802742476056" lon="-6.355828918750157"><ele>2662.0</ele><time>2026-05-04T12:57:51.999Z</time></trkpt><trkpt lat="31.627925326587228" lon="-6.355862767131908"><ele>2662.0</ele><time>2026-05-04T12:57:52.999Z</time></trkpt><trkpt lat="31.62782247016452" lon="-6.355876836003159"><ele>2662.0</ele><time>2026-05-04T12:57:53.999Z</time></trkpt><trkpt lat="31.627715690826026" lon="-6.355868388389712"><ele>2662.0</ele><time>2026-05-04T12:57:55Z</time></trkpt><trkpt lat="31.627617567824075" lon="-6.355845097734299"><ele>2662.0</ele><time>2026-05-04T12:57:56Z</time></trkpt><trkpt lat="31.627523458385976" lon="-6.355819662874064"><ele>2665.6</ele><time>2026-05-04T12:57:57Z</time></trkpt><trkpt lat="31.627431622283506" lon="-6.355803505953118"><ele>2669.2</ele><time>2026-05-04T12:57:58Z</time></trkpt><trkpt lat="31.627337185129676" lon="-6.355800498531281"><ele>2672.8</ele><time>2026-05-04T12:57:59Z</time></trkpt><trkpt lat="31.627242131490902" lon="-6.355802380504612"><ele>2676.4</ele><time>2026-05-04T12:58:00Z</time></trkpt><trkpt lat="31.627144336312053" lon="-6.355797654061614"><ele>2680.0</ele><time>2026-05-04T12:58:01Z</time></trkpt><trkpt lat="31.627053639155186" lon="-6.355796845511466"><ele>2683.2</ele><time>2026-05-04T12:58:02Z</time></trkpt><trkpt lat="31.626973087312596" lon="-6.355795949849393"><ele>2686.4</ele><time>2026-05-04T12:58:03Z</time></trkpt><trkpt lat="31.62690123498194" lon="-6.35579664710877"><ele>2689.6000000000004</ele><time>2026-05-04T12:58:04Z</time></trkpt><trkpt lat="31.626784279634148" lon="-6.355814845411687"><ele>2692.8</ele><time>2026-05-04T12:58:06Z</time></trkpt><trkpt lat="31.62676221561458" lon="-6.355899475905299"><ele>2696.0</ele><time>2026-05-04T12:58:07Z</time></trkpt><trkpt lat="31.626740972993428" lon="-6.356042501136625"><ele>2696.0</ele><time>2026-05-04T12:58:09Z</time></trkpt><trkpt lat="31.626775027673837" lon="-6.356106077837725"><ele>2696.0</ele><time>2026-05-04T12:58:10Z</time></trkpt><trkpt lat="31.626788800262254" lon="-6.356212640497728"><ele>2696.0</ele><time>2026-05-04T12:58:11Z</time></trkpt><trkpt lat="31.626792185800323" lon="-6.356346790937079"><ele>2696.0</ele><time>2026-05-04T12:58:12Z</time></trkpt><trkpt lat="31.626780719716784" lon="-6.356451997721677"><ele>2696.0</ele><time>2026-05-04T12:58:13Z</time></trkpt><trkpt lat="31.626718581639963" lon="-6.356570274299599"><ele>2693.75</ele><time>2026-05-04T12:58:14Z</time></trkpt><trkpt lat="31.626672173307448" lon="-6.356662888563829"><ele>2691.5</ele><time>2026-05-04T12:58:15Z</time></trkpt><trkpt lat="31.626557682750352" lon="-6.3567405159960835"><ele>2689.25</ele><time>2026-05-04T12:58:16Z</time></trkpt><trkpt lat="31.626476616202925" lon="-6.356818692683412"><ele>2687.0</ele><time>2026-05-04T12:58:17Z</time></trkpt><trkpt lat="31.626377357338882" lon="-6.356905253188513"><ele>2687.0</ele><time>2026-05-04T12:58:18Z</time></trkpt><trkpt lat="31.626280299943875" lon="-6.35698373348083"><ele>2687.0</ele><time>2026-05-04T12:58:19Z</time></trkpt><trkpt lat="31.626208344728674" lon="-6.3570592272162845"><ele>2687.0</ele><time>2026-05-04T12:58:20Z</time></trkpt><trkpt lat="31.62614350792857" lon="-6.3571345154987835"><ele>2687.0</ele><time>2026-05-04T12:58:21Z</time></trkpt><trkpt lat="31.62611536416341" lon="-6.357210189155108"><ele>2687.0</ele><time>2026-05-04T12:58:22Z</time></trkpt><trkpt lat="31.62607782509603" lon="-6.3572896585253185"><ele>2684.6666666666665</ele><time>2026-05-04T12:58:23Z</time></trkpt><trkpt lat="31.62613536681713" lon="-6.357356278286963"><ele>2682.333333333333</ele><time>2026-05-04T12:58:24Z</time></trkpt><trkpt lat="31.62616583647562" lon="-6.3574397640487925"><ele>2680.0</ele><time>2026-05-04T12:58:25Z</time></trkpt><trkpt lat="31.626206015972308" lon="-6.3575210516319425"><ele>2677.6666666666665</ele><time>2026-05-04T12:58:26Z</time></trkpt><trkpt lat="31.626231275013858" lon="-6.357638531043619"><ele>2675.3333333333335</ele><time>2026-05-04T12:58:27Z</time></trkpt><trkpt lat="31.626243641207353" lon="-6.357750394425883"><ele>2673.0</ele><time>2026-05-04T12:58:28Z</time></trkpt><trkpt lat="31.626217047327962" lon="-6.357865818660571"><ele>2673.0</ele><time>2026-05-04T12:58:29Z</time></trkpt><trkpt lat="31.626163373082733" lon="-6.357963072798138"><ele>2673.0</ele><time>2026-05-04T12:58:30Z</time></trkpt><trkpt lat="31.62608674721751" lon="-6.358054479189588"><ele>2673.0</ele><time>2026-05-04T12:58:31Z</time></trkpt><trkpt lat="31.6260101484013" lon="-6.358157300310094"><ele>2673.0</ele><time>2026-05-04T12:58:32Z</time></trkpt><trkpt lat="31.62592395715373" lon="-6.35826575194549"><ele>2679.75</ele><time>2026-05-04T12:58:33Z</time></trkpt><trkpt lat="31.62583485737662" lon="-6.3583756881473805"><ele>2686.5</ele><time>2026-05-04T12:58:34Z</time></trkpt><trkpt lat="31.625742256402862" lon="-6.358489944374486"><ele>2693.25</ele><time>2026-05-04T12:58:35Z</time></trkpt><trkpt lat="31.625649250309735" lon="-6.358591640086276"><ele>2700.0</ele><time>2026-05-04T12:58:36Z</time></trkpt><trkpt lat="31.625560475502972" lon="-6.358677027402364"><ele>2700.0</ele><time>2026-05-04T12:58:37Z</time></trkpt><trkpt lat="31.625479694671398" lon="-6.358742055973176"><ele>2700.0</ele><time>2026-05-04T12:58:38Z</time></trkpt><trkpt lat="31.62540983136468" lon="-6.35879829641641"><ele>2700.0</ele><time>2026-05-04T12:58:39Z</time></trkpt><trkpt lat="31.625401857957954" lon="-6.358932906243911"><ele>2700.0</ele><time>2026-05-04T12:58:41Z</time></trkpt><trkpt lat="31.62546323974463" lon="-6.358986334044103"><ele>2700.0</ele><time>2026-05-04T12:58:42Z</time></trkpt><trkpt lat="31.62548003556496" lon="-6.359092268981481"><ele>2697.0</ele><time>2026-05-04T12:58:43Z</time></trkpt><trkpt lat="31.625497171828084" lon="-6.359200351060948"><ele>2694.0</ele><time>2026-05-04T12:58:44Z</time></trkpt><trkpt lat="31.62550007753607" lon="-6.359319630419511"><ele>2691.0</ele><time>2026-05-04T12:58:45Z</time></trkpt><trkpt lat="31.625477336521705" lon="-6.359432731265361"><ele>2688.0</ele><time>2026-05-04T12:58:46Z</time></trkpt><trkpt lat="31.625426312687612" lon="-6.35953634162097"><ele>2685.0</ele><time>2026-05-04T12:58:47Z</time></trkpt><trkpt lat="31.62535775952229" lon="-6.35962562887643"><ele>2692.3333333333335</ele><time>2026-05-04T12:58:48Z</time></trkpt><trkpt lat="31.625295187608504" lon="-6.359713212495966"><ele>2699.6666666666665</ele><time>2026-05-04T12:58:49Z</time></trkpt><trkpt lat="31.62522740822659" lon="-6.359803317090133"><ele>2707.0</ele><time>2026-05-04T12:58:50Z</time></trkpt><trkpt lat="31.625167119581015" lon="-6.359881265442188"><ele>2714.333333333333</ele><time>2026-05-04T12:58:51Z</time></trkpt><trkpt lat="31.625131062202705" lon="-6.359961761030173"><ele>2721.6666666666665</ele><time>2026-05-04T12:58:51.999Z</time></trkpt><trkpt lat="31.62512368043689" lon="-6.360051595554479"><ele>2729.0</ele><time>2026-05-04T12:58:52.999Z</time></trkpt><trkpt lat="31.62511557788491" lon="-6.360146170955575"><ele>2729.0</ele><time>2026-05-04T12:58:53.999Z</time></trkpt><trkpt lat="31.625107014670544" lon="-6.3602439892172535"><ele>2729.0</ele><time>2026-05-04T12:58:54.999Z</time></trkpt><trkpt lat="31.625101418458026" lon="-6.3603403404851235"><ele>2729.0</ele><time>2026-05-04T12:58:55.999Z</time></trkpt><trkpt lat="31.625096058501548" lon="-6.360439306261838"><ele>2729.0</ele><time>2026-05-04T12:58:56.999Z</time></trkpt><trkpt lat="31.625090828301165" lon="-6.360535876200722"><ele>2729.0</ele><time>2026-05-04T12:58:57.999Z</time></trkpt><trkpt lat="31.625084978539746" lon="-6.3606438859988526"><ele>2729.0</ele><time>2026-05-04T12:58:58.999Z</time></trkpt><trkpt lat="31.625091314859226" lon="-6.36074649580167"><ele>2729.0</ele><time>2026-05-04T12:58:59.999Z</time></trkpt><trkpt lat="31.62509449508075" lon="-6.360855542148771"><ele>2729.0</ele><time>2026-05-04T12:59:00.999Z</time></trkpt><trkpt lat="31.625079681525644" lon="-6.360971967982843"><ele>2729.0</ele><time>2026-05-04T12:59:01.999Z</time></trkpt><trkpt lat="31.62504341679497" lon="-6.361072882079128"><ele>2729.0</ele><time>2026-05-04T12:59:02.999Z</time></trkpt><trkpt lat="31.62502475064954" lon="-6.361176772793112"><ele>2729.0</ele><time>2026-05-04T12:59:03.999Z</time></trkpt><trkpt lat="31.624997315427763" lon="-6.361268087284396"><ele>2729.0</ele><time>2026-05-04T12:59:04.999Z</time></trkpt><trkpt lat="31.624947813039277" lon="-6.361357383233842"><ele>2729.0</ele><time>2026-05-04T12:59:05.999Z</time></trkpt><trkpt lat="31.624895044411506" lon="-6.3614471878725265"><ele>2729.0</ele><time>2026-05-04T12:59:06.999Z</time></trkpt><trkpt lat="31.624832213515827" lon="-6.361525344669912"><ele>2729.0</ele><time>2026-05-04T12:59:07.999Z</time></trkpt><trkpt lat="31.62476274254426" lon="-6.361606314279388"><ele>2729.0</ele><time>2026-05-04T12:59:08.999Z</time></trkpt><trkpt lat="31.62468964622632" lon="-6.361683132067338"><ele>2726.7999999999997</ele><time>2026-05-04T12:59:09.999Z</time></trkpt><trkpt lat="31.624616324085704" lon="-6.361769488347008"><ele>2724.6</ele><time>2026-05-04T12:59:10.999Z</time></trkpt><trkpt lat="31.624547158418206" lon="-6.361836754013768"><ele>2722.4</ele><time>2026-05-04T12:59:11.999Z</time></trkpt><trkpt lat="31.624480250824252" lon="-6.361912536722576"><ele>2720.2</ele><time>2026-05-04T12:59:12.999Z</time></trkpt><trkpt lat="31.62440471207971" lon="-6.361985312585445"><ele>2718.0</ele><time>2026-05-04T12:59:13.999Z</time></trkpt><trkpt lat="31.62433974460055" lon="-6.362059869124463"><ele>2726.4</ele><time>2026-05-04T12:59:14.999Z</time></trkpt><trkpt lat="31.624309473512753" lon="-6.3621587412823715"><ele>2734.8</ele><time>2026-05-04T12:59:15.999Z</time></trkpt><trkpt lat="31.624275918391724" lon="-6.362228791272384"><ele>2743.2</ele><time>2026-05-04T12:59:16.999Z</time></trkpt><trkpt lat="31.624253951017373" lon="-6.362359862918726"><ele>2751.6</ele><time>2026-05-04T12:59:18.999Z</time></trkpt><trkpt lat="31.624285622693737" lon="-6.362492883630612"><ele>2760.0</ele><time>2026-05-04T12:59:20.999Z</time></trkpt><trkpt lat="31.624297035008468" lon="-6.362568276085364"><ele>2760.0</ele><time>2026-05-04T12:59:21.999Z</time></trkpt><trkpt lat="31.624312741909197" lon="-6.362671611492994"><ele>2760.0</ele><time>2026-05-04T12:59:22.999Z</time></trkpt><trkpt lat="31.624327126402424" lon="-6.3627694526913565"><ele>2760.0</ele><time>2026-05-04T12:59:23.999Z</time></trkpt><trkpt lat="31.624325489965727" lon="-6.362871017196534"><ele>2760.0</ele><time>2026-05-04T12:59:24.999Z</time></trkpt><trkpt lat="31.624337626908385" lon="-6.362956984853013"><ele>2760.0</ele><time>2026-05-04T12:59:25.999Z</time></trkpt><trkpt lat="31.624354800589366" lon="-6.363088547573521"><ele>2760.0</ele><time>2026-05-04T12:59:27.999Z</time></trkpt><trkpt lat="31.624343502853396" lon="-6.363205697771229"><ele>2760.3333333333335</ele><time>2026-05-04T13:07:55.999Z</time></trkpt><trkpt lat="31.624342027898336" lon="-6.363295752820015"><ele>2760.6666666666665</ele><time>2026-05-04T13:07:56.999Z</time></trkpt><trkpt lat="31.624345884238497" lon="-6.363385367490329"><ele>2761.0</ele><time>2026-05-04T13:07:57.999Z</time></trkpt><trkpt lat="31.62434543565416" lon="-6.363487456747248"><ele>2761.333333333333</ele><time>2026-05-04T13:07:58.999Z</time></trkpt><trkpt lat="31.624345093224854" lon="-6.363597063231582"><ele>2761.6666666666665</ele><time>2026-05-04T13:07:59.999Z</time></trkpt><trkpt lat="31.624346110183186" lon="-6.363713916789534"><ele>2762.0</ele><time>2026-05-04T13:08:00.999Z</time></trkpt><trkpt lat="31.62434618707038" lon="-6.363835195899109"><ele>2761.5</ele><time>2026-05-04T13:08:01.999Z</time></trkpt><trkpt lat="31.62436621933883" lon="-6.363952471048447"><ele>2761.0</ele><time>2026-05-04T13:08:02.999Z</time></trkpt><trkpt lat="31.62434859500331" lon="-6.364061114066342"><ele>2760.5</ele><time>2026-05-04T13:08:03.999Z</time></trkpt><trkpt lat="31.624341797760327" lon="-6.364156479641964"><ele>2760.0</ele><time>2026-05-04T13:08:04.999Z</time></trkpt><trkpt lat="31.624349059516486" lon="-6.36425577247121"><ele>2759.5</ele><time>2026-05-04T13:08:05.999Z</time></trkpt><trkpt lat="31.62432870437961" lon="-6.36434317502918"><ele>2759.0</ele><time>2026-05-04T13:08:06.999Z</time></trkpt><trkpt lat="31.624266327939562" lon="-6.364426962919094"><ele>2759.0</ele><time>2026-05-04T13:08:07.999Z</time></trkpt><trkpt lat="31.624197583178283" lon="-6.364491428501847"><ele>2759.0</ele><time>2026-05-04T13:08:08.999Z</time></trkpt><trkpt lat="31.624126182921604" lon="-6.364542275636309"><ele>2759.0</ele><time>2026-05-04T13:08:09.999Z</time></trkpt><trkpt lat="31.624049352478593" lon="-6.364597527650899"><ele>2759.0</ele><time>2026-05-04T13:08:10.999Z</time></trkpt><trkpt lat="31.623957827007374" lon="-6.364660398675837"><ele>2759.0</ele><time>2026-05-04T13:08:11.999Z</time></trkpt><trkpt lat="31.623863657388135" lon="-6.364721914855851"><ele>2760.0</ele><time>2026-05-04T13:08:12.999Z</time></trkpt><trkpt lat="31.623769639794762" lon="-6.364771240070333"><ele>2761.0</ele><time>2026-05-04T13:08:13.999Z</time></trkpt><trkpt lat="31.623696027584312" lon="-6.3648071877815555"><ele>2762.0</ele><time>2026-05-04T13:08:14.999Z</time></trkpt><trkpt lat="31.623630324163575" lon="-6.364834717876103"><ele>2763.0</ele><time>2026-05-04T13:08:15.999Z</time></trkpt><trkpt lat="31.623531169120742" lon="-6.3648764151523585"><ele>2764.0</ele><time>2026-05-04T13:08:17.999Z</time></trkpt><trkpt lat="31.623432468429073" lon="-6.364909400536149"><ele>2764.0</ele><time>2026-05-04T13:08:38.999Z</time></trkpt><trkpt lat="31.623366387070593" lon="-6.36493175448863"><ele>2764.0</ele><time>2026-05-04T13:08:39.999Z</time></trkpt><trkpt lat="31.623295224354628" lon="-6.3649289323978495"><ele>2764.0</ele><time>2026-05-04T13:08:40.999Z</time></trkpt><trkpt lat="31.623180599972496" lon="-6.364975579681112"><ele>2764.0</ele><time>2026-05-04T13:08:42.999Z</time></trkpt><trkpt lat="31.623108645341425" lon="-6.365085354557172"><ele>2764.0</ele><time>2026-05-04T13:08:44.999Z</time></trkpt><trkpt lat="31.623097897676985" lon="-6.365176128627245"><ele>2764.0</ele><time>2026-05-04T13:08:45.999Z</time></trkpt><trkpt lat="31.623083652774227" lon="-6.365270288618956"><ele>2764.0</ele><time>2026-05-04T13:08:46.999Z</time></trkpt><trkpt lat="31.623080479320166" lon="-6.365361984654204"><ele>2764.0</ele><time>2026-05-04T13:08:47.999Z</time></trkpt><trkpt lat="31.623092566904553" lon="-6.365463726840301"><ele>2764.0</ele><time>2026-05-04T13:08:48.999Z</time></trkpt><trkpt lat="31.623097921167798" lon="-6.365567218599281"><ele>2764.0</ele><time>2026-05-04T13:08:49.999Z</time></trkpt><trkpt lat="31.623098141027253" lon="-6.365677347618273"><ele>2764.0</ele><time>2026-05-04T13:08:51Z</time></trkpt><trkpt lat="31.623097693534998" lon="-6.3657872071851305"><ele>2762.0</ele><time>2026-05-04T13:08:52Z</time></trkpt><trkpt lat="31.623099305158537" lon="-6.365890803336525"><ele>2760.0</ele><time>2026-05-04T13:08:53Z</time></trkpt><trkpt lat="31.623096675217194" lon="-6.36598612816282"><ele>2758.0</ele><time>2026-05-04T13:08:54Z</time></trkpt><trkpt lat="31.62308950798767" lon="-6.366082531848692"><ele>2756.0</ele><time>2026-05-04T13:08:55Z</time></trkpt><trkpt lat="31.623070958829224" lon="-6.366176521248079"><ele>2754.0</ele><time>2026-05-04T13:08:56Z</time></trkpt><trkpt lat="31.623044340873484" lon="-6.366270446016481"><ele>2752.0</ele><time>2026-05-04T13:08:57Z</time></trkpt><trkpt lat="31.623012169662143" lon="-6.366366327556298"><ele>2751.0</ele><time>2026-05-04T13:08:58Z</time></trkpt><trkpt lat="31.62297116035789" lon="-6.366459254372903"><ele>2750.0</ele><time>2026-05-04T13:08:59Z</time></trkpt><trkpt lat="31.622930291464613" lon="-6.366550943200433"><ele>2749.0</ele><time>2026-05-04T13:09:00Z</time></trkpt><trkpt lat="31.62288013878312" lon="-6.366637427775693"><ele>2748.0</ele><time>2026-05-04T13:09:01Z</time></trkpt><trkpt lat="31.622833762360482" lon="-6.366720214991196"><ele>2747.0</ele><time>2026-05-04T13:09:02Z</time></trkpt><trkpt lat="31.622773530777227" lon="-6.36680056040063"><ele>2746.0</ele><time>2026-05-04T13:09:03Z</time></trkpt><trkpt lat="31.622707310070766" lon="-6.366880217337126"><ele>2751.0</ele><time>2026-05-04T13:09:04Z</time></trkpt><trkpt lat="31.622633141696884" lon="-6.366964136351353"><ele>2756.0</ele><time>2026-05-04T13:09:05Z</time></trkpt><trkpt lat="31.62255635427173" lon="-6.367040795244175"><ele>2761.0</ele><time>2026-05-04T13:09:06Z</time></trkpt><trkpt lat="31.622459400130765" lon="-6.367105424048063"><ele>2766.0</ele><time>2026-05-04T13:09:07Z</time></trkpt><trkpt lat="31.622368224060317" lon="-6.367179250560553"><ele>2771.0</ele><time>2026-05-04T13:09:08Z</time></trkpt><trkpt lat="31.62226377602017" lon="-6.367237494159573"><ele>2771.0</ele><time>2026-05-04T13:09:09Z</time></trkpt><trkpt lat="31.62215303875526" lon="-6.367285191944416"><ele>2771.0</ele><time>2026-05-04T13:09:10Z</time></trkpt><trkpt lat="31.622040198472508" lon="-6.36732447568625"><ele>2771.0</ele><time>2026-05-04T13:09:11Z</time></trkpt><trkpt lat="31.621941683034617" lon="-6.367347364375858"><ele>2771.0</ele><time>2026-05-04T13:09:12Z</time></trkpt><trkpt lat="31.62186921973573" lon="-6.367390397792373"><ele>2771.0</ele><time>2026-05-04T13:09:13Z</time></trkpt><trkpt lat="31.62180553537049" lon="-6.367415366890041"><ele>2775.6666666666665</ele><time>2026-05-04T13:09:14Z</time></trkpt><trkpt lat="31.62172582605005" lon="-6.3675163168376745"><ele>2780.333333333333</ele><time>2026-05-04T13:09:16Z</time></trkpt><trkpt lat="31.62170355470597" lon="-6.36758810550977"><ele>2785.0</ele><time>2026-05-04T13:09:17Z</time></trkpt><trkpt lat="31.621665585261002" lon="-6.367668089501458"><ele>2789.6666666666665</ele><time>2026-05-04T13:09:18Z</time></trkpt><trkpt lat="31.621647237927835" lon="-6.367770202796635"><ele>2794.3333333333335</ele><time>2026-05-04T13:09:19Z</time></trkpt><trkpt lat="31.62160854708328" lon="-6.367863590563172"><ele>2799.0</ele><time>2026-05-04T13:09:20Z</time></trkpt><trkpt lat="31.6215537083877" lon="-6.367961260023264"><ele>2794.25</ele><time>2026-05-04T13:09:21Z</time></trkpt><trkpt lat="31.621491704716803" lon="-6.368067958006535"><ele>2789.5</ele><time>2026-05-04T13:09:22Z</time></trkpt><trkpt lat="31.62144077702187" lon="-6.368195483082815"><ele>2784.75</ele><time>2026-05-04T13:09:23Z</time></trkpt><trkpt lat="31.621378151294678" lon="-6.368320636409435"><ele>2780.0</ele><time>2026-05-04T13:09:24Z</time></trkpt><trkpt lat="31.62131123241884" lon="-6.3684469648897695"><ele>2780.0</ele><time>2026-05-04T13:09:25Z</time></trkpt><trkpt lat="31.621242911348123" lon="-6.368572866857505"><ele>2780.0</ele><time>2026-05-04T13:09:26Z</time></trkpt><trkpt lat="31.62117525678279" lon="-6.36870140716875"><ele>2780.0</ele><time>2026-05-04T13:09:27Z</time></trkpt><trkpt lat="31.62110841051015" lon="-6.36882979947588"><ele>2780.0</ele><time>2026-05-04T13:09:28Z</time></trkpt><trkpt lat="31.621039382257006" lon="-6.36895949264614"><ele>2787.5</ele><time>2026-05-04T13:09:29Z</time></trkpt><trkpt lat="31.620969977475372" lon="-6.369082321093061"><ele>2795.0</ele><time>2026-05-04T13:09:30Z</time></trkpt><trkpt lat="31.62088897428521" lon="-6.369190949879776"><ele>2802.5</ele><time>2026-05-04T13:09:31Z</time></trkpt><trkpt lat="31.620821917358818" lon="-6.3693104550258965"><ele>2810.0</ele><time>2026-05-04T13:09:32Z</time></trkpt><trkpt lat="31.620752084583252" lon="-6.36942600335287"><ele>2810.0</ele><time>2026-05-04T13:09:33Z</time></trkpt><trkpt lat="31.620675537729696" lon="-6.369539650747559"><ele>2810.0</ele><time>2026-05-04T13:09:34Z</time></trkpt><trkpt lat="31.620593002192454" lon="-6.369649102722656"><ele>2810.0</ele><time>2026-05-04T13:09:35Z</time></trkpt><trkpt lat="31.620506445134158" lon="-6.369751669741562"><ele>2810.0</ele><time>2026-05-04T13:09:36Z</time></trkpt><trkpt lat="31.62043573607888" lon="-6.369869713582478"><ele>2805.0</ele><time>2026-05-04T13:09:37Z</time></trkpt><trkpt lat="31.620352262466838" lon="-6.3699747129632325"><ele>2800.0</ele><time>2026-05-04T13:09:38Z</time></trkpt><trkpt lat="31.620267084872822" lon="-6.370081855763095"><ele>2795.0</ele><time>2026-05-04T13:09:39Z</time></trkpt><trkpt lat="31.620168334013876" lon="-6.370178904736669"><ele>2790.0</ele><time>2026-05-04T13:09:40Z</time></trkpt><trkpt lat="31.620081596924507" lon="-6.3702903769583195"><ele>2793.0</ele><time>2026-05-04T13:09:41Z</time></trkpt><trkpt lat="31.61999232852617" lon="-6.370398520112818"><ele>2796.0</ele><time>2026-05-04T13:09:42Z</time></trkpt><trkpt lat="31.61991406059994" lon="-6.370517849689184"><ele>2799.0</ele><time>2026-05-04T13:09:43Z</time></trkpt><trkpt lat="31.619812078222136" lon="-6.370601566825861"><ele>2802.0</ele><time>2026-05-04T13:09:44Z</time></trkpt><trkpt lat="31.619727747895368" lon="-6.370697653254597"><ele>2802.0</ele><time>2026-05-04T13:09:45Z</time></trkpt><trkpt lat="31.61963703653298" lon="-6.370791605349652"><ele>2802.0</ele><time>2026-05-04T13:09:46Z</time></trkpt><trkpt lat="31.6195493747839" lon="-6.370877617804365"><ele>2802.0</ele><time>2026-05-04T13:09:47Z</time></trkpt><trkpt lat="31.619452447008864" lon="-6.370959499172151"><ele>2802.0</ele><time>2026-05-04T13:09:48Z</time></trkpt><trkpt lat="31.619347016092384" lon="-6.371028577153668"><ele>2808.6</ele><time>2026-05-04T13:09:49Z</time></trkpt><trkpt lat="31.619236468014574" lon="-6.3710798739389665"><ele>2815.2</ele><time>2026-05-04T13:09:50Z</time></trkpt><trkpt lat="31.619134748233996" lon="-6.37111048199502"><ele>2821.8</ele><time>2026-05-04T13:09:51Z</time></trkpt><trkpt lat="31.619041657898123" lon="-6.371132068849019"><ele>2828.4</ele><time>2026-05-04T13:09:52Z</time></trkpt><trkpt lat="31.61896177344421" lon="-6.371161455821318"><ele>2835.0</ele><time>2026-05-04T13:09:53Z</time></trkpt><trkpt lat="31.618894404214153" lon="-6.371218133019478"><ele>2835.0</ele><time>2026-05-04T13:09:54Z</time></trkpt><trkpt lat="31.61883772819153" lon="-6.37131223258399"><ele>2835.0</ele><time>2026-05-04T13:09:55Z</time></trkpt><trkpt lat="31.61879108828621" lon="-6.371428534419916"><ele>2835.0</ele><time>2026-05-04T13:09:56Z</time></trkpt><trkpt lat="31.618751897251112" lon="-6.371541520601689"><ele>2835.0</ele><time>2026-05-04T13:09:57Z</time></trkpt><trkpt lat="31.618708745528924" lon="-6.371651335809613"><ele>2835.0</ele><time>2026-05-04T13:09:58Z</time></trkpt><trkpt lat="31.61865524312035" lon="-6.3717512098608395"><ele>2836.4</ele><time>2026-05-04T13:09:59Z</time></trkpt><trkpt lat="31.61859131857409" lon="-6.371832974233493"><ele>2837.8</ele><time>2026-05-04T13:10:00Z</time></trkpt><trkpt lat="31.618511783735176" lon="-6.371904866851537"><ele>2839.2</ele><time>2026-05-04T13:10:01Z</time></trkpt><trkpt lat="31.618421051300484" lon="-6.371963854411447"><ele>2840.6</ele><time>2026-05-04T13:10:02Z</time></trkpt><trkpt lat="31.61832528343942" lon="-6.372010942304942"><ele>2842.0</ele><time>2026-05-04T13:10:03Z</time></trkpt><trkpt lat="31.61823878543968" lon="-6.372042598554984"><ele>2842.0</ele><time>2026-05-04T13:10:04Z</time></trkpt><trkpt lat="31.618162797862684" lon="-6.372082978297924"><ele>2842.0</ele><time>2026-05-04T13:10:05Z</time></trkpt><trkpt lat="31.618093348234208" lon="-6.372144484298391"><ele>2842.0</ele><time>2026-05-04T13:10:06Z</time></trkpt><trkpt lat="31.61804737033796" lon="-6.372237252543026"><ele>2842.0</ele><time>2026-05-04T13:10:07Z</time></trkpt><trkpt lat="31.618036806530938" lon="-6.372344272097331"><ele>2842.0</ele><time>2026-05-04T13:10:08Z</time></trkpt><trkpt lat="31.617993944112204" lon="-6.372438573071423"><ele>2842.0</ele><time>2026-05-04T13:10:09Z</time></trkpt><trkpt lat="31.61795336922928" lon="-6.372534241633837"><ele>2845.8</ele><time>2026-05-04T13:10:10Z</time></trkpt><trkpt lat="31.61789660600689" lon="-6.372621591830692"><ele>2849.6</ele><time>2026-05-04T13:10:11Z</time></trkpt><trkpt lat="31.617824595371644" lon="-6.3726964572658"><ele>2853.4</ele><time>2026-05-04T13:10:12Z</time></trkpt><trkpt lat="31.61774430325065" lon="-6.3727634404840305"><ele>2857.2000000000003</ele><time>2026-05-04T13:10:13Z</time></trkpt><trkpt lat="31.61765663342114" lon="-6.372818495552832"><ele>2861.0</ele><time>2026-05-04T13:10:14Z</time></trkpt><trkpt lat="31.617561853795642" lon="-6.3728612470568695"><ele>2861.0</ele><time>2026-05-04T13:10:15Z</time></trkpt><trkpt lat="31.617463691121326" lon="-6.372897936985381"><ele>2861.0</ele><time>2026-05-04T13:10:16Z</time></trkpt><trkpt lat="31.617371574940858" lon="-6.372934891066463"><ele>2861.0</ele><time>2026-05-04T13:10:17Z</time></trkpt><trkpt lat="31.617293707701823" lon="-6.372994808672077"><ele>2861.0</ele><time>2026-05-04T13:10:18Z</time></trkpt><trkpt lat="31.617215357513935" lon="-6.373025721479313"><ele>2861.0</ele><time>2026-05-04T13:10:19Z</time></trkpt><trkpt lat="31.617156303554854" lon="-6.373092040812549"><ele>2855.4</ele><time>2026-05-04T13:10:20Z</time></trkpt><trkpt lat="31.617112261408927" lon="-6.373172753169557"><ele>2849.8</ele><time>2026-05-04T13:10:21Z</time></trkpt><trkpt lat="31.617107820803827" lon="-6.3732788213900236"><ele>2844.2000000000003</ele><time>2026-05-04T13:10:22Z</time></trkpt><trkpt lat="31.617092520841418" lon="-6.37338937289335"><ele>2838.6000000000004</ele><time>2026-05-04T13:10:23Z</time></trkpt><trkpt lat="31.617072517220702" lon="-6.373507144279788"><ele>2833.0</ele><time>2026-05-04T13:10:24Z</time></trkpt><trkpt lat="31.617050446899338" lon="-6.373622905943406"><ele>2833.0</ele><time>2026-05-04T13:10:25Z</time></trkpt><trkpt lat="31.617023980769588" lon="-6.373748330043232"><ele>2833.0</ele><time>2026-05-04T13:10:26Z</time></trkpt><trkpt lat="31.61699143559761" lon="-6.373875738913976"><ele>2833.0</ele><time>2026-05-04T13:10:27Z</time></trkpt><trkpt lat="31.616942205767053" lon="-6.374000962295374"><ele>2833.0</ele><time>2026-05-04T13:10:28Z</time></trkpt><trkpt lat="31.616887123921604" lon="-6.374106493937434"><ele>2833.0</ele><time>2026-05-04T13:10:29Z</time></trkpt><trkpt lat="31.61682061645249" lon="-6.374208377325047"><ele>2839.4</ele><time>2026-05-04T13:10:30Z</time></trkpt><trkpt lat="31.616740011373384" lon="-6.374297383160731"><ele>2845.8</ele><time>2026-05-04T13:10:31.001Z</time></trkpt><trkpt lat="31.61664703648878" lon="-6.374365009613727"><ele>2852.2</ele><time>2026-05-04T13:10:32.001Z</time></trkpt><trkpt lat="31.616558015561637" lon="-6.3744410280775465"><ele>2858.6</ele><time>2026-05-04T13:10:33.001Z</time></trkpt><trkpt lat="31.61646227154009" lon="-6.374511200162117"><ele>2865.0</ele><time>2026-05-04T13:10:34.001Z</time></trkpt><trkpt lat="31.61635835804793" lon="-6.374570641599588"><ele>2865.0</ele><time>2026-05-04T13:10:35.001Z</time></trkpt><trkpt lat="31.616236800903987" lon="-6.374620937495772"><ele>2865.0</ele><time>2026-05-04T13:10:36.001Z</time></trkpt><trkpt lat="31.61611144477725" lon="-6.374668614236963"><ele>2865.0</ele><time>2026-05-04T13:10:37.001Z</time></trkpt><trkpt lat="31.615990010043976" lon="-6.374730621392114"><ele>2865.0</ele><time>2026-05-04T13:10:38.001Z</time></trkpt><trkpt lat="31.61589217036908" lon="-6.37484195773594"><ele>2863.8</ele><time>2026-05-04T13:10:39.001Z</time></trkpt><trkpt lat="31.615782270277098" lon="-6.374925530067189"><ele>2862.6</ele><time>2026-05-04T13:10:40.001Z</time></trkpt><trkpt lat="31.615670639249032" lon="-6.374985360021528"><ele>2861.3999999999996</ele><time>2026-05-04T13:10:41.001Z</time></trkpt><trkpt lat="31.615581307357044" lon="-6.375037526703885"><ele>2860.2</ele><time>2026-05-04T13:10:42.001Z</time></trkpt><trkpt lat="31.61550520954731" lon="-6.375085944363709"><ele>2859.0</ele><time>2026-05-04T13:10:43.001Z</time></trkpt><trkpt lat="31.615433636529982" lon="-6.3751589948280865"><ele>2859.0</ele><time>2026-05-04T13:10:44.001Z</time></trkpt><trkpt lat="31.615374093246658" lon="-6.375244267665741"><ele>2859.0</ele><time>2026-05-04T13:10:45.001Z</time></trkpt><trkpt lat="31.615345656599125" lon="-6.3753486758990086"><ele>2859.0</ele><time>2026-05-04T13:10:46.001Z</time></trkpt><trkpt lat="31.615363983741283" lon="-6.3754611706374"><ele>2859.0</ele><time>2026-05-04T13:10:47.001Z</time></trkpt><trkpt lat="31.615334260434874" lon="-6.375568054148945"><ele>2859.0</ele><time>2026-05-04T13:10:48.001Z</time></trkpt><trkpt lat="31.615313337844565" lon="-6.375666702701756"><ele>2862.6</ele><time>2026-05-04T13:10:49.001Z</time></trkpt><trkpt lat="31.615268868511997" lon="-6.375756136149688"><ele>2866.2</ele><time>2026-05-04T13:10:50.001Z</time></trkpt><trkpt lat="31.615202333318557" lon="-6.375842232723826"><ele>2869.7999999999997</ele><time>2026-05-04T13:10:51.001Z</time></trkpt><trkpt lat="31.615120667884742" lon="-6.37592002330181"><ele>2873.3999999999996</ele><time>2026-05-04T13:10:52.001Z</time></trkpt><trkpt lat="31.615059539434206" lon="-6.376009889704249"><ele>2877.0</ele><time>2026-05-04T13:10:53.001Z</time></trkpt><trkpt lat="31.615014691808437" lon="-6.376097529960141"><ele>2877.0</ele><time>2026-05-04T13:10:54.001Z</time></trkpt><trkpt lat="31.615012338707015" lon="-6.376208878268975"><ele>2877.0</ele><time>2026-05-04T13:10:55.001Z</time></trkpt><trkpt lat="31.61499192359917" lon="-6.3763345094627395"><ele>2877.0</ele><time>2026-05-04T13:10:56Z</time></trkpt><trkpt lat="31.614973553480134" lon="-6.376444792319611"><ele>2877.0</ele><time>2026-05-04T13:10:57Z</time></trkpt><trkpt lat="31.614951294476633" lon="-6.376544885790458"><ele>2877.0</ele><time>2026-05-04T13:10:58Z</time></trkpt><trkpt lat="31.61492602801594" lon="-6.376633872076597"><ele>2874.3999999999996</ele><time>2026-05-04T13:10:59Z</time></trkpt><trkpt lat="31.614886557676073" lon="-6.376714022408406"><ele>2871.7999999999997</ele><time>2026-05-04T13:11:00Z</time></trkpt><trkpt lat="31.61481144303908" lon="-6.37677760973463"><ele>2869.2</ele><time>2026-05-04T13:11:01Z</time></trkpt><trkpt lat="31.614755344933698" lon="-6.376865969623637"><ele>2866.6</ele><time>2026-05-04T13:11:02Z</time></trkpt><trkpt lat="31.614654968474934" lon="-6.376933858623119"><ele>2864.0</ele><time>2026-05-04T13:11:03Z</time></trkpt><trkpt lat="31.61453882955148" lon="-6.376976695533923"><ele>2865.25</ele><time>2026-05-04T13:11:04Z</time></trkpt><trkpt lat="31.614425568774887" lon="-6.3770402311393175"><ele>2866.5</ele><time>2026-05-04T13:11:05Z</time></trkpt><trkpt lat="31.61432241624147" lon="-6.377130440214085"><ele>2867.75</ele><time>2026-05-04T13:11:06Z</time></trkpt><trkpt lat="31.61422513208947" lon="-6.377218152947585"><ele>2869.0</ele><time>2026-05-04T13:11:07Z</time></trkpt><trkpt lat="31.614156003203433" lon="-6.3773070651714105"><ele>2869.0</ele><time>2026-05-04T13:11:08Z</time></trkpt><trkpt lat="31.614101595854944" lon="-6.37740784326226"><ele>2869.0</ele><time>2026-05-04T13:11:09Z</time></trkpt><trkpt lat="31.61405243351591" lon="-6.377527149519966"><ele>2869.0</ele><time>2026-05-04T13:11:10Z</time></trkpt><trkpt lat="31.613997819969466" lon="-6.377639077047026"><ele>2869.0</ele><time>2026-05-04T13:11:11Z</time></trkpt><trkpt lat="31.613935608741546" lon="-6.3777399068700475"><ele>2869.0</ele><time>2026-05-04T13:11:12Z</time></trkpt><trkpt lat="31.613853435126114" lon="-6.377826862865191"><ele>2869.0</ele><time>2026-05-04T13:11:13Z</time></trkpt><trkpt lat="31.613752697814054" lon="-6.3778844189093915"><ele>2869.0</ele><time>2026-05-04T13:11:14Z</time></trkpt><trkpt lat="31.613652000173893" lon="-6.377949185378067"><ele>2869.0</ele><time>2026-05-04T13:11:15Z</time></trkpt><trkpt lat="31.61357487843923" lon="-6.378049507985759"><ele>2869.0</ele><time>2026-05-04T13:11:16Z</time></trkpt><trkpt lat="31.613506420815114" lon="-6.378148335799847"><ele>2874.75</ele><time>2026-05-04T13:11:17Z</time></trkpt><trkpt lat="31.613437839794987" lon="-6.378254637534012"><ele>2880.5</ele><time>2026-05-04T13:11:18Z</time></trkpt><trkpt lat="31.61341114483633" lon="-6.378399966351575"><ele>2886.25</ele><time>2026-05-04T13:11:19Z</time></trkpt><trkpt lat="31.61335859393857" lon="-6.378542413392247"><ele>2892.0</ele><time>2026-05-04T13:11:20Z</time></trkpt><trkpt lat="31.613305607772176" lon="-6.37868406111693"><ele>2892.0</ele><time>2026-05-04T13:11:21Z</time></trkpt><trkpt lat="31.613254238057575" lon="-6.378834862331878"><ele>2892.0</ele><time>2026-05-04T13:11:22Z</time></trkpt><trkpt lat="31.6131946112251" lon="-6.378989571168342"><ele>2892.0</ele><time>2026-05-04T13:11:23Z</time></trkpt><trkpt lat="31.613132124770328" lon="-6.379136655019911"><ele>2892.0</ele><time>2026-05-04T13:11:24Z</time></trkpt><trkpt lat="31.613081844371152" lon="-6.3792646079237025"><ele>2889.2</ele><time>2026-05-04T13:11:25Z</time></trkpt><trkpt lat="31.61303790362609" lon="-6.379386433927267"><ele>2886.3999999999996</ele><time>2026-05-04T13:11:26Z</time></trkpt><trkpt lat="31.61299887165507" lon="-6.379492665719733"><ele>2883.6000000000004</ele><time>2026-05-04T13:11:27Z</time></trkpt><trkpt lat="31.612963154917335" lon="-6.37958135477768"><ele>2880.8</ele><time>2026-05-04T13:11:28Z</time></trkpt><trkpt lat="31.612912050833735" lon="-6.379655678386147"><ele>2878.0</ele><time>2026-05-04T13:11:29Z</time></trkpt><trkpt lat="31.6128411558444" lon="-6.379720989585145"><ele>2881.75</ele><time>2026-05-04T13:11:30Z</time></trkpt><trkpt lat="31.612756196427394" lon="-6.379773697681968"><ele>2885.5</ele><time>2026-05-04T13:11:31Z</time></trkpt><trkpt lat="31.61265340259048" lon="-6.3798180020032405"><ele>2889.25</ele><time>2026-05-04T13:11:32Z</time></trkpt><trkpt lat="31.612540583789595" lon="-6.379874845786885"><ele>2893.0</ele><time>2026-05-04T13:11:33Z</time></trkpt><trkpt lat="31.612419423421436" lon="-6.379940095273546"><ele>2893.0</ele><time>2026-05-04T13:11:34Z</time></trkpt><trkpt lat="31.61229042273851" lon="-6.380006182045766"><ele>2893.0</ele><time>2026-05-04T13:11:35Z</time></trkpt><trkpt lat="31.61216064347258" lon="-6.38007506344067"><ele>2893.0</ele><time>2026-05-04T13:11:36Z</time></trkpt><trkpt lat="31.612025281180337" lon="-6.3801428336035135"><ele>2893.0</ele><time>2026-05-04T13:11:37Z</time></trkpt><trkpt lat="31.61189051595679" lon="-6.380208679465755"><ele>2899.3333333333335</ele><time>2026-05-04T13:11:38Z</time></trkpt><trkpt lat="31.611760078245805" lon="-6.3802826853878685"><ele>2905.6666666666665</ele><time>2026-05-04T13:11:39Z</time></trkpt><trkpt lat="31.611627206272203" lon="-6.380361842331245"><ele>2912.0</ele><time>2026-05-04T13:11:40Z</time></trkpt><trkpt lat="31.611485713438707" lon="-6.38044011193299"><ele>2910.5</ele><time>2026-05-04T13:11:41Z</time></trkpt><trkpt lat="31.611344515136594" lon="-6.380520287688285"><ele>2909.0</ele><time>2026-05-04T13:11:42Z</time></trkpt><trkpt lat="31.61121481430682" lon="-6.380589360604224"><ele>2907.5</ele><time>2026-05-04T13:11:43Z</time></trkpt><trkpt lat="31.61110363418993" lon="-6.3806770327900715"><ele>2906.0</ele><time>2026-05-04T13:11:44Z</time></trkpt><trkpt lat="31.6109921927147" lon="-6.380758693036567"><ele>2906.0</ele><time>2026-05-04T13:11:45Z</time></trkpt><trkpt lat="31.61086828815133" lon="-6.380833837324648"><ele>2906.0</ele><time>2026-05-04T13:11:46Z</time></trkpt><trkpt lat="31.610762818233624" lon="-6.3809510167221575"><ele>2906.0</ele><time>2026-05-04T13:11:47Z</time></trkpt><trkpt lat="31.61068380124223" lon="-6.38109636445956"><ele>2906.0</ele><time>2026-05-04T13:11:48Z</time></trkpt><trkpt lat="31.61061582763363" lon="-6.381241360517327"><ele>2902.5</ele><time>2026-05-04T13:11:49Z</time></trkpt><trkpt lat="31.610563341869746" lon="-6.381396976957573"><ele>2899.0</ele><time>2026-05-04T13:11:50Z</time></trkpt><trkpt lat="31.610485461025895" lon="-6.381522915237361"><ele>2895.5</ele><time>2026-05-04T13:11:51Z</time></trkpt><trkpt lat="31.610440356255555" lon="-6.381663837836495"><ele>2892.0</ele><time>2026-05-04T13:11:52Z</time></trkpt><trkpt lat="31.61039319717824" lon="-6.3817843606688545"><ele>2892.0</ele><time>2026-05-04T13:11:53Z</time></trkpt><trkpt lat="31.610349739936716" lon="-6.3818855887187045"><ele>2892.0</ele><time>2026-05-04T13:11:54Z</time></trkpt><trkpt lat="31.610309542517932" lon="-6.381974604990035"><ele>2892.0</ele><time>2026-05-04T13:11:55Z</time></trkpt><trkpt lat="31.610273183852705" lon="-6.382045813019107"><ele>2892.0</ele><time>2026-05-04T13:11:56Z</time></trkpt><trkpt lat="31.610208851936445" lon="-6.382156886042871"><ele>2892.0</ele><time>2026-05-04T13:11:58Z</time></trkpt><trkpt lat="31.61014655937712" lon="-6.382248896490987"><ele>2895.3333333333335</ele><time>2026-05-04T13:12:00Z</time></trkpt><trkpt lat="31.6101160996692" lon="-6.382342059229035"><ele>2898.6666666666665</ele><time>2026-05-04T13:12:02Z</time></trkpt><trkpt lat="31.610079058166317" lon="-6.382417207008555"><ele>2902.0</ele><time>2026-05-04T13:12:04Z</time></trkpt><trkpt lat="31.61004139139583" lon="-6.382494267273608"><ele>2905.333333333333</ele><time>2026-05-04T13:12:06Z</time></trkpt><trkpt lat="31.60999918972679" lon="-6.382579198627927"><ele>2908.6666666666665</ele><time>2026-05-04T13:12:08Z</time></trkpt><trkpt lat="31.6099650654339" lon="-6.382676868484051"><ele>2912.0</ele><time>2026-05-04T13:12:10Z</time></trkpt><trkpt lat="31.609944670799337" lon="-6.382767022605126"><ele>2912.0</ele><time>2026-05-04T13:12:12Z</time></trkpt><trkpt lat="31.60993037724953" lon="-6.3828437355240535"><ele>2912.0</ele><time>2026-05-04T13:12:20Z</time></trkpt><trkpt lat="31.60988133894484" lon="-6.382998425385422"><ele>2912.0</ele><time>2026-05-04T13:12:22Z</time></trkpt><trkpt lat="31.60982653424322" lon="-6.383068725255011"><ele>2912.0</ele><time>2026-05-04T13:12:23Z</time></trkpt><trkpt lat="31.609794576434954" lon="-6.383140323675882"><ele>2912.0</ele><time>2026-05-04T13:12:24Z</time></trkpt><trkpt lat="31.609762980349476" lon="-6.383212437691714"><ele>2912.0</ele><time>2026-05-04T13:12:25Z</time></trkpt><trkpt lat="31.609746921016793" lon="-6.38335415816616"><ele>2912.6</ele><time>2026-05-04T13:12:27Z</time></trkpt><trkpt lat="31.609759395736603" lon="-6.383490674118152"><ele>2913.2</ele><time>2026-05-04T13:12:29Z</time></trkpt><trkpt lat="31.609781076615274" lon="-6.3836356562111485"><ele>2913.8</ele><time>2026-05-04T13:12:31Z</time></trkpt><trkpt lat="31.609791638018535" lon="-6.383721967113335"><ele>2914.4</ele><time>2026-05-04T13:12:32Z</time></trkpt><trkpt lat="31.609796489642154" lon="-6.383802750747655"><ele>2915.0</ele><time>2026-05-04T13:12:33Z</time></trkpt><trkpt lat="31.60980113357338" lon="-6.3838836528700735"><ele>2915.0</ele><time>2026-05-04T13:12:34Z</time></trkpt><trkpt lat="31.609780761740605" lon="-6.383985911244986"><ele>2915.0</ele><time>2026-05-04T13:12:35Z</time></trkpt><trkpt lat="31.609765928102806" lon="-6.384059435796731"><ele>2915.0</ele><time>2026-05-04T13:12:36.001Z</time></trkpt><trkpt lat="31.6097135445538" lon="-6.384139450365889"><ele>2915.0</ele><time>2026-05-04T13:12:37.001Z</time></trkpt><trkpt lat="31.609679433252897" lon="-6.384206535470633"><ele>2915.0</ele><time>2026-05-04T13:12:38.001Z</time></trkpt><trkpt lat="31.609628418699813" lon="-6.38427825046477"><ele>2915.0</ele><time>2026-05-04T13:12:39.001Z</time></trkpt><trkpt lat="31.609580498159392" lon="-6.384341766215367"><ele>2915.0</ele><time>2026-05-04T13:12:40.001Z</time></trkpt><trkpt lat="31.60953365601221" lon="-6.384403775741648"><ele>2915.0</ele><time>2026-05-04T13:12:41.001Z</time></trkpt><trkpt lat="31.60948704906031" lon="-6.3844657379351775"><ele>2915.0</ele><time>2026-05-04T13:12:42.001Z</time></trkpt><trkpt lat="31.609423054377693" lon="-6.384516470508021"><ele>2915.0</ele><time>2026-05-04T13:12:43.001Z</time></trkpt><trkpt lat="31.60936832267947" lon="-6.384558925498603"><ele>2915.0</ele><time>2026-05-04T13:12:44.001Z</time></trkpt><trkpt lat="31.609310387468287" lon="-6.384624630961483"><ele>2915.0</ele><time>2026-05-04T13:12:45.001Z</time></trkpt><trkpt lat="31.609257311085354" lon="-6.384684826171317"><ele>2915.0</ele><time>2026-05-04T13:12:46.001Z</time></trkpt><trkpt lat="31.609241886417692" lon="-6.384758496443236"><ele>2915.0</ele><time>2026-05-04T13:12:47.001Z</time></trkpt><trkpt lat="31.60920497769495" lon="-6.384829332038157"><ele>2915.0</ele><time>2026-05-04T13:12:48.001Z</time></trkpt><trkpt lat="31.609163618638096" lon="-6.384918995865957"><ele>2915.0</ele><time>2026-05-04T13:12:49.001Z</time></trkpt><trkpt lat="31.609114523073668" lon="-6.384985758524829"><ele>2915.0</ele><time>2026-05-04T13:12:50.001Z</time></trkpt><trkpt lat="31.609067546741496" lon="-6.385051382132687"><ele>2915.0</ele><time>2026-05-04T13:12:51.001Z</time></trkpt><trkpt lat="31.609022374998855" lon="-6.385115514146638"><ele>2915.0</ele><time>2026-05-04T13:12:52.001Z</time></trkpt><trkpt lat="31.608935470827685" lon="-6.385160807948404"><ele>2915.0</ele><time>2026-05-04T13:12:53.001Z</time></trkpt><trkpt lat="31.608883631519877" lon="-6.3852047893779265"><ele>2915.0</ele><time>2026-05-04T13:12:54.001Z</time></trkpt><trkpt lat="31.608830706514432" lon="-6.385249751068262"><ele>2915.0</ele><time>2026-05-04T13:12:55.001Z</time></trkpt><trkpt lat="31.60877579927708" lon="-6.385296534888247"><ele>2915.0</ele><time>2026-05-04T13:12:56.001Z</time></trkpt><trkpt lat="31.60871723979935" lon="-6.3853465761896775"><ele>2915.0</ele><time>2026-05-04T13:12:57.001Z</time></trkpt><trkpt lat="31.608662892287644" lon="-6.385400421204886"><ele>2915.0</ele><time>2026-05-04T13:12:58.001Z</time></trkpt><trkpt lat="31.608613008847737" lon="-6.385450314536825"><ele>2915.0</ele><time>2026-05-04T13:12:59.001Z</time></trkpt><trkpt lat="31.608562093502652" lon="-6.385501027280593"><ele>2915.0</ele><time>2026-05-04T13:13:00.001Z</time></trkpt><trkpt lat="31.608509686901993" lon="-6.385553225361491"><ele>2915.0</ele><time>2026-05-04T13:13:01.001Z</time></trkpt><trkpt lat="31.608464613992112" lon="-6.385607609239844"><ele>2915.0</ele><time>2026-05-04T13:13:02.001Z</time></trkpt><trkpt lat="31.60837863656901" lon="-6.3857228142572025"><ele>2915.0</ele><time>2026-05-04T13:13:04Z</time></trkpt><trkpt lat="31.60833169326899" lon="-6.3857849486043925"><ele>2915.0</ele><time>2026-05-04T13:13:05Z</time></trkpt><trkpt lat="31.60828373024657" lon="-6.385848432763118"><ele>2915.0</ele><time>2026-05-04T13:13:06Z</time></trkpt><trkpt lat="31.60823560272346" lon="-6.385913597388974"><ele>2915.0</ele><time>2026-05-04T13:13:07Z</time></trkpt><trkpt lat="31.608188690999654" lon="-6.385978656972275"><ele>2915.0</ele><time>2026-05-04T13:13:08Z</time></trkpt><trkpt lat="31.608139777038343" lon="-6.386046899231121"><ele>2915.0</ele><time>2026-05-04T13:13:09Z</time></trkpt><trkpt lat="31.608095456451" lon="-6.386108787213712"><ele>2915.0</ele><time>2026-05-04T13:13:10Z</time></trkpt><trkpt lat="31.608051019517724" lon="-6.386171379411505"><ele>2915.0</ele><time>2026-05-04T13:13:11Z</time></trkpt><trkpt lat="31.608011063734274" lon="-6.386234951212152"><ele>2915.0</ele><time>2026-05-04T13:13:12Z</time></trkpt><trkpt lat="31.607972374550958" lon="-6.386298315169973"><ele>2915.0</ele><time>2026-05-04T13:13:13Z</time></trkpt><trkpt lat="31.607935647273823" lon="-6.386358362375291"><ele>2915.0</ele><time>2026-05-04T13:13:14Z</time></trkpt><trkpt lat="31.60783262674037" lon="-6.386458356826829"><ele>2915.0</ele><time>2026-05-04T13:13:16Z</time></trkpt><trkpt lat="31.60777649571819" lon="-6.386494581835893"><ele>2915.0</ele><time>2026-05-04T13:13:17Z</time></trkpt><trkpt lat="31.60767304427179" lon="-6.386581850743329"><ele>2915.0</ele><time>2026-05-04T13:13:19Z</time></trkpt><trkpt lat="31.607568767085365" lon="-6.3866438307936155"><ele>2915.0</ele><time>2026-05-04T13:13:21Z</time></trkpt><trkpt lat="31.607484535216503" lon="-6.386698922441932"><ele>2915.0</ele><time>2026-05-04T13:13:23Z</time></trkpt><trkpt lat="31.607432653003386" lon="-6.386824339007794"><ele>2915.0</ele><time>2026-05-04T13:13:25Z</time></trkpt><trkpt lat="31.60739477140532" lon="-6.386902961640836"><ele>2915.0</ele><time>2026-05-04T13:13:26Z</time></trkpt><trkpt lat="31.607350253127148" lon="-6.386978320555324"><ele>2915.0</ele><time>2026-05-04T13:13:27Z</time></trkpt><trkpt lat="31.607301380846437" lon="-6.387054498123108"><ele>2915.0</ele><time>2026-05-04T13:13:28Z</time></trkpt><trkpt lat="31.607253716761" lon="-6.387129330469571"><ele>2915.0</ele><time>2026-05-04T13:13:29Z</time></trkpt><trkpt lat="31.607205306694507" lon="-6.38720530936367"><ele>2915.0</ele><time>2026-05-04T13:13:30Z</time></trkpt><trkpt lat="31.607156741310263" lon="-6.387280572230301"><ele>2915.0</ele><time>2026-05-04T13:13:31Z</time></trkpt><trkpt lat="31.6071087940897" lon="-6.3873548769221165"><ele>2915.0</ele><time>2026-05-04T13:13:32Z</time></trkpt><trkpt lat="31.60705994171814" lon="-6.387431625530611"><ele>2915.0</ele><time>2026-05-04T13:13:33Z</time></trkpt><trkpt lat="31.607012015481477" lon="-6.387507402882994"><ele>2915.0</ele><time>2026-05-04T13:13:34Z</time></trkpt><trkpt lat="31.606953794420438" lon="-6.38756694519732"><ele>2915.0</ele><time>2026-05-04T13:13:35Z</time></trkpt><trkpt lat="31.606907911263846" lon="-6.387645328512109"><ele>2915.0</ele><time>2026-05-04T13:13:36Z</time></trkpt><trkpt lat="31.606865603629135" lon="-6.387723967845687"><ele>2915.0</ele><time>2026-05-04T13:13:37Z</time></trkpt><trkpt lat="31.60681903994022" lon="-6.387802016790028"><ele>2915.0</ele><time>2026-05-04T13:13:38Z</time></trkpt><trkpt lat="31.606774656094256" lon="-6.387873036499618"><ele>2915.0</ele><time>2026-05-04T13:13:39Z</time></trkpt><trkpt lat="31.606729060995995" lon="-6.387949364743199"><ele>2915.0</ele><time>2026-05-04T13:13:40Z</time></trkpt><trkpt lat="31.60668138148825" lon="-6.3880258557714065"><ele>2915.0</ele><time>2026-05-04T13:13:41Z</time></trkpt><trkpt lat="31.606636871884053" lon="-6.38809310410619"><ele>2915.0</ele><time>2026-05-04T13:13:42Z</time></trkpt><trkpt lat="31.606594642652528" lon="-6.388158449743552"><ele>2915.0</ele><time>2026-05-04T13:13:43Z</time></trkpt><trkpt lat="31.606557040030058" lon="-6.3882215780980784"><ele>2915.0</ele><time>2026-05-04T13:13:44Z</time></trkpt><trkpt lat="31.606520084031207" lon="-6.388282212622525"><ele>2915.0</ele><time>2026-05-04T13:13:45Z</time></trkpt><trkpt lat="31.606466373123027" lon="-6.388383291779254"><ele>2915.0</ele><time>2026-05-04T13:13:47Z</time></trkpt><trkpt lat="31.606409532060372" lon="-6.38847335274664"><ele>2915.0</ele><time>2026-05-04T13:13:49Z</time></trkpt><trkpt lat="31.60633620973805" lon="-6.3884953433663885"><ele>2915.0</ele><time>2026-05-04T13:13:51Z</time></trkpt><trkpt lat="31.606292548135464" lon="-6.388407946611543"><ele>2915.0</ele><time>2026-05-04T13:13:54Z</time></trkpt><trkpt lat="31.606319171568355" lon="-6.388284539530558"><ele>2915.0</ele><time>2026-05-04T13:13:56Z</time></trkpt><trkpt lat="31.606362172239873" lon="-6.388141343720051"><ele>2915.0</ele><time>2026-05-04T13:13:58Z</time></trkpt><trkpt lat="31.60639018053038" lon="-6.38807498957301"><ele>2915.0</ele><time>2026-05-04T13:13:59Z</time></trkpt><trkpt lat="31.6064207023732" lon="-6.38800268090874"><ele>2915.0</ele><time>2026-05-04T13:14:00Z</time></trkpt><trkpt lat="31.606451439014517" lon="-6.387929481143522"><ele>2915.0</ele><time>2026-05-04T13:14:01Z</time></trkpt><trkpt lat="31.606492781517453" lon="-6.387868859572424"><ele>2915.0</ele><time>2026-05-04T13:14:02Z</time></trkpt><trkpt lat="31.60651974609058" lon="-6.387755739094175"><ele>2915.0</ele><time>2026-05-04T13:14:04Z</time></trkpt><trkpt lat="31.60653901829227" lon="-6.387666551235345"><ele>2915.0</ele><time>2026-05-04T13:16:06Z</time></trkpt><trkpt lat="31.606592113292876" lon="-6.387555229463838"><ele>2915.0</ele><time>2026-05-04T13:16:08Z</time></trkpt><trkpt lat="31.60664762368469" lon="-6.387465538619606"><ele>2915.0</ele><time>2026-05-04T13:16:09Z</time></trkpt><trkpt lat="31.606696483687365" lon="-6.3873752367376415"><ele>2915.0</ele><time>2026-05-04T13:16:10Z</time></trkpt><trkpt lat="31.60670273594061" lon="-6.3872357630287295"><ele>2915.0</ele><time>2026-05-04T13:16:12Z</time></trkpt><trkpt lat="31.6067462052344" lon="-6.38714339247056"><ele>2915.0</ele><time>2026-05-04T13:16:14Z</time></trkpt><trkpt lat="31.60678123294322" lon="-6.3870742370138585"><ele>2915.0</ele><time>2026-05-04T13:16:22Z</time></trkpt><trkpt lat="31.6068137647211" lon="-6.387007082178618"><ele>2915.0</ele><time>2026-05-04T13:16:23Z</time></trkpt><trkpt lat="31.60685241082348" lon="-6.386923114687029"><ele>2915.0</ele><time>2026-05-04T13:16:24Z</time></trkpt><trkpt lat="31.606894582319452" lon="-6.386847798182471"><ele>2915.0</ele><time>2026-05-04T13:16:25Z</time></trkpt><trkpt lat="31.60693253588322" lon="-6.386773671639537"><ele>2915.0</ele><time>2026-05-04T13:16:26Z</time></trkpt><trkpt lat="31.606974516735637" lon="-6.386701061136923"><ele>2915.0</ele><time>2026-05-04T13:16:27Z</time></trkpt><trkpt lat="31.607044145767166" lon="-6.386605030571387"><ele>2915.0</ele><time>2026-05-04T13:16:29Z</time></trkpt><trkpt lat="31.607097592233178" lon="-6.386534561597322"><ele>2915.0</ele><time>2026-05-04T13:16:31Z</time></trkpt><trkpt lat="31.60713674300406" lon="-6.3864659865555735"><ele>2915.0</ele><time>2026-05-04T13:16:33Z</time></trkpt><trkpt lat="31.607104973278272" lon="-6.386367181630625"><ele>2915.0</ele><time>2026-05-04T13:16:36Z</time></trkpt><trkpt lat="31.607011351750142" lon="-6.386393800520954"><ele>2915.0</ele><time>2026-05-04T13:16:39Z</time></trkpt><trkpt lat="31.606932255951232" lon="-6.386501839082535"><ele>2915.0</ele><time>2026-05-04T13:16:41Z</time></trkpt><trkpt lat="31.606866903155677" lon="-6.3865714187779625"><ele>2915.0</ele><time>2026-05-04T13:16:42Z</time></trkpt><trkpt lat="31.606795437922404" lon="-6.386649138145776"><ele>2915.0</ele><time>2026-05-04T13:16:43Z</time></trkpt><trkpt lat="31.60672587087269" lon="-6.386722168468943"><ele>2915.0</ele><time>2026-05-04T13:16:44Z</time></trkpt><trkpt lat="31.606655966499797" lon="-6.386790670402926"><ele>2915.0</ele><time>2026-05-04T13:16:45Z</time></trkpt><trkpt lat="31.606600520845628" lon="-6.38686646281596"><ele>2915.0</ele><time>2026-05-04T13:16:46Z</time></trkpt><trkpt lat="31.60655257256211" lon="-6.386941943343429"><ele>2915.0</ele><time>2026-05-04T13:16:47Z</time></trkpt><trkpt lat="31.606496097999504" lon="-6.387015226882775"><ele>2915.0</ele><time>2026-05-04T13:16:48Z</time></trkpt><trkpt lat="31.60644738523895" lon="-6.387090019494338"><ele>2899.833333333333</ele><time>2026-05-04T13:16:49Z</time></trkpt><trkpt lat="31.60640201316392" lon="-6.387177638189041"><ele>2884.6666666666665</ele><time>2026-05-04T13:16:50Z</time></trkpt><trkpt lat="31.606349185461518" lon="-6.387264675006498"><ele>2869.5</ele><time>2026-05-04T13:16:51Z</time></trkpt><trkpt lat="31.606291479449926" lon="-6.387352458197542"><ele>2854.3333333333335</ele><time>2026-05-04T13:16:52.001Z</time></trkpt><trkpt lat="31.606230949086076" lon="-6.387432976843161"><ele>2839.166666666667</ele><time>2026-05-04T13:16:53Z</time></trkpt><trkpt lat="31.606172403396876" lon="-6.387505023846588"><ele>2824.0</ele><time>2026-05-04T13:16:54.001Z</time></trkpt><trkpt lat="31.60611995323198" lon="-6.3875720534730664"><ele>2824.0</ele><time>2026-05-04T13:16:55.001Z</time></trkpt><trkpt lat="31.606068638783835" lon="-6.387636890238394"><ele>2824.0</ele><time>2026-05-04T13:16:56Z</time></trkpt><trkpt lat="31.606022419072183" lon="-6.387697422994745"><ele>2824.0</ele><time>2026-05-04T13:16:57Z</time></trkpt><trkpt lat="31.60597935334641" lon="-6.387753909854518"><ele>2824.0</ele><time>2026-05-04T13:16:58.001Z</time></trkpt><trkpt lat="31.60591747331537" lon="-6.387832260939392"><ele>2824.0</ele><time>2026-05-04T13:17:00Z</time></trkpt><trkpt lat="31.605848906919565" lon="-6.3878121711617775"><ele>2824.0</ele><time>2026-05-04T13:17:02Z</time></trkpt><trkpt lat="31.605829226409575" lon="-6.387725041215968"><ele>2824.0</ele><time>2026-05-04T13:17:04Z</time></trkpt><trkpt lat="31.60587625914489" lon="-6.387608354336149"><ele>2824.0</ele><time>2026-05-04T13:17:06Z</time></trkpt><trkpt lat="31.605923195385632" lon="-6.387531402536988"><ele>2824.0</ele><time>2026-05-04T13:17:07Z</time></trkpt><trkpt lat="31.605967422817347" lon="-6.38743467162511"><ele>2824.0</ele><time>2026-05-04T13:17:08Z</time></trkpt><trkpt lat="31.606010675452684" lon="-6.387328196685071"><ele>2824.0</ele><time>2026-05-04T13:17:09Z</time></trkpt><trkpt lat="31.60605286353339" lon="-6.387217704634067"><ele>2824.0</ele><time>2026-05-04T13:17:10Z</time></trkpt><trkpt lat="31.60609849356467" lon="-6.387111440779228"><ele>2820.2</ele><time>2026-05-04T13:17:11Z</time></trkpt><trkpt lat="31.60614648387725" lon="-6.3870130838658"><ele>2816.3999999999996</ele><time>2026-05-04T13:17:12Z</time></trkpt><trkpt lat="31.606202505072194" lon="-6.386925372531364"><ele>2812.6</ele><time>2026-05-04T13:17:13Z</time></trkpt><trkpt lat="31.606237097942177" lon="-6.3868185214808015"><ele>2808.8</ele><time>2026-05-04T13:17:14Z</time></trkpt><trkpt lat="31.606283825495503" lon="-6.386725190219299"><ele>2805.0</ele><time>2026-05-04T13:17:15Z</time></trkpt><trkpt lat="31.606332112194792" lon="-6.386642680489873"><ele>2805.0</ele><time>2026-05-04T13:17:16Z</time></trkpt><trkpt lat="31.606391727951255" lon="-6.386563067098681"><ele>2805.0</ele><time>2026-05-04T13:17:17Z</time></trkpt><trkpt lat="31.60645228330559" lon="-6.38648731500849"><ele>2805.0</ele><time>2026-05-04T13:17:18Z</time></trkpt><trkpt lat="31.606514278237654" lon="-6.38640605268202"><ele>2805.0</ele><time>2026-05-04T13:17:19Z</time></trkpt><trkpt lat="31.60657729544746" lon="-6.386312167064368"><ele>2805.0</ele><time>2026-05-04T13:17:20Z</time></trkpt><trkpt lat="31.606645900894954" lon="-6.386211225058351"><ele>2805.0</ele><time>2026-05-04T13:17:21Z</time></trkpt><trkpt lat="31.606712893224625" lon="-6.386119450529515"><ele>2805.0</ele><time>2026-05-04T13:17:22Z</time></trkpt><trkpt lat="31.60677447851844" lon="-6.386028776148526"><ele>2805.0</ele><time>2026-05-04T13:17:23Z</time></trkpt><trkpt lat="31.606839567472697" lon="-6.38592869733515"><ele>2805.0</ele><time>2026-05-04T13:17:24Z</time></trkpt><trkpt lat="31.60690695856304" lon="-6.3858327849285725"><ele>2805.0</ele><time>2026-05-04T13:17:25Z</time></trkpt><trkpt lat="31.60697943821987" lon="-6.385742145590512"><ele>2805.0</ele><time>2026-05-04T13:17:26Z</time></trkpt><trkpt lat="31.607057563097115" lon="-6.38563788642768"><ele>2805.0</ele><time>2026-05-04T13:17:27Z</time></trkpt><trkpt lat="31.607142937333066" lon="-6.385523954792144"><ele>2805.0</ele><time>2026-05-04T13:17:28Z</time></trkpt><trkpt lat="31.607217370805635" lon="-6.38541157358891"><ele>2805.0</ele><time>2026-05-04T13:17:29Z</time></trkpt><trkpt lat="31.60728402338746" lon="-6.385300409542727"><ele>2805.0</ele><time>2026-05-04T13:17:30Z</time></trkpt><trkpt lat="31.607348882479172" lon="-6.385186341585761"><ele>2805.0</ele><time>2026-05-04T13:17:31Z</time></trkpt><trkpt lat="31.607409490825606" lon="-6.38508097533575"><ele>2805.0</ele><time>2026-05-04T13:17:32Z</time></trkpt><trkpt lat="31.607471999826352" lon="-6.384982961934881"><ele>2805.0</ele><time>2026-05-04T13:17:33Z</time></trkpt><trkpt lat="31.60754846343646" lon="-6.384878024092697"><ele>2805.0</ele><time>2026-05-04T13:17:34Z</time></trkpt><trkpt lat="31.607616590060022" lon="-6.384779514247708"><ele>2797.6</ele><time>2026-05-04T13:17:35Z</time></trkpt><trkpt lat="31.6076773975484" lon="-6.3846595905318315"><ele>2790.2</ele><time>2026-05-04T13:17:36Z</time></trkpt><trkpt lat="31.607724484757927" lon="-6.384547842566035"><ele>2782.8</ele><time>2026-05-04T13:17:37Z</time></trkpt><trkpt lat="31.607763517146413" lon="-6.384435647264737"><ele>2775.4</ele><time>2026-05-04T13:17:38Z</time></trkpt><trkpt lat="31.60779723276277" lon="-6.3843336206364825"><ele>2768.0</ele><time>2026-05-04T13:17:39Z</time></trkpt><trkpt lat="31.607832443016335" lon="-6.3842367943696265"><ele>2773.333333333333</ele><time>2026-05-04T13:17:40Z</time></trkpt><trkpt lat="31.607873439683136" lon="-6.384147551098285"><ele>2778.6666666666665</ele><time>2026-05-04T13:17:41Z</time></trkpt><trkpt lat="31.60791182102096" lon="-6.384063891883832"><ele>2784.0</ele><time>2026-05-04T13:17:42Z</time></trkpt><trkpt lat="31.607958104795667" lon="-6.383987910898273"><ele>2789.3333333333335</ele><time>2026-05-04T13:17:43Z</time></trkpt><trkpt lat="31.60801544259765" lon="-6.383920043386101"><ele>2794.666666666667</ele><time>2026-05-04T13:17:44Z</time></trkpt><trkpt lat="31.60806436288275" lon="-6.383839830752965"><ele>2800.0</ele><time>2026-05-04T13:17:45Z</time></trkpt><trkpt lat="31.608075748926108" lon="-6.383741947592767"><ele>2800.0</ele><time>2026-05-04T13:17:46Z</time></trkpt><trkpt lat="31.608099360570602" lon="-6.38364666062742"><ele>2800.0</ele><time>2026-05-04T13:17:47Z</time></trkpt><trkpt lat="31.608126657659476" lon="-6.383561772685857"><ele>2800.0</ele><time>2026-05-04T13:17:48Z</time></trkpt><trkpt lat="31.60811291414052" lon="-6.383464182213052"><ele>2800.0</ele><time>2026-05-04T13:17:49Z</time></trkpt><trkpt lat="31.608089231550736" lon="-6.383365893701041"><ele>2800.0</ele><time>2026-05-04T13:17:50Z</time></trkpt><trkpt lat="31.60806648894308" lon="-6.3832723536683"><ele>2800.0</ele><time>2026-05-04T13:17:51Z</time></trkpt><trkpt lat="31.608052033506826" lon="-6.383178672287249"><ele>2800.0</ele><time>2026-05-04T13:17:52Z</time></trkpt><trkpt lat="31.60804961309937" lon="-6.383089917522189"><ele>2800.0</ele><time>2026-05-04T13:17:53Z</time></trkpt><trkpt lat="31.60805778135502" lon="-6.383001550353759"><ele>2800.0</ele><time>2026-05-04T13:17:54Z</time></trkpt><trkpt lat="31.608082864440092" lon="-6.382917354821959"><ele>2800.0</ele><time>2026-05-04T13:17:55Z</time></trkpt><trkpt lat="31.608124424637907" lon="-6.382837016655506"><ele>2800.0</ele><time>2026-05-04T13:17:56Z</time></trkpt><trkpt lat="31.608153020297586" lon="-6.382749845751512"><ele>2800.0</ele><time>2026-05-04T13:17:57Z</time></trkpt><trkpt lat="31.608192078123206" lon="-6.38267171625263"><ele>2797.8333333333335</ele><time>2026-05-04T13:17:58Z</time></trkpt><trkpt lat="31.608228785494873" lon="-6.382596948233634"><ele>2795.666666666667</ele><time>2026-05-04T13:17:59Z</time></trkpt><trkpt lat="31.608264983056067" lon="-6.382517766626423"><ele>2793.5</ele><time>2026-05-04T13:18:00Z</time></trkpt><trkpt lat="31.608314757033735" lon="-6.382443272032543"><ele>2791.3333333333335</ele><time>2026-05-04T13:18:01Z</time></trkpt><trkpt lat="31.608339916164315" lon="-6.382338999373474"><ele>2789.1666666666665</ele><time>2026-05-04T13:18:02Z</time></trkpt><trkpt lat="31.6083502184307" lon="-6.382248881357076"><ele>2787.0</ele><time>2026-05-04T13:18:03Z</time></trkpt><trkpt lat="31.60834762617437" lon="-6.382153322262812"><ele>2786.6</ele><time>2026-05-04T13:18:04Z</time></trkpt><trkpt lat="31.60835281478029" lon="-6.382046905550869"><ele>2786.2</ele><time>2026-05-04T13:18:05Z</time></trkpt><trkpt lat="31.608365378610447" lon="-6.381927595662301"><ele>2785.8</ele><time>2026-05-04T13:18:06Z</time></trkpt><trkpt lat="31.608357332987534" lon="-6.381800576741818"><ele>2785.4</ele><time>2026-05-04T13:18:07Z</time></trkpt><trkpt lat="31.608345943315904" lon="-6.381685326660541"><ele>2785.0</ele><time>2026-05-04T13:18:08Z</time></trkpt><trkpt lat="31.608321020350957" lon="-6.3815777670582525"><ele>2785.0</ele><time>2026-05-04T13:18:09Z</time></trkpt><trkpt lat="31.608309474652483" lon="-6.381462524038089"><ele>2785.0</ele><time>2026-05-04T13:18:10Z</time></trkpt><trkpt lat="31.608303224704073" lon="-6.381350737762941"><ele>2785.0</ele><time>2026-05-04T13:18:11Z</time></trkpt><trkpt lat="31.608296712086414" lon="-6.381234252407775"><ele>2785.0</ele><time>2026-05-04T13:18:12Z</time></trkpt><trkpt lat="31.608273343409806" lon="-6.381131280028732"><ele>2785.0</ele><time>2026-05-04T13:18:13Z</time></trkpt><trkpt lat="31.608260895314668" lon="-6.381032191149396"><ele>2785.3333333333335</ele><time>2026-05-04T13:18:14Z</time></trkpt><trkpt lat="31.608248827267584" lon="-6.3809361272478835"><ele>2785.666666666667</ele><time>2026-05-04T13:18:15Z</time></trkpt><trkpt lat="31.608225026000586" lon="-6.3808323879746265"><ele>2786.0</ele><time>2026-05-04T13:18:16Z</time></trkpt><trkpt lat="31.60819012311418" lon="-6.38072812097579"><ele>2786.3333333333335</ele><time>2026-05-04T13:18:17Z</time></trkpt><trkpt lat="31.608171429384562" lon="-6.380634479063262"><ele>2786.6666666666665</ele><time>2026-05-04T13:18:18Z</time></trkpt><trkpt lat="31.608152060836957" lon="-6.380540447542105"><ele>2787.0</ele><time>2026-05-04T13:18:19Z</time></trkpt><trkpt lat="31.60815342258073" lon="-6.380431883558947"><ele>2785.6</ele><time>2026-05-04T13:18:20Z</time></trkpt><trkpt lat="31.60816560235032" lon="-6.380322142559709"><ele>2784.2</ele><time>2026-05-04T13:18:21Z</time></trkpt><trkpt lat="31.60819293355322" lon="-6.380214257801606"><ele>2782.8</ele><time>2026-05-04T13:18:22Z</time></trkpt><trkpt lat="31.60823553509252" lon="-6.380121820058129"><ele>2781.4</ele><time>2026-05-04T13:18:23Z</time></trkpt><trkpt lat="31.608267728252507" lon="-6.380018334635962"><ele>2780.0</ele><time>2026-05-04T13:18:24Z</time></trkpt><trkpt lat="31.608289749974798" lon="-6.379914902032243"><ele>2780.0</ele><time>2026-05-04T13:18:25Z</time></trkpt><trkpt lat="31.608320664787115" lon="-6.379811650446317"><ele>2780.0</ele><time>2026-05-04T13:18:26Z</time></trkpt><trkpt lat="31.60834571528353" lon="-6.379709011272511"><ele>2780.0</ele><time>2026-05-04T13:18:27Z</time></trkpt><trkpt lat="31.608367555764623" lon="-6.379600550983189"><ele>2780.0</ele><time>2026-05-04T13:18:28Z</time></trkpt><trkpt lat="31.608394016112165" lon="-6.379493031677342"><ele>2780.0</ele><time>2026-05-04T13:18:29Z</time></trkpt><trkpt lat="31.60842006233086" lon="-6.379387683253411"><ele>2770.0</ele><time>2026-05-04T13:18:30Z</time></trkpt><trkpt lat="31.60844286064782" lon="-6.3792846242456696"><ele>2760.0</ele><time>2026-05-04T13:18:31Z</time></trkpt><trkpt lat="31.608461070627595" lon="-6.379181912329188"><ele>2750.0</ele><time>2026-05-04T13:18:32Z</time></trkpt><trkpt lat="31.608476321547354" lon="-6.379080119582262"><ele>2740.0</ele><time>2026-05-04T13:18:33Z</time></trkpt><trkpt lat="31.608493728869078" lon="-6.378980588328481"><ele>2730.0</ele><time>2026-05-04T13:18:34Z</time></trkpt><trkpt lat="31.60851748522856" lon="-6.378879028282818"><ele>2720.0</ele><time>2026-05-04T13:18:35Z</time></trkpt><trkpt lat="31.60853484689517" lon="-6.378781848900477"><ele>2720.0</ele><time>2026-05-04T13:18:36Z</time></trkpt><trkpt lat="31.608552906888242" lon="-6.3786808559551345"><ele>2720.0</ele><time>2026-05-04T13:18:37Z</time></trkpt><trkpt lat="31.608569599524788" lon="-6.378586366285931"><ele>2720.0</ele><time>2026-05-04T13:18:38Z</time></trkpt><trkpt lat="31.608588418224496" lon="-6.378483016671477"><ele>2720.0</ele><time>2026-05-04T13:18:39Z</time></trkpt><trkpt lat="31.608607718530806" lon="-6.3783778558735005"><ele>2720.0</ele><time>2026-05-04T13:18:40Z</time></trkpt><trkpt lat="31.608632632139777" lon="-6.378269102308848"><ele>2720.0</ele><time>2026-05-04T13:18:41Z</time></trkpt><trkpt lat="31.608661804695007" lon="-6.378158705046169"><ele>2720.0</ele><time>2026-05-04T13:18:42Z</time></trkpt><trkpt lat="31.608688207346475" lon="-6.378050072478963"><ele>2720.0</ele><time>2026-05-04T13:18:43Z</time></trkpt><trkpt lat="31.608719665664324" lon="-6.377940729668515"><ele>2720.0</ele><time>2026-05-04T13:18:44Z</time></trkpt><trkpt lat="31.608754677492627" lon="-6.377836774777399"><ele>2720.0</ele><time>2026-05-04T13:18:45Z</time></trkpt><trkpt lat="31.608785551276952" lon="-6.377736705502975"><ele>2720.0</ele><time>2026-05-04T13:18:46Z</time></trkpt><trkpt lat="31.608808564525454" lon="-6.377641698182892"><ele>2720.0</ele><time>2026-05-04T13:18:47Z</time></trkpt><trkpt lat="31.608821522168583" lon="-6.377555835456101"><ele>2720.0</ele><time>2026-05-04T13:18:48Z</time></trkpt><trkpt lat="31.608823364553984" lon="-6.377465062587551"><ele>2720.0</ele><time>2026-05-04T13:18:49Z</time></trkpt><trkpt lat="31.608806772288464" lon="-6.377369328073592"><ele>2720.0</ele><time>2026-05-04T13:18:50Z</time></trkpt><trkpt lat="31.608825255009087" lon="-6.377283048846049"><ele>2720.0</ele><time>2026-05-04T13:18:51Z</time></trkpt><trkpt lat="31.608826811321677" lon="-6.377206157524764"><ele>2720.0</ele><time>2026-05-04T13:18:52Z</time></trkpt><trkpt lat="31.6088021838961" lon="-6.377076959436277"><ele>2720.0</ele><time>2026-05-04T13:18:53Z</time></trkpt><trkpt lat="31.608777313123685" lon="-6.376955283879915"><ele>2720.0</ele><time>2026-05-04T13:18:54.001Z</time></trkpt><trkpt lat="31.60876810717762" lon="-6.3767968128499035"><ele>2720.0</ele><time>2026-05-04T13:18:56.001Z</time></trkpt><trkpt lat="31.60874911605852" lon="-6.376704963087843"><ele>2720.0</ele><time>2026-05-04T13:18:57.001Z</time></trkpt><trkpt lat="31.608729257754728" lon="-6.376624339621572"><ele>2720.0</ele><time>2026-05-04T13:18:58.001Z</time></trkpt><trkpt lat="31.608711228781207" lon="-6.376539633695829"><ele>2723.6666666666665</ele><time>2026-05-04T13:18:59.001Z</time></trkpt><trkpt lat="31.60870410238208" lon="-6.376453106273924"><ele>2727.333333333333</ele><time>2026-05-04T13:19:00.001Z</time></trkpt><trkpt lat="31.608709506233865" lon="-6.376365379203"><ele>2731.0</ele><time>2026-05-04T13:19:01.001Z</time></trkpt><trkpt lat="31.608715339469125" lon="-6.376275858853429"><ele>2734.6666666666665</ele><time>2026-05-04T13:19:02.001Z</time></trkpt><trkpt lat="31.608724596973605" lon="-6.376184721641438"><ele>2738.3333333333335</ele><time>2026-05-04T13:19:03.001Z</time></trkpt><trkpt lat="31.608736485658195" lon="-6.376101567457847"><ele>2742.0</ele><time>2026-05-04T13:19:04.001Z</time></trkpt><trkpt lat="31.60875056113029" lon="-6.3760058446874295"><ele>2742.0</ele><time>2026-05-04T13:19:05Z</time></trkpt><trkpt lat="31.6087665176615" lon="-6.375904237649728"><ele>2742.0</ele><time>2026-05-04T13:19:06Z</time></trkpt><trkpt lat="31.608784723187853" lon="-6.375801107209998"><ele>2742.0</ele><time>2026-05-04T13:19:07.001Z</time></trkpt><trkpt lat="31.60880886898111" lon="-6.375684671053216"><ele>2742.0</ele><time>2026-05-04T13:19:08Z</time></trkpt><trkpt lat="31.60882842933" lon="-6.375571705118902"><ele>2742.0</ele><time>2026-05-04T13:19:09Z</time></trkpt><trkpt lat="31.6088409621231" lon="-6.375458802285532"><ele>2739.3999999999996</ele><time>2026-05-04T13:19:10Z</time></trkpt><trkpt lat="31.608851131952047" lon="-6.375345106917809"><ele>2736.7999999999997</ele><time>2026-05-04T13:19:11Z</time></trkpt><trkpt lat="31.60886833640645" lon="-6.3752342492035305"><ele>2734.2</ele><time>2026-05-04T13:19:12Z</time></trkpt><trkpt lat="31.608891003645372" lon="-6.375129174812459"><ele>2731.6</ele><time>2026-05-04T13:19:13Z</time></trkpt><trkpt lat="31.608905431820386" lon="-6.375025899422331"><ele>2729.0</ele><time>2026-05-04T13:19:14Z</time></trkpt><trkpt lat="31.608902709741937" lon="-6.374914919519021"><ele>2729.0</ele><time>2026-05-04T13:19:15Z</time></trkpt><trkpt lat="31.60891421183064" lon="-6.374805738108172"><ele>2729.0</ele><time>2026-05-04T13:19:16Z</time></trkpt><trkpt lat="31.608934693913042" lon="-6.374695276940665"><ele>2729.0</ele><time>2026-05-04T13:19:17Z</time></trkpt><trkpt lat="31.608961649085757" lon="-6.374598041876993"><ele>2729.0</ele><time>2026-05-04T13:19:18Z</time></trkpt><trkpt lat="31.60895508674622" lon="-6.374492409515611"><ele>2729.0</ele><time>2026-05-04T13:19:19Z</time></trkpt><trkpt lat="31.60893908903287" lon="-6.374384988747265"><ele>2729.6</ele><time>2026-05-04T13:19:20Z</time></trkpt><trkpt lat="31.60891816468813" lon="-6.374275817347507"><ele>2730.2</ele><time>2026-05-04T13:19:21Z</time></trkpt><trkpt lat="31.608898590397956" lon="-6.374167008037791"><ele>2730.7999999999997</ele><time>2026-05-04T13:19:22Z</time></trkpt><trkpt lat="31.608877526962722" lon="-6.374058440521827"><ele>2731.3999999999996</ele><time>2026-05-04T13:19:23Z</time></trkpt><trkpt lat="31.60885504666533" lon="-6.373953867659466"><ele>2732.0</ele><time>2026-05-04T13:19:24Z</time></trkpt><trkpt lat="31.608831770543265" lon="-6.373855403375984"><ele>2733.6666666666665</ele><time>2026-05-04T13:19:25Z</time></trkpt><trkpt lat="31.608816060181603" lon="-6.373755504311716"><ele>2735.333333333333</ele><time>2026-05-04T13:19:26Z</time></trkpt><trkpt lat="31.608804054926274" lon="-6.373654015054754"><ele>2737.0</ele><time>2026-05-04T13:19:27Z</time></trkpt><trkpt lat="31.608797236545936" lon="-6.373546525278794"><ele>2738.6666666666665</ele><time>2026-05-04T13:19:28Z</time></trkpt><trkpt lat="31.608783967538873" lon="-6.3734413159220376"><ele>2740.3333333333335</ele><time>2026-05-04T13:19:29Z</time></trkpt><trkpt lat="31.608765932695906" lon="-6.373334398251948"><ele>2742.0</ele><time>2026-05-04T13:19:30Z</time></trkpt><trkpt lat="31.608740311067265" lon="-6.373225751251649"><ele>2742.0</ele><time>2026-05-04T13:19:31Z</time></trkpt><trkpt lat="31.608710127044294" lon="-6.373122713287315"><ele>2742.0</ele><time>2026-05-04T13:19:32Z</time></trkpt><trkpt lat="31.608678054713753" lon="-6.373027359635471"><ele>2742.0</ele><time>2026-05-04T13:19:33Z</time></trkpt><trkpt lat="31.6086454352926" lon="-6.372930757462904"><ele>2742.0</ele><time>2026-05-04T13:19:34Z</time></trkpt><trkpt lat="31.608616554768858" lon="-6.372833086179995"><ele>2742.0</ele><time>2026-05-04T13:19:35Z</time></trkpt><trkpt lat="31.6085864960004" lon="-6.372728295190899"><ele>2733.8</ele><time>2026-05-04T13:19:36Z</time></trkpt><trkpt lat="31.608557300694297" lon="-6.372625238707326"><ele>2725.6</ele><time>2026-05-04T13:19:37Z</time></trkpt><trkpt lat="31.6085279186458" lon="-6.372526482104157"><ele>2717.4</ele><time>2026-05-04T13:19:38Z</time></trkpt><trkpt lat="31.608499393663703" lon="-6.3724278284129845"><ele>2709.2000000000003</ele><time>2026-05-04T13:19:39Z</time></trkpt><trkpt lat="31.608474866164045" lon="-6.372329758830997"><ele>2701.0</ele><time>2026-05-04T13:19:40Z</time></trkpt><trkpt lat="31.608452567486967" lon="-6.372221528424458"><ele>2701.4</ele><time>2026-05-04T13:19:41Z</time></trkpt><trkpt lat="31.608434794225797" lon="-6.372117880257959"><ele>2701.8</ele><time>2026-05-04T13:19:42Z</time></trkpt><trkpt lat="31.608426521888934" lon="-6.372016649310624"><ele>2702.2000000000003</ele><time>2026-05-04T13:19:43Z</time></trkpt><trkpt lat="31.608417816770213" lon="-6.371910762653482"><ele>2702.6000000000004</ele><time>2026-05-04T13:19:44Z</time></trkpt><trkpt lat="31.608413503743034" lon="-6.371798568437471"><ele>2703.0</ele><time>2026-05-04T13:19:45Z</time></trkpt><trkpt lat="31.608418806958372" lon="-6.371690239683047"><ele>2703.0</ele><time>2026-05-04T13:19:46Z</time></trkpt><trkpt lat="31.608433331852204" lon="-6.371584864254859"><ele>2703.0</ele><time>2026-05-04T13:19:47Z</time></trkpt><trkpt lat="31.608449846640394" lon="-6.371477451504852"><ele>2703.0</ele><time>2026-05-04T13:19:48Z</time></trkpt><trkpt lat="31.608474950068477" lon="-6.3713761253767425"><ele>2703.0</ele><time>2026-05-04T13:19:49Z</time></trkpt><trkpt lat="31.608503380489473" lon="-6.371277227621551"><ele>2703.0</ele><time>2026-05-04T13:19:50Z</time></trkpt><trkpt lat="31.60852010328327" lon="-6.37117100993757"><ele>2699.4</ele><time>2026-05-04T13:19:51Z</time></trkpt><trkpt lat="31.60854346662027" lon="-6.3710631654002485"><ele>2695.8</ele><time>2026-05-04T13:19:52Z</time></trkpt><trkpt lat="31.608565790831783" lon="-6.37095915242133"><ele>2692.2</ele><time>2026-05-04T13:19:53Z</time></trkpt><trkpt lat="31.608595360063575" lon="-6.370861693946402"><ele>2688.6</ele><time>2026-05-04T13:19:54Z</time></trkpt><trkpt lat="31.608625391757712" lon="-6.370762712041809"><ele>2685.0</ele><time>2026-05-04T13:19:55Z</time></trkpt><trkpt lat="31.608654622351455" lon="-6.370666370380101"><ele>2686.6</ele><time>2026-05-04T13:19:56Z</time></trkpt><trkpt lat="31.608697766732686" lon="-6.370574738612162"><ele>2688.2</ele><time>2026-05-04T13:19:57Z</time></trkpt><trkpt lat="31.60871054460117" lon="-6.370465875778492"><ele>2689.8</ele><time>2026-05-04T13:19:58Z</time></trkpt><trkpt lat="31.608751642164968" lon="-6.370366838290269"><ele>2691.4</ele><time>2026-05-04T13:19:59Z</time></trkpt><trkpt lat="31.608767883611698" lon="-6.370257845004749"><ele>2693.0</ele><time>2026-05-04T13:20:00Z</time></trkpt><trkpt lat="31.608777483182333" lon="-6.370151766270524"><ele>2693.0</ele><time>2026-05-04T13:20:01Z</time></trkpt><trkpt lat="31.60878609760725" lon="-6.370047375665432"><ele>2693.0</ele><time>2026-05-04T13:20:02Z</time></trkpt><trkpt lat="31.608796625405816" lon="-6.369939214572198"><ele>2693.0</ele><time>2026-05-04T13:20:03Z</time></trkpt><trkpt lat="31.608811110083124" lon="-6.3698296348002135"><ele>2693.0</ele><time>2026-05-04T13:20:04Z</time></trkpt><trkpt lat="31.60882286819882" lon="-6.369720565808398"><ele>2693.0</ele><time>2026-05-04T13:20:05Z</time></trkpt><trkpt lat="31.608825756733502" lon="-6.3696181623990515"><ele>2692.0</ele><time>2026-05-04T13:20:06Z</time></trkpt><trkpt lat="31.608831490112042" lon="-6.369520768587131"><ele>2691.0</ele><time>2026-05-04T13:20:07Z</time></trkpt><trkpt lat="31.60883667422944" lon="-6.369419736858608"><ele>2690.0</ele><time>2026-05-04T13:20:08Z</time></trkpt><trkpt lat="31.608845895759053" lon="-6.369317978490167"><ele>2689.0</ele><time>2026-05-04T13:20:09Z</time></trkpt><trkpt lat="31.60885387431312" lon="-6.369216187781854"><ele>2688.0</ele><time>2026-05-04T13:20:10Z</time></trkpt><trkpt lat="31.60886164325964" lon="-6.369114369340694"><ele>2687.0</ele><time>2026-05-04T13:20:11Z</time></trkpt><trkpt lat="31.608868763934282" lon="-6.369019094167236"><ele>2687.0</ele><time>2026-05-04T13:20:12Z</time></trkpt><trkpt lat="31.608874067334437" lon="-6.368922966919034"><ele>2687.0</ele><time>2026-05-04T13:20:13Z</time></trkpt><trkpt lat="31.608881226904806" lon="-6.368832771359621"><ele>2687.0</ele><time>2026-05-04T13:20:14Z</time></trkpt><trkpt lat="31.608891381512755" lon="-6.368752782352581"><ele>2687.0</ele><time>2026-05-04T13:20:15Z</time></trkpt><trkpt lat="31.608890217654707" lon="-6.368640977205976"><ele>2687.0</ele><time>2026-05-04T13:20:17Z</time></trkpt><trkpt lat="31.608825409354573" lon="-6.368586096381768"><ele>2687.0</ele><time>2026-05-04T13:20:19Z</time></trkpt><trkpt lat="31.608744243269676" lon="-6.368631554697196"><ele>2687.0</ele><time>2026-05-04T13:20:21Z</time></trkpt><trkpt lat="31.60873315886102" lon="-6.368755766066075"><ele>2687.0</ele><time>2026-05-04T13:20:23Z</time></trkpt><trkpt lat="31.60871750553358" lon="-6.368844060077251"><ele>2687.0</ele><time>2026-05-04T13:20:24Z</time></trkpt><trkpt lat="31.60869152946483" lon="-6.368932403063871"><ele>2687.0</ele><time>2026-05-04T13:20:25Z</time></trkpt><trkpt lat="31.608650575831078" lon="-6.369008409642636"><ele>2687.0</ele><time>2026-05-04T13:20:26Z</time></trkpt><trkpt lat="31.608628590712602" lon="-6.3690913512037355"><ele>2687.0</ele><time>2026-05-04T13:20:27Z</time></trkpt><trkpt lat="31.608603621707424" lon="-6.369176205441366"><ele>2683.1666666666665</ele><time>2026-05-04T13:20:28Z</time></trkpt><trkpt lat="31.608589401529237" lon="-6.369268242821795"><ele>2679.333333333333</ele><time>2026-05-04T13:20:29Z</time></trkpt><trkpt lat="31.608564922551288" lon="-6.369352572229477"><ele>2675.5</ele><time>2026-05-04T13:20:30Z</time></trkpt><trkpt lat="31.608540692038755" lon="-6.369436045581502"><ele>2671.6666666666665</ele><time>2026-05-04T13:20:31Z</time></trkpt><trkpt lat="31.608516316859745" lon="-6.369520017949319"><ele>2667.8333333333335</ele><time>2026-05-04T13:20:32Z</time></trkpt><trkpt lat="31.608503429200137" lon="-6.369601668498108"><ele>2664.0</ele><time>2026-05-04T13:20:33Z</time></trkpt><trkpt lat="31.60848710748718" lon="-6.369688663326879"><ele>2664.6666666666665</ele><time>2026-05-04T13:20:34Z</time></trkpt><trkpt lat="31.6084685487247" lon="-6.369766731218769"><ele>2665.3333333333335</ele><time>2026-05-04T13:20:35Z</time></trkpt><trkpt lat="31.608449217842562" lon="-6.369837316425086"><ele>2666.0</ele><time>2026-05-04T13:20:36Z</time></trkpt><trkpt lat="31.608418981789836" lon="-6.3699399884837735"><ele>2666.666666666667</ele><time>2026-05-04T13:20:38Z</time></trkpt><trkpt lat="31.60834247175244" lon="-6.369941467837126"><ele>2667.3333333333335</ele><time>2026-05-04T13:20:39Z</time></trkpt><trkpt lat="31.608263878326564" lon="-6.369886292029353"><ele>2668.0</ele><time>2026-05-04T13:20:41Z</time></trkpt><trkpt lat="31.608244876214275" lon="-6.369744004216103"><ele>2667.3333333333335</ele><time>2026-05-04T13:20:43Z</time></trkpt><trkpt lat="31.608252236883846" lon="-6.36966173919607"><ele>2666.666666666667</ele><time>2026-05-04T13:20:44Z</time></trkpt><trkpt lat="31.608269266676235" lon="-6.369564052510685"><ele>2666.0</ele><time>2026-05-04T13:20:45Z</time></trkpt><trkpt lat="31.608278438456654" lon="-6.369458880636824"><ele>2665.3333333333335</ele><time>2026-05-04T13:20:46Z</time></trkpt><trkpt lat="31.60828006609995" lon="-6.369346074307323"><ele>2664.6666666666665</ele><time>2026-05-04T13:20:47Z</time></trkpt><trkpt lat="31.608279107565693" lon="-6.369236691170677"><ele>2664.0</ele><time>2026-05-04T13:20:48Z</time></trkpt><trkpt lat="31.60828027280886" lon="-6.369136237660629"><ele>2664.0</ele><time>2026-05-04T13:20:49Z</time></trkpt><trkpt lat="31.608287915376895" lon="-6.369042524700116"><ele>2664.0</ele><time>2026-05-04T13:20:50Z</time></trkpt><trkpt lat="31.608300710380686" lon="-6.368954923381121"><ele>2664.0</ele><time>2026-05-04T13:20:51Z</time></trkpt><trkpt lat="31.608303508929836" lon="-6.368868096489545"><ele>2664.0</ele><time>2026-05-04T13:20:52Z</time></trkpt><trkpt lat="31.608308577240198" lon="-6.368787715867794"><ele>2664.0</ele><time>2026-05-04T13:20:53Z</time></trkpt><trkpt lat="31.60832291298251" lon="-6.368711812915058"><ele>2664.0</ele><time>2026-05-04T13:20:54Z</time></trkpt><trkpt lat="31.60832985040231" lon="-6.368637624108295"><ele>2664.0</ele><time>2026-05-04T13:20:55Z</time></trkpt><trkpt lat="31.608280853309665" lon="-6.368548207356115"><ele>2664.0</ele><time>2026-05-04T13:20:57Z</time></trkpt><trkpt lat="31.60817592098113" lon="-6.368557993207631"><ele>2664.0</ele><time>2026-05-04T13:20:59Z</time></trkpt><trkpt lat="31.608133621164622" lon="-6.36861568126579"><ele>2664.0</ele><time>2026-05-04T13:21:00Z</time></trkpt><trkpt lat="31.608137455154775" lon="-6.368709503041427"><ele>2664.0</ele><time>2026-05-04T13:21:01Z</time></trkpt><trkpt lat="31.608157323363816" lon="-6.368807718057889"><ele>2664.0</ele><time>2026-05-04T13:21:02Z</time></trkpt><trkpt lat="31.60815044763117" lon="-6.368930697338523"><ele>2664.0</ele><time>2026-05-04T13:21:03Z</time></trkpt><trkpt lat="31.608119276204928" lon="-6.369078089042147"><ele>2664.0</ele><time>2026-05-04T13:21:04Z</time></trkpt><trkpt lat="31.60808740093168" lon="-6.369225248602977"><ele>2664.0</ele><time>2026-05-04T13:21:05Z</time></trkpt><trkpt lat="31.60805776674011" lon="-6.36936425768657"><ele>2664.0</ele><time>2026-05-04T13:21:06Z</time></trkpt><trkpt lat="31.608033975570564" lon="-6.369479702247984"><ele>2664.0</ele><time>2026-05-04T13:21:07Z</time></trkpt><trkpt lat="31.608016172934757" lon="-6.369581645286993"><ele>2664.0</ele><time>2026-05-04T13:21:08Z</time></trkpt><trkpt lat="31.60799854709115" lon="-6.369681954568956"><ele>2664.7999999999997</ele><time>2026-05-04T13:21:09Z</time></trkpt><trkpt lat="31.607954741213664" lon="-6.369788533480046"><ele>2665.6</ele><time>2026-05-04T13:21:10Z</time></trkpt><trkpt lat="31.607928630774765" lon="-6.369896922535769"><ele>2666.4</ele><time>2026-05-04T13:21:11Z</time></trkpt><trkpt lat="31.607912924847273" lon="-6.370024048322442"><ele>2667.2</ele><time>2026-05-04T13:21:12Z</time></trkpt><trkpt lat="31.607871119211097" lon="-6.370145972449427"><ele>2668.0</ele><time>2026-05-04T13:21:13Z</time></trkpt><trkpt lat="31.60782950668039" lon="-6.370264842804824"><ele>2662.25</ele><time>2026-05-04T13:21:14Z</time></trkpt><trkpt lat="31.607774281024568" lon="-6.370381254752195"><ele>2656.5</ele><time>2026-05-04T13:21:15Z</time></trkpt><trkpt lat="31.60771876944039" lon="-6.370501754568221"><ele>2650.75</ele><time>2026-05-04T13:21:16Z</time></trkpt><trkpt lat="31.60765229323579" lon="-6.37062897962738"><ele>2645.0</ele><time>2026-05-04T13:21:17Z</time></trkpt><trkpt lat="31.607579306314726" lon="-6.370760060408038"><ele>2645.0</ele><time>2026-05-04T13:21:18Z</time></trkpt><trkpt lat="31.6075040439371" lon="-6.370877472391065"><ele>2645.0</ele><time>2026-05-04T13:21:19Z</time></trkpt><trkpt lat="31.607430993836825" lon="-6.3709850011473925"><ele>2645.0</ele><time>2026-05-04T13:21:20Z</time></trkpt><trkpt lat="31.607357497747987" lon="-6.3710834800129374"><ele>2645.0</ele><time>2026-05-04T13:21:21Z</time></trkpt><trkpt lat="31.607289363698232" lon="-6.371174446481083"><ele>2645.0</ele><time>2026-05-04T13:21:22Z</time></trkpt><trkpt lat="31.607223274054732" lon="-6.371262790193484"><ele>2645.0</ele><time>2026-05-04T13:21:23Z</time></trkpt><trkpt lat="31.60714607958193" lon="-6.371331809788926"><ele>2645.0</ele><time>2026-05-04T13:21:24Z</time></trkpt><trkpt lat="31.607074317311326" lon="-6.371406699873498"><ele>2645.0</ele><time>2026-05-04T13:21:25Z</time></trkpt><trkpt lat="31.607005041964456" lon="-6.371481609620743"><ele>2645.0</ele><time>2026-05-04T13:21:26Z</time></trkpt><trkpt lat="31.606974571770987" lon="-6.3716009718048285"><ele>2644.2</ele><time>2026-05-04T13:21:27Z</time></trkpt><trkpt lat="31.60692521483346" lon="-6.3717069924248015"><ele>2643.4</ele><time>2026-05-04T13:21:28Z</time></trkpt><trkpt lat="31.606880361360986" lon="-6.371807123123155"><ele>2642.6000000000004</ele><time>2026-05-04T13:21:29Z</time></trkpt><trkpt lat="31.60683725627581" lon="-6.3719047596403176"><ele>2641.8</ele><time>2026-05-04T13:21:30Z</time></trkpt><trkpt lat="31.606795358523073" lon="-6.372006898239285"><ele>2641.0</ele><time>2026-05-04T13:21:31Z</time></trkpt><trkpt lat="31.606762440638896" lon="-6.372114263815779"><ele>2640.0</ele><time>2026-05-04T13:21:32Z</time></trkpt><trkpt lat="31.60673077413357" lon="-6.372217584690251"><ele>2639.0</ele><time>2026-05-04T13:21:33Z</time></trkpt><trkpt lat="31.606700407749962" lon="-6.372325198422561"><ele>2638.0</ele><time>2026-05-04T13:21:34Z</time></trkpt><trkpt lat="31.606674025053447" lon="-6.372429096040953"><ele>2637.0</ele><time>2026-05-04T13:21:35Z</time></trkpt><trkpt lat="31.606652118338832" lon="-6.3725393778900745"><ele>2636.0</ele><time>2026-05-04T13:21:36Z</time></trkpt><trkpt lat="31.606633894697307" lon="-6.372639368846019"><ele>2636.0</ele><time>2026-05-04T13:21:37Z</time></trkpt><trkpt lat="31.606619175845722" lon="-6.372745451776676"><ele>2636.0</ele><time>2026-05-04T13:21:38Z</time></trkpt><trkpt lat="31.606604804227104" lon="-6.372847541835129"><ele>2636.0</ele><time>2026-05-04T13:21:39Z</time></trkpt><trkpt lat="31.60659004076453" lon="-6.3729509861101725"><ele>2636.0</ele><time>2026-05-04T13:21:40Z</time></trkpt><trkpt lat="31.60657538882824" lon="-6.373053166322408"><ele>2636.0</ele><time>2026-05-04T13:21:41Z</time></trkpt><trkpt lat="31.606552775629407" lon="-6.373157501025438"><ele>2636.0</ele><time>2026-05-04T13:21:42Z</time></trkpt><trkpt lat="31.606529919810214" lon="-6.37325689434217"><ele>2635.5</ele><time>2026-05-04T13:21:43Z</time></trkpt><trkpt lat="31.606506380081747" lon="-6.37335118189485"><ele>2635.0</ele><time>2026-05-04T13:21:44Z</time></trkpt><trkpt lat="31.606483596972517" lon="-6.373443542930599"><ele>2634.5</ele><time>2026-05-04T13:21:45Z</time></trkpt><trkpt lat="31.60646136910659" lon="-6.373537439412006"><ele>2634.0</ele><time>2026-05-04T13:21:46Z</time></trkpt><trkpt lat="31.60643812256261" lon="-6.373635639181449"><ele>2633.5</ele><time>2026-05-04T13:21:47Z</time></trkpt><trkpt lat="31.606411915306015" lon="-6.373738235451974"><ele>2633.0</ele><time>2026-05-04T13:21:48Z</time></trkpt><trkpt lat="31.606382750769384" lon="-6.3738409495410915"><ele>2633.6000000000004</ele><time>2026-05-04T13:21:49Z</time></trkpt><trkpt lat="31.606352892710344" lon="-6.373946106758831"><ele>2634.2000000000003</ele><time>2026-05-04T13:21:50Z</time></trkpt><trkpt lat="31.606310709741397" lon="-6.3740481006897465"><ele>2634.8</ele><time>2026-05-04T13:21:51Z</time></trkpt><trkpt lat="31.606256202351485" lon="-6.374135690499526"><ele>2635.4</ele><time>2026-05-04T13:21:52Z</time></trkpt><trkpt lat="31.60621640203388" lon="-6.374226520254578"><ele>2636.0</ele><time>2026-05-04T13:21:53Z</time></trkpt><trkpt lat="31.606167570026106" lon="-6.374309906771958"><ele>2631.2000000000003</ele><time>2026-05-04T13:21:54Z</time></trkpt><trkpt lat="31.606108056487432" lon="-6.374386480553161"><ele>2626.4</ele><time>2026-05-04T13:21:55Z</time></trkpt><trkpt lat="31.606039415296703" lon="-6.374458325136546"><ele>2621.6</ele><time>2026-05-04T13:21:56Z</time></trkpt><trkpt lat="31.605972319578733" lon="-6.3745335559022624"><ele>2616.8</ele><time>2026-05-04T13:21:57Z</time></trkpt><trkpt lat="31.60590831303586" lon="-6.374607119169457"><ele>2612.0</ele><time>2026-05-04T13:21:58Z</time></trkpt><trkpt lat="31.60584875676662" lon="-6.374684486824322"><ele>2614.3999999999996</ele><time>2026-05-04T13:21:59Z</time></trkpt><trkpt lat="31.605789309074144" lon="-6.374766475140213"><ele>2616.7999999999997</ele><time>2026-05-04T13:22:00Z</time></trkpt><trkpt lat="31.605729577934895" lon="-6.374852260247062"><ele>2619.2</ele><time>2026-05-04T13:22:01Z</time></trkpt><trkpt lat="31.605685661847556" lon="-6.374961308587621"><ele>2621.6</ele><time>2026-05-04T13:22:02Z</time></trkpt><trkpt lat="31.60562828614445" lon="-6.3750649798608965"><ele>2624.0</ele><time>2026-05-04T13:22:03Z</time></trkpt><trkpt lat="31.605569253815737" lon="-6.375182830468536"><ele>2624.0</ele><time>2026-05-04T13:22:04Z</time></trkpt><trkpt lat="31.605523338045938" lon="-6.375291127778204"><ele>2624.0</ele><time>2026-05-04T13:22:05Z</time></trkpt><trkpt lat="31.605484967383852" lon="-6.375400579337806"><ele>2624.0</ele><time>2026-05-04T13:22:06Z</time></trkpt><trkpt lat="31.60545328728945" lon="-6.375500892650794"><ele>2624.0</ele><time>2026-05-04T13:22:07Z</time></trkpt><trkpt lat="31.60542628285999" lon="-6.3755971075943005"><ele>2624.0</ele><time>2026-05-04T13:22:08Z</time></trkpt><trkpt lat="31.60540143591164" lon="-6.375685636379265"><ele>2625.8571428571427</ele><time>2026-05-04T13:22:09Z</time></trkpt><trkpt lat="31.605392359782652" lon="-6.375770549871465"><ele>2627.714285714286</ele><time>2026-05-04T13:22:10Z</time></trkpt><trkpt lat="31.60537909315654" lon="-6.375858709258245"><ele>2629.5714285714284</ele><time>2026-05-04T13:22:11Z</time></trkpt><trkpt lat="31.605365847274996" lon="-6.375940823039096"><ele>2631.4285714285716</ele><time>2026-05-04T13:22:12Z</time></trkpt><trkpt lat="31.60533938553217" lon="-6.376022270301094"><ele>2633.285714285714</ele><time>2026-05-04T13:22:13Z</time></trkpt><trkpt lat="31.60533999925162" lon="-6.376096423694018"><ele>2635.142857142857</ele><time>2026-05-04T13:22:14Z</time></trkpt><trkpt lat="31.60533608500999" lon="-6.376203065147866"><ele>2637.0</ele><time>2026-05-04T13:22:16Z</time></trkpt><trkpt lat="31.6052648335968" lon="-6.376251907457503"><ele>2629.3999999999996</ele><time>2026-05-04T13:22:18Z</time></trkpt><trkpt lat="31.60517036410943" lon="-6.376221443995961"><ele>2621.7999999999997</ele><time>2026-05-04T13:22:20Z</time></trkpt><trkpt lat="31.605160900636204" lon="-6.376056686964792"><ele>2614.2</ele><time>2026-05-04T13:22:22Z</time></trkpt><trkpt lat="31.60516537257068" lon="-6.37596508073784"><ele>2606.6</ele><time>2026-05-04T13:22:23Z</time></trkpt><trkpt lat="31.60517413214215" lon="-6.375873532913644"><ele>2599.0</ele><time>2026-05-04T13:22:24Z</time></trkpt><trkpt lat="31.605170831717484" lon="-6.3757872781298435"><ele>2599.0</ele><time>2026-05-04T13:22:25Z</time></trkpt><trkpt lat="31.60516787975387" lon="-6.375697889230085"><ele>2599.0</ele><time>2026-05-04T13:22:26Z</time></trkpt><trkpt lat="31.60517330661389" lon="-6.375599701967501"><ele>2599.0</ele><time>2026-05-04T13:22:27Z</time></trkpt><trkpt lat="31.60518497082429" lon="-6.37549574887438"><ele>2599.0</ele><time>2026-05-04T13:22:28Z</time></trkpt><trkpt lat="31.60520261852084" lon="-6.37539953302715"><ele>2599.0</ele><time>2026-05-04T13:22:29Z</time></trkpt><trkpt lat="31.605219553051654" lon="-6.375303755810729"><ele>2599.0</ele><time>2026-05-04T13:22:30Z</time></trkpt><trkpt lat="31.605231400492528" lon="-6.375211263557486"><ele>2598.166666666667</ele><time>2026-05-04T13:22:31Z</time></trkpt><trkpt lat="31.605247399541554" lon="-6.375117711474244"><ele>2597.3333333333335</ele><time>2026-05-04T13:22:32Z</time></trkpt><trkpt lat="31.605268482861337" lon="-6.375031403172507"><ele>2596.5</ele><time>2026-05-04T13:22:33Z</time></trkpt><trkpt lat="31.605291074799585" lon="-6.3749512224117115"><ele>2595.6666666666665</ele><time>2026-05-04T13:22:34Z</time></trkpt><trkpt lat="31.60529109494006" lon="-6.374871665241965"><ele>2594.833333333333</ele><time>2026-05-04T13:22:35Z</time></trkpt><trkpt lat="31.60529902427171" lon="-6.374758117483036"><ele>2594.0</ele><time>2026-05-04T13:22:37Z</time></trkpt><trkpt lat="31.60523450123186" lon="-6.374703496230647"><ele>2594.0</ele><time>2026-05-04T13:22:39Z</time></trkpt><trkpt lat="31.605192667549122" lon="-6.374762411507174"><ele>2594.0</ele><time>2026-05-04T13:22:40Z</time></trkpt><trkpt lat="31.605177248243727" lon="-6.374886881168499"><ele>2594.0</ele><time>2026-05-04T13:22:42Z</time></trkpt><trkpt lat="31.605149018338473" lon="-6.374968250959497"><ele>2594.0</ele><time>2026-05-04T13:22:43Z</time></trkpt><trkpt lat="31.605113658018325" lon="-6.375070173557354"><ele>2594.0</ele><time>2026-05-04T13:22:44Z</time></trkpt><trkpt lat="31.605075057974904" lon="-6.375181358377615"><ele>2594.0</ele><time>2026-05-04T13:22:45Z</time></trkpt><trkpt lat="31.60503705599869" lon="-6.375290666078029"><ele>2594.0</ele><time>2026-05-04T13:22:46Z</time></trkpt><trkpt lat="31.60499855645889" lon="-6.375401404815702"><ele>2594.0</ele><time>2026-05-04T13:22:47Z</time></trkpt><trkpt lat="31.604962083315666" lon="-6.37550801791421"><ele>2594.0</ele><time>2026-05-04T13:22:48Z</time></trkpt><trkpt lat="31.604928055080112" lon="-6.375612934287455"><ele>2594.0</ele><time>2026-05-04T13:22:49Z</time></trkpt><trkpt lat="31.604895122031987" lon="-6.37571478742095"><ele>2594.0</ele><time>2026-05-04T13:22:50Z</time></trkpt><trkpt lat="31.604870856538287" lon="-6.375814494945871"><ele>2594.833333333333</ele><time>2026-05-04T13:22:51Z</time></trkpt><trkpt lat="31.604852271620555" lon="-6.375909359491678"><ele>2595.6666666666665</ele><time>2026-05-04T13:22:52Z</time></trkpt><trkpt lat="31.604846274487677" lon="-6.376001604798124"><ele>2596.5</ele><time>2026-05-04T13:22:53Z</time></trkpt><trkpt lat="31.604839434860633" lon="-6.3760849236690795"><ele>2597.3333333333335</ele><time>2026-05-04T13:22:54Z</time></trkpt><trkpt lat="31.604827305575153" lon="-6.3761664010559915"><ele>2598.166666666667</ele><time>2026-05-04T13:22:55Z</time></trkpt><trkpt lat="31.604803422847013" lon="-6.376286037593956"><ele>2599.0</ele><time>2026-05-04T13:22:57Z</time></trkpt><trkpt lat="31.604727155373965" lon="-6.376327513358047"><ele>2599.0</ele><time>2026-05-04T13:22:59Z</time></trkpt><trkpt lat="31.60461537283329" lon="-6.376249059346618"><ele>2599.0</ele><time>2026-05-04T13:23:01Z</time></trkpt><trkpt lat="31.604626751215207" lon="-6.376123231547817"><ele>2599.0</ele><time>2026-05-04T13:23:02Z</time></trkpt><trkpt lat="31.604623483343815" lon="-6.3760273635115094"><ele>2599.0</ele><time>2026-05-04T13:23:03Z</time></trkpt><trkpt lat="31.604627452528092" lon="-6.375924110260996"><ele>2599.0</ele><time>2026-05-04T13:23:04Z</time></trkpt><trkpt lat="31.604624659939972" lon="-6.3758119003916525"><ele>2599.0</ele><time>2026-05-04T13:23:05Z</time></trkpt><trkpt lat="31.60462207249874" lon="-6.375692645091174"><ele>2599.0</ele><time>2026-05-04T13:23:06Z</time></trkpt><trkpt lat="31.604616439028185" lon="-6.375572066002147"><ele>2599.0</ele><time>2026-05-04T13:23:07Z</time></trkpt><trkpt lat="31.604613862733938" lon="-6.37545508861056"><ele>2599.0</ele><time>2026-05-04T13:23:08Z</time></trkpt><trkpt lat="31.604602247164713" lon="-6.375331272522724"><ele>2599.0</ele><time>2026-05-04T13:23:09Z</time></trkpt><trkpt lat="31.604589700792626" lon="-6.375210229166778"><ele>2598.0</ele><time>2026-05-04T13:23:10Z</time></trkpt><trkpt lat="31.60457165577891" lon="-6.375089164262553"><ele>2597.0</ele><time>2026-05-04T13:23:11Z</time></trkpt><trkpt lat="31.6045505763193" lon="-6.374979046513292"><ele>2596.0</ele><time>2026-05-04T13:23:12Z</time></trkpt><trkpt lat="31.60453368256013" lon="-6.374877652944314"><ele>2595.0</ele><time>2026-05-04T13:23:13Z</time></trkpt><trkpt lat="31.604518365642242" lon="-6.3747942845161285"><ele>2594.0</ele><time>2026-05-04T13:23:14Z</time></trkpt><trkpt lat="31.604492921324827" lon="-6.374650884622225"><ele>2590.833333333333</ele><time>2026-05-04T13:23:16Z</time></trkpt><trkpt lat="31.604484092060297" lon="-6.3745706731908225"><ele>2587.6666666666665</ele><time>2026-05-04T13:23:17Z</time></trkpt><trkpt lat="31.604486424497434" lon="-6.374485930143299"><ele>2584.5</ele><time>2026-05-04T13:23:18Z</time></trkpt><trkpt lat="31.6044888378558" lon="-6.374388622371407"><ele>2581.3333333333335</ele><time>2026-05-04T13:23:19Z</time></trkpt><trkpt lat="31.604464057418475" lon="-6.3742972883261695"><ele>2578.166666666667</ele><time>2026-05-04T13:23:20Z</time></trkpt><trkpt lat="31.604448368002384" lon="-6.374202478894642"><ele>2575.0</ele><time>2026-05-04T13:23:21Z</time></trkpt><trkpt lat="31.604437695859723" lon="-6.374095891627087"><ele>2575.0</ele><time>2026-05-04T13:23:22Z</time></trkpt><trkpt lat="31.60439584272845" lon="-6.373999417425417"><ele>2575.0</ele><time>2026-05-04T13:23:23Z</time></trkpt><trkpt lat="31.60435420085016" lon="-6.373896548006444"><ele>2575.0</ele><time>2026-05-04T13:23:24Z</time></trkpt><trkpt lat="31.60431671551784" lon="-6.3737864196705045"><ele>2575.0</ele><time>2026-05-04T13:23:25Z</time></trkpt><trkpt lat="31.60427531408593" lon="-6.373677015751821"><ele>2575.0</ele><time>2026-05-04T13:23:26Z</time></trkpt><trkpt lat="31.604240056148313" lon="-6.373569673639539"><ele>2574.4</ele><time>2026-05-04T13:23:27Z</time></trkpt><trkpt lat="31.604203544605287" lon="-6.37346580363687"><ele>2573.8</ele><time>2026-05-04T13:23:28Z</time></trkpt><trkpt lat="31.604146641954404" lon="-6.373369179071705"><ele>2573.2</ele><time>2026-05-04T13:23:29Z</time></trkpt><trkpt lat="31.604064894108532" lon="-6.373268626309438"><ele>2572.6</ele><time>2026-05-04T13:23:30Z</time></trkpt><trkpt lat="31.603982500357752" lon="-6.373180193541868"><ele>2572.0</ele><time>2026-05-04T13:23:31Z</time></trkpt><trkpt lat="31.603899368521752" lon="-6.373102595687717"><ele>2569.6</ele><time>2026-05-04T13:23:32Z</time></trkpt><trkpt lat="31.603818331657155" lon="-6.373021717726469"><ele>2567.2</ele><time>2026-05-04T13:23:33Z</time></trkpt><trkpt lat="31.603737194199294" lon="-6.372945402103443"><ele>2564.8</ele><time>2026-05-04T13:23:34Z</time></trkpt><trkpt lat="31.603657144331542" lon="-6.372870802110673"><ele>2562.4</ele><time>2026-05-04T13:23:35Z</time></trkpt><trkpt lat="31.603580936752056" lon="-6.372796848012467"><ele>2560.0</ele><time>2026-05-04T13:23:36Z</time></trkpt><trkpt lat="31.60351045902854" lon="-6.372722449121224"><ele>2560.0</ele><time>2026-05-04T13:23:37Z</time></trkpt><trkpt lat="31.60345625857246" lon="-6.372643533724203"><ele>2560.0</ele><time>2026-05-04T13:23:38Z</time></trkpt><trkpt lat="31.603403401535637" lon="-6.372566436905404"><ele>2560.0</ele><time>2026-05-04T13:23:39Z</time></trkpt><trkpt lat="31.60338485534203" lon="-6.372455713680977"><ele>2560.0</ele><time>2026-05-04T13:23:40Z</time></trkpt><trkpt lat="31.60338012384274" lon="-6.3723435459415185"><ele>2560.0</ele><time>2026-05-04T13:23:41Z</time></trkpt><trkpt lat="31.603409857559498" lon="-6.37223089453917"><ele>2558.8</ele><time>2026-05-04T13:23:42Z</time></trkpt><trkpt lat="31.603430479577764" lon="-6.372112003814312"><ele>2557.6</ele><time>2026-05-04T13:23:43Z</time></trkpt><trkpt lat="31.603461520982417" lon="-6.371994068552233"><ele>2556.4</ele><time>2026-05-04T13:23:44Z</time></trkpt><trkpt lat="31.603493723406224" lon="-6.371876885027458"><ele>2555.2</ele><time>2026-05-04T13:23:45Z</time></trkpt><trkpt lat="31.60353185127219" lon="-6.371748691769673"><ele>2554.0</ele><time>2026-05-04T13:23:46Z</time></trkpt><trkpt lat="31.603570204226795" lon="-6.371626857137623"><ele>2554.0</ele><time>2026-05-04T13:23:47Z</time></trkpt><trkpt lat="31.603612742862552" lon="-6.371513348411382"><ele>2554.0</ele><time>2026-05-04T13:23:48Z</time></trkpt><trkpt lat="31.603662850332924" lon="-6.3714067158855165"><ele>2554.0</ele><time>2026-05-04T13:23:49Z</time></trkpt><trkpt lat="31.603723206221773" lon="-6.371302371719019"><ele>2554.0</ele><time>2026-05-04T13:23:50Z</time></trkpt><trkpt lat="31.603787829220064" lon="-6.371208085832911"><ele>2554.0</ele><time>2026-05-04T13:23:51Z</time></trkpt><trkpt lat="31.60385946268917" lon="-6.371119044553389"><ele>2554.8</ele><time>2026-05-04T13:23:52Z</time></trkpt><trkpt lat="31.603936102657443" lon="-6.371033239344902"><ele>2555.6000000000004</ele><time>2026-05-04T13:23:53Z</time></trkpt><trkpt lat="31.60401506153091" lon="-6.370943861812566"><ele>2556.4</ele><time>2026-05-04T13:23:54Z</time></trkpt><trkpt lat="31.6040838797543" lon="-6.370846495799165"><ele>2557.2000000000003</ele><time>2026-05-04T13:23:55Z</time></trkpt><trkpt lat="31.604151746269785" lon="-6.370748221335011"><ele>2558.0</ele><time>2026-05-04T13:23:56Z</time></trkpt><trkpt lat="31.60421478148522" lon="-6.3706458310847465"><ele>2558.0</ele><time>2026-05-04T13:23:57Z</time></trkpt><trkpt lat="31.604273437696868" lon="-6.37054157926276"><ele>2558.0</ele><time>2026-05-04T13:23:58Z</time></trkpt><trkpt lat="31.604322453468267" lon="-6.370434274802014"><ele>2558.0</ele><time>2026-05-04T13:23:59Z</time></trkpt><trkpt lat="31.604367848573162" lon="-6.370322234224453"><ele>2558.0</ele><time>2026-05-04T13:24:00Z</time></trkpt><trkpt lat="31.60439320005856" lon="-6.3702109493535035"><ele>2558.0</ele><time>2026-05-04T13:24:01Z</time></trkpt><trkpt lat="31.604407863120993" lon="-6.370093993098108"><ele>2555.0</ele><time>2026-05-04T13:24:02Z</time></trkpt><trkpt lat="31.60441428701627" lon="-6.3699793392517785"><ele>2552.0</ele><time>2026-05-04T13:24:03Z</time></trkpt><trkpt lat="31.60442495311537" lon="-6.369868552176343"><ele>2549.0</ele><time>2026-05-04T13:24:04Z</time></trkpt><trkpt lat="31.60443480916222" lon="-6.369750289238741"><ele>2546.0</ele><time>2026-05-04T13:24:05Z</time></trkpt><trkpt lat="31.60445747402122" lon="-6.369635544482284"><ele>2543.0</ele><time>2026-05-04T13:24:06Z</time></trkpt><trkpt lat="31.604492406904466" lon="-6.36952281895636"><ele>2545.0</ele><time>2026-05-04T13:24:07Z</time></trkpt><trkpt lat="31.604540312880548" lon="-6.369419892743545"><ele>2547.0</ele><time>2026-05-04T13:24:08Z</time></trkpt><trkpt lat="31.60460157751711" lon="-6.369332384828441"><ele>2549.0</ele><time>2026-05-04T13:24:09Z</time></trkpt><trkpt lat="31.604674684195817" lon="-6.36926245224346"><ele>2551.0</ele><time>2026-05-04T13:24:10Z</time></trkpt><trkpt lat="31.604744180000147" lon="-6.369200582627487"><ele>2553.0</ele><time>2026-05-04T13:24:11Z</time></trkpt><trkpt lat="31.60480722365569" lon="-6.369132917264457"><ele>2553.0</ele><time>2026-05-04T13:24:12Z</time></trkpt><trkpt lat="31.604854230335498" lon="-6.3690568374179914"><ele>2553.0</ele><time>2026-05-04T13:24:13Z</time></trkpt><trkpt lat="31.604886306683788" lon="-6.368963512315445"><ele>2553.0</ele><time>2026-05-04T13:24:14Z</time></trkpt><trkpt lat="31.60490317630612" lon="-6.368857188716068"><ele>2553.0</ele><time>2026-05-04T13:24:15Z</time></trkpt><trkpt lat="31.604915456249316" lon="-6.368744438137989"><ele>2553.0</ele><time>2026-05-04T13:24:16Z</time></trkpt><trkpt lat="31.604914620035117" lon="-6.368630401327282"><ele>2552.75</ele><time>2026-05-04T13:24:17Z</time></trkpt><trkpt lat="31.604892544983723" lon="-6.368517843625446"><ele>2552.5</ele><time>2026-05-04T13:24:18Z</time></trkpt><trkpt lat="31.60483688447572" lon="-6.368412797755233"><ele>2552.25</ele><time>2026-05-04T13:24:19Z</time></trkpt><trkpt lat="31.604812989233743" lon="-6.368278611267106"><ele>2552.0</ele><time>2026-05-04T13:24:20Z</time></trkpt><trkpt lat="31.604758787970816" lon="-6.368129443394643"><ele>2552.75</ele><time>2026-05-04T13:24:21Z</time></trkpt><trkpt lat="31.604713926011566" lon="-6.367987457929053"><ele>2553.5</ele><time>2026-05-04T13:24:22Z</time></trkpt><trkpt lat="31.604669183754087" lon="-6.367858136800135"><ele>2554.25</ele><time>2026-05-04T13:24:23Z</time></trkpt><trkpt lat="31.60462544804933" lon="-6.367741236337821"><ele>2555.0</ele><time>2026-05-04T13:24:24Z</time></trkpt><trkpt lat="31.60458453915157" lon="-6.3676256973435725"><ele>2555.0</ele><time>2026-05-04T13:24:25Z</time></trkpt><trkpt lat="31.604547873978046" lon="-6.367515210508369"><ele>2555.0</ele><time>2026-05-04T13:24:26Z</time></trkpt><trkpt lat="31.604500230306066" lon="-6.3674156327844535"><ele>2555.0</ele><time>2026-05-04T13:24:27Z</time></trkpt><trkpt lat="31.60447900200264" lon="-6.367310322146652"><ele>2555.0</ele><time>2026-05-04T13:24:28Z</time></trkpt><trkpt lat="31.604471631903994" lon="-6.36720701839768"><ele>2555.0</ele><time>2026-05-04T13:24:29Z</time></trkpt><trkpt lat="31.604475823117323" lon="-6.367101879529323"><ele>2553.333333333333</ele><time>2026-05-04T13:24:30Z</time></trkpt><trkpt lat="31.604490290270945" lon="-6.366996820642811"><ele>2551.6666666666665</ele><time>2026-05-04T13:24:31Z</time></trkpt><trkpt lat="31.60453881816446" lon="-6.366904248002754"><ele>2550.0</ele><time>2026-05-04T13:24:32Z</time></trkpt><trkpt lat="31.604570689607964" lon="-6.3668076136699"><ele>2548.3333333333335</ele><time>2026-05-04T13:24:33Z</time></trkpt><trkpt lat="31.60460847242441" lon="-6.366718798864715"><ele>2546.666666666667</ele><time>2026-05-04T13:24:34Z</time></trkpt><trkpt lat="31.604643233034732" lon="-6.36663743635494"><ele>2545.0</ele><time>2026-05-04T13:24:35Z</time></trkpt><trkpt lat="31.604683788792453" lon="-6.3665545626728965"><ele>2545.0</ele><time>2026-05-04T13:24:36Z</time></trkpt><trkpt lat="31.604729097521954" lon="-6.366474412876345"><ele>2545.0</ele><time>2026-05-04T13:24:37Z</time></trkpt><trkpt lat="31.60477782257088" lon="-6.366396296791518"><ele>2545.0</ele><time>2026-05-04T13:24:38Z</time></trkpt><trkpt lat="31.604820054976003" lon="-6.366310193110339"><ele>2545.0</ele><time>2026-05-04T13:24:39Z</time></trkpt><trkpt lat="31.60486277736593" lon="-6.366224818199617"><ele>2545.0</ele><time>2026-05-04T13:24:40Z</time></trkpt><trkpt lat="31.60490199715367" lon="-6.3661348873504"><ele>2545.0</ele><time>2026-05-04T13:24:41Z</time></trkpt><trkpt lat="31.60493792156555" lon="-6.3660400447631"><ele>2544.166666666667</ele><time>2026-05-04T13:24:42Z</time></trkpt><trkpt lat="31.604968600380783" lon="-6.365950407382692"><ele>2543.3333333333335</ele><time>2026-05-04T13:24:43Z</time></trkpt><trkpt lat="31.604989812426652" lon="-6.3658658210519485"><ele>2542.5</ele><time>2026-05-04T13:24:44Z</time></trkpt><trkpt lat="31.604991912532334" lon="-6.365780641886624"><ele>2541.6666666666665</ele><time>2026-05-04T13:24:45Z</time></trkpt><trkpt lat="31.604968491758505" lon="-6.365698847446266"><ele>2540.833333333333</ele><time>2026-05-04T13:24:46Z</time></trkpt><trkpt lat="31.604956360735965" lon="-6.3656001777896565"><ele>2540.0</ele><time>2026-05-04T13:24:47Z</time></trkpt><trkpt lat="31.604914078180606" lon="-6.365508418762737"><ele>2540.0</ele><time>2026-05-04T13:24:48Z</time></trkpt><trkpt lat="31.604858159515654" lon="-6.365428923810968"><ele>2540.0</ele><time>2026-05-04T13:24:49Z</time></trkpt><trkpt lat="31.604786918974067" lon="-6.365364366091011"><ele>2540.0</ele><time>2026-05-04T13:24:50Z</time></trkpt><trkpt lat="31.60471276868073" lon="-6.365306107787177"><ele>2540.0</ele><time>2026-05-04T13:24:51Z</time></trkpt><trkpt lat="31.60464430012619" lon="-6.365227434226462"><ele>2540.0</ele><time>2026-05-04T13:24:52Z</time></trkpt><trkpt lat="31.604581566068312" lon="-6.365147375217664"><ele>2540.0</ele><time>2026-05-04T13:24:53Z</time></trkpt><trkpt lat="31.6045198489649" lon="-6.365055668406461"><ele>2540.0</ele><time>2026-05-04T13:24:54Z</time></trkpt><trkpt lat="31.604463586720872" lon="-6.364949634341333"><ele>2540.0</ele><time>2026-05-04T13:24:55Z</time></trkpt><trkpt lat="31.60441495591286" lon="-6.364841915619558"><ele>2540.0</ele><time>2026-05-04T13:24:56Z</time></trkpt><trkpt lat="31.60437330989061" lon="-6.364728044180767"><ele>2540.0</ele><time>2026-05-04T13:24:57Z</time></trkpt><trkpt lat="31.60434394969703" lon="-6.364614694798703"><ele>2536.6</ele><time>2026-05-04T13:24:58Z</time></trkpt><trkpt lat="31.604317551738188" lon="-6.364495998990114"><ele>2533.2</ele><time>2026-05-04T13:24:59Z</time></trkpt><trkpt lat="31.604304461094866" lon="-6.364384018608445"><ele>2529.8</ele><time>2026-05-04T13:25:00Z</time></trkpt><trkpt lat="31.604293786074138" lon="-6.364271082232647"><ele>2526.4</ele><time>2026-05-04T13:25:01Z</time></trkpt><trkpt lat="31.604288874757867" lon="-6.364153707615855"><ele>2523.0</ele><time>2026-05-04T13:25:02Z</time></trkpt><trkpt lat="31.60429174682591" lon="-6.3640423242178885"><ele>2523.0</ele><time>2026-05-04T13:25:03Z</time></trkpt><trkpt lat="31.604298692490005" lon="-6.363919375550354"><ele>2523.0</ele><time>2026-05-04T13:25:04Z</time></trkpt><trkpt lat="31.604307600068676" lon="-6.36379830807457"><ele>2523.0</ele><time>2026-05-04T13:25:05Z</time></trkpt><trkpt lat="31.604321176359395" lon="-6.363671413811675"><ele>2523.0</ele><time>2026-05-04T13:25:06Z</time></trkpt><trkpt lat="31.604339108414774" lon="-6.363565322971503"><ele>2523.0</ele><time>2026-05-04T13:25:07Z</time></trkpt><trkpt lat="31.604361886107597" lon="-6.363440767211635"><ele>2524.0</ele><time>2026-05-04T13:25:08Z</time></trkpt><trkpt lat="31.604390624062052" lon="-6.363326188343494"><ele>2525.0</ele><time>2026-05-04T13:25:09Z</time></trkpt><trkpt lat="31.604426879223805" lon="-6.363217075642439"><ele>2526.0</ele><time>2026-05-04T13:25:10Z</time></trkpt><trkpt lat="31.60446329892571" lon="-6.363100911700794"><ele>2527.0</ele><time>2026-05-04T13:25:11Z</time></trkpt><trkpt lat="31.604493145625824" lon="-6.36298460646336"><ele>2528.0</ele><time>2026-05-04T13:25:12Z</time></trkpt><trkpt lat="31.604516895923005" lon="-6.362872001786228"><ele>2528.0</ele><time>2026-05-04T13:25:13Z</time></trkpt><trkpt lat="31.60454220911812" lon="-6.362760712776109"><ele>2528.0</ele><time>2026-05-04T13:25:14Z</time></trkpt><trkpt lat="31.604569415410232" lon="-6.362645499459258"><ele>2528.0</ele><time>2026-05-04T13:25:15Z</time></trkpt><trkpt lat="31.604593944121685" lon="-6.3625347309643985"><ele>2528.0</ele><time>2026-05-04T13:25:16Z</time></trkpt><trkpt lat="31.604621659737802" lon="-6.362423867311491"><ele>2528.0</ele><time>2026-05-04T13:25:17Z</time></trkpt><trkpt lat="31.604647323666644" lon="-6.362311118451745"><ele>2528.0</ele><time>2026-05-04T13:25:18Z</time></trkpt><trkpt lat="31.60467613957374" lon="-6.362202556513947"><ele>2528.0</ele><time>2026-05-04T13:25:19Z</time></trkpt><trkpt lat="31.604705534868916" lon="-6.362097746286572"><ele>2528.0</ele><time>2026-05-04T13:25:20Z</time></trkpt><trkpt lat="31.604734439465865" lon="-6.361989522920576"><ele>2528.0</ele><time>2026-05-04T13:25:21Z</time></trkpt><trkpt lat="31.604760963097863" lon="-6.361893943584293"><ele>2528.0</ele><time>2026-05-04T13:25:22Z</time></trkpt><trkpt lat="31.60478677772105" lon="-6.361796341499423"><ele>2526.0</ele><time>2026-05-04T13:25:23Z</time></trkpt><trkpt lat="31.60481106014725" lon="-6.361700491555653"><ele>2524.0</ele><time>2026-05-04T13:25:24Z</time></trkpt><trkpt lat="31.604835294826717" lon="-6.361607947168967"><ele>2522.0</ele><time>2026-05-04T13:25:25Z</time></trkpt><trkpt lat="31.60486257804682" lon="-6.361517021358818"><ele>2520.0</ele><time>2026-05-04T13:25:26Z</time></trkpt><trkpt lat="31.604894181791035" lon="-6.3614382721999085"><ele>2518.0</ele><time>2026-05-04T13:25:27Z</time></trkpt><trkpt lat="31.604924752007896" lon="-6.361370494581617"><ele>2516.0</ele><time>2026-05-04T13:25:28Z</time></trkpt><trkpt lat="31.604937089422595" lon="-6.361246632166274"><ele>2516.0</ele><time>2026-05-04T13:25:30Z</time></trkpt><trkpt lat="31.604902580873055" lon="-6.361156001213343"><ele>2516.0</ele><time>2026-05-04T13:25:32Z</time></trkpt><trkpt lat="31.60479124221627" lon="-6.36119988027156"><ele>2516.0</ele><time>2026-05-04T13:25:34Z</time></trkpt><trkpt lat="31.604730043350468" lon="-6.361319989978531"><ele>2516.0</ele><time>2026-05-04T13:25:36Z</time></trkpt><trkpt lat="31.604691317478252" lon="-6.361383360735004"><ele>2516.0</ele><time>2026-05-04T13:25:37Z</time></trkpt><trkpt lat="31.60460904705873" lon="-6.3614989623662455"><ele>2516.0</ele><time>2026-05-04T13:25:39Z</time></trkpt><trkpt lat="31.604544513446125" lon="-6.361612725434864"><ele>2516.0</ele><time>2026-05-04T13:25:41Z</time></trkpt><trkpt lat="31.604452108333223" lon="-6.3616502240605834"><ele>2516.0</ele><time>2026-05-04T13:25:43Z</time></trkpt><trkpt lat="31.60436924958505" lon="-6.361568062186103"><ele>2516.0</ele><time>2026-05-04T13:25:45Z</time></trkpt><trkpt lat="31.604358191766583" lon="-6.361493709908916"><ele>2516.0</ele><time>2026-05-04T13:25:46Z</time></trkpt><trkpt lat="31.604376015363805" lon="-6.361409192480902"><ele>2512.333333333333</ele><time>2026-05-04T13:25:47Z</time></trkpt><trkpt lat="31.60440690562535" lon="-6.361316943278812"><ele>2508.6666666666665</ele><time>2026-05-04T13:25:48Z</time></trkpt><trkpt lat="31.60444109061856" lon="-6.3612167986975665"><ele>2505.0</ele><time>2026-05-04T13:25:49Z</time></trkpt><trkpt lat="31.604472669814413" lon="-6.361128258530128"><ele>2501.3333333333335</ele><time>2026-05-04T13:25:50Z</time></trkpt><trkpt lat="31.60450469169287" lon="-6.36104801752338"><ele>2497.666666666667</ele><time>2026-05-04T13:25:51Z</time></trkpt><trkpt lat="31.604533733938098" lon="-6.360969313434649"><ele>2494.0</ele><time>2026-05-04T13:25:52Z</time></trkpt><trkpt lat="31.60454271327835" lon="-6.360835669862606"><ele>2491.5</ele><time>2026-05-04T13:25:54Z</time></trkpt><trkpt lat="31.604477435375724" lon="-6.360744230147473"><ele>2489.0</ele><time>2026-05-04T13:25:56Z</time></trkpt><trkpt lat="31.604360682993" lon="-6.360722476562056"><ele>2486.5</ele><time>2026-05-04T13:25:58Z</time></trkpt><trkpt lat="31.6042436677026" lon="-6.360806347536046"><ele>2484.0</ele><time>2026-05-04T13:26:00Z</time></trkpt><trkpt lat="31.604221704388774" lon="-6.360919871276807"><ele>2484.0</ele><time>2026-05-04T13:26:01Z</time></trkpt><trkpt lat="31.604164464908834" lon="-6.360995554607832"><ele>2484.0</ele><time>2026-05-04T13:26:02Z</time></trkpt><trkpt lat="31.604092733793973" lon="-6.361062888307848"><ele>2484.0</ele><time>2026-05-04T13:26:03Z</time></trkpt><trkpt lat="31.604027715538916" lon="-6.361148545589379"><ele>2484.0</ele><time>2026-05-04T13:26:04Z</time></trkpt><trkpt lat="31.60395545037691" lon="-6.361227290920637"><ele>2484.0</ele><time>2026-05-04T13:26:05Z</time></trkpt><trkpt lat="31.603888535015347" lon="-6.3613116267888286"><ele>2483.0</ele><time>2026-05-04T13:26:06Z</time></trkpt><trkpt lat="31.603808934791413" lon="-6.36136756091858"><ele>2482.0</ele><time>2026-05-04T13:26:07Z</time></trkpt><trkpt lat="31.603759916151564" lon="-6.361454845620087"><ele>2481.0</ele><time>2026-05-04T13:26:08Z</time></trkpt><trkpt lat="31.603710383850796" lon="-6.361536851655654"><ele>2480.0</ele><time>2026-05-04T13:26:09Z</time></trkpt><trkpt lat="31.603645711836947" lon="-6.361600610999742"><ele>2479.0</ele><time>2026-05-04T13:26:10Z</time></trkpt><trkpt lat="31.60358896929233" lon="-6.361667795903122"><ele>2478.0</ele><time>2026-05-04T13:26:11Z</time></trkpt><trkpt lat="31.60351975638292" lon="-6.361720829459737"><ele>2478.0</ele><time>2026-05-04T13:26:12Z</time></trkpt><trkpt lat="31.603436857707283" lon="-6.361763634221887"><ele>2478.0</ele><time>2026-05-04T13:26:13Z</time></trkpt><trkpt lat="31.603344661925327" lon="-6.361797679107305"><ele>2478.0</ele><time>2026-05-04T13:26:14Z</time></trkpt><trkpt lat="31.603258892065917" lon="-6.361857457020114"><ele>2478.0</ele><time>2026-05-04T13:26:15Z</time></trkpt><trkpt lat="31.60318086545502" lon="-6.361915203938062"><ele>2478.0</ele><time>2026-05-04T13:26:16Z</time></trkpt><trkpt lat="31.60310065279544" lon="-6.361970418842491"><ele>2478.0</ele><time>2026-05-04T13:26:17Z</time></trkpt><trkpt lat="31.603026492654717" lon="-6.3620331203774345"><ele>2478.0</ele><time>2026-05-04T13:26:18Z</time></trkpt><trkpt lat="31.602952928689085" lon="-6.362093084935244"><ele>2478.0</ele><time>2026-05-04T13:26:19Z</time></trkpt><trkpt lat="31.602869922075463" lon="-6.3621464840974085"><ele>2478.0</ele><time>2026-05-04T13:26:20Z</time></trkpt><trkpt lat="31.602799200885876" lon="-6.3622091284972555"><ele>2478.0</ele><time>2026-05-04T13:26:21Z</time></trkpt><trkpt lat="31.60272420642437" lon="-6.362267466390724"><ele>2477.6</ele><time>2026-05-04T13:26:22Z</time></trkpt><trkpt lat="31.602651899475443" lon="-6.362329022087388"><ele>2477.2000000000003</ele><time>2026-05-04T13:26:23Z</time></trkpt><trkpt lat="31.602571010905066" lon="-6.362387014271437"><ele>2476.8</ele><time>2026-05-04T13:26:24Z</time></trkpt><trkpt lat="31.602493535781324" lon="-6.362446471436237"><ele>2476.4</ele><time>2026-05-04T13:26:25Z</time></trkpt><trkpt lat="31.60243617234996" lon="-6.362525111786358"><ele>2476.0</ele><time>2026-05-04T13:26:26Z</time></trkpt><trkpt lat="31.602373659561557" lon="-6.3625922236685035"><ele>2476.0</ele><time>2026-05-04T13:26:27Z</time></trkpt><trkpt lat="31.602320194464617" lon="-6.362673327540018"><ele>2476.0</ele><time>2026-05-04T13:26:28Z</time></trkpt><trkpt lat="31.602266802728494" lon="-6.36277493973889"><ele>2476.0</ele><time>2026-05-04T13:26:29Z</time></trkpt><trkpt lat="31.6022127286384" lon="-6.362890224029166"><ele>2476.0</ele><time>2026-05-04T13:26:30Z</time></trkpt><trkpt lat="31.602161731900665" lon="-6.363006372491227"><ele>2476.0</ele><time>2026-05-04T13:26:31Z</time></trkpt><trkpt lat="31.602104652064344" lon="-6.363127644357721"><ele>2478.0</ele><time>2026-05-04T13:26:32Z</time></trkpt><trkpt lat="31.602027633746022" lon="-6.363238303299839"><ele>2480.0</ele><time>2026-05-04T13:26:33Z</time></trkpt><trkpt lat="31.601973346458657" lon="-6.363366529085599"><ele>2482.0</ele><time>2026-05-04T13:26:34Z</time></trkpt><trkpt lat="31.601907598860322" lon="-6.363475322882866"><ele>2484.0</ele><time>2026-05-04T13:26:35Z</time></trkpt><trkpt lat="31.60184988758762" lon="-6.363568209811041"><ele>2480.4</ele><time>2026-05-04T13:26:36Z</time></trkpt><trkpt lat="31.601809698993936" lon="-6.363668204430365"><ele>2476.8</ele><time>2026-05-04T13:26:37Z</time></trkpt><trkpt lat="31.601795174683975" lon="-6.363763848790234"><ele>2473.2</ele><time>2026-05-04T13:26:38Z</time></trkpt><trkpt lat="31.601790415150447" lon="-6.363882522693347"><ele>2469.6</ele><time>2026-05-04T13:26:39Z</time></trkpt><trkpt lat="31.601791049611812" lon="-6.364012601800824"><ele>2466.0</ele><time>2026-05-04T13:26:40Z</time></trkpt><trkpt lat="31.60179249032951" lon="-6.364134610265685"><ele>2466.0</ele><time>2026-05-04T13:26:41Z</time></trkpt><trkpt lat="31.601790920162944" lon="-6.36425328597033"><ele>2466.0</ele><time>2026-05-04T13:26:42Z</time></trkpt><trkpt lat="31.601786421238383" lon="-6.364372543322194"><ele>2466.0</ele><time>2026-05-04T13:26:43Z</time></trkpt><trkpt lat="31.601782091030966" lon="-6.3644873281416485"><ele>2466.0</ele><time>2026-05-04T13:26:44Z</time></trkpt><trkpt lat="31.601779279737706" lon="-6.364592152093745"><ele>2466.0</ele><time>2026-05-04T13:26:45Z</time></trkpt><trkpt lat="31.60175894751887" lon="-6.364693626953941"><ele>2465.6</ele><time>2026-05-04T13:26:46Z</time></trkpt><trkpt lat="31.60174262614523" lon="-6.364780690180328"><ele>2465.2</ele><time>2026-05-04T13:26:47Z</time></trkpt><trkpt lat="31.601706845455187" lon="-6.364852773183418"><ele>2464.8</ele><time>2026-05-04T13:26:48Z</time></trkpt><trkpt lat="31.60164609258285" lon="-6.3649620864373215"><ele>2464.4</ele><time>2026-05-04T13:26:50Z</time></trkpt><trkpt lat="31.601555354377663" lon="-6.3650276866515645"><ele>2464.0</ele><time>2026-05-04T13:26:52Z</time></trkpt><trkpt lat="31.601484659255103" lon="-6.364959637539405"><ele>2464.0</ele><time>2026-05-04T13:26:53Z</time></trkpt><trkpt lat="31.601425983803143" lon="-6.364919867266485"><ele>2464.0</ele><time>2026-05-04T13:26:54Z</time></trkpt><trkpt lat="31.60138835327371" lon="-6.36479997717793"><ele>2464.0</ele><time>2026-05-04T13:26:55Z</time></trkpt><trkpt lat="31.601338443678763" lon="-6.364694254897541"><ele>2464.0</ele><time>2026-05-04T13:26:56Z</time></trkpt><trkpt lat="31.60128584883679" lon="-6.36456923335851"><ele>2464.0</ele><time>2026-05-04T13:26:57Z</time></trkpt><trkpt lat="31.601239440874902" lon="-6.364444413084376"><ele>2464.4</ele><time>2026-05-04T13:26:58Z</time></trkpt><trkpt lat="31.601202269510974" lon="-6.364326064591872"><ele>2464.8</ele><time>2026-05-04T13:26:59Z</time></trkpt><trkpt lat="31.601179736145653" lon="-6.364206379400497"><ele>2465.2</ele><time>2026-05-04T13:27:00Z</time></trkpt><trkpt lat="31.601168628568963" lon="-6.364080417425362"><ele>2465.6</ele><time>2026-05-04T13:27:01Z</time></trkpt><trkpt lat="31.601170747855438" lon="-6.363948202493958"><ele>2466.0</ele><time>2026-05-04T13:27:02Z</time></trkpt><trkpt lat="31.60118116900229" lon="-6.363813465641465"><ele>2465.0</ele><time>2026-05-04T13:27:03Z</time></trkpt><trkpt lat="31.60119471456248" lon="-6.363680369851079"><ele>2464.0</ele><time>2026-05-04T13:27:04Z</time></trkpt><trkpt lat="31.601209535204262" lon="-6.363544873800369"><ele>2463.0</ele><time>2026-05-04T13:27:05Z</time></trkpt><trkpt lat="31.601226682255817" lon="-6.3634059586017715"><ele>2462.0</ele><time>2026-05-04T13:27:06Z</time></trkpt><trkpt lat="31.60124797685137" lon="-6.363267447495221"><ele>2462.0</ele><time>2026-05-04T13:27:07Z</time></trkpt><trkpt lat="31.60127081871561" lon="-6.363129006030163"><ele>2462.0</ele><time>2026-05-04T13:27:08Z</time></trkpt><trkpt lat="31.601302709723274" lon="-6.3629980207819665"><ele>2462.0</ele><time>2026-05-04T13:27:09Z</time></trkpt><trkpt lat="31.60134003321422" lon="-6.362866438482015"><ele>2462.0</ele><time>2026-05-04T13:27:10Z</time></trkpt><trkpt lat="31.601372916217343" lon="-6.36274207225726"><ele>2460.6</ele><time>2026-05-04T13:27:11Z</time></trkpt><trkpt lat="31.601388962986668" lon="-6.362610641875071"><ele>2459.2</ele><time>2026-05-04T13:27:12Z</time></trkpt><trkpt lat="31.60142353508198" lon="-6.362485721139578"><ele>2457.8</ele><time>2026-05-04T13:27:13Z</time></trkpt><trkpt lat="31.601403606083775" lon="-6.362358639669479"><ele>2456.4</ele><time>2026-05-04T13:27:14Z</time></trkpt><trkpt lat="31.601397822422303" lon="-6.362234144425007"><ele>2455.0</ele><time>2026-05-04T13:27:15Z</time></trkpt><trkpt lat="31.60140016980939" lon="-6.3621097065744765"><ele>2454.4</ele><time>2026-05-04T13:27:16Z</time></trkpt><trkpt lat="31.60138633454571" lon="-6.361989158329695"><ele>2453.8</ele><time>2026-05-04T13:27:17Z</time></trkpt><trkpt lat="31.60136934268235" lon="-6.361864741426145"><ele>2453.2</ele><time>2026-05-04T13:27:18Z</time></trkpt><trkpt lat="31.601353266464017" lon="-6.361737174025333"><ele>2452.6</ele><time>2026-05-04T13:27:19Z</time></trkpt><trkpt lat="31.601338305426196" lon="-6.361606868520962"><ele>2452.0</ele><time>2026-05-04T13:27:20Z</time></trkpt><trkpt lat="31.601327575614476" lon="-6.361468162520341"><ele>2450.25</ele><time>2026-05-04T13:27:21Z</time></trkpt><trkpt lat="31.6013150360475" lon="-6.361335115771314"><ele>2448.5</ele><time>2026-05-04T13:27:22Z</time></trkpt><trkpt lat="31.601303125445853" lon="-6.361202171983018"><ele>2446.75</ele><time>2026-05-04T13:27:23Z</time></trkpt><trkpt lat="31.601292174479727" lon="-6.361066213473933"><ele>2445.0</ele><time>2026-05-04T13:27:24Z</time></trkpt><trkpt lat="31.60128958736391" lon="-6.360937862709773"><ele>2445.0</ele><time>2026-05-04T13:27:25Z</time></trkpt><trkpt lat="31.60128639859915" lon="-6.360811573631262"><ele>2445.0</ele><time>2026-05-04T13:27:26Z</time></trkpt><trkpt lat="31.601269286918033" lon="-6.360692383733707"><ele>2445.0</ele><time>2026-05-04T13:27:27Z</time></trkpt><trkpt lat="31.60128784041267" lon="-6.360577087721966"><ele>2445.0</ele><time>2026-05-04T13:27:28Z</time></trkpt><trkpt lat="31.601291632241082" lon="-6.36046818442289"><ele>2445.0</ele><time>2026-05-04T13:27:29Z</time></trkpt><trkpt lat="31.601297032152452" lon="-6.360366101276731"><ele>2444.0</ele><time>2026-05-04T13:27:30Z</time></trkpt><trkpt lat="31.60130675874965" lon="-6.360277971137998"><ele>2443.0</ele><time>2026-05-04T13:27:31Z</time></trkpt><trkpt lat="31.601317665200206" lon="-6.360194986742834"><ele>2442.0</ele><time>2026-05-04T13:27:32Z</time></trkpt><trkpt lat="31.601369220647445" lon="-6.360064832338338"><ele>2441.0</ele><time>2026-05-04T13:27:34Z</time></trkpt><trkpt lat="31.601363409346536" lon="-6.359985119701986"><ele>2440.0</ele><time>2026-05-04T13:27:35Z</time></trkpt><trkpt lat="31.6013835381832" lon="-6.359857353491148"><ele>2439.0</ele><time>2026-05-04T13:27:37Z</time></trkpt><trkpt lat="31.60137261544241" lon="-6.359776640252653"><ele>2439.0</ele><time>2026-05-04T13:27:39Z</time></trkpt><trkpt lat="31.60123156588443" lon="-6.359759406010217"><ele>2439.0</ele><time>2026-05-04T13:27:41Z</time></trkpt><trkpt lat="31.601149309556664" lon="-6.359767635350525"><ele>2439.0</ele><time>2026-05-04T13:27:42Z</time></trkpt><trkpt lat="31.601066930868562" lon="-6.3598014133740355"><ele>2439.0</ele><time>2026-05-04T13:27:43Z</time></trkpt><trkpt lat="31.60098239587584" lon="-6.359793304830315"><ele>2439.0</ele><time>2026-05-04T13:27:44Z</time></trkpt><trkpt lat="31.600908493104892" lon="-6.359785216767036"><ele>2438.3333333333335</ele><time>2026-05-04T13:27:45Z</time></trkpt><trkpt lat="31.600835721014757" lon="-6.359746463965342"><ele>2437.6666666666665</ele><time>2026-05-04T13:27:46Z</time></trkpt><trkpt lat="31.600772327123178" lon="-6.3596827036433305"><ele>2437.0</ele><time>2026-05-04T13:27:47Z</time></trkpt><trkpt lat="31.600725423586017" lon="-6.359595447088349"><ele>2436.333333333333</ele><time>2026-05-04T13:27:48Z</time></trkpt><trkpt lat="31.600690238167466" lon="-6.359499020838045"><ele>2435.6666666666665</ele><time>2026-05-04T13:27:49Z</time></trkpt><trkpt lat="31.60066806301364" lon="-6.35938876242705"><ele>2435.0</ele><time>2026-05-04T13:27:50Z</time></trkpt><trkpt lat="31.60065390977448" lon="-6.35926461018224"><ele>2435.0</ele><time>2026-05-04T13:27:51Z</time></trkpt><trkpt lat="31.60063900943959" lon="-6.3591311827366885"><ele>2435.0</ele><time>2026-05-04T13:27:52Z</time></trkpt><trkpt lat="31.60062119177841" lon="-6.359000630766341"><ele>2435.0</ele><time>2026-05-04T13:27:53Z</time></trkpt><trkpt lat="31.600602005092437" lon="-6.35887629305596"><ele>2435.0</ele><time>2026-05-04T13:27:54Z</time></trkpt><trkpt lat="31.600578767526223" lon="-6.358758808332189"><ele>2435.0</ele><time>2026-05-04T13:27:55Z</time></trkpt><trkpt lat="31.600551114532202" lon="-6.358645333273534"><ele>2434.4</ele><time>2026-05-04T13:27:56Z</time></trkpt><trkpt lat="31.600519599943382" lon="-6.358535747556782"><ele>2433.8</ele><time>2026-05-04T13:27:57Z</time></trkpt><trkpt lat="31.600490122614463" lon="-6.358428972530396"><ele>2433.2</ele><time>2026-05-04T13:27:58Z</time></trkpt><trkpt lat="31.60046059537537" lon="-6.35831770024842"><ele>2432.6</ele><time>2026-05-04T13:27:59Z</time></trkpt><trkpt lat="31.600430056533956" lon="-6.3582090007836305"><ele>2432.0</ele><time>2026-05-04T13:28:00Z</time></trkpt><trkpt lat="31.60039708576821" lon="-6.358098457504534"><ele>2431.4</ele><time>2026-05-04T13:28:01Z</time></trkpt><trkpt lat="31.600371670415353" lon="-6.357994632040447"><ele>2430.7999999999997</ele><time>2026-05-04T13:28:02Z</time></trkpt><trkpt lat="31.60034912162747" lon="-6.357887692607455"><ele>2430.2</ele><time>2026-05-04T13:28:03Z</time></trkpt><trkpt lat="31.600335809676963" lon="-6.357779625284219"><ele>2429.6</ele><time>2026-05-04T13:28:04Z</time></trkpt><trkpt lat="31.600335002260874" lon="-6.3576657519697966"><ele>2429.0</ele><time>2026-05-04T13:28:05Z</time></trkpt><trkpt lat="31.600343761010485" lon="-6.35755093959321"><ele>2429.0</ele><time>2026-05-04T13:28:06Z</time></trkpt><trkpt lat="31.600364004730263" lon="-6.357431178535616"><ele>2429.0</ele><time>2026-05-04T13:28:07Z</time></trkpt><trkpt lat="31.600387952481103" lon="-6.357311980863752"><ele>2429.0</ele><time>2026-05-04T13:28:08Z</time></trkpt><trkpt lat="31.60041229122336" lon="-6.357190874872577"><ele>2429.0</ele><time>2026-05-04T13:28:09Z</time></trkpt><trkpt lat="31.600441709553525" lon="-6.357072384936919"><ele>2429.0</ele><time>2026-05-04T13:28:10Z</time></trkpt><trkpt lat="31.60047690980796" lon="-6.356956780283787"><ele>2427.0</ele><time>2026-05-04T13:28:11Z</time></trkpt><trkpt lat="31.600517514625036" lon="-6.356841750067297"><ele>2425.0</ele><time>2026-05-04T13:28:12Z</time></trkpt><trkpt lat="31.60055129465392" lon="-6.356736008381548"><ele>2423.0</ele><time>2026-05-04T13:28:13Z</time></trkpt><trkpt lat="31.600568154724126" lon="-6.35661264625666"><ele>2421.0</ele><time>2026-05-04T13:28:14Z</time></trkpt><trkpt lat="31.60056741640359" lon="-6.356491991100798"><ele>2419.0</ele><time>2026-05-04T13:28:15Z</time></trkpt><trkpt lat="31.6005560634949" lon="-6.356376414538166"><ele>2418.2</ele><time>2026-05-04T13:28:16Z</time></trkpt><trkpt lat="31.600539297732073" lon="-6.356254745057119"><ele>2417.4</ele><time>2026-05-04T13:28:17Z</time></trkpt><trkpt lat="31.600520823706695" lon="-6.356138795202979"><ele>2416.6</ele><time>2026-05-04T13:28:18Z</time></trkpt><trkpt lat="31.600496235587524" lon="-6.356019306457652"><ele>2415.8</ele><time>2026-05-04T13:28:19Z</time></trkpt><trkpt lat="31.600469645855263" lon="-6.355900586070703"><ele>2415.0</ele><time>2026-05-04T13:28:20Z</time></trkpt><trkpt lat="31.600442876725182" lon="-6.355779414352459"><ele>2415.0</ele><time>2026-05-04T13:28:21Z</time></trkpt><trkpt lat="31.600415302355888" lon="-6.355656536056068"><ele>2415.0</ele><time>2026-05-04T13:28:22Z</time></trkpt><trkpt lat="31.600366044079443" lon="-6.355539305224364"><ele>2415.0</ele><time>2026-05-04T13:28:23Z</time></trkpt><trkpt lat="31.600349498838845" lon="-6.355420488307423"><ele>2415.0</ele><time>2026-05-04T13:28:24Z</time></trkpt><trkpt lat="31.60031881344372" lon="-6.355299455508708"><ele>2415.0</ele><time>2026-05-04T13:28:25Z</time></trkpt><trkpt lat="31.60029057733147" lon="-6.355181924109922"><ele>2410.6</ele><time>2026-05-04T13:28:26Z</time></trkpt><trkpt lat="31.600260828747995" lon="-6.355067242781687"><ele>2406.2</ele><time>2026-05-04T13:28:27Z</time></trkpt><trkpt lat="31.60022560875987" lon="-6.3549485272851065"><ele>2401.8</ele><time>2026-05-04T13:28:28Z</time></trkpt><trkpt lat="31.60018760031426" lon="-6.354837908462763"><ele>2397.4</ele><time>2026-05-04T13:28:29Z</time></trkpt><trkpt lat="31.600158620042286" lon="-6.354728401469413"><ele>2393.0</ele><time>2026-05-04T13:28:30Z</time></trkpt><trkpt lat="31.60013771351844" lon="-6.354614436503185"><ele>2393.0</ele><time>2026-05-04T13:28:31Z</time></trkpt><trkpt lat="31.60011286412154" lon="-6.354497105457909"><ele>2393.0</ele><time>2026-05-04T13:28:32Z</time></trkpt><trkpt lat="31.600079622826474" lon="-6.354372434231788"><ele>2393.0</ele><time>2026-05-04T13:28:33Z</time></trkpt><trkpt lat="31.600049674339697" lon="-6.3542497850711745"><ele>2393.0</ele><time>2026-05-04T13:28:34Z</time></trkpt><trkpt lat="31.600023672133226" lon="-6.354122963665985"><ele>2393.0</ele><time>2026-05-04T13:28:35Z</time></trkpt><trkpt lat="31.599999756509057" lon="-6.353997809684998"><ele>2393.0</ele><time>2026-05-04T13:28:36Z</time></trkpt><trkpt lat="31.599974793392818" lon="-6.353872615847607"><ele>2393.0</ele><time>2026-05-04T13:28:37Z</time></trkpt><trkpt lat="31.599951163935696" lon="-6.353749765486969"><ele>2393.0</ele><time>2026-05-04T13:28:38Z</time></trkpt><trkpt lat="31.59994118458618" lon="-6.353636118890736"><ele>2393.0</ele><time>2026-05-04T13:28:39Z</time></trkpt><trkpt lat="31.59994922220471" lon="-6.353531137295589"><ele>2393.0</ele><time>2026-05-04T13:28:40Z</time></trkpt><trkpt lat="31.599975579601878" lon="-6.353440037702034"><ele>2393.0</ele><time>2026-05-04T13:28:41Z</time></trkpt><trkpt lat="31.600015828469893" lon="-6.353365361034959"><ele>2393.0</ele><time>2026-05-04T13:28:42Z</time></trkpt><trkpt lat="31.600055869477693" lon="-6.353303247772864"><ele>2393.0</ele><time>2026-05-04T13:28:43Z</time></trkpt><trkpt lat="31.60007612106413" lon="-6.3531665648638045"><ele>2393.0</ele><time>2026-05-04T13:28:45Z</time></trkpt><trkpt lat="31.600014179166017" lon="-6.3530486535848825"><ele>2393.0</ele><time>2026-05-04T13:28:47Z</time></trkpt><trkpt lat="31.59994880335394" lon="-6.353001833842245"><ele>2394.6</ele><time>2026-05-04T13:28:48Z</time></trkpt><trkpt lat="31.59986743972144" lon="-6.3529600663930115"><ele>2396.2000000000003</ele><time>2026-05-04T13:28:49Z</time></trkpt><trkpt lat="31.599787424773336" lon="-6.352910682237636"><ele>2397.8</ele><time>2026-05-04T13:28:50Z</time></trkpt><trkpt lat="31.599711047748105" lon="-6.35285095938299"><ele>2399.4</ele><time>2026-05-04T13:28:51Z</time></trkpt><trkpt lat="31.59964672141238" lon="-6.352778542760269"><ele>2401.0</ele><time>2026-05-04T13:28:52Z</time></trkpt><trkpt lat="31.59958593226304" lon="-6.352697931815962"><ele>2401.0</ele><time>2026-05-04T13:28:53Z</time></trkpt><trkpt lat="31.599527543446037" lon="-6.352619510638474"><ele>2401.0</ele><time>2026-05-04T13:28:54Z</time></trkpt><trkpt lat="31.59947608103355" lon="-6.352537124772109"><ele>2401.0</ele><time>2026-05-04T13:28:55Z</time></trkpt><trkpt lat="31.599432574900717" lon="-6.352448896700121"><ele>2401.0</ele><time>2026-05-04T13:28:56Z</time></trkpt><trkpt lat="31.59939401824012" lon="-6.35235731814708"><ele>2401.0</ele><time>2026-05-04T13:28:57Z</time></trkpt><trkpt lat="31.599361459320548" lon="-6.352258934050316"><ele>2401.0</ele><time>2026-05-04T13:28:58Z</time></trkpt><trkpt lat="31.599335035982655" lon="-6.352144056169589"><ele>2396.8</ele><time>2026-05-04T13:28:59Z</time></trkpt><trkpt lat="31.599310219301913" lon="-6.352024993112027"><ele>2392.6</ele><time>2026-05-04T13:29:00Z</time></trkpt><trkpt lat="31.59929093106097" lon="-6.351904430505414"><ele>2388.4</ele><time>2026-05-04T13:29:01Z</time></trkpt><trkpt lat="31.599270700417243" lon="-6.351789315815339"><ele>2384.2</ele><time>2026-05-04T13:29:02Z</time></trkpt><trkpt lat="31.599255184631645" lon="-6.351667069176902"><ele>2380.0</ele><time>2026-05-04T13:29:03Z</time></trkpt><trkpt lat="31.59924497938849" lon="-6.35154620718385"><ele>2380.0</ele><time>2026-05-04T13:29:04Z</time></trkpt><trkpt lat="31.599241347786457" lon="-6.351429555060668"><ele>2380.0</ele><time>2026-05-04T13:29:05Z</time></trkpt><trkpt lat="31.599237850269677" lon="-6.351303214595113"><ele>2380.0</ele><time>2026-05-04T13:29:06Z</time></trkpt><trkpt lat="31.599241503412696" lon="-6.351188803522692"><ele>2380.0</ele><time>2026-05-04T13:29:07Z</time></trkpt><trkpt lat="31.599249235171023" lon="-6.351066786346361"><ele>2380.0</ele><time>2026-05-04T13:29:08Z</time></trkpt><trkpt lat="31.599261841049092" lon="-6.35095067690136"><ele>2379.0</ele><time>2026-05-04T13:29:09Z</time></trkpt><trkpt lat="31.599267591446296" lon="-6.350844489749789"><ele>2378.0</ele><time>2026-05-04T13:29:10Z</time></trkpt><trkpt lat="31.599262134590077" lon="-6.350714829020154"><ele>2377.0</ele><time>2026-05-04T13:29:11Z</time></trkpt><trkpt lat="31.599220838156615" lon="-6.3506029792753"><ele>2376.0</ele><time>2026-05-04T13:29:12Z</time></trkpt><trkpt lat="31.599174720349374" lon="-6.35049823183271"><ele>2375.0</ele><time>2026-05-04T13:29:13Z</time></trkpt><trkpt lat="31.599136858676427" lon="-6.350387522322415"><ele>2374.0</ele><time>2026-05-04T13:29:14Z</time></trkpt><trkpt lat="31.599099849511507" lon="-6.350261665252602"><ele>2373.0</ele><time>2026-05-04T13:29:15Z</time></trkpt><trkpt lat="31.599065993215586" lon="-6.350134697232178"><ele>2372.0</ele><time>2026-05-04T13:29:16Z</time></trkpt><trkpt lat="31.599035324103763" lon="-6.35000810317636"><ele>2371.0</ele><time>2026-05-04T13:29:17Z</time></trkpt><trkpt lat="31.599005559856085" lon="-6.349877578586121"><ele>2371.0</ele><time>2026-05-04T13:29:18Z</time></trkpt><trkpt lat="31.598975098485564" lon="-6.349749776013982"><ele>2371.0</ele><time>2026-05-04T13:29:19Z</time></trkpt><trkpt lat="31.598944092442743" lon="-6.349621104793144"><ele>2371.0</ele><time>2026-05-04T13:29:20Z</time></trkpt><trkpt lat="31.59891856304963" lon="-6.349491437345209"><ele>2371.0</ele><time>2026-05-04T13:29:21Z</time></trkpt><trkpt lat="31.59890577207297" lon="-6.349352049321293"><ele>2370.0</ele><time>2026-05-04T13:29:22Z</time></trkpt><trkpt lat="31.598898224348453" lon="-6.349214782348844"><ele>2369.0</ele><time>2026-05-04T13:29:23Z</time></trkpt><trkpt lat="31.5988984835215" lon="-6.349078181199929"><ele>2368.0</ele><time>2026-05-04T13:29:24Z</time></trkpt><trkpt lat="31.598901807109698" lon="-6.34893930989313"><ele>2367.0</ele><time>2026-05-04T13:29:25Z</time></trkpt><trkpt lat="31.59890669829319" lon="-6.3488041808150095"><ele>2366.7999999999997</ele><time>2026-05-04T13:29:26Z</time></trkpt><trkpt lat="31.598908811263613" lon="-6.3486701641980225"><ele>2366.6</ele><time>2026-05-04T13:29:27Z</time></trkpt><trkpt lat="31.598899869222915" lon="-6.348547701998446"><ele>2366.3999999999996</ele><time>2026-05-04T13:29:28Z</time></trkpt><trkpt lat="31.598893741286044" lon="-6.348424183977041"><ele>2366.2</ele><time>2026-05-04T13:29:29Z</time></trkpt><trkpt lat="31.598895882919017" lon="-6.348297522603302"><ele>2366.0</ele><time>2026-05-04T13:29:30Z</time></trkpt><trkpt lat="31.598912464397646" lon="-6.3481918073436265"><ele>2366.0</ele><time>2026-05-04T13:29:31Z</time></trkpt><trkpt lat="31.598940967296205" lon="-6.348086320232281"><ele>2366.0</ele><time>2026-05-04T13:29:32Z</time></trkpt><trkpt lat="31.598974188467597" lon="-6.3479869054413065"><ele>2366.0</ele><time>2026-05-04T13:29:33Z</time></trkpt><trkpt lat="31.59901551031571" lon="-6.347885253866281"><ele>2366.0</ele><time>2026-05-04T13:29:34Z</time></trkpt><trkpt lat="31.599066788091957" lon="-6.3477780195663485"><ele>2366.0</ele><time>2026-05-04T13:29:35Z</time></trkpt><trkpt lat="31.59912019213537" lon="-6.347669306102467"><ele>2363.25</ele><time>2026-05-04T13:29:36Z</time></trkpt><trkpt lat="31.599174483182697" lon="-6.347557641628542"><ele>2360.5</ele><time>2026-05-04T13:29:37Z</time></trkpt><trkpt lat="31.59923177230353" lon="-6.347439422441985"><ele>2357.75</ele><time>2026-05-04T13:29:38Z</time></trkpt><trkpt lat="31.59928593926971" lon="-6.3473276147009186"><ele>2355.0</ele><time>2026-05-04T13:29:39Z</time></trkpt><trkpt lat="31.59934911786538" lon="-6.347203752243658"><ele>2355.25</ele><time>2026-05-04T13:29:40Z</time></trkpt><trkpt lat="31.59940372973273" lon="-6.347079488286846"><ele>2355.5</ele><time>2026-05-04T13:29:41Z</time></trkpt><trkpt lat="31.59945915332344" lon="-6.346960002350206"><ele>2355.75</ele><time>2026-05-04T13:29:42Z</time></trkpt><trkpt lat="31.599517600761512" lon="-6.34684100171751"><ele>2356.0</ele><time>2026-05-04T13:29:43Z</time></trkpt><trkpt lat="31.59956857513298" lon="-6.346725374889526"><ele>2356.0</ele><time>2026-05-04T13:29:44Z</time></trkpt><trkpt lat="31.599617119522293" lon="-6.346613062975883"><ele>2356.0</ele><time>2026-05-04T13:29:45Z</time></trkpt><trkpt lat="31.599665297026394" lon="-6.346504550259637"><ele>2356.0</ele><time>2026-05-04T13:29:46Z</time></trkpt><trkpt lat="31.599713808352462" lon="-6.346388629220048"><ele>2356.0</ele><time>2026-05-04T13:29:47Z</time></trkpt><trkpt lat="31.599756575206364" lon="-6.346270999903421"><ele>2356.0</ele><time>2026-05-04T13:29:48Z</time></trkpt><trkpt lat="31.599798619612766" lon="-6.346144256017527"><ele>2354.8</ele><time>2026-05-04T13:29:49Z</time></trkpt><trkpt lat="31.59982836594491" lon="-6.346033493124214"><ele>2353.6</ele><time>2026-05-04T13:29:50Z</time></trkpt><trkpt lat="31.599847582095332" lon="-6.345918415452236"><ele>2352.4</ele><time>2026-05-04T13:29:51Z</time></trkpt><trkpt lat="31.599839807796567" lon="-6.345811963610099"><ele>2351.2</ele><time>2026-05-04T13:29:52Z</time></trkpt><trkpt lat="31.599810590906056" lon="-6.34570342231421"><ele>2350.0</ele><time>2026-05-04T13:29:53Z</time></trkpt><trkpt lat="31.59978702917742" lon="-6.345572285234633"><ele>2348.25</ele><time>2026-05-04T13:29:54Z</time></trkpt><trkpt lat="31.599771790651847" lon="-6.345424864754441"><ele>2346.5</ele><time>2026-05-04T13:29:55Z</time></trkpt><trkpt lat="31.599758950923228" lon="-6.345286956051566"><ele>2344.75</ele><time>2026-05-04T13:29:56Z</time></trkpt><trkpt lat="31.599755519330564" lon="-6.3451438228403045"><ele>2343.0</ele><time>2026-05-04T13:29:57Z</time></trkpt><trkpt lat="31.599757262378947" lon="-6.3449980333237335"><ele>2343.0</ele><time>2026-05-04T13:29:58Z</time></trkpt><trkpt lat="31.59976824944994" lon="-6.344855608088977"><ele>2343.0</ele><time>2026-05-04T13:29:59Z</time></trkpt><trkpt lat="31.5997787386519" lon="-6.344711019477648"><ele>2343.0</ele><time>2026-05-04T13:30:00Z</time></trkpt><trkpt lat="31.599772299689555" lon="-6.3445661873334585"><ele>2343.0</ele><time>2026-05-04T13:30:01Z</time></trkpt><trkpt lat="31.59974382784964" lon="-6.3444162122328205"><ele>2343.75</ele><time>2026-05-04T13:30:02Z</time></trkpt><trkpt lat="31.59970371170093" lon="-6.3442724164771205"><ele>2344.5</ele><time>2026-05-04T13:30:03Z</time></trkpt><trkpt lat="31.599661558941236" lon="-6.3441241956604415"><ele>2345.25</ele><time>2026-05-04T13:30:04Z</time></trkpt><trkpt lat="31.599616093947844" lon="-6.343980393139475"><ele>2346.0</ele><time>2026-05-04T13:30:05Z</time></trkpt><trkpt lat="31.599562648896256" lon="-6.343838990452342"><ele>2343.75</ele><time>2026-05-04T13:30:06Z</time></trkpt><trkpt lat="31.59949212571084" lon="-6.343697420983698"><ele>2341.5</ele><time>2026-05-04T13:30:07Z</time></trkpt><trkpt lat="31.599417973640232" lon="-6.343565623019663"><ele>2339.25</ele><time>2026-05-04T13:30:08Z</time></trkpt><trkpt lat="31.599351198294134" lon="-6.343456287638399"><ele>2337.0</ele><time>2026-05-04T13:30:09Z</time></trkpt><trkpt lat="31.599295668666322" lon="-6.343352542191831"><ele>2337.0</ele><time>2026-05-04T13:30:10Z</time></trkpt><trkpt lat="31.599252238484485" lon="-6.343259364691481"><ele>2337.0</ele><time>2026-05-04T13:30:11Z</time></trkpt><trkpt lat="31.59921079562364" lon="-6.343175999598797"><ele>2337.0</ele><time>2026-05-04T13:30:12Z</time></trkpt><trkpt lat="31.59917115865181" lon="-6.343098913969487"><ele>2337.0</ele><time>2026-05-04T13:30:13Z</time></trkpt><trkpt lat="31.599135489961988" lon="-6.343022872125782"><ele>2337.0</ele><time>2026-05-04T13:30:14Z</time></trkpt><trkpt lat="31.599095265689254" lon="-6.342948684801113"><ele>2337.0</ele><time>2026-05-04T13:30:15Z</time></trkpt><trkpt lat="31.59905797709676" lon="-6.342865487685348"><ele>2338.1666666666665</ele><time>2026-05-04T13:30:16Z</time></trkpt><trkpt lat="31.599026456745577" lon="-6.342787349671202"><ele>2339.3333333333335</ele><time>2026-05-04T13:30:17Z</time></trkpt><trkpt lat="31.598994060844042" lon="-6.342719817175322"><ele>2340.5</ele><time>2026-05-04T13:30:18Z</time></trkpt><trkpt lat="31.598934037378804" lon="-6.342603576177739"><ele>2341.666666666667</ele><time>2026-05-04T13:30:20Z</time></trkpt><trkpt lat="31.598850245217136" lon="-6.342495028533801"><ele>2342.8333333333335</ele><time>2026-05-04T13:30:22Z</time></trkpt><trkpt lat="31.598806163083314" lon="-6.342438016360702"><ele>2344.0</ele><time>2026-05-04T13:30:23Z</time></trkpt><trkpt lat="31.59875185796636" lon="-6.342388682188449"><ele>2344.0</ele><time>2026-05-04T13:30:24Z</time></trkpt><trkpt lat="31.598702209400304" lon="-6.342337441453415"><ele>2344.0</ele><time>2026-05-04T13:30:25Z</time></trkpt><trkpt lat="31.598652732786608" lon="-6.342274898698517"><ele>2344.0</ele><time>2026-05-04T13:30:26Z</time></trkpt><trkpt lat="31.598574862364245" lon="-6.342179207621495"><ele>2344.0</ele><time>2026-05-04T13:30:28Z</time></trkpt><trkpt lat="31.5984950559603" lon="-6.342072777134584"><ele>2344.0</ele><time>2026-05-04T13:30:30Z</time></trkpt><trkpt lat="31.598457232466792" lon="-6.342006105885394"><ele>2344.0</ele><time>2026-05-04T13:30:31Z</time></trkpt><trkpt lat="31.598411473540562" lon="-6.341948832842271"><ele>2342.8</ele><time>2026-05-04T13:30:32Z</time></trkpt><trkpt lat="31.598320795059863" lon="-6.341836404643477"><ele>2341.6000000000004</ele><time>2026-05-04T13:30:34Z</time></trkpt><trkpt lat="31.598271132661313" lon="-6.341780532480323"><ele>2340.4</ele><time>2026-05-04T13:30:35Z</time></trkpt><trkpt lat="31.598222884470875" lon="-6.341732343021204"><ele>2339.2000000000003</ele><time>2026-05-04T13:30:36Z</time></trkpt><trkpt lat="31.598143605378425" lon="-6.341643991819796"><ele>2338.0</ele><time>2026-05-04T13:30:38Z</time></trkpt><trkpt lat="31.598053633166874" lon="-6.341526895665265"><ele>2338.0</ele><time>2026-05-04T13:30:40Z</time></trkpt><trkpt lat="31.597994912608247" lon="-6.341462717437982"><ele>2338.0</ele><time>2026-05-04T13:30:41Z</time></trkpt><trkpt lat="31.597936389573224" lon="-6.341407867590632"><ele>2338.0</ele><time>2026-05-04T13:30:42Z</time></trkpt><trkpt lat="31.59788120125027" lon="-6.3413625120516395"><ele>2338.0</ele><time>2026-05-04T13:30:43Z</time></trkpt><trkpt lat="31.597815138264945" lon="-6.341300487571425"><ele>2338.0</ele><time>2026-05-04T13:30:44Z</time></trkpt><trkpt lat="31.59773399494329" lon="-6.341236397640449"><ele>2338.0</ele><time>2026-05-04T13:30:45Z</time></trkpt><trkpt lat="31.597650826356713" lon="-6.341161029929485"><ele>2336.0</ele><time>2026-05-04T13:30:46Z</time></trkpt><trkpt lat="31.597572964369515" lon="-6.341083427768726"><ele>2334.0</ele><time>2026-05-04T13:30:47Z</time></trkpt><trkpt lat="31.59749264777837" lon="-6.341007387418421"><ele>2332.0</ele><time>2026-05-04T13:30:48Z</time></trkpt><trkpt lat="31.597417180033023" lon="-6.3409275702889945"><ele>2330.0</ele><time>2026-05-04T13:30:49Z</time></trkpt><trkpt lat="31.597352197451162" lon="-6.340835864702161"><ele>2328.0</ele><time>2026-05-04T13:30:50Z</time></trkpt><trkpt lat="31.597289395259462" lon="-6.340729523964511"><ele>2328.0</ele><time>2026-05-04T13:30:51Z</time></trkpt><trkpt lat="31.59722879100508" lon="-6.340622863472235"><ele>2328.0</ele><time>2026-05-04T13:30:52Z</time></trkpt><trkpt lat="31.597160352580673" lon="-6.340516133610688"><ele>2328.0</ele><time>2026-05-04T13:30:53Z</time></trkpt><trkpt lat="31.59709241431186" lon="-6.340408640918152"><ele>2328.0</ele><time>2026-05-04T13:30:54Z</time></trkpt><trkpt lat="31.59702946022487" lon="-6.340306361794955"><ele>2328.0</ele><time>2026-05-04T13:30:55Z</time></trkpt><trkpt lat="31.59696807978568" lon="-6.340205900305648"><ele>2327.0</ele><time>2026-05-04T13:30:56Z</time></trkpt><trkpt lat="31.596911179202017" lon="-6.340116120218303"><ele>2326.0</ele><time>2026-05-04T13:30:57Z</time></trkpt><trkpt lat="31.596869849830068" lon="-6.340033623754551"><ele>2325.0</ele><time>2026-05-04T13:30:58Z</time></trkpt><trkpt lat="31.596840559200214" lon="-6.339941571694458"><ele>2324.0</ele><time>2026-05-04T13:30:59Z</time></trkpt><trkpt lat="31.596830014032555" lon="-6.339845217726529"><ele>2323.0</ele><time>2026-05-04T13:31:00Z</time></trkpt><trkpt lat="31.596827001132805" lon="-6.339738935042179"><ele>2322.0</ele><time>2026-05-04T13:31:01Z</time></trkpt><trkpt lat="31.596839005467917" lon="-6.339637162868213"><ele>2321.0</ele><time>2026-05-04T13:31:02Z</time></trkpt><trkpt lat="31.596861233977606" lon="-6.339531907474823"><ele>2320.0</ele><time>2026-05-04T13:31:03Z</time></trkpt><trkpt lat="31.59689072476744" lon="-6.339424692469174"><ele>2319.0</ele><time>2026-05-04T13:31:04Z</time></trkpt><trkpt lat="31.596928758505292" lon="-6.339310874190667"><ele>2318.0</ele><time>2026-05-04T13:31:05Z</time></trkpt><trkpt lat="31.596973469525583" lon="-6.339189413963816"><ele>2317.0</ele><time>2026-05-04T13:31:06Z</time></trkpt><trkpt lat="31.59702533027608" lon="-6.339065472611174"><ele>2316.75</ele><time>2026-05-04T13:31:07Z</time></trkpt><trkpt lat="31.59708131575439" lon="-6.338947421626918"><ele>2316.5</ele><time>2026-05-04T13:31:08Z</time></trkpt><trkpt lat="31.5971427719339" lon="-6.338829356656496"><ele>2316.25</ele><time>2026-05-04T13:31:09Z</time></trkpt><trkpt lat="31.59720969517951" lon="-6.338706551103452"><ele>2316.0</ele><time>2026-05-04T13:31:10Z</time></trkpt><trkpt lat="31.59727431559448" lon="-6.33858038394326"><ele>2316.0</ele><time>2026-05-04T13:31:11Z</time></trkpt><trkpt lat="31.597332633572503" lon="-6.338450216183524"><ele>2316.0</ele><time>2026-05-04T13:31:12Z</time></trkpt><trkpt lat="31.597387959971183" lon="-6.338303761239285"><ele>2316.0</ele><time>2026-05-04T13:31:13Z</time></trkpt><trkpt lat="31.597437196162968" lon="-6.338154883424638"><ele>2316.0</ele><time>2026-05-04T13:31:14Z</time></trkpt><trkpt lat="31.597478843707073" lon="-6.338002920986544"><ele>2314.75</ele><time>2026-05-04T13:31:15Z</time></trkpt><trkpt lat="31.597508439976064" lon="-6.337847094563235"><ele>2313.5</ele><time>2026-05-04T13:31:16Z</time></trkpt><trkpt lat="31.59752170140158" lon="-6.33769346969638"><ele>2312.25</ele><time>2026-05-04T13:31:17Z</time></trkpt><trkpt lat="31.5975230214993" lon="-6.3375375332691295"><ele>2311.0</ele><time>2026-05-04T13:31:18Z</time></trkpt><trkpt lat="31.59752101161886" lon="-6.337379893617474"><ele>2311.0</ele><time>2026-05-04T13:31:19Z</time></trkpt><trkpt lat="31.597518022915594" lon="-6.337220005329631"><ele>2311.0</ele><time>2026-05-04T13:31:20Z</time></trkpt><trkpt lat="31.597517952967028" lon="-6.337060196993396"><ele>2311.0</ele><time>2026-05-04T13:31:21Z</time></trkpt><trkpt lat="31.59751425289069" lon="-6.336900263157556"><ele>2311.0</ele><time>2026-05-04T13:31:22Z</time></trkpt><trkpt lat="31.597508826249406" lon="-6.336740404197324"><ele>2310.5</ele><time>2026-05-04T13:31:23Z</time></trkpt><trkpt lat="31.597501225714446" lon="-6.336583435834931"><ele>2310.0</ele><time>2026-05-04T13:31:24Z</time></trkpt><trkpt lat="31.597492369630885" lon="-6.3364292689904484"><ele>2309.5</ele><time>2026-05-04T13:31:25Z</time></trkpt><trkpt lat="31.597483252844444" lon="-6.336276493184245"><ele>2309.0</ele><time>2026-05-04T13:31:26Z</time></trkpt><trkpt lat="31.597472533619282" lon="-6.336126546392482"><ele>2309.0</ele><time>2026-05-04T13:31:27Z</time></trkpt><trkpt lat="31.59745680264247" lon="-6.335973662125782"><ele>2309.0</ele><time>2026-05-04T13:31:28Z</time></trkpt><trkpt lat="31.597424632212025" lon="-6.335814943009481"><ele>2309.0</ele><time>2026-05-04T13:31:29Z</time></trkpt><trkpt lat="31.597377016417322" lon="-6.335646909464312"><ele>2309.0</ele><time>2026-05-04T13:31:30Z</time></trkpt><trkpt lat="31.597328652904366" lon="-6.335477860647618"><ele>2310.5</ele><time>2026-05-04T13:31:31Z</time></trkpt><trkpt lat="31.597281266817145" lon="-6.335318795941754"><ele>2312.0</ele><time>2026-05-04T13:31:32Z</time></trkpt><trkpt lat="31.597226076455414" lon="-6.335169889157335"><ele>2313.5</ele><time>2026-05-04T13:31:33Z</time></trkpt><trkpt lat="31.597174346138726" lon="-6.33502447353699"><ele>2315.0</ele><time>2026-05-04T13:31:34Z</time></trkpt><trkpt lat="31.597126653292513" lon="-6.334883322274464"><ele>2315.0</ele><time>2026-05-04T13:31:35Z</time></trkpt><trkpt lat="31.597074136675467" lon="-6.334743915679697"><ele>2315.0</ele><time>2026-05-04T13:31:36Z</time></trkpt><trkpt lat="31.597019303439946" lon="-6.334592396711111"><ele>2315.0</ele><time>2026-05-04T13:31:37Z</time></trkpt><trkpt lat="31.596967151738383" lon="-6.33443035095804"><ele>2315.0</ele><time>2026-05-04T13:31:38Z</time></trkpt><trkpt lat="31.596919375110694" lon="-6.334259712918639"><ele>2311.6666666666665</ele><time>2026-05-04T13:31:39Z</time></trkpt><trkpt lat="31.59686761805933" lon="-6.334093671926554"><ele>2308.3333333333335</ele><time>2026-05-04T13:31:40Z</time></trkpt><trkpt lat="31.596809640691525" lon="-6.333912622155759"><ele>2305.0</ele><time>2026-05-04T13:31:41Z</time></trkpt><trkpt lat="31.596751483518712" lon="-6.333737651930744"><ele>2305.0</ele><time>2026-05-04T13:31:42Z</time></trkpt><trkpt lat="31.596686002091044" lon="-6.333567977816076"><ele>2305.0</ele><time>2026-05-04T13:31:43Z</time></trkpt><trkpt lat="31.59662538857696" lon="-6.333396613703624"><ele>2305.0</ele><time>2026-05-04T13:31:44Z</time></trkpt><trkpt lat="31.596570576190086" lon="-6.333234051503017"><ele>2305.0</ele><time>2026-05-04T13:31:45Z</time></trkpt><trkpt lat="31.59651503147422" lon="-6.333069348349861"><ele>2305.0</ele><time>2026-05-04T13:31:46Z</time></trkpt><trkpt lat="31.596463768377383" lon="-6.332910807263712"><ele>2305.0</ele><time>2026-05-04T13:31:47Z</time></trkpt><trkpt lat="31.596418325287313" lon="-6.332757427778913"><ele>2305.0</ele><time>2026-05-04T13:31:48Z</time></trkpt><trkpt lat="31.596375038129377" lon="-6.33260915600009"><ele>2303.25</ele><time>2026-05-04T13:31:49Z</time></trkpt><trkpt lat="31.596332653011086" lon="-6.332464746880587"><ele>2301.5</ele><time>2026-05-04T13:31:50Z</time></trkpt><trkpt lat="31.596290376309017" lon="-6.332324772961777"><ele>2299.75</ele><time>2026-05-04T13:31:51Z</time></trkpt><trkpt lat="31.596234354064983" lon="-6.33219173080023"><ele>2298.0</ele><time>2026-05-04T13:31:52Z</time></trkpt><trkpt lat="31.59614482730141" lon="-6.332078150493598"><ele>2298.0</ele><time>2026-05-04T13:31:53Z</time></trkpt><trkpt lat="31.596060282562792" lon="-6.331963202445486"><ele>2298.0</ele><time>2026-05-04T13:31:54Z</time></trkpt><trkpt lat="31.59598155201141" lon="-6.331852541049389"><ele>2298.0</ele><time>2026-05-04T13:31:55Z</time></trkpt><trkpt lat="31.595912513346537" lon="-6.331740605094362"><ele>2298.0</ele><time>2026-05-04T13:31:56Z</time></trkpt><trkpt lat="31.59585072511264" lon="-6.331614592207083"><ele>2298.0</ele><time>2026-05-04T13:31:57Z</time></trkpt><trkpt lat="31.595806714091218" lon="-6.331464638194129"><ele>2298.0</ele><time>2026-05-04T13:31:58Z</time></trkpt><trkpt lat="31.59575622671999" lon="-6.331302859742352"><ele>2298.0</ele><time>2026-05-04T13:31:59Z</time></trkpt><trkpt lat="31.595709897564348" lon="-6.331113271297423"><ele>2299.6666666666665</ele><time>2026-05-04T13:32:00Z</time></trkpt><trkpt lat="31.595667117884922" lon="-6.3309168064706975"><ele>2301.333333333333</ele><time>2026-05-04T13:32:01Z</time></trkpt><trkpt lat="31.59562727696272" lon="-6.330725278449052"><ele>2303.0</ele><time>2026-05-04T13:32:02Z</time></trkpt><trkpt lat="31.595577749633073" lon="-6.330535204955926"><ele>2304.333333333333</ele><time>2026-05-04T13:32:03Z</time></trkpt><trkpt lat="31.595526571222123" lon="-6.330346229267459"><ele>2305.6666666666665</ele><time>2026-05-04T13:32:04Z</time></trkpt><trkpt lat="31.595474461468307" lon="-6.330158007362292"><ele>2307.0</ele><time>2026-05-04T13:32:05Z</time></trkpt><trkpt lat="31.595431300331196" lon="-6.3299518311307565"><ele>2307.0</ele><time>2026-05-04T13:32:06Z</time></trkpt><trkpt lat="31.595394473133233" lon="-6.329733517832942"><ele>2307.0</ele><time>2026-05-04T13:32:07Z</time></trkpt><trkpt lat="31.595360516972075" lon="-6.329509328605544"><ele>2307.0</ele><time>2026-05-04T13:32:08Z</time></trkpt><trkpt lat="31.5953160321204" lon="-6.329286243421164"><ele>2300.6666666666665</ele><time>2026-05-04T13:32:09Z</time></trkpt><trkpt lat="31.595263583108295" lon="-6.329074022454593"><ele>2294.333333333333</ele><time>2026-05-04T13:32:10Z</time></trkpt><trkpt lat="31.59520919465137" lon="-6.32886354099076"><ele>2288.0</ele><time>2026-05-04T13:32:11Z</time></trkpt><trkpt lat="31.595151105102588" lon="-6.328660276038896"><ele>2288.0</ele><time>2026-05-04T13:32:12Z</time></trkpt><trkpt lat="31.595086246665957" lon="-6.328467374572689"><ele>2288.0</ele><time>2026-05-04T13:32:13Z</time></trkpt><trkpt lat="31.595027298677817" lon="-6.3282804803094495"><ele>2288.0</ele><time>2026-05-04T13:32:14Z</time></trkpt><trkpt lat="31.594979129660025" lon="-6.328076499881139"><ele>2289.0</ele><time>2026-05-04T13:32:15Z</time></trkpt><trkpt lat="31.594933605831194" lon="-6.327871850384705"><ele>2290.0</ele><time>2026-05-04T13:32:16Z</time></trkpt><trkpt lat="31.594889425037273" lon="-6.32766433158271"><ele>2291.0</ele><time>2026-05-04T13:32:17Z</time></trkpt><trkpt lat="31.594843754769546" lon="-6.327455509380451"><ele>2291.0</ele><time>2026-05-04T13:32:18Z</time></trkpt><trkpt lat="31.59479509309594" lon="-6.327251977746495"><ele>2291.0</ele><time>2026-05-04T13:32:19Z</time></trkpt><trkpt lat="31.5947489261741" lon="-6.327057326840385"><ele>2291.0</ele><time>2026-05-04T13:32:20Z</time></trkpt><trkpt lat="31.594699857974103" lon="-6.326867280008757"><ele>2293.333333333333</ele><time>2026-05-04T13:32:21Z</time></trkpt><trkpt lat="31.59463580530861" lon="-6.326680038323711"><ele>2295.6666666666665</ele><time>2026-05-04T13:32:22Z</time></trkpt><trkpt lat="31.594549934041524" lon="-6.326512850292441"><ele>2298.0</ele><time>2026-05-04T13:32:23Z</time></trkpt><trkpt lat="31.59445606962037" lon="-6.3263620504460585"><ele>2292.6666666666665</ele><time>2026-05-04T13:32:24Z</time></trkpt><trkpt lat="31.594340009107825" lon="-6.326224962881548"><ele>2287.333333333333</ele><time>2026-05-04T13:32:25Z</time></trkpt><trkpt lat="31.59425229455705" lon="-6.326075979563536"><ele>2282.0</ele><time>2026-05-04T13:32:26Z</time></trkpt><trkpt lat="31.594214934890523" lon="-6.325886797236225"><ele>2282.0</ele><time>2026-05-04T13:32:27Z</time></trkpt><trkpt lat="31.594139151245706" lon="-6.325726356117003"><ele>2282.0</ele><time>2026-05-04T13:32:28Z</time></trkpt><trkpt lat="31.594054007639038" lon="-6.3255819295574796"><ele>2282.0</ele><time>2026-05-04T13:32:29Z</time></trkpt><trkpt lat="31.593949071927618" lon="-6.325473199782319"><ele>2282.0</ele><time>2026-05-04T13:32:30Z</time></trkpt><trkpt lat="31.593835212843107" lon="-6.325387740364587"><ele>2280.75</ele><time>2026-05-04T13:32:31Z</time></trkpt><trkpt lat="31.593709971290348" lon="-6.325299780303474"><ele>2279.5</ele><time>2026-05-04T13:32:32Z</time></trkpt><trkpt lat="31.593588036779817" lon="-6.325194620632767"><ele>2278.25</ele><time>2026-05-04T13:32:33Z</time></trkpt><trkpt lat="31.593475026717563" lon="-6.32507723739999"><ele>2277.0</ele><time>2026-05-04T13:32:34Z</time></trkpt><trkpt lat="31.593381477254663" lon="-6.324933668200289"><ele>2277.0</ele><time>2026-05-04T13:32:35Z</time></trkpt><trkpt lat="31.593315987184642" lon="-6.3247722736540135"><ele>2277.0</ele><time>2026-05-04T13:32:36Z</time></trkpt><trkpt lat="31.593266079232993" lon="-6.324602457794781"><ele>2277.0</ele><time>2026-05-04T13:32:37Z</time></trkpt><trkpt lat="31.59322955156259" lon="-6.324423784897862"><ele>2278.3333333333335</ele><time>2026-05-04T13:32:38Z</time></trkpt><trkpt lat="31.59320494203622" lon="-6.324241082441724"><ele>2279.666666666667</ele><time>2026-05-04T13:32:39Z</time></trkpt><trkpt lat="31.593194087659494" lon="-6.324058115376492"><ele>2281.0</ele><time>2026-05-04T13:32:40Z</time></trkpt><trkpt lat="31.593204406391767" lon="-6.323882898075735"><ele>2278.5</ele><time>2026-05-04T13:32:41Z</time></trkpt><trkpt lat="31.593239299427495" lon="-6.323708996295465"><ele>2276.0</ele><time>2026-05-04T13:32:42Z</time></trkpt><trkpt lat="31.59329344016727" lon="-6.323551062622478"><ele>2273.5</ele><time>2026-05-04T13:32:43Z</time></trkpt><trkpt lat="31.593367175097857" lon="-6.323400909750938"><ele>2271.0</ele><time>2026-05-04T13:32:44Z</time></trkpt><trkpt lat="31.593454517789304" lon="-6.323269009525783"><ele>2271.0</ele><time>2026-05-04T13:32:45Z</time></trkpt><trkpt lat="31.59354312022486" lon="-6.323141906159415"><ele>2271.0</ele><time>2026-05-04T13:32:46Z</time></trkpt><trkpt lat="31.593626491035785" lon="-6.32303533762327"><ele>2271.0</ele><time>2026-05-04T13:32:47Z</time></trkpt><trkpt lat="31.593708971742085" lon="-6.322940909191751"><ele>2271.0</ele><time>2026-05-04T13:32:48Z</time></trkpt><trkpt lat="31.593761744302757" lon="-6.32284140054157"><ele>2270.8333333333335</ele><time>2026-05-04T13:32:49Z</time></trkpt><trkpt lat="31.593810655086283" lon="-6.322764175958773"><ele>2270.6666666666665</ele><time>2026-05-04T13:32:50Z</time></trkpt><trkpt lat="31.593901571115804" lon="-6.322723426926955"><ele>2270.5</ele><time>2026-05-04T13:32:51Z</time></trkpt><trkpt lat="31.593966597672956" lon="-6.32266802934345"><ele>2270.333333333333</ele><time>2026-05-04T13:32:52Z</time></trkpt><trkpt lat="31.59403454045672" lon="-6.322592390564795"><ele>2270.1666666666665</ele><time>2026-05-04T13:32:53Z</time></trkpt><trkpt lat="31.59410761017504" lon="-6.322523794318426"><ele>2270.0</ele><time>2026-05-04T13:32:54Z</time></trkpt><trkpt lat="31.594186336561798" lon="-6.322449057029678"><ele>2270.0</ele><time>2026-05-04T13:32:55Z</time></trkpt><trkpt lat="31.59427541795651" lon="-6.322376520296365"><ele>2270.0</ele><time>2026-05-04T13:32:56Z</time></trkpt><trkpt lat="31.594344594673068" lon="-6.322272112525142"><ele>2270.0</ele><time>2026-05-04T13:32:57Z</time></trkpt><trkpt lat="31.59441127099198" lon="-6.322161363903324"><ele>2270.0</ele><time>2026-05-04T13:32:58Z</time></trkpt><trkpt lat="31.594467683878598" lon="-6.322047314230751"><ele>2270.0</ele><time>2026-05-04T13:32:59Z</time></trkpt><trkpt lat="31.59452326258939" lon="-6.3219312620918675"><ele>2270.75</ele><time>2026-05-04T13:33:00Z</time></trkpt><trkpt lat="31.5945880712326" lon="-6.32180557300828"><ele>2271.5</ele><time>2026-05-04T13:33:01Z</time></trkpt><trkpt lat="31.59466082272731" lon="-6.321677896267439"><ele>2272.25</ele><time>2026-05-04T13:33:02Z</time></trkpt><trkpt lat="31.59474199744159" lon="-6.321545335046734"><ele>2273.0</ele><time>2026-05-04T13:33:03Z</time></trkpt><trkpt lat="31.594826138990378" lon="-6.321416478990525"><ele>2269.5</ele><time>2026-05-04T13:33:04Z</time></trkpt><trkpt lat="31.594907048540165" lon="-6.32129368008473"><ele>2266.0</ele><time>2026-05-04T13:33:05Z</time></trkpt><trkpt lat="31.594986674546416" lon="-6.321174656923011"><ele>2262.5</ele><time>2026-05-04T13:33:06Z</time></trkpt><trkpt lat="31.595069364013273" lon="-6.321055790911341"><ele>2259.0</ele><time>2026-05-04T13:33:07Z</time></trkpt><trkpt lat="31.595154244633537" lon="-6.320935829226463"><ele>2259.0</ele><time>2026-05-04T13:33:08Z</time></trkpt><trkpt lat="31.595249146035194" lon="-6.320812031766987"><ele>2259.0</ele><time>2026-05-04T13:33:09Z</time></trkpt><trkpt lat="31.595355690673884" lon="-6.32068231011459"><ele>2259.0</ele><time>2026-05-04T13:33:10Z</time></trkpt><trkpt lat="31.595464307571365" lon="-6.320559204205161"><ele>2259.0</ele><time>2026-05-04T13:33:11Z</time></trkpt><trkpt lat="31.595563738210114" lon="-6.320431905706857"><ele>2261.75</ele><time>2026-05-04T13:33:12Z</time></trkpt><trkpt lat="31.595646039303205" lon="-6.320288021950863"><ele>2264.5</ele><time>2026-05-04T13:33:13Z</time></trkpt><trkpt lat="31.59571966218852" lon="-6.320132205193009"><ele>2267.25</ele><time>2026-05-04T13:33:14Z</time></trkpt><trkpt lat="31.59578597877215" lon="-6.319976022455647"><ele>2270.0</ele><time>2026-05-04T13:33:15Z</time></trkpt><trkpt lat="31.595829954441804" lon="-6.319814780727851"><ele>2268.0</ele><time>2026-05-04T13:33:16Z</time></trkpt><trkpt lat="31.595846107493124" lon="-6.319652489415924"><ele>2266.0</ele><time>2026-05-04T13:33:17Z</time></trkpt><trkpt lat="31.59584888341772" lon="-6.319485899396408"><ele>2264.0</ele><time>2026-05-04T13:33:18Z</time></trkpt><trkpt lat="31.595832849540546" lon="-6.319319465334982"><ele>2262.0</ele><time>2026-05-04T13:33:19Z</time></trkpt><trkpt lat="31.595797909445857" lon="-6.31915156472828"><ele>2262.0</ele><time>2026-05-04T13:33:20Z</time></trkpt><trkpt lat="31.59575296842266" lon="-6.318984905578671"><ele>2262.0</ele><time>2026-05-04T13:33:21Z</time></trkpt><trkpt lat="31.595709301255745" lon="-6.318811036152305"><ele>2262.0</ele><time>2026-05-04T13:33:22Z</time></trkpt><trkpt lat="31.595675120358848" lon="-6.318633208013347"><ele>2263.6666666666665</ele><time>2026-05-04T13:33:23Z</time></trkpt><trkpt lat="31.595650288946594" lon="-6.318446177924865"><ele>2265.333333333333</ele><time>2026-05-04T13:33:24Z</time></trkpt><trkpt lat="31.595628326230273" lon="-6.318256703868668"><ele>2267.0</ele><time>2026-05-04T13:33:25Z</time></trkpt><trkpt lat="31.595615647959146" lon="-6.318067851559057"><ele>2267.0</ele><time>2026-05-04T13:33:26Z</time></trkpt><trkpt lat="31.595607101515682" lon="-6.31787574272166"><ele>2267.0</ele><time>2026-05-04T13:33:27Z</time></trkpt><trkpt lat="31.595606431638696" lon="-6.31768003796172"><ele>2267.0</ele><time>2026-05-04T13:33:28Z</time></trkpt><trkpt lat="31.59563238642497" lon="-6.317489154923329"><ele>2267.0</ele><time>2026-05-04T13:33:29Z</time></trkpt><trkpt lat="31.595682324015986" lon="-6.317305263903343"><ele>2267.0</ele><time>2026-05-04T13:33:30Z</time></trkpt><trkpt lat="31.59575191248388" lon="-6.317136942294661"><ele>2267.0</ele><time>2026-05-04T13:33:31Z</time></trkpt><trkpt lat="31.595829151831712" lon="-6.316990660688527"><ele>2269.25</ele><time>2026-05-04T13:33:32Z</time></trkpt><trkpt lat="31.59590689797162" lon="-6.3168685539749845"><ele>2271.5</ele><time>2026-05-04T13:33:33Z</time></trkpt><trkpt lat="31.596005862831756" lon="-6.316757349404965"><ele>2273.75</ele><time>2026-05-04T13:33:34Z</time></trkpt><trkpt lat="31.59608654356209" lon="-6.316649141126991"><ele>2276.0</ele><time>2026-05-04T13:33:35Z</time></trkpt><trkpt lat="31.59617441925868" lon="-6.316557597635391"><ele>2276.0</ele><time>2026-05-04T13:33:36Z</time></trkpt><trkpt lat="31.596249283913238" lon="-6.316453607240425"><ele>2276.0</ele><time>2026-05-04T13:33:37Z</time></trkpt><trkpt lat="31.59631899492825" lon="-6.316320592006091"><ele>2276.0</ele><time>2026-05-04T13:33:38Z</time></trkpt><trkpt lat="31.59638888628205" lon="-6.316184055319817"><ele>2276.0</ele><time>2026-05-04T13:33:39Z</time></trkpt><trkpt lat="31.596421233763788" lon="-6.316023702204821"><ele>2275.0</ele><time>2026-05-04T13:33:40Z</time></trkpt><trkpt lat="31.596425147777996" lon="-6.315859577607368"><ele>2274.0</ele><time>2026-05-04T13:33:41Z</time></trkpt><trkpt lat="31.596410096980783" lon="-6.315707028227512"><ele>2273.0</ele><time>2026-05-04T13:33:42Z</time></trkpt><trkpt lat="31.59638418833126" lon="-6.315565387934374"><ele>2272.0</ele><time>2026-05-04T13:33:43Z</time></trkpt><trkpt lat="31.596342250950173" lon="-6.315434297494326"><ele>2269.0</ele><time>2026-05-04T13:33:44Z</time></trkpt><trkpt lat="31.596289187464553" lon="-6.315323211361538"><ele>2266.0</ele><time>2026-05-04T13:33:45Z</time></trkpt><trkpt lat="31.59623493676552" lon="-6.315245976372743"><ele>2263.0</ele><time>2026-05-04T13:33:46Z</time></trkpt><trkpt lat="31.59614818682936" lon="-6.315163385486257"><ele>2260.0</ele><time>2026-05-04T13:33:48Z</time></trkpt><trkpt lat="31.596072551515302" lon="-6.315117654086927"><ele>2257.0</ele><time>2026-05-04T13:33:50Z</time></trkpt><trkpt lat="31.595995104809568" lon="-6.315093139305536"><ele>2254.6</ele><time>2026-05-04T13:33:53Z</time></trkpt><trkpt lat="31.59591510957021" lon="-6.3150802238065245"><ele>2252.2</ele><time>2026-05-04T13:34:17Z</time></trkpt><trkpt lat="31.595831301678103" lon="-6.3150544437022305"><ele>2249.8</ele><time>2026-05-04T13:34:19Z</time></trkpt><trkpt lat="31.595691744812008" lon="-6.315024314014849"><ele>2247.4</ele><time>2026-05-04T13:34:21Z</time></trkpt><trkpt lat="31.59560902316381" lon="-6.314999273420262"><ele>2245.0</ele><time>2026-05-04T13:34:22Z</time></trkpt><trkpt lat="31.595519495150022" lon="-6.31497057060814"><ele>2245.0</ele><time>2026-05-04T13:34:23Z</time></trkpt><trkpt lat="31.595461539265397" lon="-6.314898412802797"><ele>2245.0</ele><time>2026-05-04T13:34:24Z</time></trkpt><trkpt lat="31.595419495748597" lon="-6.3148380568507765"><ele>2245.0</ele><time>2026-05-04T13:34:25Z</time></trkpt><trkpt lat="31.595349568444306" lon="-6.314719722730572"><ele>2245.0</ele><time>2026-05-04T13:34:27Z</time></trkpt><trkpt lat="31.595307144250285" lon="-6.3146380995529645"><ele>2245.0</ele><time>2026-05-04T13:34:28Z</time></trkpt><trkpt lat="31.595355884744038" lon="-6.314497052893712"><ele>2245.0</ele><time>2026-05-04T13:34:29Z</time></trkpt><trkpt lat="31.595352534662126" lon="-6.314356422893783"><ele>2245.0</ele><time>2026-05-04T13:34:30Z</time></trkpt><trkpt lat="31.595349500029595" lon="-6.314229035051184"><ele>2245.0</ele><time>2026-05-04T13:34:31Z</time></trkpt><trkpt lat="31.595327914756744" lon="-6.3141196861436235"><ele>2245.0</ele><time>2026-05-04T13:34:32Z</time></trkpt><trkpt lat="31.59532379799204" lon="-6.3140270524357085"><ele>2245.0</ele><time>2026-05-04T13:34:33Z</time></trkpt><trkpt lat="31.595364949960132" lon="-6.313927882208784"><ele>2248.0</ele><time>2026-05-04T13:34:34Z</time></trkpt><trkpt lat="31.595427397831447" lon="-6.313805820875131"><ele>2251.0</ele><time>2026-05-04T13:34:35Z</time></trkpt><trkpt lat="31.595536897334803" lon="-6.31366552188538"><ele>2254.0</ele><time>2026-05-04T13:34:36Z</time></trkpt><trkpt lat="31.59564168236637" lon="-6.31359246622105"><ele>2257.0</ele><time>2026-05-04T13:34:37Z</time></trkpt><trkpt lat="31.595722274753445" lon="-6.313542560071503"><ele>2257.0</ele><time>2026-05-04T13:34:38Z</time></trkpt><trkpt lat="31.59580537103011" lon="-6.313444828267244"><ele>2257.0</ele><time>2026-05-04T13:34:39Z</time></trkpt><trkpt lat="31.595894087368208" lon="-6.3133164574128084"><ele>2257.0</ele><time>2026-05-04T13:34:40Z</time></trkpt><trkpt lat="31.595937229202185" lon="-6.313144692624834"><ele>2257.0</ele><time>2026-05-04T13:34:41Z</time></trkpt><trkpt lat="31.595970487923836" lon="-6.312983128655785"><ele>2259.25</ele><time>2026-05-04T13:34:42Z</time></trkpt><trkpt lat="31.59600873349528" lon="-6.312838446241019"><ele>2261.5</ele><time>2026-05-04T13:34:43Z</time></trkpt><trkpt lat="31.59605473374812" lon="-6.312697617503823"><ele>2263.75</ele><time>2026-05-04T13:34:44Z</time></trkpt><trkpt lat="31.596110396726615" lon="-6.312562184752585"><ele>2266.0</ele><time>2026-05-04T13:34:45Z</time></trkpt><trkpt lat="31.596162383974182" lon="-6.312438486411097"><ele>2261.25</ele><time>2026-05-04T13:34:46Z</time></trkpt><trkpt lat="31.596229763329752" lon="-6.312326296686426"><ele>2256.5</ele><time>2026-05-04T13:34:47Z</time></trkpt><trkpt lat="31.596263713561363" lon="-6.312189671379227"><ele>2251.75</ele><time>2026-05-04T13:34:48Z</time></trkpt><trkpt lat="31.596327296868" lon="-6.312086532004271"><ele>2247.0</ele><time>2026-05-04T13:34:49Z</time></trkpt><trkpt lat="31.596406989459005" lon="-6.311975157879943"><ele>2247.0</ele><time>2026-05-04T13:34:50Z</time></trkpt><trkpt lat="31.596487318458344" lon="-6.3118763981122905"><ele>2247.0</ele><time>2026-05-04T13:34:51Z</time></trkpt><trkpt lat="31.596578337787488" lon="-6.311780326892667"><ele>2247.0</ele><time>2026-05-04T13:34:52Z</time></trkpt><trkpt lat="31.596653681387366" lon="-6.311706027021446"><ele>2247.0</ele><time>2026-05-04T13:34:53Z</time></trkpt><trkpt lat="31.59674302168818" lon="-6.3116390746578634"><ele>2247.0</ele><time>2026-05-04T13:34:54Z</time></trkpt><trkpt lat="31.596763115920766" lon="-6.311496067840359"><ele>2246.75</ele><time>2026-05-04T13:34:55Z</time></trkpt><trkpt lat="31.596750842055815" lon="-6.311350801073756"><ele>2246.5</ele><time>2026-05-04T13:34:56Z</time></trkpt><trkpt lat="31.59671852215574" lon="-6.311209769738246"><ele>2246.25</ele><time>2026-05-04T13:34:57Z</time></trkpt><trkpt lat="31.59667845081382" lon="-6.311066719629528"><ele>2246.0</ele><time>2026-05-04T13:34:58Z</time></trkpt><trkpt lat="31.59663881355991" lon="-6.310921634917483"><ele>2246.0</ele><time>2026-05-04T13:34:59Z</time></trkpt><trkpt lat="31.596592667469245" lon="-6.310776700737659"><ele>2246.0</ele><time>2026-05-04T13:35:00Z</time></trkpt><trkpt lat="31.59653761321047" lon="-6.310639222619478"><ele>2246.0</ele><time>2026-05-04T13:35:01Z</time></trkpt><trkpt lat="31.59646522096147" lon="-6.310515423642755"><ele>2246.0</ele><time>2026-05-04T13:35:02Z</time></trkpt><trkpt lat="31.59637786452168" lon="-6.310402214158262"><ele>2244.333333333333</ele><time>2026-05-04T13:35:03Z</time></trkpt><trkpt lat="31.59624021244471" lon="-6.310335933701501"><ele>2242.6666666666665</ele><time>2026-05-04T13:35:04Z</time></trkpt><trkpt lat="31.59610140584766" lon="-6.310259328308933"><ele>2241.0</ele><time>2026-05-04T13:35:05Z</time></trkpt><trkpt lat="31.595959453607684" lon="-6.310184873914477"><ele>2241.0</ele><time>2026-05-04T13:35:06Z</time></trkpt><trkpt lat="31.595819504324865" lon="-6.310103443599115"><ele>2241.0</ele><time>2026-05-04T13:35:07Z</time></trkpt><trkpt lat="31.595679231790257" lon="-6.310018344054007"><ele>2241.0</ele><time>2026-05-04T13:35:08Z</time></trkpt><trkpt lat="31.595551415306417" lon="-6.309911676591417"><ele>2241.0</ele><time>2026-05-04T13:35:09Z</time></trkpt><trkpt lat="31.595418603207186" lon="-6.309804174529562"><ele>2241.0</ele><time>2026-05-04T13:35:10Z</time></trkpt><trkpt lat="31.595277990044558" lon="-6.309721903837141"><ele>2241.0</ele><time>2026-05-04T13:35:11Z</time></trkpt><trkpt lat="31.595144195415497" lon="-6.309642889922178"><ele>2239.75</ele><time>2026-05-04T13:35:12Z</time></trkpt><trkpt lat="31.59501558051697" lon="-6.309566804599087"><ele>2238.5</ele><time>2026-05-04T13:35:13Z</time></trkpt><trkpt lat="31.59489983591445" lon="-6.309501113213982"><ele>2237.25</ele><time>2026-05-04T13:35:14Z</time></trkpt><trkpt lat="31.59481320944546" lon="-6.309432693307487"><ele>2236.0</ele><time>2026-05-04T13:35:15Z</time></trkpt><trkpt lat="31.594752254113416" lon="-6.309354789674483"><ele>2236.0</ele><time>2026-05-04T13:35:16Z</time></trkpt><trkpt lat="31.59468301461126" lon="-6.309283053786912"><ele>2236.0</ele><time>2026-05-04T13:35:17Z</time></trkpt><trkpt lat="31.59460794204849" lon="-6.309209929456546"><ele>2236.0</ele><time>2026-05-04T13:35:18Z</time></trkpt><trkpt lat="31.594527786169664" lon="-6.309135333698509"><ele>2236.0</ele><time>2026-05-04T13:35:19Z</time></trkpt><trkpt lat="31.59444223997998" lon="-6.309055721622321"><ele>2236.0</ele><time>2026-05-04T13:35:20Z</time></trkpt><trkpt lat="31.5943509816739" lon="-6.308967602521057"><ele>2236.0</ele><time>2026-05-04T13:35:21Z</time></trkpt><trkpt lat="31.594259051969885" lon="-6.30887862526614"><ele>2236.0</ele><time>2026-05-04T13:35:22Z</time></trkpt><trkpt lat="31.594165197286426" lon="-6.308787784799623"><ele>2236.0</ele><time>2026-05-04T13:35:23Z</time></trkpt><trkpt lat="31.59408111925038" lon="-6.308672977612903"><ele>2236.0</ele><time>2026-05-04T13:35:24Z</time></trkpt><trkpt lat="31.594009541507894" lon="-6.308536222578103"><ele>2236.0</ele><time>2026-05-04T13:35:25Z</time></trkpt><trkpt lat="31.593936959094368" lon="-6.308408190496325"><ele>2236.0</ele><time>2026-05-04T13:35:26Z</time></trkpt><trkpt lat="31.593870811326425" lon="-6.30828409385098"><ele>2236.0</ele><time>2026-05-04T13:35:27Z</time></trkpt><trkpt lat="31.593807527553977" lon="-6.3081586676648"><ele>2236.0</ele><time>2026-05-04T13:35:28Z</time></trkpt><trkpt lat="31.593750662898273" lon="-6.308028164432028"><ele>2234.5</ele><time>2026-05-04T13:35:29Z</time></trkpt><trkpt lat="31.593701660934776" lon="-6.307895303213527"><ele>2233.0</ele><time>2026-05-04T13:35:30Z</time></trkpt><trkpt lat="31.593660331749156" lon="-6.30775472774349"><ele>2231.5</ele><time>2026-05-04T13:35:31Z</time></trkpt><trkpt lat="31.593624216210728" lon="-6.307603860539699"><ele>2230.0</ele><time>2026-05-04T13:35:32Z</time></trkpt><trkpt lat="31.593588555883006" lon="-6.307451821639743"><ele>2235.25</ele><time>2026-05-04T13:35:33Z</time></trkpt><trkpt lat="31.59352722438621" lon="-6.307319143813274"><ele>2240.5</ele><time>2026-05-04T13:35:34Z</time></trkpt><trkpt lat="31.593468725925987" lon="-6.307178518820889"><ele>2245.75</ele><time>2026-05-04T13:35:35Z</time></trkpt><trkpt lat="31.59345606307549" lon="-6.307061418354624"><ele>2251.0</ele><time>2026-05-04T13:35:36Z</time></trkpt><trkpt lat="31.593445062327234" lon="-6.306957002085224"><ele>2251.8</ele><time>2026-05-04T13:35:37Z</time></trkpt><trkpt lat="31.593437074495885" lon="-6.306874809287048"><ele>2252.6</ele><time>2026-05-04T13:35:38Z</time></trkpt><trkpt lat="31.59345992538803" lon="-6.306781261358702"><ele>2253.4</ele><time>2026-05-04T13:35:39Z</time></trkpt><trkpt lat="31.59347335565594" lon="-6.3066924623832845"><ele>2254.2</ele><time>2026-05-04T13:35:40Z</time></trkpt><trkpt lat="31.593495605187233" lon="-6.306571444960842"><ele>2255.0</ele><time>2026-05-04T13:35:41Z</time></trkpt><trkpt lat="31.593533413702275" lon="-6.3064295523583835"><ele>2259.5</ele><time>2026-05-04T13:35:42Z</time></trkpt><trkpt lat="31.59359305895889" lon="-6.306284709898663"><ele>2264.0</ele><time>2026-05-04T13:35:43Z</time></trkpt><trkpt lat="31.593660116704736" lon="-6.306142199373321"><ele>2268.5</ele><time>2026-05-04T13:35:44Z</time></trkpt><trkpt lat="31.59373894657723" lon="-6.30601088404696"><ele>2273.0</ele><time>2026-05-04T13:35:45Z</time></trkpt><trkpt lat="31.593807099242635" lon="-6.305889708099901"><ele>2267.25</ele><time>2026-05-04T13:35:46Z</time></trkpt><trkpt lat="31.593873649442145" lon="-6.3057774992950275"><ele>2261.5</ele><time>2026-05-04T13:35:47Z</time></trkpt><trkpt lat="31.593934742892536" lon="-6.305670063480933"><ele>2255.75</ele><time>2026-05-04T13:35:48Z</time></trkpt><trkpt lat="31.59400787429396" lon="-6.3055663926631995"><ele>2250.0</ele><time>2026-05-04T13:35:49Z</time></trkpt><trkpt lat="31.59409897338944" lon="-6.305462037340686"><ele>2250.0</ele><time>2026-05-04T13:35:50Z</time></trkpt><trkpt lat="31.594198152884534" lon="-6.305352167267199"><ele>2250.0</ele><time>2026-05-04T13:35:51Z</time></trkpt><trkpt lat="31.594291499823953" lon="-6.305229378001563"><ele>2250.0</ele><time>2026-05-04T13:35:52Z</time></trkpt><trkpt lat="31.594371782727045" lon="-6.305099043325209"><ele>2250.0</ele><time>2026-05-04T13:35:53Z</time></trkpt><trkpt lat="31.594455250872027" lon="-6.304958917104811"><ele>2246.5</ele><time>2026-05-04T13:35:54Z</time></trkpt><trkpt lat="31.594539905822593" lon="-6.304809856999945"><ele>2243.0</ele><time>2026-05-04T13:35:55Z</time></trkpt><trkpt lat="31.594624012289735" lon="-6.304668645527323"><ele>2239.5</ele><time>2026-05-04T13:35:56Z</time></trkpt><trkpt lat="31.594711815933127" lon="-6.3045367741251575"><ele>2236.0</ele><time>2026-05-04T13:35:57Z</time></trkpt><trkpt lat="31.594803827707167" lon="-6.3044191484507985"><ele>2236.0</ele><time>2026-05-04T13:35:58Z</time></trkpt><trkpt lat="31.594905480489665" lon="-6.304317186229035"><ele>2236.0</ele><time>2026-05-04T13:35:59Z</time></trkpt><trkpt lat="31.5950069428595" lon="-6.30423092520121"><ele>2236.0</ele><time>2026-05-04T13:36:00Z</time></trkpt><trkpt lat="31.59510888237023" lon="-6.304148988368978"><ele>2236.0</ele><time>2026-05-04T13:36:01Z</time></trkpt><trkpt lat="31.59520238910633" lon="-6.304071485728714"><ele>2236.0</ele><time>2026-05-04T13:36:02Z</time></trkpt><trkpt lat="31.595297593337996" lon="-6.303998168799306"><ele>2236.0</ele><time>2026-05-04T13:36:03Z</time></trkpt><trkpt lat="31.595395157704225" lon="-6.303928346396987"><ele>2236.0</ele><time>2026-05-04T13:36:04Z</time></trkpt><trkpt lat="31.595494051717836" lon="-6.303864113119747"><ele>2236.0</ele><time>2026-05-04T13:36:05Z</time></trkpt><trkpt lat="31.595591709645642" lon="-6.303797697117874"><ele>2235.4</ele><time>2026-05-04T13:36:06Z</time></trkpt><trkpt lat="31.595686518622966" lon="-6.3037300144293225"><ele>2234.8</ele><time>2026-05-04T13:36:07Z</time></trkpt><trkpt lat="31.595781575082267" lon="-6.30366536783905"><ele>2234.2000000000003</ele><time>2026-05-04T13:36:08Z</time></trkpt><trkpt lat="31.595872925520815" lon="-6.303598865551042"><ele>2233.6</ele><time>2026-05-04T13:36:09Z</time></trkpt><trkpt lat="31.595932646627414" lon="-6.303504105679695"><ele>2233.0</ele><time>2026-05-04T13:36:10Z</time></trkpt><trkpt lat="31.595995020865754" lon="-6.303408015271056"><ele>2233.0</ele><time>2026-05-04T13:36:11Z</time></trkpt><trkpt lat="31.595984685287707" lon="-6.303288742859743"><ele>2233.0</ele><time>2026-05-04T13:36:12Z</time></trkpt><trkpt lat="31.5960026498647" lon="-6.303158393168058"><ele>2233.0</ele><time>2026-05-04T13:36:13Z</time></trkpt><trkpt lat="31.59599594817765" lon="-6.303040269018429"><ele>2233.0</ele><time>2026-05-04T13:36:14Z</time></trkpt><trkpt lat="31.59598608748604" lon="-6.30291474313571"><ele>2233.0</ele><time>2026-05-04T13:36:15Z</time></trkpt><trkpt lat="31.595957637296603" lon="-6.30280063400986"><ele>2232.666666666667</ele><time>2026-05-04T13:36:16Z</time></trkpt><trkpt lat="31.59592066952377" lon="-6.3026768600075656"><ele>2232.3333333333335</ele><time>2026-05-04T13:36:17Z</time></trkpt><trkpt lat="31.595863063174598" lon="-6.302592243600859"><ele>2232.0</ele><time>2026-05-04T13:36:18Z</time></trkpt><trkpt lat="31.595800765483126" lon="-6.302504249555041"><ele>2231.6666666666665</ele><time>2026-05-04T13:36:19Z</time></trkpt><trkpt lat="31.59573196519847" lon="-6.302462752898494"><ele>2231.333333333333</ele><time>2026-05-04T13:36:20Z</time></trkpt><trkpt lat="31.595673246281297" lon="-6.302418593705394"><ele>2231.0</ele><time>2026-05-04T13:36:21Z</time></trkpt><trkpt lat="31.595595814261895" lon="-6.302483603428594"><ele>2231.0</ele><time>2026-05-04T13:36:22Z</time></trkpt><trkpt lat="31.595510724985886" lon="-6.302488850346911"><ele>2231.0</ele><time>2026-05-04T13:36:23Z</time></trkpt><trkpt lat="31.595418628307893" lon="-6.302496250972778"><ele>2231.0</ele><time>2026-05-04T13:36:24Z</time></trkpt><trkpt lat="31.59531879669433" lon="-6.302488986008482"><ele>2231.0</ele><time>2026-05-04T13:36:25Z</time></trkpt><trkpt lat="31.595219410142033" lon="-6.3025021153333025"><ele>2231.0</ele><time>2026-05-04T13:36:26Z</time></trkpt><trkpt lat="31.595118145522257" lon="-6.302507935506103"><ele>2233.4</ele><time>2026-05-04T13:36:27Z</time></trkpt><trkpt lat="31.595019098404567" lon="-6.302518753869391"><ele>2235.8</ele><time>2026-05-04T13:36:28Z</time></trkpt><trkpt lat="31.59492137400741" lon="-6.302528727111804"><ele>2238.2000000000003</ele><time>2026-05-04T13:36:29Z</time></trkpt><trkpt lat="31.59482441515444" lon="-6.302534631987996"><ele>2240.6</ele><time>2026-05-04T13:36:30Z</time></trkpt><trkpt lat="31.5947310226915" lon="-6.302586287835602"><ele>2243.0</ele><time>2026-05-04T13:36:31Z</time></trkpt><trkpt lat="31.59463660430973" lon="-6.302602985018827"><ele>2243.0</ele><time>2026-05-04T13:36:32Z</time></trkpt><trkpt lat="31.594540986232243" lon="-6.302619882025203"><ele>2243.0</ele><time>2026-05-04T13:36:33Z</time></trkpt><trkpt lat="31.594441873782802" lon="-6.302626839723471"><ele>2243.0</ele><time>2026-05-04T13:36:34Z</time></trkpt><trkpt lat="31.594351663312565" lon="-6.3026274762175545"><ele>2243.0</ele><time>2026-05-04T13:36:35Z</time></trkpt><trkpt lat="31.594260387553653" lon="-6.302653729655689"><ele>2243.0</ele><time>2026-05-04T13:36:36Z</time></trkpt><trkpt lat="31.59416838144038" lon="-6.302693049467485"><ele>2243.4</ele><time>2026-05-04T13:36:37Z</time></trkpt><trkpt lat="31.59407715084041" lon="-6.302740854780609"><ele>2243.8</ele><time>2026-05-04T13:36:38Z</time></trkpt><trkpt lat="31.59399211418011" lon="-6.3027911738843345"><ele>2244.2</ele><time>2026-05-04T13:36:39Z</time></trkpt><trkpt lat="31.593907145199463" lon="-6.302831874325003"><ele>2244.6</ele><time>2026-05-04T13:36:40Z</time></trkpt><trkpt lat="31.593821583128584" lon="-6.3029035081379"><ele>2245.0</ele><time>2026-05-04T13:36:41Z</time></trkpt><trkpt lat="31.593732918966804" lon="-6.30291588402065"><ele>2246.2</ele><time>2026-05-04T13:36:42Z</time></trkpt><trkpt lat="31.593624315285624" lon="-6.302861574417147"><ele>2247.4</ele><time>2026-05-04T13:36:43Z</time></trkpt><trkpt lat="31.59353249049617" lon="-6.302843339660766"><ele>2248.6</ele><time>2026-05-04T13:36:44Z</time></trkpt><trkpt lat="31.59344104198696" lon="-6.302850909569475"><ele>2249.8</ele><time>2026-05-04T13:36:45Z</time></trkpt><trkpt lat="31.59333506505288" lon="-6.302865441625379"><ele>2251.0</ele><time>2026-05-04T13:36:46Z</time></trkpt><trkpt lat="31.593244077031965" lon="-6.302916996637733"><ele>2251.0</ele><time>2026-05-04T13:36:47Z</time></trkpt><trkpt lat="31.593149375891866" lon="-6.302945389349416"><ele>2251.0</ele><time>2026-05-04T13:36:48Z</time></trkpt><trkpt lat="31.593051085248323" lon="-6.302963703535831"><ele>2251.0</ele><time>2026-05-04T13:36:49Z</time></trkpt><trkpt lat="31.59295991757244" lon="-6.30297630059307"><ele>2251.0</ele><time>2026-05-04T13:36:50Z</time></trkpt><trkpt lat="31.5928335755831" lon="-6.302854711424134"><ele>2254.0</ele><time>2026-05-04T13:36:51Z</time></trkpt><trkpt lat="31.59272842399161" lon="-6.302791646296314"><ele>2257.0</ele><time>2026-05-04T13:36:52Z</time></trkpt><trkpt lat="31.592617707698533" lon="-6.302724925120808"><ele>2260.0</ele><time>2026-05-04T13:36:53Z</time></trkpt><trkpt lat="31.592495510308684" lon="-6.30267429709159"><ele>2263.0</ele><time>2026-05-04T13:36:54Z</time></trkpt><trkpt lat="31.592375469914355" lon="-6.3026094602049065"><ele>2263.0</ele><time>2026-05-04T13:36:55Z</time></trkpt><trkpt lat="31.592248192734864" lon="-6.302642030528372"><ele>2263.0</ele><time>2026-05-04T13:36:56Z</time></trkpt><trkpt lat="31.59213277355733" lon="-6.302612032041323"><ele>2263.0</ele><time>2026-05-04T13:36:57Z</time></trkpt><trkpt lat="31.592011803340412" lon="-6.302589009231348"><ele>2263.0</ele><time>2026-05-04T13:36:58Z</time></trkpt><trkpt lat="31.591895845963982" lon="-6.302594129705108"><ele>2266.0</ele><time>2026-05-04T13:36:59Z</time></trkpt><trkpt lat="31.591798508850115" lon="-6.302581387857966"><ele>2269.0</ele><time>2026-05-04T13:37:00Z</time></trkpt><trkpt lat="31.591707867581988" lon="-6.302567335452337"><ele>2272.0</ele><time>2026-05-04T13:37:01Z</time></trkpt><trkpt lat="31.59162882458185" lon="-6.302552206852636"><ele>2275.0</ele><time>2026-05-04T13:37:02Z</time></trkpt><trkpt lat="31.59156403484813" lon="-6.302539008973309"><ele>2278.0</ele><time>2026-05-04T13:37:03Z</time></trkpt><trkpt lat="31.59149460052367" lon="-6.30249316864773"><ele>2281.0</ele><time>2026-05-04T13:37:04Z</time></trkpt><trkpt lat="31.591438807503575" lon="-6.302290746573399"><ele>2282.4</ele><time>2026-05-04T13:37:06Z</time></trkpt><trkpt lat="31.59151765467819" lon="-6.302195083157534"><ele>2283.8</ele><time>2026-05-04T13:37:07Z</time></trkpt><trkpt lat="31.59158155125738" lon="-6.302107357768004"><ele>2285.2000000000003</ele><time>2026-05-04T13:37:08Z</time></trkpt><trkpt lat="31.591662468918955" lon="-6.302015767193159"><ele>2286.6</ele><time>2026-05-04T13:37:09Z</time></trkpt><trkpt lat="31.59172350642546" lon="-6.301904274953998"><ele>2288.0</ele><time>2026-05-04T13:37:10Z</time></trkpt><trkpt lat="31.5917680474874" lon="-6.301763377300388"><ele>2288.0</ele><time>2026-05-04T13:37:11Z</time></trkpt><trkpt lat="31.591780661859847" lon="-6.3016041039284705"><ele>2288.0</ele><time>2026-05-04T13:37:12Z</time></trkpt><trkpt lat="31.591770773268596" lon="-6.301475514707692"><ele>2288.0</ele><time>2026-05-04T13:37:13Z</time></trkpt><trkpt lat="31.591746161773386" lon="-6.3013503421157075"><ele>2288.0</ele><time>2026-05-04T13:37:14Z</time></trkpt><trkpt lat="31.59169977390016" lon="-6.301232815988749"><ele>2290.0</ele><time>2026-05-04T13:37:15Z</time></trkpt><trkpt lat="31.591630275727255" lon="-6.301112361749881"><ele>2292.0</ele><time>2026-05-04T13:37:16Z</time></trkpt><trkpt lat="31.591551617219906" lon="-6.300957574661409"><ele>2294.0</ele><time>2026-05-04T13:37:17Z</time></trkpt><trkpt lat="31.59151067270002" lon="-6.300841317261347"><ele>2296.0</ele><time>2026-05-04T13:37:18Z</time></trkpt><trkpt lat="31.591547186842263" lon="-6.300683705567678"><ele>2296.2</ele><time>2026-05-04T13:37:19Z</time></trkpt><trkpt lat="31.591600338831817" lon="-6.300577028255559"><ele>2296.3999999999996</ele><time>2026-05-04T13:37:20Z</time></trkpt><trkpt lat="31.591642876859662" lon="-6.3004649197053775"><ele>2296.6</ele><time>2026-05-04T13:37:21Z</time></trkpt><trkpt lat="31.59165743858637" lon="-6.300334223023817"><ele>2296.7999999999997</ele><time>2026-05-04T13:37:22Z</time></trkpt><trkpt lat="31.591668405527674" lon="-6.300193581098626"><ele>2297.0</ele><time>2026-05-04T13:37:23Z</time></trkpt><trkpt lat="31.591677461902822" lon="-6.300053183201504"><ele>2297.0</ele><time>2026-05-04T13:37:24Z</time></trkpt><trkpt lat="31.591698292076877" lon="-6.299931784540368"><ele>2297.0</ele><time>2026-05-04T13:37:25Z</time></trkpt><trkpt lat="31.591681737571914" lon="-6.299821870088347"><ele>2297.0</ele><time>2026-05-04T13:37:26Z</time></trkpt><trkpt lat="31.59163752520482" lon="-6.299718399930859"><ele>2297.0</ele><time>2026-05-04T13:37:27Z</time></trkpt><trkpt lat="31.591555031260118" lon="-6.299643654204859"><ele>2297.0</ele><time>2026-05-04T13:37:28Z</time></trkpt><trkpt lat="31.591438785144344" lon="-6.299584114321498"><ele>2295.25</ele><time>2026-05-04T13:37:29Z</time></trkpt><trkpt lat="31.59130729246906" lon="-6.299537628862363"><ele>2293.5</ele><time>2026-05-04T13:37:30Z</time></trkpt><trkpt lat="31.591182852171897" lon="-6.299506168461072"><ele>2291.75</ele><time>2026-05-04T13:37:31Z</time></trkpt><trkpt lat="31.591062016734426" lon="-6.299503712700848"><ele>2290.0</ele><time>2026-05-04T13:37:32Z</time></trkpt><trkpt lat="31.590957059741434" lon="-6.29957182081536"><ele>2289.6</ele><time>2026-05-04T13:37:33Z</time></trkpt><trkpt lat="31.590856870064528" lon="-6.2996510725419945"><ele>2289.2</ele><time>2026-05-04T13:37:34Z</time></trkpt><trkpt lat="31.590760070623446" lon="-6.299711260576264"><ele>2288.8</ele><time>2026-05-04T13:37:35Z</time></trkpt><trkpt lat="31.590663815023607" lon="-6.299744766298092"><ele>2288.4</ele><time>2026-05-04T13:37:36Z</time></trkpt><trkpt lat="31.590560681145913" lon="-6.299729037426492"><ele>2288.0</ele><time>2026-05-04T13:37:37Z</time></trkpt><trkpt lat="31.590463406634495" lon="-6.299671310532482"><ele>2288.0</ele><time>2026-05-04T13:37:38Z</time></trkpt><trkpt lat="31.590403037735854" lon="-6.299568464426177"><ele>2288.0</ele><time>2026-05-04T13:37:39Z</time></trkpt><trkpt lat="31.590354461745772" lon="-6.299461508280786"><ele>2288.0</ele><time>2026-05-04T13:37:40Z</time></trkpt><trkpt lat="31.590307716182632" lon="-6.299363856056194"><ele>2288.0</ele><time>2026-05-04T13:37:41Z</time></trkpt><trkpt lat="31.590235679771226" lon="-6.299305269071969"><ele>2288.0</ele><time>2026-05-04T13:37:42Z</time></trkpt><trkpt lat="31.590129057051385" lon="-6.299285924456949"><ele>2289.25</ele><time>2026-05-04T13:37:43Z</time></trkpt><trkpt lat="31.589991804456762" lon="-6.299282766296322"><ele>2290.5</ele><time>2026-05-04T13:37:44Z</time></trkpt><trkpt lat="31.589853431935857" lon="-6.299279241034007"><ele>2291.75</ele><time>2026-05-04T13:37:45Z</time></trkpt><trkpt lat="31.589708814370965" lon="-6.2992767116064545"><ele>2293.0</ele><time>2026-05-04T13:37:46Z</time></trkpt><trkpt lat="31.589580754129223" lon="-6.299332775339683"><ele>2294.5</ele><time>2026-05-04T13:37:47Z</time></trkpt><trkpt lat="31.589453117009715" lon="-6.299389327233362"><ele>2296.0</ele><time>2026-05-04T13:37:48Z</time></trkpt><trkpt lat="31.58933358600295" lon="-6.299448136814569"><ele>2297.5</ele><time>2026-05-04T13:37:49Z</time></trkpt><trkpt lat="31.58921568624066" lon="-6.299505474083162"><ele>2299.0</ele><time>2026-05-04T13:37:50Z</time></trkpt><trkpt lat="31.58910303640948" lon="-6.299547643416036"><ele>2299.0</ele><time>2026-05-04T13:37:51Z</time></trkpt><trkpt lat="31.589008262267257" lon="-6.299602466486028"><ele>2299.0</ele><time>2026-05-04T13:37:52Z</time></trkpt><trkpt lat="31.58893355684203" lon="-6.2996361495966005"><ele>2299.0</ele><time>2026-05-04T13:37:53Z</time></trkpt><trkpt lat="31.588860401744416" lon="-6.299640835608895"><ele>2299.0</ele><time>2026-05-04T13:37:54Z</time></trkpt><trkpt lat="31.588797165848213" lon="-6.29963737873778"><ele>2299.0</ele><time>2026-05-04T13:37:55Z</time></trkpt><trkpt lat="31.58867199401917" lon="-6.299581485668203"><ele>2302.0</ele><time>2026-05-04T13:37:57Z</time></trkpt><trkpt lat="31.588617775294697" lon="-6.299509661059888"><ele>2305.0</ele><time>2026-05-04T13:37:58Z</time></trkpt><trkpt lat="31.588599090063916" lon="-6.299395919340228"><ele>2308.0</ele><time>2026-05-04T13:37:59Z</time></trkpt><trkpt lat="31.58860482089032" lon="-6.2992864260878605"><ele>2311.0</ele><time>2026-05-04T13:38:00Z</time></trkpt><trkpt lat="31.588581637410048" lon="-6.299179079096136"><ele>2314.0</ele><time>2026-05-04T13:38:01Z</time></trkpt><trkpt lat="31.58857835280636" lon="-6.299055130658152"><ele>2314.0</ele><time>2026-05-04T13:38:02Z</time></trkpt><trkpt lat="31.588573057200183" lon="-6.298925527449982"><ele>2314.0</ele><time>2026-05-04T13:38:03Z</time></trkpt><trkpt lat="31.588559527436512" lon="-6.2988044983276446"><ele>2314.0</ele><time>2026-05-04T13:38:04Z</time></trkpt><trkpt lat="31.588579686784076" lon="-6.29868478792866"><ele>2314.0</ele><time>2026-05-04T13:38:05Z</time></trkpt><trkpt lat="31.5885992233573" lon="-6.298600340239981"><ele>2314.0</ele><time>2026-05-04T13:38:06Z</time></trkpt><trkpt lat="31.588615985953926" lon="-6.298527883318926"><ele>2314.6</ele><time>2026-05-04T13:38:07Z</time></trkpt><trkpt lat="31.588712344163927" lon="-6.298486857191676"><ele>2315.2</ele><time>2026-05-04T13:38:08Z</time></trkpt><trkpt lat="31.58879852386762" lon="-6.298442958261925"><ele>2315.7999999999997</ele><time>2026-05-04T13:38:09Z</time></trkpt><trkpt lat="31.58890636545074" lon="-6.298396254333308"><ele>2316.4</ele><time>2026-05-04T13:38:10Z</time></trkpt><trkpt lat="31.5890204699064" lon="-6.298343681808582"><ele>2317.0</ele><time>2026-05-04T13:38:11Z</time></trkpt><trkpt lat="31.589126351126836" lon="-6.298281759529164"><ele>2317.0</ele><time>2026-05-04T13:38:12Z</time></trkpt><trkpt lat="31.589238454488658" lon="-6.2982133848957496"><ele>2317.0</ele><time>2026-05-04T13:38:13Z</time></trkpt><trkpt lat="31.589356009225288" lon="-6.2981376050860645"><ele>2317.0</ele><time>2026-05-04T13:38:14Z</time></trkpt><trkpt lat="31.589469669689127" lon="-6.298058695507794"><ele>2317.0</ele><time>2026-05-04T13:38:15Z</time></trkpt><trkpt lat="31.589570397682447" lon="-6.297980757065927"><ele>2318.7999999999997</ele><time>2026-05-04T13:38:16Z</time></trkpt><trkpt lat="31.58964455154928" lon="-6.297897275268001"><ele>2320.6</ele><time>2026-05-04T13:38:17Z</time></trkpt><trkpt lat="31.589696165133336" lon="-6.297796757234414"><ele>2322.3999999999996</ele><time>2026-05-04T13:38:18Z</time></trkpt><trkpt lat="31.589727110496494" lon="-6.297681690680394"><ele>2324.2</ele><time>2026-05-04T13:38:19Z</time></trkpt><trkpt lat="31.589715583807013" lon="-6.297555544686109"><ele>2326.0</ele><time>2026-05-04T13:38:20Z</time></trkpt><trkpt lat="31.58973085329094" lon="-6.297427963929231"><ele>2326.0</ele><time>2026-05-04T13:38:21Z</time></trkpt><trkpt lat="31.58974682369534" lon="-6.29729082483545"><ele>2326.0</ele><time>2026-05-04T13:38:22Z</time></trkpt><trkpt lat="31.589761195751244" lon="-6.297148482347672"><ele>2326.0</ele><time>2026-05-04T13:38:23Z</time></trkpt><trkpt lat="31.589768741408204" lon="-6.2969960295419884"><ele>2326.0</ele><time>2026-05-04T13:38:24Z</time></trkpt><trkpt lat="31.58977705560103" lon="-6.296839518615104"><ele>2328.75</ele><time>2026-05-04T13:38:25Z</time></trkpt><trkpt lat="31.589777445563765" lon="-6.296684642260631"><ele>2331.5</ele><time>2026-05-04T13:38:26Z</time></trkpt><trkpt lat="31.589775534777953" lon="-6.296528631910952"><ele>2334.25</ele><time>2026-05-04T13:38:27Z</time></trkpt><trkpt lat="31.589766156971265" lon="-6.296387396899042"><ele>2337.0</ele><time>2026-05-04T13:38:28Z</time></trkpt><trkpt lat="31.58974845278489" lon="-6.296266537821645"><ele>2338.6666666666665</ele><time>2026-05-04T13:38:29Z</time></trkpt><trkpt lat="31.58973871918352" lon="-6.296161261121056"><ele>2340.3333333333335</ele><time>2026-05-04T13:38:30Z</time></trkpt><trkpt lat="31.589729745286622" lon="-6.296065421569369"><ele>2342.0</ele><time>2026-05-04T13:38:31Z</time></trkpt><trkpt lat="31.589738740998843" lon="-6.295968291373077"><ele>2343.666666666667</ele><time>2026-05-04T13:38:32Z</time></trkpt><trkpt lat="31.589757766396012" lon="-6.295886494442255"><ele>2345.3333333333335</ele><time>2026-05-04T13:38:33Z</time></trkpt><trkpt lat="31.589785943877562" lon="-6.295815103930505"><ele>2347.0</ele><time>2026-05-04T13:38:34Z</time></trkpt><trkpt lat="31.58984421709547" lon="-6.2957522021839685"><ele>2347.0</ele><time>2026-05-04T13:38:35Z</time></trkpt><trkpt lat="31.589895229435616" lon="-6.295657212590617"><ele>2347.0</ele><time>2026-05-04T13:38:36Z</time></trkpt><trkpt lat="31.58997014223577" lon="-6.295569648190688"><ele>2347.0</ele><time>2026-05-04T13:38:37Z</time></trkpt><trkpt lat="31.59005954058353" lon="-6.29547061374361"><ele>2347.0</ele><time>2026-05-04T13:38:38Z</time></trkpt><trkpt lat="31.5901532724789" lon="-6.295379900955376"><ele>2347.0</ele><time>2026-05-04T13:38:39Z</time></trkpt><trkpt lat="31.59022826558536" lon="-6.29529674602139"><ele>2347.4</ele><time>2026-05-04T13:38:40Z</time></trkpt><trkpt lat="31.590286234518633" lon="-6.295215237733889"><ele>2347.7999999999997</ele><time>2026-05-04T13:38:41Z</time></trkpt><trkpt lat="31.590340505207553" lon="-6.295136020269767"><ele>2348.2</ele><time>2026-05-04T13:38:42Z</time></trkpt><trkpt lat="31.590371815986266" lon="-6.295023619156791"><ele>2348.6</ele><time>2026-05-04T13:38:43Z</time></trkpt><trkpt lat="31.590397519466993" lon="-6.294893067722797"><ele>2349.0</ele><time>2026-05-04T13:38:44Z</time></trkpt><trkpt lat="31.59040197487348" lon="-6.294736071664235"><ele>2349.0</ele><time>2026-05-04T13:38:45Z</time></trkpt><trkpt lat="31.590391988780873" lon="-6.29458052680322"><ele>2349.0</ele><time>2026-05-04T13:38:46Z</time></trkpt><trkpt lat="31.590386376895495" lon="-6.29443154105786"><ele>2349.0</ele><time>2026-05-04T13:38:47Z</time></trkpt><trkpt lat="31.59028730919336" lon="-6.294312256012064"><ele>2349.0</ele><time>2026-05-04T13:38:48Z</time></trkpt><trkpt lat="31.59020290742989" lon="-6.2941677136042475"><ele>2354.0</ele><time>2026-05-04T13:38:49Z</time></trkpt><trkpt lat="31.59011201007676" lon="-6.294027519935099"><ele>2359.0</ele><time>2026-05-04T13:38:50Z</time></trkpt><trkpt lat="31.590049697776276" lon="-6.293873458395037"><ele>2364.0</ele><time>2026-05-04T13:38:51Z</time></trkpt><trkpt lat="31.59000112980371" lon="-6.293737204622765"><ele>2369.0</ele><time>2026-05-04T13:38:52Z</time></trkpt><trkpt lat="31.58995809341714" lon="-6.293610836926727"><ele>2369.0</ele><time>2026-05-04T13:38:53Z</time></trkpt><trkpt lat="31.589915465951073" lon="-6.293502597876394"><ele>2369.0</ele><time>2026-05-04T13:38:54Z</time></trkpt><trkpt lat="31.589857716254976" lon="-6.2934163302507855"><ele>2369.0</ele><time>2026-05-04T13:38:55Z</time></trkpt><trkpt lat="31.589774026872888" lon="-6.293352367859923"><ele>2369.0</ele><time>2026-05-04T13:38:56Z</time></trkpt><trkpt lat="31.589673914845445" lon="-6.29332000806527"><ele>2369.0</ele><time>2026-05-04T13:38:57Z</time></trkpt><trkpt lat="31.58957609411502" lon="-6.293312195557669"><ele>2369.4</ele><time>2026-05-04T13:38:58Z</time></trkpt><trkpt lat="31.589488260512237" lon="-6.293370406803247"><ele>2369.8</ele><time>2026-05-04T13:38:59Z</time></trkpt><trkpt lat="31.589412679952982" lon="-6.293435059251417"><ele>2370.2</ele><time>2026-05-04T13:39:00Z</time></trkpt><trkpt lat="31.58933515041046" lon="-6.29349416833929"><ele>2370.6</ele><time>2026-05-04T13:39:01Z</time></trkpt><trkpt lat="31.589272189791785" lon="-6.293533337156206"><ele>2371.0</ele><time>2026-05-04T13:39:02Z</time></trkpt><trkpt lat="31.589162511830565" lon="-6.293505776418754"><ele>2371.0</ele><time>2026-05-04T13:39:03Z</time></trkpt><trkpt lat="31.589084734698247" lon="-6.293411826998814"><ele>2371.0</ele><time>2026-05-04T13:39:04Z</time></trkpt><trkpt lat="31.589040886753804" lon="-6.2932787592518595"><ele>2371.0</ele><time>2026-05-04T13:39:05Z</time></trkpt><trkpt lat="31.588985139461208" lon="-6.293154833509007"><ele>2371.0</ele><time>2026-05-04T13:39:06Z</time></trkpt><trkpt lat="31.588916868212873" lon="-6.293035350052807"><ele>2370.0</ele><time>2026-05-04T13:39:07Z</time></trkpt><trkpt lat="31.588847937165983" lon="-6.292911263199683"><ele>2369.0</ele><time>2026-05-04T13:39:08Z</time></trkpt><trkpt lat="31.58879389199842" lon="-6.2928069054844"><ele>2368.0</ele><time>2026-05-04T13:39:09Z</time></trkpt><trkpt lat="31.5887390762905" lon="-6.2927206533038795"><ele>2367.0</ele><time>2026-05-04T13:39:10Z</time></trkpt><trkpt lat="31.588661904436456" lon="-6.292656775692181"><ele>2366.0</ele><time>2026-05-04T13:39:11Z</time></trkpt><trkpt lat="31.588554507291096" lon="-6.292611757505857"><ele>2366.0</ele><time>2026-05-04T13:39:12Z</time></trkpt><trkpt lat="31.58842116568445" lon="-6.292549639135848"><ele>2366.0</ele><time>2026-05-04T13:39:13Z</time></trkpt><trkpt lat="31.58828911211483" lon="-6.292464880643732"><ele>2366.0</ele><time>2026-05-04T13:39:14Z</time></trkpt><trkpt lat="31.588165410044816" lon="-6.2923953171083475"><ele>2366.0</ele><time>2026-05-04T13:39:15Z</time></trkpt><trkpt lat="31.588057621185932" lon="-6.292321832329326"><ele>2360.6</ele><time>2026-05-04T13:39:16Z</time></trkpt><trkpt lat="31.587959994656135" lon="-6.292251396444954"><ele>2355.2</ele><time>2026-05-04T13:39:17Z</time></trkpt><trkpt lat="31.58786780140429" lon="-6.292190401002137"><ele>2349.8</ele><time>2026-05-04T13:39:18Z</time></trkpt><trkpt lat="31.58778473324108" lon="-6.292149172753337"><ele>2344.4</ele><time>2026-05-04T13:39:19Z</time></trkpt><trkpt lat="31.58769855749552" lon="-6.292138200103942"><ele>2339.0</ele><time>2026-05-04T13:39:20Z</time></trkpt><trkpt lat="31.5876078756982" lon="-6.2921657769528645"><ele>2339.0</ele><time>2026-05-04T13:39:21Z</time></trkpt><trkpt lat="31.58752016188932" lon="-6.292235561979334"><ele>2339.0</ele><time>2026-05-04T13:39:22Z</time></trkpt><trkpt lat="31.587449333374497" lon="-6.292331023850462"><ele>2339.0</ele><time>2026-05-04T13:39:23Z</time></trkpt><trkpt lat="31.587431947345493" lon="-6.292456712331335"><ele>2339.0</ele><time>2026-05-04T13:39:24Z</time></trkpt><trkpt lat="31.58740774409157" lon="-6.292572183897241"><ele>2339.0</ele><time>2026-05-04T13:39:25Z</time></trkpt><trkpt lat="31.58737868532149" lon="-6.292694620869018"><ele>2342.75</ele><time>2026-05-04T13:39:26Z</time></trkpt><trkpt lat="31.587337872261138" lon="-6.292816813721453"><ele>2346.5</ele><time>2026-05-04T13:39:27Z</time></trkpt><trkpt lat="31.58728581625254" lon="-6.292940422675751"><ele>2350.25</ele><time>2026-05-04T13:39:27.999Z</time></trkpt><trkpt lat="31.58722653045006" lon="-6.293061048229979"><ele>2354.0</ele><time>2026-05-04T13:39:28.999Z</time></trkpt><trkpt lat="31.587152875453818" lon="-6.2931852310446414"><ele>2351.75</ele><time>2026-05-04T13:39:29.999Z</time></trkpt><trkpt lat="31.58707668764973" lon="-6.293303795074064"><ele>2349.5</ele><time>2026-05-04T13:39:30.999Z</time></trkpt><trkpt lat="31.58699680580502" lon="-6.293407901602017"><ele>2347.25</ele><time>2026-05-04T13:39:31.999Z</time></trkpt><trkpt lat="31.586905398057038" lon="-6.293477632528383"><ele>2345.0</ele><time>2026-05-04T13:39:32.999Z</time></trkpt><trkpt lat="31.586845214115495" lon="-6.29356696034095"><ele>2345.0</ele><time>2026-05-04T13:39:33.999Z</time></trkpt><trkpt lat="31.586718995634858" lon="-6.293575904990747"><ele>2345.0</ele><time>2026-05-04T13:39:34.999Z</time></trkpt><trkpt lat="31.586612535745058" lon="-6.293642337486642"><ele>2345.0</ele><time>2026-05-04T13:39:35.999Z</time></trkpt><trkpt lat="31.586503843304122" lon="-6.293705105633906"><ele>2345.0</ele><time>2026-05-04T13:39:36.999Z</time></trkpt><trkpt lat="31.58639147782406" lon="-6.293755074334915"><ele>2345.0</ele><time>2026-05-04T13:39:37.999Z</time></trkpt><trkpt lat="31.586295898523836" lon="-6.293839582165823"><ele>2345.0</ele><time>2026-05-04T13:39:38.999Z</time></trkpt><trkpt lat="31.586188693798007" lon="-6.2939027828038805"><ele>2345.0</ele><time>2026-05-04T13:39:39.999Z</time></trkpt><trkpt lat="31.58607009895219" lon="-6.2939304393832"><ele>2345.0</ele><time>2026-05-04T13:39:40.999Z</time></trkpt><trkpt lat="31.585956956852026" lon="-6.293972904618179"><ele>2345.6</ele><time>2026-05-04T13:39:41.999Z</time></trkpt><trkpt lat="31.58584186489108" lon="-6.29400958537123"><ele>2346.2</ele><time>2026-05-04T13:39:42.999Z</time></trkpt><trkpt lat="31.58575593570954" lon="-6.294068935114007"><ele>2346.8</ele><time>2026-05-04T13:39:43.999Z</time></trkpt><trkpt lat="31.585670767320774" lon="-6.2941256684349804"><ele>2347.4</ele><time>2026-05-04T13:39:44.999Z</time></trkpt><trkpt lat="31.585597632852895" lon="-6.294161659699465"><ele>2348.0</ele><time>2026-05-04T13:39:45.999Z</time></trkpt><trkpt lat="31.58552587516648" lon="-6.294183400563506"><ele>2348.0</ele><time>2026-05-04T13:39:46.999Z</time></trkpt><trkpt lat="31.585445832449132" lon="-6.2941758686205125"><ele>2348.0</ele><time>2026-05-04T13:39:47.999Z</time></trkpt><trkpt lat="31.585377957435043" lon="-6.294152987087063"><ele>2348.0</ele><time>2026-05-04T13:39:48.999Z</time></trkpt><trkpt lat="31.58530704593708" lon="-6.2940952206845076"><ele>2348.0</ele><time>2026-05-04T13:39:49.999Z</time></trkpt><trkpt lat="31.58525233893344" lon="-6.294010043575977"><ele>2348.0</ele><time>2026-05-04T13:39:50.999Z</time></trkpt><trkpt lat="31.58520891527426" lon="-6.293951509014951"><ele>2348.0</ele><time>2026-05-04T13:39:51.999Z</time></trkpt><trkpt lat="31.585202033774948" lon="-6.293839479445086"><ele>2346.8</ele><time>2026-05-04T13:39:52.999Z</time></trkpt><trkpt lat="31.585249891934104" lon="-6.293740659252603"><ele>2345.6000000000004</ele><time>2026-05-04T13:39:54Z</time></trkpt><trkpt lat="31.58526749504038" lon="-6.2936493582715505"><ele>2344.3999999999996</ele><time>2026-05-04T13:39:55Z</time></trkpt><trkpt lat="31.585343276439517" lon="-6.293568264311748"><ele>2343.2</ele><time>2026-05-04T13:39:56Z</time></trkpt><trkpt lat="31.585417818179184" lon="-6.293476045994237"><ele>2342.0</ele><time>2026-05-04T13:39:57Z</time></trkpt><trkpt lat="31.585499136392592" lon="-6.293377810521912"><ele>2339.2</ele><time>2026-05-04T13:39:58Z</time></trkpt><trkpt lat="31.58556576190515" lon="-6.293262960708342"><ele>2336.3999999999996</ele><time>2026-05-04T13:39:59Z</time></trkpt><trkpt lat="31.58561877292652" lon="-6.2931450412977785"><ele>2333.6000000000004</ele><time>2026-05-04T13:40:00Z</time></trkpt><trkpt lat="31.58566447811085" lon="-6.293030661541667"><ele>2330.8</ele><time>2026-05-04T13:40:01Z</time></trkpt><trkpt lat="31.58570459378086" lon="-6.292919544403091"><ele>2328.0</ele><time>2026-05-04T13:40:02Z</time></trkpt><trkpt lat="31.585735404512906" lon="-6.29280164992616"><ele>2326.0</ele><time>2026-05-04T13:40:03Z</time></trkpt><trkpt lat="31.58571414874018" lon="-6.2926744418709015"><ele>2324.0</ele><time>2026-05-04T13:40:04Z</time></trkpt><trkpt lat="31.585701624607417" lon="-6.292540612449688"><ele>2322.0</ele><time>2026-05-04T13:40:05Z</time></trkpt><trkpt lat="31.58567832132805" lon="-6.292399765775378"><ele>2320.0</ele><time>2026-05-04T13:40:06Z</time></trkpt><trkpt lat="31.585678321326114" lon="-6.292264232914265"><ele>2320.0</ele><time>2026-05-04T13:40:07Z</time></trkpt><trkpt lat="31.585717453260216" lon="-6.292132744399085"><ele>2320.0</ele><time>2026-05-04T13:40:08Z</time></trkpt><trkpt lat="31.585760949223904" lon="-6.291999476014386"><ele>2320.0</ele><time>2026-05-04T13:40:09Z</time></trkpt><trkpt lat="31.585817133682657" lon="-6.291863224585211"><ele>2320.0</ele><time>2026-05-04T13:40:10Z</time></trkpt><trkpt lat="31.585875160977356" lon="-6.291726669038369"><ele>2320.0</ele><time>2026-05-04T13:40:11Z</time></trkpt><trkpt lat="31.58592823354513" lon="-6.2915949403935425"><ele>2320.0</ele><time>2026-05-04T13:40:12Z</time></trkpt><trkpt lat="31.58597762689587" lon="-6.29146238610173"><ele>2320.0</ele><time>2026-05-04T13:40:13Z</time></trkpt><trkpt lat="31.586031006398315" lon="-6.291332058698239"><ele>2320.0</ele><time>2026-05-04T13:40:14Z</time></trkpt><trkpt lat="31.586087556946342" lon="-6.291212313635379"><ele>2319.4</ele><time>2026-05-04T13:40:15Z</time></trkpt><trkpt lat="31.586149365269495" lon="-6.291105129803363"><ele>2318.8</ele><time>2026-05-04T13:40:16Z</time></trkpt><trkpt lat="31.586193128382735" lon="-6.290992571310616"><ele>2318.2</ele><time>2026-05-04T13:40:17Z</time></trkpt><trkpt lat="31.586248336229623" lon="-6.290883423127352"><ele>2317.6</ele><time>2026-05-04T13:40:18Z</time></trkpt><trkpt lat="31.586303623174135" lon="-6.290768302744591"><ele>2317.0</ele><time>2026-05-04T13:40:19Z</time></trkpt><trkpt lat="31.586376419447344" lon="-6.290652765623859"><ele>2314.0</ele><time>2026-05-04T13:40:20Z</time></trkpt><trkpt lat="31.586435778367587" lon="-6.290518796963578"><ele>2311.0</ele><time>2026-05-04T13:40:21Z</time></trkpt><trkpt lat="31.58648556888265" lon="-6.290385493585846"><ele>2308.0</ele><time>2026-05-04T13:40:22Z</time></trkpt><trkpt lat="31.58651502711728" lon="-6.290259075018004"><ele>2305.0</ele><time>2026-05-04T13:40:23Z</time></trkpt><trkpt lat="31.586528122009767" lon="-6.290142931917099"><ele>2305.0</ele><time>2026-05-04T13:40:24Z</time></trkpt><trkpt lat="31.586537298642554" lon="-6.290042664232296"><ele>2305.0</ele><time>2026-05-04T13:40:25Z</time></trkpt><trkpt lat="31.5865501748489" lon="-6.289963291432856"><ele>2305.0</ele><time>2026-05-04T13:40:26Z</time></trkpt><trkpt lat="31.586568006076956" lon="-6.289860821546578"><ele>2305.0</ele><time>2026-05-04T13:40:28Z</time></trkpt><trkpt lat="31.58660771727558" lon="-6.28976891804144"><ele>2305.0</ele><time>2026-05-04T13:40:31Z</time></trkpt><trkpt lat="31.58664075710327" lon="-6.289681084278081"><ele>2305.0</ele><time>2026-05-04T13:40:33Z</time></trkpt><trkpt lat="31.586691365268095" lon="-6.289582491493787"><ele>2307.0</ele><time>2026-05-04T13:40:35Z</time></trkpt><trkpt lat="31.586774280629662" lon="-6.289488162971469"><ele>2309.0</ele><time>2026-05-04T13:40:37Z</time></trkpt><trkpt lat="31.586874239984372" lon="-6.289481015428938"><ele>2311.0</ele><time>2026-05-04T13:40:38Z</time></trkpt><trkpt lat="31.586969376091652" lon="-6.289479163721446"><ele>2313.0</ele><time>2026-05-04T13:40:39Z</time></trkpt><trkpt lat="31.587088517999437" lon="-6.289490081016007"><ele>2315.0</ele><time>2026-05-04T13:40:40Z</time></trkpt><trkpt lat="31.587213163003156" lon="-6.289499492605931"><ele>2315.0</ele><time>2026-05-04T13:40:41Z</time></trkpt><trkpt lat="31.587337386134077" lon="-6.289512024023067"><ele>2315.0</ele><time>2026-05-04T13:40:42Z</time></trkpt><trkpt lat="31.587440219666266" lon="-6.289477908240004"><ele>2315.0</ele><time>2026-05-04T13:40:43Z</time></trkpt><trkpt lat="31.587519815083592" lon="-6.289444372210588"><ele>2315.0</ele><time>2026-05-04T13:40:44Z</time></trkpt><trkpt lat="31.587573903341596" lon="-6.289403702869633"><ele>2315.0</ele><time>2026-05-04T13:40:45Z</time></trkpt><trkpt lat="31.587535423833405" lon="-6.289273976342765"><ele>2315.0</ele><time>2026-05-04T13:40:47Z</time></trkpt><trkpt lat="31.58747333363842" lon="-6.289291540138602"><ele>2315.0</ele><time>2026-05-04T13:40:48Z</time></trkpt><trkpt lat="31.587336398115617" lon="-6.289328818487643"><ele>2315.0</ele><time>2026-05-04T13:40:50Z</time></trkpt><trkpt lat="31.58721871648378" lon="-6.289304549602844"><ele>2315.0</ele><time>2026-05-04T13:40:52Z</time></trkpt><trkpt lat="31.587171950855687" lon="-6.2892429191359005"><ele>2315.0</ele><time>2026-05-04T13:40:53Z</time></trkpt><trkpt lat="31.587227158127227" lon="-6.289135825756799"><ele>2315.0</ele><time>2026-05-04T13:40:54Z</time></trkpt><trkpt lat="31.58726098529913" lon="-6.289068773188504"><ele>2315.0</ele><time>2026-05-04T13:40:55Z</time></trkpt><trkpt lat="31.587340261007473" lon="-6.2890315522023945"><ele>2315.0</ele><time>2026-05-04T13:40:56Z</time></trkpt><trkpt lat="31.58741533952191" lon="-6.288985496349071"><ele>2315.0</ele><time>2026-05-04T13:40:57Z</time></trkpt><trkpt lat="31.587511627212514" lon="-6.288928258649185"><ele>2315.0</ele><time>2026-05-04T13:40:58Z</time></trkpt><trkpt lat="31.58762109347194" lon="-6.288857669397942"><ele>2320.0</ele><time>2026-05-04T13:40:59Z</time></trkpt><trkpt lat="31.587724170439675" lon="-6.288769285805312"><ele>2325.0</ele><time>2026-05-04T13:41:00Z</time></trkpt><trkpt lat="31.58782735461989" lon="-6.288651577303992"><ele>2330.0</ele><time>2026-05-04T13:41:01Z</time></trkpt><trkpt lat="31.587934828164112" lon="-6.288513172441569"><ele>2335.0</ele><time>2026-05-04T13:41:02Z</time></trkpt><trkpt lat="31.5880451189351" lon="-6.288362219805403"><ele>2335.0</ele><time>2026-05-04T13:41:03Z</time></trkpt><trkpt lat="31.58813995695537" lon="-6.288216151858423"><ele>2335.0</ele><time>2026-05-04T13:41:04Z</time></trkpt><trkpt lat="31.588187537229526" lon="-6.288065540107014"><ele>2335.0</ele><time>2026-05-04T13:41:05Z</time></trkpt><trkpt lat="31.58826700386894" lon="-6.287969778263447"><ele>2335.0</ele><time>2026-05-04T13:41:06Z</time></trkpt><trkpt lat="31.588311123166104" lon="-6.287865256551593"><ele>2336.5</ele><time>2026-05-04T13:41:07Z</time></trkpt><trkpt lat="31.58840868419431" lon="-6.287814329661182"><ele>2338.0</ele><time>2026-05-04T13:41:08Z</time></trkpt><trkpt lat="31.58852170469527" lon="-6.287782043248275"><ele>2339.5</ele><time>2026-05-04T13:41:09Z</time></trkpt><trkpt lat="31.588648784609486" lon="-6.287775890045979"><ele>2341.0</ele><time>2026-05-04T13:41:10Z</time></trkpt><trkpt lat="31.58878762646366" lon="-6.287773069064376"><ele>2342.0</ele><time>2026-05-04T13:41:11Z</time></trkpt><trkpt lat="31.588929819591623" lon="-6.287764636645095"><ele>2343.0</ele><time>2026-05-04T13:41:12Z</time></trkpt><trkpt lat="31.589067248407034" lon="-6.287762099650967"><ele>2344.0</ele><time>2026-05-04T13:41:13Z</time></trkpt><trkpt lat="31.589193593521294" lon="-6.287774033814316"><ele>2345.0</ele><time>2026-05-04T13:41:14Z</time></trkpt><trkpt lat="31.589307215244677" lon="-6.287789649320614"><ele>2345.0</ele><time>2026-05-04T13:41:15Z</time></trkpt><trkpt lat="31.589408470019407" lon="-6.287777448899168"><ele>2345.0</ele><time>2026-05-04T13:41:16Z</time></trkpt><trkpt lat="31.58949319997144" lon="-6.287762724414452"><ele>2345.0</ele><time>2026-05-04T13:41:17Z</time></trkpt><trkpt lat="31.589563601092923" lon="-6.287800522231831"><ele>2345.0</ele><time>2026-05-04T13:41:18Z</time></trkpt><trkpt lat="31.589629608021966" lon="-6.287879705900347"><ele>2345.0</ele><time>2026-05-04T13:41:19Z</time></trkpt><trkpt lat="31.589701190341938" lon="-6.287960452425711"><ele>2345.5</ele><time>2026-05-04T13:41:20Z</time></trkpt><trkpt lat="31.58978677222748" lon="-6.288004907106243"><ele>2346.0</ele><time>2026-05-04T13:41:21Z</time></trkpt><trkpt lat="31.589872477379625" lon="-6.288007160660945"><ele>2346.5</ele><time>2026-05-04T13:41:22Z</time></trkpt><trkpt lat="31.589938534709827" lon="-6.287967898233518"><ele>2347.0</ele><time>2026-05-04T13:41:23Z</time></trkpt><trkpt lat="31.58998199877478" lon="-6.287914228354661"><ele>2347.5</ele><time>2026-05-04T13:41:24Z</time></trkpt><trkpt lat="31.58994173252287" lon="-6.287768675052214"><ele>2348.0</ele><time>2026-05-04T13:41:26Z</time></trkpt><trkpt lat="31.58988335229974" lon="-6.287709852416087"><ele>2348.0</ele><time>2026-05-04T13:41:27Z</time></trkpt><trkpt lat="31.589830450201788" lon="-6.287606631460293"><ele>2348.0</ele><time>2026-05-04T13:41:28Z</time></trkpt><trkpt lat="31.589772005546255" lon="-6.287492594596149"><ele>2348.0</ele><time>2026-05-04T13:41:29Z</time></trkpt><trkpt lat="31.589701247539804" lon="-6.287416561855054"><ele>2348.0</ele><time>2026-05-04T13:41:30Z</time></trkpt><trkpt lat="31.589640764819375" lon="-6.2873400904372705"><ele>2348.0</ele><time>2026-05-04T13:41:31Z</time></trkpt><trkpt lat="31.58956258038977" lon="-6.28734397387047"><ele>2347.5</ele><time>2026-05-04T13:41:32Z</time></trkpt><trkpt lat="31.589502181030323" lon="-6.2873721524527735"><ele>2347.0</ele><time>2026-05-04T13:41:33Z</time></trkpt><trkpt lat="31.5894333759187" lon="-6.287375201988854"><ele>2346.5</ele><time>2026-05-04T13:41:34Z</time></trkpt><trkpt lat="31.58936561470867" lon="-6.28737820536223"><ele>2346.0</ele><time>2026-05-04T13:41:35Z</time></trkpt><trkpt lat="31.589293545150397" lon="-6.287344847688189"><ele>2345.5</ele><time>2026-05-04T13:41:36Z</time></trkpt><trkpt lat="31.58921177431611" lon="-6.287327325091755"><ele>2345.0</ele><time>2026-05-04T13:41:37Z</time></trkpt><trkpt lat="31.589114422254248" lon="-6.287281924947732"><ele>2348.6666666666665</ele><time>2026-05-04T13:41:38Z</time></trkpt><trkpt lat="31.58901914109139" lon="-6.287233006103748"><ele>2352.333333333333</ele><time>2026-05-04T13:41:39Z</time></trkpt><trkpt lat="31.588945007784545" lon="-6.287187476044774"><ele>2356.0</ele><time>2026-05-04T13:41:40Z</time></trkpt><trkpt lat="31.588881640539224" lon="-6.287148556855774"><ele>2359.6666666666665</ele><time>2026-05-04T13:41:41Z</time></trkpt><trkpt lat="31.588857319077658" lon="-6.287037433935646"><ele>2363.3333333333335</ele><time>2026-05-04T13:41:42Z</time></trkpt><trkpt lat="31.58888447800566" lon="-6.28695596374124"><ele>2367.0</ele><time>2026-05-04T13:41:43Z</time></trkpt><trkpt lat="31.588966273706465" lon="-6.286870880224539"><ele>2367.0</ele><time>2026-05-04T13:41:45Z</time></trkpt><trkpt lat="31.589030483860977" lon="-6.286872555043487"><ele>2367.0</ele><time>2026-05-04T13:41:46Z</time></trkpt><trkpt lat="31.589112573588046" lon="-6.286896058559414"><ele>2367.0</ele><time>2026-05-04T13:41:47Z</time></trkpt><trkpt lat="31.589207300011704" lon="-6.286907665739633"><ele>2367.0</ele><time>2026-05-04T13:41:48Z</time></trkpt><trkpt lat="31.58931637636903" lon="-6.286876554351602"><ele>2367.0</ele><time>2026-05-04T13:41:49Z</time></trkpt><trkpt lat="31.589430082002064" lon="-6.286802638883868"><ele>2368.0</ele><time>2026-05-04T13:41:50Z</time></trkpt><trkpt lat="31.58953838546373" lon="-6.286713559636926"><ele>2369.0</ele><time>2026-05-04T13:41:51Z</time></trkpt><trkpt lat="31.589641987794675" lon="-6.286627042646842"><ele>2370.0</ele><time>2026-05-04T13:41:52Z</time></trkpt><trkpt lat="31.589733943510122" lon="-6.286567636669612"><ele>2371.0</ele><time>2026-05-04T13:41:53Z</time></trkpt><trkpt lat="31.589818406703234" lon="-6.286531344946455"><ele>2371.0</ele><time>2026-05-04T13:41:54Z</time></trkpt><trkpt lat="31.589910103692688" lon="-6.2865304935543795"><ele>2371.0</ele><time>2026-05-04T13:41:55Z</time></trkpt><trkpt lat="31.5900125049346" lon="-6.28657243906683"><ele>2371.0</ele><time>2026-05-04T13:41:56Z</time></trkpt><trkpt lat="31.590129917610216" lon="-6.286630836967068"><ele>2371.0</ele><time>2026-05-04T13:41:57Z</time></trkpt><trkpt lat="31.590241213396293" lon="-6.2866669249321445"><ele>2371.0</ele><time>2026-05-04T13:41:58Z</time></trkpt><trkpt lat="31.59032152005332" lon="-6.2866804334222905"><ele>2368.4</ele><time>2026-05-04T13:41:59Z</time></trkpt><trkpt lat="31.590421821830773" lon="-6.286608761194675"><ele>2365.8</ele><time>2026-05-04T13:42:01Z</time></trkpt><trkpt lat="31.590429761544105" lon="-6.286524469465676"><ele>2363.2000000000003</ele><time>2026-05-04T13:42:02Z</time></trkpt><trkpt lat="31.590399848452744" lon="-6.286434631678002"><ele>2360.6</ele><time>2026-05-04T13:42:03Z</time></trkpt><trkpt lat="31.590306823237203" lon="-6.286398113458921"><ele>2358.0</ele><time>2026-05-04T13:42:04Z</time></trkpt><trkpt lat="31.59022185405541" lon="-6.286312230443931"><ele>2367.0</ele><time>2026-05-04T13:42:05Z</time></trkpt><trkpt lat="31.590107903708095" lon="-6.286264507091907"><ele>2376.0</ele><time>2026-05-04T13:42:06Z</time></trkpt><trkpt lat="31.589990887603186" lon="-6.286190646166737"><ele>2385.0</ele><time>2026-05-04T13:42:07Z</time></trkpt><trkpt lat="31.589893913299203" lon="-6.286132648331195"><ele>2394.0</ele><time>2026-05-04T13:42:08Z</time></trkpt><trkpt lat="31.589812917192997" lon="-6.286086097860876"><ele>2394.0</ele><time>2026-05-04T13:42:09Z</time></trkpt><trkpt lat="31.589692888165438" lon="-6.2861178757766325"><ele>2394.0</ele><time>2026-05-04T13:42:11Z</time></trkpt><trkpt lat="31.589633073933122" lon="-6.286153530834361"><ele>2394.0</ele><time>2026-05-04T13:42:12Z</time></trkpt><trkpt lat="31.58956954137115" lon="-6.28618984537047"><ele>2394.0</ele><time>2026-05-04T13:42:13Z</time></trkpt><trkpt lat="31.589467541706536" lon="-6.286136661687491"><ele>2394.0</ele><time>2026-05-04T13:42:14Z</time></trkpt><trkpt lat="31.58940643676833" lon="-6.2860500972113"><ele>2394.8</ele><time>2026-05-04T13:42:15Z</time></trkpt><trkpt lat="31.58935742034791" lon="-6.285966209929011"><ele>2395.6000000000004</ele><time>2026-05-04T13:42:16Z</time></trkpt><trkpt lat="31.589329353307743" lon="-6.285852066399314"><ele>2396.4</ele><time>2026-05-04T13:42:17Z</time></trkpt><trkpt lat="31.589323098888148" lon="-6.285723386102631"><ele>2397.2000000000003</ele><time>2026-05-04T13:42:18Z</time></trkpt><trkpt lat="31.589321644293822" lon="-6.2855924258065485"><ele>2398.0</ele><time>2026-05-04T13:42:19Z</time></trkpt><trkpt lat="31.58929845773237" lon="-6.285456262269857"><ele>2398.0</ele><time>2026-05-04T13:42:20Z</time></trkpt><trkpt lat="31.589281197682073" lon="-6.285318280746425"><ele>2398.0</ele><time>2026-05-04T13:42:21Z</time></trkpt><trkpt lat="31.589288249848202" lon="-6.285174700276156"><ele>2398.0</ele><time>2026-05-04T13:42:22Z</time></trkpt><trkpt lat="31.589303932918714" lon="-6.2850355140699685"><ele>2398.0</ele><time>2026-05-04T13:42:23Z</time></trkpt><trkpt lat="31.58928159217545" lon="-6.284917237144993"><ele>2398.0</ele><time>2026-05-04T13:42:24Z</time></trkpt><trkpt lat="31.589252995740182" lon="-6.284817894119976"><ele>2398.0</ele><time>2026-05-04T13:42:25Z</time></trkpt><trkpt lat="31.589219279606496" lon="-6.284712502700884"><ele>2398.0</ele><time>2026-05-04T13:42:26Z</time></trkpt><trkpt lat="31.58913387363011" lon="-6.284672051765521"><ele>2398.0</ele><time>2026-05-04T13:42:27Z</time></trkpt><trkpt lat="31.589053912897008" lon="-6.284648048938542"><ele>2398.0</ele><time>2026-05-04T13:42:28Z</time></trkpt><trkpt lat="31.588945889966734" lon="-6.2845887537665535"><ele>2402.75</ele><time>2026-05-04T13:42:29Z</time></trkpt><trkpt lat="31.588835596818686" lon="-6.284550366277894"><ele>2407.5</ele><time>2026-05-04T13:42:30Z</time></trkpt><trkpt lat="31.58870998091717" lon="-6.284509995455177"><ele>2412.25</ele><time>2026-05-04T13:42:31Z</time></trkpt><trkpt lat="31.588595122125565" lon="-6.284479028060894"><ele>2417.0</ele><time>2026-05-04T13:42:32Z</time></trkpt><trkpt lat="31.588494579564514" lon="-6.284447829521407"><ele>2417.0</ele><time>2026-05-04T13:42:33Z</time></trkpt><trkpt lat="31.588422256912004" lon="-6.284453380233919"><ele>2417.0</ele><time>2026-05-04T13:42:34Z</time></trkpt><trkpt lat="31.588304817756025" lon="-6.284538077361188"><ele>2417.0</ele><time>2026-05-04T13:42:36Z</time></trkpt><trkpt lat="31.588237285592673" lon="-6.284575943628582"><ele>2417.0</ele><time>2026-05-04T13:42:37Z</time></trkpt><trkpt lat="31.58815609277896" lon="-6.2845769072200195"><ele>2417.0</ele><time>2026-05-04T13:42:38Z</time></trkpt><trkpt lat="31.588068394879" lon="-6.2845370780908905"><ele>2417.0</ele><time>2026-05-04T13:42:39Z</time></trkpt><trkpt lat="31.588008013752884" lon="-6.284442824005936"><ele>2417.0</ele><time>2026-05-04T13:42:40Z</time></trkpt><trkpt lat="31.587953847867933" lon="-6.284347188613216"><ele>2417.0</ele><time>2026-05-04T13:42:41Z</time></trkpt><trkpt lat="31.58790206442264" lon="-6.284222789070341"><ele>2417.0</ele><time>2026-05-04T13:42:42Z</time></trkpt><trkpt lat="31.587845067893003" lon="-6.284088608838403"><ele>2417.0</ele><time>2026-05-04T13:42:43Z</time></trkpt><trkpt lat="31.587800403686213" lon="-6.283949545417975"><ele>2415.2</ele><time>2026-05-04T13:42:44Z</time></trkpt><trkpt lat="31.587761555579803" lon="-6.283796420405969"><ele>2413.3999999999996</ele><time>2026-05-04T13:42:45Z</time></trkpt><trkpt lat="31.587733922490198" lon="-6.283663441304897"><ele>2411.6000000000004</ele><time>2026-05-04T13:42:46Z</time></trkpt><trkpt lat="31.587712642237015" lon="-6.283551013715901"><ele>2409.8</ele><time>2026-05-04T13:42:47Z</time></trkpt><trkpt lat="31.587699264958385" lon="-6.283460657311594"><ele>2408.0</ele><time>2026-05-04T13:42:48Z</time></trkpt><trkpt lat="31.58770503363935" lon="-6.283386277402202"><ele>2408.0</ele><time>2026-05-04T13:42:49Z</time></trkpt><trkpt lat="31.587820232165196" lon="-6.283318259969905"><ele>2408.0</ele><time>2026-05-04T13:42:51Z</time></trkpt><trkpt lat="31.587897065310198" lon="-6.28336354899473"><ele>2408.0</ele><time>2026-05-04T13:42:52Z</time></trkpt><trkpt lat="31.58792920878306" lon="-6.283481876769754"><ele>2408.0</ele><time>2026-05-04T13:42:53Z</time></trkpt><trkpt lat="31.587977997367176" lon="-6.283597024530278"><ele>2408.0</ele><time>2026-05-04T13:42:54Z</time></trkpt><trkpt lat="31.588026370578792" lon="-6.283722066175637"><ele>2409.5</ele><time>2026-05-04T13:42:55Z</time></trkpt><trkpt lat="31.588079252171283" lon="-6.283813174886521"><ele>2411.0</ele><time>2026-05-04T13:42:56Z</time></trkpt><trkpt lat="31.588124391422117" lon="-6.283893045204314"><ele>2412.5</ele><time>2026-05-04T13:42:57Z</time></trkpt><trkpt lat="31.588182825518068" lon="-6.283931653158629"><ele>2414.0</ele><time>2026-05-04T13:42:58Z</time></trkpt><trkpt lat="31.588273392808212" lon="-6.283892759095287"><ele>2415.5</ele><time>2026-05-04T13:43:00Z</time></trkpt><trkpt lat="31.588282643598173" lon="-6.28376883966433"><ele>2417.0</ele><time>2026-05-04T13:43:02Z</time></trkpt><trkpt lat="31.5882382714175" lon="-6.283700122263606"><ele>2419.7999999999997</ele><time>2026-05-04T13:43:03Z</time></trkpt><trkpt lat="31.588219369109275" lon="-6.283587916668297"><ele>2422.6</ele><time>2026-05-04T13:43:04Z</time></trkpt><trkpt lat="31.58817964505647" lon="-6.283460878824566"><ele>2425.3999999999996</ele><time>2026-05-04T13:43:05Z</time></trkpt><trkpt lat="31.588160626885447" lon="-6.283327617058103"><ele>2428.2</ele><time>2026-05-04T13:43:06Z</time></trkpt><trkpt lat="31.588169156713917" lon="-6.283197633382243"><ele>2431.0</ele><time>2026-05-04T13:43:07Z</time></trkpt><trkpt lat="31.58818996890705" lon="-6.283083656723911"><ele>2431.0</ele><time>2026-05-04T13:43:08Z</time></trkpt><trkpt lat="31.58827208103764" lon="-6.282983528490594"><ele>2431.0</ele><time>2026-05-04T13:43:09Z</time></trkpt><trkpt lat="31.588403321866817" lon="-6.282929353819251"><ele>2431.0</ele><time>2026-05-04T13:43:10Z</time></trkpt><trkpt lat="31.5884754086386" lon="-6.282833813292456"><ele>2431.0</ele><time>2026-05-04T13:43:11Z</time></trkpt><trkpt lat="31.58845798112614" lon="-6.282689964028332"><ele>2431.0</ele><time>2026-05-04T13:43:12Z</time></trkpt><trkpt lat="31.588472729944687" lon="-6.282525897860731"><ele>2431.0</ele><time>2026-05-04T13:43:13Z</time></trkpt><trkpt lat="31.588508875740317" lon="-6.282378575388684"><ele>2431.0</ele><time>2026-05-04T13:43:14Z</time></trkpt><trkpt lat="31.58854212041097" lon="-6.2822580238201695"><ele>2431.0</ele><time>2026-05-04T13:43:15Z</time></trkpt><trkpt lat="31.58856948221628" lon="-6.282153672272076"><ele>2432.8333333333335</ele><time>2026-05-04T13:43:16Z</time></trkpt><trkpt lat="31.58857280792851" lon="-6.282068284998095"><ele>2434.666666666667</ele><time>2026-05-04T13:43:17Z</time></trkpt><trkpt lat="31.58853983474121" lon="-6.28199505206282"><ele>2436.5</ele><time>2026-05-04T13:43:18Z</time></trkpt><trkpt lat="31.588457568033867" lon="-6.281971131947732"><ele>2438.3333333333335</ele><time>2026-05-04T13:43:19Z</time></trkpt><trkpt lat="31.588385890450322" lon="-6.281980891940278"><ele>2440.1666666666665</ele><time>2026-05-04T13:43:20Z</time></trkpt><trkpt lat="31.588318244006555" lon="-6.281972912376972"><ele>2442.0</ele><time>2026-05-04T13:43:21Z</time></trkpt><trkpt lat="31.588226047353768" lon="-6.281953196029292"><ele>2442.0</ele><time>2026-05-04T13:43:22Z</time></trkpt><trkpt lat="31.58813297493722" lon="-6.28193422395196"><ele>2442.0</ele><time>2026-05-04T13:43:23Z</time></trkpt><trkpt lat="31.588041433317546" lon="-6.28188566541499"><ele>2442.0</ele><time>2026-05-04T13:43:24Z</time></trkpt><trkpt lat="31.58795629879907" lon="-6.28182445642756"><ele>2442.0</ele><time>2026-05-04T13:43:25Z</time></trkpt><trkpt lat="31.587900001020913" lon="-6.281733646455945"><ele>2442.0</ele><time>2026-05-04T13:43:26Z</time></trkpt><trkpt lat="31.587880241206328" lon="-6.281619874264738"><ele>2442.0</ele><time>2026-05-04T13:43:27Z</time></trkpt><trkpt lat="31.587889480242982" lon="-6.281490515823822"><ele>2442.0</ele><time>2026-05-04T13:43:28Z</time></trkpt><trkpt lat="31.587925958981028" lon="-6.281345831638943"><ele>2442.0</ele><time>2026-05-04T13:43:29Z</time></trkpt><trkpt lat="31.587960740648498" lon="-6.28121522076091"><ele>2442.0</ele><time>2026-05-04T13:43:30Z</time></trkpt><trkpt lat="31.58798918560917" lon="-6.281102247962995"><ele>2441.5</ele><time>2026-05-04T13:43:31Z</time></trkpt><trkpt lat="31.588015594803014" lon="-6.281000200326702"><ele>2441.0</ele><time>2026-05-04T13:43:32Z</time></trkpt><trkpt lat="31.588025937651516" lon="-6.280901972414867"><ele>2440.5</ele><time>2026-05-04T13:43:33Z</time></trkpt><trkpt lat="31.588001899151564" lon="-6.28082553029142"><ele>2440.0</ele><time>2026-05-04T13:43:34Z</time></trkpt><trkpt lat="31.587957281504416" lon="-6.28075902804137"><ele>2439.5</ele><time>2026-05-04T13:43:35Z</time></trkpt><trkpt lat="31.587893333865825" lon="-6.280705812619436"><ele>2439.0</ele><time>2026-05-04T13:43:36Z</time></trkpt><trkpt lat="31.587802243003498" lon="-6.2807115525795885"><ele>2440.8</ele><time>2026-05-04T13:43:37Z</time></trkpt><trkpt lat="31.58771419813168" lon="-6.28072440730357"><ele>2442.6000000000004</ele><time>2026-05-04T13:43:38Z</time></trkpt><trkpt lat="31.58761283653506" lon="-6.280719697472652"><ele>2444.4</ele><time>2026-05-04T13:43:39Z</time></trkpt><trkpt lat="31.587540281863888" lon="-6.280716326155319"><ele>2446.2000000000003</ele><time>2026-05-04T13:43:41Z</time></trkpt><trkpt lat="31.587440711663476" lon="-6.280685967720344"><ele>2448.0</ele><time>2026-05-04T13:43:42Z</time></trkpt><trkpt lat="31.58735017703426" lon="-6.2806538224811845"><ele>2448.0</ele><time>2026-05-04T13:43:43Z</time></trkpt><trkpt lat="31.5872601303611" lon="-6.280601192174656"><ele>2448.0</ele><time>2026-05-04T13:43:44Z</time></trkpt><trkpt lat="31.5871777041806" lon="-6.280553741784021"><ele>2448.0</ele><time>2026-05-04T13:43:45Z</time></trkpt><trkpt lat="31.58709180930148" lon="-6.280498933032076"><ele>2448.0</ele><time>2026-05-04T13:43:46Z</time></trkpt><trkpt lat="31.587015339878562" lon="-6.280438556473074"><ele>2448.0</ele><time>2026-05-04T13:43:47Z</time></trkpt><trkpt lat="31.58693649995191" lon="-6.2803763089025"><ele>2450.6</ele><time>2026-05-04T13:43:48Z</time></trkpt><trkpt lat="31.586865824368832" lon="-6.280368236464474"><ele>2453.2000000000003</ele><time>2026-05-04T13:43:49Z</time></trkpt><trkpt lat="31.586802512762787" lon="-6.280351924677193"><ele>2455.8</ele><time>2026-05-04T13:43:50Z</time></trkpt><trkpt lat="31.586752993811242" lon="-6.28043938775554"><ele>2458.4</ele><time>2026-05-04T13:43:52Z</time></trkpt><trkpt lat="31.586671760159177" lon="-6.280599934857536"><ele>2461.0</ele><time>2026-05-04T13:43:54Z</time></trkpt><trkpt lat="31.586634388021537" lon="-6.280726874849572"><ele>2461.0</ele><time>2026-05-04T13:43:55Z</time></trkpt><trkpt lat="31.586588584219378" lon="-6.280866725989187"><ele>2461.0</ele><time>2026-05-04T13:43:56Z</time></trkpt><trkpt lat="31.58652922442278" lon="-6.2810195934030055"><ele>2461.0</ele><time>2026-05-04T13:43:57Z</time></trkpt><trkpt lat="31.586464556581223" lon="-6.281186150627837"><ele>2461.0</ele><time>2026-05-04T13:43:58Z</time></trkpt><trkpt lat="31.586410092504604" lon="-6.281325680697642"><ele>2462.8</ele><time>2026-05-04T13:43:59Z</time></trkpt><trkpt lat="31.58636094472378" lon="-6.281451009782499"><ele>2464.6</ele><time>2026-05-04T13:44:00Z</time></trkpt><trkpt lat="31.586319559951605" lon="-6.2815567007754884"><ele>2466.4</ele><time>2026-05-04T13:44:01Z</time></trkpt><trkpt lat="31.586249616669424" lon="-6.281642654419207"><ele>2468.2</ele><time>2026-05-04T13:44:03Z</time></trkpt><trkpt lat="31.586185654309574" lon="-6.281743462530989"><ele>2470.0</ele><time>2026-05-04T13:44:05Z</time></trkpt><trkpt lat="31.58610102473935" lon="-6.281785574691449"><ele>2470.0</ele><time>2026-05-04T13:44:07Z</time></trkpt><trkpt lat="31.586018418930756" lon="-6.28173959267746"><ele>2470.0</ele><time>2026-05-04T13:44:09Z</time></trkpt><trkpt lat="31.586033233183347" lon="-6.281605202659847"><ele>2470.0</ele><time>2026-05-04T13:44:11Z</time></trkpt><trkpt lat="31.58609506633192" lon="-6.281508457079602"><ele>2470.0</ele><time>2026-05-04T13:44:13Z</time></trkpt><trkpt lat="31.58617495746369" lon="-6.281378241257157"><ele>2470.0</ele><time>2026-05-04T13:44:15Z</time></trkpt><trkpt lat="31.586206022213613" lon="-6.281282417488635"><ele>2467.75</ele><time>2026-05-04T13:44:16Z</time></trkpt><trkpt lat="31.58623876000376" lon="-6.281176853500606"><ele>2465.5</ele><time>2026-05-04T13:44:17Z</time></trkpt><trkpt lat="31.58626930223439" lon="-6.281051695181316"><ele>2463.25</ele><time>2026-05-04T13:44:18Z</time></trkpt><trkpt lat="31.586303036329056" lon="-6.280907679991146"><ele>2461.0</ele><time>2026-05-04T13:44:19Z</time></trkpt><trkpt lat="31.586336182921496" lon="-6.28075938225685"><ele>2466.25</ele><time>2026-05-04T13:44:20Z</time></trkpt><trkpt lat="31.58636908088332" lon="-6.280596658786652"><ele>2471.5</ele><time>2026-05-04T13:44:21Z</time></trkpt><trkpt lat="31.586401015819213" lon="-6.280435821266561"><ele>2476.75</ele><time>2026-05-04T13:44:22Z</time></trkpt><trkpt lat="31.586421306671987" lon="-6.280294918544001"><ele>2482.0</ele><time>2026-05-04T13:44:23Z</time></trkpt><trkpt lat="31.586455080031513" lon="-6.2801627782518015"><ele>2482.0</ele><time>2026-05-04T13:44:24Z</time></trkpt><trkpt lat="31.586486423779494" lon="-6.2800523916096544"><ele>2482.0</ele><time>2026-05-04T13:44:25Z</time></trkpt><trkpt lat="31.586574236508575" lon="-6.279974958383908"><ele>2482.0</ele><time>2026-05-04T13:44:26Z</time></trkpt><trkpt lat="31.586654584820863" lon="-6.27990039741578"><ele>2482.0</ele><time>2026-05-04T13:44:27Z</time></trkpt><trkpt lat="31.586758723191984" lon="-6.2798426870861"><ele>2482.0</ele><time>2026-05-04T13:44:28Z</time></trkpt><trkpt lat="31.586852878890557" lon="-6.2798019796124"><ele>2484.0</ele><time>2026-05-04T13:44:29Z</time></trkpt><trkpt lat="31.58691613863781" lon="-6.279764834520672"><ele>2486.0</ele><time>2026-05-04T13:44:30Z</time></trkpt><trkpt lat="31.586929286333323" lon="-6.279638561608731"><ele>2488.0</ele><time>2026-05-04T13:44:32Z</time></trkpt><trkpt lat="31.58677081300927" lon="-6.279646156242899"><ele>2490.0</ele><time>2026-05-04T13:44:35Z</time></trkpt><trkpt lat="31.586682730196166" lon="-6.279666553064317"><ele>2492.0</ele><time>2026-05-04T13:44:36Z</time></trkpt><trkpt lat="31.586615000948864" lon="-6.279747193330852"><ele>2490.0</ele><time>2026-05-04T13:44:37Z</time></trkpt><trkpt lat="31.58650788366032" lon="-6.279822101797565"><ele>2488.0</ele><time>2026-05-04T13:44:38Z</time></trkpt><trkpt lat="31.586422046170046" lon="-6.279889943977275"><ele>2486.0</ele><time>2026-05-04T13:44:39Z</time></trkpt><trkpt lat="31.586354245827327" lon="-6.279950225327931"><ele>2484.0</ele><time>2026-05-04T13:44:40Z</time></trkpt><trkpt lat="31.58628577553812" lon="-6.280028675199899"><ele>2482.0</ele><time>2026-05-04T13:44:41Z</time></trkpt><trkpt lat="31.586259584269605" lon="-6.2801683979549265"><ele>2482.0</ele><time>2026-05-04T13:44:42Z</time></trkpt><trkpt lat="31.58622424993601" lon="-6.2803216442580565"><ele>2482.0</ele><time>2026-05-04T13:44:43Z</time></trkpt><trkpt lat="31.58617208221948" lon="-6.280480424990263"><ele>2482.0</ele><time>2026-05-04T13:44:44Z</time></trkpt><trkpt lat="31.586102108800286" lon="-6.280644109868146"><ele>2482.0</ele><time>2026-05-04T13:44:45Z</time></trkpt><trkpt lat="31.586052965457267" lon="-6.28079820673578"><ele>2485.0</ele><time>2026-05-04T13:44:46Z</time></trkpt><trkpt lat="31.585986753916767" lon="-6.280919316320774"><ele>2488.0</ele><time>2026-05-04T13:44:47Z</time></trkpt><trkpt lat="31.585943438677614" lon="-6.28102820655434"><ele>2491.0</ele><time>2026-05-04T13:44:48Z</time></trkpt><trkpt lat="31.585905899984354" lon="-6.281113197971973"><ele>2494.0</ele><time>2026-05-04T13:44:49Z</time></trkpt><trkpt lat="31.585868419421505" lon="-6.281174223531907"><ele>2497.0</ele><time>2026-05-04T13:44:50Z</time></trkpt><trkpt lat="31.585771939695213" lon="-6.2812320458041055"><ele>2497.0</ele><time>2026-05-04T13:44:52Z</time></trkpt><trkpt lat="31.58567541787177" lon="-6.281134703357307"><ele>2497.0</ele><time>2026-05-04T13:44:54Z</time></trkpt><trkpt lat="31.585670752981915" lon="-6.2810483402663815"><ele>2497.0</ele><time>2026-05-04T13:44:55Z</time></trkpt><trkpt lat="31.585714050944254" lon="-6.280947897699684"><ele>2497.0</ele><time>2026-05-04T13:44:56Z</time></trkpt><trkpt lat="31.5857513823892" lon="-6.2808351808022715"><ele>2497.0</ele><time>2026-05-04T13:44:57Z</time></trkpt><trkpt lat="31.58579642092517" lon="-6.280705256141101"><ele>2502.0</ele><time>2026-05-04T13:44:58Z</time></trkpt><trkpt lat="31.585836400906224" lon="-6.28055662164157"><ele>2507.0</ele><time>2026-05-04T13:44:59Z</time></trkpt><trkpt lat="31.585876232357652" lon="-6.280413604333312"><ele>2512.0</ele><time>2026-05-04T13:45:00Z</time></trkpt><trkpt lat="31.585891634209048" lon="-6.28027718707834"><ele>2517.0</ele><time>2026-05-04T13:45:01Z</time></trkpt><trkpt lat="31.585918293836432" lon="-6.280120723561924"><ele>2517.0</ele><time>2026-05-04T13:45:02Z</time></trkpt><trkpt lat="31.585947571582306" lon="-6.27995080187754"><ele>2517.0</ele><time>2026-05-04T13:45:03Z</time></trkpt><trkpt lat="31.5859936410735" lon="-6.279788145168596"><ele>2517.0</ele><time>2026-05-04T13:45:04Z</time></trkpt><trkpt lat="31.586019108635323" lon="-6.279632360976384"><ele>2517.0</ele><time>2026-05-04T13:45:05Z</time></trkpt><trkpt lat="31.586055959509633" lon="-6.27949035087493"><ele>2515.7999999999997</ele><time>2026-05-04T13:45:06Z</time></trkpt><trkpt lat="31.586100687543514" lon="-6.27936118065115"><ele>2514.6</ele><time>2026-05-04T13:45:07Z</time></trkpt><trkpt lat="31.586153914598757" lon="-6.279246236165802"><ele>2513.3999999999996</ele><time>2026-05-04T13:45:08Z</time></trkpt><trkpt lat="31.58620381225606" lon="-6.2791379568349415"><ele>2512.2</ele><time>2026-05-04T13:45:09Z</time></trkpt><trkpt lat="31.586197773059176" lon="-6.279015297385758"><ele>2511.0</ele><time>2026-05-04T13:45:10Z</time></trkpt><trkpt lat="31.58617891756461" lon="-6.2788996597504205"><ele>2521.25</ele><time>2026-05-04T13:45:11Z</time></trkpt><trkpt lat="31.586152945282656" lon="-6.278761002887208"><ele>2531.5</ele><time>2026-05-04T13:45:12Z</time></trkpt><trkpt lat="31.58613536265242" lon="-6.278604559058074"><ele>2541.75</ele><time>2026-05-04T13:45:13Z</time></trkpt><trkpt lat="31.58613066664904" lon="-6.278479911552571"><ele>2552.0</ele><time>2026-05-04T13:45:14Z</time></trkpt><trkpt lat="31.586175535293556" lon="-6.278361120331729"><ele>2550.4</ele><time>2026-05-04T13:45:15Z</time></trkpt><trkpt lat="31.586202223254446" lon="-6.278269668179611"><ele>2548.7999999999997</ele><time>2026-05-04T13:45:16Z</time></trkpt><trkpt lat="31.586264109500732" lon="-6.278188900319815"><ele>2547.2</ele><time>2026-05-04T13:45:17Z</time></trkpt><trkpt lat="31.58632503401591" lon="-6.278093777963486"><ele>2545.6</ele><time>2026-05-04T13:45:18Z</time></trkpt><trkpt lat="31.586393491779567" lon="-6.27799976448592"><ele>2544.0</ele><time>2026-05-04T13:45:19Z</time></trkpt><trkpt lat="31.586464763096206" lon="-6.27790524881928"><ele>2544.0</ele><time>2026-05-04T13:45:20Z</time></trkpt><trkpt lat="31.586539148765628" lon="-6.277822383389436"><ele>2544.0</ele><time>2026-05-04T13:45:21Z</time></trkpt><trkpt lat="31.58661721366219" lon="-6.277737492909495"><ele>2544.0</ele><time>2026-05-04T13:45:22Z</time></trkpt><trkpt lat="31.58668619297862" lon="-6.277665293254752"><ele>2544.0</ele><time>2026-05-04T13:45:23Z</time></trkpt><trkpt lat="31.586736199161603" lon="-6.277615202411226"><ele>2544.0</ele><time>2026-05-04T13:45:24Z</time></trkpt><trkpt lat="31.586791698418093" lon="-6.277556507067555"><ele>2544.0</ele><time>2026-05-04T13:45:26Z</time></trkpt><trkpt lat="31.58686385090611" lon="-6.277514636978295"><ele>2544.0</ele><time>2026-05-04T13:46:56Z</time></trkpt><trkpt lat="31.586927586055438" lon="-6.2774880758921565"><ele>2544.0</ele><time>2026-05-04T13:46:57Z</time></trkpt><trkpt lat="31.58700477886816" lon="-6.277438432110761"><ele>2544.0</ele><time>2026-05-04T13:46:58Z</time></trkpt><trkpt lat="31.5870835753301" lon="-6.277381659287381"><ele>2544.0</ele><time>2026-05-04T13:46:59Z</time></trkpt><trkpt lat="31.587169382357608" lon="-6.277324664159868"><ele>2544.0</ele><time>2026-05-04T13:47:00Z</time></trkpt><trkpt lat="31.587263668301787" lon="-6.277267380087287"><ele>2545.6</ele><time>2026-05-04T13:47:01Z</time></trkpt><trkpt lat="31.587362327119585" lon="-6.277209542485238"><ele>2547.2</ele><time>2026-05-04T13:47:02Z</time></trkpt><trkpt lat="31.58745966255197" lon="-6.277154179172193"><ele>2548.7999999999997</ele><time>2026-05-04T13:47:03Z</time></trkpt><trkpt lat="31.587559820131972" lon="-6.277098973534994"><ele>2550.4</ele><time>2026-05-04T13:47:04Z</time></trkpt><trkpt lat="31.587658235382637" lon="-6.2770480888687805"><ele>2552.0</ele><time>2026-05-04T13:47:05Z</time></trkpt><trkpt lat="31.58775194970674" lon="-6.27699762997387"><ele>2552.0</ele><time>2026-05-04T13:47:06Z</time></trkpt><trkpt lat="31.587837676901714" lon="-6.276948396303571"><ele>2552.0</ele><time>2026-05-04T13:47:07Z</time></trkpt><trkpt lat="31.58791181641953" lon="-6.276905678681417"><ele>2552.0</ele><time>2026-05-04T13:47:08Z</time></trkpt><trkpt lat="31.587967487067182" lon="-6.2768569670944805"><ele>2552.0</ele><time>2026-05-04T13:47:09Z</time></trkpt><trkpt lat="31.588002883602428" lon="-6.276795434307474"><ele>2552.0</ele><time>2026-05-04T13:47:10Z</time></trkpt><trkpt lat="31.588126319540713" lon="-6.276781577402024"><ele>2552.0</ele><time>2026-05-04T13:47:11Z</time></trkpt><trkpt lat="31.588018847137736" lon="-6.276636397754496"><ele>2552.0</ele><time>2026-05-04T13:47:12Z</time></trkpt><trkpt lat="31.587989849613184" lon="-6.27653914570792"><ele>2552.0</ele><time>2026-05-04T13:47:13Z</time></trkpt><trkpt lat="31.58794047582606" lon="-6.276431861946091"><ele>2552.0</ele><time>2026-05-04T13:47:14Z</time></trkpt><trkpt lat="31.58786875682552" lon="-6.276323794853515"><ele>2552.0</ele><time>2026-05-04T13:47:15Z</time></trkpt><trkpt lat="31.58779196030291" lon="-6.2762092124529145"><ele>2552.0</ele><time>2026-05-04T13:47:16Z</time></trkpt><trkpt lat="31.587712247549092" lon="-6.276103407538685"><ele>2552.0</ele><time>2026-05-04T13:47:17Z</time></trkpt><trkpt lat="31.587575684861914" lon="-6.276089617287181"><ele>2552.0</ele><time>2026-05-04T13:47:18Z</time></trkpt><trkpt lat="31.58748865585872" lon="-6.275969338466662"><ele>2552.0</ele><time>2026-05-04T13:47:19Z</time></trkpt><trkpt lat="31.587449734720995" lon="-6.275874862129483"><ele>2552.0</ele><time>2026-05-04T13:47:20Z</time></trkpt><trkpt lat="31.587412180456724" lon="-6.275783704634668"><ele>2552.0</ele><time>2026-05-04T13:47:21Z</time></trkpt><trkpt lat="31.587483399735678" lon="-6.2756153992256944"><ele>2550.7999999999997</ele><time>2026-05-04T13:47:22Z</time></trkpt><trkpt lat="31.587583160343126" lon="-6.275528160357315"><ele>2549.6</ele><time>2026-05-04T13:47:23Z</time></trkpt><trkpt lat="31.587633417581117" lon="-6.275432510807369"><ele>2548.3999999999996</ele><time>2026-05-04T13:47:24Z</time></trkpt><trkpt lat="31.587662280081947" lon="-6.2753291702069225"><ele>2547.2</ele><time>2026-05-04T13:47:25Z</time></trkpt><trkpt lat="31.587642421919256" lon="-6.275219122845672"><ele>2546.0</ele><time>2026-05-04T13:47:26Z</time></trkpt><trkpt lat="31.58759202978694" lon="-6.275129122052831"><ele>2546.0</ele><time>2026-05-04T13:47:27Z</time></trkpt><trkpt lat="31.58753239340459" lon="-6.2750659779766345"><ele>2546.0</ele><time>2026-05-04T13:47:28Z</time></trkpt><trkpt lat="31.587456011853302" lon="-6.274967850045304"><ele>2546.0</ele><time>2026-05-04T13:47:29Z</time></trkpt><trkpt lat="31.587321742751808" lon="-6.274898778805644"><ele>2546.0</ele><time>2026-05-04T13:47:30Z</time></trkpt><trkpt lat="31.587250180444716" lon="-6.274776429305832"><ele>2542.75</ele><time>2026-05-04T13:47:31Z</time></trkpt><trkpt lat="31.587173351798356" lon="-6.274647084489497"><ele>2539.5</ele><time>2026-05-04T13:47:32Z</time></trkpt><trkpt lat="31.587089022365237" lon="-6.274503825265967"><ele>2536.25</ele><time>2026-05-04T13:47:33Z</time></trkpt><trkpt lat="31.587020112195024" lon="-6.274338876566416"><ele>2533.0</ele><time>2026-05-04T13:47:34Z</time></trkpt><trkpt lat="31.586964161878903" lon="-6.2742065949359835"><ele>2538.8</ele><time>2026-05-04T13:47:35Z</time></trkpt><trkpt lat="31.586913200208638" lon="-6.274087809535995"><ele>2544.6000000000004</ele><time>2026-05-04T13:47:36Z</time></trkpt><trkpt lat="31.58687042700959" lon="-6.2739874457976255"><ele>2550.3999999999996</ele><time>2026-05-04T13:47:37Z</time></trkpt><trkpt lat="31.586784847033698" lon="-6.273887024820803"><ele>2556.2</ele><time>2026-05-04T13:47:39Z</time></trkpt><trkpt lat="31.586720393519943" lon="-6.273802415639173"><ele>2562.0</ele><time>2026-05-04T13:47:41Z</time></trkpt><trkpt lat="31.58668600882554" lon="-6.273874509295737"><ele>2565.25</ele><time>2026-05-04T13:47:43Z</time></trkpt><trkpt lat="31.586680480089903" lon="-6.274056950011653"><ele>2568.5</ele><time>2026-05-04T13:47:45Z</time></trkpt><trkpt lat="31.586753292865275" lon="-6.274231995602268"><ele>2571.75</ele><time>2026-05-04T13:47:47Z</time></trkpt><trkpt lat="31.586799537370236" lon="-6.274338638503624"><ele>2575.0</ele><time>2026-05-04T13:47:48Z</time></trkpt><trkpt lat="31.586847893271397" lon="-6.2744629933641844"><ele>2575.0</ele><time>2026-05-04T13:47:49Z</time></trkpt><trkpt lat="31.58688686238665" lon="-6.274599896493521"><ele>2575.0</ele><time>2026-05-04T13:47:50Z</time></trkpt><trkpt lat="31.586909467607814" lon="-6.2747433386143765"><ele>2575.0</ele><time>2026-05-04T13:47:51Z</time></trkpt><trkpt lat="31.586926074015956" lon="-6.274901987410744"><ele>2575.0</ele><time>2026-05-04T13:47:52Z</time></trkpt><trkpt lat="31.58693275875056" lon="-6.275075427580162"><ele>2577.2</ele><time>2026-05-04T13:47:53Z</time></trkpt><trkpt lat="31.586927474397655" lon="-6.275223075872661"><ele>2579.4</ele><time>2026-05-04T13:47:54Z</time></trkpt><trkpt lat="31.586922244183235" lon="-6.275347815239592"><ele>2581.6000000000004</ele><time>2026-05-04T13:47:55Z</time></trkpt><trkpt lat="31.586914184853743" lon="-6.275463101688084"><ele>2583.8</ele><time>2026-05-04T13:47:56Z</time></trkpt><trkpt lat="31.586914204766316" lon="-6.275577376824756"><ele>2586.0</ele><time>2026-05-04T13:47:57Z</time></trkpt><trkpt lat="31.58693009048671" lon="-6.275694306372094"><ele>2586.8</ele><time>2026-05-04T13:47:58Z</time></trkpt><trkpt lat="31.586959807259177" lon="-6.275807801059938"><ele>2587.6000000000004</ele><time>2026-05-04T13:47:59Z</time></trkpt><trkpt lat="31.586988617474677" lon="-6.275918894189164"><ele>2588.4</ele><time>2026-05-04T13:48:00Z</time></trkpt><trkpt lat="31.587010437129205" lon="-6.276028048492865"><ele>2589.2</ele><time>2026-05-04T13:48:01Z</time></trkpt><trkpt lat="31.58702711294141" lon="-6.276138488704776"><ele>2590.0</ele><time>2026-05-04T13:48:02Z</time></trkpt><trkpt lat="31.5870436710734" lon="-6.276250477636899"><ele>2589.0</ele><time>2026-05-04T13:48:03Z</time></trkpt><trkpt lat="31.58705775228021" lon="-6.2763497459379005"><ele>2588.0</ele><time>2026-05-04T13:48:04Z</time></trkpt><trkpt lat="31.587059872001596" lon="-6.27643346809337"><ele>2587.0</ele><time>2026-05-04T13:48:05Z</time></trkpt><trkpt lat="31.587018279218558" lon="-6.276558072030955"><ele>2586.0</ele><time>2026-05-04T13:48:07Z</time></trkpt><trkpt lat="31.58697151182586" lon="-6.276619051343775"><ele>2585.0</ele><time>2026-05-04T13:48:08Z</time></trkpt><trkpt lat="31.586906930255108" lon="-6.276642920104659"><ele>2584.0</ele><time>2026-05-04T13:48:09Z</time></trkpt><trkpt lat="31.586828327030073" lon="-6.276627202948357"><ele>2584.0</ele><time>2026-05-04T13:48:10Z</time></trkpt><trkpt lat="31.586754457986874" lon="-6.2765451401300085"><ele>2584.0</ele><time>2026-05-04T13:48:11Z</time></trkpt><trkpt lat="31.586746221666075" lon="-6.276393122045473"><ele>2584.0</ele><time>2026-05-04T13:48:12Z</time></trkpt><trkpt lat="31.586727066337385" lon="-6.276287424096262"><ele>2584.0</ele><time>2026-05-04T13:48:13Z</time></trkpt><trkpt lat="31.586706032588552" lon="-6.276170729306401"><ele>2584.0</ele><time>2026-05-04T13:48:14Z</time></trkpt><trkpt lat="31.586682558907867" lon="-6.27605741756975"><ele>2584.5</ele><time>2026-05-04T13:48:15Z</time></trkpt><trkpt lat="31.586644100385328" lon="-6.275930284045974"><ele>2585.0</ele><time>2026-05-04T13:48:16Z</time></trkpt><trkpt lat="31.58660249145884" lon="-6.275793093636546"><ele>2585.5</ele><time>2026-05-04T13:48:17Z</time></trkpt><trkpt lat="31.58656008722153" lon="-6.275653281069245"><ele>2586.0</ele><time>2026-05-04T13:48:18Z</time></trkpt><trkpt lat="31.586511419292897" lon="-6.275511831562204"><ele>2586.0</ele><time>2026-05-04T13:48:19Z</time></trkpt><trkpt lat="31.586443992800163" lon="-6.2753637400912545"><ele>2586.0</ele><time>2026-05-04T13:48:20Z</time></trkpt><trkpt lat="31.586395365476584" lon="-6.27519474541016"><ele>2586.0</ele><time>2026-05-04T13:48:21Z</time></trkpt><trkpt lat="31.586387724015268" lon="-6.275031512148937"><ele>2586.0</ele><time>2026-05-04T13:48:22Z</time></trkpt><trkpt lat="31.58636436330809" lon="-6.274886053170705"><ele>2583.25</ele><time>2026-05-04T13:48:23Z</time></trkpt><trkpt lat="31.58634655767228" lon="-6.2747469623674546"><ele>2580.5</ele><time>2026-05-04T13:48:24Z</time></trkpt><trkpt lat="31.58630847802295" lon="-6.274614476142279"><ele>2577.75</ele><time>2026-05-04T13:48:25Z</time></trkpt><trkpt lat="31.586211751383207" lon="-6.274512861861926"><ele>2575.0</ele><time>2026-05-04T13:48:26Z</time></trkpt><trkpt lat="31.586122308380617" lon="-6.274394462417558"><ele>2587.0</ele><time>2026-05-04T13:48:27Z</time></trkpt><trkpt lat="31.58602608651356" lon="-6.274261124792424"><ele>2599.0</ele><time>2026-05-04T13:48:28Z</time></trkpt><trkpt lat="31.58593499430943" lon="-6.274109171438903"><ele>2611.0</ele><time>2026-05-04T13:48:29Z</time></trkpt><trkpt lat="31.585853961383666" lon="-6.273949132587917"><ele>2606.3333333333335</ele><time>2026-05-04T13:48:30Z</time></trkpt><trkpt lat="31.585767950189005" lon="-6.2737800960710155"><ele>2601.6666666666665</ele><time>2026-05-04T13:48:31Z</time></trkpt><trkpt lat="31.585677315694742" lon="-6.2736117713098025"><ele>2597.0</ele><time>2026-05-04T13:48:32Z</time></trkpt><trkpt lat="31.58558977421314" lon="-6.273450087037899"><ele>2597.0</ele><time>2026-05-04T13:48:33Z</time></trkpt><trkpt lat="31.585505524574977" lon="-6.273295256470244"><ele>2597.0</ele><time>2026-05-04T13:48:34Z</time></trkpt><trkpt lat="31.585419923390972" lon="-6.273162307085759"><ele>2597.0</ele><time>2026-05-04T13:48:35Z</time></trkpt><trkpt lat="31.585329487869938" lon="-6.273028755877201"><ele>2597.0</ele><time>2026-05-04T13:48:36Z</time></trkpt><trkpt lat="31.585240905318315" lon="-6.272904360014101"><ele>2603.5</ele><time>2026-05-04T13:48:37Z</time></trkpt><trkpt lat="31.585177774919444" lon="-6.272736863613081"><ele>2610.0</ele><time>2026-05-04T13:48:38Z</time></trkpt><trkpt lat="31.58514324168532" lon="-6.272586827476602"><ele>2616.5</ele><time>2026-05-04T13:48:39Z</time></trkpt><trkpt lat="31.58511629227102" lon="-6.272442174759059"><ele>2623.0</ele><time>2026-05-04T13:48:40Z</time></trkpt><trkpt lat="31.58508686384325" lon="-6.272284215803877"><ele>2620.2</ele><time>2026-05-04T13:48:41Z</time></trkpt><trkpt lat="31.585060366558395" lon="-6.272140529450527"><ele>2617.4</ele><time>2026-05-04T13:48:42Z</time></trkpt><trkpt lat="31.58502256066736" lon="-6.272030396836934"><ele>2614.6</ele><time>2026-05-04T13:48:43Z</time></trkpt><trkpt lat="31.584987971675066" lon="-6.27193904035865"><ele>2611.7999999999997</ele><time>2026-05-04T13:48:44Z</time></trkpt><trkpt lat="31.584895784400455" lon="-6.27192027945198"><ele>2609.0</ele><time>2026-05-04T13:48:46Z</time></trkpt><trkpt lat="31.58487014744137" lon="-6.271990354016258"><ele>2609.0</ele><time>2026-05-04T13:48:48Z</time></trkpt><trkpt lat="31.584853425746097" lon="-6.27212175872256"><ele>2609.0</ele><time>2026-05-04T13:48:50Z</time></trkpt><trkpt lat="31.58486312275525" lon="-6.272233451558582"><ele>2609.0</ele><time>2026-05-04T13:48:51Z</time></trkpt><trkpt lat="31.584880046263144" lon="-6.272369295120196"><ele>2609.0</ele><time>2026-05-04T13:48:52Z</time></trkpt><trkpt lat="31.584899822606" lon="-6.272506567211205"><ele>2609.0</ele><time>2026-05-04T13:48:53Z</time></trkpt><trkpt lat="31.584926616769035" lon="-6.272660668283925"><ele>2612.5</ele><time>2026-05-04T13:48:54Z</time></trkpt><trkpt lat="31.584973940893622" lon="-6.272811432000638"><ele>2616.0</ele><time>2026-05-04T13:48:55Z</time></trkpt><trkpt lat="31.585039734134597" lon="-6.272950084706201"><ele>2619.5</ele><time>2026-05-04T13:48:56Z</time></trkpt><trkpt lat="31.585117474924694" lon="-6.273082112391754"><ele>2623.0</ele><time>2026-05-04T13:48:57Z</time></trkpt><trkpt lat="31.58519309557584" lon="-6.2732370157989985"><ele>2628.3333333333335</ele><time>2026-05-04T13:48:58Z</time></trkpt><trkpt lat="31.585257391415528" lon="-6.273401607480422"><ele>2633.6666666666665</ele><time>2026-05-04T13:48:59Z</time></trkpt><trkpt lat="31.58531208485272" lon="-6.273573807605811"><ele>2639.0</ele><time>2026-05-04T13:49:00Z</time></trkpt><trkpt lat="31.585351430460584" lon="-6.2737484302057425"><ele>2632.0</ele><time>2026-05-04T13:49:01Z</time></trkpt><trkpt lat="31.585376191512697" lon="-6.273918530602428"><ele>2625.0</ele><time>2026-05-04T13:49:02Z</time></trkpt><trkpt lat="31.585388414740994" lon="-6.274074664657972"><ele>2618.0</ele><time>2026-05-04T13:49:03Z</time></trkpt><trkpt lat="31.585404945050684" lon="-6.274209634628904"><ele>2611.0</ele><time>2026-05-04T13:49:04Z</time></trkpt><trkpt lat="31.585454615312294" lon="-6.2743387434871085"><ele>2611.0</ele><time>2026-05-04T13:49:05Z</time></trkpt><trkpt lat="31.585522311486795" lon="-6.274449781695962"><ele>2611.0</ele><time>2026-05-04T13:49:06Z</time></trkpt><trkpt lat="31.585577319941866" lon="-6.2745485879802825"><ele>2611.0</ele><time>2026-05-04T13:49:07Z</time></trkpt><trkpt lat="31.585608484684187" lon="-6.274662446731283"><ele>2611.0</ele><time>2026-05-04T13:49:08Z</time></trkpt><trkpt lat="31.585618359879554" lon="-6.274798461598154"><ele>2611.0</ele><time>2026-05-04T13:49:09Z</time></trkpt><trkpt lat="31.58561844906623" lon="-6.274959066578335"><ele>2613.5</ele><time>2026-05-04T13:49:10Z</time></trkpt><trkpt lat="31.585623051267778" lon="-6.2751289875864495"><ele>2616.0</ele><time>2026-05-04T13:49:11Z</time></trkpt><trkpt lat="31.58563749564714" lon="-6.275290148388939"><ele>2618.5</ele><time>2026-05-04T13:49:12Z</time></trkpt><trkpt lat="31.585658066571874" lon="-6.27545809875441"><ele>2621.0</ele><time>2026-05-04T13:49:13Z</time></trkpt><trkpt lat="31.58567887396826" lon="-6.275613724529733"><ele>2623.0</ele><time>2026-05-04T13:49:14Z</time></trkpt><trkpt lat="31.585699240617547" lon="-6.27576517005394"><ele>2625.0</ele><time>2026-05-04T13:49:15Z</time></trkpt><trkpt lat="31.585709695001597" lon="-6.275904943063726"><ele>2627.0</ele><time>2026-05-04T13:49:16Z</time></trkpt><trkpt lat="31.58571382108932" lon="-6.276032518425632"><ele>2629.0</ele><time>2026-05-04T13:49:17Z</time></trkpt><trkpt lat="31.585728877846368" lon="-6.276137856295045"><ele>2629.0</ele><time>2026-05-04T13:49:18Z</time></trkpt><trkpt lat="31.585712192458075" lon="-6.276225512370587"><ele>2629.0</ele><time>2026-05-04T13:49:19Z</time></trkpt><trkpt lat="31.585657747531243" lon="-6.276295443173112"><ele>2629.0</ele><time>2026-05-04T13:49:20Z</time></trkpt><trkpt lat="31.585604061391127" lon="-6.276343631461308"><ele>2629.0</ele><time>2026-05-04T13:49:21Z</time></trkpt><trkpt lat="31.585482304962294" lon="-6.276335696636751"><ele>2629.0</ele><time>2026-05-04T13:49:22Z</time></trkpt><trkpt lat="31.585405468336337" lon="-6.276279083976904"><ele>2629.0</ele><time>2026-05-04T13:49:23Z</time></trkpt><trkpt lat="31.58536749876561" lon="-6.276164045208721"><ele>2629.0</ele><time>2026-05-04T13:49:24Z</time></trkpt><trkpt lat="31.585349143150136" lon="-6.276058780254154"><ele>2629.0</ele><time>2026-05-04T13:49:25Z</time></trkpt><trkpt lat="31.58533375645399" lon="-6.275962734831989"><ele>2629.0</ele><time>2026-05-04T13:49:26Z</time></trkpt><trkpt lat="31.585318435607572" lon="-6.27586876467466"><ele>2629.0</ele><time>2026-05-04T13:49:27Z</time></trkpt><trkpt lat="31.585304548126366" lon="-6.275783586057874"><ele>2629.0</ele><time>2026-05-04T13:49:28Z</time></trkpt><trkpt lat="31.585289552397906" lon="-6.275698044883823"><ele>2629.0</ele><time>2026-05-04T13:49:29Z</time></trkpt><trkpt lat="31.58527002489773" lon="-6.275604169798122"><ele>2635.6</ele><time>2026-05-04T13:49:30Z</time></trkpt><trkpt lat="31.585249769501306" lon="-6.275502742567799"><ele>2642.2</ele><time>2026-05-04T13:49:31Z</time></trkpt><trkpt lat="31.585226631589542" lon="-6.275386881528073"><ele>2648.7999999999997</ele><time>2026-05-04T13:49:32Z</time></trkpt><trkpt lat="31.585201647936955" lon="-6.275261502265564"><ele>2655.3999999999996</ele><time>2026-05-04T13:49:33Z</time></trkpt><trkpt lat="31.585156743125424" lon="-6.275140006991336"><ele>2662.0</ele><time>2026-05-04T13:49:34Z</time></trkpt><trkpt lat="31.585102938239483" lon="-6.275013540126169"><ele>2662.0</ele><time>2026-05-04T13:49:35Z</time></trkpt><trkpt lat="31.585041504269668" lon="-6.274915675203888"><ele>2662.0</ele><time>2026-05-04T13:49:36Z</time></trkpt><trkpt lat="31.584972741106434" lon="-6.274811617932992"><ele>2662.0</ele><time>2026-05-04T13:49:37Z</time></trkpt><trkpt lat="31.58489424205821" lon="-6.274716271852157"><ele>2662.0</ele><time>2026-05-04T13:49:38Z</time></trkpt><trkpt lat="31.58480452767654" lon="-6.274613136258305"><ele>2659.5</ele><time>2026-05-04T13:49:39Z</time></trkpt><trkpt lat="31.58470861382485" lon="-6.2745115804316836"><ele>2657.0</ele><time>2026-05-04T13:49:40Z</time></trkpt><trkpt lat="31.58464276928058" lon="-6.274359478199348"><ele>2654.5</ele><time>2026-05-04T13:49:41Z</time></trkpt><trkpt lat="31.58459220146974" lon="-6.274235952678083"><ele>2652.0</ele><time>2026-05-04T13:49:42Z</time></trkpt><trkpt lat="31.58458729066247" lon="-6.27408905297103"><ele>2652.0</ele><time>2026-05-04T13:49:43Z</time></trkpt><trkpt lat="31.584531258660668" lon="-6.2739830397818235"><ele>2652.0</ele><time>2026-05-04T13:49:44Z</time></trkpt><trkpt lat="31.584474412281693" lon="-6.273876237959635"><ele>2652.0</ele><time>2026-05-04T13:49:45Z</time></trkpt><trkpt lat="31.584338978168336" lon="-6.273841810965234"><ele>2652.0</ele><time>2026-05-04T13:49:46Z</time></trkpt><trkpt lat="31.584260664427855" lon="-6.273729303187041"><ele>2658.25</ele><time>2026-05-04T13:49:47Z</time></trkpt><trkpt lat="31.584175330629535" lon="-6.273607449810542"><ele>2664.5</ele><time>2026-05-04T13:49:48Z</time></trkpt><trkpt lat="31.584087480755244" lon="-6.2734643157766925"><ele>2670.75</ele><time>2026-05-04T13:49:49Z</time></trkpt><trkpt lat="31.584003078152715" lon="-6.273315419649634"><ele>2677.0</ele><time>2026-05-04T13:49:50Z</time></trkpt><trkpt lat="31.583924275711556" lon="-6.273187730115994"><ele>2674.0</ele><time>2026-05-04T13:49:51Z</time></trkpt><trkpt lat="31.583853813326343" lon="-6.273082126190913"><ele>2671.0</ele><time>2026-05-04T13:49:52Z</time></trkpt><trkpt lat="31.58379874610465" lon="-6.27295114945212"><ele>2668.0</ele><time>2026-05-04T13:49:53Z</time></trkpt><trkpt lat="31.58375226304916" lon="-6.272820372567709"><ele>2665.0</ele><time>2026-05-04T13:49:54Z</time></trkpt><trkpt lat="31.583736761819658" lon="-6.272642724335291"><ele>2665.0</ele><time>2026-05-04T13:49:55Z</time></trkpt><trkpt lat="31.58370743509528" lon="-6.272469905546528"><ele>2665.0</ele><time>2026-05-04T13:49:56Z</time></trkpt><trkpt lat="31.58368387277734" lon="-6.272295773629483"><ele>2665.0</ele><time>2026-05-04T13:49:57Z</time></trkpt><trkpt lat="31.583658687077968" lon="-6.272110538884711"><ele>2675.3333333333335</ele><time>2026-05-04T13:49:58Z</time></trkpt><trkpt lat="31.583623866652992" lon="-6.271921382747609"><ele>2685.6666666666665</ele><time>2026-05-04T13:49:59Z</time></trkpt><trkpt lat="31.583576013183215" lon="-6.271749839663281"><ele>2696.0</ele><time>2026-05-04T13:50:00Z</time></trkpt><trkpt lat="31.583520509504986" lon="-6.271587876720026"><ele>2696.0</ele><time>2026-05-04T13:50:01Z</time></trkpt><trkpt lat="31.58344144525818" lon="-6.271448076812395"><ele>2696.0</ele><time>2026-05-04T13:50:02Z</time></trkpt><trkpt lat="31.583346810662206" lon="-6.271327236834001"><ele>2696.0</ele><time>2026-05-04T13:50:03Z</time></trkpt><trkpt lat="31.58324352529396" lon="-6.2711912881715355"><ele>2696.0</ele><time>2026-05-04T13:50:04Z</time></trkpt><trkpt lat="31.58314111147895" lon="-6.27104927836602"><ele>2693.5</ele><time>2026-05-04T13:50:05Z</time></trkpt><trkpt lat="31.583038399532814" lon="-6.270906158238152"><ele>2691.0</ele><time>2026-05-04T13:50:06Z</time></trkpt><trkpt lat="31.58295693241578" lon="-6.270763464207114"><ele>2688.5</ele><time>2026-05-04T13:50:07Z</time></trkpt><trkpt lat="31.582853774014325" lon="-6.270667847374029"><ele>2686.0</ele><time>2026-05-04T13:50:08Z</time></trkpt><trkpt lat="31.58275027430416" lon="-6.27057243379019"><ele>2686.0</ele><time>2026-05-04T13:50:09Z</time></trkpt><trkpt lat="31.582632448292085" lon="-6.27050949356759"><ele>2686.0</ele><time>2026-05-04T13:50:10Z</time></trkpt><trkpt lat="31.58250284318962" lon="-6.270436116302146"><ele>2686.0</ele><time>2026-05-04T13:50:11Z</time></trkpt><trkpt lat="31.582367909848877" lon="-6.270362785888579"><ele>2686.0</ele><time>2026-05-04T13:50:12Z</time></trkpt><trkpt lat="31.58223222402632" lon="-6.270289972074933"><ele>2686.0</ele><time>2026-05-04T13:50:13Z</time></trkpt><trkpt lat="31.58210528702897" lon="-6.270222032090693"><ele>2686.0</ele><time>2026-05-04T13:50:14Z</time></trkpt><trkpt lat="31.581991538106706" lon="-6.270163044756937"><ele>2686.0</ele><time>2026-05-04T13:50:15Z</time></trkpt><trkpt lat="31.581892656862557" lon="-6.270114115267928"><ele>2686.0</ele><time>2026-05-04T13:50:16Z</time></trkpt><trkpt lat="31.58180309038305" lon="-6.270069794961637"><ele>2690.4</ele><time>2026-05-04T13:50:17Z</time></trkpt><trkpt lat="31.581726924973704" lon="-6.27003210611396"><ele>2694.8</ele><time>2026-05-04T13:50:18Z</time></trkpt><trkpt lat="31.581600476552325" lon="-6.270051413961149"><ele>2699.2000000000003</ele><time>2026-05-04T13:50:20Z</time></trkpt><trkpt lat="31.58152431113107" lon="-6.270137857323696"><ele>2703.6000000000004</ele><time>2026-05-04T13:50:22Z</time></trkpt><trkpt lat="31.581505785010943" lon="-6.270220767524266"><ele>2708.0</ele><time>2026-05-04T13:50:23Z</time></trkpt><trkpt lat="31.581526392168136" lon="-6.2703110111042495"><ele>2708.0</ele><time>2026-05-04T13:50:24Z</time></trkpt><trkpt lat="31.581579302551503" lon="-6.270391944301764"><ele>2708.0</ele><time>2026-05-04T13:50:25Z</time></trkpt><trkpt lat="31.581659923536787" lon="-6.270468821545081"><ele>2708.0</ele><time>2026-05-04T13:50:26Z</time></trkpt><trkpt lat="31.581769671975525" lon="-6.270555044801304"><ele>2708.0</ele><time>2026-05-04T13:50:27Z</time></trkpt><trkpt lat="31.58188366588269" lon="-6.270648018899258"><ele>2707.0</ele><time>2026-05-04T13:50:28Z</time></trkpt><trkpt lat="31.582003241117693" lon="-6.270764314138411"><ele>2706.0</ele><time>2026-05-04T13:50:29Z</time></trkpt><trkpt lat="31.5821240699254" lon="-6.2708806823161325"><ele>2705.0</ele><time>2026-05-04T13:50:30Z</time></trkpt><trkpt lat="31.58223172162968" lon="-6.270981148356713"><ele>2704.0</ele><time>2026-05-04T13:50:31Z</time></trkpt><trkpt lat="31.582337052519215" lon="-6.271079506725093"><ele>2704.0</ele><time>2026-05-04T13:50:32Z</time></trkpt><trkpt lat="31.58244470367863" lon="-6.271160945900689"><ele>2704.0</ele><time>2026-05-04T13:50:33Z</time></trkpt><trkpt lat="31.582553116652917" lon="-6.271216237739694"><ele>2704.0</ele><time>2026-05-04T13:50:34Z</time></trkpt><trkpt lat="31.582645597094572" lon="-6.271261219190122"><ele>2704.0</ele><time>2026-05-04T13:50:35Z</time></trkpt><trkpt lat="31.582713519974824" lon="-6.2713077126923835"><ele>2704.0</ele><time>2026-05-04T13:50:36Z</time></trkpt><trkpt lat="31.582755056921883" lon="-6.2713663050233786"><ele>2704.0</ele><time>2026-05-04T13:50:37Z</time></trkpt><trkpt lat="31.582783130841104" lon="-6.271435213436625"><ele>2704.0</ele><time>2026-05-04T13:50:38Z</time></trkpt><trkpt lat="31.58277348016598" lon="-6.271509889188748"><ele>2704.0</ele><time>2026-05-04T13:50:39Z</time></trkpt><trkpt lat="31.58270690044835" lon="-6.271635315984579"><ele>2704.0</ele><time>2026-05-04T13:50:41Z</time></trkpt><trkpt lat="31.582594812231015" lon="-6.271640470265216"><ele>2704.0</ele><time>2026-05-04T13:50:42Z</time></trkpt><trkpt lat="31.5824912121047" lon="-6.271585001922662"><ele>2704.0</ele><time>2026-05-04T13:50:43Z</time></trkpt><trkpt lat="31.58239502822804" lon="-6.271553831814203"><ele>2704.0</ele><time>2026-05-04T13:50:44Z</time></trkpt><trkpt lat="31.582281727411154" lon="-6.271485118140676"><ele>2704.0</ele><time>2026-05-04T13:50:45Z</time></trkpt><trkpt lat="31.58217057268941" lon="-6.27140422376594"><ele>2704.0</ele><time>2026-05-04T13:50:46Z</time></trkpt><trkpt lat="31.582060120300074" lon="-6.2713133959437934"><ele>2708.5</ele><time>2026-05-04T13:50:47Z</time></trkpt><trkpt lat="31.581943301036628" lon="-6.271203914416046"><ele>2713.0</ele><time>2026-05-04T13:50:48Z</time></trkpt><trkpt lat="31.581828560225386" lon="-6.271094541770055"><ele>2717.5</ele><time>2026-05-04T13:50:49Z</time></trkpt><trkpt lat="31.581714975696883" lon="-6.270986015294503"><ele>2722.0</ele><time>2026-05-04T13:50:50Z</time></trkpt><trkpt lat="31.581596559235027" lon="-6.270872536971557"><ele>2722.0</ele><time>2026-05-04T13:50:51Z</time></trkpt><trkpt lat="31.58148308730182" lon="-6.270762844163618"><ele>2722.0</ele><time>2026-05-04T13:50:52Z</time></trkpt><trkpt lat="31.581380098136474" lon="-6.27067778073089"><ele>2722.0</ele><time>2026-05-04T13:50:53Z</time></trkpt><trkpt lat="31.581291098115326" lon="-6.270588593022314"><ele>2722.0</ele><time>2026-05-04T13:50:54Z</time></trkpt><trkpt lat="31.581166357829996" lon="-6.270580485914893"><ele>2721.25</ele><time>2026-05-04T13:50:55Z</time></trkpt><trkpt lat="31.581048408369753" lon="-6.270606854456333"><ele>2720.5</ele><time>2026-05-04T13:50:56Z</time></trkpt><trkpt lat="31.580921140806733" lon="-6.2706439355300265"><ele>2719.75</ele><time>2026-05-04T13:50:57Z</time></trkpt><trkpt lat="31.580783760121534" lon="-6.270683690974069"><ele>2719.0</ele><time>2026-05-04T13:50:58Z</time></trkpt><trkpt lat="31.580641472076" lon="-6.270709840785152"><ele>2723.25</ele><time>2026-05-04T13:50:59Z</time></trkpt><trkpt lat="31.580516166698366" lon="-6.270722019119955"><ele>2727.5</ele><time>2026-05-04T13:51:00Z</time></trkpt><trkpt lat="31.58037811012418" lon="-6.270685372958579"><ele>2731.75</ele><time>2026-05-04T13:51:01Z</time></trkpt><trkpt lat="31.580258232969186" lon="-6.270657034861357"><ele>2736.0</ele><time>2026-05-04T13:51:02Z</time></trkpt><trkpt lat="31.580146101614336" lon="-6.270630527093702"><ele>2733.75</ele><time>2026-05-04T13:51:03Z</time></trkpt><trkpt lat="31.580062094117267" lon="-6.270497837020444"><ele>2731.5</ele><time>2026-05-04T13:51:04Z</time></trkpt><trkpt lat="31.579970829703523" lon="-6.270406119181036"><ele>2729.25</ele><time>2026-05-04T13:51:05Z</time></trkpt><trkpt lat="31.579873032952833" lon="-6.270321397034851"><ele>2727.0</ele><time>2026-05-04T13:51:06Z</time></trkpt><trkpt lat="31.57976313475813" lon="-6.270285719166643"><ele>2727.0</ele><time>2026-05-04T13:51:07Z</time></trkpt><trkpt lat="31.579664689047647" lon="-6.270252224343403"><ele>2727.0</ele><time>2026-05-04T13:51:08Z</time></trkpt><trkpt lat="31.579548621705438" lon="-6.270299604145188"><ele>2727.0</ele><time>2026-05-04T13:51:09Z</time></trkpt><trkpt lat="31.579423946854067" lon="-6.270327526052866"><ele>2727.0</ele><time>2026-05-04T13:51:10Z</time></trkpt><trkpt lat="31.579284694780284" lon="-6.2703603735905595"><ele>2728.25</ele><time>2026-05-04T13:51:11Z</time></trkpt><trkpt lat="31.579157282644886" lon="-6.2703787504592645"><ele>2729.5</ele><time>2026-05-04T13:51:12Z</time></trkpt><trkpt lat="31.57902390830171" lon="-6.270397048340486"><ele>2730.75</ele><time>2026-05-04T13:51:13Z</time></trkpt><trkpt lat="31.5788776410493" lon="-6.270396288928243"><ele>2732.0</ele><time>2026-05-04T13:51:14Z</time></trkpt><trkpt lat="31.578729364171238" lon="-6.270389688607028"><ele>2737.0</ele><time>2026-05-04T13:51:15Z</time></trkpt><trkpt lat="31.578582090334397" lon="-6.27037945263926"><ele>2742.0</ele><time>2026-05-04T13:51:16Z</time></trkpt><trkpt lat="31.57842559445484" lon="-6.270367887622426"><ele>2747.0</ele><time>2026-05-04T13:51:17Z</time></trkpt><trkpt lat="31.57826799853516" lon="-6.270355182706123"><ele>2747.0</ele><time>2026-05-04T13:51:18Z</time></trkpt><trkpt lat="31.57810418858648" lon="-6.270333943984836"><ele>2747.0</ele><time>2026-05-04T13:51:19Z</time></trkpt><trkpt lat="31.577943117697455" lon="-6.270313710923427"><ele>2747.0</ele><time>2026-05-04T13:51:20Z</time></trkpt><trkpt lat="31.577781034973228" lon="-6.270295853923898"><ele>2751.5</ele><time>2026-05-04T13:51:21Z</time></trkpt><trkpt lat="31.57764455467806" lon="-6.270285666199685"><ele>2756.0</ele><time>2026-05-04T13:51:22Z</time></trkpt><trkpt lat="31.5775134591199" lon="-6.270275754398408"><ele>2760.5</ele><time>2026-05-04T13:51:23Z</time></trkpt><trkpt lat="31.577404526665788" lon="-6.27026745932061"><ele>2765.0</ele><time>2026-05-04T13:51:24Z</time></trkpt><trkpt lat="31.577306762479846" lon="-6.270261372238263"><ele>2765.0</ele><time>2026-05-04T13:51:25Z</time></trkpt><trkpt lat="31.577222089052455" lon="-6.270250036601116"><ele>2765.0</ele><time>2026-05-04T13:51:26Z</time></trkpt><trkpt lat="31.577107358427483" lon="-6.270225299114566"><ele>2765.0</ele><time>2026-05-04T13:51:28Z</time></trkpt><trkpt lat="31.577030743013456" lon="-6.270117143898168"><ele>2765.0</ele><time>2026-05-04T13:51:29Z</time></trkpt><trkpt lat="31.577046699513097" lon="-6.2699808535796295"><ele>2765.0</ele><time>2026-05-04T13:51:30Z</time></trkpt><trkpt lat="31.57710031630042" lon="-6.269892299208837"><ele>2765.0</ele><time>2026-05-04T13:51:31Z</time></trkpt><trkpt lat="31.577183530048078" lon="-6.269823347676295"><ele>2765.0</ele><time>2026-05-04T13:51:32Z</time></trkpt><trkpt lat="31.577269461611873" lon="-6.269741692299385"><ele>2765.0</ele><time>2026-05-04T13:51:33Z</time></trkpt><trkpt lat="31.577373894622102" lon="-6.269655337775065"><ele>2765.0</ele><time>2026-05-04T13:51:34Z</time></trkpt><trkpt lat="31.57748546704863" lon="-6.269578186374894"><ele>2766.5</ele><time>2026-05-04T13:51:35Z</time></trkpt><trkpt lat="31.57760828535309" lon="-6.269490023609475"><ele>2768.0</ele><time>2026-05-04T13:51:36Z</time></trkpt><trkpt lat="31.577724682411716" lon="-6.269403341917411"><ele>2769.5</ele><time>2026-05-04T13:51:37Z</time></trkpt><trkpt lat="31.577832067073597" lon="-6.269306664121623"><ele>2771.0</ele><time>2026-05-04T13:51:38Z</time></trkpt><trkpt lat="31.5779267996875" lon="-6.2691858140513075"><ele>2767.75</ele><time>2026-05-04T13:51:39Z</time></trkpt><trkpt lat="31.578008346517528" lon="-6.269045707445576"><ele>2764.5</ele><time>2026-05-04T13:51:40Z</time></trkpt><trkpt lat="31.578071490038525" lon="-6.268906814546918"><ele>2761.25</ele><time>2026-05-04T13:51:41Z</time></trkpt><trkpt lat="31.57809916907867" lon="-6.268760784050121"><ele>2758.0</ele><time>2026-05-04T13:51:42Z</time></trkpt><trkpt lat="31.578114580580447" lon="-6.268628859369455"><ele>2758.0</ele><time>2026-05-04T13:51:43Z</time></trkpt><trkpt lat="31.578144155070305" lon="-6.268498086876968"><ele>2758.0</ele><time>2026-05-04T13:51:44Z</time></trkpt><trkpt lat="31.578110776856843" lon="-6.268382044475542"><ele>2758.0</ele><time>2026-05-04T13:51:45Z</time></trkpt><trkpt lat="31.578098253705697" lon="-6.268292974395713"><ele>2758.0</ele><time>2026-05-04T13:51:46Z</time></trkpt><trkpt lat="31.578027618778346" lon="-6.268245392593261"><ele>2758.0</ele><time>2026-05-04T13:51:47Z</time></trkpt><trkpt lat="31.577952796049786" lon="-6.268199337689036"><ele>2758.0</ele><time>2026-05-04T13:51:48Z</time></trkpt><trkpt lat="31.577872391276554" lon="-6.268126172916132"><ele>2758.0</ele><time>2026-05-04T13:51:49Z</time></trkpt><trkpt lat="31.577782975173697" lon="-6.268026107755617"><ele>2758.0</ele><time>2026-05-04T13:51:50Z</time></trkpt><trkpt lat="31.577692264596234" lon="-6.267912552221506"><ele>2758.0</ele><time>2026-05-04T13:51:51Z</time></trkpt><trkpt lat="31.577613000126643" lon="-6.267758240534238"><ele>2763.3333333333335</ele><time>2026-05-04T13:51:52Z</time></trkpt><trkpt lat="31.57753647428272" lon="-6.267591146129987"><ele>2768.6666666666665</ele><time>2026-05-04T13:51:53Z</time></trkpt><trkpt lat="31.5774450228385" lon="-6.26743240282197"><ele>2774.0</ele><time>2026-05-04T13:51:54Z</time></trkpt><trkpt lat="31.577356458814297" lon="-6.2672998067798975"><ele>2772.0</ele><time>2026-05-04T13:51:55Z</time></trkpt><trkpt lat="31.577285528562758" lon="-6.267189085574416"><ele>2770.0</ele><time>2026-05-04T13:51:56Z</time></trkpt><trkpt lat="31.57721262311772" lon="-6.267082872632785"><ele>2768.0</ele><time>2026-05-04T13:51:57Z</time></trkpt><trkpt lat="31.57713526115373" lon="-6.266983512186302"><ele>2766.0</ele><time>2026-05-04T13:51:58Z</time></trkpt><trkpt lat="31.5770476743469" lon="-6.266884688585863"><ele>2770.75</ele><time>2026-05-04T13:51:59Z</time></trkpt><trkpt lat="31.576953290425248" lon="-6.266778443867994"><ele>2775.5</ele><time>2026-05-04T13:52:00Z</time></trkpt><trkpt lat="31.57685663859296" lon="-6.266674878181942"><ele>2780.25</ele><time>2026-05-04T13:52:01Z</time></trkpt><trkpt lat="31.576741064070816" lon="-6.266573207886038"><ele>2785.0</ele><time>2026-05-04T13:52:02Z</time></trkpt><trkpt lat="31.57661660737638" lon="-6.266464217996852"><ele>2782.5</ele><time>2026-05-04T13:52:03Z</time></trkpt><trkpt lat="31.576495601058184" lon="-6.266362648175979"><ele>2780.0</ele><time>2026-05-04T13:52:04Z</time></trkpt><trkpt lat="31.576390900212495" lon="-6.26627951514783"><ele>2777.5</ele><time>2026-05-04T13:52:05Z</time></trkpt><trkpt lat="31.576312613018054" lon="-6.26619976780435"><ele>2775.0</ele><time>2026-05-04T13:52:06Z</time></trkpt><trkpt lat="31.576224748729526" lon="-6.266173837740033"><ele>2776.8</ele><time>2026-05-04T13:52:07Z</time></trkpt><trkpt lat="31.57613724929047" lon="-6.266170141740025"><ele>2778.6</ele><time>2026-05-04T13:52:08Z</time></trkpt><trkpt lat="31.576043273436436" lon="-6.266178717225926"><ele>2780.3999999999996</ele><time>2026-05-04T13:52:09Z</time></trkpt><trkpt lat="31.57596832407925" lon="-6.266196331802246"><ele>2782.2</ele><time>2026-05-04T13:52:10Z</time></trkpt><trkpt lat="31.575877817036538" lon="-6.266222024058792"><ele>2784.0</ele><time>2026-05-04T13:52:11Z</time></trkpt><trkpt lat="31.575782212437176" lon="-6.266258091225271"><ele>2784.0</ele><time>2026-05-04T13:52:12Z</time></trkpt><trkpt lat="31.575678162794564" lon="-6.266293196132857"><ele>2784.0</ele><time>2026-05-04T13:52:13Z</time></trkpt><trkpt lat="31.575582728566093" lon="-6.26632465523979"><ele>2784.0</ele><time>2026-05-04T13:52:14Z</time></trkpt><trkpt lat="31.575499162826528" lon="-6.2663521430269284"><ele>2784.0</ele><time>2026-05-04T13:52:15Z</time></trkpt><trkpt lat="31.575421811913277" lon="-6.266397249525804"><ele>2784.0</ele><time>2026-05-04T13:52:16Z</time></trkpt><trkpt lat="31.57532591982236" lon="-6.266387550062002"><ele>2785.75</ele><time>2026-05-04T13:52:17Z</time></trkpt><trkpt lat="31.575217641229287" lon="-6.26638249612385"><ele>2787.5</ele><time>2026-05-04T13:52:18Z</time></trkpt><trkpt lat="31.57510123983715" lon="-6.266291148876134"><ele>2789.25</ele><time>2026-05-04T13:52:19Z</time></trkpt><trkpt lat="31.574977701849466" lon="-6.266221959507176"><ele>2791.0</ele><time>2026-05-04T13:52:20Z</time></trkpt><trkpt lat="31.57483664380654" lon="-6.266163805532337"><ele>2791.0</ele><time>2026-05-04T13:52:21Z</time></trkpt><trkpt lat="31.57472235870133" lon="-6.26610236730269"><ele>2791.0</ele><time>2026-05-04T13:52:22Z</time></trkpt><trkpt lat="31.574609033394456" lon="-6.266041380519518"><ele>2791.0</ele><time>2026-05-04T13:52:23Z</time></trkpt><trkpt lat="31.574497820736468" lon="-6.265988416879742"><ele>2791.0</ele><time>2026-05-04T13:52:24Z</time></trkpt><trkpt lat="31.574381760851917" lon="-6.265936918396011"><ele>2792.0</ele><time>2026-05-04T13:52:25Z</time></trkpt><trkpt lat="31.574263809610574" lon="-6.265884579794967"><ele>2793.0</ele><time>2026-05-04T13:52:26Z</time></trkpt><trkpt lat="31.57414303976671" lon="-6.265833120951653"><ele>2794.0</ele><time>2026-05-04T13:52:27Z</time></trkpt><trkpt lat="31.57402112352028" lon="-6.265781073050601"><ele>2795.0</ele><time>2026-05-04T13:52:28Z</time></trkpt><trkpt lat="31.573897523988805" lon="-6.2657283065233305"><ele>2795.0</ele><time>2026-05-04T13:52:29Z</time></trkpt><trkpt lat="31.573769442769958" lon="-6.265673626712078"><ele>2795.0</ele><time>2026-05-04T13:52:30Z</time></trkpt><trkpt lat="31.57364587120072" lon="-6.265621038427288"><ele>2795.0</ele><time>2026-05-04T13:52:31Z</time></trkpt><trkpt lat="31.573525663374614" lon="-6.265570532113669"><ele>2795.0</ele><time>2026-05-04T13:52:32Z</time></trkpt><trkpt lat="31.573401845718134" lon="-6.265517752724953"><ele>2795.75</ele><time>2026-05-04T13:52:33Z</time></trkpt><trkpt lat="31.573287446357337" lon="-6.265468969989031"><ele>2796.5</ele><time>2026-05-04T13:52:34Z</time></trkpt><trkpt lat="31.573181628199947" lon="-6.265423801598519"><ele>2797.25</ele><time>2026-05-04T13:52:35Z</time></trkpt><trkpt lat="31.573082284095822" lon="-6.265381386990502"><ele>2798.0</ele><time>2026-05-04T13:52:36Z</time></trkpt><trkpt lat="31.572980197070173" lon="-6.265320007811033"><ele>2798.0</ele><time>2026-05-04T13:52:37Z</time></trkpt><trkpt lat="31.5728758738964" lon="-6.265258020106592"><ele>2798.0</ele><time>2026-05-04T13:52:38Z</time></trkpt><trkpt lat="31.572768256378946" lon="-6.265177521315825"><ele>2798.0</ele><time>2026-05-04T13:52:39Z</time></trkpt><trkpt lat="31.572670812885416" lon="-6.26509173296197"><ele>2798.0</ele><time>2026-05-04T13:52:40Z</time></trkpt><trkpt lat="31.572585908750238" lon="-6.2650169998683625"><ele>2797.4</ele><time>2026-05-04T13:52:41Z</time></trkpt><trkpt lat="31.572506770104987" lon="-6.264929598007132"><ele>2796.8</ele><time>2026-05-04T13:52:42Z</time></trkpt><trkpt lat="31.57243231084413" lon="-6.264851645262154"><ele>2796.2</ele><time>2026-05-04T13:52:43Z</time></trkpt><trkpt lat="31.572370290996595" lon="-6.264762570712773"><ele>2795.6</ele><time>2026-05-04T13:52:44Z</time></trkpt><trkpt lat="31.572293663218456" lon="-6.264686833606052"><ele>2795.0</ele><time>2026-05-04T13:52:45Z</time></trkpt><trkpt lat="31.572209327382716" lon="-6.2646181396835985"><ele>2795.0</ele><time>2026-05-04T13:52:46Z</time></trkpt><trkpt lat="31.572166660937796" lon="-6.2645175443967265"><ele>2795.0</ele><time>2026-05-04T13:52:47Z</time></trkpt><trkpt lat="31.572119278581958" lon="-6.264427254636561"><ele>2795.0</ele><time>2026-05-04T13:52:48Z</time></trkpt><trkpt lat="31.572075641007924" lon="-6.264332871160603"><ele>2795.0</ele><time>2026-05-04T13:52:49Z</time></trkpt><trkpt lat="31.57204216415008" lon="-6.264214956798657"><ele>2795.0</ele><time>2026-05-04T13:52:50Z</time></trkpt><trkpt lat="31.572015328221838" lon="-6.264082295839914"><ele>2789.4</ele><time>2026-05-04T13:52:51Z</time></trkpt><trkpt lat="31.571996216278915" lon="-6.263960249209629"><ele>2783.8</ele><time>2026-05-04T13:52:52Z</time></trkpt><trkpt lat="31.571978555903655" lon="-6.263832327212188"><ele>2778.2</ele><time>2026-05-04T13:52:53Z</time></trkpt><trkpt lat="31.571965793029694" lon="-6.26370651977619"><ele>2772.6</ele><time>2026-05-04T13:52:54Z</time></trkpt><trkpt lat="31.571955087577518" lon="-6.2635698146622545"><ele>2767.0</ele><time>2026-05-04T13:52:55Z</time></trkpt><trkpt lat="31.571953517696414" lon="-6.263440638450647"><ele>2765.3999999999996</ele><time>2026-05-04T13:52:56Z</time></trkpt><trkpt lat="31.571960641627694" lon="-6.263315316863956"><ele>2763.7999999999997</ele><time>2026-05-04T13:52:57Z</time></trkpt><trkpt lat="31.571974756160092" lon="-6.2631987443040025"><ele>2762.2</ele><time>2026-05-04T13:52:58Z</time></trkpt><trkpt lat="31.571993125795167" lon="-6.263091206645357"><ele>2760.6</ele><time>2026-05-04T13:52:59Z</time></trkpt><trkpt lat="31.57201040846531" lon="-6.26298377899101"><ele>2759.0</ele><time>2026-05-04T13:53:00Z</time></trkpt><trkpt lat="31.57202980053432" lon="-6.262882821156063"><ele>2758.0</ele><time>2026-05-04T13:53:01Z</time></trkpt><trkpt lat="31.572049880634378" lon="-6.262791992490295"><ele>2757.0</ele><time>2026-05-04T13:53:02Z</time></trkpt><trkpt lat="31.572044428780504" lon="-6.262711710646924"><ele>2756.0</ele><time>2026-05-04T13:53:03Z</time></trkpt><trkpt lat="31.572075112195435" lon="-6.262595866990223"><ele>2755.0</ele><time>2026-05-04T13:53:05Z</time></trkpt><trkpt lat="31.57201126878067" lon="-6.2625314038861895"><ele>2754.0</ele><time>2026-05-04T13:53:07Z</time></trkpt><trkpt lat="31.571925791559774" lon="-6.262573460057703"><ele>2753.0</ele><time>2026-05-04T13:53:09Z</time></trkpt><trkpt lat="31.571927254135105" lon="-6.262656457909655"><ele>2753.0</ele><time>2026-05-04T13:53:10Z</time></trkpt><trkpt lat="31.571888788706367" lon="-6.2627385698654905"><ele>2753.0</ele><time>2026-05-04T13:53:11Z</time></trkpt><trkpt lat="31.57184757037259" lon="-6.262826558375716"><ele>2753.0</ele><time>2026-05-04T13:53:12Z</time></trkpt><trkpt lat="31.57180858976478" lon="-6.262909770034033"><ele>2753.0</ele><time>2026-05-04T13:53:13Z</time></trkpt><trkpt lat="31.57176966537599" lon="-6.262995374962922"><ele>2753.0</ele><time>2026-05-04T13:53:14Z</time></trkpt><trkpt lat="31.571733543615895" lon="-6.263082811718771"><ele>2753.0</ele><time>2026-05-04T13:53:15Z</time></trkpt><trkpt lat="31.571696505117643" lon="-6.263173678586549"><ele>2754.2</ele><time>2026-05-04T13:53:16Z</time></trkpt><trkpt lat="31.571660623896857" lon="-6.263261472854932"><ele>2755.4</ele><time>2026-05-04T13:53:17Z</time></trkpt><trkpt lat="31.571625510614187" lon="-6.263347310995521"><ele>2756.6</ele><time>2026-05-04T13:53:18Z</time></trkpt><trkpt lat="31.5715994499388" lon="-6.263423372733826"><ele>2757.7999999999997</ele><time>2026-05-04T13:53:19Z</time></trkpt><trkpt lat="31.571566578076496" lon="-6.263533035139355"><ele>2759.0</ele><time>2026-05-04T13:53:21Z</time></trkpt><trkpt lat="31.571437935543994" lon="-6.2635252073176995"><ele>2759.0</ele><time>2026-05-04T13:53:24Z</time></trkpt><trkpt lat="31.571418838002284" lon="-6.263419223766879"><ele>2759.0</ele><time>2026-05-04T13:53:26Z</time></trkpt><trkpt lat="31.571434658578042" lon="-6.26331296374898"><ele>2759.0</ele><time>2026-05-04T13:53:28Z</time></trkpt><trkpt lat="31.57143933242466" lon="-6.263230829985013"><ele>2759.0</ele><time>2026-05-04T13:53:30Z</time></trkpt><trkpt lat="31.571447192429453" lon="-6.263108008214838"><ele>2759.0</ele><time>2026-05-04T13:53:38Z</time></trkpt><trkpt lat="31.571449148756564" lon="-6.263027687473005"><ele>2759.0</ele><time>2026-05-04T13:53:39Z</time></trkpt><trkpt lat="31.5714567035527" lon="-6.262929174390623"><ele>2757.7999999999997</ele><time>2026-05-04T13:53:40Z</time></trkpt><trkpt lat="31.571463770882843" lon="-6.262818477737021"><ele>2756.6</ele><time>2026-05-04T13:53:41Z</time></trkpt><trkpt lat="31.57147178386759" lon="-6.2626989916891675"><ele>2755.4</ele><time>2026-05-04T13:53:42Z</time></trkpt><trkpt lat="31.571485280351876" lon="-6.2625848633416945"><ele>2754.2</ele><time>2026-05-04T13:53:43Z</time></trkpt><trkpt lat="31.571482576534933" lon="-6.262479618601133"><ele>2753.0</ele><time>2026-05-04T13:53:44Z</time></trkpt><trkpt lat="31.571512707574122" lon="-6.262376922578609"><ele>2752.8</ele><time>2026-05-04T13:53:45Z</time></trkpt><trkpt lat="31.57152929813821" lon="-6.262272685934444"><ele>2752.6000000000004</ele><time>2026-05-04T13:53:46Z</time></trkpt><trkpt lat="31.57153321194198" lon="-6.2621530806912755"><ele>2752.3999999999996</ele><time>2026-05-04T13:53:47Z</time></trkpt><trkpt lat="31.57158662828886" lon="-6.262065551904406"><ele>2752.2</ele><time>2026-05-04T13:53:48Z</time></trkpt><trkpt lat="31.571623230160032" lon="-6.261972487532424"><ele>2752.0</ele><time>2026-05-04T13:53:49Z</time></trkpt><trkpt lat="31.571663725443493" lon="-6.261894047028349"><ele>2752.0</ele><time>2026-05-04T13:53:50Z</time></trkpt><trkpt lat="31.571702926908348" lon="-6.261761299939023"><ele>2752.0</ele><time>2026-05-04T13:53:52Z</time></trkpt><trkpt lat="31.571694579042234" lon="-6.261655788561852"><ele>2752.0</ele><time>2026-05-04T13:53:54Z</time></trkpt><trkpt lat="31.57149526882835" lon="-6.2617752394436135"><ele>2752.0</ele><time>2026-05-04T13:53:57Z</time></trkpt><trkpt lat="31.57143242868517" lon="-6.261833196495614"><ele>2752.0</ele><time>2026-05-04T13:53:58Z</time></trkpt><trkpt lat="31.57135246055309" lon="-6.2618917629144635"><ele>2752.0</ele><time>2026-05-04T13:53:59Z</time></trkpt><trkpt lat="31.571252186573755" lon="-6.261964923451039"><ele>2752.0</ele><time>2026-05-04T13:54:00Z</time></trkpt><trkpt lat="31.571153763573577" lon="-6.262036227005922"><ele>2752.0</ele><time>2026-05-04T13:54:01Z</time></trkpt><trkpt lat="31.57104580606645" lon="-6.262114833508061"><ele>2753.2</ele><time>2026-05-04T13:54:02Z</time></trkpt><trkpt lat="31.57095257681589" lon="-6.262183076103631"><ele>2754.3999999999996</ele><time>2026-05-04T13:54:03Z</time></trkpt><trkpt lat="31.570866764196197" lon="-6.2622458340199705"><ele>2755.6000000000004</ele><time>2026-05-04T13:54:04Z</time></trkpt><trkpt lat="31.570783712626177" lon="-6.262306647357684"><ele>2756.8</ele><time>2026-05-04T13:54:05Z</time></trkpt><trkpt lat="31.570717153088605" lon="-6.262354701125077"><ele>2758.0</ele><time>2026-05-04T13:54:06Z</time></trkpt><trkpt lat="31.57063722893363" lon="-6.262412598627084"><ele>2752.2</ele><time>2026-05-04T13:54:07Z</time></trkpt><trkpt lat="31.5705393304793" lon="-6.262462840664185"><ele>2746.4</ele><time>2026-05-04T13:54:08Z</time></trkpt><trkpt lat="31.570439422781245" lon="-6.262510333425284"><ele>2740.6</ele><time>2026-05-04T13:54:09Z</time></trkpt><trkpt lat="31.57032862883865" lon="-6.262531323830771"><ele>2734.7999999999997</ele><time>2026-05-04T13:54:10Z</time></trkpt><trkpt lat="31.570224105569903" lon="-6.262571962626735"><ele>2729.0</ele><time>2026-05-04T13:54:11Z</time></trkpt><trkpt lat="31.57012055072701" lon="-6.262602831181348"><ele>2728.3999999999996</ele><time>2026-05-04T13:54:12Z</time></trkpt><trkpt lat="31.570016068241806" lon="-6.26262363624284"><ele>2727.8</ele><time>2026-05-04T13:54:13Z</time></trkpt><trkpt lat="31.56991340037393" lon="-6.262642362637295"><ele>2727.2</ele><time>2026-05-04T13:54:14Z</time></trkpt><trkpt lat="31.569812314616666" lon="-6.262675405064807"><ele>2726.6000000000004</ele><time>2026-05-04T13:54:15Z</time></trkpt><trkpt lat="31.56970532883232" lon="-6.262663376064752"><ele>2726.0</ele><time>2026-05-04T13:54:16Z</time></trkpt><trkpt lat="31.569602710066015" lon="-6.262666518687008"><ele>2724.4</ele><time>2026-05-04T13:54:17Z</time></trkpt><trkpt lat="31.56949537693198" lon="-6.262657929952674"><ele>2722.8</ele><time>2026-05-04T13:54:18Z</time></trkpt><trkpt lat="31.569385925894437" lon="-6.262657323029722"><ele>2721.2000000000003</ele><time>2026-05-04T13:54:19Z</time></trkpt><trkpt lat="31.569276751415305" lon="-6.262622274089008"><ele>2719.6000000000004</ele><time>2026-05-04T13:54:20Z</time></trkpt><trkpt lat="31.569170390027406" lon="-6.26259182415553"><ele>2718.0</ele><time>2026-05-04T13:54:21Z</time></trkpt><trkpt lat="31.56906290042181" lon="-6.26256467626959"><ele>2718.0</ele><time>2026-05-04T13:54:22Z</time></trkpt><trkpt lat="31.568953582656615" lon="-6.262538810130421"><ele>2718.0</ele><time>2026-05-04T13:54:23Z</time></trkpt><trkpt lat="31.56884162406925" lon="-6.262512319131063"><ele>2718.0</ele><time>2026-05-04T13:54:24Z</time></trkpt><trkpt lat="31.56872803472609" lon="-6.262485240165944"><ele>2718.0</ele><time>2026-05-04T13:54:25Z</time></trkpt><trkpt lat="31.56861207057604" lon="-6.2624571695889495"><ele>2714.2</ele><time>2026-05-04T13:54:26Z</time></trkpt><trkpt lat="31.568498473930692" lon="-6.262424432002844"><ele>2710.4</ele><time>2026-05-04T13:54:27Z</time></trkpt><trkpt lat="31.568395357861412" lon="-6.262379199523608"><ele>2706.6</ele><time>2026-05-04T13:54:28Z</time></trkpt><trkpt lat="31.56830459182603" lon="-6.262339179505401"><ele>2702.7999999999997</ele><time>2026-05-04T13:54:29Z</time></trkpt><trkpt lat="31.56821884439757" lon="-6.262301745541594"><ele>2699.0</ele><time>2026-05-04T13:54:30Z</time></trkpt><trkpt lat="31.568136204722204" lon="-6.262268355209921"><ele>2696.2</ele><time>2026-05-04T13:54:31Z</time></trkpt><trkpt lat="31.568045561634396" lon="-6.262235778768889"><ele>2693.3999999999996</ele><time>2026-05-04T13:54:32Z</time></trkpt><trkpt lat="31.56795631654978" lon="-6.262237857007995"><ele>2690.6</ele><time>2026-05-04T13:54:33Z</time></trkpt><trkpt lat="31.56785450004285" lon="-6.262261272024487"><ele>2687.8</ele><time>2026-05-04T13:54:34Z</time></trkpt><trkpt lat="31.567737278184687" lon="-6.262279780948378"><ele>2685.0</ele><time>2026-05-04T13:54:35Z</time></trkpt><trkpt lat="31.5676190528541" lon="-6.262298852600649"><ele>2685.0</ele><time>2026-05-04T13:54:36.001Z</time></trkpt><trkpt lat="31.567500023432867" lon="-6.262300717120675"><ele>2685.0</ele><time>2026-05-04T13:54:37Z</time></trkpt><trkpt lat="31.56738972876565" lon="-6.262303464837613"><ele>2685.0</ele><time>2026-05-04T13:54:38Z</time></trkpt><trkpt lat="31.567280909501406" lon="-6.262306175799698"><ele>2685.0</ele><time>2026-05-04T13:54:39.001Z</time></trkpt><trkpt lat="31.56717250423052" lon="-6.262308876449561"><ele>2685.0</ele><time>2026-05-04T13:54:40Z</time></trkpt><trkpt lat="31.56706208686937" lon="-6.262304366716064"><ele>2683.4</ele><time>2026-05-04T13:54:41Z</time></trkpt><trkpt lat="31.566958183506586" lon="-6.262296596053435"><ele>2681.8</ele><time>2026-05-04T13:54:42Z</time></trkpt><trkpt lat="31.56685302644738" lon="-6.262289299716635"><ele>2680.2</ele><time>2026-05-04T13:54:43Z</time></trkpt><trkpt lat="31.566753080727015" lon="-6.262282010323326"><ele>2678.6</ele><time>2026-05-04T13:54:44Z</time></trkpt><trkpt lat="31.566656555987485" lon="-6.262273853874784"><ele>2677.0</ele><time>2026-05-04T13:54:45Z</time></trkpt><trkpt lat="31.56656717717674" lon="-6.262267705685883"><ele>2677.0</ele><time>2026-05-04T13:54:46Z</time></trkpt><trkpt lat="31.566484088402667" lon="-6.262261990176833"><ele>2677.0</ele><time>2026-05-04T13:54:47Z</time></trkpt><trkpt lat="31.566413979556618" lon="-6.262257842523935"><ele>2677.0</ele><time>2026-05-04T13:54:48Z</time></trkpt><trkpt lat="31.566324602603807" lon="-6.262260270983773"><ele>2677.0</ele><time>2026-05-04T13:54:50Z</time></trkpt><trkpt lat="31.566359278497117" lon="-6.262346990264746"><ele>2677.0</ele><time>2026-05-04T13:54:53Z</time></trkpt><trkpt lat="31.56648337564357" lon="-6.262364029588162"><ele>2677.0</ele><time>2026-05-04T13:54:55Z</time></trkpt><trkpt lat="31.566563730568237" lon="-6.262379959188182"><ele>2677.0</ele><time>2026-05-04T13:54:56Z</time></trkpt><trkpt lat="31.56665261106442" lon="-6.262399728219644"><ele>2677.0</ele><time>2026-05-04T13:54:57Z</time></trkpt><trkpt lat="31.56673872296603" lon="-6.262420912424981"><ele>2677.0</ele><time>2026-05-04T13:54:58Z</time></trkpt><trkpt lat="31.566823462924077" lon="-6.262447072255596"><ele>2677.0</ele><time>2026-05-04T13:54:59Z</time></trkpt><trkpt lat="31.566902141918337" lon="-6.262476455550865"><ele>2677.0</ele><time>2026-05-04T13:55:00Z</time></trkpt><trkpt lat="31.566980874286067" lon="-6.262505340049926"><ele>2677.0</ele><time>2026-05-04T13:55:01Z</time></trkpt><trkpt lat="31.56705568768336" lon="-6.262534547428297"><ele>2678.142857142857</ele><time>2026-05-04T13:55:02Z</time></trkpt><trkpt lat="31.567126410969266" lon="-6.26256397419004"><ele>2679.2857142857147</ele><time>2026-05-04T13:55:03Z</time></trkpt><trkpt lat="31.567190485817054" lon="-6.262597159531566"><ele>2680.4285714285716</ele><time>2026-05-04T13:55:04Z</time></trkpt><trkpt lat="31.56726195896312" lon="-6.262618175090249"><ele>2681.5714285714284</ele><time>2026-05-04T13:55:05Z</time></trkpt><trkpt lat="31.56733040553829" lon="-6.262646477933296"><ele>2682.7142857142853</ele><time>2026-05-04T13:55:06Z</time></trkpt><trkpt lat="31.567398763154667" lon="-6.26267234045755"><ele>2683.857142857143</ele><time>2026-05-04T13:55:07Z</time></trkpt><trkpt lat="31.567474071780865" lon="-6.262697921996303"><ele>2685.0</ele><time>2026-05-04T13:55:08Z</time></trkpt><trkpt lat="31.567547394500917" lon="-6.262725277270378"><ele>2685.0</ele><time>2026-05-04T13:55:09Z</time></trkpt><trkpt lat="31.567621003793274" lon="-6.262750904561017"><ele>2685.0</ele><time>2026-05-04T13:55:10Z</time></trkpt><trkpt lat="31.567691562160814" lon="-6.26276977458315"><ele>2685.0</ele><time>2026-05-04T13:55:11Z</time></trkpt><trkpt lat="31.56776087629908" lon="-6.262796505244806"><ele>2685.0</ele><time>2026-05-04T13:55:12Z</time></trkpt><trkpt lat="31.567833716697937" lon="-6.262823615444887"><ele>2685.0</ele><time>2026-05-04T13:55:13Z</time></trkpt><trkpt lat="31.567898917782575" lon="-6.262859220958551"><ele>2685.0</ele><time>2026-05-04T13:55:14Z</time></trkpt><trkpt lat="31.567961840844276" lon="-6.26290943396136"><ele>2685.0</ele><time>2026-05-04T13:55:15Z</time></trkpt><trkpt lat="31.568019833425282" lon="-6.262963476584897"><ele>2682.8333333333335</ele><time>2026-05-04T13:55:16Z</time></trkpt><trkpt lat="31.568079616904235" lon="-6.2630127684017305"><ele>2680.6666666666665</ele><time>2026-05-04T13:55:17Z</time></trkpt><trkpt lat="31.568146776131567" lon="-6.263062601204415"><ele>2678.5</ele><time>2026-05-04T13:55:18Z</time></trkpt><trkpt lat="31.568210669011158" lon="-6.2631079659251"><ele>2676.333333333333</ele><time>2026-05-04T13:55:19Z</time></trkpt><trkpt lat="31.568277466832715" lon="-6.263156643555645"><ele>2674.1666666666665</ele><time>2026-05-04T13:55:20Z</time></trkpt><trkpt lat="31.568347318827268" lon="-6.263201352139994"><ele>2672.0</ele><time>2026-05-04T13:55:21Z</time></trkpt><trkpt lat="31.568417120998678" lon="-6.263245855439504"><ele>2672.0</ele><time>2026-05-04T13:55:22Z</time></trkpt><trkpt lat="31.56848061239708" lon="-6.263285218932886"><ele>2672.0</ele><time>2026-05-04T13:55:23Z</time></trkpt><trkpt lat="31.568540802239564" lon="-6.263322614974588"><ele>2672.0</ele><time>2026-05-04T13:55:24Z</time></trkpt><trkpt lat="31.568613176683815" lon="-6.263393490391169"><ele>2672.0</ele><time>2026-05-04T13:55:26Z</time></trkpt><trkpt lat="31.568623026650265" lon="-6.26349533562718"><ele>2672.0</ele><time>2026-05-04T13:55:28Z</time></trkpt><trkpt lat="31.568555370467244" lon="-6.263596236567184"><ele>2672.0</ele><time>2026-05-04T13:55:30Z</time></trkpt><trkpt lat="31.568486158260626" lon="-6.263636660598419"><ele>2672.0</ele><time>2026-05-04T13:55:31Z</time></trkpt><trkpt lat="31.56841311052512" lon="-6.26364999113586"><ele>2672.0</ele><time>2026-05-04T13:55:32Z</time></trkpt><trkpt lat="31.568338113254153" lon="-6.263660780140414"><ele>2672.0</ele><time>2026-05-04T13:55:33Z</time></trkpt><trkpt lat="31.568270694706325" lon="-6.263670315767537"><ele>2672.0</ele><time>2026-05-04T13:55:34Z</time></trkpt><trkpt lat="31.56820157818333" lon="-6.2636808050568815"><ele>2672.0</ele><time>2026-05-04T13:55:35Z</time></trkpt><trkpt lat="31.568133175182222" lon="-6.263691485289893"><ele>2672.0</ele><time>2026-05-04T13:55:36Z</time></trkpt><trkpt lat="31.56806427251818" lon="-6.263701023125724"><ele>2672.0</ele><time>2026-05-04T13:55:37Z</time></trkpt><trkpt lat="31.56794986711201" lon="-6.263716855292326"><ele>2672.0</ele><time>2026-05-04T13:55:39Z</time></trkpt><trkpt lat="31.567867196634555" lon="-6.26372829297635"><ele>2672.0</ele><time>2026-05-04T13:55:41Z</time></trkpt><trkpt lat="31.567790817813364" lon="-6.263739731842114"><ele>2672.0</ele><time>2026-05-04T13:55:43Z</time></trkpt><trkpt lat="31.567689846376634" lon="-6.263755065224124"><ele>2672.0</ele><time>2026-05-04T13:55:45Z</time></trkpt><trkpt lat="31.56756943100619" lon="-6.263771895100972"><ele>2672.0</ele><time>2026-05-04T13:55:47Z</time></trkpt><trkpt lat="31.56750548359816" lon="-6.263780179201738"><ele>2672.0</ele><time>2026-05-04T13:55:48Z</time></trkpt><trkpt lat="31.56736951846066" lon="-6.263766940802698"><ele>2669.1666666666665</ele><time>2026-05-04T13:55:50Z</time></trkpt><trkpt lat="31.567294859079507" lon="-6.263706288248424"><ele>2666.333333333333</ele><time>2026-05-04T13:55:51Z</time></trkpt><trkpt lat="31.567237402433754" lon="-6.263622884333273"><ele>2663.5</ele><time>2026-05-04T13:55:52Z</time></trkpt><trkpt lat="31.567185131029014" lon="-6.2635490500388045"><ele>2660.6666666666665</ele><time>2026-05-04T13:55:53Z</time></trkpt><trkpt lat="31.567130798925234" lon="-6.263472948779343"><ele>2657.8333333333335</ele><time>2026-05-04T13:55:54Z</time></trkpt><trkpt lat="31.56707205034905" lon="-6.263423505659899"><ele>2655.0</ele><time>2026-05-04T13:55:55Z</time></trkpt><trkpt lat="31.567016620590987" lon="-6.263367063527003"><ele>2652.4</ele><time>2026-05-04T13:55:56Z</time></trkpt><trkpt lat="31.566880298533857" lon="-6.26334209304087"><ele>2649.8</ele><time>2026-05-04T13:55:58Z</time></trkpt><trkpt lat="31.56678580928182" lon="-6.2633193358596095"><ele>2647.2</ele><time>2026-05-04T13:55:59Z</time></trkpt><trkpt lat="31.566691715886087" lon="-6.263297464045036"><ele>2644.6</ele><time>2026-05-04T13:56:00Z</time></trkpt><trkpt lat="31.566599618642773" lon="-6.263286037497287"><ele>2642.0</ele><time>2026-05-04T13:56:01Z</time></trkpt><trkpt lat="31.566500535630254" lon="-6.263279988442236"><ele>2642.0</ele><time>2026-05-04T13:56:02Z</time></trkpt><trkpt lat="31.56641617419486" lon="-6.263296607726595"><ele>2642.0</ele><time>2026-05-04T13:56:03Z</time></trkpt><trkpt lat="31.566317304514257" lon="-6.263312585760918"><ele>2642.0</ele><time>2026-05-04T13:56:04Z</time></trkpt><trkpt lat="31.566220674515225" lon="-6.263328201864904"><ele>2642.0</ele><time>2026-05-04T13:56:05Z</time></trkpt><trkpt lat="31.566121839049014" lon="-6.263341262462563"><ele>2642.0</ele><time>2026-05-04T13:56:06Z</time></trkpt><trkpt lat="31.566022937451933" lon="-6.263353226350881"><ele>2640.8</ele><time>2026-05-04T13:56:07Z</time></trkpt><trkpt lat="31.565922481213487" lon="-6.26336575416484"><ele>2639.6</ele><time>2026-05-04T13:56:08Z</time></trkpt><trkpt lat="31.565828989113164" lon="-6.263377413479183"><ele>2638.4</ele><time>2026-05-04T13:56:09Z</time></trkpt><trkpt lat="31.565729961607236" lon="-6.263373304068739"><ele>2637.2000000000003</ele><time>2026-05-04T13:56:10Z</time></trkpt><trkpt lat="31.565638405222103" lon="-6.263371569040569"><ele>2636.0</ele><time>2026-05-04T13:56:11Z</time></trkpt><trkpt lat="31.565548013285746" lon="-6.263360161862669"><ele>2636.0</ele><time>2026-05-04T13:56:12Z</time></trkpt><trkpt lat="31.565453152145075" lon="-6.263332330110786"><ele>2636.0</ele><time>2026-05-04T13:56:13Z</time></trkpt><trkpt lat="31.565365133230376" lon="-6.263307768263311"><ele>2636.0</ele><time>2026-05-04T13:56:14Z</time></trkpt><trkpt lat="31.56527473528505" lon="-6.263244288957987"><ele>2636.0</ele><time>2026-05-04T13:56:15Z</time></trkpt><trkpt lat="31.56517985218511" lon="-6.2631950896098685"><ele>2636.0</ele><time>2026-05-04T13:56:16Z</time></trkpt><trkpt lat="31.565071686669008" lon="-6.263146445736247"><ele>2638.75</ele><time>2026-05-04T13:56:17Z</time></trkpt><trkpt lat="31.564962351695936" lon="-6.263097275734482"><ele>2641.5</ele><time>2026-05-04T13:56:18Z</time></trkpt><trkpt lat="31.564854648696446" lon="-6.263062451451806"><ele>2644.25</ele><time>2026-05-04T13:56:19Z</time></trkpt><trkpt lat="31.564744901627243" lon="-6.263026343976294"><ele>2647.0</ele><time>2026-05-04T13:56:20Z</time></trkpt><trkpt lat="31.56463998250915" lon="-6.262991750244401"><ele>2647.0</ele><time>2026-05-04T13:56:21Z</time></trkpt><trkpt lat="31.564543765665196" lon="-6.262957965145004"><ele>2647.0</ele><time>2026-05-04T13:56:22Z</time></trkpt><trkpt lat="31.56445705061934" lon="-6.262923676215324"><ele>2647.0</ele><time>2026-05-04T13:56:23Z</time></trkpt><trkpt lat="31.56437937242008" lon="-6.262892960559943"><ele>2647.0</ele><time>2026-05-04T13:56:24Z</time></trkpt><trkpt lat="31.564300579778216" lon="-6.2628618033038235"><ele>2647.0</ele><time>2026-05-04T13:56:25Z</time></trkpt><trkpt lat="31.564225643149857" lon="-6.262832171752483"><ele>2647.0</ele><time>2026-05-04T13:56:26Z</time></trkpt><trkpt lat="31.56411785570037" lon="-6.262844995745392"><ele>2643.0</ele><time>2026-05-04T13:56:28Z</time></trkpt><trkpt lat="31.564034674204894" lon="-6.262972906921263"><ele>2639.0</ele><time>2026-05-04T13:56:30Z</time></trkpt><trkpt lat="31.56396960965106" lon="-6.263059437374136"><ele>2635.0</ele><time>2026-05-04T13:56:31Z</time></trkpt><trkpt lat="31.563938696286957" lon="-6.263154425031351"><ele>2631.0</ele><time>2026-05-04T13:56:32Z</time></trkpt><trkpt lat="31.563904257385627" lon="-6.26322441396831"><ele>2627.0</ele><time>2026-05-04T13:56:33Z</time></trkpt><trkpt lat="31.563812482361957" lon="-6.263253172690048"><ele>2625.3999999999996</ele><time>2026-05-04T13:56:34Z</time></trkpt><trkpt lat="31.563718683680275" lon="-6.263246848567059"><ele>2623.7999999999997</ele><time>2026-05-04T13:56:35Z</time></trkpt><trkpt lat="31.56362332733185" lon="-6.263240600490084"><ele>2622.2</ele><time>2026-05-04T13:56:36Z</time></trkpt><trkpt lat="31.563517154428737" lon="-6.263244998853764"><ele>2620.6</ele><time>2026-05-04T13:56:37Z</time></trkpt><trkpt lat="31.563411957707256" lon="-6.26323471279662"><ele>2619.0</ele><time>2026-05-04T13:56:38Z</time></trkpt><trkpt lat="31.56329182067762" lon="-6.263214914536493"><ele>2619.0</ele><time>2026-05-04T13:56:39Z</time></trkpt><trkpt lat="31.56317598230287" lon="-6.263195060497247"><ele>2619.0</ele><time>2026-05-04T13:56:40Z</time></trkpt><trkpt lat="31.563075964433114" lon="-6.263166208521071"><ele>2619.0</ele><time>2026-05-04T13:56:41.001Z</time></trkpt><trkpt lat="31.562973476286743" lon="-6.26315653888758"><ele>2619.0</ele><time>2026-05-04T13:56:42.001Z</time></trkpt><trkpt lat="31.562867170012552" lon="-6.263147927202449"><ele>2619.0</ele><time>2026-05-04T13:56:43.001Z</time></trkpt><trkpt lat="31.562768135427483" lon="-6.263160748421319"><ele>2617.3999999999996</ele><time>2026-05-04T13:56:44.001Z</time></trkpt><trkpt lat="31.562689483070653" lon="-6.2632006102503475"><ele>2615.8</ele><time>2026-05-04T13:56:45.001Z</time></trkpt><trkpt lat="31.56265172815471" lon="-6.2632976843336365"><ele>2614.2</ele><time>2026-05-04T13:56:46.001Z</time></trkpt><trkpt lat="31.56261963647103" lon="-6.263394718701597"><ele>2612.6000000000004</ele><time>2026-05-04T13:56:47.001Z</time></trkpt><trkpt lat="31.562606187822887" lon="-6.263510402441214"><ele>2611.0</ele><time>2026-05-04T13:56:48.001Z</time></trkpt><trkpt lat="31.562596252378633" lon="-6.263656634116872"><ele>2611.0</ele><time>2026-05-04T13:56:49Z</time></trkpt><trkpt lat="31.562585656013653" lon="-6.263809420445637"><ele>2611.0</ele><time>2026-05-04T13:56:50Z</time></trkpt><trkpt lat="31.562563316211882" lon="-6.2639655336109765"><ele>2611.0</ele><time>2026-05-04T13:56:51Z</time></trkpt><trkpt lat="31.56257402752199" lon="-6.26411530766121"><ele>2611.0</ele><time>2026-05-04T13:56:52Z</time></trkpt><trkpt lat="31.56259062422432" lon="-6.264245008686996"><ele>2612.0</ele><time>2026-05-04T13:56:53Z</time></trkpt><trkpt lat="31.562601178466988" lon="-6.264366729040903"><ele>2613.0</ele><time>2026-05-04T13:56:54Z</time></trkpt><trkpt lat="31.56259586279033" lon="-6.264472901030323"><ele>2614.0</ele><time>2026-05-04T13:56:55Z</time></trkpt><trkpt lat="31.562565073073085" lon="-6.264563812672384"><ele>2615.0</ele><time>2026-05-04T13:56:56Z</time></trkpt><trkpt lat="31.562513713408585" lon="-6.264623443977444"><ele>2616.0</ele><time>2026-05-04T13:56:57Z</time></trkpt><trkpt lat="31.562455406196047" lon="-6.264680599046222"><ele>2617.0</ele><time>2026-05-04T13:56:58Z</time></trkpt><trkpt lat="31.562375609016694" lon="-6.2647090777734205"><ele>2617.0</ele><time>2026-05-04T13:56:59Z</time></trkpt><trkpt lat="31.56228098700664" lon="-6.264700114272476"><ele>2617.0</ele><time>2026-05-04T13:57:00Z</time></trkpt><trkpt lat="31.562207084320242" lon="-6.264683830145465"><ele>2617.0</ele><time>2026-05-04T13:57:01Z</time></trkpt><trkpt lat="31.562109702827247" lon="-6.264584891882501"><ele>2617.0</ele><time>2026-05-04T13:57:02Z</time></trkpt><trkpt lat="31.56203268886608" lon="-6.264516961574575"><ele>2617.0</ele><time>2026-05-04T13:57:03Z</time></trkpt><trkpt lat="31.561944933993935" lon="-6.264438993499513"><ele>2619.5</ele><time>2026-05-04T13:57:04Z</time></trkpt><trkpt lat="31.561850736164025" lon="-6.2643554317575525"><ele>2622.0</ele><time>2026-05-04T13:57:05Z</time></trkpt><trkpt lat="31.561745631212215" lon="-6.264295588485727"><ele>2624.5</ele><time>2026-05-04T13:57:06Z</time></trkpt><trkpt lat="31.561614834433225" lon="-6.264229523723469"><ele>2627.0</ele><time>2026-05-04T13:57:07Z</time></trkpt><trkpt lat="31.561480343534175" lon="-6.264161073658894"><ele>2627.0</ele><time>2026-05-04T13:57:08Z</time></trkpt><trkpt lat="31.561345493361127" lon="-6.264093457249603"><ele>2627.0</ele><time>2026-05-04T13:57:09Z</time></trkpt><trkpt lat="31.561231892136092" lon="-6.264029052694081"><ele>2627.0</ele><time>2026-05-04T13:57:10Z</time></trkpt><trkpt lat="31.56114360550162" lon="-6.26391398079766"><ele>2627.0</ele><time>2026-05-04T13:57:11Z</time></trkpt><trkpt lat="31.56109258152389" lon="-6.26380162992726"><ele>2626.8</ele><time>2026-05-04T13:57:12Z</time></trkpt><trkpt lat="31.561028726040078" lon="-6.263726762406445"><ele>2626.6</ele><time>2026-05-04T13:57:13Z</time></trkpt><trkpt lat="31.560890276224335" lon="-6.263713765690195"><ele>2626.4</ele><time>2026-05-04T13:57:15Z</time></trkpt><trkpt lat="31.5608282843804" lon="-6.263754398506936"><ele>2626.2000000000003</ele><time>2026-05-04T13:57:16Z</time></trkpt><trkpt lat="31.56073967413595" lon="-6.263773081857651"><ele>2626.0</ele><time>2026-05-04T13:57:17Z</time></trkpt><trkpt lat="31.560667210264477" lon="-6.263792227853269"><ele>2626.0</ele><time>2026-05-04T13:57:18Z</time></trkpt><trkpt lat="31.560605099526462" lon="-6.263808397787659"><ele>2626.0</ele><time>2026-05-04T13:57:19Z</time></trkpt><trkpt lat="31.56049558607034" lon="-6.26375778961231"><ele>2626.0</ele><time>2026-05-04T13:57:20Z</time></trkpt><trkpt lat="31.56043439874903" lon="-6.263722864767858"><ele>2626.0</ele><time>2026-05-04T13:57:21Z</time></trkpt><trkpt lat="31.560391497326677" lon="-6.263592102610333"><ele>2626.0</ele><time>2026-05-04T13:57:22Z</time></trkpt><trkpt lat="31.560372038701576" lon="-6.263493639696702"><ele>2626.6000000000004</ele><time>2026-05-04T13:57:23Z</time></trkpt><trkpt lat="31.560339289470843" lon="-6.263393246715661"><ele>2627.2</ele><time>2026-05-04T13:57:24Z</time></trkpt><trkpt lat="31.560299263826614" lon="-6.263271573561855"><ele>2627.8</ele><time>2026-05-04T13:57:25Z</time></trkpt><trkpt lat="31.560246385404938" lon="-6.263171518987236"><ele>2628.3999999999996</ele><time>2026-05-04T13:57:26Z</time></trkpt><trkpt lat="31.560188915723973" lon="-6.263069373228343"><ele>2629.0</ele><time>2026-05-04T13:57:27Z</time></trkpt><trkpt lat="31.56014220411675" lon="-6.262964677685633"><ele>2629.0</ele><time>2026-05-04T13:57:28Z</time></trkpt><trkpt lat="31.560021750904475" lon="-6.262960010865775"><ele>2629.0</ele><time>2026-05-04T13:57:29Z</time></trkpt><trkpt lat="31.55991608222104" lon="-6.262940316862763"><ele>2629.0</ele><time>2026-05-04T13:57:30Z</time></trkpt><trkpt lat="31.55980025607136" lon="-6.262913739912806"><ele>2629.0</ele><time>2026-05-04T13:57:31Z</time></trkpt><trkpt lat="31.559681334535536" lon="-6.262925887336655"><ele>2629.0</ele><time>2026-05-04T13:57:32Z</time></trkpt><trkpt lat="31.559551773856214" lon="-6.262926677469501"><ele>2629.0</ele><time>2026-05-04T13:57:33Z</time></trkpt><trkpt lat="31.559419605407403" lon="-6.262928976115612"><ele>2629.0</ele><time>2026-05-04T13:57:34Z</time></trkpt><trkpt lat="31.55929193166091" lon="-6.262937389105219"><ele>2629.0</ele><time>2026-05-04T13:57:35Z</time></trkpt><trkpt lat="31.55916388033512" lon="-6.262949134299391"><ele>2631.666666666667</ele><time>2026-05-04T13:57:36Z</time></trkpt><trkpt lat="31.559054579292194" lon="-6.262959870950278"><ele>2634.3333333333335</ele><time>2026-05-04T13:57:37Z</time></trkpt><trkpt lat="31.55897597157455" lon="-6.262978532260498"><ele>2637.0</ele><time>2026-05-04T13:57:38Z</time></trkpt><trkpt lat="31.558894101662098" lon="-6.263011370295979"><ele>2639.6666666666665</ele><time>2026-05-04T13:57:39Z</time></trkpt><trkpt lat="31.55883440710456" lon="-6.263036330243845"><ele>2642.333333333333</ele><time>2026-05-04T13:57:40Z</time></trkpt><trkpt lat="31.55874061733675" lon="-6.263018446960847"><ele>2645.0</ele><time>2026-05-04T13:57:41Z</time></trkpt><trkpt lat="31.558590399901448" lon="-6.262913608268099"><ele>2652.75</ele><time>2026-05-04T13:57:43Z</time></trkpt><trkpt lat="31.55856661116881" lon="-6.262682432191446"><ele>2660.5</ele><time>2026-05-04T13:57:45Z</time></trkpt><trkpt lat="31.558594397850847" lon="-6.262570175993736"><ele>2668.25</ele><time>2026-05-04T13:57:46Z</time></trkpt><trkpt lat="31.55861601033223" lon="-6.262457930312297"><ele>2676.0</ele><time>2026-05-04T13:57:47Z</time></trkpt><trkpt lat="31.558699059406788" lon="-6.2623597188755555"><ele>2670.25</ele><time>2026-05-04T13:57:48Z</time></trkpt><trkpt lat="31.55876836437603" lon="-6.26225325521182"><ele>2664.5</ele><time>2026-05-04T13:57:49Z</time></trkpt><trkpt lat="31.558862653566305" lon="-6.2621480120170325"><ele>2658.75</ele><time>2026-05-04T13:57:50Z</time></trkpt><trkpt lat="31.558965660227543" lon="-6.262041901114395"><ele>2653.0</ele><time>2026-05-04T13:57:51Z</time></trkpt><trkpt lat="31.559054571387904" lon="-6.261945253891495"><ele>2653.0</ele><time>2026-05-04T13:57:52Z</time></trkpt><trkpt lat="31.55912833604833" lon="-6.2618506958721785"><ele>2653.0</ele><time>2026-05-04T13:57:53Z</time></trkpt><trkpt lat="31.559175412780792" lon="-6.261743333462991"><ele>2653.0</ele><time>2026-05-04T13:57:54Z</time></trkpt><trkpt lat="31.559199523947616" lon="-6.261635719919203"><ele>2653.0</ele><time>2026-05-04T13:57:55Z</time></trkpt><trkpt lat="31.559209983190065" lon="-6.261525533401497"><ele>2653.0</ele><time>2026-05-04T13:57:56Z</time></trkpt><trkpt lat="31.559196607921514" lon="-6.2614262249061134"><ele>2650.166666666667</ele><time>2026-05-04T13:57:57Z</time></trkpt><trkpt lat="31.559172340250072" lon="-6.261348306363785"><ele>2647.3333333333335</ele><time>2026-05-04T13:57:58Z</time></trkpt><trkpt lat="31.55912657931357" lon="-6.261293731859101"><ele>2644.5</ele><time>2026-05-04T13:57:59Z</time></trkpt><trkpt lat="31.559055443030797" lon="-6.26126584173901"><ele>2641.6666666666665</ele><time>2026-05-04T13:58:00Z</time></trkpt><trkpt lat="31.558963022951556" lon="-6.261242745278911"><ele>2638.833333333333</ele><time>2026-05-04T13:58:01Z</time></trkpt><trkpt lat="31.558866249915255" lon="-6.261242061301548"><ele>2636.0</ele><time>2026-05-04T13:58:02Z</time></trkpt><trkpt lat="31.558767018227645" lon="-6.261259315252813"><ele>2636.75</ele><time>2026-05-04T13:58:03Z</time></trkpt><trkpt lat="31.558673900897695" lon="-6.261308190813171"><ele>2637.5</ele><time>2026-05-04T13:58:04Z</time></trkpt><trkpt lat="31.558576445832944" lon="-6.261395282504351"><ele>2638.25</ele><time>2026-05-04T13:58:05Z</time></trkpt><trkpt lat="31.558471174384554" lon="-6.2614933417736625"><ele>2639.0</ele><time>2026-05-04T13:58:06Z</time></trkpt><trkpt lat="31.55834434636863" lon="-6.261572436788364"><ele>2645.75</ele><time>2026-05-04T13:58:07Z</time></trkpt><trkpt lat="31.558205528253293" lon="-6.2616462410120795"><ele>2652.5</ele><time>2026-05-04T13:58:08Z</time></trkpt><trkpt lat="31.558092987920553" lon="-6.261706268738636"><ele>2659.25</ele><time>2026-05-04T13:58:09Z</time></trkpt><trkpt lat="31.55799230913656" lon="-6.261764834349107"><ele>2666.0</ele><time>2026-05-04T13:58:10Z</time></trkpt><trkpt lat="31.557916460457534" lon="-6.261862741953547"><ele>2667.4</ele><time>2026-05-04T13:58:11Z</time></trkpt><trkpt lat="31.557835601533128" lon="-6.261957736096171"><ele>2668.8</ele><time>2026-05-04T13:58:12Z</time></trkpt><trkpt lat="31.557778312632284" lon="-6.262037649468848"><ele>2670.2000000000003</ele><time>2026-05-04T13:58:13Z</time></trkpt><trkpt lat="31.557696075484813" lon="-6.262066948782754"><ele>2671.6000000000004</ele><time>2026-05-04T13:58:14Z</time></trkpt><trkpt lat="31.557623342847602" lon="-6.262110249733456"><ele>2673.0</ele><time>2026-05-04T13:58:15Z</time></trkpt><trkpt lat="31.557504928775607" lon="-6.262062042948916"><ele>2673.0</ele><time>2026-05-04T13:58:16Z</time></trkpt><trkpt lat="31.557390889481336" lon="-6.262027447280329"><ele>2673.0</ele><time>2026-05-04T13:58:17Z</time></trkpt><trkpt lat="31.557268625761317" lon="-6.26198881872873"><ele>2673.0</ele><time>2026-05-04T13:58:18Z</time></trkpt><trkpt lat="31.557138233070518" lon="-6.261939487537703"><ele>2673.0</ele><time>2026-05-04T13:58:19Z</time></trkpt><trkpt lat="31.557020424743364" lon="-6.261843604813283"><ele>2678.2</ele><time>2026-05-04T13:58:20Z</time></trkpt><trkpt lat="31.5569344811591" lon="-6.261757629564415"><ele>2683.4</ele><time>2026-05-04T13:58:21Z</time></trkpt><trkpt lat="31.556845419208152" lon="-6.26168548823005"><ele>2688.6</ele><time>2026-05-04T13:58:22Z</time></trkpt><trkpt lat="31.556767034994085" lon="-6.261621832141257"><ele>2693.7999999999997</ele><time>2026-05-04T13:58:23Z</time></trkpt><trkpt lat="31.556668995337983" lon="-6.261642142124741"><ele>2699.0</ele><time>2026-05-04T13:58:24Z</time></trkpt><trkpt lat="31.55655754915624" lon="-6.261617969084699"><ele>2699.0</ele><time>2026-05-04T13:58:25Z</time></trkpt><trkpt lat="31.556438641980936" lon="-6.2615758081458175"><ele>2699.0</ele><time>2026-05-04T13:58:26Z</time></trkpt><trkpt lat="31.556341394776183" lon="-6.261525982542026"><ele>2699.0</ele><time>2026-05-04T13:58:27Z</time></trkpt><trkpt lat="31.55624560086175" lon="-6.261403619424894"><ele>2699.0</ele><time>2026-05-04T13:58:28Z</time></trkpt><trkpt lat="31.556152353496483" lon="-6.261316539853075"><ele>2701.25</ele><time>2026-05-04T13:58:29Z</time></trkpt><trkpt lat="31.55605307750276" lon="-6.261223830396204"><ele>2703.5</ele><time>2026-05-04T13:58:30Z</time></trkpt><trkpt lat="31.55594190885143" lon="-6.2611215074543916"><ele>2705.75</ele><time>2026-05-04T13:58:31Z</time></trkpt><trkpt lat="31.555835613944087" lon="-6.261022335109075"><ele>2708.0</ele><time>2026-05-04T13:58:32Z</time></trkpt><trkpt lat="31.55572991254448" lon="-6.260923716473336"><ele>2708.0</ele><time>2026-05-04T13:58:33Z</time></trkpt><trkpt lat="31.55563580332343" lon="-6.26080761426243"><ele>2708.0</ele><time>2026-05-04T13:58:34Z</time></trkpt><trkpt lat="31.555537436239245" lon="-6.260690431117905"><ele>2708.0</ele><time>2026-05-04T13:58:35Z</time></trkpt><trkpt lat="31.555446724814228" lon="-6.26058243994427"><ele>2708.0</ele><time>2026-05-04T13:58:36Z</time></trkpt><trkpt lat="31.555359658348955" lon="-6.260478788066692"><ele>2711.4</ele><time>2026-05-04T13:58:37Z</time></trkpt><trkpt lat="31.55527677191257" lon="-6.2603805946049675"><ele>2714.8</ele><time>2026-05-04T13:58:38Z</time></trkpt><trkpt lat="31.555199115337096" lon="-6.260293146914301"><ele>2718.2</ele><time>2026-05-04T13:58:39Z</time></trkpt><trkpt lat="31.555111550047062" lon="-6.260203600827954"><ele>2721.6</ele><time>2026-05-04T13:58:40Z</time></trkpt><trkpt lat="31.555029153718674" lon="-6.260140686873006"><ele>2725.0</ele><time>2026-05-04T13:58:41Z</time></trkpt><trkpt lat="31.554926222717278" lon="-6.260070037776139"><ele>2725.0</ele><time>2026-05-04T13:58:42Z</time></trkpt><trkpt lat="31.554836630530207" lon="-6.26001937823872"><ele>2725.0</ele><time>2026-05-04T13:58:43Z</time></trkpt><trkpt lat="31.554731211957694" lon="-6.259972351931594"><ele>2725.0</ele><time>2026-05-04T13:58:44Z</time></trkpt><trkpt lat="31.55461850557943" lon="-6.259923590159214"><ele>2725.0</ele><time>2026-05-04T13:58:45Z</time></trkpt><trkpt lat="31.554505380969438" lon="-6.259877588356399"><ele>2728.25</ele><time>2026-05-04T13:58:46Z</time></trkpt><trkpt lat="31.55439052015736" lon="-6.259830975955294"><ele>2731.5</ele><time>2026-05-04T13:58:47Z</time></trkpt><trkpt lat="31.554268158097845" lon="-6.259781357781583"><ele>2734.75</ele><time>2026-05-04T13:58:48Z</time></trkpt><trkpt lat="31.55414094880416" lon="-6.259727361406968"><ele>2738.0</ele><time>2026-05-04T13:58:49Z</time></trkpt><trkpt lat="31.554018835178063" lon="-6.259667411620424"><ele>2738.0</ele><time>2026-05-04T13:58:50Z</time></trkpt><trkpt lat="31.55389901367862" lon="-6.259608587126015"><ele>2738.0</ele><time>2026-05-04T13:58:51Z</time></trkpt><trkpt lat="31.553785779838424" lon="-6.259553166026404"><ele>2738.0</ele><time>2026-05-04T13:58:52Z</time></trkpt><trkpt lat="31.553677047419026" lon="-6.259499988820752"><ele>2738.0</ele><time>2026-05-04T13:58:53Z</time></trkpt><trkpt lat="31.553570916288226" lon="-6.259448083809204"><ele>2736.6000000000004</ele><time>2026-05-04T13:58:54Z</time></trkpt><trkpt lat="31.5534740424078" lon="-6.259387565242702"><ele>2735.2000000000003</ele><time>2026-05-04T13:58:55Z</time></trkpt><trkpt lat="31.553388535341153" lon="-6.259356542498046"><ele>2733.8</ele><time>2026-05-04T13:58:56Z</time></trkpt><trkpt lat="31.553301826330966" lon="-6.259344844680527"><ele>2732.4</ele><time>2026-05-04T13:58:57Z</time></trkpt><trkpt lat="31.55322744589765" lon="-6.2593727861286474"><ele>2731.0</ele><time>2026-05-04T13:58:58Z</time></trkpt><trkpt lat="31.55318539941053" lon="-6.25947600107917"><ele>2731.0</ele><time>2026-05-04T13:58:59Z</time></trkpt><trkpt lat="31.553113536237234" lon="-6.259566805455617"><ele>2731.0</ele><time>2026-05-04T13:59:00Z</time></trkpt><trkpt lat="31.55303552649229" lon="-6.2596658862793415"><ele>2731.0</ele><time>2026-05-04T13:59:01Z</time></trkpt><trkpt lat="31.552964124089254" lon="-6.259756662632324"><ele>2731.0</ele><time>2026-05-04T13:59:02Z</time></trkpt><trkpt lat="31.55288798647993" lon="-6.2598330664675945"><ele>2731.0</ele><time>2026-05-04T13:59:03Z</time></trkpt><trkpt lat="31.55280726141377" lon="-6.259917647831821"><ele>2734.0</ele><time>2026-05-04T13:59:04Z</time></trkpt><trkpt lat="31.55272646009667" lon="-6.259974743059797"><ele>2737.0</ele><time>2026-05-04T13:59:05Z</time></trkpt><trkpt lat="31.55267562436461" lon="-6.260047061374512"><ele>2740.0</ele><time>2026-05-04T13:59:06Z</time></trkpt><trkpt lat="31.552620771199965" lon="-6.260171888012246"><ele>2743.0</ele><time>2026-05-04T13:59:07Z</time></trkpt><trkpt lat="31.55255385741317" lon="-6.2603043480487415"><ele>2746.0</ele><time>2026-05-04T13:59:08Z</time></trkpt><trkpt lat="31.55251976811787" lon="-6.260445240966008"><ele>2746.0</ele><time>2026-05-04T13:59:09Z</time></trkpt><trkpt lat="31.552474349476597" lon="-6.260578127542966"><ele>2746.0</ele><time>2026-05-04T13:59:10Z</time></trkpt><trkpt lat="31.552413263983304" lon="-6.260713502620274"><ele>2746.0</ele><time>2026-05-04T13:59:11Z</time></trkpt><trkpt lat="31.55241600811487" lon="-6.260872152772238"><ele>2746.0</ele><time>2026-05-04T13:59:12Z</time></trkpt><trkpt lat="31.552380316898166" lon="-6.261047444553349"><ele>2746.3333333333335</ele><time>2026-05-04T13:59:13Z</time></trkpt><trkpt lat="31.552363999243752" lon="-6.261221608133293"><ele>2746.6666666666665</ele><time>2026-05-04T13:59:14Z</time></trkpt><trkpt lat="31.552339337372317" lon="-6.261396031535262"><ele>2747.0</ele><time>2026-05-04T13:59:15Z</time></trkpt><trkpt lat="31.552324770259858" lon="-6.261576658125919"><ele>2748.5</ele><time>2026-05-04T13:59:16Z</time></trkpt><trkpt lat="31.552301426535447" lon="-6.261754241303076"><ele>2750.0</ele><time>2026-05-04T13:59:17Z</time></trkpt><trkpt lat="31.552269000491712" lon="-6.2618984712209125"><ele>2751.5</ele><time>2026-05-04T13:59:18Z</time></trkpt><trkpt lat="31.552224976217705" lon="-6.262044011597871"><ele>2753.0</ele><time>2026-05-04T13:59:19Z</time></trkpt><trkpt lat="31.55220977091506" lon="-6.262192215681974"><ele>2755.75</ele><time>2026-05-04T13:59:20Z</time></trkpt><trkpt lat="31.552188956906562" lon="-6.262344752889645"><ele>2758.5</ele><time>2026-05-04T13:59:21Z</time></trkpt><trkpt lat="31.552161806851494" lon="-6.2624984968878605"><ele>2761.25</ele><time>2026-05-04T13:59:22Z</time></trkpt><trkpt lat="31.55212466066583" lon="-6.262651466998023"><ele>2764.0</ele><time>2026-05-04T13:59:23Z</time></trkpt><trkpt lat="31.552078958875565" lon="-6.262795105886609"><ele>2765.0</ele><time>2026-05-04T13:59:24Z</time></trkpt><trkpt lat="31.55201561273349" lon="-6.262936742370622"><ele>2766.0</ele><time>2026-05-04T13:59:25Z</time></trkpt><trkpt lat="31.5519331558694" lon="-6.2630966020745955"><ele>2767.0</ele><time>2026-05-04T13:59:26Z</time></trkpt><trkpt lat="31.55186156143933" lon="-6.263236102274112"><ele>2768.0</ele><time>2026-05-04T13:59:27Z</time></trkpt><trkpt lat="31.551749826487647" lon="-6.263372326616092"><ele>2768.0</ele><time>2026-05-04T13:59:28Z</time></trkpt><trkpt lat="31.551696197383393" lon="-6.263490283230466"><ele>2768.0</ele><time>2026-05-04T13:59:29Z</time></trkpt><trkpt lat="31.551637430488068" lon="-6.263599003541822"><ele>2768.0</ele><time>2026-05-04T13:59:30Z</time></trkpt><trkpt lat="31.551570359067895" lon="-6.263696385087908"><ele>2768.0</ele><time>2026-05-04T13:59:31Z</time></trkpt><trkpt lat="31.551530568265804" lon="-6.263818882581287"><ele>2768.0</ele><time>2026-05-04T13:59:32Z</time></trkpt><trkpt lat="31.551500693498372" lon="-6.26395487610296"><ele>2767.25</ele><time>2026-05-04T13:59:33Z</time></trkpt><trkpt lat="31.551479559656787" lon="-6.264107694702883"><ele>2766.5</ele><time>2026-05-04T13:59:34Z</time></trkpt><trkpt lat="31.55145328516778" lon="-6.2642573441993346"><ele>2765.75</ele><time>2026-05-04T13:59:35Z</time></trkpt><trkpt lat="31.551430595840277" lon="-6.2644002558452625"><ele>2765.0</ele><time>2026-05-04T13:59:36Z</time></trkpt><trkpt lat="31.551390288037528" lon="-6.264535524707318"><ele>2765.0</ele><time>2026-05-04T13:59:37Z</time></trkpt><trkpt lat="31.551349131382622" lon="-6.264677741821527"><ele>2765.0</ele><time>2026-05-04T13:59:38Z</time></trkpt><trkpt lat="31.551283691879306" lon="-6.264824117548266"><ele>2765.0</ele><time>2026-05-04T13:59:39Z</time></trkpt><trkpt lat="31.551208315180865" lon="-6.264959130120408"><ele>2765.0</ele><time>2026-05-04T13:59:40Z</time></trkpt><trkpt lat="31.551129952511605" lon="-6.265095363651315"><ele>2765.5</ele><time>2026-05-04T13:59:41Z</time></trkpt><trkpt lat="31.551048874680195" lon="-6.265227915281521"><ele>2766.0</ele><time>2026-05-04T13:59:42Z</time></trkpt><trkpt lat="31.550980111883895" lon="-6.265369784903512"><ele>2766.5</ele><time>2026-05-04T13:59:43Z</time></trkpt><trkpt lat="31.550926334020453" lon="-6.265507249359407"><ele>2767.0</ele><time>2026-05-04T13:59:44Z</time></trkpt><trkpt lat="31.55087578191618" lon="-6.2656474159162725"><ele>2767.0</ele><time>2026-05-04T13:59:45Z</time></trkpt><trkpt lat="31.55082880742787" lon="-6.2657862781711495"><ele>2767.0</ele><time>2026-05-04T13:59:46Z</time></trkpt><trkpt lat="31.550791297539792" lon="-6.265919021761862"><ele>2767.0</ele><time>2026-05-04T13:59:47Z</time></trkpt><trkpt lat="31.55075893020091" lon="-6.2660756191629465"><ele>2767.0</ele><time>2026-05-04T13:59:48Z</time></trkpt><trkpt lat="31.550727223063898" lon="-6.266231984290607"><ele>2767.0</ele><time>2026-05-04T13:59:49Z</time></trkpt><trkpt lat="31.550694339041026" lon="-6.266386567208455"><ele>2767.0</ele><time>2026-05-04T13:59:50Z</time></trkpt><trkpt lat="31.550664575417947" lon="-6.26653503441057"><ele>2767.0</ele><time>2026-05-04T13:59:51Z</time></trkpt><trkpt lat="31.550639655379115" lon="-6.266665031901729"><ele>2767.0</ele><time>2026-05-04T13:59:52Z</time></trkpt><trkpt lat="31.55061848459789" lon="-6.266785073535605"><ele>2767.8</ele><time>2026-05-04T13:59:53Z</time></trkpt><trkpt lat="31.550595558147585" lon="-6.266884425915672"><ele>2768.6</ele><time>2026-05-04T13:59:54Z</time></trkpt><trkpt lat="31.550546647219512" lon="-6.266983519708934"><ele>2769.4</ele><time>2026-05-04T13:59:55Z</time></trkpt><trkpt lat="31.550471738725072" lon="-6.267082756697645"><ele>2770.2000000000003</ele><time>2026-05-04T13:59:56Z</time></trkpt><trkpt lat="31.55040128013499" lon="-6.267198779889951"><ele>2771.0</ele><time>2026-05-04T13:59:57Z</time></trkpt><trkpt lat="31.550319224096825" lon="-6.267304114363256"><ele>2772.0</ele><time>2026-05-04T13:59:58Z</time></trkpt><trkpt lat="31.550227629479288" lon="-6.267394229567112"><ele>2773.0</ele><time>2026-05-04T13:59:59Z</time></trkpt><trkpt lat="31.550141489353486" lon="-6.267460141352928"><ele>2774.0</ele><time>2026-05-04T14:00:00Z</time></trkpt><trkpt lat="31.550081679788185" lon="-6.26754365725281"><ele>2775.0</ele><time>2026-05-04T14:00:01Z</time></trkpt><trkpt lat="31.550019500681714" lon="-6.267617118133798"><ele>2776.0</ele><time>2026-05-04T14:00:02Z</time></trkpt><trkpt lat="31.549954921605433" lon="-6.267696781123636"><ele>2776.0</ele><time>2026-05-04T14:00:03Z</time></trkpt><trkpt lat="31.549883458947217" lon="-6.267785783348813"><ele>2776.0</ele><time>2026-05-04T14:00:04Z</time></trkpt><trkpt lat="31.549810073944215" lon="-6.2678771800878215"><ele>2776.0</ele><time>2026-05-04T14:00:05Z</time></trkpt><trkpt lat="31.54973418785917" lon="-6.2679439091496585"><ele>2776.0</ele><time>2026-05-04T14:00:06Z</time></trkpt><trkpt lat="31.54968006312133" lon="-6.268026482899709"><ele>2776.0</ele><time>2026-05-04T14:00:07Z</time></trkpt><trkpt lat="31.54962735867229" lon="-6.26811660976586"><ele>2774.6000000000004</ele><time>2026-05-04T14:00:08Z</time></trkpt><trkpt lat="31.549578155666996" lon="-6.268198713894639"><ele>2773.2</ele><time>2026-05-04T14:00:09Z</time></trkpt><trkpt lat="31.54951147793228" lon="-6.268303823167366"><ele>2771.8</ele><time>2026-05-04T14:00:11Z</time></trkpt><trkpt lat="31.54944829237366" lon="-6.268417905982148"><ele>2770.3999999999996</ele><time>2026-05-04T14:00:13Z</time></trkpt><trkpt lat="31.549375678096617" lon="-6.268531807973475"><ele>2769.0</ele><time>2026-05-04T14:00:15Z</time></trkpt><trkpt lat="31.549341183170274" lon="-6.268602440458816"><ele>2770.5</ele><time>2026-05-04T14:00:16Z</time></trkpt><trkpt lat="31.54931014139265" lon="-6.268679501351674"><ele>2772.0</ele><time>2026-05-04T14:00:17Z</time></trkpt><trkpt lat="31.549278681230568" lon="-6.268812760295972"><ele>2773.5</ele><time>2026-05-04T14:00:19Z</time></trkpt><trkpt lat="31.549264882036418" lon="-6.2688865918415555"><ele>2775.0</ele><time>2026-05-04T14:00:20Z</time></trkpt><trkpt lat="31.54925683522638" lon="-6.268969497077041"><ele>2776.5</ele><time>2026-05-04T14:00:21Z</time></trkpt><trkpt lat="31.54925710436128" lon="-6.269061905711781"><ele>2778.0</ele><time>2026-05-04T14:00:22Z</time></trkpt><trkpt lat="31.549266141408506" lon="-6.269172889602905"><ele>2778.0</ele><time>2026-05-04T14:00:23Z</time></trkpt><trkpt lat="31.54928138207823" lon="-6.269295067722666"><ele>2778.0</ele><time>2026-05-04T14:00:24Z</time></trkpt><trkpt lat="31.549302298774414" lon="-6.2694214903117045"><ele>2778.0</ele><time>2026-05-04T14:00:25Z</time></trkpt><trkpt lat="31.54932174398972" lon="-6.2695600223153605"><ele>2778.0</ele><time>2026-05-04T14:00:26Z</time></trkpt><trkpt lat="31.549332346001165" lon="-6.269699821478716"><ele>2778.0</ele><time>2026-05-04T14:00:27Z</time></trkpt><trkpt lat="31.54933065035351" lon="-6.269830249764865"><ele>2778.0</ele><time>2026-05-04T14:00:28Z</time></trkpt><trkpt lat="31.549311624231294" lon="-6.269964468907034"><ele>2778.0</ele><time>2026-05-04T14:00:29Z</time></trkpt><trkpt lat="31.54928309697415" lon="-6.270103090205404"><ele>2778.0</ele><time>2026-05-04T14:00:30Z</time></trkpt><trkpt lat="31.54924097400509" lon="-6.270244441675714"><ele>2778.0</ele><time>2026-05-04T14:00:31Z</time></trkpt><trkpt lat="31.549187817418375" lon="-6.270381686722394"><ele>2778.0</ele><time>2026-05-04T14:00:32Z</time></trkpt><trkpt lat="31.549135798021677" lon="-6.2705073755756136"><ele>2778.0</ele><time>2026-05-04T14:00:33Z</time></trkpt><trkpt lat="31.549087545288614" lon="-6.270617860745888"><ele>2778.0</ele><time>2026-05-04T14:00:34Z</time></trkpt><trkpt lat="31.54903273482698" lon="-6.270705043444965"><ele>2778.0</ele><time>2026-05-04T14:00:35Z</time></trkpt><trkpt lat="31.548974461945566" lon="-6.270787542805025"><ele>2779.0</ele><time>2026-05-04T14:00:36Z</time></trkpt><trkpt lat="31.54890554981945" lon="-6.270864169043563"><ele>2780.0</ele><time>2026-05-04T14:00:37Z</time></trkpt><trkpt lat="31.548817545470694" lon="-6.270927486498987"><ele>2781.0</ele><time>2026-05-04T14:00:38Z</time></trkpt><trkpt lat="31.54871870424909" lon="-6.270983696153878"><ele>2782.0</ele><time>2026-05-04T14:00:39Z</time></trkpt><trkpt lat="31.548618833023973" lon="-6.271048504218485"><ele>2783.0</ele><time>2026-05-04T14:00:40Z</time></trkpt><trkpt lat="31.548506513215926" lon="-6.271101712015694"><ele>2783.75</ele><time>2026-05-04T14:00:41Z</time></trkpt><trkpt lat="31.548384878773977" lon="-6.271138701725329"><ele>2784.5</ele><time>2026-05-04T14:00:42Z</time></trkpt><trkpt lat="31.548266228394912" lon="-6.271190713543772"><ele>2785.25</ele><time>2026-05-04T14:00:43Z</time></trkpt><trkpt lat="31.54814860352427" lon="-6.271238534885681"><ele>2786.0</ele><time>2026-05-04T14:00:44Z</time></trkpt><trkpt lat="31.548032555512883" lon="-6.2712778205640065"><ele>2786.0</ele><time>2026-05-04T14:00:45Z</time></trkpt><trkpt lat="31.54791022858151" lon="-6.271310551173711"><ele>2786.0</ele><time>2026-05-04T14:00:46Z</time></trkpt><trkpt lat="31.54779471306161" lon="-6.271348287315527"><ele>2786.0</ele><time>2026-05-04T14:00:47Z</time></trkpt><trkpt lat="31.54767711879897" lon="-6.271380325013997"><ele>2786.0</ele><time>2026-05-04T14:00:48Z</time></trkpt><trkpt lat="31.547555667219928" lon="-6.271406400068988"><ele>2787.0</ele><time>2026-05-04T14:00:49Z</time></trkpt><trkpt lat="31.54743879603233" lon="-6.271424912487515"><ele>2788.0</ele><time>2026-05-04T14:00:50Z</time></trkpt><trkpt lat="31.54731880960062" lon="-6.2714424282112"><ele>2789.0</ele><time>2026-05-04T14:00:51Z</time></trkpt><trkpt lat="31.547192831878803" lon="-6.271456088491279"><ele>2790.0</ele><time>2026-05-04T14:00:52Z</time></trkpt><trkpt lat="31.547070003317813" lon="-6.271486967963916"><ele>2794.0</ele><time>2026-05-04T14:00:53Z</time></trkpt><trkpt lat="31.5469443654483" lon="-6.271497499633878"><ele>2798.0</ele><time>2026-05-04T14:00:54Z</time></trkpt><trkpt lat="31.546817244318326" lon="-6.271490744151289"><ele>2802.0</ele><time>2026-05-04T14:00:55Z</time></trkpt><trkpt lat="31.546696058357007" lon="-6.271511562749118"><ele>2806.0</ele><time>2026-05-04T14:00:56Z</time></trkpt><trkpt lat="31.546581654936286" lon="-6.27152852537274"><ele>2806.0</ele><time>2026-05-04T14:00:57Z</time></trkpt><trkpt lat="31.54648756648812" lon="-6.271542755445184"><ele>2806.0</ele><time>2026-05-04T14:00:58Z</time></trkpt><trkpt lat="31.54641063583326" lon="-6.271562323742713"><ele>2806.0</ele><time>2026-05-04T14:00:59Z</time></trkpt><trkpt lat="31.546333239376587" lon="-6.271658433339687"><ele>2806.0</ele><time>2026-05-04T14:01:01Z</time></trkpt><trkpt lat="31.546349519665906" lon="-6.2717344931207775"><ele>2806.0</ele><time>2026-05-04T14:01:02Z</time></trkpt><trkpt lat="31.546404201341605" lon="-6.2717886298472045"><ele>2806.0</ele><time>2026-05-04T14:01:03Z</time></trkpt><trkpt lat="31.54647282337686" lon="-6.271812352377194"><ele>2806.0</ele><time>2026-05-04T14:01:04Z</time></trkpt><trkpt lat="31.5465536068192" lon="-6.2718092990947625"><ele>2806.0</ele><time>2026-05-04T14:01:05Z</time></trkpt><trkpt lat="31.5466306160141" lon="-6.271797397036759"><ele>2806.0</ele><time>2026-05-04T14:01:06Z</time></trkpt><trkpt lat="31.54672828760622" lon="-6.271854325433159"><ele>2806.0</ele><time>2026-05-04T14:01:08Z</time></trkpt><trkpt lat="31.546734362373833" lon="-6.271974504092371"><ele>2806.0</ele><time>2026-05-04T14:01:10Z</time></trkpt><trkpt lat="31.546623100801334" lon="-6.272059338823402"><ele>2806.0</ele><time>2026-05-04T14:01:12Z</time></trkpt><trkpt lat="31.546550630659077" lon="-6.272092052200152"><ele>2806.0</ele><time>2026-05-04T14:01:13Z</time></trkpt><trkpt lat="31.546461781914545" lon="-6.272124825980373"><ele>2806.0</ele><time>2026-05-04T14:01:14Z</time></trkpt><trkpt lat="31.54636057846503" lon="-6.2721558527205055"><ele>2806.0</ele><time>2026-05-04T14:01:15Z</time></trkpt><trkpt lat="31.54625284888032" lon="-6.272189267727774"><ele>2806.0</ele><time>2026-05-04T14:01:16Z</time></trkpt><trkpt lat="31.546149351873947" lon="-6.272227595223586"><ele>2805.75</ele><time>2026-05-04T14:01:17Z</time></trkpt><trkpt lat="31.546028754077625" lon="-6.2722638893618505"><ele>2805.5</ele><time>2026-05-04T14:01:18Z</time></trkpt><trkpt lat="31.545898285029274" lon="-6.272308616494052"><ele>2805.25</ele><time>2026-05-04T14:01:19Z</time></trkpt><trkpt lat="31.54576440486436" lon="-6.27235726142459"><ele>2805.0</ele><time>2026-05-04T14:01:20Z</time></trkpt><trkpt lat="31.54562223900702" lon="-6.272403811349489"><ele>2811.0</ele><time>2026-05-04T14:01:21Z</time></trkpt><trkpt lat="31.545478983034734" lon="-6.27244942949654"><ele>2817.0</ele><time>2026-05-04T14:01:22Z</time></trkpt><trkpt lat="31.545345518160815" lon="-6.272494895024796"><ele>2823.0</ele><time>2026-05-04T14:01:23Z</time></trkpt><trkpt lat="31.54521618940937" lon="-6.272534161110982"><ele>2829.0</ele><time>2026-05-04T14:01:24Z</time></trkpt><trkpt lat="31.545089952873287" lon="-6.272580719079883"><ele>2829.25</ele><time>2026-05-04T14:01:25Z</time></trkpt><trkpt lat="31.544965441941443" lon="-6.272629623628017"><ele>2829.5</ele><time>2026-05-04T14:01:26Z</time></trkpt><trkpt lat="31.544841181412686" lon="-6.272690031903428"><ele>2829.75</ele><time>2026-05-04T14:01:27Z</time></trkpt><trkpt lat="31.544718193994917" lon="-6.272748510900556"><ele>2830.0</ele><time>2026-05-04T14:01:28Z</time></trkpt><trkpt lat="31.544594466117097" lon="-6.2727934939219026"><ele>2832.75</ele><time>2026-05-04T14:01:29Z</time></trkpt><trkpt lat="31.544474188387795" lon="-6.272834552149025"><ele>2835.5</ele><time>2026-05-04T14:01:30Z</time></trkpt><trkpt lat="31.544346320227614" lon="-6.272872542711455"><ele>2838.25</ele><time>2026-05-04T14:01:31Z</time></trkpt><trkpt lat="31.54421929893589" lon="-6.2729181302652135"><ele>2841.0</ele><time>2026-05-04T14:01:32Z</time></trkpt><trkpt lat="31.544098904093506" lon="-6.272954433626414"><ele>2841.0</ele><time>2026-05-04T14:01:33Z</time></trkpt><trkpt lat="31.543994770656763" lon="-6.272981966816649"><ele>2841.0</ele><time>2026-05-04T14:01:34Z</time></trkpt><trkpt lat="31.543909509754826" lon="-6.273006518005808"><ele>2841.0</ele><time>2026-05-04T14:01:35Z</time></trkpt><trkpt lat="31.543831037775355" lon="-6.27302353977545"><ele>2841.0</ele><time>2026-05-04T14:01:36Z</time></trkpt><trkpt lat="31.543757189537185" lon="-6.273035486127775"><ele>2841.0</ele><time>2026-05-04T14:01:37Z</time></trkpt><trkpt lat="31.543662306284695" lon="-6.273016363673983"><ele>2841.0</ele><time>2026-05-04T14:01:38Z</time></trkpt><trkpt lat="31.5435799839761" lon="-6.272933155422179"><ele>2844.0</ele><time>2026-05-04T14:01:39Z</time></trkpt><trkpt lat="31.543523524812493" lon="-6.272849258898901"><ele>2847.0</ele><time>2026-05-04T14:01:40Z</time></trkpt><trkpt lat="31.54346708939599" lon="-6.272758937973047"><ele>2850.0</ele><time>2026-05-04T14:01:41Z</time></trkpt><trkpt lat="31.543416336474802" lon="-6.272674903048648"><ele>2853.0</ele><time>2026-05-04T14:01:42Z</time></trkpt><trkpt lat="31.543366505999686" lon="-6.2725959103801205"><ele>2856.0</ele><time>2026-05-04T14:01:43Z</time></trkpt><trkpt lat="31.543310707279417" lon="-6.272513477688272"><ele>2859.0</ele><time>2026-05-04T14:01:44Z</time></trkpt><trkpt lat="31.543253603803418" lon="-6.2724366234931175"><ele>2859.0</ele><time>2026-05-04T14:01:45Z</time></trkpt><trkpt lat="31.54318291296246" lon="-6.272354595732689"><ele>2859.0</ele><time>2026-05-04T14:01:46Z</time></trkpt><trkpt lat="31.543109688546373" lon="-6.272281305196879"><ele>2859.0</ele><time>2026-05-04T14:01:47Z</time></trkpt><trkpt lat="31.543031569890513" lon="-6.272209397182071"><ele>2859.0</ele><time>2026-05-04T14:01:48Z</time></trkpt><trkpt lat="31.54295677588194" lon="-6.27215488331024"><ele>2859.0</ele><time>2026-05-04T14:01:49Z</time></trkpt><trkpt lat="31.54288163120923" lon="-6.2721018117942915"><ele>2861.5</ele><time>2026-05-04T14:01:50Z</time></trkpt><trkpt lat="31.54281649486937" lon="-6.272078039770585"><ele>2864.0</ele><time>2026-05-04T14:01:51Z</time></trkpt><trkpt lat="31.542744436643247" lon="-6.272049840341906"><ele>2866.5</ele><time>2026-05-04T14:01:52Z</time></trkpt><trkpt lat="31.542613014372687" lon="-6.272034058630489"><ele>2869.0</ele><time>2026-05-04T14:01:54Z</time></trkpt><trkpt lat="31.542532272172586" lon="-6.272033162454622"><ele>2871.5</ele><time>2026-05-04T14:01:55Z</time></trkpt><trkpt lat="31.54244203516687" lon="-6.272034545983026"><ele>2874.0</ele><time>2026-05-04T14:01:56Z</time></trkpt><trkpt lat="31.54235326500032" lon="-6.272039858930602"><ele>2874.0</ele><time>2026-05-04T14:01:57Z</time></trkpt><trkpt lat="31.54227961341351" lon="-6.272046985279561"><ele>2874.0</ele><time>2026-05-04T14:01:58Z</time></trkpt><trkpt lat="31.542170951667796" lon="-6.272052232909024"><ele>2874.0</ele><time>2026-05-04T14:02:00Z</time></trkpt><trkpt lat="31.542129463163796" lon="-6.272175183018258"><ele>2874.0</ele><time>2026-05-04T14:02:02Z</time></trkpt><trkpt lat="31.5421938855761" lon="-6.272306629415221"><ele>2874.0</ele><time>2026-05-04T14:02:04Z</time></trkpt><trkpt lat="31.54225318093269" lon="-6.272372574867956"><ele>2873.3333333333335</ele><time>2026-05-04T14:02:05Z</time></trkpt><trkpt lat="31.542335795567613" lon="-6.272424701562752"><ele>2872.6666666666665</ele><time>2026-05-04T14:02:06Z</time></trkpt><trkpt lat="31.54242679795545" lon="-6.2724617575306905"><ele>2872.0</ele><time>2026-05-04T14:02:07Z</time></trkpt><trkpt lat="31.542515551938664" lon="-6.272493651415826"><ele>2871.333333333333</ele><time>2026-05-04T14:02:08Z</time></trkpt><trkpt lat="31.542596224866177" lon="-6.272525524304766"><ele>2870.6666666666665</ele><time>2026-05-04T14:02:09Z</time></trkpt><trkpt lat="31.54266933175552" lon="-6.272552155449531"><ele>2870.0</ele><time>2026-05-04T14:02:10Z</time></trkpt><trkpt lat="31.542729350589997" lon="-6.272579599843069"><ele>2870.0</ele><time>2026-05-04T14:02:11Z</time></trkpt><trkpt lat="31.542774620598493" lon="-6.272675406113635"><ele>2870.0</ele><time>2026-05-04T14:02:13Z</time></trkpt><trkpt lat="31.542721188561696" lon="-6.272786887439952"><ele>2870.0</ele><time>2026-05-04T14:02:15Z</time></trkpt><trkpt lat="31.542654161018586" lon="-6.27280366807386"><ele>2870.0</ele><time>2026-05-04T14:02:16Z</time></trkpt><trkpt lat="31.542586111813915" lon="-6.272824473588162"><ele>2870.0</ele><time>2026-05-04T14:02:17Z</time></trkpt><trkpt lat="31.542491515294376" lon="-6.272797875864891"><ele>2870.0</ele><time>2026-05-04T14:02:18Z</time></trkpt><trkpt lat="31.542394397322283" lon="-6.272779566364588"><ele>2870.0</ele><time>2026-05-04T14:02:19Z</time></trkpt><trkpt lat="31.542296942451575" lon="-6.272756904071338"><ele>2870.0</ele><time>2026-05-04T14:02:20Z</time></trkpt><trkpt lat="31.542189539747834" lon="-6.272722532023799"><ele>2870.0</ele><time>2026-05-04T14:02:21Z</time></trkpt><trkpt lat="31.542078620208905" lon="-6.272684193221211"><ele>2870.0</ele><time>2026-05-04T14:02:22Z</time></trkpt><trkpt lat="31.54195636229731" lon="-6.2726373562244655"><ele>2873.0</ele><time>2026-05-04T14:02:23Z</time></trkpt><trkpt lat="31.54185523263526" lon="-6.272584763469677"><ele>2876.0</ele><time>2026-05-04T14:02:24Z</time></trkpt><trkpt lat="31.541759424605377" lon="-6.2725348887565735"><ele>2879.0</ele><time>2026-05-04T14:02:25Z</time></trkpt><trkpt lat="31.541657211753204" lon="-6.27248100264118"><ele>2882.0</ele><time>2026-05-04T14:02:26Z</time></trkpt><trkpt lat="31.541548808167825" lon="-6.272429289602811"><ele>2885.0</ele><time>2026-05-04T14:02:27Z</time></trkpt><trkpt lat="31.54143967613647" lon="-6.272383385723621"><ele>2885.0</ele><time>2026-05-04T14:02:28Z</time></trkpt><trkpt lat="31.541344136381582" lon="-6.272357368872003"><ele>2885.0</ele><time>2026-05-04T14:02:29Z</time></trkpt><trkpt lat="31.541257924560895" lon="-6.27234163410228"><ele>2885.0</ele><time>2026-05-04T14:02:30Z</time></trkpt><trkpt lat="31.54118776606944" lon="-6.2723336013425905"><ele>2885.0</ele><time>2026-05-04T14:02:31Z</time></trkpt><trkpt lat="31.54108966599814" lon="-6.272349506362355"><ele>2885.0</ele><time>2026-05-04T14:02:33Z</time></trkpt><trkpt lat="31.541078335821254" lon="-6.272472181123427"><ele>2885.0</ele><time>2026-05-04T14:02:35Z</time></trkpt><trkpt lat="31.54119772486113" lon="-6.2725769777264215"><ele>2885.0</ele><time>2026-05-04T14:02:37Z</time></trkpt><trkpt lat="31.54127742852403" lon="-6.272649579021063"><ele>2885.0</ele><time>2026-05-04T14:02:38Z</time></trkpt><trkpt lat="31.541371846700613" lon="-6.272734839995095"><ele>2885.0</ele><time>2026-05-04T14:02:39Z</time></trkpt><trkpt lat="31.54148409994437" lon="-6.272819590381045"><ele>2885.0</ele><time>2026-05-04T14:02:40Z</time></trkpt><trkpt lat="31.541590343853482" lon="-6.272902507674829"><ele>2885.0</ele><time>2026-05-04T14:02:40.999Z</time></trkpt><trkpt lat="31.541680865771383" lon="-6.272982981216317"><ele>2885.0</ele><time>2026-05-04T14:02:41.999Z</time></trkpt><trkpt lat="31.541751214454656" lon="-6.2730510082594675"><ele>2885.0</ele><time>2026-05-04T14:02:42.999Z</time></trkpt><trkpt lat="31.541807769680364" lon="-6.273104413679341"><ele>2885.0</ele><time>2026-05-04T14:02:43.999Z</time></trkpt><trkpt lat="31.541857573543542" lon="-6.273207816122316"><ele>2890.8</ele><time>2026-05-04T14:02:45.999Z</time></trkpt><trkpt lat="31.541809607493196" lon="-6.273319341707428"><ele>2896.6</ele><time>2026-05-04T14:02:47.999Z</time></trkpt><trkpt lat="31.541749076405004" lon="-6.2733615450430555"><ele>2902.3999999999996</ele><time>2026-05-04T14:02:48.999Z</time></trkpt><trkpt lat="31.541664442996737" lon="-6.273388821161205"><ele>2908.2</ele><time>2026-05-04T14:02:49.999Z</time></trkpt><trkpt lat="31.541544626279453" lon="-6.2733630489682914"><ele>2914.0</ele><time>2026-05-04T14:02:50.999Z</time></trkpt><trkpt lat="31.541416443762795" lon="-6.273284039717865"><ele>2914.0</ele><time>2026-05-04T14:02:51.999Z</time></trkpt><trkpt lat="31.541294871982373" lon="-6.273218806992469"><ele>2914.0</ele><time>2026-05-04T14:02:52.999Z</time></trkpt><trkpt lat="31.54116062338978" lon="-6.273151606921383"><ele>2914.0</ele><time>2026-05-04T14:02:53.999Z</time></trkpt><trkpt lat="31.541020075101446" lon="-6.273055984003481"><ele>2914.0</ele><time>2026-05-04T14:02:54.999Z</time></trkpt><trkpt lat="31.540890321533126" lon="-6.272980054579528"><ele>2916.0</ele><time>2026-05-04T14:02:55.999Z</time></trkpt><trkpt lat="31.540763537571657" lon="-6.272919292153528"><ele>2918.0</ele><time>2026-05-04T14:02:56.999Z</time></trkpt><trkpt lat="31.540639900807594" lon="-6.2728632034164375"><ele>2920.0</ele><time>2026-05-04T14:02:58Z</time></trkpt><trkpt lat="31.54050372875905" lon="-6.272803233698635"><ele>2922.0</ele><time>2026-05-04T14:02:59Z</time></trkpt><trkpt lat="31.54038216427358" lon="-6.272728139686342"><ele>2922.0</ele><time>2026-05-04T14:03:00Z</time></trkpt><trkpt lat="31.540263971311425" lon="-6.272654953982188"><ele>2922.0</ele><time>2026-05-04T14:03:01Z</time></trkpt><trkpt lat="31.54015164459483" lon="-6.272576625310702"><ele>2922.0</ele><time>2026-05-04T14:03:02Z</time></trkpt><trkpt lat="31.540059168215247" lon="-6.27252415050777"><ele>2922.0</ele><time>2026-05-04T14:03:03Z</time></trkpt><trkpt lat="31.53996594178057" lon="-6.272476449322823"><ele>2922.0</ele><time>2026-05-04T14:03:04Z</time></trkpt><trkpt lat="31.539905164801773" lon="-6.272433563216076"><ele>2922.0</ele><time>2026-05-04T14:03:05Z</time></trkpt><trkpt lat="31.53980763452619" lon="-6.272409549508076"><ele>2922.0</ele><time>2026-05-04T14:03:07Z</time></trkpt><trkpt lat="31.539787926087616" lon="-6.272481783029058"><ele>2922.0</ele><time>2026-05-04T14:03:08Z</time></trkpt><trkpt lat="31.5398084608471" lon="-6.272559931524125"><ele>2922.0</ele><time>2026-05-04T14:03:09Z</time></trkpt><trkpt lat="31.53984118363798" lon="-6.272627234103347"><ele>2922.0</ele><time>2026-05-04T14:03:10Z</time></trkpt><trkpt lat="31.539945165351106" lon="-6.2726690285033735"><ele>2922.0</ele><time>2026-05-04T14:03:11Z</time></trkpt><trkpt lat="31.540038878716036" lon="-6.272729285706188"><ele>2922.0</ele><time>2026-05-04T14:03:12Z</time></trkpt><trkpt lat="31.54013470443238" lon="-6.272814756068122"><ele>2922.0</ele><time>2026-05-04T14:03:13Z</time></trkpt><trkpt lat="31.54022436411355" lon="-6.272904148571866"><ele>2922.0</ele><time>2026-05-04T14:03:14Z</time></trkpt><trkpt lat="31.54030693962793" lon="-6.2729940234920765"><ele>2922.0</ele><time>2026-05-04T14:03:15Z</time></trkpt><trkpt lat="31.54038296543808" lon="-6.273072648456506"><ele>2922.0</ele><time>2026-05-04T14:03:16Z</time></trkpt><trkpt lat="31.54044454588044" lon="-6.273135320551458"><ele>2922.0</ele><time>2026-05-04T14:03:17Z</time></trkpt><trkpt lat="31.540492152199302" lon="-6.273191519513527"><ele>2922.0</ele><time>2026-05-04T14:03:18Z</time></trkpt><trkpt lat="31.54051986051238" lon="-6.27331485470075"><ele>2922.0</ele><time>2026-05-04T14:03:20Z</time></trkpt><trkpt lat="31.54043074894379" lon="-6.273398931269497"><ele>2926.0</ele><time>2026-05-04T14:03:22Z</time></trkpt><trkpt lat="31.540362863772643" lon="-6.273428446290687"><ele>2930.0</ele><time>2026-05-04T14:03:23Z</time></trkpt><trkpt lat="31.540270732232074" lon="-6.27343917203747"><ele>2934.0</ele><time>2026-05-04T14:03:24Z</time></trkpt><trkpt lat="31.540163642337408" lon="-6.273416142720074"><ele>2938.0</ele><time>2026-05-04T14:03:25Z</time></trkpt><trkpt lat="31.54005539299865" lon="-6.273375761241568"><ele>2942.0</ele><time>2026-05-04T14:03:26Z</time></trkpt><trkpt lat="31.539940072257394" lon="-6.273304983746549"><ele>2942.0</ele><time>2026-05-04T14:03:27Z</time></trkpt><trkpt lat="31.539831272837464" lon="-6.273226324528537"><ele>2942.0</ele><time>2026-05-04T14:03:28Z</time></trkpt><trkpt lat="31.53971810544119" lon="-6.273158686593"><ele>2942.0</ele><time>2026-05-04T14:03:29Z</time></trkpt><trkpt lat="31.539587064667305" lon="-6.273095935898817"><ele>2942.0</ele><time>2026-05-04T14:03:30Z</time></trkpt><trkpt lat="31.539440354936893" lon="-6.273052199843886"><ele>2941.0</ele><time>2026-05-04T14:03:31Z</time></trkpt><trkpt lat="31.53931608024446" lon="-6.273004586679879"><ele>2940.0</ele><time>2026-05-04T14:03:32Z</time></trkpt><trkpt lat="31.5392019993122" lon="-6.272968290001987"><ele>2939.0</ele><time>2026-05-04T14:03:33Z</time></trkpt><trkpt lat="31.539099734621587" lon="-6.272915081098568"><ele>2938.0</ele><time>2026-05-04T14:03:34Z</time></trkpt><trkpt lat="31.539021291945758" lon="-6.272875225964134"><ele>2937.0</ele><time>2026-05-04T14:03:35Z</time></trkpt><trkpt lat="31.538951767174805" lon="-6.272832998706356"><ele>2937.0</ele><time>2026-05-04T14:03:36Z</time></trkpt><trkpt lat="31.538871684022066" lon="-6.2727952646669145"><ele>2937.0</ele><time>2026-05-04T14:03:38Z</time></trkpt><trkpt lat="31.538847087870845" lon="-6.272863874344042"><ele>2937.0</ele><time>2026-05-04T14:03:39Z</time></trkpt><trkpt lat="31.538904114917063" lon="-6.273006800042615"><ele>2937.0</ele><time>2026-05-04T14:03:41Z</time></trkpt><trkpt lat="31.538993998668897" lon="-6.273034530050189"><ele>2937.0</ele><time>2026-05-04T14:03:42Z</time></trkpt><trkpt lat="31.539078143063108" lon="-6.273086043116049"><ele>2943.75</ele><time>2026-05-04T14:03:43Z</time></trkpt><trkpt lat="31.539168897852395" lon="-6.273141090887509"><ele>2950.5</ele><time>2026-05-04T14:03:44Z</time></trkpt><trkpt lat="31.53928214322389" lon="-6.273207496377452"><ele>2957.25</ele><time>2026-05-04T14:03:45Z</time></trkpt><trkpt lat="31.539403864975366" lon="-6.273284712843364"><ele>2964.0</ele><time>2026-05-04T14:03:46Z</time></trkpt><trkpt lat="31.539518320126287" lon="-6.273361309036941"><ele>2959.6</ele><time>2026-05-04T14:03:47Z</time></trkpt><trkpt lat="31.53961808687069" lon="-6.273425470527929"><ele>2955.2</ele><time>2026-05-04T14:03:48Z</time></trkpt><trkpt lat="31.53971214065845" lon="-6.273488788153615"><ele>2950.7999999999997</ele><time>2026-05-04T14:03:49Z</time></trkpt><trkpt lat="31.53979249516725" lon="-6.273545735484777"><ele>2946.3999999999996</ele><time>2026-05-04T14:03:50Z</time></trkpt><trkpt lat="31.539855488340415" lon="-6.273597422074352"><ele>2942.0</ele><time>2026-05-04T14:03:51Z</time></trkpt><trkpt lat="31.539905747969744" lon="-6.273643999145027"><ele>2942.0</ele><time>2026-05-04T14:03:52Z</time></trkpt><trkpt lat="31.539947052848813" lon="-6.273750723808828"><ele>2942.0</ele><time>2026-05-04T14:03:54Z</time></trkpt><trkpt lat="31.53985858287496" lon="-6.273833533450712"><ele>2942.0</ele><time>2026-05-04T14:03:56Z</time></trkpt><trkpt lat="31.539801048490208" lon="-6.273867305066338"><ele>2942.0</ele><time>2026-05-04T14:03:57Z</time></trkpt><trkpt lat="31.53971644953483" lon="-6.273885231336989"><ele>2942.0</ele><time>2026-05-04T14:03:58Z</time></trkpt><trkpt lat="31.53962286489903" lon="-6.2738765102720615"><ele>2946.3999999999996</ele><time>2026-05-04T14:03:59Z</time></trkpt><trkpt lat="31.539544851478183" lon="-6.273847755268161"><ele>2950.7999999999997</ele><time>2026-05-04T14:04:00Z</time></trkpt><trkpt lat="31.539463944373967" lon="-6.273817933767595"><ele>2955.2</ele><time>2026-05-04T14:04:01Z</time></trkpt><trkpt lat="31.53936653270316" lon="-6.273784932882469"><ele>2959.6</ele><time>2026-05-04T14:04:02Z</time></trkpt><trkpt lat="31.539252184539496" lon="-6.273749786381534"><ele>2964.0</ele><time>2026-05-04T14:04:03Z</time></trkpt><trkpt lat="31.53912217726074" lon="-6.273722720245763"><ele>2964.0</ele><time>2026-05-04T14:04:04Z</time></trkpt><trkpt lat="31.538990800071677" lon="-6.273687632975522"><ele>2964.0</ele><time>2026-05-04T14:04:05Z</time></trkpt><trkpt lat="31.538845439232826" lon="-6.2736507098544125"><ele>2964.0</ele><time>2026-05-04T14:04:06Z</time></trkpt><trkpt lat="31.538700619538595" lon="-6.273616199749631"><ele>2964.0</ele><time>2026-05-04T14:04:07Z</time></trkpt><trkpt lat="31.538560547740197" lon="-6.27358200703574"><ele>2969.25</ele><time>2026-05-04T14:04:08Z</time></trkpt><trkpt lat="31.538432753759707" lon="-6.273547145597387"><ele>2974.5</ele><time>2026-05-04T14:04:09Z</time></trkpt><trkpt lat="31.538311693140315" lon="-6.273511556680615"><ele>2979.75</ele><time>2026-05-04T14:04:10Z</time></trkpt><trkpt lat="31.538202469137847" lon="-6.273474394672139"><ele>2985.0</ele><time>2026-05-04T14:04:11Z</time></trkpt><trkpt lat="31.538093422965787" lon="-6.273436468599698"><ele>2985.0</ele><time>2026-05-04T14:04:12Z</time></trkpt><trkpt lat="31.537989989840142" lon="-6.27339645732464"><ele>2985.0</ele><time>2026-05-04T14:04:13Z</time></trkpt><trkpt lat="31.53789105780389" lon="-6.273364559839898"><ele>2985.0</ele><time>2026-05-04T14:04:14Z</time></trkpt><trkpt lat="31.537783986481546" lon="-6.273339779938475"><ele>2985.0</ele><time>2026-05-04T14:04:15Z</time></trkpt><trkpt lat="31.53767529571871" lon="-6.273303461123826"><ele>2985.0</ele><time>2026-05-04T14:04:16Z</time></trkpt><trkpt lat="31.537574371231138" lon="-6.27326552767636"><ele>2987.4</ele><time>2026-05-04T14:04:17Z</time></trkpt><trkpt lat="31.537478255035104" lon="-6.273227632408842"><ele>2989.8</ele><time>2026-05-04T14:04:18Z</time></trkpt><trkpt lat="31.537394313274604" lon="-6.273200743540596"><ele>2992.2</ele><time>2026-05-04T14:04:19Z</time></trkpt><trkpt lat="31.537325548306935" lon="-6.273181403038723"><ele>2994.6</ele><time>2026-05-04T14:04:20Z</time></trkpt><trkpt lat="31.53721190313501" lon="-6.273130532586331"><ele>2997.0</ele><time>2026-05-04T14:04:22Z</time></trkpt><trkpt lat="31.53713785029514" lon="-6.273133313088823"><ele>2997.0</ele><time>2026-05-04T14:04:24Z</time></trkpt><trkpt lat="31.53707362443117" lon="-6.273141838816852"><ele>2997.0</ele><time>2026-05-04T14:04:34Z</time></trkpt><trkpt lat="31.53699704121285" lon="-6.273220323523359"><ele>2997.0</ele><time>2026-05-04T14:05:23Z</time></trkpt><trkpt lat="31.537045018967657" lon="-6.273171826552864"><ele>2997.0</ele><time>2026-05-04T14:05:40Z</time></trkpt><trkpt lat="31.536956203938306" lon="-6.273147312855493"><ele>2997.0</ele><time>2026-05-04T14:05:58Z</time></trkpt><trkpt lat="31.537014336796215" lon="-6.273117744990333"><ele>2997.0</ele><time>2026-05-04T14:06:11Z</time></trkpt><trkpt lat="31.53698999125108" lon="-6.273189143349726"><ele>2994.0</ele><time>2026-05-04T14:06:39.999Z</time></trkpt><trkpt lat="31.536959486953936" lon="-6.273269558421417"><ele>2991.0</ele><time>2026-05-04T14:06:41.999Z</time></trkpt><trkpt lat="31.53692250229877" lon="-6.273390919919758"><ele>2988.0</ele><time>2026-05-04T14:06:43.999Z</time></trkpt><trkpt lat="31.536880121882344" lon="-6.2734820579770325"><ele>2985.0</ele><time>2026-05-04T14:06:44.999Z</time></trkpt><trkpt lat="31.536819326240476" lon="-6.273577816332105"><ele>2982.0</ele><time>2026-05-04T14:06:45.999Z</time></trkpt><trkpt lat="31.5367572518135" lon="-6.273669015872027"><ele>2982.0</ele><time>2026-05-04T14:06:46.999Z</time></trkpt><trkpt lat="31.53669941581989" lon="-6.273746067703262"><ele>2982.0</ele><time>2026-05-04T14:06:47.999Z</time></trkpt><trkpt lat="31.536647306420512" lon="-6.273818964397908"><ele>2982.0</ele><time>2026-05-04T14:06:48.999Z</time></trkpt><trkpt lat="31.536598286470593" lon="-6.273887002761217"><ele>2982.0</ele><time>2026-05-04T14:06:49.999Z</time></trkpt><trkpt lat="31.536547849037383" lon="-6.273953449992756"><ele>2982.0</ele><time>2026-05-04T14:06:50.999Z</time></trkpt><trkpt lat="31.536500842063333" lon="-6.274013370700738"><ele>2982.0</ele><time>2026-05-04T14:06:51.999Z</time></trkpt><trkpt lat="31.53645846934957" lon="-6.274076552705528"><ele>2984.8571428571427</ele><time>2026-05-04T14:06:52.999Z</time></trkpt><trkpt lat="31.536418394982153" lon="-6.274146606071417"><ele>2987.714285714286</ele><time>2026-05-04T14:06:53.999Z</time></trkpt><trkpt lat="31.53637545479237" lon="-6.274213410125668"><ele>2990.5714285714284</ele><time>2026-05-04T14:06:54.999Z</time></trkpt><trkpt lat="31.536331121779185" lon="-6.274280866826403"><ele>2993.4285714285716</ele><time>2026-05-04T14:06:55.999Z</time></trkpt><trkpt lat="31.536287757118952" lon="-6.274352612298969"><ele>2996.285714285714</ele><time>2026-05-04T14:06:56.999Z</time></trkpt><trkpt lat="31.536248772203063" lon="-6.274422147068118"><ele>2999.142857142857</ele><time>2026-05-04T14:06:57.999Z</time></trkpt><trkpt lat="31.536202247649157" lon="-6.274495683416479"><ele>3002.0</ele><time>2026-05-04T14:06:58.999Z</time></trkpt><trkpt lat="31.536152963962824" lon="-6.274572479708713"><ele>2990.0</ele><time>2026-05-04T14:06:59.999Z</time></trkpt><trkpt lat="31.536105412578305" lon="-6.274649661551909"><ele>2978.0</ele><time>2026-05-04T14:07:00.999Z</time></trkpt><trkpt lat="31.53605559084377" lon="-6.274734902312055"><ele>2966.0</ele><time>2026-05-04T14:07:01.999Z</time></trkpt><trkpt lat="31.5360136504949" lon="-6.2748342182866335"><ele>2954.0</ele><time>2026-05-04T14:07:02.999Z</time></trkpt><trkpt lat="31.535983282018975" lon="-6.274940316037608"><ele>2942.0</ele><time>2026-05-04T14:07:03.999Z</time></trkpt><trkpt lat="31.535951550641776" lon="-6.27505795998484"><ele>2942.0</ele><time>2026-05-04T14:07:04.999Z</time></trkpt><trkpt lat="31.535916701518158" lon="-6.27517603512645"><ele>2942.0</ele><time>2026-05-04T14:07:05.999Z</time></trkpt><trkpt lat="31.535877821860005" lon="-6.275285591006938"><ele>2942.0</ele><time>2026-05-04T14:07:06.999Z</time></trkpt><trkpt lat="31.53583134336072" lon="-6.275390464808653"><ele>2942.0</ele><time>2026-05-04T14:07:07.999Z</time></trkpt><trkpt lat="31.535780577545967" lon="-6.275499607442519"><ele>2942.0</ele><time>2026-05-04T14:07:08.999Z</time></trkpt><trkpt lat="31.535721936934088" lon="-6.275609048563511"><ele>2942.0</ele><time>2026-05-04T14:07:10Z</time></trkpt><trkpt lat="31.535669441451713" lon="-6.2757129150289"><ele>2942.0</ele><time>2026-05-04T14:07:11Z</time></trkpt><trkpt lat="31.535617244019853" lon="-6.275813778147124"><ele>2942.0</ele><time>2026-05-04T14:07:12Z</time></trkpt><trkpt lat="31.535568527413208" lon="-6.275909390665224"><ele>2942.0</ele><time>2026-05-04T14:07:13Z</time></trkpt><trkpt lat="31.535516498201623" lon="-6.2760007119417685"><ele>2942.0</ele><time>2026-05-04T14:07:14Z</time></trkpt><trkpt lat="31.53546395657531" lon="-6.276086022284888"><ele>2944.1666666666665</ele><time>2026-05-04T14:07:15Z</time></trkpt><trkpt lat="31.53541391770674" lon="-6.276165935170988"><ele>2946.333333333333</ele><time>2026-05-04T14:07:16Z</time></trkpt><trkpt lat="31.535360565737978" lon="-6.276235781591641"><ele>2948.5</ele><time>2026-05-04T14:07:17Z</time></trkpt><trkpt lat="31.53530830121477" lon="-6.276305718150415"><ele>2950.6666666666665</ele><time>2026-05-04T14:07:18Z</time></trkpt><trkpt lat="31.535261835467466" lon="-6.276378499930411"><ele>2952.8333333333335</ele><time>2026-05-04T14:07:19Z</time></trkpt><trkpt lat="31.535220352402796" lon="-6.276449932352208"><ele>2955.0</ele><time>2026-05-04T14:07:20Z</time></trkpt><trkpt lat="31.535187839622854" lon="-6.276529796644323"><ele>2955.0</ele><time>2026-05-04T14:07:21Z</time></trkpt><trkpt lat="31.535160249142447" lon="-6.276621839553346"><ele>2955.0</ele><time>2026-05-04T14:07:22Z</time></trkpt><trkpt lat="31.535123471037117" lon="-6.276706001375038"><ele>2955.0</ele><time>2026-05-04T14:07:23Z</time></trkpt><trkpt lat="31.535094728264255" lon="-6.2768002893882695"><ele>2955.0</ele><time>2026-05-04T14:07:24Z</time></trkpt><trkpt lat="31.535074888804964" lon="-6.276891897752237"><ele>2955.0</ele><time>2026-05-04T14:07:25Z</time></trkpt><trkpt lat="31.53505333463496" lon="-6.276970825547474"><ele>2955.0</ele><time>2026-05-04T14:07:26Z</time></trkpt><trkpt lat="31.53503314131829" lon="-6.277045339317717"><ele>2955.0</ele><time>2026-05-04T14:07:27Z</time></trkpt><trkpt lat="31.534987325840838" lon="-6.2771058358810805"><ele>2955.0</ele><time>2026-05-04T14:07:29Z</time></trkpt><trkpt lat="31.53491763527335" lon="-6.27711452037107"><ele>2955.0</ele><time>2026-05-04T14:07:41Z</time></trkpt><trkpt lat="31.534866808853664" lon="-6.277034491321302"><ele>2955.0</ele><time>2026-05-04T14:07:43Z</time></trkpt><trkpt lat="31.53485335830595" lon="-6.276955043131005"><ele>2955.0</ele><time>2026-05-04T14:07:45Z</time></trkpt><trkpt lat="31.53484729332201" lon="-6.276879075200858"><ele>2955.0</ele><time>2026-05-04T14:07:52Z</time></trkpt><trkpt lat="31.534856118880658" lon="-6.276750330594073"><ele>2955.0</ele><time>2026-05-04T14:07:54Z</time></trkpt><trkpt lat="31.53486838647489" lon="-6.276623507863859"><ele>2955.0</ele><time>2026-05-04T14:07:56Z</time></trkpt><trkpt lat="31.53488231699247" lon="-6.276509189896526"><ele>2955.0</ele><time>2026-05-04T14:07:58Z</time></trkpt><trkpt lat="31.53489145755893" lon="-6.276433640091161"><ele>2955.0</ele><time>2026-05-04T14:08:00Z</time></trkpt><trkpt lat="31.53490364689599" lon="-6.276334101202768"><ele>2955.0</ele><time>2026-05-04T14:08:20.999Z</time></trkpt><trkpt lat="31.53491814258241" lon="-6.276257416904636"><ele>2955.0</ele><time>2026-05-04T14:08:21.999Z</time></trkpt><trkpt lat="31.53493470553257" lon="-6.276169796585468"><ele>2955.0</ele><time>2026-05-04T14:08:22.999Z</time></trkpt><trkpt lat="31.534953966074948" lon="-6.276070970225512"><ele>2955.0</ele><time>2026-05-04T14:08:23.999Z</time></trkpt><trkpt lat="31.534975504424164" lon="-6.275967272660151"><ele>2955.0</ele><time>2026-05-04T14:08:24.999Z</time></trkpt><trkpt lat="31.53499959999596" lon="-6.275867680814552"><ele>2955.0</ele><time>2026-05-04T14:08:25.999Z</time></trkpt><trkpt lat="31.535020362580997" lon="-6.275781864970651"><ele>2955.0</ele><time>2026-05-04T14:08:26.999Z</time></trkpt><trkpt lat="31.535056679607248" lon="-6.275675944786988"><ele>2955.0</ele><time>2026-05-04T14:08:27.999Z</time></trkpt><trkpt lat="31.535086574466415" lon="-6.275588284079404"><ele>2955.0000000000005</ele><time>2026-05-04T14:08:28.999Z</time></trkpt><trkpt lat="31.535106519443957" lon="-6.275511752202207"><ele>2955.0</ele><time>2026-05-04T14:08:29.999Z</time></trkpt><trkpt lat="31.53512943275567" lon="-6.2754182628673485"><ele>2955.0</ele><time>2026-05-04T14:08:30.999Z</time></trkpt><trkpt lat="31.535152331055947" lon="-6.2753248348165585"><ele>2955.0</ele><time>2026-05-04T14:08:31.999Z</time></trkpt><trkpt lat="31.535171062920867" lon="-6.275248406342274"><ele>2955.0</ele><time>2026-05-04T14:08:32.999Z</time></trkpt><trkpt lat="31.535191325181877" lon="-6.275165733644334"><ele>2955.0000000000005</ele><time>2026-05-04T14:08:33.999Z</time></trkpt><trkpt lat="31.535211017549184" lon="-6.27508538620903"><ele>2955.0</ele><time>2026-05-04T14:08:34.999Z</time></trkpt><trkpt lat="31.535233749928096" lon="-6.274993044233617"><ele>2944.2</ele><time>2026-05-04T14:08:35.999Z</time></trkpt><trkpt lat="31.535259506757527" lon="-6.274887890812664"><ele>2933.4</ele><time>2026-05-04T14:08:36.999Z</time></trkpt><trkpt lat="31.535284772768986" lon="-6.2747783897049905"><ele>2922.6000000000004</ele><time>2026-05-04T14:08:37.999Z</time></trkpt><trkpt lat="31.535312695162794" lon="-6.274657376047372"><ele>2911.8</ele><time>2026-05-04T14:08:38.999Z</time></trkpt><trkpt lat="31.535336061870872" lon="-6.2745430441198975"><ele>2901.0</ele><time>2026-05-04T14:08:39.999Z</time></trkpt><trkpt lat="31.53534770464587" lon="-6.274439127778389"><ele>2901.0</ele><time>2026-05-04T14:08:40.999Z</time></trkpt><trkpt lat="31.53535341661684" lon="-6.27431995220391"><ele>2901.0</ele><time>2026-05-04T14:08:41.999Z</time></trkpt><trkpt lat="31.53534634147786" lon="-6.274212797867136"><ele>2901.0</ele><time>2026-05-04T14:08:42.999Z</time></trkpt><trkpt lat="31.5353398204212" lon="-6.2740952516966235"><ele>2901.0</ele><time>2026-05-04T14:08:43.999Z</time></trkpt><trkpt lat="31.535333130944533" lon="-6.273974669736161"><ele>2901.0</ele><time>2026-05-04T14:08:44.999Z</time></trkpt><trkpt lat="31.535340828013407" lon="-6.2738303287380885"><ele>2900.6000000000004</ele><time>2026-05-04T14:08:45.999Z</time></trkpt><trkpt lat="31.535348054165016" lon="-6.273710709081157"><ele>2900.2</ele><time>2026-05-04T14:08:46.999Z</time></trkpt><trkpt lat="31.53537864380376" lon="-6.273588918934522"><ele>2899.8</ele><time>2026-05-04T14:08:47.999Z</time></trkpt><trkpt lat="31.53539275025055" lon="-6.2734768208274465"><ele>2899.3999999999996</ele><time>2026-05-04T14:08:48.999Z</time></trkpt><trkpt lat="31.535406056405538" lon="-6.2733710824805895"><ele>2899.0</ele><time>2026-05-04T14:08:49.999Z</time></trkpt><trkpt lat="31.535392804552302" lon="-6.273295586619118"><ele>2899.0</ele><time>2026-05-04T14:08:50.999Z</time></trkpt><trkpt lat="31.535331415340384" lon="-6.27319290465078"><ele>2899.0</ele><time>2026-05-04T14:08:52.999Z</time></trkpt><trkpt lat="31.535259857883315" lon="-6.273123829936256"><ele>2899.0</ele><time>2026-05-04T14:08:53.999Z</time></trkpt><trkpt lat="31.535181072044427" lon="-6.2730267901229855"><ele>2899.0</ele><time>2026-05-04T14:08:54.999Z</time></trkpt><trkpt lat="31.535092890116733" lon="-6.2729180278826036"><ele>2899.0</ele><time>2026-05-04T14:08:55.999Z</time></trkpt><trkpt lat="31.535001653384484" lon="-6.272808815020858"><ele>2904.0</ele><time>2026-05-04T14:08:56.999Z</time></trkpt><trkpt lat="31.534908395191678" lon="-6.272698536724944"><ele>2909.0</ele><time>2026-05-04T14:08:57.999Z</time></trkpt><trkpt lat="31.534833123720595" lon="-6.272552857731518"><ele>2914.0</ele><time>2026-05-04T14:08:58.999Z</time></trkpt><trkpt lat="31.5347893363769" lon="-6.272400193383745"><ele>2919.0</ele><time>2026-05-04T14:08:59.999Z</time></trkpt><trkpt lat="31.534715222463305" lon="-6.27231701907943"><ele>2923.0</ele><time>2026-05-04T14:09:00.999Z</time></trkpt><trkpt lat="31.534629219072013" lon="-6.272228208655269"><ele>2927.0</ele><time>2026-05-04T14:09:01.999Z</time></trkpt><trkpt lat="31.53454566958658" lon="-6.272141932273917"><ele>2931.0</ele><time>2026-05-04T14:09:02.999Z</time></trkpt><trkpt lat="31.53446722206564" lon="-6.272060924053219"><ele>2935.0</ele><time>2026-05-04T14:09:03.999Z</time></trkpt><trkpt lat="31.534564691607223" lon="-6.271763083562141"><ele>2928.0</ele><time>2026-05-04T14:09:04.999Z</time></trkpt><trkpt lat="31.53454851914897" lon="-6.27163391215157"><ele>2921.0</ele><time>2026-05-04T14:09:05.999Z</time></trkpt><trkpt lat="31.534541188286944" lon="-6.271509145403633"><ele>2914.0</ele><time>2026-05-04T14:09:06.999Z</time></trkpt><trkpt lat="31.53454389617923" lon="-6.27137794228417"><ele>2907.0</ele><time>2026-05-04T14:09:07.999Z</time></trkpt><trkpt lat="31.53455016465477" lon="-6.2712552208242025"><ele>2900.0</ele><time>2026-05-04T14:09:08.999Z</time></trkpt><trkpt lat="31.534543224156142" lon="-6.2711431299352665"><ele>2900.0</ele><time>2026-05-04T14:09:09.999Z</time></trkpt><trkpt lat="31.53451394837833" lon="-6.271041244993222"><ele>2900.0</ele><time>2026-05-04T14:09:10.999Z</time></trkpt><trkpt lat="31.534459497313332" lon="-6.270946087766781"><ele>2900.0</ele><time>2026-05-04T14:09:11.999Z</time></trkpt><trkpt lat="31.534379299647885" lon="-6.2708570509868835"><ele>2900.0</ele><time>2026-05-04T14:09:12.999Z</time></trkpt><trkpt lat="31.534272071219483" lon="-6.270776974475499"><ele>2900.0</ele><time>2026-05-04T14:09:13.999Z</time></trkpt><trkpt lat="31.534153940213866" lon="-6.270687459718801"><ele>2906.8</ele><time>2026-05-04T14:09:14.999Z</time></trkpt><trkpt lat="31.534054031366598" lon="-6.270599033636481"><ele>2913.6</ele><time>2026-05-04T14:09:16Z</time></trkpt><trkpt lat="31.533975024457362" lon="-6.270507708324115"><ele>2920.3999999999996</ele><time>2026-05-04T14:09:17Z</time></trkpt><trkpt lat="31.53391135355012" lon="-6.270421503626541"><ele>2927.2</ele><time>2026-05-04T14:09:18Z</time></trkpt><trkpt lat="31.533852321556967" lon="-6.27035524570557"><ele>2934.0</ele><time>2026-05-04T14:09:19Z</time></trkpt><trkpt lat="31.533786858492252" lon="-6.270310581913371"><ele>2931.1666666666665</ele><time>2026-05-04T14:09:20Z</time></trkpt><trkpt lat="31.533705975716536" lon="-6.270295226432286"><ele>2928.3333333333335</ele><time>2026-05-04T14:09:21Z</time></trkpt><trkpt lat="31.533617851984147" lon="-6.2702894564882445"><ele>2925.5</ele><time>2026-05-04T14:09:22Z</time></trkpt><trkpt lat="31.53352885489472" lon="-6.27031062951897"><ele>2922.666666666667</ele><time>2026-05-04T14:09:23Z</time></trkpt><trkpt lat="31.53344712286631" lon="-6.270346851107308"><ele>2919.8333333333335</ele><time>2026-05-04T14:09:24Z</time></trkpt><trkpt lat="31.53337011858435" lon="-6.27038036351587"><ele>2917.0</ele><time>2026-05-04T14:09:25Z</time></trkpt><trkpt lat="31.533294486844945" lon="-6.2704083133340545"><ele>2917.0</ele><time>2026-05-04T14:09:26Z</time></trkpt><trkpt lat="31.533222275896602" lon="-6.270429709858296"><ele>2917.0</ele><time>2026-05-04T14:09:27Z</time></trkpt><trkpt lat="31.53314774608523" lon="-6.270451873063274"><ele>2917.0</ele><time>2026-05-04T14:09:28Z</time></trkpt><trkpt lat="31.53307181327445" lon="-6.2704580549141555"><ele>2917.0</ele><time>2026-05-04T14:09:29Z</time></trkpt><trkpt lat="31.53299158015257" lon="-6.270460299665709"><ele>2917.0</ele><time>2026-05-04T14:09:30Z</time></trkpt><trkpt lat="31.53291370721666" lon="-6.270455504429811"><ele>2917.0</ele><time>2026-05-04T14:09:31Z</time></trkpt><trkpt lat="31.53282725210427" lon="-6.270442459552529"><ele>2912.3999999999996</ele><time>2026-05-04T14:09:32Z</time></trkpt><trkpt lat="31.532735885604012" lon="-6.270411758760275"><ele>2907.7999999999997</ele><time>2026-05-04T14:09:33Z</time></trkpt><trkpt lat="31.532646834470512" lon="-6.2703675060515245"><ele>2903.2</ele><time>2026-05-04T14:09:34Z</time></trkpt><trkpt lat="31.532562852047498" lon="-6.270312420009494"><ele>2898.6</ele><time>2026-05-04T14:09:35Z</time></trkpt><trkpt lat="31.532478589770037" lon="-6.270245342630859"><ele>2894.0</ele><time>2026-05-04T14:09:36Z</time></trkpt><trkpt lat="31.53239471763817" lon="-6.270174985960649"><ele>2894.0</ele><time>2026-05-04T14:09:37Z</time></trkpt><trkpt lat="31.532314832041145" lon="-6.270100227249612"><ele>2894.0</ele><time>2026-05-04T14:09:38Z</time></trkpt><trkpt lat="31.53224143914325" lon="-6.270018125640643"><ele>2894.0</ele><time>2026-05-04T14:09:39Z</time></trkpt><trkpt lat="31.532173699709826" lon="-6.269934375871304"><ele>2894.0</ele><time>2026-05-04T14:09:40Z</time></trkpt><trkpt lat="31.53210516749533" lon="-6.269856225965493"><ele>2894.0</ele><time>2026-05-04T14:09:41Z</time></trkpt><trkpt lat="31.532047539813657" lon="-6.269769560524125"><ele>2893.5</ele><time>2026-05-04T14:09:42Z</time></trkpt><trkpt lat="31.53199521212096" lon="-6.269679080216314"><ele>2893.0</ele><time>2026-05-04T14:09:43Z</time></trkpt><trkpt lat="31.531947099221593" lon="-6.269590165873323"><ele>2892.5</ele><time>2026-05-04T14:09:44Z</time></trkpt><trkpt lat="31.53189888760607" lon="-6.269497700087673"><ele>2892.0</ele><time>2026-05-04T14:09:45Z</time></trkpt><trkpt lat="31.531846216218778" lon="-6.269411230622263"><ele>2891.5</ele><time>2026-05-04T14:09:46Z</time></trkpt><trkpt lat="31.531796780968964" lon="-6.269336943282213"><ele>2891.0</ele><time>2026-05-04T14:09:47Z</time></trkpt><trkpt lat="31.531742120205962" lon="-6.269272005053446"><ele>2891.0</ele><time>2026-05-04T14:09:48Z</time></trkpt><trkpt lat="31.53168083313831" lon="-6.269214273445962"><ele>2891.0</ele><time>2026-05-04T14:09:49Z</time></trkpt><trkpt lat="31.531614467847742" lon="-6.269182466619346"><ele>2891.0</ele><time>2026-05-04T14:09:50Z</time></trkpt><trkpt lat="31.531547253418037" lon="-6.269163084694108"><ele>2891.0</ele><time>2026-05-04T14:09:51Z</time></trkpt><trkpt lat="31.53147874198459" lon="-6.269160703286016"><ele>2891.0</ele><time>2026-05-04T14:09:52Z</time></trkpt><trkpt lat="31.531391962442108" lon="-6.269258646801535"><ele>2891.0</ele><time>2026-05-04T14:09:54Z</time></trkpt><trkpt lat="31.531381467031224" lon="-6.26935066005165"><ele>2891.0</ele><time>2026-05-04T14:09:55Z</time></trkpt><trkpt lat="31.53140815807412" lon="-6.269430311486081"><ele>2891.0</ele><time>2026-05-04T14:09:56Z</time></trkpt><trkpt lat="31.53146759764865" lon="-6.269508915563663"><ele>2891.0</ele><time>2026-05-04T14:09:57Z</time></trkpt><trkpt lat="31.53153664863046" lon="-6.269584275549138"><ele>2891.0</ele><time>2026-05-04T14:09:58Z</time></trkpt><trkpt lat="31.531606686652964" lon="-6.26967232549319"><ele>2891.0</ele><time>2026-05-04T14:09:59Z</time></trkpt><trkpt lat="31.531675140935956" lon="-6.269759990749032"><ele>2883.6000000000004</ele><time>2026-05-04T14:10:00Z</time></trkpt><trkpt lat="31.531740617363287" lon="-6.269838961198235"><ele>2876.2</ele><time>2026-05-04T14:10:01Z</time></trkpt><trkpt lat="31.531801520984335" lon="-6.269916833381907"><ele>2868.8</ele><time>2026-05-04T14:10:02Z</time></trkpt><trkpt lat="31.53186087127842" lon="-6.26999609770786"><ele>2861.3999999999996</ele><time>2026-05-04T14:10:03Z</time></trkpt><trkpt lat="31.531921886600053" lon="-6.270072732366849"><ele>2854.0</ele><time>2026-05-04T14:10:04Z</time></trkpt><trkpt lat="31.53197895223402" lon="-6.2701559962009075"><ele>2854.0</ele><time>2026-05-04T14:10:05Z</time></trkpt><trkpt lat="31.532027733838145" lon="-6.270241340627395"><ele>2854.0</ele><time>2026-05-04T14:10:06Z</time></trkpt><trkpt lat="31.53207791355165" lon="-6.27032883590913"><ele>2854.0</ele><time>2026-05-04T14:10:07Z</time></trkpt><trkpt lat="31.532132367736125" lon="-6.270410705096997"><ele>2854.0</ele><time>2026-05-04T14:10:07.999Z</time></trkpt><trkpt lat="31.532197616225545" lon="-6.270483598169992"><ele>2854.0</ele><time>2026-05-04T14:10:08.999Z</time></trkpt><trkpt lat="31.532270512171365" lon="-6.270540695558552"><ele>2854.0</ele><time>2026-05-04T14:10:09.999Z</time></trkpt><trkpt lat="31.5323450229042" lon="-6.270600991499365"><ele>2854.3333333333335</ele><time>2026-05-04T14:10:10.999Z</time></trkpt><trkpt lat="31.532421545684965" lon="-6.27065225000519"><ele>2854.666666666667</ele><time>2026-05-04T14:10:11.999Z</time></trkpt><trkpt lat="31.532495755630855" lon="-6.270701366351688"><ele>2855.0</ele><time>2026-05-04T14:10:12.999Z</time></trkpt><trkpt lat="31.53256110918613" lon="-6.27075127601789"><ele>2855.3333333333335</ele><time>2026-05-04T14:10:13.999Z</time></trkpt><trkpt lat="31.532617005686085" lon="-6.2707995743227585"><ele>2855.6666666666665</ele><time>2026-05-04T14:10:14.999Z</time></trkpt><trkpt lat="31.53266521485595" lon="-6.270854892855401"><ele>2856.0</ele><time>2026-05-04T14:10:15.999Z</time></trkpt><trkpt lat="31.532695807955434" lon="-6.270931791420208"><ele>2856.0</ele><time>2026-05-04T14:10:16.999Z</time></trkpt><trkpt lat="31.53270739153858" lon="-6.271016209103783"><ele>2856.0</ele><time>2026-05-04T14:10:17.999Z</time></trkpt><trkpt lat="31.532693843618443" lon="-6.271098383448976"><ele>2856.0</ele><time>2026-05-04T14:10:18.999Z</time></trkpt><trkpt lat="31.53265482037851" lon="-6.271165939150617"><ele>2856.0</ele><time>2026-05-04T14:10:19.999Z</time></trkpt><trkpt lat="31.53259590745022" lon="-6.271206068078487"><ele>2856.0</ele><time>2026-05-04T14:10:20.999Z</time></trkpt><trkpt lat="31.532517774758865" lon="-6.271211955854324"><ele>2856.0</ele><time>2026-05-04T14:10:21.999Z</time></trkpt><trkpt lat="31.532433872907895" lon="-6.271179331563088"><ele>2856.0</ele><time>2026-05-04T14:10:22.999Z</time></trkpt><trkpt lat="31.53235543221458" lon="-6.27112255039152"><ele>2856.0</ele><time>2026-05-04T14:10:23.999Z</time></trkpt><trkpt lat="31.532282261862377" lon="-6.271040405970907"><ele>2856.0</ele><time>2026-05-04T14:10:24.999Z</time></trkpt><trkpt lat="31.53220513947334" lon="-6.270952025425457"><ele>2856.0</ele><time>2026-05-04T14:10:25.999Z</time></trkpt><trkpt lat="31.53213101970754" lon="-6.2708626739211"><ele>2856.0</ele><time>2026-05-04T14:10:26.999Z</time></trkpt><trkpt lat="31.532051198041263" lon="-6.270764443353529"><ele>2856.0</ele><time>2026-05-04T14:10:27.999Z</time></trkpt><trkpt lat="31.5319644330265" lon="-6.270661850399136"><ele>2855.5</ele><time>2026-05-04T14:10:28.999Z</time></trkpt><trkpt lat="31.531876968749792" lon="-6.2705567660215475"><ele>2855.0</ele><time>2026-05-04T14:10:29.999Z</time></trkpt><trkpt lat="31.53179132893427" lon="-6.270448129412025"><ele>2854.5</ele><time>2026-05-04T14:10:30.999Z</time></trkpt><trkpt lat="31.531708779671195" lon="-6.270340238215096"><ele>2854.0</ele><time>2026-05-04T14:10:31.999Z</time></trkpt><trkpt lat="31.531626304916276" lon="-6.270241684031683"><ele>2854.0</ele><time>2026-05-04T14:10:32.999Z</time></trkpt><trkpt lat="31.53153754474286" lon="-6.270148279011224"><ele>2854.0</ele><time>2026-05-04T14:10:33.999Z</time></trkpt><trkpt lat="31.5314425700521" lon="-6.270065386975652"><ele>2854.0</ele><time>2026-05-04T14:10:34.999Z</time></trkpt><trkpt lat="31.53134275589739" lon="-6.269988908517597"><ele>2854.0</ele><time>2026-05-04T14:10:35.999Z</time></trkpt><trkpt lat="31.53124387008741" lon="-6.269921313871343"><ele>2851.6</ele><time>2026-05-04T14:10:36.999Z</time></trkpt><trkpt lat="31.53114635894158" lon="-6.269849661679676"><ele>2849.2</ele><time>2026-05-04T14:10:37.999Z</time></trkpt><trkpt lat="31.531053753801906" lon="-6.26977132511107"><ele>2846.7999999999997</ele><time>2026-05-04T14:10:38.999Z</time></trkpt><trkpt lat="31.530975962660055" lon="-6.26969134287243"><ele>2844.3999999999996</ele><time>2026-05-04T14:10:39.999Z</time></trkpt><trkpt lat="31.530895498683787" lon="-6.2695982365348675"><ele>2842.0</ele><time>2026-05-04T14:10:40.999Z</time></trkpt><trkpt lat="31.530826242571326" lon="-6.2694932125849805"><ele>2842.0</ele><time>2026-05-04T14:10:41.999Z</time></trkpt><trkpt lat="31.530755888142288" lon="-6.269383716452338"><ele>2842.0</ele><time>2026-05-04T14:10:42.999Z</time></trkpt><trkpt lat="31.53069094292445" lon="-6.269278979414223"><ele>2842.0</ele><time>2026-05-04T14:10:43.999Z</time></trkpt><trkpt lat="31.530626772320193" lon="-6.269180502099201"><ele>2842.0</ele><time>2026-05-04T14:10:44.999Z</time></trkpt><trkpt lat="31.530562841467248" lon="-6.269077919608645"><ele>2842.0</ele><time>2026-05-04T14:10:45.999Z</time></trkpt><trkpt lat="31.530500487738593" lon="-6.268984938246742"><ele>2840.5</ele><time>2026-05-04T14:10:46.999Z</time></trkpt><trkpt lat="31.530424245643367" lon="-6.268888874619526"><ele>2839.0</ele><time>2026-05-04T14:10:47.999Z</time></trkpt><trkpt lat="31.530335882588727" lon="-6.268796515482877"><ele>2837.5</ele><time>2026-05-04T14:10:48.999Z</time></trkpt><trkpt lat="31.530242111502176" lon="-6.268707586408716"><ele>2836.0</ele><time>2026-05-04T14:10:49.999Z</time></trkpt><trkpt lat="31.530145091616717" lon="-6.2686149816478"><ele>2836.0</ele><time>2026-05-04T14:10:50.999Z</time></trkpt><trkpt lat="31.530042563143763" lon="-6.268527978572587"><ele>2836.0</ele><time>2026-05-04T14:10:51.999Z</time></trkpt><trkpt lat="31.529933827691043" lon="-6.2684471289125705"><ele>2836.0</ele><time>2026-05-04T14:10:52.999Z</time></trkpt><trkpt lat="31.529819962881152" lon="-6.268394383186281"><ele>2836.0</ele><time>2026-05-04T14:10:53.999Z</time></trkpt><trkpt lat="31.529697642820015" lon="-6.268350118274884"><ele>2836.0</ele><time>2026-05-04T14:10:54.999Z</time></trkpt><trkpt lat="31.529585675770033" lon="-6.268302173125281"><ele>2836.0</ele><time>2026-05-04T14:10:55.999Z</time></trkpt><trkpt lat="31.529477550341507" lon="-6.268244544624379"><ele>2836.0</ele><time>2026-05-04T14:10:56.999Z</time></trkpt><trkpt lat="31.52937897682229" lon="-6.268180368103582"><ele>2836.0</ele><time>2026-05-04T14:10:57.999Z</time></trkpt><trkpt lat="31.529279641290366" lon="-6.268119648173813"><ele>2838.8</ele><time>2026-05-04T14:10:58.999Z</time></trkpt><trkpt lat="31.52918046016576" lon="-6.268059571765868"><ele>2841.6000000000004</ele><time>2026-05-04T14:10:59.999Z</time></trkpt><trkpt lat="31.529081867429685" lon="-6.268006889113165"><ele>2844.4</ele><time>2026-05-04T14:11:00.999Z</time></trkpt><trkpt lat="31.528980990470806" lon="-6.267960332549261"><ele>2847.2</ele><time>2026-05-04T14:11:01.999Z</time></trkpt><trkpt lat="31.528882116911323" lon="-6.267915285086478"><ele>2850.0</ele><time>2026-05-04T14:11:02.999Z</time></trkpt><trkpt lat="31.528783168355826" lon="-6.267872942468309"><ele>2845.4</ele><time>2026-05-04T14:11:03.999Z</time></trkpt><trkpt lat="31.52867947699284" lon="-6.267828308703379"><ele>2840.8</ele><time>2026-05-04T14:11:04.999Z</time></trkpt><trkpt lat="31.528578347996312" lon="-6.267787709649111"><ele>2836.2</ele><time>2026-05-04T14:11:05.999Z</time></trkpt><trkpt lat="31.528474300853173" lon="-6.2677403508629315"><ele>2831.6</ele><time>2026-05-04T14:11:06.999Z</time></trkpt><trkpt lat="31.528374348704567" lon="-6.2676969543636085"><ele>2827.0</ele><time>2026-05-04T14:11:07.999Z</time></trkpt><trkpt lat="31.528277767417215" lon="-6.267655519329891"><ele>2827.0</ele><time>2026-05-04T14:11:08.999Z</time></trkpt><trkpt lat="31.52818463515068" lon="-6.267609828796547"><ele>2827.0</ele><time>2026-05-04T14:11:09.999Z</time></trkpt><trkpt lat="31.528095001884818" lon="-6.267556687462275"><ele>2827.0</ele><time>2026-05-04T14:11:10.999Z</time></trkpt><trkpt lat="31.528008152275532" lon="-6.2675001548705165"><ele>2827.0</ele><time>2026-05-04T14:11:11.999Z</time></trkpt><trkpt lat="31.52792514374286" lon="-6.267447950540257"><ele>2827.0</ele><time>2026-05-04T14:11:12.999Z</time></trkpt><trkpt lat="31.527847017396446" lon="-6.267388842997583"><ele>2825.8333333333335</ele><time>2026-05-04T14:11:13.999Z</time></trkpt><trkpt lat="31.527785078334254" lon="-6.267332427607397"><ele>2824.666666666667</ele><time>2026-05-04T14:11:14.999Z</time></trkpt><trkpt lat="31.527724671943833" lon="-6.267288253785043"><ele>2823.5</ele><time>2026-05-04T14:11:15.999Z</time></trkpt><trkpt lat="31.527664940417445" lon="-6.267264417091964"><ele>2822.3333333333335</ele><time>2026-05-04T14:11:16.999Z</time></trkpt><trkpt lat="31.52755279488651" lon="-6.267294819796619"><ele>2821.1666666666665</ele><time>2026-05-04T14:11:18.999Z</time></trkpt><trkpt lat="31.527517182514078" lon="-6.267361190278288"><ele>2820.0</ele><time>2026-05-04T14:11:19.999Z</time></trkpt><trkpt lat="31.527505438432154" lon="-6.267442771180094"><ele>2816.0</ele><time>2026-05-04T14:11:20.999Z</time></trkpt><trkpt lat="31.527527852999732" lon="-6.267521481200374"><ele>2812.0</ele><time>2026-05-04T14:11:22Z</time></trkpt><trkpt lat="31.527567331536392" lon="-6.267583080445343"><ele>2808.0</ele><time>2026-05-04T14:11:23Z</time></trkpt><trkpt lat="31.527625408116972" lon="-6.267627228805074"><ele>2804.0</ele><time>2026-05-04T14:11:24Z</time></trkpt><trkpt lat="31.52769292779803" lon="-6.26767957110599"><ele>2800.0</ele><time>2026-05-04T14:11:25Z</time></trkpt><trkpt lat="31.527771071959524" lon="-6.2677310539302855"><ele>2796.0</ele><time>2026-05-04T14:11:26Z</time></trkpt><trkpt lat="31.527852293165015" lon="-6.26778178203178"><ele>2802.2000000000003</ele><time>2026-05-04T14:11:27Z</time></trkpt><trkpt lat="31.527946506528536" lon="-6.267831267935301"><ele>2808.4</ele><time>2026-05-04T14:11:28Z</time></trkpt><trkpt lat="31.528050503900996" lon="-6.267877405174222"><ele>2814.6</ele><time>2026-05-04T14:11:29Z</time></trkpt><trkpt lat="31.52816117475504" lon="-6.267926350432797"><ele>2820.8</ele><time>2026-05-04T14:11:30Z</time></trkpt><trkpt lat="31.52826048792889" lon="-6.267974696818041"><ele>2827.0</ele><time>2026-05-04T14:11:31Z</time></trkpt><trkpt lat="31.528360688888593" lon="-6.268027416657147"><ele>2827.0</ele><time>2026-05-04T14:11:32Z</time></trkpt><trkpt lat="31.528466281448125" lon="-6.2680747319085794"><ele>2827.0</ele><time>2026-05-04T14:11:33Z</time></trkpt><trkpt lat="31.528572310041636" lon="-6.268119178445523"><ele>2827.0</ele><time>2026-05-04T14:11:34Z</time></trkpt><trkpt lat="31.528678565279062" lon="-6.268164118454187"><ele>2827.0</ele><time>2026-05-04T14:11:35Z</time></trkpt><trkpt lat="31.528783950956203" lon="-6.2682140711973515"><ele>2821.25</ele><time>2026-05-04T14:11:36Z</time></trkpt><trkpt lat="31.528887507453675" lon="-6.268276890222451"><ele>2815.5</ele><time>2026-05-04T14:11:37Z</time></trkpt><trkpt lat="31.528986095817878" lon="-6.268350282912994"><ele>2809.75</ele><time>2026-05-04T14:11:38Z</time></trkpt><trkpt lat="31.529079133433044" lon="-6.268433876866056"><ele>2804.0</ele><time>2026-05-04T14:11:39Z</time></trkpt><trkpt lat="31.529166453073927" lon="-6.268515470654056"><ele>2804.0</ele><time>2026-05-04T14:11:40Z</time></trkpt><trkpt lat="31.52925517717879" lon="-6.268595084384271"><ele>2804.0</ele><time>2026-05-04T14:11:41Z</time></trkpt><trkpt lat="31.529340224875497" lon="-6.268668701346963"><ele>2804.0</ele><time>2026-05-04T14:11:42Z</time></trkpt><trkpt lat="31.52943304311212" lon="-6.268741753836482"><ele>2804.0</ele><time>2026-05-04T14:11:43Z</time></trkpt><trkpt lat="31.529526404138448" lon="-6.268814591037345"><ele>2804.0</ele><time>2026-05-04T14:11:44Z</time></trkpt><trkpt lat="31.529621331951535" lon="-6.268886109298837"><ele>2803.0</ele><time>2026-05-04T14:11:45Z</time></trkpt><trkpt lat="31.529712284408777" lon="-6.268959475598315"><ele>2802.0</ele><time>2026-05-04T14:11:46Z</time></trkpt><trkpt lat="31.529797560388886" lon="-6.2690465948023215"><ele>2801.0</ele><time>2026-05-04T14:11:47Z</time></trkpt><trkpt lat="31.5298684799346" lon="-6.269146221042539"><ele>2800.0</ele><time>2026-05-04T14:11:48Z</time></trkpt><trkpt lat="31.529919485923646" lon="-6.269267430504871"><ele>2799.0</ele><time>2026-05-04T14:11:49Z</time></trkpt><trkpt lat="31.52996236901709" lon="-6.269395175732424"><ele>2799.0</ele><time>2026-05-04T14:11:50Z</time></trkpt><trkpt lat="31.530007417231722" lon="-6.269521722077617"><ele>2799.0</ele><time>2026-05-04T14:11:51Z</time></trkpt><trkpt lat="31.530045898503456" lon="-6.2696457592907295"><ele>2799.0</ele><time>2026-05-04T14:11:52Z</time></trkpt><trkpt lat="31.53008215626474" lon="-6.26977205304102"><ele>2799.0</ele><time>2026-05-04T14:11:53Z</time></trkpt><trkpt lat="31.530121959345212" lon="-6.269900139667574"><ele>2791.5</ele><time>2026-05-04T14:11:54Z</time></trkpt><trkpt lat="31.530171575951165" lon="-6.270025590424355"><ele>2784.0</ele><time>2026-05-04T14:11:55Z</time></trkpt><trkpt lat="31.530228914989028" lon="-6.270148626466915"><ele>2776.5</ele><time>2026-05-04T14:11:56Z</time></trkpt><trkpt lat="31.530287924910542" lon="-6.270268020894836"><ele>2769.0</ele><time>2026-05-04T14:11:57Z</time></trkpt><trkpt lat="31.53035275605173" lon="-6.270379422963981"><ele>2773.0</ele><time>2026-05-04T14:11:58Z</time></trkpt><trkpt lat="31.53041635153557" lon="-6.270487705662524"><ele>2777.0</ele><time>2026-05-04T14:11:59Z</time></trkpt><trkpt lat="31.530484917990844" lon="-6.270594316117629"><ele>2781.0</ele><time>2026-05-04T14:12:00Z</time></trkpt><trkpt lat="31.530554414713684" lon="-6.2707019838666325"><ele>2785.0</ele><time>2026-05-04T14:12:01Z</time></trkpt><trkpt lat="31.530618622349323" lon="-6.27081301813566"><ele>2785.0</ele><time>2026-05-04T14:12:02Z</time></trkpt><trkpt lat="31.530682573759563" lon="-6.270926217540895"><ele>2785.0</ele><time>2026-05-04T14:12:03Z</time></trkpt><trkpt lat="31.530746301490755" lon="-6.271044971155438"><ele>2785.0</ele><time>2026-05-04T14:12:04Z</time></trkpt><trkpt lat="31.5308034802799" lon="-6.271154615912966"><ele>2785.0</ele><time>2026-05-04T14:12:05Z</time></trkpt><trkpt lat="31.53086492421461" lon="-6.27126549516884"><ele>2785.0</ele><time>2026-05-04T14:12:06Z</time></trkpt><trkpt lat="31.530923729408993" lon="-6.271377486691097"><ele>2785.0</ele><time>2026-05-04T14:12:07Z</time></trkpt><trkpt lat="31.530981352326425" lon="-6.271489852236245"><ele>2785.0</ele><time>2026-05-04T14:12:08Z</time></trkpt><trkpt lat="31.531038999934413" lon="-6.271603781579396"><ele>2785.0</ele><time>2026-05-04T14:12:09Z</time></trkpt><trkpt lat="31.53109928151425" lon="-6.271713943251586"><ele>2785.0</ele><time>2026-05-04T14:12:09.999Z</time></trkpt><trkpt lat="31.531160840400258" lon="-6.2718214997222566"><ele>2786.25</ele><time>2026-05-04T14:12:10.999Z</time></trkpt><trkpt lat="31.531226805949196" lon="-6.271933075632977"><ele>2787.5</ele><time>2026-05-04T14:12:11.999Z</time></trkpt><trkpt lat="31.53130400552955" lon="-6.27203839062002"><ele>2788.75</ele><time>2026-05-04T14:12:12.999Z</time></trkpt><trkpt lat="31.53139041942716" lon="-6.272126623258618"><ele>2790.0</ele><time>2026-05-04T14:12:13.999Z</time></trkpt><trkpt lat="31.53147899712466" lon="-6.272203743481387"><ele>2784.0</ele><time>2026-05-04T14:12:14.999Z</time></trkpt><trkpt lat="31.531573311178512" lon="-6.2722774112937865"><ele>2778.0</ele><time>2026-05-04T14:12:15.999Z</time></trkpt><trkpt lat="31.531665782154697" lon="-6.272337417915649"><ele>2772.0</ele><time>2026-05-04T14:12:16.999Z</time></trkpt><trkpt lat="31.531756951130177" lon="-6.272395227892898"><ele>2766.0</ele><time>2026-05-04T14:12:17.999Z</time></trkpt><trkpt lat="31.531841840234527" lon="-6.2724643066263175"><ele>2760.0</ele><time>2026-05-04T14:12:18.999Z</time></trkpt><trkpt lat="31.531923781227572" lon="-6.272553333057847"><ele>2760.0</ele><time>2026-05-04T14:12:19.999Z</time></trkpt><trkpt lat="31.531994380972407" lon="-6.272668973896094"><ele>2760.0</ele><time>2026-05-04T14:12:20.999Z</time></trkpt><trkpt lat="31.532046281401385" lon="-6.272794152980676"><ele>2760.0</ele><time>2026-05-04T14:12:21.999Z</time></trkpt><trkpt lat="31.532081492155317" lon="-6.27291615244537"><ele>2760.0</ele><time>2026-05-04T14:12:22.999Z</time></trkpt><trkpt lat="31.53211253341018" lon="-6.273033134038439"><ele>2763.0</ele><time>2026-05-04T14:12:23.999Z</time></trkpt><trkpt lat="31.532139429087685" lon="-6.273143917540021"><ele>2766.0</ele><time>2026-05-04T14:12:24.999Z</time></trkpt><trkpt lat="31.532152693203045" lon="-6.273234328917331"><ele>2769.0</ele><time>2026-05-04T14:12:25.999Z</time></trkpt><trkpt lat="31.532145472692147" lon="-6.273309361014926"><ele>2772.0</ele><time>2026-05-04T14:12:26.999Z</time></trkpt><trkpt lat="31.532054292446727" lon="-6.273425838377215"><ele>2775.0</ele><time>2026-05-04T14:12:28.999Z</time></trkpt><trkpt lat="31.531980642283518" lon="-6.273453209069636"><ele>2772.0</ele><time>2026-05-04T14:12:29.999Z</time></trkpt><trkpt lat="31.531896118372952" lon="-6.273420368280216"><ele>2769.0</ele><time>2026-05-04T14:12:30.999Z</time></trkpt><trkpt lat="31.531824532950488" lon="-6.27336942219814"><ele>2766.0</ele><time>2026-05-04T14:12:31.999Z</time></trkpt><trkpt lat="31.531760019839396" lon="-6.273286011875199"><ele>2763.0</ele><time>2026-05-04T14:12:32.999Z</time></trkpt><trkpt lat="31.531714648747744" lon="-6.273188260276858"><ele>2760.0</ele><time>2026-05-04T14:12:33.999Z</time></trkpt><trkpt lat="31.531683416160313" lon="-6.273080879284467"><ele>2760.0</ele><time>2026-05-04T14:12:34.999Z</time></trkpt><trkpt lat="31.531645418734282" lon="-6.272977326241191"><ele>2760.0</ele><time>2026-05-04T14:12:35.999Z</time></trkpt><trkpt lat="31.531598143549438" lon="-6.2728753901966785"><ele>2760.0</ele><time>2026-05-04T14:12:36.999Z</time></trkpt><trkpt lat="31.53154454142194" lon="-6.272782851166139"><ele>2760.0</ele><time>2026-05-04T14:12:37.999Z</time></trkpt><trkpt lat="31.531478433915208" lon="-6.272694557448386"><ele>2760.0</ele><time>2026-05-04T14:12:38.999Z</time></trkpt><trkpt lat="31.531410486262043" lon="-6.272607945533766"><ele>2760.0</ele><time>2026-05-04T14:12:39.999Z</time></trkpt><trkpt lat="31.531263563388283" lon="-6.272612721078261"><ele>2760.0</ele><time>2026-05-04T14:12:40.999Z</time></trkpt><trkpt lat="31.53113236792187" lon="-6.272582066538336"><ele>2760.0</ele><time>2026-05-04T14:12:41.999Z</time></trkpt><trkpt lat="31.53101721044656" lon="-6.272512733571473"><ele>2760.0</ele><time>2026-05-04T14:12:42.999Z</time></trkpt><trkpt lat="31.53090730444301" lon="-6.272447842347064"><ele>2758.5</ele><time>2026-05-04T14:12:43.999Z</time></trkpt><trkpt lat="31.530802532333507" lon="-6.272387038762609"><ele>2757.0</ele><time>2026-05-04T14:12:44.999Z</time></trkpt><trkpt lat="31.530697827606918" lon="-6.272326618074678"><ele>2755.5</ele><time>2026-05-04T14:12:45.999Z</time></trkpt><trkpt lat="31.53059233271383" lon="-6.2722525279592976"><ele>2754.0</ele><time>2026-05-04T14:12:46.999Z</time></trkpt><trkpt lat="31.53050185148893" lon="-6.27217518109573"><ele>2754.0</ele><time>2026-05-04T14:12:47.999Z</time></trkpt><trkpt lat="31.530414016307066" lon="-6.27208981789429"><ele>2754.0</ele><time>2026-05-04T14:12:48.999Z</time></trkpt><trkpt lat="31.53033137249154" lon="-6.272004214397191"><ele>2754.0</ele><time>2026-05-04T14:12:49.999Z</time></trkpt><trkpt lat="31.530246347016543" lon="-6.271908602494042"><ele>2754.0</ele><time>2026-05-04T14:12:50.999Z</time></trkpt><trkpt lat="31.530167712343964" lon="-6.2718110112876895"><ele>2744.0</ele><time>2026-05-04T14:12:51.999Z</time></trkpt><trkpt lat="31.530072700068693" lon="-6.271723817254873"><ele>2734.0</ele><time>2026-05-04T14:12:52.999Z</time></trkpt><trkpt lat="31.529979082397706" lon="-6.2716503125252725"><ele>2724.0</ele><time>2026-05-04T14:12:53.999Z</time></trkpt><trkpt lat="31.529891979117327" lon="-6.271557703475831"><ele>2714.0</ele><time>2026-05-04T14:12:54.999Z</time></trkpt><trkpt lat="31.529809048092492" lon="-6.271457806890366"><ele>2708.0</ele><time>2026-05-04T14:12:55.999Z</time></trkpt><trkpt lat="31.52973571271921" lon="-6.271353330674773"><ele>2702.0</ele><time>2026-05-04T14:12:56.999Z</time></trkpt><trkpt lat="31.52967461960503" lon="-6.271241579115272"><ele>2696.0</ele><time>2026-05-04T14:12:57.999Z</time></trkpt><trkpt lat="31.529619542800827" lon="-6.271131504594415"><ele>2690.0</ele><time>2026-05-04T14:12:58.999Z</time></trkpt><trkpt lat="31.529554018315213" lon="-6.271011932043976"><ele>2690.0</ele><time>2026-05-04T14:12:59.999Z</time></trkpt><trkpt lat="31.529488728404274" lon="-6.270893212915091"><ele>2690.0</ele><time>2026-05-04T14:13:00.999Z</time></trkpt><trkpt lat="31.52941767885963" lon="-6.2707881941837496"><ele>2690.0</ele><time>2026-05-04T14:13:01.999Z</time></trkpt><trkpt lat="31.529346771405574" lon="-6.270688598228227"><ele>2690.0</ele><time>2026-05-04T14:13:02.999Z</time></trkpt><trkpt lat="31.529265518181788" lon="-6.270597397114596"><ele>2697.6</ele><time>2026-05-04T14:13:03.999Z</time></trkpt><trkpt lat="31.5291865164465" lon="-6.270502481891854"><ele>2705.2</ele><time>2026-05-04T14:13:04.999Z</time></trkpt><trkpt lat="31.529113551420924" lon="-6.270414148855646"><ele>2712.8</ele><time>2026-05-04T14:13:05.999Z</time></trkpt><trkpt lat="31.52903361065602" lon="-6.27033803850761"><ele>2720.4</ele><time>2026-05-04T14:13:06.999Z</time></trkpt><trkpt lat="31.528933643456284" lon="-6.270269997852452"><ele>2728.0</ele><time>2026-05-04T14:13:07.999Z</time></trkpt><trkpt lat="31.52882115222772" lon="-6.270224004852677"><ele>2720.0</ele><time>2026-05-04T14:13:08.999Z</time></trkpt><trkpt lat="31.528722015252264" lon="-6.270171742532126"><ele>2712.0</ele><time>2026-05-04T14:13:09.999Z</time></trkpt><trkpt lat="31.528600003113105" lon="-6.270132473581275"><ele>2704.0</ele><time>2026-05-04T14:13:10.999Z</time></trkpt><trkpt lat="31.52848160336063" lon="-6.270098561661033"><ele>2696.0</ele><time>2026-05-04T14:13:11.999Z</time></trkpt><trkpt lat="31.528357247708566" lon="-6.270054121319608"><ele>2696.0</ele><time>2026-05-04T14:13:12.999Z</time></trkpt><trkpt lat="31.52823744454011" lon="-6.269998567635066"><ele>2696.0</ele><time>2026-05-04T14:13:13.999Z</time></trkpt><trkpt lat="31.528122017213335" lon="-6.269946313984543"><ele>2696.0</ele><time>2026-05-04T14:13:14.999Z</time></trkpt><trkpt lat="31.528004088431835" lon="-6.269930627106209"><ele>2696.0</ele><time>2026-05-04T14:13:15.999Z</time></trkpt><trkpt lat="31.527889403124686" lon="-6.269888403877765"><ele>2693.5</ele><time>2026-05-04T14:13:16.999Z</time></trkpt><trkpt lat="31.52778067544649" lon="-6.269877090126009"><ele>2691.0</ele><time>2026-05-04T14:13:17.999Z</time></trkpt><trkpt lat="31.527686634568763" lon="-6.269866592035507"><ele>2688.5</ele><time>2026-05-04T14:13:18.999Z</time></trkpt><trkpt lat="31.527610741610133" lon="-6.269859998667263"><ele>2686.0</ele><time>2026-05-04T14:13:19.999Z</time></trkpt><trkpt lat="31.52752668968913" lon="-6.269852737178231"><ele>2683.5</ele><time>2026-05-04T14:13:20.999Z</time></trkpt><trkpt lat="31.52745290349955" lon="-6.269844129613905"><ele>2681.0</ele><time>2026-05-04T14:13:21.999Z</time></trkpt><trkpt lat="31.527341887721022" lon="-6.269830254037844"><ele>2681.0</ele><time>2026-05-04T14:13:23.999Z</time></trkpt><trkpt lat="31.527268869074383" lon="-6.26982671495397"><ele>2681.0</ele><time>2026-05-04T14:13:25.999Z</time></trkpt><trkpt lat="31.527183884616576" lon="-6.269818754597053"><ele>2681.0</ele><time>2026-05-04T14:13:29Z</time></trkpt><trkpt lat="31.527103326854238" lon="-6.269826467314978"><ele>2681.0</ele><time>2026-05-04T14:13:32Z</time></trkpt><trkpt lat="31.52702201848381" lon="-6.269818396646105"><ele>2681.0</ele><time>2026-05-04T14:13:34Z</time></trkpt><trkpt lat="31.52689887662946" lon="-6.269808467255225"><ele>2681.0</ele><time>2026-05-04T14:13:36Z</time></trkpt><trkpt lat="31.526824826901727" lon="-6.26981118277697"><ele>2679.8571428571427</ele><time>2026-05-04T14:13:37Z</time></trkpt><trkpt lat="31.52674777498645" lon="-6.269809119423203"><ele>2678.714285714286</ele><time>2026-05-04T14:13:38Z</time></trkpt><trkpt lat="31.526678672693237" lon="-6.269814543951045"><ele>2677.5714285714284</ele><time>2026-05-04T14:13:39Z</time></trkpt><trkpt lat="31.526602021218597" lon="-6.2698104082193415"><ele>2676.4285714285716</ele><time>2026-05-04T14:13:40Z</time></trkpt><trkpt lat="31.52652941262943" lon="-6.269817894327153"><ele>2675.285714285714</ele><time>2026-05-04T14:13:41Z</time></trkpt><trkpt lat="31.526457499887304" lon="-6.269820759666632"><ele>2674.142857142857</ele><time>2026-05-04T14:13:42Z</time></trkpt><trkpt lat="31.52637710320959" lon="-6.269829158709852"><ele>2673.0</ele><time>2026-05-04T14:13:43Z</time></trkpt><trkpt lat="31.526301385581867" lon="-6.269842999353002"><ele>2673.3333333333335</ele><time>2026-05-04T14:13:44Z</time></trkpt><trkpt lat="31.526223152682228" lon="-6.26985228774609"><ele>2673.6666666666665</ele><time>2026-05-04T14:13:45Z</time></trkpt><trkpt lat="31.52614353030303" lon="-6.269860302389339"><ele>2674.0</ele><time>2026-05-04T14:13:46Z</time></trkpt><trkpt lat="31.526070067333354" lon="-6.2698701908513925"><ele>2674.333333333333</ele><time>2026-05-04T14:13:47Z</time></trkpt><trkpt lat="31.52599271299204" lon="-6.269877519902663"><ele>2674.6666666666665</ele><time>2026-05-04T14:13:48Z</time></trkpt><trkpt lat="31.525913205544803" lon="-6.269880560839544"><ele>2675.0</ele><time>2026-05-04T14:13:49Z</time></trkpt><trkpt lat="31.525839213763593" lon="-6.269872163943048"><ele>2675.0</ele><time>2026-05-04T14:13:50Z</time></trkpt><trkpt lat="31.525768251550776" lon="-6.269834907017061"><ele>2675.0</ele><time>2026-05-04T14:13:51Z</time></trkpt><trkpt lat="31.52570526045663" lon="-6.2697822586319605"><ele>2675.0</ele><time>2026-05-04T14:13:52Z</time></trkpt><trkpt lat="31.525649588536908" lon="-6.2697186961972555"><ele>2675.0</ele><time>2026-05-04T14:13:53Z</time></trkpt><trkpt lat="31.52560609572522" lon="-6.2696528069361905"><ele>2675.0</ele><time>2026-05-04T14:13:54Z</time></trkpt><trkpt lat="31.525554017668448" lon="-6.269576334780418"><ele>2675.0</ele><time>2026-05-04T14:13:55Z</time></trkpt><trkpt lat="31.525498625134933" lon="-6.269484408474816"><ele>2676.2</ele><time>2026-05-04T14:13:56Z</time></trkpt><trkpt lat="31.525443485646363" lon="-6.269384900639243"><ele>2677.4</ele><time>2026-05-04T14:13:57Z</time></trkpt><trkpt lat="31.525388307947257" lon="-6.269287445758419"><ele>2678.6000000000004</ele><time>2026-05-04T14:13:58Z</time></trkpt><trkpt lat="31.5253215103824" lon="-6.269206919985781"><ele>2679.8</ele><time>2026-05-04T14:13:59Z</time></trkpt><trkpt lat="31.525269089047022" lon="-6.269120787864181"><ele>2681.0</ele><time>2026-05-04T14:14:00Z</time></trkpt><trkpt lat="31.52521661892393" lon="-6.269034575516492"><ele>2677.5</ele><time>2026-05-04T14:14:01Z</time></trkpt><trkpt lat="31.52517080924616" lon="-6.268948996757129"><ele>2674.0</ele><time>2026-05-04T14:14:02Z</time></trkpt><trkpt lat="31.525128869899916" lon="-6.268865338300575"><ele>2670.5</ele><time>2026-05-04T14:14:03Z</time></trkpt><trkpt lat="31.525087829723724" lon="-6.2687834732702665"><ele>2667.0</ele><time>2026-05-04T14:14:04Z</time></trkpt><trkpt lat="31.52504984393204" lon="-6.2687046366570485"><ele>2663.5</ele><time>2026-05-04T14:14:05Z</time></trkpt><trkpt lat="31.525012635162827" lon="-6.268623749683041"><ele>2660.0</ele><time>2026-05-04T14:14:06Z</time></trkpt><trkpt lat="31.524972839073186" lon="-6.268543535776579"><ele>2660.0</ele><time>2026-05-04T14:14:07Z</time></trkpt><trkpt lat="31.524946757919153" lon="-6.268466190863714"><ele>2660.0</ele><time>2026-05-04T14:14:08Z</time></trkpt><trkpt lat="31.5249226031785" lon="-6.268389942793158"><ele>2660.0</ele><time>2026-05-04T14:14:09Z</time></trkpt><trkpt lat="31.524914288053342" lon="-6.268296124333042"><ele>2660.0</ele><time>2026-05-04T14:14:09.999Z</time></trkpt><trkpt lat="31.524908966889196" lon="-6.268178679749992"><ele>2660.0</ele><time>2026-05-04T14:14:11.999Z</time></trkpt><trkpt lat="31.52480938025122" lon="-6.268180664575986"><ele>2660.0</ele><time>2026-05-04T14:14:14.999Z</time></trkpt><trkpt lat="31.524798985929042" lon="-6.268288347985937"><ele>2660.0</ele><time>2026-05-04T14:14:15.999Z</time></trkpt><trkpt lat="31.52482771931497" lon="-6.2683641290758105"><ele>2660.0</ele><time>2026-05-04T14:14:16.999Z</time></trkpt><trkpt lat="31.524833420795908" lon="-6.268454119291134"><ele>2660.0</ele><time>2026-05-04T14:14:17.999Z</time></trkpt><trkpt lat="31.524861070993346" lon="-6.268545941842159"><ele>2660.0</ele><time>2026-05-04T14:14:18.999Z</time></trkpt><trkpt lat="31.524890511631273" lon="-6.268660103284881"><ele>2660.0</ele><time>2026-05-04T14:14:19.999Z</time></trkpt><trkpt lat="31.524918622583648" lon="-6.268789076800093"><ele>2660.0</ele><time>2026-05-04T14:14:20.999Z</time></trkpt><trkpt lat="31.524943242139262" lon="-6.268913329833382"><ele>2659.0</ele><time>2026-05-04T14:14:21.999Z</time></trkpt><trkpt lat="31.524963948204796" lon="-6.269023932760299"><ele>2658.0</ele><time>2026-05-04T14:14:22.999Z</time></trkpt><trkpt lat="31.524983339964237" lon="-6.26912539089577"><ele>2657.0</ele><time>2026-05-04T14:14:23.999Z</time></trkpt><trkpt lat="31.524996257659556" lon="-6.269220488740455"><ele>2656.0</ele><time>2026-05-04T14:14:24.999Z</time></trkpt><trkpt lat="31.524986110481763" lon="-6.269345273533229"><ele>2655.0</ele><time>2026-05-04T14:14:26.999Z</time></trkpt><trkpt lat="31.524909336252783" lon="-6.269391786838508"><ele>2655.0</ele><time>2026-05-04T14:14:28.999Z</time></trkpt><trkpt lat="31.524841533257344" lon="-6.269401109800535"><ele>2655.0</ele><time>2026-05-04T14:14:30.999Z</time></trkpt><trkpt lat="31.524778860453708" lon="-6.269362573340794"><ele>2655.0</ele><time>2026-05-04T14:14:32.999Z</time></trkpt><trkpt lat="31.52470233972564" lon="-6.269243951346486"><ele>2655.0</ele><time>2026-05-04T14:14:34.999Z</time></trkpt><trkpt lat="31.524646225644634" lon="-6.269176749187024"><ele>2655.0</ele><time>2026-05-04T14:14:35.999Z</time></trkpt><trkpt lat="31.52458773838286" lon="-6.269094433430979"><ele>2655.0</ele><time>2026-05-04T14:14:36.999Z</time></trkpt><trkpt lat="31.524538782504482" lon="-6.268998125573062"><ele>2651.5</ele><time>2026-05-04T14:14:37.999Z</time></trkpt><trkpt lat="31.524500080137084" lon="-6.268906315546951"><ele>2648.0</ele><time>2026-05-04T14:14:38.999Z</time></trkpt><trkpt lat="31.524461449324377" lon="-6.268814675310896"><ele>2644.5</ele><time>2026-05-04T14:14:39.999Z</time></trkpt><trkpt lat="31.52442363133429" lon="-6.26871603810587"><ele>2641.0</ele><time>2026-05-04T14:14:40.999Z</time></trkpt><trkpt lat="31.52439596430688" lon="-6.268614877906026"><ele>2637.5</ele><time>2026-05-04T14:14:41.999Z</time></trkpt><trkpt lat="31.524379227415437" lon="-6.268541668892418"><ele>2634.0</ele><time>2026-05-04T14:14:42.999Z</time></trkpt><trkpt lat="31.52426939535621" lon="-6.268492469707102"><ele>2634.0</ele><time>2026-05-04T14:14:44.999Z</time></trkpt><trkpt lat="31.524192230919475" lon="-6.268538427386435"><ele>2634.0</ele><time>2026-05-04T14:14:45.999Z</time></trkpt><trkpt lat="31.52412445401728" lon="-6.268617686752963"><ele>2634.0</ele><time>2026-05-04T14:14:46.999Z</time></trkpt><trkpt lat="31.52407672123712" lon="-6.268706967347609"><ele>2634.0</ele><time>2026-05-04T14:14:47.999Z</time></trkpt><trkpt lat="31.52405209453324" lon="-6.26879386685767"><ele>2634.0</ele><time>2026-05-04T14:14:48.999Z</time></trkpt><trkpt lat="31.524100362741358" lon="-6.2688699545045585"><ele>2634.0</ele><time>2026-05-04T14:14:49.999Z</time></trkpt><trkpt lat="31.524145263173573" lon="-6.268962108059973"><ele>2633.2</ele><time>2026-05-04T14:14:50.999Z</time></trkpt><trkpt lat="31.524203665060284" lon="-6.26907333100084"><ele>2632.3999999999996</ele><time>2026-05-04T14:14:51.999Z</time></trkpt><trkpt lat="31.52425558197136" lon="-6.269186040687725"><ele>2631.6</ele><time>2026-05-04T14:14:52.999Z</time></trkpt><trkpt lat="31.524285521854154" lon="-6.269285985476341"><ele>2630.8</ele><time>2026-05-04T14:14:53.999Z</time></trkpt><trkpt lat="31.524326233415334" lon="-6.269372150005237"><ele>2630.0</ele><time>2026-05-04T14:14:54.999Z</time></trkpt><trkpt lat="31.524350357885535" lon="-6.2694505879574285"><ele>2630.0</ele><time>2026-05-04T14:14:55.999Z</time></trkpt><trkpt lat="31.524352033560902" lon="-6.2695251344655185"><ele>2630.0</ele><time>2026-05-04T14:14:56.999Z</time></trkpt><trkpt lat="31.524282122738974" lon="-6.269636723191163"><ele>2630.0</ele><time>2026-05-04T14:14:58.999Z</time></trkpt><trkpt lat="31.524218767517656" lon="-6.269652123626345"><ele>2630.0</ele><time>2026-05-04T14:14:59.999Z</time></trkpt><trkpt lat="31.52414787050339" lon="-6.269630570033562"><ele>2630.0</ele><time>2026-05-04T14:15:00.999Z</time></trkpt><trkpt lat="31.52407805547319" lon="-6.2695719137089565"><ele>2630.0</ele><time>2026-05-04T14:15:01.999Z</time></trkpt><trkpt lat="31.524012359210978" lon="-6.269478107719287"><ele>2630.0</ele><time>2026-05-04T14:15:02.999Z</time></trkpt><trkpt lat="31.523945464559265" lon="-6.269375270207251"><ele>2630.0</ele><time>2026-05-04T14:15:03.999Z</time></trkpt><trkpt lat="31.523879258675084" lon="-6.26927944068985"><ele>2630.0</ele><time>2026-05-04T14:15:04.999Z</time></trkpt><trkpt lat="31.52380875785814" lon="-6.2691765853464485"><ele>2630.0</ele><time>2026-05-04T14:15:05.999Z</time></trkpt><trkpt lat="31.52373239263693" lon="-6.269071136442678"><ele>2630.0</ele><time>2026-05-04T14:15:06.999Z</time></trkpt><trkpt lat="31.523654743004858" lon="-6.2689652068151664"><ele>2626.6</ele><time>2026-05-04T14:15:07.999Z</time></trkpt><trkpt lat="31.523572273304474" lon="-6.2688601548245835"><ele>2623.2</ele><time>2026-05-04T14:15:08.999Z</time></trkpt><trkpt lat="31.52348824210443" lon="-6.268762187799003"><ele>2619.8</ele><time>2026-05-04T14:15:09.999Z</time></trkpt><trkpt lat="31.523415617004176" lon="-6.268677484578745"><ele>2616.4</ele><time>2026-05-04T14:15:10.999Z</time></trkpt><trkpt lat="31.52335279696695" lon="-6.268613296870407"><ele>2613.0</ele><time>2026-05-04T14:15:11.999Z</time></trkpt><trkpt lat="31.523272828996774" lon="-6.268610595229109"><ele>2613.0</ele><time>2026-05-04T14:15:12.999Z</time></trkpt><trkpt lat="31.523199217664256" lon="-6.268600480673007"><ele>2613.0</ele><time>2026-05-04T14:15:13.999Z</time></trkpt><trkpt lat="31.52313092817994" lon="-6.268662253521096"><ele>2613.0</ele><time>2026-05-04T14:15:14.999Z</time></trkpt><trkpt lat="31.52312851325295" lon="-6.268777564918982"><ele>2613.0</ele><time>2026-05-04T14:15:15.999Z</time></trkpt><trkpt lat="31.523152989670226" lon="-6.268856348136568"><ele>2613.0</ele><time>2026-05-04T14:15:16.999Z</time></trkpt><trkpt lat="31.523191968672887" lon="-6.268939541116296"><ele>2613.0</ele><time>2026-05-04T14:15:17.999Z</time></trkpt><trkpt lat="31.52324074558298" lon="-6.269025979153571"><ele>2611.4</ele><time>2026-05-04T14:15:18.999Z</time></trkpt><trkpt lat="31.52328352624233" lon="-6.269117952520482"><ele>2609.8</ele><time>2026-05-04T14:15:19.999Z</time></trkpt><trkpt lat="31.523341338796698" lon="-6.269228655958648"><ele>2608.2</ele><time>2026-05-04T14:15:20.999Z</time></trkpt><trkpt lat="31.523390041239143" lon="-6.269349849051776"><ele>2606.6</ele><time>2026-05-04T14:15:21.999Z</time></trkpt><trkpt lat="31.523453934048558" lon="-6.269453287657624"><ele>2605.0</ele><time>2026-05-04T14:15:22.999Z</time></trkpt><trkpt lat="31.52350682496272" lon="-6.269560273578261"><ele>2605.0</ele><time>2026-05-04T14:15:23.999Z</time></trkpt><trkpt lat="31.523552138751707" lon="-6.269687866331352"><ele>2605.0</ele><time>2026-05-04T14:15:24.999Z</time></trkpt><trkpt lat="31.52358459446224" lon="-6.269829067008047"><ele>2605.0</ele><time>2026-05-04T14:15:25.999Z</time></trkpt><trkpt lat="31.52360521233419" lon="-6.269976131873916"><ele>2605.0</ele><time>2026-05-04T14:15:26.999Z</time></trkpt><trkpt lat="31.523623973857674" lon="-6.270115864552606"><ele>2605.5</ele><time>2026-05-04T14:15:27.999Z</time></trkpt><trkpt lat="31.523644169887017" lon="-6.27025050931997"><ele>2606.0</ele><time>2026-05-04T14:15:28.999Z</time></trkpt><trkpt lat="31.523675880221084" lon="-6.270378750433098"><ele>2606.5</ele><time>2026-05-04T14:15:29.999Z</time></trkpt><trkpt lat="31.523721930770815" lon="-6.2704991347401755"><ele>2607.0</ele><time>2026-05-04T14:15:30.999Z</time></trkpt><trkpt lat="31.52377733031959" lon="-6.2706116862906995"><ele>2607.0</ele><time>2026-05-04T14:15:31.999Z</time></trkpt><trkpt lat="31.52383264172703" lon="-6.270723774241117"><ele>2607.0</ele><time>2026-05-04T14:15:32.999Z</time></trkpt><trkpt lat="31.52388462426052" lon="-6.270831804534285"><ele>2607.0</ele><time>2026-05-04T14:15:34Z</time></trkpt><trkpt lat="31.523932604895062" lon="-6.270933809700197"><ele>2607.0</ele><time>2026-05-04T14:15:35Z</time></trkpt><trkpt lat="31.52397789264391" lon="-6.271027330325895"><ele>2607.0</ele><time>2026-05-04T14:15:36Z</time></trkpt><trkpt lat="31.523968506526817" lon="-6.271104158998545"><ele>2607.0</ele><time>2026-05-04T14:15:37Z</time></trkpt><trkpt lat="31.523907975112817" lon="-6.271206317445581"><ele>2607.0</ele><time>2026-05-04T14:15:39Z</time></trkpt><trkpt lat="31.523828017458705" lon="-6.271182979281174"><ele>2607.0</ele><time>2026-05-04T14:15:41Z</time></trkpt><trkpt lat="31.52374550555504" lon="-6.2710239643421115"><ele>2607.0</ele><time>2026-05-04T14:15:43Z</time></trkpt><trkpt lat="31.523699121388038" lon="-6.270924982351119"><ele>2607.0</ele><time>2026-05-04T14:15:44Z</time></trkpt><trkpt lat="31.52363032363371" lon="-6.270826172385308"><ele>2603.0</ele><time>2026-05-04T14:15:45Z</time></trkpt><trkpt lat="31.523524097355462" lon="-6.270742188306115"><ele>2599.0</ele><time>2026-05-04T14:15:46Z</time></trkpt><trkpt lat="31.52341681298259" lon="-6.270673888457771"><ele>2595.0</ele><time>2026-05-04T14:15:47Z</time></trkpt><trkpt lat="31.523310395766497" lon="-6.270619656765785"><ele>2591.0</ele><time>2026-05-04T14:15:48Z</time></trkpt><trkpt lat="31.52320398228274" lon="-6.270570286170619"><ele>2591.0</ele><time>2026-05-04T14:15:49Z</time></trkpt><trkpt lat="31.523111198433373" lon="-6.270535441054135"><ele>2591.0</ele><time>2026-05-04T14:15:50Z</time></trkpt><trkpt lat="31.523011569482478" lon="-6.270499307989476"><ele>2591.0</ele><time>2026-05-04T14:15:51Z</time></trkpt><trkpt lat="31.522916390909987" lon="-6.270477697069105"><ele>2591.0</ele><time>2026-05-04T14:15:52Z</time></trkpt><trkpt lat="31.52282874272695" lon="-6.270461437314528"><ele>2591.0</ele><time>2026-05-04T14:15:53Z</time></trkpt><trkpt lat="31.52274689445625" lon="-6.270448846913101"><ele>2587.2000000000003</ele><time>2026-05-04T14:15:54Z</time></trkpt><trkpt lat="31.522657401060798" lon="-6.2704721740527605"><ele>2583.4</ele><time>2026-05-04T14:15:55Z</time></trkpt><trkpt lat="31.5225746249425" lon="-6.270510978458648"><ele>2579.6</ele><time>2026-05-04T14:15:56Z</time></trkpt><trkpt lat="31.522498917941785" lon="-6.270575285261552"><ele>2575.8</ele><time>2026-05-04T14:15:57Z</time></trkpt><trkpt lat="31.52242419409664" lon="-6.270650171365612"><ele>2572.0</ele><time>2026-05-04T14:15:58Z</time></trkpt><trkpt lat="31.522350678069664" lon="-6.270728748822337"><ele>2569.8</ele><time>2026-05-04T14:15:59Z</time></trkpt><trkpt lat="31.52229521940948" lon="-6.270825421690386"><ele>2567.6</ele><time>2026-05-04T14:16:00Z</time></trkpt><trkpt lat="31.52226116873394" lon="-6.270934321100357"><ele>2565.4</ele><time>2026-05-04T14:16:01Z</time></trkpt><trkpt lat="31.522248553030273" lon="-6.271047736031306"><ele>2563.2000000000003</ele><time>2026-05-04T14:16:02Z</time></trkpt><trkpt lat="31.522255001762506" lon="-6.271155619463625"><ele>2561.0</ele><time>2026-05-04T14:16:03Z</time></trkpt><trkpt lat="31.522263007125616" lon="-6.271259430742677"><ele>2561.0</ele><time>2026-05-04T14:16:04Z</time></trkpt><trkpt lat="31.52227052554104" lon="-6.271357674337876"><ele>2561.0</ele><time>2026-05-04T14:16:05Z</time></trkpt><trkpt lat="31.5222861939646" lon="-6.271453953724045"><ele>2561.0</ele><time>2026-05-04T14:16:06Z</time></trkpt><trkpt lat="31.5223006449153" lon="-6.271548954085709"><ele>2561.0</ele><time>2026-05-04T14:16:07Z</time></trkpt><trkpt lat="31.52231833649008" lon="-6.271642383743222"><ele>2561.0</ele><time>2026-05-04T14:16:08Z</time></trkpt><trkpt lat="31.52234823925576" lon="-6.271731452736322"><ele>2561.0</ele><time>2026-05-04T14:16:09Z</time></trkpt><trkpt lat="31.522383311985056" lon="-6.271811937751921"><ele>2559.6666666666665</ele><time>2026-05-04T14:16:10Z</time></trkpt><trkpt lat="31.522450214678116" lon="-6.2718526535722665"><ele>2558.333333333333</ele><time>2026-05-04T14:16:11Z</time></trkpt><trkpt lat="31.522516091524892" lon="-6.271893190931611"><ele>2557.0</ele><time>2026-05-04T14:16:12Z</time></trkpt><trkpt lat="31.522581276438196" lon="-6.271928477945206"><ele>2555.6666666666665</ele><time>2026-05-04T14:16:13Z</time></trkpt><trkpt lat="31.52265408062909" lon="-6.271975834094129"><ele>2554.3333333333335</ele><time>2026-05-04T14:16:14Z</time></trkpt><trkpt lat="31.522715021563936" lon="-6.272041980023962"><ele>2553.0</ele><time>2026-05-04T14:16:15Z</time></trkpt><trkpt lat="31.52276387981001" lon="-6.2720905796749244"><ele>2553.0</ele><time>2026-05-04T14:16:16Z</time></trkpt><trkpt lat="31.522745848741067" lon="-6.272205689980377"><ele>2553.0</ele><time>2026-05-04T14:16:16.999Z</time></trkpt><trkpt lat="31.522703797010106" lon="-6.272282894200978"><ele>2553.0</ele><time>2026-05-04T14:16:17.999Z</time></trkpt><trkpt lat="31.52266104498892" lon="-6.272377538472166"><ele>2553.0</ele><time>2026-05-04T14:16:18.999Z</time></trkpt><trkpt lat="31.522566193125158" lon="-6.2724206692237034"><ele>2553.0</ele><time>2026-05-04T14:16:19.999Z</time></trkpt><trkpt lat="31.522481193506003" lon="-6.272475104065237"><ele>2550.4</ele><time>2026-05-04T14:16:20.999Z</time></trkpt><trkpt lat="31.522384127927207" lon="-6.27250276729526"><ele>2547.8</ele><time>2026-05-04T14:16:21.999Z</time></trkpt><trkpt lat="31.522286580120944" lon="-6.272524251662959"><ele>2545.2</ele><time>2026-05-04T14:16:22.999Z</time></trkpt><trkpt lat="31.522186351438293" lon="-6.272538645100713"><ele>2542.6</ele><time>2026-05-04T14:16:23.999Z</time></trkpt><trkpt lat="31.52210256686459" lon="-6.272523362231649"><ele>2540.0</ele><time>2026-05-04T14:16:24.999Z</time></trkpt><trkpt lat="31.522021119421566" lon="-6.272480684686678"><ele>2539.4</ele><time>2026-05-04T14:16:25.999Z</time></trkpt><trkpt lat="31.521943074875796" lon="-6.272424406248941"><ele>2538.8</ele><time>2026-05-04T14:16:26.999Z</time></trkpt><trkpt lat="31.52188271746731" lon="-6.2723499727213365"><ele>2538.2</ele><time>2026-05-04T14:16:27.999Z</time></trkpt><trkpt lat="31.52182237072396" lon="-6.272262544377665"><ele>2537.6</ele><time>2026-05-04T14:16:28.999Z</time></trkpt><trkpt lat="31.521774463690907" lon="-6.272166892209055"><ele>2537.0</ele><time>2026-05-04T14:16:29.999Z</time></trkpt><trkpt lat="31.521729798117576" lon="-6.27206005247663"><ele>2537.0</ele><time>2026-05-04T14:16:30.999Z</time></trkpt><trkpt lat="31.521689434208756" lon="-6.271946324584476"><ele>2537.0</ele><time>2026-05-04T14:16:31.999Z</time></trkpt><trkpt lat="31.521653216291398" lon="-6.271810151153463"><ele>2537.0</ele><time>2026-05-04T14:16:32.999Z</time></trkpt><trkpt lat="31.521618305535625" lon="-6.271684697771426"><ele>2537.0</ele><time>2026-05-04T14:16:33.999Z</time></trkpt><trkpt lat="31.521592278190877" lon="-6.271565381716718"><ele>2537.0</ele><time>2026-05-04T14:16:34.999Z</time></trkpt><trkpt lat="31.521572840257377" lon="-6.2714495001405695"><ele>2537.714285714286</ele><time>2026-05-04T14:16:35.999Z</time></trkpt><trkpt lat="31.521552469796465" lon="-6.271340053115358"><ele>2538.4285714285716</ele><time>2026-05-04T14:16:36.999Z</time></trkpt><trkpt lat="31.52153784294795" lon="-6.271249864837551"><ele>2539.1428571428573</ele><time>2026-05-04T14:16:37.999Z</time></trkpt><trkpt lat="31.521510187834483" lon="-6.2711822536223885"><ele>2539.857142857143</ele><time>2026-05-04T14:16:38.999Z</time></trkpt><trkpt lat="31.521448606609937" lon="-6.271157751096774"><ele>2540.5714285714284</ele><time>2026-05-04T14:16:39.999Z</time></trkpt><trkpt lat="31.521380853089024" lon="-6.271170225457708"><ele>2541.2857142857147</ele><time>2026-05-04T14:16:40.999Z</time></trkpt><trkpt lat="31.52132248399492" lon="-6.271199652085848"><ele>2542.0</ele><time>2026-05-04T14:16:41.999Z</time></trkpt><trkpt lat="31.521378303850035" lon="-6.271325177774792"><ele>2542.0</ele><time>2026-05-04T14:16:43.999Z</time></trkpt><trkpt lat="31.52137848770861" lon="-6.271417877822157"><ele>2542.0</ele><time>2026-05-04T14:16:44.999Z</time></trkpt><trkpt lat="31.521428627760915" lon="-6.271508270217713"><ele>2542.0</ele><time>2026-05-04T14:16:45.999Z</time></trkpt><trkpt lat="31.521483263325077" lon="-6.271611571967861"><ele>2542.0</ele><time>2026-05-04T14:16:46.999Z</time></trkpt><trkpt lat="31.521527109364957" lon="-6.271718773315933"><ele>2542.0</ele><time>2026-05-04T14:16:47.999Z</time></trkpt><trkpt lat="31.52156535802168" lon="-6.2718501948921626"><ele>2541.0</ele><time>2026-05-04T14:16:48.999Z</time></trkpt><trkpt lat="31.521599901553635" lon="-6.271967134587825"><ele>2540.0</ele><time>2026-05-04T14:16:49.999Z</time></trkpt><trkpt lat="31.521638777462012" lon="-6.272075641671972"><ele>2539.0</ele><time>2026-05-04T14:16:50.999Z</time></trkpt><trkpt lat="31.52167050968454" lon="-6.272183104860943"><ele>2538.0</ele><time>2026-05-04T14:16:51.999Z</time></trkpt><trkpt lat="31.521690895692874" lon="-6.272302841352354"><ele>2537.0</ele><time>2026-05-04T14:16:52.999Z</time></trkpt><trkpt lat="31.52171973769959" lon="-6.272407032737921"><ele>2537.6</ele><time>2026-05-04T14:16:53.999Z</time></trkpt><trkpt lat="31.521766043201083" lon="-6.272515304822445"><ele>2538.2</ele><time>2026-05-04T14:16:54.999Z</time></trkpt><trkpt lat="31.521826209742223" lon="-6.272600295149608"><ele>2538.8</ele><time>2026-05-04T14:16:55.999Z</time></trkpt><trkpt lat="31.52191297050167" lon="-6.272672770785987"><ele>2539.4</ele><time>2026-05-04T14:16:56.999Z</time></trkpt><trkpt lat="31.521997702318895" lon="-6.272743856965142"><ele>2540.0</ele><time>2026-05-04T14:16:57.999Z</time></trkpt><trkpt lat="31.522092807198312" lon="-6.27279681804656"><ele>2540.0</ele><time>2026-05-04T14:16:58.999Z</time></trkpt><trkpt lat="31.522195565205763" lon="-6.272848792289029"><ele>2540.0</ele><time>2026-05-04T14:16:59.999Z</time></trkpt><trkpt lat="31.522294380984274" lon="-6.272883104043751"><ele>2540.0</ele><time>2026-05-04T14:17:00.999Z</time></trkpt><trkpt lat="31.522381543883114" lon="-6.272887725539675"><ele>2540.0</ele><time>2026-05-04T14:17:01.999Z</time></trkpt><trkpt lat="31.522480141254718" lon="-6.272889242373711"><ele>2540.0</ele><time>2026-05-04T14:17:02.999Z</time></trkpt><trkpt lat="31.52258227820335" lon="-6.2728884631593305"><ele>2540.0</ele><time>2026-05-04T14:17:03.999Z</time></trkpt><trkpt lat="31.52272031406168" lon="-6.272888494768166"><ele>2540.0</ele><time>2026-05-04T14:17:04.999Z</time></trkpt><trkpt lat="31.522796959783403" lon="-6.272899486859571"><ele>2540.0</ele><time>2026-05-04T14:17:05.999Z</time></trkpt><trkpt lat="31.522902116086872" lon="-6.272930357865218"><ele>2540.0</ele><time>2026-05-04T14:17:07.999Z</time></trkpt><trkpt lat="31.522911620993895" lon="-6.273068085325955"><ele>2540.0</ele><time>2026-05-04T14:17:09.999Z</time></trkpt><trkpt lat="31.52286403198133" lon="-6.273138374851949"><ele>2532.8</ele><time>2026-05-04T14:17:10.999Z</time></trkpt><trkpt lat="31.522794354823944" lon="-6.273190957408713"><ele>2525.6</ele><time>2026-05-04T14:17:11.999Z</time></trkpt><trkpt lat="31.52269598688533" lon="-6.273215690768407"><ele>2518.4</ele><time>2026-05-04T14:17:12.999Z</time></trkpt><trkpt lat="31.522581798616265" lon="-6.2732310038765915"><ele>2511.2</ele><time>2026-05-04T14:17:13.999Z</time></trkpt><trkpt lat="31.522475205560724" lon="-6.273266820416437"><ele>2504.0</ele><time>2026-05-04T14:17:14.999Z</time></trkpt><trkpt lat="31.522367281640964" lon="-6.27328697961071"><ele>2504.0</ele><time>2026-05-04T14:17:15.999Z</time></trkpt><trkpt lat="31.522254462160415" lon="-6.273312433899121"><ele>2504.0</ele><time>2026-05-04T14:17:16.999Z</time></trkpt><trkpt lat="31.52213984974113" lon="-6.273324959879702"><ele>2504.0</ele><time>2026-05-04T14:17:17.999Z</time></trkpt><trkpt lat="31.52201464323249" lon="-6.273304188324784"><ele>2504.0</ele><time>2026-05-04T14:17:18.999Z</time></trkpt><trkpt lat="31.521908515033612" lon="-6.273289532716219"><ele>2501.5</ele><time>2026-05-04T14:17:19.999Z</time></trkpt><trkpt lat="31.521829791857296" lon="-6.273276156829518"><ele>2499.0</ele><time>2026-05-04T14:17:20.999Z</time></trkpt><trkpt lat="31.521761215519227" lon="-6.273264415171219"><ele>2496.5</ele><time>2026-05-04T14:17:21.999Z</time></trkpt><trkpt lat="31.52168539922543" lon="-6.273246364809658"><ele>2494.0</ele><time>2026-05-04T14:17:22.999Z</time></trkpt><trkpt lat="31.521602523906264" lon="-6.27322445876654"><ele>2491.5</ele><time>2026-05-04T14:17:23.999Z</time></trkpt><trkpt lat="31.52149905320407" lon="-6.2731585001123555"><ele>2489.0</ele><time>2026-05-04T14:17:24.999Z</time></trkpt><trkpt lat="31.521425021427728" lon="-6.273099659811022"><ele>2485.0</ele><time>2026-05-04T14:17:25.999Z</time></trkpt><trkpt lat="31.521352428887745" lon="-6.2730211250537256"><ele>2481.0</ele><time>2026-05-04T14:17:26.999Z</time></trkpt><trkpt lat="31.521291481462214" lon="-6.272927721456534"><ele>2477.0</ele><time>2026-05-04T14:17:27.999Z</time></trkpt><trkpt lat="31.521234644040288" lon="-6.272823452063743"><ele>2473.0</ele><time>2026-05-04T14:17:28.999Z</time></trkpt><trkpt lat="31.521191795909775" lon="-6.2726732285731766"><ele>2469.0</ele><time>2026-05-04T14:17:29.999Z</time></trkpt><trkpt lat="31.521164744758536" lon="-6.272534517313792"><ele>2469.0</ele><time>2026-05-04T14:17:30.999Z</time></trkpt><trkpt lat="31.52112925449911" lon="-6.272396773736864"><ele>2469.0</ele><time>2026-05-04T14:17:31.999Z</time></trkpt><trkpt lat="31.521084413537142" lon="-6.272276328227762"><ele>2469.0</ele><time>2026-05-04T14:17:32.999Z</time></trkpt><trkpt lat="31.521041577497844" lon="-6.272161316414367"><ele>2469.0</ele><time>2026-05-04T14:17:33.999Z</time></trkpt><trkpt lat="31.52099230383033" lon="-6.272050361661157"><ele>2469.0</ele><time>2026-05-04T14:17:34.999Z</time></trkpt><trkpt lat="31.52093777816625" lon="-6.271931235802375"><ele>2472.8</ele><time>2026-05-04T14:17:35.999Z</time></trkpt><trkpt lat="31.52088489737363" lon="-6.271809076727112"><ele>2476.6000000000004</ele><time>2026-05-04T14:17:36.999Z</time></trkpt><trkpt lat="31.52084056874919" lon="-6.27169548445981"><ele>2480.4</ele><time>2026-05-04T14:17:37.999Z</time></trkpt><trkpt lat="31.520799561759155" lon="-6.27159985476281"><ele>2484.2000000000003</ele><time>2026-05-04T14:17:38.999Z</time></trkpt><trkpt lat="31.52074613129435" lon="-6.271500591290273"><ele>2488.0</ele><time>2026-05-04T14:17:40Z</time></trkpt><trkpt lat="31.520698153146768" lon="-6.271409954290602"><ele>2488.0</ele><time>2026-05-04T14:17:41Z</time></trkpt><trkpt lat="31.52065752936749" lon="-6.271333209874715"><ele>2488.0</ele><time>2026-05-04T14:17:42Z</time></trkpt><trkpt lat="31.52059295396483" lon="-6.2713784584079155"><ele>2488.0</ele><time>2026-05-04T14:17:43Z</time></trkpt><trkpt lat="31.52050080109833" lon="-6.27133183406247"><ele>2488.0</ele><time>2026-05-04T14:17:45Z</time></trkpt><trkpt lat="31.52058465344086" lon="-6.271495658297304"><ele>2488.0</ele><time>2026-05-04T14:17:47Z</time></trkpt><trkpt lat="31.52057893927304" lon="-6.271410778684116"><ele>2488.0</ele><time>2026-05-04T14:17:48Z</time></trkpt><trkpt lat="31.52063567200558" lon="-6.2714985029264785"><ele>2488.0</ele><time>2026-05-04T14:17:49Z</time></trkpt><trkpt lat="31.52069425277227" lon="-6.271589086192283"><ele>2488.0</ele><time>2026-05-04T14:17:50Z</time></trkpt><trkpt lat="31.52074571192184" lon="-6.271681701342293"><ele>2488.0</ele><time>2026-05-04T14:17:51Z</time></trkpt><trkpt lat="31.52080657721788" lon="-6.271791997297099"><ele>2488.0</ele><time>2026-05-04T14:17:52Z</time></trkpt><trkpt lat="31.520871509879445" lon="-6.271909638595261"><ele>2488.0</ele><time>2026-05-04T14:17:53Z</time></trkpt><trkpt lat="31.52089915559247" lon="-6.272048509105718"><ele>2488.0</ele><time>2026-05-04T14:17:54Z</time></trkpt><trkpt lat="31.520947402058724" lon="-6.272166161550592"><ele>2488.0</ele><time>2026-05-04T14:17:55Z</time></trkpt><trkpt lat="31.520979491492657" lon="-6.272297139019808"><ele>2488.0</ele><time>2026-05-04T14:17:56Z</time></trkpt><trkpt lat="31.520986825847103" lon="-6.2724397530060525"><ele>2483.25</ele><time>2026-05-04T14:17:57Z</time></trkpt><trkpt lat="31.520996047291916" lon="-6.272569464041145"><ele>2478.5</ele><time>2026-05-04T14:17:58Z</time></trkpt><trkpt lat="31.521003119314578" lon="-6.272703399961737"><ele>2473.75</ele><time>2026-05-04T14:17:59Z</time></trkpt><trkpt lat="31.521011042050834" lon="-6.2728385451470885"><ele>2469.0</ele><time>2026-05-04T14:18:00Z</time></trkpt><trkpt lat="31.521014590175255" lon="-6.272967272213061"><ele>2469.0</ele><time>2026-05-04T14:18:01Z</time></trkpt><trkpt lat="31.521018628086573" lon="-6.273080226306683"><ele>2469.0</ele><time>2026-05-04T14:18:02Z</time></trkpt><trkpt lat="31.52105496611281" lon="-6.273184830237163"><ele>2469.0</ele><time>2026-05-04T14:18:03Z</time></trkpt><trkpt lat="31.52108802073524" lon="-6.273293516268099"><ele>2469.0</ele><time>2026-05-04T14:18:04Z</time></trkpt><trkpt lat="31.521156927283265" lon="-6.273371780377507"><ele>2469.0</ele><time>2026-05-04T14:18:05Z</time></trkpt><trkpt lat="31.521228913513312" lon="-6.27344277872779"><ele>2473.0</ele><time>2026-05-04T14:18:06Z</time></trkpt><trkpt lat="31.52130707408882" lon="-6.273525504524532"><ele>2477.0</ele><time>2026-05-04T14:18:07Z</time></trkpt><trkpt lat="31.521386121346517" lon="-6.273603951233115"><ele>2481.0</ele><time>2026-05-04T14:18:08Z</time></trkpt><trkpt lat="31.521460151086284" lon="-6.273677452286222"><ele>2485.0</ele><time>2026-05-04T14:18:09Z</time></trkpt><trkpt lat="31.52154923465038" lon="-6.2737500282626435"><ele>2489.0</ele><time>2026-05-04T14:18:10Z</time></trkpt><trkpt lat="31.521636961046678" lon="-6.273821499136819"><ele>2489.0</ele><time>2026-05-04T14:18:11Z</time></trkpt><trkpt lat="31.52172379922831" lon="-6.27388474843355"><ele>2489.0</ele><time>2026-05-04T14:18:12Z</time></trkpt><trkpt lat="31.521810153094915" lon="-6.273937313203861"><ele>2489.0</ele><time>2026-05-04T14:18:13Z</time></trkpt><trkpt lat="31.521906796711143" lon="-6.273978137865709"><ele>2489.0</ele><time>2026-05-04T14:18:14Z</time></trkpt><trkpt lat="31.52200217470932" lon="-6.27398146944087"><ele>2489.0</ele><time>2026-05-04T14:18:15Z</time></trkpt><trkpt lat="31.522098737539878" lon="-6.2739813169039715"><ele>2484.333333333333</ele><time>2026-05-04T14:18:15.999Z</time></trkpt><trkpt lat="31.52219038247011" lon="-6.273977704470873"><ele>2479.6666666666665</ele><time>2026-05-04T14:18:16.999Z</time></trkpt><trkpt lat="31.522276964617436" lon="-6.273989873911037"><ele>2475.0</ele><time>2026-05-04T14:18:17.999Z</time></trkpt><trkpt lat="31.522355181189276" lon="-6.273973697503925"><ele>2470.3333333333335</ele><time>2026-05-04T14:18:18.999Z</time></trkpt><trkpt lat="31.522424199938293" lon="-6.274008539354068"><ele>2465.666666666667</ele><time>2026-05-04T14:18:19.999Z</time></trkpt><trkpt lat="31.522462099477885" lon="-6.27408601025997"><ele>2461.0</ele><time>2026-05-04T14:18:20.999Z</time></trkpt><trkpt lat="31.522450686785657" lon="-6.27418072828519"><ele>2461.0</ele><time>2026-05-04T14:18:21.999Z</time></trkpt><trkpt lat="31.52241194519193" lon="-6.27425085304749"><ele>2461.0</ele><time>2026-05-04T14:18:22.999Z</time></trkpt><trkpt lat="31.522340423969933" lon="-6.274291645235048"><ele>2461.0</ele><time>2026-05-04T14:18:23.999Z</time></trkpt><trkpt lat="31.522239823995413" lon="-6.274286313063367"><ele>2461.0</ele><time>2026-05-04T14:18:24.999Z</time></trkpt><trkpt lat="31.52214016997212" lon="-6.274259826348831"><ele>2461.0</ele><time>2026-05-04T14:18:25.999Z</time></trkpt><trkpt lat="31.522038862476105" lon="-6.27423514924696"><ele>2459.4</ele><time>2026-05-04T14:18:26.999Z</time></trkpt><trkpt lat="31.521935015782418" lon="-6.274241482526313"><ele>2457.8</ele><time>2026-05-04T14:18:27.999Z</time></trkpt><trkpt lat="31.52182961606717" lon="-6.274253633703234"><ele>2456.2000000000003</ele><time>2026-05-04T14:18:28.999Z</time></trkpt><trkpt lat="31.52172543292673" lon="-6.274244582899635"><ele>2454.6</ele><time>2026-05-04T14:18:29.999Z</time></trkpt><trkpt lat="31.521617186907807" lon="-6.274220298485546"><ele>2453.0</ele><time>2026-05-04T14:18:30.999Z</time></trkpt><trkpt lat="31.52150901173647" lon="-6.274183079490439"><ele>2453.0</ele><time>2026-05-04T14:18:31.999Z</time></trkpt><trkpt lat="31.52139838451021" lon="-6.274156099005159"><ele>2453.0</ele><time>2026-05-04T14:18:32.999Z</time></trkpt><trkpt lat="31.52128756726973" lon="-6.274126998058584"><ele>2453.0</ele><time>2026-05-04T14:18:33.999Z</time></trkpt><trkpt lat="31.521177219147123" lon="-6.274091825902125"><ele>2453.0</ele><time>2026-05-04T14:18:34.999Z</time></trkpt><trkpt lat="31.52106661550538" lon="-6.27404892153855"><ele>2453.8</ele><time>2026-05-04T14:18:35.999Z</time></trkpt><trkpt lat="31.52095950930674" lon="-6.273991677506614"><ele>2454.6000000000004</ele><time>2026-05-04T14:18:36.999Z</time></trkpt><trkpt lat="31.520861143500042" lon="-6.273917042734438"><ele>2455.3999999999996</ele><time>2026-05-04T14:18:37.999Z</time></trkpt><trkpt lat="31.520778958568027" lon="-6.273828784853887"><ele>2456.2</ele><time>2026-05-04T14:18:38.999Z</time></trkpt><trkpt lat="31.520710706408245" lon="-6.273744692032378"><ele>2457.0</ele><time>2026-05-04T14:18:39.999Z</time></trkpt><trkpt lat="31.52065003305449" lon="-6.27368562167388"><ele>2457.0</ele><time>2026-05-04T14:18:40.999Z</time></trkpt><trkpt lat="31.520589185407495" lon="-6.273663101596649"><ele>2457.0</ele><time>2026-05-04T14:18:41.999Z</time></trkpt><trkpt lat="31.520525554208653" lon="-6.2736739330884905"><ele>2457.0</ele><time>2026-05-04T14:18:42.999Z</time></trkpt><trkpt lat="31.52045615434972" lon="-6.273822893600557"><ele>2457.0</ele><time>2026-05-04T14:18:44.999Z</time></trkpt><trkpt lat="31.520505423519502" lon="-6.273910728730655"><ele>2457.0</ele><time>2026-05-04T14:18:45.999Z</time></trkpt><trkpt lat="31.520574767276063" lon="-6.273968501972421"><ele>2457.0</ele><time>2026-05-04T14:18:46.999Z</time></trkpt><trkpt lat="31.52063908652868" lon="-6.27404677264184"><ele>2452.6</ele><time>2026-05-04T14:18:47.999Z</time></trkpt><trkpt lat="31.520714436961274" lon="-6.274131232982871"><ele>2448.2</ele><time>2026-05-04T14:18:48.999Z</time></trkpt><trkpt lat="31.520795044694147" lon="-6.27421018121399"><ele>2443.8</ele><time>2026-05-04T14:18:49.999Z</time></trkpt><trkpt lat="31.520873211290272" lon="-6.274263529406436"><ele>2439.4</ele><time>2026-05-04T14:18:50.999Z</time></trkpt><trkpt lat="31.520968059069393" lon="-6.274322300205776"><ele>2435.0</ele><time>2026-05-04T14:18:51.999Z</time></trkpt><trkpt lat="31.521068288574252" lon="-6.274383940801419"><ele>2435.0</ele><time>2026-05-04T14:18:52.999Z</time></trkpt><trkpt lat="31.521154047198962" lon="-6.274446766315827"><ele>2435.0</ele><time>2026-05-04T14:18:53.999Z</time></trkpt><trkpt lat="31.521235954058124" lon="-6.274506977190419"><ele>2435.0</ele><time>2026-05-04T14:18:54.999Z</time></trkpt><trkpt lat="31.52131636259078" lon="-6.274517295695431"><ele>2435.0</ele><time>2026-05-04T14:18:55.999Z</time></trkpt><trkpt lat="31.52140074881784" lon="-6.274541094894517"><ele>2435.0</ele><time>2026-05-04T14:18:56.999Z</time></trkpt><trkpt lat="31.52146851654761" lon="-6.274545670440566"><ele>2435.0</ele><time>2026-05-04T14:18:57.999Z</time></trkpt><trkpt lat="31.52158470727373" lon="-6.27454531900809"><ele>2431.75</ele><time>2026-05-04T14:18:59.999Z</time></trkpt><trkpt lat="31.521681949021072" lon="-6.2745568621903605"><ele>2428.5</ele><time>2026-05-04T14:19:01.999Z</time></trkpt><trkpt lat="31.521789526521843" lon="-6.274573650622699"><ele>2425.25</ele><time>2026-05-04T14:19:03.999Z</time></trkpt><trkpt lat="31.52188583930347" lon="-6.274591747813465"><ele>2422.0</ele><time>2026-05-04T14:19:05.999Z</time></trkpt><trkpt lat="31.52190515840216" lon="-6.274788188935835"><ele>2422.0</ele><time>2026-05-04T14:19:06.999Z</time></trkpt><trkpt lat="31.521884733438224" lon="-6.274859205152423"><ele>2422.0</ele><time>2026-05-04T14:19:07.999Z</time></trkpt><trkpt lat="31.52180878809044" lon="-6.274954409141275"><ele>2422.0</ele><time>2026-05-04T14:19:09.999Z</time></trkpt><trkpt lat="31.521718730774573" lon="-6.274959652268197"><ele>2422.0</ele><time>2026-05-04T14:19:10.999Z</time></trkpt><trkpt lat="31.52162798934173" lon="-6.274961681167776"><ele>2422.0</ele><time>2026-05-04T14:19:11.999Z</time></trkpt><trkpt lat="31.521534535051817" lon="-6.274954934334778"><ele>2422.0</ele><time>2026-05-04T14:19:12.999Z</time></trkpt><trkpt lat="31.52143703411746" lon="-6.274939686616497"><ele>2422.0</ele><time>2026-05-04T14:19:13.999Z</time></trkpt><trkpt lat="31.521338237891545" lon="-6.274921470050272"><ele>2422.0</ele><time>2026-05-04T14:19:14.999Z</time></trkpt><trkpt lat="31.521240701888804" lon="-6.274896811292657"><ele>2422.0</ele><time>2026-05-04T14:19:15.999Z</time></trkpt><trkpt lat="31.521137415239814" lon="-6.274884851074926"><ele>2422.0</ele><time>2026-05-04T14:19:16.999Z</time></trkpt><trkpt lat="31.521038264403174" lon="-6.274854505990586"><ele>2419.4</ele><time>2026-05-04T14:19:17.999Z</time></trkpt><trkpt lat="31.520934949466067" lon="-6.274828850985955"><ele>2416.7999999999997</ele><time>2026-05-04T14:19:18.999Z</time></trkpt><trkpt lat="31.520841013249683" lon="-6.274803292803856"><ele>2414.2</ele><time>2026-05-04T14:19:19.999Z</time></trkpt><trkpt lat="31.52076966280713" lon="-6.2747305878552595"><ele>2411.6</ele><time>2026-05-04T14:19:20.999Z</time></trkpt><trkpt lat="31.520704890411608" lon="-6.274712355782515"><ele>2409.0</ele><time>2026-05-04T14:19:21.999Z</time></trkpt><trkpt lat="31.520611000159647" lon="-6.274784348106995"><ele>2409.0</ele><time>2026-05-04T14:19:23.999Z</time></trkpt><trkpt lat="31.52061663148876" lon="-6.274865770434786"><ele>2409.0</ele><time>2026-05-04T14:19:24.999Z</time></trkpt><trkpt lat="31.520666245002044" lon="-6.274932879687399"><ele>2409.0</ele><time>2026-05-04T14:19:25.999Z</time></trkpt><trkpt lat="31.520748698942715" lon="-6.2749632973562814"><ele>2409.0</ele><time>2026-05-04T14:19:26.999Z</time></trkpt><trkpt lat="31.52083219780137" lon="-6.274971429526318"><ele>2409.0</ele><time>2026-05-04T14:19:27.999Z</time></trkpt><trkpt lat="31.520911334605046" lon="-6.274975141059177"><ele>2409.0</ele><time>2026-05-04T14:19:28.999Z</time></trkpt><trkpt lat="31.520987205717027" lon="-6.274988073410083"><ele>2409.0</ele><time>2026-05-04T14:19:29.999Z</time></trkpt><trkpt lat="31.521058682959957" lon="-6.275008413214938"><ele>2409.0</ele><time>2026-05-04T14:19:30.999Z</time></trkpt><trkpt lat="31.521133507492195" lon="-6.275046399296154"><ele>2409.0</ele><time>2026-05-04T14:19:31.999Z</time></trkpt><trkpt lat="31.52123108222531" lon="-6.275104191308887"><ele>2409.0</ele><time>2026-05-04T14:19:32.999Z</time></trkpt><trkpt lat="31.52134535622275" lon="-6.275125618238795"><ele>2409.0</ele><time>2026-05-04T14:19:33.999Z</time></trkpt><trkpt lat="31.52145722711567" lon="-6.275156935341885"><ele>2411.6</ele><time>2026-05-04T14:19:34.999Z</time></trkpt><trkpt lat="31.52156010080891" lon="-6.275183448576385"><ele>2414.2</ele><time>2026-05-04T14:19:35.999Z</time></trkpt><trkpt lat="31.52165478689286" lon="-6.2752194935016385"><ele>2416.7999999999997</ele><time>2026-05-04T14:19:36.999Z</time></trkpt><trkpt lat="31.521754181663468" lon="-6.27522626686311"><ele>2419.4</ele><time>2026-05-04T14:19:37.999Z</time></trkpt><trkpt lat="31.521852309980147" lon="-6.275222109508158"><ele>2422.0</ele><time>2026-05-04T14:19:38.999Z</time></trkpt><trkpt lat="31.521941149582208" lon="-6.2752193197801525"><ele>2422.0</ele><time>2026-05-04T14:19:39.999Z</time></trkpt><trkpt lat="31.522015166410778" lon="-6.275238890164278"><ele>2422.0</ele><time>2026-05-04T14:19:40.999Z</time></trkpt><trkpt lat="31.522073024343133" lon="-6.275282333750301"><ele>2422.0</ele><time>2026-05-04T14:19:41.999Z</time></trkpt><trkpt lat="31.52209870222544" lon="-6.275360249533718"><ele>2422.0</ele><time>2026-05-04T14:19:42.999Z</time></trkpt><trkpt lat="31.522089066216644" lon="-6.275442806233971"><ele>2422.0</ele><time>2026-05-04T14:19:43.999Z</time></trkpt><trkpt lat="31.522043498212298" lon="-6.275509739632925"><ele>2422.0</ele><time>2026-05-04T14:19:45Z</time></trkpt><trkpt lat="31.521963640134523" lon="-6.275536316121536"><ele>2422.0</ele><time>2026-05-04T14:19:46Z</time></trkpt><trkpt lat="31.52186198651077" lon="-6.275519152294573"><ele>2422.0</ele><time>2026-05-04T14:19:47Z</time></trkpt><trkpt lat="31.52174648773991" lon="-6.275492742448307"><ele>2422.0</ele><time>2026-05-04T14:19:48Z</time></trkpt><trkpt lat="31.52162469925703" lon="-6.275481920818541"><ele>2422.0</ele><time>2026-05-04T14:19:49Z</time></trkpt><trkpt lat="31.521494574958343" lon="-6.275435435598936"><ele>2422.0</ele><time>2026-05-04T14:19:50Z</time></trkpt><trkpt lat="31.52135897654065" lon="-6.275407383575951"><ele>2418.75</ele><time>2026-05-04T14:19:51Z</time></trkpt><trkpt lat="31.521224748791987" lon="-6.275381094875768"><ele>2415.5</ele><time>2026-05-04T14:19:52Z</time></trkpt><trkpt lat="31.52109139037542" lon="-6.275355748829938"><ele>2412.25</ele><time>2026-05-04T14:19:53Z</time></trkpt><trkpt lat="31.520955197031626" lon="-6.275348758431947"><ele>2409.0</ele><time>2026-05-04T14:19:54Z</time></trkpt><trkpt lat="31.520824806410754" lon="-6.275319254068279"><ele>2409.0</ele><time>2026-05-04T14:19:55Z</time></trkpt><trkpt lat="31.52070569680096" lon="-6.275290600066801"><ele>2409.0</ele><time>2026-05-04T14:19:56Z</time></trkpt><trkpt lat="31.520597053364504" lon="-6.2752382830429685"><ele>2409.0</ele><time>2026-05-04T14:19:57Z</time></trkpt><trkpt lat="31.520491516195424" lon="-6.2751821066087015"><ele>2409.0</ele><time>2026-05-04T14:19:58Z</time></trkpt><trkpt lat="31.520395281953533" lon="-6.275107720909177"><ele>2403.8333333333335</ele><time>2026-05-04T14:19:59Z</time></trkpt><trkpt lat="31.520311643800607" lon="-6.275035099438677"><ele>2398.6666666666665</ele><time>2026-05-04T14:20:00Z</time></trkpt><trkpt lat="31.52024998557102" lon="-6.274977265625063"><ele>2393.5</ele><time>2026-05-04T14:20:01Z</time></trkpt><trkpt lat="31.520154392174202" lon="-6.274974347029578"><ele>2388.333333333333</ele><time>2026-05-04T14:20:03Z</time></trkpt><trkpt lat="31.520110536665857" lon="-6.275028953061059"><ele>2383.1666666666665</ele><time>2026-05-04T14:20:04Z</time></trkpt><trkpt lat="31.520101921305102" lon="-6.2751061075224355"><ele>2378.0</ele><time>2026-05-04T14:20:05Z</time></trkpt><trkpt lat="31.520187461876073" lon="-6.27516173649025"><ele>2378.0</ele><time>2026-05-04T14:20:06Z</time></trkpt><trkpt lat="31.520239406330994" lon="-6.275233237293283"><ele>2378.0</ele><time>2026-05-04T14:20:07Z</time></trkpt><trkpt lat="31.52031520661499" lon="-6.275306841741745"><ele>2378.0</ele><time>2026-05-04T14:20:08Z</time></trkpt><trkpt lat="31.5203897146904" lon="-6.27539126174682"><ele>2378.0</ele><time>2026-05-04T14:20:09Z</time></trkpt><trkpt lat="31.52049585303337" lon="-6.2754466699383284"><ele>2378.0</ele><time>2026-05-04T14:20:10Z</time></trkpt><trkpt lat="31.520605635237143" lon="-6.275487789828055"><ele>2379.0</ele><time>2026-05-04T14:20:11Z</time></trkpt><trkpt lat="31.520709671032158" lon="-6.275527021116799"><ele>2380.0</ele><time>2026-05-04T14:20:11.999Z</time></trkpt><trkpt lat="31.520807913379915" lon="-6.275575814420175"><ele>2381.0</ele><time>2026-05-04T14:20:12.999Z</time></trkpt><trkpt lat="31.5209018206554" lon="-6.275624852993413"><ele>2382.0</ele><time>2026-05-04T14:20:13.999Z</time></trkpt><trkpt lat="31.520996162262836" lon="-6.275670730796275"><ele>2383.0</ele><time>2026-05-04T14:20:14.999Z</time></trkpt><trkpt lat="31.521094012552464" lon="-6.2757124155309745"><ele>2383.0</ele><time>2026-05-04T14:20:15.999Z</time></trkpt><trkpt lat="31.52119628888673" lon="-6.275749164592222"><ele>2383.0</ele><time>2026-05-04T14:20:16.999Z</time></trkpt><trkpt lat="31.521300471365873" lon="-6.275773062744008"><ele>2383.0</ele><time>2026-05-04T14:20:17.999Z</time></trkpt><trkpt lat="31.521387026142232" lon="-6.2757843151965504"><ele>2383.0</ele><time>2026-05-04T14:20:18.999Z</time></trkpt><trkpt lat="31.521450003554207" lon="-6.275823670982446"><ele>2383.0</ele><time>2026-05-04T14:20:19.999Z</time></trkpt><trkpt lat="31.52149747779685" lon="-6.2758812734624865"><ele>2383.0</ele><time>2026-05-04T14:20:20.999Z</time></trkpt><trkpt lat="31.521502993931332" lon="-6.275959648024981"><ele>2383.0</ele><time>2026-05-04T14:20:21.999Z</time></trkpt><trkpt lat="31.52141576060875" lon="-6.276064519603112"><ele>2383.0</ele><time>2026-05-04T14:20:23.999Z</time></trkpt><trkpt lat="31.521325307779513" lon="-6.276060586690875"><ele>2383.0</ele><time>2026-05-04T14:20:24.999Z</time></trkpt><trkpt lat="31.521224736239503" lon="-6.27606852267346"><ele>2383.0</ele><time>2026-05-04T14:20:25.999Z</time></trkpt><trkpt lat="31.521105402993374" lon="-6.276041644047963"><ele>2383.0</ele><time>2026-05-04T14:20:26.999Z</time></trkpt><trkpt lat="31.52096244528044" lon="-6.276010726441053"><ele>2383.0</ele><time>2026-05-04T14:20:27.999Z</time></trkpt><trkpt lat="31.52083169311408" lon="-6.275957092280301"><ele>2383.0</ele><time>2026-05-04T14:20:28.999Z</time></trkpt><trkpt lat="31.520706852795605" lon="-6.275896621302218"><ele>2383.0</ele><time>2026-05-04T14:20:29.999Z</time></trkpt><trkpt lat="31.52057430894932" lon="-6.275861987877712"><ele>2383.0</ele><time>2026-05-04T14:20:30.999Z</time></trkpt><trkpt lat="31.520445612267693" lon="-6.275827097277774"><ele>2376.25</ele><time>2026-05-04T14:20:31.999Z</time></trkpt><trkpt lat="31.520322466784577" lon="-6.275790940155232"><ele>2369.5</ele><time>2026-05-04T14:20:32.999Z</time></trkpt><trkpt lat="31.520206398266264" lon="-6.275750130097402"><ele>2362.75</ele><time>2026-05-04T14:20:33.999Z</time></trkpt><trkpt lat="31.52011226915635" lon="-6.2756976279316685"><ele>2356.0</ele><time>2026-05-04T14:20:34.999Z</time></trkpt><trkpt lat="31.520028727758113" lon="-6.275624381401504"><ele>2360.4</ele><time>2026-05-04T14:20:35.999Z</time></trkpt><trkpt lat="31.519936579718955" lon="-6.275559533978848"><ele>2364.8</ele><time>2026-05-04T14:20:36.999Z</time></trkpt><trkpt lat="31.519874581027945" lon="-6.275464752159713"><ele>2369.2000000000003</ele><time>2026-05-04T14:20:37.999Z</time></trkpt><trkpt lat="31.519820118635558" lon="-6.275365026501019"><ele>2373.6</ele><time>2026-05-04T14:20:38.999Z</time></trkpt><trkpt lat="31.51977054807348" lon="-6.27526968066911"><ele>2378.0</ele><time>2026-05-04T14:20:39.999Z</time></trkpt><trkpt lat="31.519736041408166" lon="-6.27514422794355"><ele>2378.0</ele><time>2026-05-04T14:20:40.999Z</time></trkpt><trkpt lat="31.51972821060331" lon="-6.274991795151049"><ele>2378.0</ele><time>2026-05-04T14:20:41.999Z</time></trkpt><trkpt lat="31.519722254869855" lon="-6.274872633731826"><ele>2378.0</ele><time>2026-05-04T14:20:42.999Z</time></trkpt><trkpt lat="31.51968124531203" lon="-6.274712501303667"><ele>2378.0</ele><time>2026-05-04T14:20:44.999Z</time></trkpt><trkpt lat="31.5196633801279" lon="-6.274636583409924"><ele>2378.0</ele><time>2026-05-04T14:20:45.999Z</time></trkpt><trkpt lat="31.51957369123407" lon="-6.274644965451403"><ele>2372.2000000000003</ele><time>2026-05-04T14:20:47.999Z</time></trkpt><trkpt lat="31.51951014481069" lon="-6.274683434871832"><ele>2366.4</ele><time>2026-05-04T14:20:48.999Z</time></trkpt><trkpt lat="31.5194883215513" lon="-6.27478074630018"><ele>2360.6000000000004</ele><time>2026-05-04T14:20:49.999Z</time></trkpt><trkpt lat="31.519502112275788" lon="-6.274901211990653"><ele>2354.8</ele><time>2026-05-04T14:20:50.999Z</time></trkpt><trkpt lat="31.519524576557828" lon="-6.275032507581971"><ele>2349.0</ele><time>2026-05-04T14:20:51.999Z</time></trkpt><trkpt lat="31.519561330880787" lon="-6.275160122803907"><ele>2350.4</ele><time>2026-05-04T14:20:52.999Z</time></trkpt><trkpt lat="31.51959121210306" lon="-6.275280539914086"><ele>2351.8</ele><time>2026-05-04T14:20:53.999Z</time></trkpt><trkpt lat="31.519621467810207" lon="-6.2753990887371565"><ele>2353.2</ele><time>2026-05-04T14:20:54.999Z</time></trkpt><trkpt lat="31.519644860000653" lon="-6.275513891299539"><ele>2354.6</ele><time>2026-05-04T14:20:55.999Z</time></trkpt><trkpt lat="31.51966745872696" lon="-6.275626574884899"><ele>2356.0</ele><time>2026-05-04T14:20:56.999Z</time></trkpt><trkpt lat="31.51969524407991" lon="-6.275731477058993"><ele>2356.0</ele><time>2026-05-04T14:20:57.999Z</time></trkpt><trkpt lat="31.519763814829876" lon="-6.275809419802244"><ele>2356.0</ele><time>2026-05-04T14:20:58.999Z</time></trkpt><trkpt lat="31.519819701595736" lon="-6.275893336588016"><ele>2356.0</ele><time>2026-05-04T14:20:59.999Z</time></trkpt><trkpt lat="31.51991180763919" lon="-6.2759459816933365"><ele>2356.0</ele><time>2026-05-04T14:21:00.999Z</time></trkpt><trkpt lat="31.519949043929866" lon="-6.276025047012559"><ele>2356.0</ele><time>2026-05-04T14:21:01.999Z</time></trkpt><trkpt lat="31.52001424612629" lon="-6.276068710096565"><ele>2356.0</ele><time>2026-05-04T14:21:02.999Z</time></trkpt><trkpt lat="31.520066119053833" lon="-6.276114121610274"><ele>2356.0</ele><time>2026-05-04T14:21:03.999Z</time></trkpt><trkpt lat="31.52003606577045" lon="-6.276223786358285"><ele>2356.0</ele><time>2026-05-04T14:21:05.999Z</time></trkpt><trkpt lat="31.519925863072093" lon="-6.276250018802107"><ele>2356.0</ele><time>2026-05-04T14:21:07.999Z</time></trkpt><trkpt lat="31.51984766770608" lon="-6.276196592657916"><ele>2356.0</ele><time>2026-05-04T14:21:08.999Z</time></trkpt><trkpt lat="31.51976895788103" lon="-6.2761273366046"><ele>2356.0</ele><time>2026-05-04T14:21:09.999Z</time></trkpt><trkpt lat="31.519687376628557" lon="-6.276046133288226"><ele>2356.0</ele><time>2026-05-04T14:21:10.999Z</time></trkpt><trkpt lat="31.519588856589916" lon="-6.275969574485435"><ele>2356.0</ele><time>2026-05-04T14:21:11.999Z</time></trkpt><trkpt lat="31.51949619971347" lon="-6.275887905657808"><ele>2356.0</ele><time>2026-05-04T14:21:12.999Z</time></trkpt><trkpt lat="31.51942369147614" lon="-6.2757899526702134"><ele>2356.0</ele><time>2026-05-04T14:21:13.999Z</time></trkpt><trkpt lat="31.51932941118895" lon="-6.275700505814963"><ele>2351.25</ele><time>2026-05-04T14:21:14.999Z</time></trkpt><trkpt lat="31.519277716450453" lon="-6.275583293928967"><ele>2346.5</ele><time>2026-05-04T14:21:15.999Z</time></trkpt><trkpt lat="31.51922201629469" lon="-6.275458083701321"><ele>2341.75</ele><time>2026-05-04T14:21:16.999Z</time></trkpt><trkpt lat="31.519170297300413" lon="-6.27530768510205"><ele>2337.0</ele><time>2026-05-04T14:21:17.999Z</time></trkpt><trkpt lat="31.51912761166632" lon="-6.275170852754138"><ele>2337.0</ele><time>2026-05-04T14:21:18.999Z</time></trkpt><trkpt lat="31.51908185053105" lon="-6.275036101394293"><ele>2337.0</ele><time>2026-05-04T14:21:19.999Z</time></trkpt><trkpt lat="31.519035296702512" lon="-6.274903453628044"><ele>2337.0</ele><time>2026-05-04T14:21:20.999Z</time></trkpt><trkpt lat="31.518992862339218" lon="-6.274756229457276"><ele>2337.0</ele><time>2026-05-04T14:21:21.999Z</time></trkpt><trkpt lat="31.51895439974257" lon="-6.274636324161685"><ele>2339.0</ele><time>2026-05-04T14:21:22.999Z</time></trkpt><trkpt lat="31.51890890404421" lon="-6.274534894210548"><ele>2341.0</ele><time>2026-05-04T14:21:23.999Z</time></trkpt><trkpt lat="31.51886782425183" lon="-6.274449746346876"><ele>2343.0</ele><time>2026-05-04T14:21:24.999Z</time></trkpt><trkpt lat="31.518826349850656" lon="-6.274365273567781"><ele>2345.0</ele><time>2026-05-04T14:21:25.999Z</time></trkpt><trkpt lat="31.51877990557993" lon="-6.2742729991029496"><ele>2347.0</ele><time>2026-05-04T14:21:26.999Z</time></trkpt><trkpt lat="31.518710637978895" lon="-6.274208979717498"><ele>2349.0</ele><time>2026-05-04T14:21:27.999Z</time></trkpt><trkpt lat="31.518628925827546" lon="-6.2741234309439955"><ele>2340.75</ele><time>2026-05-04T14:21:28.999Z</time></trkpt><trkpt lat="31.518513242533537" lon="-6.274082116377253"><ele>2332.5</ele><time>2026-05-04T14:21:29.999Z</time></trkpt><trkpt lat="31.518395194479165" lon="-6.2740425233363695"><ele>2324.25</ele><time>2026-05-04T14:21:30.999Z</time></trkpt><trkpt lat="31.51828545163365" lon="-6.274001287519196"><ele>2316.0</ele><time>2026-05-04T14:21:31.999Z</time></trkpt><trkpt lat="31.518185340821734" lon="-6.273946320960438"><ele>2313.25</ele><time>2026-05-04T14:21:32.999Z</time></trkpt><trkpt lat="31.518091453508525" lon="-6.273868087058619"><ele>2310.5</ele><time>2026-05-04T14:21:33.999Z</time></trkpt><trkpt lat="31.517998381765416" lon="-6.273764922126826"><ele>2307.75</ele><time>2026-05-04T14:21:34.999Z</time></trkpt><trkpt lat="31.517894525207144" lon="-6.273662142506872"><ele>2305.0</ele><time>2026-05-04T14:21:35.999Z</time></trkpt><trkpt lat="31.517806588232794" lon="-6.273546491312692"><ele>2305.0</ele><time>2026-05-04T14:21:36.999Z</time></trkpt><trkpt lat="31.517713108254284" lon="-6.273446343534422"><ele>2305.0</ele><time>2026-05-04T14:21:37.999Z</time></trkpt><trkpt lat="31.517608536810872" lon="-6.273352128937859"><ele>2305.0</ele><time>2026-05-04T14:21:38.999Z</time></trkpt><trkpt lat="31.517496173197845" lon="-6.273251895058111"><ele>2305.0</ele><time>2026-05-04T14:21:39.999Z</time></trkpt><trkpt lat="31.51740155971702" lon="-6.273150113343842"><ele>2301.25</ele><time>2026-05-04T14:21:40.999Z</time></trkpt><trkpt lat="31.517297552414256" lon="-6.273056685218037"><ele>2297.5</ele><time>2026-05-04T14:21:41.999Z</time></trkpt><trkpt lat="31.517188812848527" lon="-6.272973592873571"><ele>2293.75</ele><time>2026-05-04T14:21:42.999Z</time></trkpt><trkpt lat="31.517076253183422" lon="-6.272892067140114"><ele>2290.0</ele><time>2026-05-04T14:21:43.999Z</time></trkpt><trkpt lat="31.516966074070456" lon="-6.272810483881279"><ele>2290.0</ele><time>2026-05-04T14:21:44.999Z</time></trkpt><trkpt lat="31.516849396932912" lon="-6.272753642794555"><ele>2290.0</ele><time>2026-05-04T14:21:45.999Z</time></trkpt><trkpt lat="31.5167298510817" lon="-6.272698816105958"><ele>2290.0</ele><time>2026-05-04T14:21:46.999Z</time></trkpt><trkpt lat="31.516609828884132" lon="-6.272645732810464"><ele>2290.0</ele><time>2026-05-04T14:21:47.999Z</time></trkpt><trkpt lat="31.51650420439038" lon="-6.272596002885055"><ele>2290.0</ele><time>2026-05-04T14:21:48.999Z</time></trkpt><trkpt lat="31.516417028901234" lon="-6.27253457122313"><ele>2290.0</ele><time>2026-05-04T14:21:49.999Z</time></trkpt><trkpt lat="31.51633970290737" lon="-6.272442240781783"><ele>2290.0</ele><time>2026-05-04T14:21:50.999Z</time></trkpt><trkpt lat="31.51623111023539" lon="-6.272370777608698"><ele>2290.0</ele><time>2026-05-04T14:21:51.999Z</time></trkpt><trkpt lat="31.516157780463015" lon="-6.272256171426587"><ele>2285.25</ele><time>2026-05-04T14:21:52.999Z</time></trkpt><trkpt lat="31.51608406455853" lon="-6.272142007262718"><ele>2280.5</ele><time>2026-05-04T14:21:53.999Z</time></trkpt><trkpt lat="31.51601069310344" lon="-6.272027846511297"><ele>2275.75</ele><time>2026-05-04T14:21:54.999Z</time></trkpt><trkpt lat="31.515962847289742" lon="-6.271923153302464"><ele>2271.0</ele><time>2026-05-04T14:21:55.999Z</time></trkpt><trkpt lat="31.515868292480516" lon="-6.271842828215681"><ele>2271.0</ele><time>2026-05-04T14:21:56.999Z</time></trkpt><trkpt lat="31.515763358731977" lon="-6.271788376441189"><ele>2271.0</ele><time>2026-05-04T14:21:57.999Z</time></trkpt><trkpt lat="31.515660537821777" lon="-6.271719323094564"><ele>2271.0</ele><time>2026-05-04T14:21:58.999Z</time></trkpt><trkpt lat="31.515568579062904" lon="-6.271632975058453"><ele>2271.0</ele><time>2026-05-04T14:21:59.999Z</time></trkpt><trkpt lat="31.515476678424076" lon="-6.271547225132452"><ele>2270.75</ele><time>2026-05-04T14:22:00.999Z</time></trkpt><trkpt lat="31.515371175724002" lon="-6.271465572825531"><ele>2270.5</ele><time>2026-05-04T14:22:01.999Z</time></trkpt><trkpt lat="31.515280507833644" lon="-6.2713596957030076"><ele>2270.25</ele><time>2026-05-04T14:22:02.999Z</time></trkpt><trkpt lat="31.51519173918828" lon="-6.271246175292327"><ele>2270.0</ele><time>2026-05-04T14:22:03.999Z</time></trkpt><trkpt lat="31.515108746524476" lon="-6.271148645178273"><ele>2270.0</ele><time>2026-05-04T14:22:04.999Z</time></trkpt><trkpt lat="31.515014738387457" lon="-6.271054342002189"><ele>2270.0</ele><time>2026-05-04T14:22:05.999Z</time></trkpt><trkpt lat="31.514915036415417" lon="-6.270964799566445"><ele>2270.0</ele><time>2026-05-04T14:22:06.999Z</time></trkpt><trkpt lat="31.514814956606642" lon="-6.270858012960086"><ele>2270.0</ele><time>2026-05-04T14:22:07.999Z</time></trkpt><trkpt lat="31.514695691668532" lon="-6.270798844707107"><ele>2270.0</ele><time>2026-05-04T14:22:08.999Z</time></trkpt><trkpt lat="31.51459421210364" lon="-6.270717116121057"><ele>2270.0</ele><time>2026-05-04T14:22:09.999Z</time></trkpt><trkpt lat="31.51448744929997" lon="-6.270660540388101"><ele>2270.0</ele><time>2026-05-04T14:22:10.999Z</time></trkpt><trkpt lat="31.5143821776597" lon="-6.270602643986232"><ele>2270.0</ele><time>2026-05-04T14:22:11.999Z</time></trkpt><trkpt lat="31.51428159890165" lon="-6.27053216299592"><ele>2263.75</ele><time>2026-05-04T14:22:12.999Z</time></trkpt><trkpt lat="31.51419146837972" lon="-6.270440360131532"><ele>2257.5</ele><time>2026-05-04T14:22:13.999Z</time></trkpt><trkpt lat="31.514093397356202" lon="-6.270373308081463"><ele>2251.25</ele><time>2026-05-04T14:22:14.999Z</time></trkpt><trkpt lat="31.51398086399509" lon="-6.270268241898826"><ele>2245.0</ele><time>2026-05-04T14:22:15.999Z</time></trkpt><trkpt lat="31.513914956942255" lon="-6.270154532084475"><ele>2245.0</ele><time>2026-05-04T14:22:16.999Z</time></trkpt><trkpt lat="31.51385623055516" lon="-6.270003079351291"><ele>2245.0</ele><time>2026-05-04T14:22:17.999Z</time></trkpt><trkpt lat="31.51381296037459" lon="-6.2698661828158215"><ele>2245.0</ele><time>2026-05-04T14:22:18.999Z</time></trkpt><trkpt lat="31.513775866801243" lon="-6.26970055958424"><ele>2245.0</ele><time>2026-05-04T14:22:19.999Z</time></trkpt><trkpt lat="31.513755827002644" lon="-6.269551226936708"><ele>2245.2</ele><time>2026-05-04T14:22:20.999Z</time></trkpt><trkpt lat="31.513739102727964" lon="-6.269422024069106"><ele>2245.4</ele><time>2026-05-04T14:22:21.999Z</time></trkpt><trkpt lat="31.51371783238274" lon="-6.269301314643747"><ele>2245.6</ele><time>2026-05-04T14:22:22.999Z</time></trkpt><trkpt lat="31.513698497176446" lon="-6.269179772081394"><ele>2245.8</ele><time>2026-05-04T14:22:23.999Z</time></trkpt><trkpt lat="31.51367950508388" lon="-6.269073145093626"><ele>2246.0</ele><time>2026-05-04T14:22:24.999Z</time></trkpt><trkpt lat="31.51364928602437" lon="-6.268962064816622"><ele>2241.4</ele><time>2026-05-04T14:22:25.999Z</time></trkpt><trkpt lat="31.513612949790897" lon="-6.26884454241791"><ele>2236.8</ele><time>2026-05-04T14:22:26.999Z</time></trkpt><trkpt lat="31.513632881251663" lon="-6.26870912591925"><ele>2232.2000000000003</ele><time>2026-05-04T14:22:27.999Z</time></trkpt><trkpt lat="31.51355701957408" lon="-6.2686179133193525"><ele>2227.6</ele><time>2026-05-04T14:22:28.999Z</time></trkpt><trkpt lat="31.513489134894122" lon="-6.268521041739556"><ele>2223.0</ele><time>2026-05-04T14:22:29.999Z</time></trkpt><trkpt lat="31.513422376099783" lon="-6.268421495487421"><ele>2223.0</ele><time>2026-05-04T14:22:30.999Z</time></trkpt><trkpt lat="31.51333980927065" lon="-6.268346210625917"><ele>2223.0</ele><time>2026-05-04T14:22:31.999Z</time></trkpt><trkpt lat="31.513268743659935" lon="-6.2682443749790755"><ele>2223.0</ele><time>2026-05-04T14:22:32.999Z</time></trkpt><trkpt lat="31.51321327135301" lon="-6.268143774884773"><ele>2223.0</ele><time>2026-05-04T14:22:33.999Z</time></trkpt><trkpt lat="31.513157537731583" lon="-6.268043923881272"><ele>2223.0</ele><time>2026-05-04T14:22:34.999Z</time></trkpt><trkpt lat="31.51309873883586" lon="-6.267950200615143"><ele>2224.4</ele><time>2026-05-04T14:22:35.999Z</time></trkpt><trkpt lat="31.51304506343717" lon="-6.267871105680581"><ele>2225.8</ele><time>2026-05-04T14:22:36.999Z</time></trkpt><trkpt lat="31.512994288707695" lon="-6.2678039731845265"><ele>2227.2</ele><time>2026-05-04T14:22:37.999Z</time></trkpt><trkpt lat="31.512942411109712" lon="-6.267758598614544"><ele>2228.6</ele><time>2026-05-04T14:22:38.999Z</time></trkpt><trkpt lat="31.51283815574888" lon="-6.2677377243048795"><ele>2230.0</ele><time>2026-05-04T14:22:40.999Z</time></trkpt><trkpt lat="31.512725726660314" lon="-6.267818433488605"><ele>2230.8333333333335</ele><time>2026-05-04T14:22:42.999Z</time></trkpt><trkpt lat="31.51266997613668" lon="-6.26789404418874"><ele>2231.666666666667</ele><time>2026-05-04T14:22:43.999Z</time></trkpt><trkpt lat="31.512624945356954" lon="-6.267978738933549"><ele>2232.5</ele><time>2026-05-04T14:22:44.999Z</time></trkpt><trkpt lat="31.51257218796608" lon="-6.268059057801332"><ele>2233.3333333333335</ele><time>2026-05-04T14:22:45.999Z</time></trkpt><trkpt lat="31.512512179177378" lon="-6.268137601315785"><ele>2234.1666666666665</ele><time>2026-05-04T14:22:46.999Z</time></trkpt><trkpt lat="31.512443859897157" lon="-6.268220483871576"><ele>2235.0</ele><time>2026-05-04T14:22:47.999Z</time></trkpt><trkpt lat="31.512368673843433" lon="-6.268301593691883"><ele>2232.4</ele><time>2026-05-04T14:22:48.999Z</time></trkpt><trkpt lat="31.512291107520305" lon="-6.268387891625201"><ele>2229.8</ele><time>2026-05-04T14:22:49.999Z</time></trkpt><trkpt lat="31.51221585867412" lon="-6.268471326360771"><ele>2227.2</ele><time>2026-05-04T14:22:50.999Z</time></trkpt><trkpt lat="31.512139918720766" lon="-6.2685447032952535"><ele>2224.6</ele><time>2026-05-04T14:22:51.999Z</time></trkpt><trkpt lat="31.512060022041585" lon="-6.268610481636364"><ele>2222.0</ele><time>2026-05-04T14:22:52.999Z</time></trkpt><trkpt lat="31.511974622963866" lon="-6.268661866253948"><ele>2222.0</ele><time>2026-05-04T14:22:53.999Z</time></trkpt><trkpt lat="31.511886040788937" lon="-6.2687102859652075"><ele>2222.0</ele><time>2026-05-04T14:22:54.999Z</time></trkpt><trkpt lat="31.51180110901244" lon="-6.268765433162245"><ele>2222.0</ele><time>2026-05-04T14:22:55.999Z</time></trkpt><trkpt lat="31.511714992913006" lon="-6.2688275689287645"><ele>2222.0</ele><time>2026-05-04T14:22:56.999Z</time></trkpt><trkpt lat="31.51162761317611" lon="-6.26887851016753"><ele>2222.0</ele><time>2026-05-04T14:22:57.999Z</time></trkpt><trkpt lat="31.511538715392227" lon="-6.268930704725574"><ele>2218.7999999999997</ele><time>2026-05-04T14:22:58.999Z</time></trkpt><trkpt lat="31.51145106841682" lon="-6.268986732853315"><ele>2215.6</ele><time>2026-05-04T14:22:59.999Z</time></trkpt><trkpt lat="31.511361554663235" lon="-6.2690416449449256"><ele>2212.3999999999996</ele><time>2026-05-04T14:23:00.999Z</time></trkpt><trkpt lat="31.5112662468456" lon="-6.269089903774703"><ele>2209.2</ele><time>2026-05-04T14:23:01.999Z</time></trkpt><trkpt lat="31.511167121333973" lon="-6.26913040166008"><ele>2206.0</ele><time>2026-05-04T14:23:02.999Z</time></trkpt><trkpt lat="31.51106553537399" lon="-6.2691597069243015"><ele>2204.8</ele><time>2026-05-04T14:23:03.999Z</time></trkpt><trkpt lat="31.510965848809576" lon="-6.269187643482351"><ele>2203.6</ele><time>2026-05-04T14:23:04.999Z</time></trkpt><trkpt lat="31.510873013639163" lon="-6.269227432664987"><ele>2202.4</ele><time>2026-05-04T14:23:05.999Z</time></trkpt><trkpt lat="31.51078839787143" lon="-6.269273672307308"><ele>2201.2</ele><time>2026-05-04T14:23:06.999Z</time></trkpt><trkpt lat="31.51070245015786" lon="-6.269327879442169"><ele>2200.0</ele><time>2026-05-04T14:23:07.999Z</time></trkpt><trkpt lat="31.510616532792632" lon="-6.269386553272491"><ele>2200.0</ele><time>2026-05-04T14:23:08.999Z</time></trkpt><trkpt lat="31.510525967559957" lon="-6.26944366791397"><ele>2200.0</ele><time>2026-05-04T14:23:09.999Z</time></trkpt><trkpt lat="31.510437603184858" lon="-6.269477808743645"><ele>2200.0</ele><time>2026-05-04T14:23:10.999Z</time></trkpt><trkpt lat="31.51034506288923" lon="-6.269497569499006"><ele>2200.0</ele><time>2026-05-04T14:23:11.999Z</time></trkpt><trkpt lat="31.51024714029243" lon="-6.269499496545254"><ele>2200.0</ele><time>2026-05-04T14:23:12.999Z</time></trkpt><trkpt lat="31.510143103153847" lon="-6.269490623252951"><ele>2198.0</ele><time>2026-05-04T14:23:13.999Z</time></trkpt><trkpt lat="31.510035128763718" lon="-6.2694631207808875"><ele>2196.0</ele><time>2026-05-04T14:23:14.999Z</time></trkpt><trkpt lat="31.50990300206887" lon="-6.269462143624211"><ele>2194.0</ele><time>2026-05-04T14:23:15.999Z</time></trkpt><trkpt lat="31.50977719578187" lon="-6.269441082309475"><ele>2192.0</ele><time>2026-05-04T14:23:16.999Z</time></trkpt><trkpt lat="31.509659431883563" lon="-6.269397054363365"><ele>2187.75</ele><time>2026-05-04T14:23:17.999Z</time></trkpt><trkpt lat="31.50954099173918" lon="-6.269374035485429"><ele>2183.5</ele><time>2026-05-04T14:23:18.999Z</time></trkpt><trkpt lat="31.509425064651712" lon="-6.26935279843889"><ele>2179.25</ele><time>2026-05-04T14:23:19.999Z</time></trkpt><trkpt lat="31.50931089435673" lon="-6.269333789146204"><ele>2175.0</ele><time>2026-05-04T14:23:20.999Z</time></trkpt><trkpt lat="31.509198866680677" lon="-6.269314594707788"><ele>2175.0</ele><time>2026-05-04T14:23:21.999Z</time></trkpt><trkpt lat="31.509088801958786" lon="-6.269297233787595"><ele>2175.0</ele><time>2026-05-04T14:23:22.999Z</time></trkpt><trkpt lat="31.508972292368075" lon="-6.269287572084513"><ele>2175.0</ele><time>2026-05-04T14:23:23.999Z</time></trkpt><trkpt lat="31.50885386648309" lon="-6.269287053143506"><ele>2175.0</ele><time>2026-05-04T14:23:24.999Z</time></trkpt><trkpt lat="31.508731269812657" lon="-6.269301067595567"><ele>2177.0</ele><time>2026-05-04T14:23:25.999Z</time></trkpt><trkpt lat="31.508607409142616" lon="-6.269327791807558"><ele>2179.0</ele><time>2026-05-04T14:23:26.999Z</time></trkpt><trkpt lat="31.50850353040812" lon="-6.269407850683771"><ele>2181.0</ele><time>2026-05-04T14:23:27.999Z</time></trkpt><trkpt lat="31.50838653972583" lon="-6.269468987111465"><ele>2183.0</ele><time>2026-05-04T14:23:28.999Z</time></trkpt><trkpt lat="31.50827086144536" lon="-6.269535675183443"><ele>2183.0</ele><time>2026-05-04T14:23:29.999Z</time></trkpt><trkpt lat="31.508151733937645" lon="-6.269603956102949"><ele>2183.0</ele><time>2026-05-04T14:23:30.999Z</time></trkpt><trkpt lat="31.50804703176081" lon="-6.269691436886097"><ele>2183.0</ele><time>2026-05-04T14:23:31.999Z</time></trkpt><trkpt lat="31.507938534573025" lon="-6.269771290053959"><ele>2183.0</ele><time>2026-05-04T14:23:32.999Z</time></trkpt><trkpt lat="31.50783532517119" lon="-6.269860182041602"><ele>2177.75</ele><time>2026-05-04T14:23:33.999Z</time></trkpt><trkpt lat="31.507713082468285" lon="-6.269917222783224"><ele>2172.5</ele><time>2026-05-04T14:23:34.999Z</time></trkpt><trkpt lat="31.507591450045975" lon="-6.269962844587885"><ele>2167.25</ele><time>2026-05-04T14:23:35.999Z</time></trkpt><trkpt lat="31.50746861237576" lon="-6.269985568223821"><ele>2162.0</ele><time>2026-05-04T14:23:36.999Z</time></trkpt><trkpt lat="31.507352203530825" lon="-6.270021437423312"><ele>2162.0</ele><time>2026-05-04T14:23:37.999Z</time></trkpt><trkpt lat="31.50722670724443" lon="-6.270048271901201"><ele>2162.0</ele><time>2026-05-04T14:23:38.999Z</time></trkpt><trkpt lat="31.507087303677295" lon="-6.270046064081563"><ele>2162.0</ele><time>2026-05-04T14:23:39.999Z</time></trkpt><trkpt lat="31.50694896666084" lon="-6.270043080779326"><ele>2162.0</ele><time>2026-05-04T14:23:40.999Z</time></trkpt><trkpt lat="31.506804917080633" lon="-6.270027380234628"><ele>2160.0</ele><time>2026-05-04T14:23:41.999Z</time></trkpt><trkpt lat="31.50666737772478" lon="-6.270006920686433"><ele>2158.0</ele><time>2026-05-04T14:23:42.999Z</time></trkpt><trkpt lat="31.506527765282488" lon="-6.269989517037579"><ele>2156.0</ele><time>2026-05-04T14:23:43.999Z</time></trkpt><trkpt lat="31.506396530749093" lon="-6.269958242179897"><ele>2154.0</ele><time>2026-05-04T14:23:44.999Z</time></trkpt><trkpt lat="31.506266467158042" lon="-6.269921394159355"><ele>2152.0</ele><time>2026-05-04T14:23:45.999Z</time></trkpt><trkpt lat="31.50612845110439" lon="-6.269878702692199"><ele>2150.0</ele><time>2026-05-04T14:23:46.999Z</time></trkpt><trkpt lat="31.50599017271351" lon="-6.269833340856637"><ele>2148.0</ele><time>2026-05-04T14:23:47.999Z</time></trkpt><trkpt lat="31.505854711598293" lon="-6.269765485373988"><ele>2146.0</ele><time>2026-05-04T14:23:48.999Z</time></trkpt><trkpt lat="31.50572279456119" lon="-6.2697132690644235"><ele>2145.25</ele><time>2026-05-04T14:23:49.999Z</time></trkpt><trkpt lat="31.505599646059565" lon="-6.269663271459734"><ele>2144.5</ele><time>2026-05-04T14:23:50.999Z</time></trkpt><trkpt lat="31.50547736475856" lon="-6.269614712868406"><ele>2143.75</ele><time>2026-05-04T14:23:51.999Z</time></trkpt><trkpt lat="31.505355453022183" lon="-6.269557841517463"><ele>2143.0</ele><time>2026-05-04T14:23:52.999Z</time></trkpt><trkpt lat="31.505235016241492" lon="-6.269483909243398"><ele>2143.0</ele><time>2026-05-04T14:23:53.999Z</time></trkpt><trkpt lat="31.50512108575675" lon="-6.269408109119145"><ele>2143.0</ele><time>2026-05-04T14:23:54.999Z</time></trkpt><trkpt lat="31.505008510550642" lon="-6.269333272583028"><ele>2143.0</ele><time>2026-05-04T14:23:55.999Z</time></trkpt><trkpt lat="31.50490160069114" lon="-6.269260313993168"><ele>2143.0</ele><time>2026-05-04T14:23:56.999Z</time></trkpt><trkpt lat="31.504781200866457" lon="-6.269204339615811"><ele>2143.0</ele><time>2026-05-04T14:23:57.999Z</time></trkpt><trkpt lat="31.504662011562985" lon="-6.269151325169187"><ele>2143.0</ele><time>2026-05-04T14:23:58.999Z</time></trkpt><trkpt lat="31.504553591981892" lon="-6.269086431515711"><ele>2143.0</ele><time>2026-05-04T14:23:59.999Z</time></trkpt><trkpt lat="31.50444087364024" lon="-6.269043451837552"><ele>2143.0</ele><time>2026-05-04T14:24:00.999Z</time></trkpt><trkpt lat="31.504324160413468" lon="-6.268992908677569"><ele>2140.0</ele><time>2026-05-04T14:24:01.999Z</time></trkpt><trkpt lat="31.504212452892776" lon="-6.2689299330321075"><ele>2137.0</ele><time>2026-05-04T14:24:02.999Z</time></trkpt><trkpt lat="31.504091316541725" lon="-6.268882922691367"><ele>2134.0</ele><time>2026-05-04T14:24:03.999Z</time></trkpt><trkpt lat="31.503971827750053" lon="-6.268818170305957"><ele>2131.0</ele><time>2026-05-04T14:24:04.999Z</time></trkpt><trkpt lat="31.50384726743218" lon="-6.268750297859555"><ele>2128.5</ele><time>2026-05-04T14:24:05.999Z</time></trkpt><trkpt lat="31.503727200433932" lon="-6.268682375912209"><ele>2126.0</ele><time>2026-05-04T14:24:06.999Z</time></trkpt><trkpt lat="31.50360531821621" lon="-6.268614023295694"><ele>2123.5</ele><time>2026-05-04T14:24:07.999Z</time></trkpt><trkpt lat="31.50348364982443" lon="-6.268544714129192"><ele>2121.0</ele><time>2026-05-04T14:24:08.999Z</time></trkpt><trkpt lat="31.50335873402455" lon="-6.268479085639289"><ele>2121.0</ele><time>2026-05-04T14:24:09.999Z</time></trkpt><trkpt lat="31.503231999982066" lon="-6.2684118007062"><ele>2121.0</ele><time>2026-05-04T14:24:10.999Z</time></trkpt><trkpt lat="31.503104128206203" lon="-6.268349334860628"><ele>2121.0</ele><time>2026-05-04T14:24:11.999Z</time></trkpt><trkpt lat="31.502966889202344" lon="-6.268275956572985"><ele>2121.0</ele><time>2026-05-04T14:24:12.999Z</time></trkpt><trkpt lat="31.5028395049736" lon="-6.268198646064105"><ele>2119.25</ele><time>2026-05-04T14:24:13.999Z</time></trkpt><trkpt lat="31.50271185683787" lon="-6.2680983826808"><ele>2117.5</ele><time>2026-05-04T14:24:14.999Z</time></trkpt><trkpt lat="31.502596383681535" lon="-6.268010235810884"><ele>2115.75</ele><time>2026-05-04T14:24:15.999Z</time></trkpt><trkpt lat="31.502483803436892" lon="-6.26791237917243"><ele>2114.0</ele><time>2026-05-04T14:24:16.999Z</time></trkpt><trkpt lat="31.502383956668584" lon="-6.267812992453564"><ele>2114.0</ele><time>2026-05-04T14:24:17.999Z</time></trkpt><trkpt lat="31.502292193422292" lon="-6.267703320277724"><ele>2114.0</ele><time>2026-05-04T14:24:18.999Z</time></trkpt><trkpt lat="31.50220531724281" lon="-6.267600810004286"><ele>2114.0</ele><time>2026-05-04T14:24:19.999Z</time></trkpt><trkpt lat="31.502114242580365" lon="-6.267512572144435"><ele>2114.0</ele><time>2026-05-04T14:24:20.999Z</time></trkpt><trkpt lat="31.50201748743031" lon="-6.267425122862526"><ele>2112.0</ele><time>2026-05-04T14:24:21.999Z</time></trkpt><trkpt lat="31.501917110901303" lon="-6.267327208094231"><ele>2110.0</ele><time>2026-05-04T14:24:22.999Z</time></trkpt><trkpt lat="31.50183033208191" lon="-6.267232024649671"><ele>2108.0</ele><time>2026-05-04T14:24:23.999Z</time></trkpt><trkpt lat="31.501749031640657" lon="-6.267141527780107"><ele>2106.0</ele><time>2026-05-04T14:24:24.999Z</time></trkpt><trkpt lat="31.501669030232055" lon="-6.267090343170614"><ele>2106.0</ele><time>2026-05-04T14:24:25.999Z</time></trkpt><trkpt lat="31.501597066413677" lon="-6.267044664753899"><ele>2106.0</ele><time>2026-05-04T14:24:26.999Z</time></trkpt><trkpt lat="31.50153474553255" lon="-6.267024644580427"><ele>2106.0</ele><time>2026-05-04T14:24:27.999Z</time></trkpt><trkpt lat="31.50145000367015" lon="-6.267008607177841"><ele>2106.0</ele><time>2026-05-04T14:24:28.999Z</time></trkpt><trkpt lat="31.501361583836477" lon="-6.267035968998766"><ele>2106.0</ele><time>2026-05-04T14:24:29.999Z</time></trkpt><trkpt lat="31.501279159700392" lon="-6.267049132209126"><ele>2106.0</ele><time>2026-05-04T14:24:30.999Z</time></trkpt><trkpt lat="31.50119092107356" lon="-6.267040240732652"><ele>2103.0</ele><time>2026-05-04T14:24:31.999Z</time></trkpt><trkpt lat="31.501107825483388" lon="-6.26691330133257"><ele>2100.0</ele><time>2026-05-04T14:24:32.999Z</time></trkpt><trkpt lat="31.501025452567966" lon="-6.2668216569586725"><ele>2097.0</ele><time>2026-05-04T14:24:33.999Z</time></trkpt><trkpt lat="31.50093882448007" lon="-6.266726170418749"><ele>2094.0</ele><time>2026-05-04T14:24:34.999Z</time></trkpt><trkpt lat="31.50085692014421" lon="-6.266648694051288"><ele>2094.0</ele><time>2026-05-04T14:24:35.999Z</time></trkpt><trkpt lat="31.500776220085843" lon="-6.266550735261234"><ele>2094.0</ele><time>2026-05-04T14:24:36.999Z</time></trkpt><trkpt lat="31.500675866389408" lon="-6.2665091904212264"><ele>2094.0</ele><time>2026-05-04T14:24:37.999Z</time></trkpt><trkpt lat="31.500586210246453" lon="-6.266464829505696"><ele>2094.0</ele><time>2026-05-04T14:24:38.999Z</time></trkpt><trkpt lat="31.500513088930877" lon="-6.266403674424791"><ele>2094.0</ele><time>2026-05-04T14:24:39.999Z</time></trkpt><trkpt lat="31.500417049073807" lon="-6.266347234866931"><ele>2090.5</ele><time>2026-05-04T14:24:40.999Z</time></trkpt><trkpt lat="31.500354344333296" lon="-6.266191167783851"><ele>2087.0</ele><time>2026-05-04T14:24:41.999Z</time></trkpt><trkpt lat="31.500321286994996" lon="-6.266045247620182"><ele>2083.5</ele><time>2026-05-04T14:24:42.999Z</time></trkpt><trkpt lat="31.50029615427035" lon="-6.265927399760491"><ele>2080.0</ele><time>2026-05-04T14:24:43.999Z</time></trkpt><trkpt lat="31.500265637743123" lon="-6.2657958504808695"><ele>2080.0</ele><time>2026-05-04T14:24:44.999Z</time></trkpt><trkpt lat="31.50023184592502" lon="-6.265700530148906"><ele>2080.0</ele><time>2026-05-04T14:24:46.999Z</time></trkpt><trkpt lat="31.500199072078264" lon="-6.265616005353195"><ele>2080.0</ele><time>2026-05-04T14:24:47.999Z</time></trkpt><trkpt lat="31.500140733143503" lon="-6.265556812214468"><ele>2080.0</ele><time>2026-05-04T14:24:48.999Z</time></trkpt><trkpt lat="31.50007738346859" lon="-6.265498968210684"><ele>2080.0</ele><time>2026-05-04T14:24:49.999Z</time></trkpt><trkpt lat="31.500002683363107" lon="-6.265444791742107"><ele>2080.0</ele><time>2026-05-04T14:24:50.999Z</time></trkpt><trkpt lat="31.49992137327759" lon="-6.265368360610175"><ele>2080.8333333333335</ele><time>2026-05-04T14:24:51.999Z</time></trkpt><trkpt lat="31.499875715617616" lon="-6.2652604961595095"><ele>2081.666666666667</ele><time>2026-05-04T14:24:52.999Z</time></trkpt><trkpt lat="31.49985032872213" lon="-6.265173471778839"><ele>2082.5</ele><time>2026-05-04T14:24:53.999Z</time></trkpt><trkpt lat="31.499840404173778" lon="-6.265065352487419"><ele>2083.3333333333335</ele><time>2026-05-04T14:24:54.999Z</time></trkpt><trkpt lat="31.49982639201843" lon="-6.264975461505859"><ele>2084.1666666666665</ele><time>2026-05-04T14:24:55.999Z</time></trkpt><trkpt lat="31.49980756279898" lon="-6.264872619667524"><ele>2085.0</ele><time>2026-05-04T14:24:56.999Z</time></trkpt><trkpt lat="31.499786875979176" lon="-6.264776177921583"><ele>2085.0</ele><time>2026-05-04T14:24:57.999Z</time></trkpt><trkpt lat="31.499755465633516" lon="-6.2646683307545326"><ele>2085.0</ele><time>2026-05-04T14:24:58.999Z</time></trkpt><trkpt lat="31.49972543102719" lon="-6.264544368244199"><ele>2085.0</ele><time>2026-05-04T14:24:59.999Z</time></trkpt><trkpt lat="31.4996990494528" lon="-6.264416686484316"><ele>2085.0</ele><time>2026-05-04T14:25:00.999Z</time></trkpt><trkpt lat="31.499671231303225" lon="-6.2642933496309965"><ele>2085.0</ele><time>2026-05-04T14:25:01.999Z</time></trkpt><trkpt lat="31.499635610307017" lon="-6.264171321717324"><ele>2085.0</ele><time>2026-05-04T14:25:02.999Z</time></trkpt><trkpt lat="31.499605548027674" lon="-6.264063715124137"><ele>2085.0</ele><time>2026-05-04T14:25:03.999Z</time></trkpt><trkpt lat="31.49958025591262" lon="-6.263963514338686"><ele>2085.0</ele><time>2026-05-04T14:25:04.999Z</time></trkpt><trkpt lat="31.49955418959715" lon="-6.263864076064921"><ele>2085.0</ele><time>2026-05-04T14:25:05.999Z</time></trkpt><trkpt lat="31.499528774649907" lon="-6.263765826847186"><ele>2085.0</ele><time>2026-05-04T14:25:06.999Z</time></trkpt><trkpt lat="31.499503360880375" lon="-6.26366758219567"><ele>2085.0</ele><time>2026-05-04T14:25:07.999Z</time></trkpt><trkpt lat="31.49947341440668" lon="-6.263551815076373"><ele>2082.25</ele><time>2026-05-04T14:25:08.999Z</time></trkpt><trkpt lat="31.49943878568954" lon="-6.263425180239454"><ele>2079.5</ele><time>2026-05-04T14:25:09.999Z</time></trkpt><trkpt lat="31.499398642027792" lon="-6.263289724982745"><ele>2076.75</ele><time>2026-05-04T14:25:10.999Z</time></trkpt><trkpt lat="31.49935431238859" lon="-6.263145618724734"><ele>2074.0</ele><time>2026-05-04T14:25:11.999Z</time></trkpt><trkpt lat="31.49930680939896" lon="-6.262986943123741"><ele>2073.25</ele><time>2026-05-04T14:25:12.999Z</time></trkpt><trkpt lat="31.499265513699868" lon="-6.2628333509127065"><ele>2072.5</ele><time>2026-05-04T14:25:13.999Z</time></trkpt><trkpt lat="31.4992282606661" lon="-6.262676224470421"><ele>2071.75</ele><time>2026-05-04T14:25:14.999Z</time></trkpt><trkpt lat="31.49918266565191" lon="-6.262502947048057"><ele>2071.0</ele><time>2026-05-04T14:25:15.999Z</time></trkpt><trkpt lat="31.49913215077688" lon="-6.262334147356412"><ele>2071.75</ele><time>2026-05-04T14:25:16.999Z</time></trkpt><trkpt lat="31.499084810805456" lon="-6.262183801109741"><ele>2072.5</ele><time>2026-05-04T14:25:17.999Z</time></trkpt><trkpt lat="31.49904587939422" lon="-6.262023232225974"><ele>2073.25</ele><time>2026-05-04T14:25:18.999Z</time></trkpt><trkpt lat="31.49902793679398" lon="-6.2618666890748615"><ele>2074.0</ele><time>2026-05-04T14:25:19.999Z</time></trkpt><trkpt lat="31.49902877185589" lon="-6.2617113010730465"><ele>2074.0</ele><time>2026-05-04T14:25:20.999Z</time></trkpt><trkpt lat="31.499004465644607" lon="-6.26162362827737"><ele>2074.0</ele><time>2026-05-04T14:25:21.999Z</time></trkpt><trkpt lat="31.498986225013837" lon="-6.2615099274190325"><ele>2074.0</ele><time>2026-05-04T14:25:22.999Z</time></trkpt><trkpt lat="31.498959027934948" lon="-6.261406445739938"><ele>2074.0</ele><time>2026-05-04T14:25:23.999Z</time></trkpt><trkpt lat="31.498932087476916" lon="-6.261298010418955"><ele>2074.0</ele><time>2026-05-04T14:25:24.999Z</time></trkpt><trkpt lat="31.498902258946845" lon="-6.261185369745694"><ele>2074.2</ele><time>2026-05-04T14:25:25.999Z</time></trkpt><trkpt lat="31.4988692709353" lon="-6.2610639779805695"><ele>2074.4</ele><time>2026-05-04T14:25:26.999Z</time></trkpt><trkpt lat="31.498834020832106" lon="-6.260937328115328"><ele>2074.6</ele><time>2026-05-04T14:25:27.999Z</time></trkpt><trkpt lat="31.49880522709606" lon="-6.260812731315883"><ele>2074.8</ele><time>2026-05-04T14:25:28.999Z</time></trkpt><trkpt lat="31.49878015949837" lon="-6.260685619866751"><ele>2075.0</ele><time>2026-05-04T14:25:29.999Z</time></trkpt><trkpt lat="31.49875139860662" lon="-6.260562737043407"><ele>2072.5</ele><time>2026-05-04T14:25:30.999Z</time></trkpt><trkpt lat="31.49871144224629" lon="-6.26043871989733"><ele>2070.0</ele><time>2026-05-04T14:25:31.999Z</time></trkpt><trkpt lat="31.498670949947034" lon="-6.260307447101345"><ele>2067.5</ele><time>2026-05-04T14:25:32.999Z</time></trkpt><trkpt lat="31.498630456236608" lon="-6.260160628998889"><ele>2065.0</ele><time>2026-05-04T14:25:33.999Z</time></trkpt><trkpt lat="31.498587956327178" lon="-6.260007018615731"><ele>2065.0</ele><time>2026-05-04T14:25:34.999Z</time></trkpt><trkpt lat="31.498544861318553" lon="-6.2598387135216695"><ele>2065.0</ele><time>2026-05-04T14:25:35.999Z</time></trkpt><trkpt lat="31.49850212920932" lon="-6.2596643836933135"><ele>2065.0</ele><time>2026-05-04T14:25:36.999Z</time></trkpt><trkpt lat="31.498451464147333" lon="-6.259499920946173"><ele>2067.0</ele><time>2026-05-04T14:25:37.999Z</time></trkpt><trkpt lat="31.498378551661293" lon="-6.259342401886414"><ele>2069.0</ele><time>2026-05-04T14:25:38.999Z</time></trkpt><trkpt lat="31.49829361354412" lon="-6.259186766674334"><ele>2071.0</ele><time>2026-05-04T14:25:39.999Z</time></trkpt><trkpt lat="31.498212832009465" lon="-6.2590210473145484"><ele>2068.5</ele><time>2026-05-04T14:25:40.999Z</time></trkpt><trkpt lat="31.49813745140201" lon="-6.258860258215083"><ele>2066.0</ele><time>2026-05-04T14:25:41.999Z</time></trkpt><trkpt lat="31.498057525778894" lon="-6.258714885122518"><ele>2063.5</ele><time>2026-05-04T14:25:42.999Z</time></trkpt><trkpt lat="31.497975487216838" lon="-6.25858314292115"><ele>2061.0</ele><time>2026-05-04T14:25:43.999Z</time></trkpt><trkpt lat="31.497843887691328" lon="-6.258478145277234"><ele>2061.0</ele><time>2026-05-04T14:25:44.999Z</time></trkpt><trkpt lat="31.49771672528923" lon="-6.258369326560951"><ele>2061.0</ele><time>2026-05-04T14:25:45.999Z</time></trkpt><trkpt lat="31.49760470480714" lon="-6.258251943419533"><ele>2061.0</ele><time>2026-05-04T14:25:46.999Z</time></trkpt><trkpt lat="31.497487604022766" lon="-6.258142512582687"><ele>2070.6666666666665</ele><time>2026-05-04T14:25:47.999Z</time></trkpt><trkpt lat="31.497370392359166" lon="-6.258030326078247"><ele>2080.333333333333</ele><time>2026-05-04T14:25:48.999Z</time></trkpt><trkpt lat="31.497304648403592" lon="-6.257858666509083"><ele>2090.0</ele><time>2026-05-04T14:25:49.999Z</time></trkpt><trkpt lat="31.497201143050166" lon="-6.257736197712925"><ele>2080.6666666666665</ele><time>2026-05-04T14:25:50.999Z</time></trkpt><trkpt lat="31.49707791988924" lon="-6.257636108111838"><ele>2071.3333333333335</ele><time>2026-05-04T14:25:51.999Z</time></trkpt><trkpt lat="31.49694572008338" lon="-6.257539906879592"><ele>2062.0</ele><time>2026-05-04T14:25:52.999Z</time></trkpt><trkpt lat="31.496816126077857" lon="-6.257461554094039"><ele>2062.0</ele><time>2026-05-04T14:25:53.999Z</time></trkpt><trkpt lat="31.49668771602507" lon="-6.257368230389833"><ele>2062.0</ele><time>2026-05-04T14:25:54.999Z</time></trkpt><trkpt lat="31.496582568955784" lon="-6.257255185044286"><ele>2062.0</ele><time>2026-05-04T14:25:55.999Z</time></trkpt><trkpt lat="31.49645542037363" lon="-6.257166177462132"><ele>2062.0</ele><time>2026-05-04T14:25:56.999Z</time></trkpt><trkpt lat="31.496333758236517" lon="-6.257070975354912"><ele>2060.5</ele><time>2026-05-04T14:25:57.999Z</time></trkpt><trkpt lat="31.49622005134371" lon="-6.256968248673138"><ele>2059.0</ele><time>2026-05-04T14:25:58.999Z</time></trkpt><trkpt lat="31.49610600913864" lon="-6.256864917853724"><ele>2057.5</ele><time>2026-05-04T14:25:59.999Z</time></trkpt><trkpt lat="31.496000417846194" lon="-6.256732164518127"><ele>2056.0</ele><time>2026-05-04T14:26:00.999Z</time></trkpt><trkpt lat="31.495899074484914" lon="-6.2565789437601085"><ele>2059.75</ele><time>2026-05-04T14:26:01.999Z</time></trkpt><trkpt lat="31.495822675583007" lon="-6.256437878179143"><ele>2063.5</ele><time>2026-05-04T14:26:02.999Z</time></trkpt><trkpt lat="31.495735764805154" lon="-6.256319994632929"><ele>2067.25</ele><time>2026-05-04T14:26:03.999Z</time></trkpt><trkpt lat="31.495679867314216" lon="-6.256200792702207"><ele>2071.0</ele><time>2026-05-04T14:26:04.999Z</time></trkpt><trkpt lat="31.49565794147634" lon="-6.25606050472778"><ele>2071.0</ele><time>2026-05-04T14:26:05.999Z</time></trkpt><trkpt lat="31.49566884166048" lon="-6.255909981886828"><ele>2071.0</ele><time>2026-05-04T14:26:06.999Z</time></trkpt><trkpt lat="31.495705978163855" lon="-6.2557577229320405"><ele>2071.0</ele><time>2026-05-04T14:26:07.999Z</time></trkpt><trkpt lat="31.495744686457293" lon="-6.255610142027592"><ele>2071.0</ele><time>2026-05-04T14:26:08.999Z</time></trkpt><trkpt lat="31.495758791567784" lon="-6.2554539356725485"><ele>2072.0</ele><time>2026-05-04T14:26:09.999Z</time></trkpt><trkpt lat="31.495740510750668" lon="-6.2553033987871505"><ele>2073.0</ele><time>2026-05-04T14:26:10.999Z</time></trkpt><trkpt lat="31.49568740822433" lon="-6.255178114183954"><ele>2074.0</ele><time>2026-05-04T14:26:11.999Z</time></trkpt><trkpt lat="31.495623918462545" lon="-6.25501073477789"><ele>2075.0</ele><time>2026-05-04T14:26:12.999Z</time></trkpt><trkpt lat="31.495559560893533" lon="-6.254844621842365"><ele>2074.5</ele><time>2026-05-04T14:26:13.999Z</time></trkpt><trkpt lat="31.49551336869615" lon="-6.25467757754159"><ele>2074.0</ele><time>2026-05-04T14:26:14.999Z</time></trkpt><trkpt lat="31.495490247431338" lon="-6.2545319381393725"><ele>2073.5</ele><time>2026-05-04T14:26:15.999Z</time></trkpt><trkpt lat="31.495479623783314" lon="-6.254368464152918"><ele>2073.0</ele><time>2026-05-04T14:26:16.999Z</time></trkpt><trkpt lat="31.495475631098945" lon="-6.254208921636679"><ele>2073.0</ele><time>2026-05-04T14:26:17.999Z</time></trkpt><trkpt lat="31.495484865199455" lon="-6.254055403710503"><ele>2073.0</ele><time>2026-05-04T14:26:18.999Z</time></trkpt><trkpt lat="31.495508101355963" lon="-6.25390800875922"><ele>2073.0</ele><time>2026-05-04T14:26:19.999Z</time></trkpt><trkpt lat="31.495542507021057" lon="-6.253750858094253"><ele>2073.0</ele><time>2026-05-04T14:26:20.999Z</time></trkpt><trkpt lat="31.495597793901275" lon="-6.253588279180822"><ele>2070.75</ele><time>2026-05-04T14:26:21.999Z</time></trkpt><trkpt lat="31.495635524173096" lon="-6.253431098060928"><ele>2068.5</ele><time>2026-05-04T14:26:22.999Z</time></trkpt><trkpt lat="31.495634763748807" lon="-6.253271961958145"><ele>2066.25</ele><time>2026-05-04T14:26:23.999Z</time></trkpt><trkpt lat="31.495623371585747" lon="-6.25309128284243"><ele>2064.0</ele><time>2026-05-04T14:26:24.999Z</time></trkpt><trkpt lat="31.495608522428434" lon="-6.252905816203489"><ele>2062.6666666666665</ele><time>2026-05-04T14:26:25.999Z</time></trkpt><trkpt lat="31.495584700555657" lon="-6.252730694878896"><ele>2061.333333333333</ele><time>2026-05-04T14:26:26.999Z</time></trkpt><trkpt lat="31.495556915018557" lon="-6.252557446986915"><ele>2060.0</ele><time>2026-05-04T14:26:27.999Z</time></trkpt><trkpt lat="31.49552306660933" lon="-6.252385698978718"><ele>2063.0</ele><time>2026-05-04T14:26:28.999Z</time></trkpt><trkpt lat="31.495452492723427" lon="-6.252244415217281"><ele>2066.0</ele><time>2026-05-04T14:26:29.999Z</time></trkpt><trkpt lat="31.495392192083848" lon="-6.252096495689173"><ele>2069.0</ele><time>2026-05-04T14:26:30.999Z</time></trkpt><trkpt lat="31.495319997817052" lon="-6.251961805082829"><ele>2072.0</ele><time>2026-05-04T14:26:31.999Z</time></trkpt><trkpt lat="31.49525184903468" lon="-6.251821111413395"><ele>2064.7999999999997</ele><time>2026-05-04T14:26:32.999Z</time></trkpt><trkpt lat="31.495194191794294" lon="-6.251692395937889"><ele>2057.6</ele><time>2026-05-04T14:26:33.999Z</time></trkpt><trkpt lat="31.495155417020044" lon="-6.2515593688975715"><ele>2050.3999999999996</ele><time>2026-05-04T14:26:34.999Z</time></trkpt><trkpt lat="31.495123185068607" lon="-6.251450190540129"><ele>2043.1999999999998</ele><time>2026-05-04T14:26:35.999Z</time></trkpt><trkpt lat="31.495088247297673" lon="-6.251356336985142"><ele>2036.0</ele><time>2026-05-04T14:26:36.999Z</time></trkpt><trkpt lat="31.495041836625337" lon="-6.25125681327298"><ele>2035.6</ele><time>2026-05-04T14:26:37.999Z</time></trkpt><trkpt lat="31.49498253884722" lon="-6.2511736386782495"><ele>2035.1999999999998</ele><time>2026-05-04T14:26:38.999Z</time></trkpt><trkpt lat="31.49491255127816" lon="-6.251072287420816"><ele>2034.8000000000002</ele><time>2026-05-04T14:26:39.999Z</time></trkpt><trkpt lat="31.49480216432464" lon="-6.251011137290639"><ele>2034.4</ele><time>2026-05-04T14:26:40.999Z</time></trkpt><trkpt lat="31.49471980747748" lon="-6.250926508264208"><ele>2034.0</ele><time>2026-05-04T14:26:41.999Z</time></trkpt><trkpt lat="31.49463336919934" lon="-6.250862718986311"><ele>2036.0</ele><time>2026-05-04T14:26:42.999Z</time></trkpt><trkpt lat="31.49454005148297" lon="-6.2508323271934"><ele>2038.0</ele><time>2026-05-04T14:26:43.999Z</time></trkpt><trkpt lat="31.494453417355906" lon="-6.2507952525146155"><ele>2040.0</ele><time>2026-05-04T14:26:44.999Z</time></trkpt><trkpt lat="31.49437674742653" lon="-6.25075140360431"><ele>2042.0</ele><time>2026-05-04T14:26:45.999Z</time></trkpt><trkpt lat="31.494300321396853" lon="-6.250698173252307"><ele>2044.0</ele><time>2026-05-04T14:26:46.999Z</time></trkpt><trkpt lat="31.494233697467877" lon="-6.250624606337662"><ele>2045.0</ele><time>2026-05-04T14:26:47.999Z</time></trkpt><trkpt lat="31.494175312933674" lon="-6.250532789051449"><ele>2046.0</ele><time>2026-05-04T14:26:48.999Z</time></trkpt><trkpt lat="31.49416884104109" lon="-6.2503933841751325"><ele>2047.0</ele><time>2026-05-04T14:26:49.999Z</time></trkpt><trkpt lat="31.49418470875408" lon="-6.250264511476342"><ele>2048.0</ele><time>2026-05-04T14:26:50.999Z</time></trkpt><trkpt lat="31.494180366070886" lon="-6.250129542859566"><ele>2049.0</ele><time>2026-05-04T14:26:51.999Z</time></trkpt><trkpt lat="31.494194905631147" lon="-6.249990029982162"><ele>2049.0</ele><time>2026-05-04T14:26:52.999Z</time></trkpt><trkpt lat="31.494223854957323" lon="-6.249841898184597"><ele>2049.0</ele><time>2026-05-04T14:26:53.999Z</time></trkpt><trkpt lat="31.494262274025537" lon="-6.249699650492463"><ele>2049.0</ele><time>2026-05-04T14:26:54.999Z</time></trkpt><trkpt lat="31.49431152376945" lon="-6.249559979919687"><ele>2049.0</ele><time>2026-05-04T14:26:55.999Z</time></trkpt><trkpt lat="31.494364777298284" lon="-6.2494196133185245"><ele>2050.75</ele><time>2026-05-04T14:26:56.999Z</time></trkpt><trkpt lat="31.494417410485063" lon="-6.249282357278214"><ele>2052.5</ele><time>2026-05-04T14:26:57.999Z</time></trkpt><trkpt lat="31.494466696181945" lon="-6.249147952648528"><ele>2054.25</ele><time>2026-05-04T14:26:58.999Z</time></trkpt><trkpt lat="31.494507738410167" lon="-6.249022162135024"><ele>2056.0</ele><time>2026-05-04T14:26:59.999Z</time></trkpt><trkpt lat="31.494526203380772" lon="-6.248884768374476"><ele>2057.25</ele><time>2026-05-04T14:27:00.999Z</time></trkpt><trkpt lat="31.494564368587707" lon="-6.248747626978295"><ele>2058.5</ele><time>2026-05-04T14:27:01.999Z</time></trkpt><trkpt lat="31.494561060086113" lon="-6.248603031410477"><ele>2059.75</ele><time>2026-05-04T14:27:02.999Z</time></trkpt><trkpt lat="31.49455993997447" lon="-6.248461678599713"><ele>2061.0</ele><time>2026-05-04T14:27:03.999Z</time></trkpt><trkpt lat="31.494549723326095" lon="-6.248308652344978"><ele>2061.0</ele><time>2026-05-04T14:27:04.999Z</time></trkpt><trkpt lat="31.494521005613322" lon="-6.248154102013345"><ele>2061.0</ele><time>2026-05-04T14:27:05.999Z</time></trkpt><trkpt lat="31.49453949210561" lon="-6.247974942450884"><ele>2061.0</ele><time>2026-05-04T14:27:06.999Z</time></trkpt><trkpt lat="31.494486759401422" lon="-6.247805728710264"><ele>2061.0</ele><time>2026-05-04T14:27:07.999Z</time></trkpt><trkpt lat="31.494415299496335" lon="-6.2476368864613825"><ele>2054.6666666666665</ele><time>2026-05-04T14:27:08.999Z</time></trkpt><trkpt lat="31.4943277815284" lon="-6.2474656925304695"><ele>2048.333333333333</ele><time>2026-05-04T14:27:09.999Z</time></trkpt><trkpt lat="31.494190271935246" lon="-6.247331704733067"><ele>2042.0</ele><time>2026-05-04T14:27:10.999Z</time></trkpt><trkpt lat="31.49409317006513" lon="-6.2471866256998565"><ele>2037.6666666666665</ele><time>2026-05-04T14:27:12Z</time></trkpt><trkpt lat="31.493990006901065" lon="-6.247030749774108"><ele>2033.3333333333335</ele><time>2026-05-04T14:27:13Z</time></trkpt><trkpt lat="31.493899478676884" lon="-6.2468704390154475"><ele>2029.0</ele><time>2026-05-04T14:27:14Z</time></trkpt><trkpt lat="31.493817948381285" lon="-6.246702547694384"><ele>2030.5</ele><time>2026-05-04T14:27:15Z</time></trkpt><trkpt lat="31.49374544090094" lon="-6.246544260026417"><ele>2032.0</ele><time>2026-05-04T14:27:16Z</time></trkpt><trkpt lat="31.493676257951385" lon="-6.246415326135343"><ele>2033.5</ele><time>2026-05-04T14:27:17Z</time></trkpt><trkpt lat="31.4936053114056" lon="-6.246292130070622"><ele>2035.0</ele><time>2026-05-04T14:27:18Z</time></trkpt><trkpt lat="31.493531979468496" lon="-6.246163568069569"><ele>2035.0</ele><time>2026-05-04T14:27:19Z</time></trkpt><trkpt lat="31.493449722900486" lon="-6.246034555892905"><ele>2035.0</ele><time>2026-05-04T14:27:20Z</time></trkpt><trkpt lat="31.493364864063356" lon="-6.245904019621938"><ele>2035.0</ele><time>2026-05-04T14:27:21Z</time></trkpt><trkpt lat="31.493279841267462" lon="-6.245772724703209"><ele>2035.0</ele><time>2026-05-04T14:27:22Z</time></trkpt><trkpt lat="31.493199819967924" lon="-6.245634194488179"><ele>2032.3333333333335</ele><time>2026-05-04T14:27:23Z</time></trkpt><trkpt lat="31.49311441086581" lon="-6.245489366322785"><ele>2029.6666666666665</ele><time>2026-05-04T14:27:24Z</time></trkpt><trkpt lat="31.493031922957986" lon="-6.245326686400053"><ele>2027.0</ele><time>2026-05-04T14:27:25Z</time></trkpt><trkpt lat="31.49294655164087" lon="-6.245152006975141"><ele>2028.0</ele><time>2026-05-04T14:27:26Z</time></trkpt><trkpt lat="31.492857711646053" lon="-6.244972730285808"><ele>2029.0</ele><time>2026-05-04T14:27:27Z</time></trkpt><trkpt lat="31.49275277507228" lon="-6.244785336081952"><ele>2030.0</ele><time>2026-05-04T14:27:28Z</time></trkpt><trkpt lat="31.492659508760383" lon="-6.2445739242479545"><ele>2030.0</ele><time>2026-05-04T14:27:29Z</time></trkpt><trkpt lat="31.49258567483213" lon="-6.244346745213461"><ele>2030.0</ele><time>2026-05-04T14:27:30Z</time></trkpt><trkpt lat="31.492521230482737" lon="-6.244118124008331"><ele>2030.0</ele><time>2026-05-04T14:27:31Z</time></trkpt><trkpt lat="31.492426902255517" lon="-6.243897997615983"><ele>2026.6666666666665</ele><time>2026-05-04T14:27:32Z</time></trkpt><trkpt lat="31.492387977215735" lon="-6.243685839273293"><ele>2023.3333333333335</ele><time>2026-05-04T14:27:33Z</time></trkpt><trkpt lat="31.492325744399817" lon="-6.243477845827914"><ele>2020.0</ele><time>2026-05-04T14:27:34Z</time></trkpt><trkpt lat="31.49225672816646" lon="-6.243276738469774"><ele>2017.6666666666667</ele><time>2026-05-04T14:27:35Z</time></trkpt><trkpt lat="31.492193083129347" lon="-6.243071948587001"><ele>2015.3333333333335</ele><time>2026-05-04T14:27:36Z</time></trkpt><trkpt lat="31.492136339231475" lon="-6.242879190969858"><ele>2013.0</ele><time>2026-05-04T14:27:37Z</time></trkpt><trkpt lat="31.49207977170047" lon="-6.242694871343936"><ele>2022.3333333333335</ele><time>2026-05-04T14:27:38Z</time></trkpt><trkpt lat="31.492033690480472" lon="-6.242508829941911"><ele>2031.6666666666667</ele><time>2026-05-04T14:27:39Z</time></trkpt><trkpt lat="31.49198953625075" lon="-6.242330630137085"><ele>2041.0</ele><time>2026-05-04T14:27:40Z</time></trkpt><trkpt lat="31.49194598826483" lon="-6.2421484603149535"><ele>2041.0</ele><time>2026-05-04T14:27:41Z</time></trkpt><trkpt lat="31.49191052434943" lon="-6.24197109101205"><ele>2041.0</ele><time>2026-05-04T14:27:42Z</time></trkpt><trkpt lat="31.491879557111684" lon="-6.241786608836132"><ele>2041.0</ele><time>2026-05-04T14:27:43Z</time></trkpt><trkpt lat="31.491866496226024" lon="-6.241600734828439"><ele>2038.5</ele><time>2026-05-04T14:27:44Z</time></trkpt><trkpt lat="31.49189012567693" lon="-6.241431897398856"><ele>2036.0</ele><time>2026-05-04T14:27:45Z</time></trkpt><trkpt lat="31.491915603035256" lon="-6.241285801423623"><ele>2033.5</ele><time>2026-05-04T14:27:46Z</time></trkpt><trkpt lat="31.491886020214736" lon="-6.241145217324631"><ele>2031.0</ele><time>2026-05-04T14:27:47Z</time></trkpt><trkpt lat="31.49188349907351" lon="-6.240998729260038"><ele>2031.0</ele><time>2026-05-04T14:27:48Z</time></trkpt><trkpt lat="31.491777243790544" lon="-6.24088013420934"><ele>2031.0</ele><time>2026-05-04T14:27:49Z</time></trkpt><trkpt lat="31.491712304622435" lon="-6.240735050571597"><ele>2031.0</ele><time>2026-05-04T14:27:50Z</time></trkpt><trkpt lat="31.491654320852952" lon="-6.240607483714668"><ele>2031.0</ele><time>2026-05-04T14:27:51Z</time></trkpt><trkpt lat="31.491588093531206" lon="-6.240480124258563"><ele>2030.0</ele><time>2026-05-04T14:27:52Z</time></trkpt><trkpt lat="31.491488347134904" lon="-6.24039288131517"><ele>2029.0</ele><time>2026-05-04T14:27:53Z</time></trkpt><trkpt lat="31.491389361789256" lon="-6.240308181933319"><ele>2028.0</ele><time>2026-05-04T14:27:54Z</time></trkpt><trkpt lat="31.491270031097596" lon="-6.240271583808687"><ele>2027.0</ele><time>2026-05-04T14:27:55Z</time></trkpt><trkpt lat="31.49115684866319" lon="-6.240293501085753"><ele>2027.0</ele><time>2026-05-04T14:27:56Z</time></trkpt><trkpt lat="31.491050301009807" lon="-6.240292102971328"><ele>2027.0</ele><time>2026-05-04T14:27:57Z</time></trkpt><trkpt lat="31.490939903998527" lon="-6.240268656372456"><ele>2027.0</ele><time>2026-05-04T14:27:58Z</time></trkpt><trkpt lat="31.4908388488627" lon="-6.240205916086987"><ele>2027.0</ele><time>2026-05-04T14:27:59Z</time></trkpt><trkpt lat="31.49076103511293" lon="-6.240061135344211"><ele>2027.0</ele><time>2026-05-04T14:28:00Z</time></trkpt><trkpt lat="31.49067505933442" lon="-6.239940300808476"><ele>2027.0</ele><time>2026-05-04T14:28:01Z</time></trkpt><trkpt lat="31.49060609919741" lon="-6.239806008572407"><ele>2027.0</ele><time>2026-05-04T14:28:02Z</time></trkpt><trkpt lat="31.490551194546395" lon="-6.239665032671521"><ele>2027.0</ele><time>2026-05-04T14:28:03Z</time></trkpt><trkpt lat="31.490532101261824" lon="-6.239527575992145"><ele>2027.1999999999998</ele><time>2026-05-04T14:28:04Z</time></trkpt><trkpt lat="31.490541231087004" lon="-6.239406238342566"><ele>2027.3999999999999</ele><time>2026-05-04T14:28:05Z</time></trkpt><trkpt lat="31.490594480814682" lon="-6.239297713394148"><ele>2027.6000000000001</ele><time>2026-05-04T14:28:06Z</time></trkpt><trkpt lat="31.49061265570558" lon="-6.239185110790675"><ele>2027.8000000000002</ele><time>2026-05-04T14:28:07Z</time></trkpt><trkpt lat="31.49063287473933" lon="-6.239075092648469"><ele>2028.0</ele><time>2026-05-04T14:28:08Z</time></trkpt><trkpt lat="31.49065307025657" lon="-6.238969682759014"><ele>2028.1666666666667</ele><time>2026-05-04T14:28:09Z</time></trkpt><trkpt lat="31.490636352945195" lon="-6.238860871703968"><ele>2028.3333333333335</ele><time>2026-05-04T14:28:10Z</time></trkpt><trkpt lat="31.490656611815446" lon="-6.238768710028113"><ele>2028.5</ele><time>2026-05-04T14:28:11Z</time></trkpt><trkpt lat="31.490677245355315" lon="-6.2386806139299"><ele>2028.6666666666667</ele><time>2026-05-04T14:28:12Z</time></trkpt><trkpt lat="31.490698940480815" lon="-6.238585610811119"><ele>2028.8333333333335</ele><time>2026-05-04T14:28:13Z</time></trkpt><trkpt lat="31.49071714187272" lon="-6.238488410545137"><ele>2029.0</ele><time>2026-05-04T14:28:14Z</time></trkpt><trkpt lat="31.49072782869982" lon="-6.238394505701509"><ele>2029.0</ele><time>2026-05-04T14:28:15Z</time></trkpt><trkpt lat="31.490730365102717" lon="-6.238295239118848"><ele>2029.0</ele><time>2026-05-04T14:28:16Z</time></trkpt><trkpt lat="31.490687408836667" lon="-6.238204371761263"><ele>2029.0</ele><time>2026-05-04T14:28:17Z</time></trkpt><trkpt lat="31.490624689693334" lon="-6.238130383583123"><ele>2029.0</ele><time>2026-05-04T14:28:18Z</time></trkpt><trkpt lat="31.490540751690105" lon="-6.238078782443045"><ele>2029.0</ele><time>2026-05-04T14:28:19Z</time></trkpt><trkpt lat="31.490443126240113" lon="-6.238050209222238"><ele>2032.4</ele><time>2026-05-04T14:28:20Z</time></trkpt><trkpt lat="31.490327628063262" lon="-6.23805946881009"><ele>2035.8000000000002</ele><time>2026-05-04T14:28:21Z</time></trkpt><trkpt lat="31.49021402717915" lon="-6.238083025335263"><ele>2039.1999999999998</ele><time>2026-05-04T14:28:22Z</time></trkpt><trkpt lat="31.490102487094745" lon="-6.238108867225553"><ele>2042.6</ele><time>2026-05-04T14:28:23Z</time></trkpt><trkpt lat="31.49000915696798" lon="-6.2381244247673"><ele>2046.0</ele><time>2026-05-04T14:28:24Z</time></trkpt><trkpt lat="31.48991576077998" lon="-6.238140038157413"><ele>2046.0</ele><time>2026-05-04T14:28:26Z</time></trkpt><trkpt lat="31.489953861321833" lon="-6.238075506471549"><ele>2046.0</ele><time>2026-05-04T14:28:34Z</time></trkpt><trkpt lat="31.489952759535832" lon="-6.238203921663376"><ele>2046.0</ele><time>2026-05-04T14:28:35Z</time></trkpt><trkpt lat="31.49009865459776" lon="-6.238090860206012"><ele>2046.0</ele><time>2026-05-04T14:28:36Z</time></trkpt><trkpt lat="31.490190309468698" lon="-6.2380782101582755"><ele>2046.0</ele><time>2026-05-04T14:28:37Z</time></trkpt><trkpt lat="31.49030076378207" lon="-6.238061573046844"><ele>2046.0</ele><time>2026-05-04T14:28:38Z</time></trkpt><trkpt lat="31.49039109648979" lon="-6.238066177438504"><ele>2046.0</ele><time>2026-05-04T14:28:39Z</time></trkpt><trkpt lat="31.490489083407358" lon="-6.238066664243014"><ele>2046.0</ele><time>2026-05-04T14:28:40Z</time></trkpt><trkpt lat="31.490575770495614" lon="-6.238085745746467"><ele>2046.0</ele><time>2026-05-04T14:28:41Z</time></trkpt><trkpt lat="31.490655266676605" lon="-6.2381246142594025"><ele>2046.0</ele><time>2026-05-04T14:28:42Z</time></trkpt><trkpt lat="31.490716813880795" lon="-6.238189749442326"><ele>2046.0</ele><time>2026-05-04T14:28:43Z</time></trkpt><trkpt lat="31.490754647179024" lon="-6.238271955723759"><ele>2042.6</ele><time>2026-05-04T14:28:44Z</time></trkpt><trkpt lat="31.490787862871123" lon="-6.238374596772813"><ele>2039.1999999999998</ele><time>2026-05-04T14:28:45Z</time></trkpt><trkpt lat="31.490793120337056" lon="-6.238492138247007"><ele>2035.8000000000002</ele><time>2026-05-04T14:28:46Z</time></trkpt><trkpt lat="31.490763540127713" lon="-6.238618253753227"><ele>2032.4</ele><time>2026-05-04T14:28:47Z</time></trkpt><trkpt lat="31.490722217180704" lon="-6.23874148398575"><ele>2029.0</ele><time>2026-05-04T14:28:48Z</time></trkpt><trkpt lat="31.490689382217234" lon="-6.238860493936118"><ele>2029.0000000000002</ele><time>2026-05-04T14:28:49Z</time></trkpt><trkpt lat="31.49067059934172" lon="-6.238967070806556"><ele>2029.0</ele><time>2026-05-04T14:28:50Z</time></trkpt><trkpt lat="31.490649521183027" lon="-6.239064524187336"><ele>2029.0</ele><time>2026-05-04T14:28:51Z</time></trkpt><trkpt lat="31.490629205588785" lon="-6.2391614750215565"><ele>2029.0</ele><time>2026-05-04T14:28:52Z</time></trkpt><trkpt lat="31.490614450146232" lon="-6.239258249124813"><ele>2029.0000000000002</ele><time>2026-05-04T14:28:53Z</time></trkpt><trkpt lat="31.49059776471742" lon="-6.239349864301477"><ele>2029.0</ele><time>2026-05-04T14:28:54Z</time></trkpt><trkpt lat="31.49058883625256" lon="-6.239442572291745"><ele>2028.8333333333335</ele><time>2026-05-04T14:28:55Z</time></trkpt><trkpt lat="31.490581983307766" lon="-6.239534249731651"><ele>2028.6666666666667</ele><time>2026-05-04T14:28:56Z</time></trkpt><trkpt lat="31.490591353874642" lon="-6.239618361738772"><ele>2028.5</ele><time>2026-05-04T14:28:57Z</time></trkpt><trkpt lat="31.490607046171014" lon="-6.239702532106522"><ele>2028.3333333333335</ele><time>2026-05-04T14:28:58Z</time></trkpt><trkpt lat="31.4906284645284" lon="-6.2397737576045325"><ele>2028.1666666666667</ele><time>2026-05-04T14:28:59Z</time></trkpt><trkpt lat="31.49068137408911" lon="-6.2398913324241905"><ele>2028.0</ele><time>2026-05-04T14:29:01Z</time></trkpt><trkpt lat="31.490738930799225" lon="-6.239982670008811"><ele>2028.0</ele><time>2026-05-04T14:29:03Z</time></trkpt><trkpt lat="31.49080298133214" lon="-6.239975502209109"><ele>2028.0</ele><time>2026-05-04T14:29:05Z</time></trkpt><trkpt lat="31.490841385250704" lon="-6.239884245513216"><ele>2028.0</ele><time>2026-05-04T14:29:08Z</time></trkpt><trkpt lat="31.490805477490973" lon="-6.239820099793541"><ele>2028.0</ele><time>2026-05-04T14:29:18Z</time></trkpt><trkpt lat="31.490768471584758" lon="-6.239746364459829"><ele>2028.0</ele><time>2026-05-04T14:29:19Z</time></trkpt><trkpt lat="31.49073840644595" lon="-6.239675668513936"><ele>2028.0</ele><time>2026-05-04T14:29:20Z</time></trkpt><trkpt lat="31.49073133923883" lon="-6.2395515724482715"><ele>2028.0</ele><time>2026-05-04T14:29:21Z</time></trkpt><trkpt lat="31.490733813316194" lon="-6.2394440731838126"><ele>2028.0</ele><time>2026-05-04T14:29:22Z</time></trkpt><trkpt lat="31.49073895717085" lon="-6.239331348793025"><ele>2028.0</ele><time>2026-05-04T14:29:23Z</time></trkpt><trkpt lat="31.490762720086508" lon="-6.239240595610195"><ele>2028.0</ele><time>2026-05-04T14:29:24Z</time></trkpt><trkpt lat="31.490786268922214" lon="-6.239155955582054"><ele>2028.0</ele><time>2026-05-04T14:29:25Z</time></trkpt><trkpt lat="31.4908096248849" lon="-6.239069273283075"><ele>2028.0</ele><time>2026-05-04T14:29:26Z</time></trkpt><trkpt lat="31.49083869668462" lon="-6.23898117424021"><ele>2028.1666666666667</ele><time>2026-05-04T14:29:27Z</time></trkpt><trkpt lat="31.49087503490517" lon="-6.2388909668365855"><ele>2028.3333333333335</ele><time>2026-05-04T14:29:28Z</time></trkpt><trkpt lat="31.490918896244068" lon="-6.238813623597278"><ele>2028.5</ele><time>2026-05-04T14:29:29Z</time></trkpt><trkpt lat="31.490961610051414" lon="-6.238719690621282"><ele>2028.6666666666667</ele><time>2026-05-04T14:29:30Z</time></trkpt><trkpt lat="31.491032660511195" lon="-6.238660485516666"><ele>2028.8333333333335</ele><time>2026-05-04T14:29:31Z</time></trkpt><trkpt lat="31.491102556289984" lon="-6.23860360285451"><ele>2029.0</ele><time>2026-05-04T14:29:32Z</time></trkpt><trkpt lat="31.49117707503385" lon="-6.238556931852751"><ele>2029.0000000000002</ele><time>2026-05-04T14:29:33Z</time></trkpt><trkpt lat="31.491255019920523" lon="-6.238525204958219"><ele>2029.0</ele><time>2026-05-04T14:29:34Z</time></trkpt><trkpt lat="31.49129841025554" lon="-6.238451455090499"><ele>2029.0</ele><time>2026-05-04T14:29:35Z</time></trkpt><trkpt lat="31.491331702240807" lon="-6.238380893435438"><ele>2029.0</ele><time>2026-05-04T14:29:36Z</time></trkpt><trkpt lat="31.49137781000657" lon="-6.2383055697108984"><ele>2029.0000000000002</ele><time>2026-05-04T14:29:37Z</time></trkpt><trkpt lat="31.49136922104254" lon="-6.238207315079281"><ele>2029.0</ele><time>2026-05-04T14:29:38Z</time></trkpt><trkpt lat="31.49138945031192" lon="-6.238126398223268"><ele>2024.4</ele><time>2026-05-04T14:29:39Z</time></trkpt><trkpt lat="31.491428530907875" lon="-6.2380591166683645"><ele>2019.8000000000002</ele><time>2026-05-04T14:29:40Z</time></trkpt><trkpt lat="31.49154600012998" lon="-6.237979765045573"><ele>2015.1999999999998</ele><time>2026-05-04T14:29:42Z</time></trkpt><trkpt lat="31.491637601604058" lon="-6.237996508351459"><ele>2010.6</ele><time>2026-05-04T14:29:43Z</time></trkpt><trkpt lat="31.491726794777243" lon="-6.238001678298757"><ele>2006.0</ele><time>2026-05-04T14:29:44Z</time></trkpt><trkpt lat="31.491816919026586" lon="-6.238009244949155"><ele>2005.9999999999998</ele><time>2026-05-04T14:29:45Z</time></trkpt><trkpt lat="31.49190983487347" lon="-6.238018504668958"><ele>2006.0</ele><time>2026-05-04T14:29:46Z</time></trkpt><trkpt lat="31.49200235340596" lon="-6.238009117342162"><ele>2006.0</ele><time>2026-05-04T14:29:47Z</time></trkpt><trkpt lat="31.49208590075525" lon="-6.237979955362886"><ele>2006.0</ele><time>2026-05-04T14:29:48Z</time></trkpt><trkpt lat="31.49215884860073" lon="-6.237942879214761"><ele>2005.9999999999998</ele><time>2026-05-04T14:29:49Z</time></trkpt><trkpt lat="31.492229663659817" lon="-6.237905404371706"><ele>2006.0</ele><time>2026-05-04T14:29:50Z</time></trkpt><trkpt lat="31.49227603052757" lon="-6.237839843097188"><ele>2007.8333333333333</ele><time>2026-05-04T14:29:51Z</time></trkpt><trkpt lat="31.49232807046464" lon="-6.237782820126286"><ele>2009.6666666666665</ele><time>2026-05-04T14:29:52Z</time></trkpt><trkpt lat="31.492363404724827" lon="-6.237715363289538"><ele>2011.5</ele><time>2026-05-04T14:29:53Z</time></trkpt><trkpt lat="31.492429751206046" lon="-6.237606868679953"><ele>2013.3333333333335</ele><time>2026-05-04T14:29:55Z</time></trkpt><trkpt lat="31.49242866150113" lon="-6.237468883015145"><ele>2015.1666666666667</ele><time>2026-05-04T14:29:57Z</time></trkpt><trkpt lat="31.492436923001883" lon="-6.237379303317431"><ele>2017.0</ele><time>2026-05-04T14:29:58Z</time></trkpt><trkpt lat="31.492445006845692" lon="-6.237286876252534"><ele>2018.1666666666667</ele><time>2026-05-04T14:29:59Z</time></trkpt><trkpt lat="31.49245427923206" lon="-6.237191512011659"><ele>2019.3333333333335</ele><time>2026-05-04T14:30:00Z</time></trkpt><trkpt lat="31.492464596183616" lon="-6.237097757359133"><ele>2020.5</ele><time>2026-05-04T14:30:01Z</time></trkpt><trkpt lat="31.492480240973645" lon="-6.236998448727886"><ele>2021.6666666666665</ele><time>2026-05-04T14:30:02Z</time></trkpt><trkpt lat="31.492492610422843" lon="-6.236907406859414"><ele>2022.8333333333333</ele><time>2026-05-04T14:30:03Z</time></trkpt><trkpt lat="31.492498367644203" lon="-6.236810357541494"><ele>2024.0</ele><time>2026-05-04T14:30:04Z</time></trkpt><trkpt lat="31.49246623675373" lon="-6.236728744469669"><ele>2023.9999999999998</ele><time>2026-05-04T14:30:05Z</time></trkpt><trkpt lat="31.492419123938284" lon="-6.236655765599619"><ele>2024.0</ele><time>2026-05-04T14:30:06Z</time></trkpt><trkpt lat="31.492379931234694" lon="-6.2365653211706125"><ele>2024.0</ele><time>2026-05-04T14:30:07Z</time></trkpt><trkpt lat="31.492342539885794" lon="-6.236480262601598"><ele>2024.0</ele><time>2026-05-04T14:30:08Z</time></trkpt><trkpt lat="31.492286082906414" lon="-6.2363908796848"><ele>2023.9999999999998</ele><time>2026-05-04T14:30:09Z</time></trkpt><trkpt lat="31.49222447670192" lon="-6.236293471978434"><ele>2024.0</ele><time>2026-05-04T14:30:10Z</time></trkpt><trkpt lat="31.4921578502158" lon="-6.2361927166367455"><ele>2021.9999999999998</ele><time>2026-05-04T14:30:11Z</time></trkpt><trkpt lat="31.492094178067248" lon="-6.236091368272026"><ele>2020.0</ele><time>2026-05-04T14:30:12Z</time></trkpt><trkpt lat="31.492043157875834" lon="-6.23600513768245"><ele>2018.0</ele><time>2026-05-04T14:30:13Z</time></trkpt><trkpt lat="31.491991259481146" lon="-6.235953200562097"><ele>2016.0</ele><time>2026-05-04T14:30:14Z</time></trkpt><trkpt lat="31.491918585237933" lon="-6.235921284150229"><ele>2013.9999999999998</ele><time>2026-05-04T14:30:15Z</time></trkpt><trkpt lat="31.49183816585004" lon="-6.235881093630623"><ele>2012.0</ele><time>2026-05-04T14:30:16Z</time></trkpt><trkpt lat="31.491755861868295" lon="-6.235839961453541"><ele>2012.0</ele><time>2026-05-04T14:30:17Z</time></trkpt><trkpt lat="31.49168021905723" lon="-6.235775814011095"><ele>2011.9999999999998</ele><time>2026-05-04T14:30:18Z</time></trkpt><trkpt lat="31.49162365953504" lon="-6.235689562069836"><ele>2011.9999999999998</ele><time>2026-05-04T14:30:19Z</time></trkpt><trkpt lat="31.491578568103524" lon="-6.235610017622968"><ele>2012.0</ele><time>2026-05-04T14:30:20Z</time></trkpt><trkpt lat="31.491588555257202" lon="-6.235467910454351"><ele>2012.0</ele><time>2026-05-04T14:30:21Z</time></trkpt><trkpt lat="31.49159490498616" lon="-6.235352778219442"><ele>2015.6</ele><time>2026-05-04T14:30:22Z</time></trkpt><trkpt lat="31.491602529151287" lon="-6.2352335575557065"><ele>2019.1999999999998</ele><time>2026-05-04T14:30:23Z</time></trkpt><trkpt lat="31.49160310759168" lon="-6.235116879948546"><ele>2022.8</ele><time>2026-05-04T14:30:24Z</time></trkpt><trkpt lat="31.491592133693494" lon="-6.235014714936078"><ele>2026.4</ele><time>2026-05-04T14:30:25Z</time></trkpt><trkpt lat="31.491575686172133" lon="-6.234897707434306"><ele>2030.0</ele><time>2026-05-04T14:30:26Z</time></trkpt><trkpt lat="31.491461221674914" lon="-6.2348060759787005"><ele>2032.2</ele><time>2026-05-04T14:30:27Z</time></trkpt><trkpt lat="31.49143348127349" lon="-6.234686402841453"><ele>2034.4</ele><time>2026-05-04T14:30:28Z</time></trkpt><trkpt lat="31.491394430377305" lon="-6.234574856175731"><ele>2036.6</ele><time>2026-05-04T14:30:29Z</time></trkpt><trkpt lat="31.491344039300337" lon="-6.23447020964002"><ele>2038.8</ele><time>2026-05-04T14:30:30Z</time></trkpt><trkpt lat="31.491281156535987" lon="-6.234405968309607"><ele>2041.0</ele><time>2026-05-04T14:30:31Z</time></trkpt><trkpt lat="31.491195995528187" lon="-6.2343256761182895"><ele>2036.4</ele><time>2026-05-04T14:30:32Z</time></trkpt><trkpt lat="31.49111961912745" lon="-6.234239205217146"><ele>2031.8</ele><time>2026-05-04T14:30:33Z</time></trkpt><trkpt lat="31.491048600328693" lon="-6.234157325086947"><ele>2027.2000000000003</ele><time>2026-05-04T14:30:34Z</time></trkpt><trkpt lat="31.49099307303451" lon="-6.234044974642995"><ele>2022.6000000000001</ele><time>2026-05-04T14:30:35Z</time></trkpt><trkpt lat="31.490948162118297" lon="-6.233953876655864"><ele>2018.0</ele><time>2026-05-04T14:30:36Z</time></trkpt><trkpt lat="31.49090484198123" lon="-6.23387121187387"><ele>2016.8333333333333</ele><time>2026-05-04T14:30:37Z</time></trkpt><trkpt lat="31.49089904520395" lon="-6.2337839303013105"><ele>2015.6666666666665</ele><time>2026-05-04T14:30:38Z</time></trkpt><trkpt lat="31.490908426260102" lon="-6.233664076025844"><ele>2014.5</ele><time>2026-05-04T14:30:40Z</time></trkpt><trkpt lat="31.490951192389105" lon="-6.2335926096449645"><ele>2013.3333333333335</ele><time>2026-05-04T14:30:41Z</time></trkpt><trkpt lat="31.491000876733878" lon="-6.233529657856882"><ele>2012.1666666666667</ele><time>2026-05-04T14:30:42Z</time></trkpt><trkpt lat="31.491052886192183" lon="-6.233474496778672"><ele>2011.0</ele><time>2026-05-04T14:30:43Z</time></trkpt><trkpt lat="31.491144487734736" lon="-6.233438675448517"><ele>2014.1666666666667</ele><time>2026-05-04T14:30:44Z</time></trkpt><trkpt lat="31.491263617825897" lon="-6.233417127012115"><ele>2017.3333333333335</ele><time>2026-05-04T14:30:46Z</time></trkpt><trkpt lat="31.49133975749532" lon="-6.233407579885342"><ele>2020.5</ele><time>2026-05-04T14:30:49Z</time></trkpt><trkpt lat="31.49142187585004" lon="-6.233398926157153"><ele>2023.6666666666665</ele><time>2026-05-04T14:31:21Z</time></trkpt><trkpt lat="31.49149350999155" lon="-6.23339137733167"><ele>2026.8333333333333</ele><time>2026-05-04T14:31:22Z</time></trkpt><trkpt lat="31.49157841839116" lon="-6.233346286671947"><ele>2030.0</ele><time>2026-05-04T14:31:23Z</time></trkpt><trkpt lat="31.491664956146955" lon="-6.233305735275398"><ele>2029.9999999999998</ele><time>2026-05-04T14:31:24Z</time></trkpt><trkpt lat="31.4917405304969" lon="-6.233283368835673"><ele>2030.0</ele><time>2026-05-04T14:31:25Z</time></trkpt><trkpt lat="31.491794824381596" lon="-6.233238819689146"><ele>2030.0</ele><time>2026-05-04T14:31:26Z</time></trkpt><trkpt lat="31.491805276946327" lon="-6.233155037035861"><ele>2030.0</ele><time>2026-05-04T14:31:27Z</time></trkpt><trkpt lat="31.4918346959501" lon="-6.23304254849095"><ele>2029.9999999999998</ele><time>2026-05-04T14:31:29Z</time></trkpt><trkpt lat="31.49182732026208" lon="-6.232895153546661"><ele>2030.0</ele><time>2026-05-04T14:31:31Z</time></trkpt><trkpt lat="31.49180586127129" lon="-6.232793889701303"><ele>2027.0</ele><time>2026-05-04T14:31:32Z</time></trkpt><trkpt lat="31.49175946954057" lon="-6.232682884338059"><ele>2024.0</ele><time>2026-05-04T14:31:33Z</time></trkpt><trkpt lat="31.491698645307984" lon="-6.232562924294519"><ele>2021.0</ele><time>2026-05-04T14:31:34Z</time></trkpt><trkpt lat="31.49162348922825" lon="-6.232505143572724"><ele>2018.0</ele><time>2026-05-04T14:31:35Z</time></trkpt><trkpt lat="31.49155642121243" lon="-6.23243035293656"><ele>2015.0</ele><time>2026-05-04T14:31:36Z</time></trkpt><trkpt lat="31.491497207389436" lon="-6.2323643220709295"><ele>2015.0</ele><time>2026-05-04T14:31:37Z</time></trkpt><trkpt lat="31.491406101628428" lon="-6.2323184930096245"><ele>2015.0</ele><time>2026-05-04T14:31:39Z</time></trkpt><trkpt lat="31.491352394566306" lon="-6.232276949529886"><ele>2015.0</ele><time>2026-05-04T14:31:40Z</time></trkpt><trkpt lat="31.491299107766604" lon="-6.2322357315052965"><ele>2015.0</ele><time>2026-05-04T14:31:41Z</time></trkpt><trkpt lat="31.491029362144666" lon="-6.232168879657365"><ele>2016.4</ele><time>2026-05-04T14:31:47Z</time></trkpt><trkpt lat="31.490956239393558" lon="-6.23213999595268"><ele>2017.8</ele><time>2026-05-04T14:31:48Z</time></trkpt><trkpt lat="31.490874680427815" lon="-6.232107779945769"><ele>2019.1999999999998</ele><time>2026-05-04T14:31:49Z</time></trkpt><trkpt lat="31.490780488643527" lon="-6.2320654753554106"><ele>2020.6</ele><time>2026-05-04T14:31:50Z</time></trkpt><trkpt lat="31.490690527963107" lon="-6.232025965092787"><ele>2022.0</ele><time>2026-05-04T14:31:51Z</time></trkpt><trkpt lat="31.490600755507227" lon="-6.231995293926258"><ele>2022.0</ele><time>2026-05-04T14:31:52Z</time></trkpt><trkpt lat="31.490501983685423" lon="-6.231963830161891"><ele>2022.0</ele><time>2026-05-04T14:31:53Z</time></trkpt><trkpt lat="31.490426061048602" lon="-6.2319400023133955"><ele>2022.0</ele><time>2026-05-04T14:31:54Z</time></trkpt><trkpt lat="31.49033710486435" lon="-6.231926460825313"><ele>2022.0</ele><time>2026-05-04T14:31:55Z</time></trkpt><trkpt lat="31.490251307568716" lon="-6.231913145003291"><ele>2022.0</ele><time>2026-05-04T14:31:56Z</time></trkpt><trkpt lat="31.490176706134783" lon="-6.231901765366551"><ele>2022.0</ele><time>2026-05-04T14:31:57Z</time></trkpt><trkpt lat="31.49009093897722" lon="-6.23190550421351"><ele>2021.6</ele><time>2026-05-04T14:31:58Z</time></trkpt><trkpt lat="31.49000109517814" lon="-6.231918443533552"><ele>2021.1999999999998</ele><time>2026-05-04T14:31:59Z</time></trkpt><trkpt lat="31.489892644044968" lon="-6.231947365368306"><ele>2020.8</ele><time>2026-05-04T14:32:00Z</time></trkpt><trkpt lat="31.489794833835028" lon="-6.231947365367252"><ele>2020.4</ele><time>2026-05-04T14:32:01Z</time></trkpt><trkpt lat="31.48968916889501" lon="-6.231906104622663"><ele>2020.0</ele><time>2026-05-04T14:32:02Z</time></trkpt><trkpt lat="31.48959493099757" lon="-6.231903123407518"><ele>2018.0</ele><time>2026-05-04T14:32:03Z</time></trkpt><trkpt lat="31.489502648871582" lon="-6.2319065936488585"><ele>2016.0</ele><time>2026-05-04T14:32:04Z</time></trkpt><trkpt lat="31.489415250851845" lon="-6.231887693175568"><ele>2014.0</ele><time>2026-05-04T14:32:05Z</time></trkpt><trkpt lat="31.489318587578268" lon="-6.231907199927144"><ele>2012.0</ele><time>2026-05-04T14:32:06Z</time></trkpt><trkpt lat="31.489226489941547" lon="-6.23192966103245"><ele>2010.0</ele><time>2026-05-04T14:32:07Z</time></trkpt><trkpt lat="31.489139477964454" lon="-6.231932336375893"><ele>2010.0000000000002</ele><time>2026-05-04T14:32:08Z</time></trkpt><trkpt lat="31.48905588599456" lon="-6.231947611709339"><ele>2010.0</ele><time>2026-05-04T14:32:09Z</time></trkpt><trkpt lat="31.488992588561132" lon="-6.231970413393731"><ele>2010.0000000000002</ele><time>2026-05-04T14:32:10Z</time></trkpt><trkpt lat="31.48891601245121" lon="-6.232001127691532"><ele>2010.0000000000002</ele><time>2026-05-04T14:32:12Z</time></trkpt><trkpt lat="31.488849259247456" lon="-6.231957711831923"><ele>2010.0</ele><time>2026-05-04T14:32:14Z</time></trkpt><trkpt lat="31.488809580069194" lon="-6.231896410667916"><ele>2010.0000000000002</ele><time>2026-05-04T14:32:15Z</time></trkpt><trkpt lat="31.48877770987601" lon="-6.231826757904635"><ele>2010.0000000000002</ele><time>2026-05-04T14:32:16Z</time></trkpt><trkpt lat="31.488747606131206" lon="-6.231759912189706"><ele>2008.6</ele><time>2026-05-04T14:32:17Z</time></trkpt><trkpt lat="31.488705233587613" lon="-6.231635761418902"><ele>2007.2</ele><time>2026-05-04T14:32:19Z</time></trkpt><trkpt lat="31.488651024159065" lon="-6.231595673951607"><ele>2005.8000000000002</ele><time>2026-05-04T14:32:20Z</time></trkpt><trkpt lat="31.488564371881058" lon="-6.231489039794509"><ele>2004.4</ele><time>2026-05-04T14:32:22Z</time></trkpt><trkpt lat="31.488474995753492" lon="-6.231391582852759"><ele>2003.0</ele><time>2026-05-04T14:32:24Z</time></trkpt><trkpt lat="31.48842586016302" lon="-6.231337164577837"><ele>2005.6666666666665</ele><time>2026-05-04T14:32:25Z</time></trkpt><trkpt lat="31.4883692602198" lon="-6.231295279047604"><ele>2008.3333333333333</ele><time>2026-05-04T14:32:26Z</time></trkpt><trkpt lat="31.48831284454883" lon="-6.231243016109941"><ele>2011.0</ele><time>2026-05-04T14:32:27Z</time></trkpt><trkpt lat="31.488268149042966" lon="-6.231172766075663"><ele>2013.6666666666665</ele><time>2026-05-04T14:32:28Z</time></trkpt><trkpt lat="31.48822000693919" lon="-6.2310849098065"><ele>2016.3333333333333</ele><time>2026-05-04T14:32:29Z</time></trkpt><trkpt lat="31.488184480255864" lon="-6.230977728254857"><ele>2019.0</ele><time>2026-05-04T14:32:30Z</time></trkpt><trkpt lat="31.48817557986721" lon="-6.230866867853567"><ele>2019.0</ele><time>2026-05-04T14:32:31Z</time></trkpt><trkpt lat="31.488147585456446" lon="-6.230758709731863"><ele>2019.0</ele><time>2026-05-04T14:32:32Z</time></trkpt><trkpt lat="31.48810910966846" lon="-6.230656913517632"><ele>2019.0</ele><time>2026-05-04T14:32:33Z</time></trkpt><trkpt lat="31.488079861397036" lon="-6.230554388142399"><ele>2019.0</ele><time>2026-05-04T14:32:34Z</time></trkpt><trkpt lat="31.488050524289857" lon="-6.230448828866057"><ele>2019.0</ele><time>2026-05-04T14:32:35Z</time></trkpt><trkpt lat="31.48802273987401" lon="-6.23034885622363"><ele>2020.0</ele><time>2026-05-04T14:32:36Z</time></trkpt><trkpt lat="31.488000614989396" lon="-6.230269247630507"><ele>2021.0</ele><time>2026-05-04T14:32:37Z</time></trkpt><trkpt lat="31.48798387303888" lon="-6.230196456945371"><ele>2022.0</ele><time>2026-05-04T14:32:38Z</time></trkpt><trkpt lat="31.487984449004458" lon="-6.230043285007031"><ele>2023.0</ele><time>2026-05-04T14:32:40Z</time></trkpt><trkpt lat="31.4880241403903" lon="-6.229960034718873"><ele>2024.0</ele><time>2026-05-04T14:32:41Z</time></trkpt><trkpt lat="31.4880652284235" lon="-6.22988023030767"><ele>2025.0</ele><time>2026-05-04T14:32:42Z</time></trkpt><trkpt lat="31.488099885584703" lon="-6.229809209672227"><ele>2024.3333333333333</ele><time>2026-05-04T14:32:43Z</time></trkpt><trkpt lat="31.488128910190724" lon="-6.229719957932696"><ele>2023.6666666666665</ele><time>2026-05-04T14:32:44Z</time></trkpt><trkpt lat="31.488142306573433" lon="-6.22962519220398"><ele>2023.0</ele><time>2026-05-04T14:32:45Z</time></trkpt><trkpt lat="31.488165304653567" lon="-6.229524950321056"><ele>2022.3333333333333</ele><time>2026-05-04T14:32:46Z</time></trkpt><trkpt lat="31.48820893723836" lon="-6.229437838009347"><ele>2021.6666666666665</ele><time>2026-05-04T14:32:47Z</time></trkpt><trkpt lat="31.488238431873768" lon="-6.2293573650115635"><ele>2021.0</ele><time>2026-05-04T14:32:48Z</time></trkpt><trkpt lat="31.488231493967213" lon="-6.2292838116168765"><ele>2020.9999999999998</ele><time>2026-05-04T14:32:49Z</time></trkpt><trkpt lat="31.488221453681373" lon="-6.229196657974617"><ele>2021.0</ele><time>2026-05-04T14:32:50Z</time></trkpt><trkpt lat="31.488197441408534" lon="-6.229116077043981"><ele>2021.0</ele><time>2026-05-04T14:32:51Z</time></trkpt><trkpt lat="31.488176733769937" lon="-6.229023732894836"><ele>2021.0</ele><time>2026-05-04T14:32:52Z</time></trkpt><trkpt lat="31.488156276255626" lon="-6.228933163663466"><ele>2020.9999999999998</ele><time>2026-05-04T14:32:53Z</time></trkpt><trkpt lat="31.488134138800685" lon="-6.22884975952872"><ele>2021.0</ele><time>2026-05-04T14:32:54Z</time></trkpt><trkpt lat="31.488111303416453" lon="-6.228767344852645"><ele>2020.142857142857</ele><time>2026-05-04T14:32:55Z</time></trkpt><trkpt lat="31.48808963917494" lon="-6.228689157143591"><ele>2019.2857142857142</ele><time>2026-05-04T14:32:56Z</time></trkpt><trkpt lat="31.48806578167702" lon="-6.228603053280426"><ele>2018.4285714285713</ele><time>2026-05-04T14:32:57Z</time></trkpt><trkpt lat="31.48803289180651" lon="-6.228499577900648"><ele>2017.5714285714284</ele><time>2026-05-04T14:32:59Z</time></trkpt><trkpt lat="31.48799231253398" lon="-6.228430259082511"><ele>2016.7142857142858</ele><time>2026-05-04T14:33:03Z</time></trkpt><trkpt lat="31.48794555488649" lon="-6.228379326579389"><ele>2015.8571428571427</ele><time>2026-05-04T14:33:05Z</time></trkpt><trkpt lat="31.487880553248196" lon="-6.228347294173271"><ele>2014.9999999999998</ele><time>2026-05-04T14:33:07Z</time></trkpt><trkpt lat="31.48777895911567" lon="-6.228271085029222"><ele>2011.9999999999998</ele><time>2026-05-04T14:33:09Z</time></trkpt><trkpt lat="31.487732867838503" lon="-6.228196273414556"><ele>2009.0</ele><time>2026-05-04T14:33:10Z</time></trkpt><trkpt lat="31.487699771770004" lon="-6.228119786914789"><ele>2006.0</ele><time>2026-05-04T14:33:11Z</time></trkpt><trkpt lat="31.487672853780914" lon="-6.228048452181136"><ele>2003.0</ele><time>2026-05-04T14:33:12Z</time></trkpt><trkpt lat="31.487631705869514" lon="-6.2279397952628335"><ele>1999.9999999999998</ele><time>2026-05-04T14:33:14Z</time></trkpt><trkpt lat="31.487605231940286" lon="-6.227821574226261"><ele>1997.0</ele><time>2026-05-04T14:33:16Z</time></trkpt><trkpt lat="31.48760398142493" lon="-6.227707865892516"><ele>1996.0</ele><time>2026-05-04T14:33:18Z</time></trkpt><trkpt lat="31.487649184523352" lon="-6.227628927783747"><ele>1995.0</ele><time>2026-05-04T14:33:19Z</time></trkpt><trkpt lat="31.487704035911477" lon="-6.227565100579723"><ele>1994.0</ele><time>2026-05-04T14:33:20Z</time></trkpt><trkpt lat="31.487749220641557" lon="-6.227511151693282"><ele>1993.0</ele><time>2026-05-04T14:33:21Z</time></trkpt><trkpt lat="31.487808536266296" lon="-6.2274389289294785"><ele>1992.0</ele><time>2026-05-04T14:33:22Z</time></trkpt><trkpt lat="31.48785333930945" lon="-6.22738473631117"><ele>1991.0</ele><time>2026-05-04T14:33:23Z</time></trkpt><trkpt lat="31.487912742352435" lon="-6.227334695046494"><ele>1990.0</ele><time>2026-05-04T14:33:24Z</time></trkpt><trkpt lat="31.48798351647614" lon="-6.2272663370210095"><ele>1990.0000000000002</ele><time>2026-05-04T14:33:26Z</time></trkpt><trkpt lat="31.48805322688969" lon="-6.227242321074293"><ele>1990.0</ele><time>2026-05-04T14:34:35Z</time></trkpt><trkpt lat="31.488133684968236" lon="-6.227204233846723"><ele>1990.0</ele><time>2026-05-04T14:34:39Z</time></trkpt><trkpt lat="31.488206267571375" lon="-6.227159524214375"><ele>1990.0</ele><time>2026-05-04T14:34:42Z</time></trkpt><trkpt lat="31.488253310076765" lon="-6.227097700487067"><ele>1990.0000000000002</ele><time>2026-05-04T14:34:45Z</time></trkpt><trkpt lat="31.488322502974803" lon="-6.227043671446171"><ele>1990.0</ele><time>2026-05-04T14:34:47Z</time></trkpt><trkpt lat="31.488390457372503" lon="-6.22698993243249"><ele>1990.0000000000002</ele><time>2026-05-04T14:34:49Z</time></trkpt><trkpt lat="31.48845259937356" lon="-6.226905951446749"><ele>1990.0</ele><time>2026-05-04T14:34:51Z</time></trkpt><trkpt lat="31.48846765313652" lon="-6.226811426732806"><ele>1990.0</ele><time>2026-05-04T14:34:53Z</time></trkpt><trkpt lat="31.48840932621627" lon="-6.226772122943812"><ele>1990.0</ele><time>2026-05-04T14:34:55Z</time></trkpt><trkpt lat="31.488320987539367" lon="-6.226787757549654"><ele>1990.0000000000002</ele><time>2026-05-04T14:34:59Z</time></trkpt><trkpt lat="31.488218617257584" lon="-6.226787748085425"><ele>1990.0</ele><time>2026-05-04T14:35:01Z</time></trkpt><trkpt lat="31.48815373173478" lon="-6.226790242891604"><ele>1990.0</ele><time>2026-05-04T14:35:02Z</time></trkpt><trkpt lat="31.488025421554646" lon="-6.226785293607132"><ele>1990.0</ele><time>2026-05-04T14:35:04Z</time></trkpt><trkpt lat="31.487961040956936" lon="-6.226782810268008"><ele>1990.0</ele><time>2026-05-04T14:35:05Z</time></trkpt><trkpt lat="31.487852079291997" lon="-6.22677846178923"><ele>1990.0</ele><time>2026-05-04T14:35:07Z</time></trkpt><trkpt lat="31.48775331922278" lon="-6.226775886992562"><ele>1990.0</ele><time>2026-05-04T14:35:09Z</time></trkpt><trkpt lat="31.48765290654066" lon="-6.226763191057517"><ele>1988.6666666666667</ele><time>2026-05-04T14:35:11Z</time></trkpt><trkpt lat="31.487563918331848" lon="-6.226749428837938"><ele>1987.3333333333335</ele><time>2026-05-04T14:35:13Z</time></trkpt><trkpt lat="31.48746872649273" lon="-6.226766136599825"><ele>1986.0</ele><time>2026-05-04T14:35:15Z</time></trkpt><trkpt lat="31.487349556625166" lon="-6.226773292031957"><ele>1984.6666666666665</ele><time>2026-05-04T14:35:17Z</time></trkpt><trkpt lat="31.487287265751874" lon="-6.226760310287665"><ele>1983.3333333333333</ele><time>2026-05-04T14:35:18Z</time></trkpt><trkpt lat="31.487223769588148" lon="-6.22674747453092"><ele>1982.0</ele><time>2026-05-04T14:35:19Z</time></trkpt><trkpt lat="31.487109184346156" lon="-6.226717275615415"><ele>1980.3999999999999</ele><time>2026-05-04T14:35:21Z</time></trkpt><trkpt lat="31.48700534816521" lon="-6.226697601935718"><ele>1978.7999999999997</ele><time>2026-05-04T14:35:23Z</time></trkpt><trkpt lat="31.486893057414242" lon="-6.226681485504277"><ele>1977.2</ele><time>2026-05-04T14:35:25Z</time></trkpt><trkpt lat="31.486780091365823" lon="-6.226643121988338"><ele>1975.6</ele><time>2026-05-04T14:35:27Z</time></trkpt><trkpt lat="31.48672573464126" lon="-6.226599894987928"><ele>1974.0</ele><time>2026-05-04T14:35:28Z</time></trkpt><trkpt lat="31.486613990555593" lon="-6.226606946720725"><ele>1974.0</ele><time>2026-05-04T14:35:30Z</time></trkpt><trkpt lat="31.48651224801803" lon="-6.226621454210649"><ele>1974.0</ele><time>2026-05-04T14:35:32Z</time></trkpt><trkpt lat="31.486411694590682" lon="-6.2266030086830755"><ele>1974.0</ele><time>2026-05-04T14:35:34Z</time></trkpt><trkpt lat="31.486318872864935" lon="-6.226556410182248"><ele>1974.0</ele><time>2026-05-04T14:35:36Z</time></trkpt><trkpt lat="31.486254670573103" lon="-6.226478746071089"><ele>1974.0</ele><time>2026-05-04T14:35:38Z</time></trkpt><trkpt lat="31.486225852224376" lon="-6.226376578774429"><ele>1975.8333333333333</ele><time>2026-05-04T14:35:40Z</time></trkpt><trkpt lat="31.48619997208361" lon="-6.226306657074988"><ele>1977.6666666666665</ele><time>2026-05-04T14:35:41Z</time></trkpt><trkpt lat="31.486138968244187" lon="-6.226239439516814"><ele>1979.5</ele><time>2026-05-04T14:35:42Z</time></trkpt><trkpt lat="31.486089798937627" lon="-6.226155056564189"><ele>1981.3333333333333</ele><time>2026-05-04T14:35:43Z</time></trkpt><trkpt lat="31.486039204668195" lon="-6.226073724059689"><ele>1983.1666666666665</ele><time>2026-05-04T14:35:44Z</time></trkpt><trkpt lat="31.485986816552124" lon="-6.225976409301076"><ele>1985.0</ele><time>2026-05-04T14:35:45Z</time></trkpt><trkpt lat="31.485942410213" lon="-6.225884669432884"><ele>1984.9999999999998</ele><time>2026-05-04T14:35:46Z</time></trkpt><trkpt lat="31.48591072926177" lon="-6.225819680250888"><ele>1985.0</ele><time>2026-05-04T14:35:47Z</time></trkpt><trkpt lat="31.485851001582756" lon="-6.225703846165158"><ele>1985.0</ele><time>2026-05-04T14:35:49Z</time></trkpt><trkpt lat="31.48581501146056" lon="-6.225636979754716"><ele>1985.0</ele><time>2026-05-04T14:35:50Z</time></trkpt><trkpt lat="31.485733347704738" lon="-6.225544038024158"><ele>1984.9999999999998</ele><time>2026-05-04T14:35:52Z</time></trkpt><trkpt lat="31.485689061852966" lon="-6.225473653310526"><ele>1985.0</ele><time>2026-05-04T14:35:53Z</time></trkpt><trkpt lat="31.485660148978685" lon="-6.225387160377024"><ele>1982.8333333333333</ele><time>2026-05-04T14:35:54Z</time></trkpt><trkpt lat="31.485619993058215" lon="-6.2253182759908805"><ele>1980.6666666666665</ele><time>2026-05-04T14:35:55Z</time></trkpt><trkpt lat="31.485583280848015" lon="-6.225253772570687"><ele>1978.5</ele><time>2026-05-04T14:35:56Z</time></trkpt><trkpt lat="31.48553496058577" lon="-6.225187380506514"><ele>1976.3333333333335</ele><time>2026-05-04T14:35:57Z</time></trkpt><trkpt lat="31.485480989716425" lon="-6.225058355152879"><ele>1974.1666666666667</ele><time>2026-05-04T14:35:59Z</time></trkpt><trkpt lat="31.485451638133046" lon="-6.224989146501366"><ele>1972.0</ele><time>2026-05-04T14:36:00Z</time></trkpt><trkpt lat="31.48541219185354" lon="-6.2249194751424195"><ele>1974.0000000000002</ele><time>2026-05-04T14:36:01Z</time></trkpt><trkpt lat="31.485366134448945" lon="-6.2248314212035"><ele>1976.0</ele><time>2026-05-04T14:36:02Z</time></trkpt><trkpt lat="31.485323319758532" lon="-6.224751168722796"><ele>1978.0</ele><time>2026-05-04T14:36:03Z</time></trkpt><trkpt lat="31.485279723269105" lon="-6.224670223095277"><ele>1980.0</ele><time>2026-05-04T14:36:04Z</time></trkpt><trkpt lat="31.485238333010322" lon="-6.224596552668976"><ele>1982.0000000000002</ele><time>2026-05-04T14:36:05Z</time></trkpt><trkpt lat="31.485197596782047" lon="-6.22452404633281"><ele>1984.0</ele><time>2026-05-04T14:36:06Z</time></trkpt><trkpt lat="31.485157369186968" lon="-6.224447788159421"><ele>1984.0000000000002</ele><time>2026-05-04T14:36:07Z</time></trkpt><trkpt lat="31.485121535138948" lon="-6.224376642494491"><ele>1984.0</ele><time>2026-05-04T14:36:08Z</time></trkpt><trkpt lat="31.485112192849737" lon="-6.224267359687165"><ele>1984.0</ele><time>2026-05-04T14:36:09Z</time></trkpt><trkpt lat="31.485097650229797" lon="-6.224184239270643"><ele>1984.0</ele><time>2026-05-04T14:36:10Z</time></trkpt><trkpt lat="31.485091290746066" lon="-6.22409115562257"><ele>1984.0000000000002</ele><time>2026-05-04T14:36:11Z</time></trkpt><trkpt lat="31.48507602490614" lon="-6.224001882084256"><ele>1984.0</ele><time>2026-05-04T14:36:12Z</time></trkpt><trkpt lat="31.485056398422252" lon="-6.223917323714995"><ele>1981.4</ele><time>2026-05-04T14:36:13Z</time></trkpt><trkpt lat="31.48502921185505" lon="-6.223838645445363"><ele>1978.8000000000002</ele><time>2026-05-04T14:36:14Z</time></trkpt><trkpt lat="31.48498301000715" lon="-6.223696174485513"><ele>1976.1999999999998</ele><time>2026-05-04T14:36:16Z</time></trkpt><trkpt lat="31.48493183740423" lon="-6.22356616900709"><ele>1973.6</ele><time>2026-05-04T14:36:18Z</time></trkpt><trkpt lat="31.48489995770707" lon="-6.223499050525989"><ele>1971.0</ele><time>2026-05-04T14:36:19Z</time></trkpt><trkpt lat="31.484861339551543" lon="-6.223358086782146"><ele>1971.0</ele><time>2026-05-04T14:36:21Z</time></trkpt><trkpt lat="31.48481950352717" lon="-6.223292407090997"><ele>1971.0</ele><time>2026-05-04T14:36:22Z</time></trkpt><trkpt lat="31.48479189931589" lon="-6.22314637514563"><ele>1971.0</ele><time>2026-05-04T14:36:24Z</time></trkpt><trkpt lat="31.48477164125107" lon="-6.223072123175746"><ele>1971.0</ele><time>2026-05-04T14:36:25Z</time></trkpt><trkpt lat="31.48472682822714" lon="-6.222926627667413"><ele>1971.0</ele><time>2026-05-04T14:36:27Z</time></trkpt><trkpt lat="31.484711624576544" lon="-6.222845008804563"><ele>1969.8333333333333</ele><time>2026-05-04T14:36:28Z</time></trkpt><trkpt lat="31.484681644786413" lon="-6.2227179329281315"><ele>1968.6666666666665</ele><time>2026-05-04T14:36:30Z</time></trkpt><trkpt lat="31.48465544002678" lon="-6.2226222229652555"><ele>1967.5</ele><time>2026-05-04T14:36:32Z</time></trkpt><trkpt lat="31.484632607023368" lon="-6.222548678823595"><ele>1966.3333333333333</ele><time>2026-05-04T14:36:34Z</time></trkpt><trkpt lat="31.484612434102985" lon="-6.222463294364278"><ele>1965.1666666666665</ele><time>2026-05-04T14:36:36Z</time></trkpt><trkpt lat="31.48457544546686" lon="-6.222367221601056"><ele>1964.0</ele><time>2026-05-04T14:36:38Z</time></trkpt><trkpt lat="31.484551449327423" lon="-6.222284568292453"><ele>1968.6</ele><time>2026-05-04T14:36:40Z</time></trkpt><trkpt lat="31.484531983524956" lon="-6.222184267955374"><ele>1973.2</ele><time>2026-05-04T14:36:42Z</time></trkpt><trkpt lat="31.48449429334627" lon="-6.222089557420912"><ele>1977.7999999999997</ele><time>2026-05-04T14:36:44Z</time></trkpt><trkpt lat="31.484465246996905" lon="-6.221981591391721"><ele>1982.3999999999999</ele><time>2026-05-04T14:36:46Z</time></trkpt><trkpt lat="31.48445773299087" lon="-6.221890857128741"><ele>1987.0</ele><time>2026-05-04T14:36:48Z</time></trkpt><trkpt lat="31.48438670935919" lon="-6.221804971688147"><ele>1987.0000000000002</ele><time>2026-05-04T14:36:50Z</time></trkpt><trkpt lat="31.48435404507415" lon="-6.221728534719948"><ele>1987.0</ele><time>2026-05-04T14:36:52Z</time></trkpt><trkpt lat="31.484317934291642" lon="-6.221661912674283"><ele>1987.0</ele><time>2026-05-04T14:36:54Z</time></trkpt><trkpt lat="31.48428002323003" lon="-6.2215870953824775"><ele>1987.0</ele><time>2026-05-04T14:36:56Z</time></trkpt><trkpt lat="31.484247181735267" lon="-6.221516820741489"><ele>1987.0000000000002</ele><time>2026-05-04T14:36:58Z</time></trkpt><trkpt lat="31.484214694680347" lon="-6.221428681454138"><ele>1987.0</ele><time>2026-05-04T14:37:00Z</time></trkpt><trkpt lat="31.484174161150506" lon="-6.221314071463454"><ele>1983.1999999999998</ele><time>2026-05-04T14:37:02Z</time></trkpt><trkpt lat="31.484132706103086" lon="-6.221200207089869"><ele>1979.3999999999999</ele><time>2026-05-04T14:37:04Z</time></trkpt><trkpt lat="31.484115219259795" lon="-6.221083219311588"><ele>1975.6000000000001</ele><time>2026-05-04T14:37:06Z</time></trkpt><trkpt lat="31.484090557225606" lon="-6.2209666403472825"><ele>1971.8000000000002</ele><time>2026-05-04T14:37:08Z</time></trkpt><trkpt lat="31.484050867587875" lon="-6.220848704069378"><ele>1968.0</ele><time>2026-05-04T14:37:10Z</time></trkpt><trkpt lat="31.484020318655663" lon="-6.220773375782862"><ele>1968.0</ele><time>2026-05-04T14:37:12Z</time></trkpt><trkpt lat="31.484047459653688" lon="-6.220853547738371"><ele>1968.0000000000002</ele><time>2026-05-04T14:39:16Z</time></trkpt><trkpt lat="31.48410441712539" lon="-6.220957607240651"><ele>1968.0000000000002</ele><time>2026-05-04T14:39:18Z</time></trkpt><trkpt lat="31.484111544105417" lon="-6.22108298049917"><ele>1968.0</ele><time>2026-05-04T14:39:20Z</time></trkpt><trkpt lat="31.484142988809673" lon="-6.22120554237569"><ele>1968.0</ele><time>2026-05-04T14:39:22Z</time></trkpt><trkpt lat="31.484188819776534" lon="-6.221341612084698"><ele>1968.0</ele><time>2026-05-04T14:39:24Z</time></trkpt><trkpt lat="31.4842077436256" lon="-6.2214212847307335"><ele>1968.0000000000002</ele><time>2026-05-04T14:39:25Z</time></trkpt><trkpt lat="31.484229711277163" lon="-6.2214933469797495"><ele>1968.0000000000002</ele><time>2026-05-04T14:39:26Z</time></trkpt><trkpt lat="31.484285719872904" lon="-6.221611684794402"><ele>1968.0</ele><time>2026-05-04T14:39:28Z</time></trkpt><trkpt lat="31.484323291295645" lon="-6.221729896358808"><ele>1968.0</ele><time>2026-05-04T14:39:30Z</time></trkpt><trkpt lat="31.484374053067008" lon="-6.221821150628977"><ele>1966.5</ele><time>2026-05-04T14:39:32Z</time></trkpt><trkpt lat="31.484420570699164" lon="-6.221937324188362"><ele>1965.0</ele><time>2026-05-04T14:39:34Z</time></trkpt><trkpt lat="31.484473463098865" lon="-6.222057083239153"><ele>1963.5</ele><time>2026-05-04T14:39:36Z</time></trkpt><trkpt lat="31.484578556666992" lon="-6.222161058939932"><ele>1962.0</ele><time>2026-05-04T14:39:38Z</time></trkpt><trkpt lat="31.484605738241587" lon="-6.222284256205483"><ele>1962.3999999999999</ele><time>2026-05-04T14:39:40Z</time></trkpt><trkpt lat="31.484630818728476" lon="-6.222395872936496"><ele>1962.7999999999997</ele><time>2026-05-04T14:39:42Z</time></trkpt><trkpt lat="31.48466583420475" lon="-6.22252982359366"><ele>1963.2</ele><time>2026-05-04T14:39:44Z</time></trkpt><trkpt lat="31.484697471377228" lon="-6.222649630345166"><ele>1963.6</ele><time>2026-05-04T14:39:46Z</time></trkpt><trkpt lat="31.4847323054838" lon="-6.22278534450291"><ele>1964.0</ele><time>2026-05-04T14:39:48Z</time></trkpt><trkpt lat="31.484764726952857" lon="-6.222913042629374"><ele>1964.0</ele><time>2026-05-04T14:39:50Z</time></trkpt><trkpt lat="31.48479892639876" lon="-6.223047892576766"><ele>1964.0</ele><time>2026-05-04T14:39:52Z</time></trkpt><trkpt lat="31.484836417727184" lon="-6.223155165929062"><ele>1964.0</ele><time>2026-05-04T14:39:54Z</time></trkpt><trkpt lat="31.484890919850972" lon="-6.2232910607933585"><ele>1964.0</ele><time>2026-05-04T14:39:56Z</time></trkpt><trkpt lat="31.484937763347652" lon="-6.2234202148812745"><ele>1965.4</ele><time>2026-05-04T14:39:58Z</time></trkpt><trkpt lat="31.484979168104243" lon="-6.223536283999132"><ele>1966.8000000000002</ele><time>2026-05-04T14:40:00Z</time></trkpt><trkpt lat="31.48501596831782" lon="-6.22364438008901"><ele>1968.1999999999998</ele><time>2026-05-04T14:40:02Z</time></trkpt><trkpt lat="31.48505167509348" lon="-6.223792932587171"><ele>1969.6</ele><time>2026-05-04T14:40:04Z</time></trkpt><trkpt lat="31.485069242989244" lon="-6.223867162010812"><ele>1971.0</ele><time>2026-05-04T14:40:05Z</time></trkpt><trkpt lat="31.485098136892073" lon="-6.223989246465923"><ele>1973.1666666666667</ele><time>2026-05-04T14:40:07Z</time></trkpt><trkpt lat="31.485111525412748" lon="-6.224072831920028"><ele>1975.3333333333335</ele><time>2026-05-04T14:40:08Z</time></trkpt><trkpt lat="31.485126156941355" lon="-6.224153428505051"><ele>1977.5</ele><time>2026-05-04T14:40:09Z</time></trkpt><trkpt lat="31.485140750034564" lon="-6.224233813066766"><ele>1979.6666666666667</ele><time>2026-05-04T14:40:10Z</time></trkpt><trkpt lat="31.485171466584067" lon="-6.224379535282283"><ele>1981.8333333333335</ele><time>2026-05-04T14:40:12Z</time></trkpt><trkpt lat="31.48520398294255" lon="-6.224452950204678"><ele>1984.0</ele><time>2026-05-04T14:40:13Z</time></trkpt><trkpt lat="31.48524472165237" lon="-6.224526637813274"><ele>1984.0</ele><time>2026-05-04T14:40:14Z</time></trkpt><trkpt lat="31.485281090854176" lon="-6.224594031719302"><ele>1984.0000000000002</ele><time>2026-05-04T14:40:15Z</time></trkpt><trkpt lat="31.48532283097708" lon="-6.224664622574739"><ele>1984.0</ele><time>2026-05-04T14:40:16Z</time></trkpt><trkpt lat="31.485363746831407" lon="-6.224732015309042"><ele>1984.0</ele><time>2026-05-04T14:40:17Z</time></trkpt><trkpt lat="31.48540547861918" lon="-6.224803290833018"><ele>1984.0000000000002</ele><time>2026-05-04T14:40:18Z</time></trkpt><trkpt lat="31.48544338249473" lon="-6.224867233627973"><ele>1984.0</ele><time>2026-05-04T14:40:19Z</time></trkpt><trkpt lat="31.485481753632502" lon="-6.224943646713946"><ele>1984.0</ele><time>2026-05-04T14:40:20Z</time></trkpt><trkpt lat="31.48551835415325" lon="-6.2250151195254775"><ele>1981.6</ele><time>2026-05-04T14:40:21Z</time></trkpt><trkpt lat="31.48554099333575" lon="-6.2250892507604805"><ele>1979.2</ele><time>2026-05-04T14:40:22Z</time></trkpt><trkpt lat="31.485604392426985" lon="-6.225227368575352"><ele>1976.7999999999997</ele><time>2026-05-04T14:40:24Z</time></trkpt><trkpt lat="31.485668423453042" lon="-6.225356569565453"><ele>1974.3999999999999</ele><time>2026-05-04T14:40:26Z</time></trkpt><trkpt lat="31.485702686260986" lon="-6.225423928930227"><ele>1972.0</ele><time>2026-05-04T14:40:27Z</time></trkpt><trkpt lat="31.48576883346603" lon="-6.225537068230963"><ele>1972.0</ele><time>2026-05-04T14:40:29Z</time></trkpt><trkpt lat="31.48584300246713" lon="-6.225633068488865"><ele>1971.9999999999998</ele><time>2026-05-04T14:40:31Z</time></trkpt><trkpt lat="31.485905987625525" lon="-6.225726818588665"><ele>1971.9999999999998</ele><time>2026-05-04T14:40:33Z</time></trkpt><trkpt lat="31.4859457827016" lon="-6.22581858834904"><ele>1972.0</ele><time>2026-05-04T14:40:35Z</time></trkpt><trkpt lat="31.485996365736145" lon="-6.225903211619562"><ele>1972.0</ele><time>2026-05-04T14:40:37Z</time></trkpt><trkpt lat="31.48605204906168" lon="-6.226006320316152"><ele>1972.5</ele><time>2026-05-04T14:40:39Z</time></trkpt><trkpt lat="31.48611386272153" lon="-6.226124407745206"><ele>1973.0</ele><time>2026-05-04T14:40:41Z</time></trkpt><trkpt lat="31.486173643410527" lon="-6.226240969806618"><ele>1973.5</ele><time>2026-05-04T14:40:43Z</time></trkpt><trkpt lat="31.486239607678662" lon="-6.226362553775286"><ele>1974.0</ele><time>2026-05-04T14:40:45Z</time></trkpt><trkpt lat="31.486311773691682" lon="-6.2264435336674735"><ele>1974.0</ele><time>2026-05-04T14:40:47Z</time></trkpt><trkpt lat="31.486379138519347" lon="-6.226507803933774"><ele>1974.0</ele><time>2026-05-04T14:40:49Z</time></trkpt><trkpt lat="31.48648072780535" lon="-6.226545398645478"><ele>1974.0</ele><time>2026-05-04T14:40:51Z</time></trkpt><trkpt lat="31.486552912795442" lon="-6.22655546422267"><ele>1974.0</ele><time>2026-05-04T14:40:52Z</time></trkpt><trkpt lat="31.48662477687646" lon="-6.226547787138761"><ele>1974.0</ele><time>2026-05-04T14:40:53Z</time></trkpt><trkpt lat="31.486720322749807" lon="-6.226562498947676"><ele>1974.0</ele><time>2026-05-04T14:40:54Z</time></trkpt><trkpt lat="31.486810182548407" lon="-6.226603146202259"><ele>1974.0</ele><time>2026-05-04T14:40:55Z</time></trkpt><trkpt lat="31.486901611254563" lon="-6.226623879639422"><ele>1974.0</ele><time>2026-05-04T14:40:56Z</time></trkpt><trkpt lat="31.486988710141684" lon="-6.226636380432818"><ele>1974.0</ele><time>2026-05-04T14:40:57Z</time></trkpt><trkpt lat="31.48706281557928" lon="-6.226647016392155"><ele>1974.0</ele><time>2026-05-04T14:40:58Z</time></trkpt><trkpt lat="31.48713243125618" lon="-6.226657007856212"><ele>1974.0</ele><time>2026-05-04T14:40:59Z</time></trkpt><trkpt lat="31.4871944000135" lon="-6.22667986998354"><ele>1974.0</ele><time>2026-05-04T14:41:00Z</time></trkpt><trkpt lat="31.487276168612375" lon="-6.226698680629231"><ele>1975.6</ele><time>2026-05-04T14:41:01Z</time></trkpt><trkpt lat="31.48736102223986" lon="-6.226716362528834"><ele>1977.2</ele><time>2026-05-04T14:41:02Z</time></trkpt><trkpt lat="31.48744045959863" lon="-6.2267017158937685"><ele>1978.7999999999997</ele><time>2026-05-04T14:41:03Z</time></trkpt><trkpt lat="31.487547399434938" lon="-6.226737268218783"><ele>1980.3999999999999</ele><time>2026-05-04T14:41:05Z</time></trkpt><trkpt lat="31.48767025376867" lon="-6.226736695001333"><ele>1982.0</ele><time>2026-05-04T14:41:07Z</time></trkpt><trkpt lat="31.487749072826986" lon="-6.226720410166769"><ele>1981.9999999999998</ele><time>2026-05-04T14:41:08Z</time></trkpt><trkpt lat="31.487830394417045" lon="-6.226710193037198"><ele>1982.0</ele><time>2026-05-04T14:41:09Z</time></trkpt><trkpt lat="31.48791627311136" lon="-6.2267085925705095"><ele>1982.0</ele><time>2026-05-04T14:41:10Z</time></trkpt><trkpt lat="31.487995672549136" lon="-6.226725719772529"><ele>1982.0</ele><time>2026-05-04T14:41:11Z</time></trkpt><trkpt lat="31.48806659312869" lon="-6.22672845537939"><ele>1981.9999999999998</ele><time>2026-05-04T14:41:12Z</time></trkpt><trkpt lat="31.488135541497726" lon="-6.226732351635829"><ele>1982.0</ele><time>2026-05-04T14:41:13Z</time></trkpt><trkpt lat="31.48825644861505" lon="-6.226727617279993"><ele>1983.6</ele><time>2026-05-04T14:41:15Z</time></trkpt><trkpt lat="31.48836859094008" lon="-6.226730624072234"><ele>1985.1999999999998</ele><time>2026-05-04T14:41:17Z</time></trkpt><trkpt lat="31.488463349934843" lon="-6.226763441481979"><ele>1986.8</ele><time>2026-05-04T14:41:19Z</time></trkpt><trkpt lat="31.48850652162445" lon="-6.226821230726017"><ele>1988.4</ele><time>2026-05-04T14:41:22Z</time></trkpt><trkpt lat="31.488503451260193" lon="-6.226908718535589"><ele>1990.0</ele><time>2026-05-04T14:41:30Z</time></trkpt><trkpt lat="31.488438252609413" lon="-6.227014589564611"><ele>1990.0</ele><time>2026-05-04T14:41:32Z</time></trkpt><trkpt lat="31.48834322150082" lon="-6.22708225820578"><ele>1990.0</ele><time>2026-05-04T14:41:34Z</time></trkpt><trkpt lat="31.48826450074495" lon="-6.22715428530899"><ele>1990.0</ele><time>2026-05-04T14:41:36Z</time></trkpt><trkpt lat="31.488217994876162" lon="-6.227218715937359"><ele>1990.0</ele><time>2026-05-04T14:41:38Z</time></trkpt><trkpt lat="31.488160179161163" lon="-6.227256938070577"><ele>1990.0</ele><time>2026-05-04T14:41:40Z</time></trkpt><trkpt lat="31.4880458338001" lon="-6.227303628077144"><ele>1989.7142857142858</ele><time>2026-05-04T14:41:42Z</time></trkpt><trkpt lat="31.48798920153803" lon="-6.2273429755925385"><ele>1989.4285714285713</ele><time>2026-05-04T14:41:43Z</time></trkpt><trkpt lat="31.48793768321189" lon="-6.2273936420910845"><ele>1989.142857142857</ele><time>2026-05-04T14:41:44Z</time></trkpt><trkpt lat="31.487866258049046" lon="-6.227453214087695"><ele>1988.857142857143</ele><time>2026-05-04T14:41:45Z</time></trkpt><trkpt lat="31.48780582826873" lon="-6.2275271071818645"><ele>1988.5714285714284</ele><time>2026-05-04T14:41:46Z</time></trkpt><trkpt lat="31.487751654623214" lon="-6.227591788234264"><ele>1988.2857142857142</ele><time>2026-05-04T14:41:47Z</time></trkpt><trkpt lat="31.487706807420988" lon="-6.22764533396347"><ele>1988.0</ele><time>2026-05-04T14:41:48Z</time></trkpt><trkpt lat="31.487661023721607" lon="-6.227699997375811"><ele>1988.0</ele><time>2026-05-04T14:41:49Z</time></trkpt><trkpt lat="31.487646651175975" lon="-6.227841681757277"><ele>1988.0000000000002</ele><time>2026-05-04T14:41:51Z</time></trkpt><trkpt lat="31.487691184579546" lon="-6.227970996139764"><ele>1988.0000000000002</ele><time>2026-05-04T14:41:53Z</time></trkpt><trkpt lat="31.487721108346026" lon="-6.228037874762509"><ele>1988.0</ele><time>2026-05-04T14:41:54Z</time></trkpt><trkpt lat="31.487754662867715" lon="-6.228120083674472"><ele>1988.0</ele><time>2026-05-04T14:41:55Z</time></trkpt><trkpt lat="31.48778981651184" lon="-6.228198218804585"><ele>1989.8000000000002</ele><time>2026-05-04T14:41:56Z</time></trkpt><trkpt lat="31.487827107099598" lon="-6.228267805916534"><ele>1991.6000000000001</ele><time>2026-05-04T14:41:57Z</time></trkpt><trkpt lat="31.48787500915923" lon="-6.228322918924354"><ele>1993.3999999999999</ele><time>2026-05-04T14:41:58Z</time></trkpt><trkpt lat="31.487938275220912" lon="-6.228356831423724"><ele>1995.1999999999998</ele><time>2026-05-04T14:41:59Z</time></trkpt><trkpt lat="31.488039080327415" lon="-6.228421356050976"><ele>1997.0</ele><time>2026-05-04T14:42:01Z</time></trkpt><trkpt lat="31.48811306542021" lon="-6.2285591099763895"><ele>2000.6</ele><time>2026-05-04T14:42:03Z</time></trkpt><trkpt lat="31.488150607594477" lon="-6.2286643098934045"><ele>2004.1999999999998</ele><time>2026-05-04T14:42:04Z</time></trkpt><trkpt lat="31.48818105161028" lon="-6.228785835469883"><ele>2007.8</ele><time>2026-05-04T14:42:05Z</time></trkpt><trkpt lat="31.488204632276215" lon="-6.228902895286994"><ele>2011.4</ele><time>2026-05-04T14:42:06Z</time></trkpt><trkpt lat="31.488231578065022" lon="-6.229017028243479"><ele>2015.0</ele><time>2026-05-04T14:42:07Z</time></trkpt><trkpt lat="31.488259234968844" lon="-6.229122464060638"><ele>2015.9999999999998</ele><time>2026-05-04T14:42:08Z</time></trkpt><trkpt lat="31.488282140240084" lon="-6.2292267017368825"><ele>2017.0</ele><time>2026-05-04T14:42:09Z</time></trkpt><trkpt lat="31.488288395974205" lon="-6.229319667623521"><ele>2018.0</ele><time>2026-05-04T14:42:10Z</time></trkpt><trkpt lat="31.48827274430449" lon="-6.229416812455124"><ele>2019.0</ele><time>2026-05-04T14:42:11Z</time></trkpt><trkpt lat="31.488233622464936" lon="-6.229515385272068"><ele>2019.9999999999998</ele><time>2026-05-04T14:42:12Z</time></trkpt><trkpt lat="31.488200451976848" lon="-6.229623159498861"><ele>2021.0</ele><time>2026-05-04T14:42:13Z</time></trkpt><trkpt lat="31.488179187553296" lon="-6.229727197875964"><ele>2021.6666666666665</ele><time>2026-05-04T14:42:14Z</time></trkpt><trkpt lat="31.488157422121223" lon="-6.229811018982925"><ele>2022.3333333333333</ele><time>2026-05-04T14:42:15Z</time></trkpt><trkpt lat="31.48812215782273" lon="-6.229889007569739"><ele>2023.0</ele><time>2026-05-04T14:42:16Z</time></trkpt><trkpt lat="31.48808877197035" lon="-6.2299605243640395"><ele>2023.6666666666665</ele><time>2026-05-04T14:42:17Z</time></trkpt><trkpt lat="31.48803584692507" lon="-6.230083303985741"><ele>2024.3333333333333</ele><time>2026-05-04T14:42:19Z</time></trkpt><trkpt lat="31.488026996418483" lon="-6.2301806464827765"><ele>2025.0</ele><time>2026-05-04T14:42:21Z</time></trkpt><trkpt lat="31.488068646531342" lon="-6.230326400805193"><ele>2025.0</ele><time>2026-05-04T14:42:23Z</time></trkpt><trkpt lat="31.48809868463039" lon="-6.230428607631791"><ele>2025.0</ele><time>2026-05-04T14:42:24Z</time></trkpt><trkpt lat="31.48813125867242" lon="-6.230529162401376"><ele>2025.0</ele><time>2026-05-04T14:42:25Z</time></trkpt><trkpt lat="31.48816064402737" lon="-6.230637176693814"><ele>2025.0</ele><time>2026-05-04T14:42:26Z</time></trkpt><trkpt lat="31.488189095485115" lon="-6.230740331953025"><ele>2025.0</ele><time>2026-05-04T14:42:27Z</time></trkpt><trkpt lat="31.48821603211854" lon="-6.230841702820706"><ele>2024.0</ele><time>2026-05-04T14:42:28Z</time></trkpt><trkpt lat="31.488241466701528" lon="-6.23093515175895"><ele>2023.0</ele><time>2026-05-04T14:42:29Z</time></trkpt><trkpt lat="31.488268247148007" lon="-6.2310187133552155"><ele>2022.0</ele><time>2026-05-04T14:42:30Z</time></trkpt><trkpt lat="31.488286891012347" lon="-6.231109274838966"><ele>2021.0</ele><time>2026-05-04T14:42:31Z</time></trkpt><trkpt lat="31.488317419072192" lon="-6.231181400590053"><ele>2020.0</ele><time>2026-05-04T14:42:32Z</time></trkpt><trkpt lat="31.48837514041871" lon="-6.231226141340332"><ele>2019.0</ele><time>2026-05-04T14:42:33Z</time></trkpt><trkpt lat="31.488470723379823" lon="-6.231304793636715"><ele>2019.0</ele><time>2026-05-04T14:42:35Z</time></trkpt><trkpt lat="31.488546448165053" lon="-6.231400598582928"><ele>2019.0</ele><time>2026-05-04T14:42:37Z</time></trkpt><trkpt lat="31.488612184026284" lon="-6.2315123956169955"><ele>2019.0</ele><time>2026-05-04T14:42:39Z</time></trkpt><trkpt lat="31.48866446316397" lon="-6.231554865760356"><ele>2019.0</ele><time>2026-05-04T14:42:40Z</time></trkpt><trkpt lat="31.488733908608378" lon="-6.231672148601819"><ele>2019.0</ele><time>2026-05-04T14:42:42Z</time></trkpt><trkpt lat="31.48880211500893" lon="-6.23178529902363"><ele>2017.2</ele><time>2026-05-04T14:42:44Z</time></trkpt><trkpt lat="31.48885090140302" lon="-6.231914148298499"><ele>2015.4</ele><time>2026-05-04T14:42:46Z</time></trkpt><trkpt lat="31.488892268740265" lon="-6.231987355795329"><ele>2013.6</ele><time>2026-05-04T14:42:48Z</time></trkpt><trkpt lat="31.488960989843797" lon="-6.231972622469042"><ele>2011.8</ele><time>2026-05-04T14:42:50Z</time></trkpt><trkpt lat="31.489050200168656" lon="-6.231888658367088"><ele>2010.0</ele><time>2026-05-04T14:42:52Z</time></trkpt><trkpt lat="31.489122175712748" lon="-6.2318762854103555"><ele>2010.0</ele><time>2026-05-04T14:42:53Z</time></trkpt><trkpt lat="31.489198447436568" lon="-6.231867165051256"><ele>2010.0</ele><time>2026-05-04T14:42:54Z</time></trkpt><trkpt lat="31.489263881217806" lon="-6.231861699461884"><ele>2010.0</ele><time>2026-05-04T14:42:55Z</time></trkpt><trkpt lat="31.489329290505545" lon="-6.231856235983995"><ele>2010.0</ele><time>2026-05-04T14:42:56Z</time></trkpt><trkpt lat="31.4894064239536" lon="-6.231864705014006"><ele>2010.0</ele><time>2026-05-04T14:42:57Z</time></trkpt><trkpt lat="31.489502388556232" lon="-6.231848099136378"><ele>2010.0</ele><time>2026-05-04T14:42:58Z</time></trkpt><trkpt lat="31.489603849374948" lon="-6.23183951382805"><ele>2012.5</ele><time>2026-05-04T14:42:59Z</time></trkpt><trkpt lat="31.48972350729517" lon="-6.231840963012441"><ele>2015.0</ele><time>2026-05-04T14:43:00Z</time></trkpt><trkpt lat="31.489844027534794" lon="-6.231888971192641"><ele>2017.5</ele><time>2026-05-04T14:43:01Z</time></trkpt><trkpt lat="31.489960626080993" lon="-6.231865725762127"><ele>2020.0</ele><time>2026-05-04T14:43:02Z</time></trkpt><trkpt lat="31.490072000775864" lon="-6.231848896581251"><ele>2020.0</ele><time>2026-05-04T14:43:03Z</time></trkpt><trkpt lat="31.490188122336797" lon="-6.231843371193086"><ele>2020.0</ele><time>2026-05-04T14:43:04Z</time></trkpt><trkpt lat="31.490294086738572" lon="-6.231860937760451"><ele>2020.0</ele><time>2026-05-04T14:43:05Z</time></trkpt><trkpt lat="31.490401248615427" lon="-6.23187733628968"><ele>2020.0</ele><time>2026-05-04T14:43:06Z</time></trkpt><trkpt lat="31.49050532649396" lon="-6.231893179584707"><ele>2020.0</ele><time>2026-05-04T14:43:07Z</time></trkpt><trkpt lat="31.490593432460855" lon="-6.23193254597713"><ele>2020.4</ele><time>2026-05-04T14:43:08Z</time></trkpt><trkpt lat="31.49069460071233" lon="-6.231965035818338"><ele>2020.8</ele><time>2026-05-04T14:43:09Z</time></trkpt><trkpt lat="31.490780833434503" lon="-6.2320030788447305"><ele>2021.1999999999998</ele><time>2026-05-04T14:43:10Z</time></trkpt><trkpt lat="31.490876522331433" lon="-6.232045955845908"><ele>2021.6</ele><time>2026-05-04T14:43:11Z</time></trkpt><trkpt lat="31.490983086780222" lon="-6.232088952048254"><ele>2022.0</ele><time>2026-05-04T14:43:12Z</time></trkpt><trkpt lat="31.49108568292773" lon="-6.232129477867242"><ele>2022.0</ele><time>2026-05-04T14:43:13Z</time></trkpt><trkpt lat="31.491181780278644" lon="-6.232167436589314"><ele>2021.9999999999998</ele><time>2026-05-04T14:43:14Z</time></trkpt><trkpt lat="31.491250504896623" lon="-6.232194735089501"><ele>2021.9999999999998</ele><time>2026-05-04T14:43:15Z</time></trkpt><trkpt lat="31.491358274464893" lon="-6.232238073035147"><ele>2022.0</ele><time>2026-05-04T14:43:17Z</time></trkpt><trkpt lat="31.491461223441085" lon="-6.23227947221147"><ele>2022.0</ele><time>2026-05-04T14:43:19Z</time></trkpt><trkpt lat="31.491521260707525" lon="-6.232310375742727"><ele>2020.6</ele><time>2026-05-04T14:43:22Z</time></trkpt><trkpt lat="31.491588349772748" lon="-6.2323851889315485"><ele>2019.1999999999998</ele><time>2026-05-04T14:43:23Z</time></trkpt><trkpt lat="31.4916676460004" lon="-6.232473615577935"><ele>2017.8</ele><time>2026-05-04T14:43:24Z</time></trkpt><trkpt lat="31.491748440311913" lon="-6.23254646049296"><ele>2016.4</ele><time>2026-05-04T14:43:25Z</time></trkpt><trkpt lat="31.491807939001472" lon="-6.232638319576873"><ele>2015.0</ele><time>2026-05-04T14:43:26Z</time></trkpt><trkpt lat="31.49184255990244" lon="-6.232736756177681"><ele>2014.9999999999998</ele><time>2026-05-04T14:43:27Z</time></trkpt><trkpt lat="31.49187390335122" lon="-6.232825888850175"><ele>2015.0</ele><time>2026-05-04T14:43:28Z</time></trkpt><trkpt lat="31.49189302551225" lon="-6.2329115728263105"><ele>2015.0</ele><time>2026-05-04T14:43:29Z</time></trkpt><trkpt lat="31.491874854631796" lon="-6.2330010144093455"><ele>2015.0</ele><time>2026-05-04T14:43:30Z</time></trkpt><trkpt lat="31.491878828917862" lon="-6.233092432022819"><ele>2014.9999999999998</ele><time>2026-05-04T14:43:31Z</time></trkpt><trkpt lat="31.491844818495533" lon="-6.233167790417566"><ele>2015.0</ele><time>2026-05-04T14:43:32Z</time></trkpt><trkpt lat="31.491780961250132" lon="-6.233236259109936"><ele>2018.75</ele><time>2026-05-04T14:43:33Z</time></trkpt><trkpt lat="31.491726199495954" lon="-6.233328980509782"><ele>2022.5</ele><time>2026-05-04T14:43:34Z</time></trkpt><trkpt lat="31.4915932412296" lon="-6.23338146110093"><ele>2026.25</ele><time>2026-05-04T14:43:35Z</time></trkpt><trkpt lat="31.491477139704223" lon="-6.23342936467132"><ele>2030.0</ele><time>2026-05-04T14:43:36Z</time></trkpt><trkpt lat="31.49135310798335" lon="-6.233446607080784"><ele>2026.8333333333333</ele><time>2026-05-04T14:43:37Z</time></trkpt><trkpt lat="31.491248791248502" lon="-6.233471356685995"><ele>2023.6666666666665</ele><time>2026-05-04T14:43:38Z</time></trkpt><trkpt lat="31.491159792576234" lon="-6.233496398815192"><ele>2020.5</ele><time>2026-05-04T14:43:39Z</time></trkpt><trkpt lat="31.49109021905773" lon="-6.233534339790308"><ele>2017.3333333333335</ele><time>2026-05-04T14:43:40Z</time></trkpt><trkpt lat="31.49102776538039" lon="-6.233578778660884"><ele>2014.1666666666667</ele><time>2026-05-04T14:43:41Z</time></trkpt><trkpt lat="31.49097797191256" lon="-6.233631870277215"><ele>2011.0</ele><time>2026-05-04T14:43:42Z</time></trkpt><trkpt lat="31.490934155218763" lon="-6.233750932551477"><ele>2011.0</ele><time>2026-05-04T14:43:44Z</time></trkpt><trkpt lat="31.490981682872043" lon="-6.233900138232411"><ele>2011.0</ele><time>2026-05-04T14:43:46Z</time></trkpt><trkpt lat="31.49103376872679" lon="-6.233998771972251"><ele>2011.0</ele><time>2026-05-04T14:43:47Z</time></trkpt><trkpt lat="31.491095603628693" lon="-6.234103338673787"><ele>2011.0</ele><time>2026-05-04T14:43:48Z</time></trkpt><trkpt lat="31.491167299815015" lon="-6.234214548324495"><ele>2012.4</ele><time>2026-05-04T14:43:49Z</time></trkpt><trkpt lat="31.491244774717163" lon="-6.2343104245661864"><ele>2013.8</ele><time>2026-05-04T14:43:50Z</time></trkpt><trkpt lat="31.49132764123203" lon="-6.234387444068046"><ele>2015.2000000000003</ele><time>2026-05-04T14:43:51Z</time></trkpt><trkpt lat="31.491403318312813" lon="-6.234463367185019"><ele>2016.6000000000001</ele><time>2026-05-04T14:43:52Z</time></trkpt><trkpt lat="31.491451531328018" lon="-6.2345742379629305"><ele>2018.0</ele><time>2026-05-04T14:43:53Z</time></trkpt><trkpt lat="31.491489092301062" lon="-6.234693869226317"><ele>2020.4</ele><time>2026-05-04T14:43:54Z</time></trkpt><trkpt lat="31.49155014022008" lon="-6.234800444258649"><ele>2022.8000000000002</ele><time>2026-05-04T14:43:55Z</time></trkpt><trkpt lat="31.491601793033652" lon="-6.23489064424671"><ele>2025.2</ele><time>2026-05-04T14:43:56Z</time></trkpt><trkpt lat="31.491639903379152" lon="-6.234977310134072"><ele>2027.6</ele><time>2026-05-04T14:43:57Z</time></trkpt><trkpt lat="31.491659275177707" lon="-6.23508411961004"><ele>2030.0</ele><time>2026-05-04T14:43:58Z</time></trkpt><trkpt lat="31.491660816669913" lon="-6.235200190061109"><ele>2029.9999999999998</ele><time>2026-05-04T14:43:59Z</time></trkpt><trkpt lat="31.491652598318655" lon="-6.235320635942127"><ele>2030.0</ele><time>2026-05-04T14:44:00Z</time></trkpt><trkpt lat="31.491645620337266" lon="-6.235426045150265"><ele>2030.0</ele><time>2026-05-04T14:44:01Z</time></trkpt><trkpt lat="31.491640732545356" lon="-6.235519108628212"><ele>2030.0</ele><time>2026-05-04T14:44:02Z</time></trkpt><trkpt lat="31.491650403826895" lon="-6.235598307081482"><ele>2029.9999999999998</ele><time>2026-05-04T14:44:03Z</time></trkpt><trkpt lat="31.491652235057643" lon="-6.235683517340578"><ele>2030.0</ele><time>2026-05-04T14:44:04Z</time></trkpt><trkpt lat="31.49173523829868" lon="-6.235752314221058"><ele>2026.9999999999998</ele><time>2026-05-04T14:44:05Z</time></trkpt><trkpt lat="31.49180540152875" lon="-6.235814036882611"><ele>2024.0</ele><time>2026-05-04T14:44:06Z</time></trkpt><trkpt lat="31.491888167572437" lon="-6.235857069276609"><ele>2021.0</ele><time>2026-05-04T14:44:07Z</time></trkpt><trkpt lat="31.491973418064866" lon="-6.235884240077971"><ele>2018.0</ele><time>2026-05-04T14:44:08Z</time></trkpt><trkpt lat="31.492051020436897" lon="-6.235917430688499"><ele>2014.9999999999998</ele><time>2026-05-04T14:44:09Z</time></trkpt><trkpt lat="31.49211912807356" lon="-6.235975625705503"><ele>2012.0</ele><time>2026-05-04T14:44:10Z</time></trkpt><trkpt lat="31.492147538409174" lon="-6.236080900160057"><ele>2014.3999999999999</ele><time>2026-05-04T14:44:11Z</time></trkpt><trkpt lat="31.492208311309746" lon="-6.236173579719747"><ele>2016.7999999999997</ele><time>2026-05-04T14:44:12Z</time></trkpt><trkpt lat="31.492274994107675" lon="-6.236275010981961"><ele>2019.2</ele><time>2026-05-04T14:44:13Z</time></trkpt><trkpt lat="31.492338809323964" lon="-6.236375911535107"><ele>2021.6</ele><time>2026-05-04T14:44:14Z</time></trkpt><trkpt lat="31.49239776813621" lon="-6.236469292852253"><ele>2024.0</ele><time>2026-05-04T14:44:15Z</time></trkpt><trkpt lat="31.492434302773678" lon="-6.2365613927407955"><ele>2024.0000000000002</ele><time>2026-05-04T14:44:16Z</time></trkpt><trkpt lat="31.492470286921513" lon="-6.236644432981401"><ele>2024.0</ele><time>2026-05-04T14:44:17Z</time></trkpt><trkpt lat="31.492502856845686" lon="-6.23672066313344"><ele>2024.0000000000002</ele><time>2026-05-04T14:44:18Z</time></trkpt><trkpt lat="31.49254273130784" lon="-6.236785490120449"><ele>2024.0000000000002</ele><time>2026-05-04T14:44:19Z</time></trkpt><trkpt lat="31.492542962368745" lon="-6.2368668725913095"><ele>2024.0</ele><time>2026-05-04T14:44:20Z</time></trkpt><trkpt lat="31.492533269348247" lon="-6.236955712183495"><ele>2024.0000000000002</ele><time>2026-05-04T14:44:21Z</time></trkpt><trkpt lat="31.492525876708935" lon="-6.237048847529756"><ele>2024.0000000000002</ele><time>2026-05-04T14:44:22Z</time></trkpt><trkpt lat="31.49251035874279" lon="-6.237140356487532"><ele>2023.9999999999998</ele><time>2026-05-04T14:44:23Z</time></trkpt><trkpt lat="31.49249911217632" lon="-6.237239858060414"><ele>2024.0</ele><time>2026-05-04T14:44:24Z</time></trkpt><trkpt lat="31.492490926816085" lon="-6.237340100193259"><ele>2024.0</ele><time>2026-05-04T14:44:25Z</time></trkpt><trkpt lat="31.492481497471825" lon="-6.237441692675519"><ele>2024.0</ele><time>2026-05-04T14:44:26Z</time></trkpt><trkpt lat="31.492472553235327" lon="-6.237538675926358"><ele>2023.9999999999998</ele><time>2026-05-04T14:44:27Z</time></trkpt><trkpt lat="31.49246011181147" lon="-6.2376334920865535"><ele>2024.0</ele><time>2026-05-04T14:44:28Z</time></trkpt><trkpt lat="31.49241664943379" lon="-6.237718194727504"><ele>2022.6</ele><time>2026-05-04T14:44:29Z</time></trkpt><trkpt lat="31.492359765178502" lon="-6.237794887370763"><ele>2021.2</ele><time>2026-05-04T14:44:30Z</time></trkpt><trkpt lat="31.492297884883897" lon="-6.237853522677207"><ele>2019.7999999999997</ele><time>2026-05-04T14:44:31Z</time></trkpt><trkpt lat="31.4922410620421" lon="-6.237931563198795"><ele>2018.3999999999999</ele><time>2026-05-04T14:44:32Z</time></trkpt><trkpt lat="31.49214497030677" lon="-6.238016192210015"><ele>2017.0</ele><time>2026-05-04T14:44:33Z</time></trkpt><trkpt lat="31.492020178455963" lon="-6.238058239826402"><ele>2014.8</ele><time>2026-05-04T14:44:34Z</time></trkpt><trkpt lat="31.491888265514405" lon="-6.238057681129975"><ele>2012.6</ele><time>2026-05-04T14:44:35Z</time></trkpt><trkpt lat="31.491769316015688" lon="-6.238048513616917"><ele>2010.3999999999999</ele><time>2026-05-04T14:44:36Z</time></trkpt><trkpt lat="31.491678722581494" lon="-6.238042241985513"><ele>2008.1999999999998</ele><time>2026-05-04T14:44:37Z</time></trkpt><trkpt lat="31.491597227244277" lon="-6.23804438288331"><ele>2006.0</ele><time>2026-05-04T14:44:38Z</time></trkpt><trkpt lat="31.491526566639546" lon="-6.238027812168658"><ele>2005.9999999999998</ele><time>2026-05-04T14:44:39Z</time></trkpt><trkpt lat="31.491468845602277" lon="-6.23807969678281"><ele>2006.0</ele><time>2026-05-04T14:44:40Z</time></trkpt><trkpt lat="31.491424363171777" lon="-6.238150823229187"><ele>2006.0</ele><time>2026-05-04T14:44:41Z</time></trkpt><trkpt lat="31.491393400909253" lon="-6.238234832659643"><ele>2006.0</ele><time>2026-05-04T14:44:42Z</time></trkpt><trkpt lat="31.49137564153298" lon="-6.238331812173842"><ele>2005.9999999999998</ele><time>2026-05-04T14:44:43Z</time></trkpt><trkpt lat="31.49134770034878" lon="-6.238427104542165"><ele>2006.0</ele><time>2026-05-04T14:44:44Z</time></trkpt><trkpt lat="31.491296712984354" lon="-6.23850424946978"><ele>2010.6</ele><time>2026-05-04T14:44:45Z</time></trkpt><trkpt lat="31.491231275979963" lon="-6.238589389653036"><ele>2015.1999999999998</ele><time>2026-05-04T14:44:46Z</time></trkpt><trkpt lat="31.491118778388223" lon="-6.2386310430124565"><ele>2019.8000000000002</ele><time>2026-05-04T14:44:47Z</time></trkpt><trkpt lat="31.49102680735796" lon="-6.238712531134687"><ele>2024.4</ele><time>2026-05-04T14:44:48Z</time></trkpt><trkpt lat="31.490947834800917" lon="-6.238788999998559"><ele>2029.0</ele><time>2026-05-04T14:44:49Z</time></trkpt><trkpt lat="31.49087844482588" lon="-6.238868254829086"><ele>2028.75</ele><time>2026-05-04T14:44:50Z</time></trkpt><trkpt lat="31.490840980624093" lon="-6.238986185437833"><ele>2028.5</ele><time>2026-05-04T14:44:51Z</time></trkpt><trkpt lat="31.490801825735847" lon="-6.239119148692033"><ele>2028.25</ele><time>2026-05-04T14:44:52Z</time></trkpt><trkpt lat="31.490769462698502" lon="-6.239266516115417"><ele>2028.0</ele><time>2026-05-04T14:44:53Z</time></trkpt><trkpt lat="31.490747321749488" lon="-6.239397560721744"><ele>2028.0</ele><time>2026-05-04T14:44:54Z</time></trkpt><trkpt lat="31.490739645372205" lon="-6.2395121265715865"><ele>2028.0</ele><time>2026-05-04T14:44:55Z</time></trkpt><trkpt lat="31.490721176951688" lon="-6.239616590905634"><ele>2028.0</ele><time>2026-05-04T14:44:56Z</time></trkpt><trkpt lat="31.490739657903855" lon="-6.239715937389132"><ele>2028.0</ele><time>2026-05-04T14:44:57Z</time></trkpt><trkpt lat="31.490761020369014" lon="-6.239796453716672"><ele>2028.0</ele><time>2026-05-04T14:44:58Z</time></trkpt><trkpt lat="31.490787416933276" lon="-6.239900633686463"><ele>2028.0</ele><time>2026-05-04T14:45:00Z</time></trkpt><trkpt lat="31.490804535843157" lon="-6.239981247515018"><ele>2028.0</ele><time>2026-05-04T14:45:03Z</time></trkpt><trkpt lat="31.490701564080986" lon="-6.239974316520082"><ele>2028.0000000000002</ele><time>2026-05-04T14:45:06Z</time></trkpt><trkpt lat="31.49066472522812" lon="-6.239912803599878"><ele>2028.0000000000002</ele><time>2026-05-04T14:45:07Z</time></trkpt><trkpt lat="31.49060672603337" lon="-6.23980665911056"><ele>2028.0</ele><time>2026-05-04T14:45:08Z</time></trkpt><trkpt lat="31.490562184497556" lon="-6.239698606171779"><ele>2028.0</ele><time>2026-05-04T14:45:09Z</time></trkpt><trkpt lat="31.49053645345943" lon="-6.239556337382765"><ele>2028.0</ele><time>2026-05-04T14:45:10Z</time></trkpt><trkpt lat="31.490541424615763" lon="-6.239394200575743"><ele>2028.0</ele><time>2026-05-04T14:45:11Z</time></trkpt><trkpt lat="31.490567254987948" lon="-6.239237357153903"><ele>2028.0</ele><time>2026-05-04T14:45:12Z</time></trkpt><trkpt lat="31.490594248023786" lon="-6.239068459066519"><ele>2028.0</ele><time>2026-05-04T14:45:13Z</time></trkpt><trkpt lat="31.49062905253117" lon="-6.238897356378659"><ele>2028.25</ele><time>2026-05-04T14:45:14Z</time></trkpt><trkpt lat="31.490663550338372" lon="-6.238740584669517"><ele>2028.5</ele><time>2026-05-04T14:45:15Z</time></trkpt><trkpt lat="31.490694763957976" lon="-6.23860389976395"><ele>2028.75</ele><time>2026-05-04T14:45:16Z</time></trkpt><trkpt lat="31.490718044062113" lon="-6.238483590673622"><ele>2029.0</ele><time>2026-05-04T14:45:17Z</time></trkpt><trkpt lat="31.490728326101557" lon="-6.2383831950244435"><ele>2029.0</ele><time>2026-05-04T14:45:18Z</time></trkpt><trkpt lat="31.490727200663827" lon="-6.23828179678912"><ele>2029.0</ele><time>2026-05-04T14:45:19Z</time></trkpt><trkpt lat="31.490679737537103" lon="-6.238191378888746"><ele>2029.0</ele><time>2026-05-04T14:45:20Z</time></trkpt><trkpt lat="31.49062750676343" lon="-6.2381132080978805"><ele>2029.0</ele><time>2026-05-04T14:45:21Z</time></trkpt><trkpt lat="31.49055844688522" lon="-6.238047984156788"><ele>2029.0</ele><time>2026-05-04T14:45:22Z</time></trkpt><trkpt lat="31.490443892199963" lon="-6.23805824901411"><ele>2033.25</ele><time>2026-05-04T14:45:23Z</time></trkpt><trkpt lat="31.49032442422836" lon="-6.238034338896749"><ele>2037.5</ele><time>2026-05-04T14:45:24Z</time></trkpt><trkpt lat="31.490189036884214" lon="-6.238058945929564"><ele>2041.75</ele><time>2026-05-04T14:45:25Z</time></trkpt><trkpt lat="31.490046188340067" lon="-6.238085885366685"><ele>2046.0</ele><time>2026-05-04T14:45:26Z</time></trkpt><trkpt lat="31.489909318226236" lon="-6.238106048014466"><ele>2046.0</ele><time>2026-05-04T14:45:27Z</time></trkpt><trkpt lat="31.489762606959932" lon="-6.238092536060296"><ele>2046.0</ele><time>2026-05-04T14:45:28Z</time></trkpt><trkpt lat="31.48962191527957" lon="-6.23802149179785"><ele>2046.0</ele><time>2026-05-04T14:45:29Z</time></trkpt><trkpt lat="31.489475817410337" lon="-6.237931496182614"><ele>2049.3333333333335</ele><time>2026-05-04T14:45:30Z</time></trkpt><trkpt lat="31.489326400704908" lon="-6.237829577523486"><ele>2052.666666666667</ele><time>2026-05-04T14:45:31Z</time></trkpt><trkpt lat="31.489191716729966" lon="-6.237719030462408"><ele>2056.0</ele><time>2026-05-04T14:45:32Z</time></trkpt><trkpt lat="31.48908044868957" lon="-6.23761184286011"><ele>2056.0</ele><time>2026-05-04T14:45:33Z</time></trkpt><trkpt lat="31.488980754346727" lon="-6.237486312106109"><ele>2056.0</ele><time>2026-05-04T14:45:34Z</time></trkpt><trkpt lat="31.488898775676986" lon="-6.237344894519307"><ele>2056.0</ele><time>2026-05-04T14:45:35Z</time></trkpt><trkpt lat="31.488824671113388" lon="-6.237176623415978"><ele>2058.0</ele><time>2026-05-04T14:45:36Z</time></trkpt><trkpt lat="31.488749852233205" lon="-6.237002956750348"><ele>2060.0</ele><time>2026-05-04T14:45:37Z</time></trkpt><trkpt lat="31.488679825380856" lon="-6.236844539385001"><ele>2062.0</ele><time>2026-05-04T14:45:38Z</time></trkpt><trkpt lat="31.488619571653082" lon="-6.2367073641970086"><ele>2062.0</ele><time>2026-05-04T14:45:39Z</time></trkpt><trkpt lat="31.488570825160398" lon="-6.236595733260587"><ele>2062.0</ele><time>2026-05-04T14:45:40Z</time></trkpt><trkpt lat="31.48852955191085" lon="-6.236501216162431"><ele>2062.0</ele><time>2026-05-04T14:45:41Z</time></trkpt><trkpt lat="31.488500154037766" lon="-6.2364295583448905"><ele>2062.0</ele><time>2026-05-04T14:45:42Z</time></trkpt><trkpt lat="31.488411755400733" lon="-6.236403741700804"><ele>2062.0</ele><time>2026-05-04T14:45:43Z</time></trkpt><trkpt lat="31.48833538749657" lon="-6.236449656047367"><ele>2062.0</ele><time>2026-05-04T14:45:44Z</time></trkpt><trkpt lat="31.488255697937944" lon="-6.236485034857385"><ele>2062.0</ele><time>2026-05-04T14:45:45Z</time></trkpt><trkpt lat="31.48817005536062" lon="-6.236559764223134"><ele>2062.0</ele><time>2026-05-04T14:45:46Z</time></trkpt><trkpt lat="31.48815422189371" lon="-6.236712629598882"><ele>2062.0</ele><time>2026-05-04T14:45:47Z</time></trkpt><trkpt lat="31.488231880851842" lon="-6.236851919320968"><ele>2062.0</ele><time>2026-05-04T14:45:48Z</time></trkpt><trkpt lat="31.488269338800915" lon="-6.236988379408965"><ele>2062.0</ele><time>2026-05-04T14:45:49Z</time></trkpt><trkpt lat="31.488305265103687" lon="-6.2371380528062765"><ele>2062.0</ele><time>2026-05-04T14:45:50Z</time></trkpt><trkpt lat="31.488338143130527" lon="-6.2373025104012605"><ele>2062.0</ele><time>2026-05-04T14:45:51Z</time></trkpt><trkpt lat="31.488367216377753" lon="-6.237461185646826"><ele>2062.0</ele><time>2026-05-04T14:45:52Z</time></trkpt><trkpt lat="31.488391913233905" lon="-6.237603057704554"><ele>2063.0</ele><time>2026-05-04T14:45:53Z</time></trkpt><trkpt lat="31.48840993317304" lon="-6.237728831883809"><ele>2064.0</ele><time>2026-05-04T14:45:54Z</time></trkpt><trkpt lat="31.488416904786877" lon="-6.237835843308636"><ele>2065.0</ele><time>2026-05-04T14:45:55Z</time></trkpt><trkpt lat="31.488403327282608" lon="-6.237928320841851"><ele>2066.0</ele><time>2026-05-04T14:45:56Z</time></trkpt><trkpt lat="31.48836057241998" lon="-6.237995947243628"><ele>2067.0</ele><time>2026-05-04T14:45:57Z</time></trkpt><trkpt lat="31.488286904945983" lon="-6.2380133479223785"><ele>2068.0</ele><time>2026-05-04T14:45:58Z</time></trkpt><trkpt lat="31.488156449694788" lon="-6.237901777220725"><ele>2068.0</ele><time>2026-05-04T14:46:00Z</time></trkpt><trkpt lat="31.488107542178145" lon="-6.237783947136019"><ele>2068.0</ele><time>2026-05-04T14:46:01Z</time></trkpt><trkpt lat="31.48806589704971" lon="-6.237654630366363"><ele>2068.0</ele><time>2026-05-04T14:46:02Z</time></trkpt><trkpt lat="31.488018201137514" lon="-6.237505032575796"><ele>2068.0</ele><time>2026-05-04T14:46:03Z</time></trkpt><trkpt lat="31.4879685413326" lon="-6.237340571882391"><ele>2069.2000000000003</ele><time>2026-05-04T14:46:04Z</time></trkpt><trkpt lat="31.48791927851154" lon="-6.237214193517765"><ele>2070.4</ele><time>2026-05-04T14:46:05Z</time></trkpt><trkpt lat="31.4878654361492" lon="-6.237124017816424"><ele>2071.6000000000004</ele><time>2026-05-04T14:46:06Z</time></trkpt><trkpt lat="31.487814522193005" lon="-6.237031625326546"><ele>2072.8</ele><time>2026-05-04T14:46:07Z</time></trkpt><trkpt lat="31.48772405256824" lon="-6.236965576529439"><ele>2074.0</ele><time>2026-05-04T14:46:09Z</time></trkpt><trkpt lat="31.487621234317306" lon="-6.2370306652321785"><ele>2074.0</ele><time>2026-05-04T14:46:11Z</time></trkpt><trkpt lat="31.4876067959171" lon="-6.237117843777668"><ele>2074.0</ele><time>2026-05-04T14:46:12Z</time></trkpt><trkpt lat="31.48771727984662" lon="-6.237322974171001"><ele>2074.0</ele><time>2026-05-04T14:46:14Z</time></trkpt><trkpt lat="31.48771406459933" lon="-6.237452480806299"><ele>2074.0</ele><time>2026-05-04T14:46:15Z</time></trkpt><trkpt lat="31.487747281652396" lon="-6.237594631638603"><ele>2081.3333333333335</ele><time>2026-05-04T14:46:16Z</time></trkpt><trkpt lat="31.48776501747843" lon="-6.237760189360703"><ele>2088.6666666666665</ele><time>2026-05-04T14:46:17Z</time></trkpt><trkpt lat="31.48777155799695" lon="-6.237942923644088"><ele>2096.0</ele><time>2026-05-04T14:46:18Z</time></trkpt><trkpt lat="31.48776909208435" lon="-6.238125595438328"><ele>2098.0</ele><time>2026-05-04T14:46:19Z</time></trkpt><trkpt lat="31.487763095799444" lon="-6.238317887459382"><ele>2100.0</ele><time>2026-05-04T14:46:20Z</time></trkpt><trkpt lat="31.487758144109357" lon="-6.238519810006026"><ele>2102.0</ele><time>2026-05-04T14:46:21Z</time></trkpt><trkpt lat="31.48775355298613" lon="-6.23872790424981"><ele>2102.0</ele><time>2026-05-04T14:46:22Z</time></trkpt><trkpt lat="31.48775886272529" lon="-6.238937679331723"><ele>2102.0</ele><time>2026-05-04T14:46:23Z</time></trkpt><trkpt lat="31.487778063014556" lon="-6.23914874461978"><ele>2102.0</ele><time>2026-05-04T14:46:24Z</time></trkpt><trkpt lat="31.48779922910807" lon="-6.239357419521624"><ele>2104.333333333333</ele><time>2026-05-04T14:46:25Z</time></trkpt><trkpt lat="31.487813280398715" lon="-6.239564230003669"><ele>2106.6666666666665</ele><time>2026-05-04T14:46:26Z</time></trkpt><trkpt lat="31.487827000992997" lon="-6.239775896390336"><ele>2109.0</ele><time>2026-05-04T14:46:27Z</time></trkpt><trkpt lat="31.487846457521577" lon="-6.239974615268897"><ele>2113.3333333333335</ele><time>2026-05-04T14:46:28Z</time></trkpt><trkpt lat="31.487872384350883" lon="-6.240167063006838"><ele>2117.666666666667</ele><time>2026-05-04T14:46:29Z</time></trkpt><trkpt lat="31.487912881483325" lon="-6.240358566962174"><ele>2122.0</ele><time>2026-05-04T14:46:30Z</time></trkpt><trkpt lat="31.48796050181786" lon="-6.240547958196444"><ele>2117.3333333333335</ele><time>2026-05-04T14:46:31Z</time></trkpt><trkpt lat="31.48801224478492" lon="-6.240740202052369"><ele>2112.6666666666665</ele><time>2026-05-04T14:46:32Z</time></trkpt><trkpt lat="31.488071172052106" lon="-6.240909843581919"><ele>2108.0</ele><time>2026-05-04T14:46:33Z</time></trkpt><trkpt lat="31.488131544739982" lon="-6.241064736243806"><ele>2108.0</ele><time>2026-05-04T14:46:34Z</time></trkpt><trkpt lat="31.488187606637972" lon="-6.241198333665426"><ele>2108.0</ele><time>2026-05-04T14:46:35Z</time></trkpt><trkpt lat="31.48823401924986" lon="-6.241309951021998"><ele>2108.0</ele><time>2026-05-04T14:46:36Z</time></trkpt><trkpt lat="31.488269389935688" lon="-6.241401093733079"><ele>2108.0</ele><time>2026-05-04T14:46:37Z</time></trkpt><trkpt lat="31.488281491213627" lon="-6.241481814570861"><ele>2108.0</ele><time>2026-05-04T14:46:38Z</time></trkpt><trkpt lat="31.488263390569635" lon="-6.241555949513169"><ele>2108.0</ele><time>2026-05-04T14:46:39Z</time></trkpt><trkpt lat="31.488210351252537" lon="-6.241616665487219"><ele>2108.0</ele><time>2026-05-04T14:46:40Z</time></trkpt><trkpt lat="31.488135753344686" lon="-6.241630763189265"><ele>2108.0</ele><time>2026-05-04T14:46:41Z</time></trkpt><trkpt lat="31.488062348569954" lon="-6.241602049038038"><ele>2108.0</ele><time>2026-05-04T14:46:42Z</time></trkpt><trkpt lat="31.487998901382806" lon="-6.241541894131751"><ele>2108.0</ele><time>2026-05-04T14:46:43Z</time></trkpt><trkpt lat="31.48794894367069" lon="-6.241458337442042"><ele>2108.0</ele><time>2026-05-04T14:46:44Z</time></trkpt><trkpt lat="31.487899924732133" lon="-6.24135952737828"><ele>2114.4</ele><time>2026-05-04T14:46:45Z</time></trkpt><trkpt lat="31.487838172955144" lon="-6.241257830954916"><ele>2120.8</ele><time>2026-05-04T14:46:46Z</time></trkpt><trkpt lat="31.48777053232821" lon="-6.24115588626607"><ele>2127.2</ele><time>2026-05-04T14:46:47Z</time></trkpt><trkpt lat="31.487693518172605" lon="-6.241063607300254"><ele>2133.6</ele><time>2026-05-04T14:46:48Z</time></trkpt><trkpt lat="31.487574599105333" lon="-6.2410312208242775"><ele>2140.0</ele><time>2026-05-04T14:46:49Z</time></trkpt><trkpt lat="31.487475537082524" lon="-6.240959427713095"><ele>2140.0</ele><time>2026-05-04T14:46:50Z</time></trkpt><trkpt lat="31.48737252568212" lon="-6.240880009611263"><ele>2140.0</ele><time>2026-05-04T14:46:51Z</time></trkpt><trkpt lat="31.487277483541803" lon="-6.24079970197625"><ele>2140.0</ele><time>2026-05-04T14:46:52Z</time></trkpt><trkpt lat="31.48719457425735" lon="-6.240704544116063"><ele>2140.0</ele><time>2026-05-04T14:46:53Z</time></trkpt><trkpt lat="31.487153685773137" lon="-6.2405804601332395"><ele>2136.4</ele><time>2026-05-04T14:46:54Z</time></trkpt><trkpt lat="31.487163526808413" lon="-6.240463626066627"><ele>2132.8</ele><time>2026-05-04T14:46:55Z</time></trkpt><trkpt lat="31.487160419610667" lon="-6.240351377990629"><ele>2129.2</ele><time>2026-05-04T14:46:56Z</time></trkpt><trkpt lat="31.487158493372647" lon="-6.240238472393504"><ele>2125.6</ele><time>2026-05-04T14:46:57Z</time></trkpt><trkpt lat="31.487110424258766" lon="-6.24013276229497"><ele>2122.0</ele><time>2026-05-04T14:46:58Z</time></trkpt><trkpt lat="31.48703399655597" lon="-6.2400762825173794"><ele>2130.0</ele><time>2026-05-04T14:46:59Z</time></trkpt><trkpt lat="31.48696732051871" lon="-6.23997587338156"><ele>2138.0</ele><time>2026-05-04T14:47:00Z</time></trkpt><trkpt lat="31.486900335766908" lon="-6.239877781728362"><ele>2146.0</ele><time>2026-05-04T14:47:01Z</time></trkpt><trkpt lat="31.48682823118407" lon="-6.2397782649804245"><ele>2154.0</ele><time>2026-05-04T14:47:02Z</time></trkpt><trkpt lat="31.48675901921778" lon="-6.239685507739814"><ele>2162.0</ele><time>2026-05-04T14:47:03Z</time></trkpt><trkpt lat="31.486682568243015" lon="-6.239582173141248"><ele>2162.0</ele><time>2026-05-04T14:47:04Z</time></trkpt><trkpt lat="31.48660621634709" lon="-6.2394793474503185"><ele>2162.0</ele><time>2026-05-04T14:47:05Z</time></trkpt><trkpt lat="31.486559945705544" lon="-6.239323409606178"><ele>2162.0</ele><time>2026-05-04T14:47:06Z</time></trkpt><trkpt lat="31.486535503710687" lon="-6.23918316754392"><ele>2162.0</ele><time>2026-05-04T14:47:07Z</time></trkpt><trkpt lat="31.486539820614414" lon="-6.239029443200092"><ele>2161.0</ele><time>2026-05-04T14:47:08Z</time></trkpt><trkpt lat="31.486556759773872" lon="-6.23890087749126"><ele>2160.0</ele><time>2026-05-04T14:47:09Z</time></trkpt><trkpt lat="31.486553902314544" lon="-6.2387701989084325"><ele>2159.0</ele><time>2026-05-04T14:47:10Z</time></trkpt><trkpt lat="31.48655214047415" lon="-6.238654123907458"><ele>2158.0</ele><time>2026-05-04T14:47:11Z</time></trkpt><trkpt lat="31.486550063717527" lon="-6.238526828301549"><ele>2157.0</ele><time>2026-05-04T14:47:12Z</time></trkpt><trkpt lat="31.486538467066843" lon="-6.23841685731579"><ele>2157.0</ele><time>2026-05-04T14:47:13Z</time></trkpt><trkpt lat="31.486503416208407" lon="-6.238302850895828"><ele>2157.0</ele><time>2026-05-04T14:47:14Z</time></trkpt><trkpt lat="31.48645014999444" lon="-6.238184475624272"><ele>2157.0</ele><time>2026-05-04T14:47:15Z</time></trkpt><trkpt lat="31.486382331433656" lon="-6.23807586684357"><ele>2157.0</ele><time>2026-05-04T14:47:16Z</time></trkpt><trkpt lat="31.486306823103035" lon="-6.2379590335892665"><ele>2163.0</ele><time>2026-05-04T14:47:17Z</time></trkpt><trkpt lat="31.4862014078049" lon="-6.237868958940249"><ele>2169.0</ele><time>2026-05-04T14:47:18Z</time></trkpt><trkpt lat="31.48609991537217" lon="-6.237783731486529"><ele>2175.0</ele><time>2026-05-04T14:47:19Z</time></trkpt><trkpt lat="31.48598524761254" lon="-6.237724368230163"><ele>2181.0</ele><time>2026-05-04T14:47:20Z</time></trkpt><trkpt lat="31.485896768798078" lon="-6.237565822594871"><ele>2181.0</ele><time>2026-05-04T14:47:21Z</time></trkpt><trkpt lat="31.485805058165738" lon="-6.237411226780402"><ele>2181.0</ele><time>2026-05-04T14:47:22Z</time></trkpt><trkpt lat="31.485706822717237" lon="-6.237252502014626"><ele>2181.0</ele><time>2026-05-04T14:47:23Z</time></trkpt><trkpt lat="31.485615466265212" lon="-6.237090634077906"><ele>2182.0</ele><time>2026-05-04T14:47:24Z</time></trkpt><trkpt lat="31.485554838087975" lon="-6.236929079432524"><ele>2183.0</ele><time>2026-05-04T14:47:25Z</time></trkpt><trkpt lat="31.485491067276474" lon="-6.236771685922244"><ele>2184.0</ele><time>2026-05-04T14:47:26Z</time></trkpt><trkpt lat="31.485444567134902" lon="-6.236610569336866"><ele>2185.0</ele><time>2026-05-04T14:47:27Z</time></trkpt><trkpt lat="31.48540810768992" lon="-6.23645181999489"><ele>2185.0</ele><time>2026-05-04T14:47:28Z</time></trkpt><trkpt lat="31.485381159481744" lon="-6.236302304457077"><ele>2185.0</ele><time>2026-05-04T14:47:29Z</time></trkpt><trkpt lat="31.485360527824053" lon="-6.2361729766684135"><ele>2185.0</ele><time>2026-05-04T14:47:30Z</time></trkpt><trkpt lat="31.485333548480124" lon="-6.23606274722667"><ele>2185.0</ele><time>2026-05-04T14:47:31Z</time></trkpt><trkpt lat="31.48528818244677" lon="-6.2359657060329425"><ele>2185.0</ele><time>2026-05-04T14:47:32Z</time></trkpt><trkpt lat="31.485227704002003" lon="-6.2359085636541085"><ele>2185.0</ele><time>2026-05-04T14:47:33Z</time></trkpt><trkpt lat="31.485164151187128" lon="-6.235888695254581"><ele>2185.0</ele><time>2026-05-04T14:47:34Z</time></trkpt><trkpt lat="31.48510195162757" lon="-6.235913856885911"><ele>2185.0</ele><time>2026-05-04T14:47:35Z</time></trkpt><trkpt lat="31.485054573074535" lon="-6.2359709134924435"><ele>2185.0</ele><time>2026-05-04T14:47:36Z</time></trkpt><trkpt lat="31.48503332693358" lon="-6.236057758972613"><ele>2185.0</ele><time>2026-05-04T14:47:37Z</time></trkpt><trkpt lat="31.48505325811782" lon="-6.2361454982429185"><ele>2185.0</ele><time>2026-05-04T14:47:38Z</time></trkpt><trkpt lat="31.485048551655563" lon="-6.236262266999642"><ele>2185.0</ele><time>2026-05-04T14:47:39Z</time></trkpt><trkpt lat="31.485063280534945" lon="-6.236386759280514"><ele>2185.0</ele><time>2026-05-04T14:47:40Z</time></trkpt><trkpt lat="31.48508079602408" lon="-6.236514777087139"><ele>2185.0</ele><time>2026-05-04T14:47:41Z</time></trkpt><trkpt lat="31.485090762889296" lon="-6.236655118753749"><ele>2185.0</ele><time>2026-05-04T14:47:42Z</time></trkpt><trkpt lat="31.485093189442633" lon="-6.236809945962591"><ele>2189.5</ele><time>2026-05-04T14:47:43Z</time></trkpt><trkpt lat="31.485081344407163" lon="-6.2369748019945686"><ele>2194.0</ele><time>2026-05-04T14:47:44Z</time></trkpt><trkpt lat="31.48506737776445" lon="-6.237127124356619"><ele>2198.5</ele><time>2026-05-04T14:47:45Z</time></trkpt><trkpt lat="31.485051890423673" lon="-6.2372865202013"><ele>2203.0</ele><time>2026-05-04T14:47:46Z</time></trkpt><trkpt lat="31.485040483900338" lon="-6.237447935865579"><ele>2204.0</ele><time>2026-05-04T14:47:47Z</time></trkpt><trkpt lat="31.48503780180958" lon="-6.237619528464979"><ele>2205.0</ele><time>2026-05-04T14:47:48Z</time></trkpt><trkpt lat="31.485038228688946" lon="-6.237791318399187"><ele>2206.0</ele><time>2026-05-04T14:47:49Z</time></trkpt><trkpt lat="31.485046975986737" lon="-6.237965483542482"><ele>2207.0</ele><time>2026-05-04T14:47:50Z</time></trkpt><trkpt lat="31.485070574302934" lon="-6.238135627711255"><ele>2209.75</ele><time>2026-05-04T14:47:51Z</time></trkpt><trkpt lat="31.485107962311726" lon="-6.238297152792059"><ele>2212.5</ele><time>2026-05-04T14:47:52Z</time></trkpt><trkpt lat="31.485153398290674" lon="-6.238463004372267"><ele>2215.25</ele><time>2026-05-04T14:47:53Z</time></trkpt><trkpt lat="31.48520200587522" lon="-6.238623938102971"><ele>2218.0</ele><time>2026-05-04T14:47:54Z</time></trkpt><trkpt lat="31.485249861632948" lon="-6.238788217804167"><ele>2218.0</ele><time>2026-05-04T14:47:55Z</time></trkpt><trkpt lat="31.48529540343437" lon="-6.238950330719216"><ele>2218.0</ele><time>2026-05-04T14:47:56Z</time></trkpt><trkpt lat="31.48534134950233" lon="-6.239118368473922"><ele>2218.0</ele><time>2026-05-04T14:47:57Z</time></trkpt><trkpt lat="31.48538066748629" lon="-6.239282205877778"><ele>2218.0</ele><time>2026-05-04T14:47:58Z</time></trkpt><trkpt lat="31.485408188584774" lon="-6.239445731727216"><ele>2219.25</ele><time>2026-05-04T14:47:59Z</time></trkpt><trkpt lat="31.485440978135106" lon="-6.239602128877508"><ele>2220.5</ele><time>2026-05-04T14:48:00Z</time></trkpt><trkpt lat="31.48549177355107" lon="-6.239746314157304"><ele>2221.75</ele><time>2026-05-04T14:48:01Z</time></trkpt><trkpt lat="31.48555403057156" lon="-6.23987041021525"><ele>2223.0</ele><time>2026-05-04T14:48:02Z</time></trkpt><trkpt lat="31.485622221154728" lon="-6.239963912233829"><ele>2223.0</ele><time>2026-05-04T14:48:03Z</time></trkpt><trkpt lat="31.485682388900653" lon="-6.240035467494354"><ele>2223.0</ele><time>2026-05-04T14:48:04Z</time></trkpt><trkpt lat="31.485726870763166" lon="-6.240091216665882"><ele>2223.0</ele><time>2026-05-04T14:48:05Z</time></trkpt><trkpt lat="31.485754839009807" lon="-6.240164448626104"><ele>2223.0</ele><time>2026-05-04T14:48:06Z</time></trkpt><trkpt lat="31.485738784225358" lon="-6.240237835475264"><ele>2223.0</ele><time>2026-05-04T14:48:07Z</time></trkpt><trkpt lat="31.48569398066456" lon="-6.240294212579015"><ele>2223.0</ele><time>2026-05-04T14:48:08Z</time></trkpt><trkpt lat="31.485625609361122" lon="-6.240309301236206"><ele>2223.0</ele><time>2026-05-04T14:48:09Z</time></trkpt><trkpt lat="31.485545201939154" lon="-6.240282500175019"><ele>2223.0</ele><time>2026-05-04T14:48:10Z</time></trkpt><trkpt lat="31.485462307264523" lon="-6.240217206079704"><ele>2223.0</ele><time>2026-05-04T14:48:11Z</time></trkpt><trkpt lat="31.485380047659927" lon="-6.240122254808094"><ele>2223.0</ele><time>2026-05-04T14:48:12Z</time></trkpt><trkpt lat="31.48528062354784" lon="-6.240053215051046"><ele>2223.0</ele><time>2026-05-04T14:48:13Z</time></trkpt><trkpt lat="31.485190470781866" lon="-6.239934985833939"><ele>2225.25</ele><time>2026-05-04T14:48:14Z</time></trkpt><trkpt lat="31.485093892735293" lon="-6.239808031973756"><ele>2227.5</ele><time>2026-05-04T14:48:15Z</time></trkpt><trkpt lat="31.48500264508691" lon="-6.2396755848186976"><ele>2229.75</ele><time>2026-05-04T14:48:16Z</time></trkpt><trkpt lat="31.484927218713256" lon="-6.239553331740043"><ele>2232.0</ele><time>2026-05-04T14:48:17Z</time></trkpt><trkpt lat="31.484869423454324" lon="-6.239438654175986"><ele>2232.0</ele><time>2026-05-04T14:48:18Z</time></trkpt><trkpt lat="31.48482424692889" lon="-6.239341517210277"><ele>2232.0</ele><time>2026-05-04T14:48:19Z</time></trkpt><trkpt lat="31.484784206704862" lon="-6.239255835499653"><ele>2232.0</ele><time>2026-05-04T14:48:20Z</time></trkpt><trkpt lat="31.484704758999513" lon="-6.239146517423581"><ele>2232.0</ele><time>2026-05-04T14:48:22Z</time></trkpt><trkpt lat="31.48460454265458" lon="-6.239158084119987"><ele>2232.0</ele><time>2026-05-04T14:48:24Z</time></trkpt><trkpt lat="31.484664398869718" lon="-6.239290616581149"><ele>2232.0</ele><time>2026-05-04T14:48:25Z</time></trkpt><trkpt lat="31.484679061771693" lon="-6.239376762681438"><ele>2232.0</ele><time>2026-05-04T14:48:26Z</time></trkpt><trkpt lat="31.48473308246912" lon="-6.239493052310373"><ele>2232.0</ele><time>2026-05-04T14:48:27Z</time></trkpt><trkpt lat="31.484801918713984" lon="-6.239624974611458"><ele>2232.0</ele><time>2026-05-04T14:48:28Z</time></trkpt><trkpt lat="31.484865355955097" lon="-6.239768911414806"><ele>2237.25</ele><time>2026-05-04T14:48:29Z</time></trkpt><trkpt lat="31.484910519242977" lon="-6.239936125915121"><ele>2242.5</ele><time>2026-05-04T14:48:30Z</time></trkpt><trkpt lat="31.484967901133217" lon="-6.240088476428154"><ele>2247.75</ele><time>2026-05-04T14:48:31Z</time></trkpt><trkpt lat="31.485061435176963" lon="-6.240228301731668"><ele>2253.0</ele><time>2026-05-04T14:48:32Z</time></trkpt><trkpt lat="31.485165404014563" lon="-6.240366522907082"><ele>2253.0</ele><time>2026-05-04T14:48:33Z</time></trkpt><trkpt lat="31.485245269822588" lon="-6.240516673340958"><ele>2253.0</ele><time>2026-05-04T14:48:34Z</time></trkpt><trkpt lat="31.485290733501394" lon="-6.240680109422233"><ele>2253.0</ele><time>2026-05-04T14:48:35Z</time></trkpt><trkpt lat="31.485324980639767" lon="-6.240827459451197"><ele>2253.0</ele><time>2026-05-04T14:48:36Z</time></trkpt><trkpt lat="31.485367230319234" lon="-6.240951552633391"><ele>2251.4</ele><time>2026-05-04T14:48:37Z</time></trkpt><trkpt lat="31.485434070082732" lon="-6.2410333368693625"><ele>2249.8</ele><time>2026-05-04T14:48:38Z</time></trkpt><trkpt lat="31.48550758886112" lon="-6.241074688209162"><ele>2248.2</ele><time>2026-05-04T14:48:39Z</time></trkpt><trkpt lat="31.485568269217136" lon="-6.24114600377418"><ele>2246.6</ele><time>2026-05-04T14:48:40Z</time></trkpt><trkpt lat="31.48557196587269" lon="-6.241221998595263"><ele>2245.0</ele><time>2026-05-04T14:48:41Z</time></trkpt><trkpt lat="31.485477963200978" lon="-6.2413466523775405"><ele>2253.25</ele><time>2026-05-04T14:48:43Z</time></trkpt><trkpt lat="31.485335101330357" lon="-6.24130727467813"><ele>2261.5</ele><time>2026-05-04T14:48:45Z</time></trkpt><trkpt lat="31.48524040607703" lon="-6.241243502667497"><ele>2269.75</ele><time>2026-05-04T14:48:46Z</time></trkpt><trkpt lat="31.485137889595787" lon="-6.241186222243968"><ele>2278.0</ele><time>2026-05-04T14:48:47Z</time></trkpt><trkpt lat="31.48505190624456" lon="-6.241121168502279"><ele>2278.0</ele><time>2026-05-04T14:48:48Z</time></trkpt><trkpt lat="31.484993942829426" lon="-6.240964323953497"><ele>2278.0</ele><time>2026-05-04T14:48:49Z</time></trkpt><trkpt lat="31.485005617774956" lon="-6.240812692937081"><ele>2278.0</ele><time>2026-05-04T14:48:50Z</time></trkpt><trkpt lat="31.484963744058156" lon="-6.240685401770402"><ele>2278.0</ele><time>2026-05-04T14:48:51Z</time></trkpt><trkpt lat="31.484888294264916" lon="-6.240601940602047"><ele>2282.2000000000003</ele><time>2026-05-04T14:48:52Z</time></trkpt><trkpt lat="31.484811327687424" lon="-6.240529739872435"><ele>2286.4</ele><time>2026-05-04T14:48:53Z</time></trkpt><trkpt lat="31.484714820143427" lon="-6.240529871263807"><ele>2290.6000000000004</ele><time>2026-05-04T14:48:54Z</time></trkpt><trkpt lat="31.484613255397278" lon="-6.2404824070862706"><ele>2294.8</ele><time>2026-05-04T14:48:55Z</time></trkpt><trkpt lat="31.4845151408111" lon="-6.240392731410498"><ele>2299.0</ele><time>2026-05-04T14:48:56Z</time></trkpt><trkpt lat="31.48449754477843" lon="-6.240246941630653"><ele>2299.0</ele><time>2026-05-04T14:48:57Z</time></trkpt><trkpt lat="31.48444561522116" lon="-6.240147753992576"><ele>2299.0</ele><time>2026-05-04T14:48:58Z</time></trkpt><trkpt lat="31.484395482464603" lon="-6.2400543367692265"><ele>2299.0</ele><time>2026-05-04T14:48:59Z</time></trkpt><trkpt lat="31.48433660294236" lon="-6.2399445848614095"><ele>2299.0</ele><time>2026-05-04T14:49:00Z</time></trkpt><trkpt lat="31.484270703679403" lon="-6.239822158722822"><ele>2299.0</ele><time>2026-05-04T14:49:01Z</time></trkpt><trkpt lat="31.484199529907958" lon="-6.239685932769552"><ele>2294.75</ele><time>2026-05-04T14:49:02Z</time></trkpt><trkpt lat="31.484132233702127" lon="-6.239551909615374"><ele>2290.5</ele><time>2026-05-04T14:49:03Z</time></trkpt><trkpt lat="31.48405946105217" lon="-6.239421651741523"><ele>2286.25</ele><time>2026-05-04T14:49:04Z</time></trkpt><trkpt lat="31.483978762021238" lon="-6.239292718567553"><ele>2282.0</ele><time>2026-05-04T14:49:05Z</time></trkpt><trkpt lat="31.48391410521094" lon="-6.239128770225567"><ele>2278.0</ele><time>2026-05-04T14:49:06Z</time></trkpt><trkpt lat="31.483870743573398" lon="-6.238967421424738"><ele>2274.0</ele><time>2026-05-04T14:49:07Z</time></trkpt><trkpt lat="31.483830873438126" lon="-6.238790874275372"><ele>2270.0</ele><time>2026-05-04T14:49:08Z</time></trkpt><trkpt lat="31.48380176404885" lon="-6.238602911401206"><ele>2270.0</ele><time>2026-05-04T14:49:09Z</time></trkpt><trkpt lat="31.483775222881185" lon="-6.238414319230827"><ele>2270.0</ele><time>2026-05-04T14:49:10Z</time></trkpt><trkpt lat="31.48373585468624" lon="-6.238240506402613"><ele>2270.0</ele><time>2026-05-04T14:49:11Z</time></trkpt><trkpt lat="31.483674795732608" lon="-6.2380643785928385"><ele>2282.25</ele><time>2026-05-04T14:49:12Z</time></trkpt><trkpt lat="31.483623758923123" lon="-6.237888431541972"><ele>2294.5</ele><time>2026-05-04T14:49:13Z</time></trkpt><trkpt lat="31.48358209356158" lon="-6.237721999686597"><ele>2306.75</ele><time>2026-05-04T14:49:14Z</time></trkpt><trkpt lat="31.483572148850918" lon="-6.237561310375858"><ele>2319.0</ele><time>2026-05-04T14:49:15Z</time></trkpt><trkpt lat="31.483560812454208" lon="-6.237406727226953"><ele>2318.5</ele><time>2026-05-04T14:49:16Z</time></trkpt><trkpt lat="31.483550130760047" lon="-6.237244630635442"><ele>2318.0</ele><time>2026-05-04T14:49:17Z</time></trkpt><trkpt lat="31.48356695408772" lon="-6.237074135654145"><ele>2317.5</ele><time>2026-05-04T14:49:18Z</time></trkpt><trkpt lat="31.483581699245157" lon="-6.236942306956484"><ele>2317.0</ele><time>2026-05-04T14:49:19Z</time></trkpt><trkpt lat="31.483594018205558" lon="-6.2368317501773065"><ele>2317.0</ele><time>2026-05-04T14:49:20Z</time></trkpt><trkpt lat="31.48360434266166" lon="-6.236738588550576"><ele>2317.0</ele><time>2026-05-04T14:49:21Z</time></trkpt><trkpt lat="31.483619221905446" lon="-6.236628838858344"><ele>2317.0</ele><time>2026-05-04T14:49:23Z</time></trkpt><trkpt lat="31.48355230616888" lon="-6.236626393126731"><ele>2317.0</ele><time>2026-05-04T14:49:24Z</time></trkpt><trkpt lat="31.4834952081801" lon="-6.23666483250142"><ele>2317.0</ele><time>2026-05-04T14:49:25Z</time></trkpt><trkpt lat="31.48347497270074" lon="-6.236759717566874"><ele>2317.0</ele><time>2026-05-04T14:49:26Z</time></trkpt><trkpt lat="31.483448472674194" lon="-6.2368490046265235"><ele>2317.0</ele><time>2026-05-04T14:49:27Z</time></trkpt><trkpt lat="31.483418839960304" lon="-6.236967832213679"><ele>2317.0</ele><time>2026-05-04T14:49:28Z</time></trkpt><trkpt lat="31.483411065024743" lon="-6.237097163301534"><ele>2317.0</ele><time>2026-05-04T14:49:29Z</time></trkpt><trkpt lat="31.483396372931384" lon="-6.237242440744395"><ele>2317.0</ele><time>2026-05-04T14:49:30Z</time></trkpt><trkpt lat="31.483373812529607" lon="-6.2374017311492125"><ele>2317.666666666667</ele><time>2026-05-04T14:49:31Z</time></trkpt><trkpt lat="31.483353223887235" lon="-6.237576475226746"><ele>2318.3333333333335</ele><time>2026-05-04T14:49:32Z</time></trkpt><trkpt lat="31.483344723102864" lon="-6.2377515510813435"><ele>2319.0</ele><time>2026-05-04T14:49:33Z</time></trkpt><trkpt lat="31.483349420448832" lon="-6.2379286546486945"><ele>2319.0</ele><time>2026-05-04T14:49:34Z</time></trkpt><trkpt lat="31.483352938496985" lon="-6.2381062766974855"><ele>2319.0</ele><time>2026-05-04T14:49:35Z</time></trkpt><trkpt lat="31.483358151796637" lon="-6.23828163355477"><ele>2319.0</ele><time>2026-05-04T14:49:36Z</time></trkpt><trkpt lat="31.48335481299782" lon="-6.238456502214674"><ele>2320.25</ele><time>2026-05-04T14:49:37Z</time></trkpt><trkpt lat="31.483354001383816" lon="-6.238629158528743"><ele>2321.5</ele><time>2026-05-04T14:49:38Z</time></trkpt><trkpt lat="31.483366075741827" lon="-6.238801255825349"><ele>2322.75</ele><time>2026-05-04T14:49:39Z</time></trkpt><trkpt lat="31.483388015348886" lon="-6.2389771226110495"><ele>2324.0</ele><time>2026-05-04T14:49:40Z</time></trkpt><trkpt lat="31.483411755503084" lon="-6.239161329296302"><ele>2326.6666666666665</ele><time>2026-05-04T14:49:41Z</time></trkpt><trkpt lat="31.48343310737079" lon="-6.2393485028571165"><ele>2329.3333333333335</ele><time>2026-05-04T14:49:42Z</time></trkpt><trkpt lat="31.483451171148097" lon="-6.239540540453468"><ele>2332.0</ele><time>2026-05-04T14:49:43Z</time></trkpt><trkpt lat="31.483475696925527" lon="-6.239734827942229"><ele>2337.3333333333335</ele><time>2026-05-04T14:49:44Z</time></trkpt><trkpt lat="31.48350483294752" lon="-6.2399276690409895"><ele>2342.6666666666665</ele><time>2026-05-04T14:49:45Z</time></trkpt><trkpt lat="31.48353185600735" lon="-6.240105850162605"><ele>2348.0</ele><time>2026-05-04T14:49:46Z</time></trkpt><trkpt lat="31.483553817584827" lon="-6.240263329116613"><ele>2348.0</ele><time>2026-05-04T14:49:47Z</time></trkpt><trkpt lat="31.48357844897976" lon="-6.2403995261989875"><ele>2348.0</ele><time>2026-05-04T14:49:48Z</time></trkpt><trkpt lat="31.483600221639204" lon="-6.240510553910202"><ele>2348.0</ele><time>2026-05-04T14:49:49Z</time></trkpt><trkpt lat="31.48361019942723" lon="-6.240595650165179"><ele>2348.0</ele><time>2026-05-04T14:49:50Z</time></trkpt><trkpt lat="31.483581202519808" lon="-6.240723780593647"><ele>2348.0</ele><time>2026-05-04T14:49:52Z</time></trkpt><trkpt lat="31.483412611782555" lon="-6.240740562797291"><ele>2348.0</ele><time>2026-05-04T14:49:54Z</time></trkpt><trkpt lat="31.483352710001206" lon="-6.240669006286609"><ele>2348.0</ele><time>2026-05-04T14:49:55Z</time></trkpt><trkpt lat="31.483305499650456" lon="-6.240557337626736"><ele>2348.0</ele><time>2026-05-04T14:49:56Z</time></trkpt><trkpt lat="31.483261095411812" lon="-6.240432066984134"><ele>2348.0</ele><time>2026-05-04T14:49:57Z</time></trkpt><trkpt lat="31.48322476595022" lon="-6.240297798634543"><ele>2348.0</ele><time>2026-05-04T14:49:58Z</time></trkpt><trkpt lat="31.483144683073935" lon="-6.240176599382756"><ele>2348.0</ele><time>2026-05-04T14:49:59Z</time></trkpt><trkpt lat="31.483053242084164" lon="-6.240047939940244"><ele>2348.0</ele><time>2026-05-04T14:50:00Z</time></trkpt><trkpt lat="31.48294568300253" lon="-6.2399149630847015"><ele>2348.0</ele><time>2026-05-04T14:50:01Z</time></trkpt><trkpt lat="31.48284198557362" lon="-6.239786877738133"><ele>2352.0</ele><time>2026-05-04T14:50:02Z</time></trkpt><trkpt lat="31.482740302266627" lon="-6.2396618658504375"><ele>2356.0</ele><time>2026-05-04T14:50:03Z</time></trkpt><trkpt lat="31.482654762078063" lon="-6.239556700689713"><ele>2360.0</ele><time>2026-05-04T14:50:04Z</time></trkpt><trkpt lat="31.4825823283263" lon="-6.239468146798902"><ele>2364.0</ele><time>2026-05-04T14:50:05Z</time></trkpt><trkpt lat="31.4825218985703" lon="-6.239394566058396"><ele>2364.0</ele><time>2026-05-04T14:50:06Z</time></trkpt><trkpt lat="31.48242967709516" lon="-6.239322959779229"><ele>2364.0</ele><time>2026-05-04T14:50:08Z</time></trkpt><trkpt lat="31.48236247821424" lon="-6.2393025257295065"><ele>2364.0</ele><time>2026-05-04T14:50:09Z</time></trkpt><trkpt lat="31.48229065403979" lon="-6.239321270558275"><ele>2364.0</ele><time>2026-05-04T14:50:10Z</time></trkpt><trkpt lat="31.482223878356407" lon="-6.239372267516334"><ele>2364.0</ele><time>2026-05-04T14:50:11Z</time></trkpt><trkpt lat="31.482164029042888" lon="-6.239442590164947"><ele>2364.0</ele><time>2026-05-04T14:50:12Z</time></trkpt><trkpt lat="31.48211010907051" lon="-6.239538995704822"><ele>2363.4</ele><time>2026-05-04T14:50:13Z</time></trkpt><trkpt lat="31.48206064153408" lon="-6.23964765068903"><ele>2362.8</ele><time>2026-05-04T14:50:14Z</time></trkpt><trkpt lat="31.482026576992297" lon="-6.239761354152281"><ele>2362.2</ele><time>2026-05-04T14:50:15Z</time></trkpt><trkpt lat="31.481990949536605" lon="-6.23986854688092"><ele>2361.6</ele><time>2026-05-04T14:50:16Z</time></trkpt><trkpt lat="31.481941800763124" lon="-6.239971452007659"><ele>2361.0</ele><time>2026-05-04T14:50:17Z</time></trkpt><trkpt lat="31.481884290125258" lon="-6.240072910772756"><ele>2361.0</ele><time>2026-05-04T14:50:18Z</time></trkpt><trkpt lat="31.481822156765283" lon="-6.240162373671816"><ele>2361.0</ele><time>2026-05-04T14:50:19Z</time></trkpt><trkpt lat="31.4817304924619" lon="-6.2402236473226385"><ele>2361.0</ele><time>2026-05-04T14:50:20Z</time></trkpt><trkpt lat="31.48163238989576" lon="-6.240256413159904"><ele>2361.0</ele><time>2026-05-04T14:50:21Z</time></trkpt><trkpt lat="31.48152797943544" lon="-6.2402722289099675"><ele>2361.0</ele><time>2026-05-04T14:50:22Z</time></trkpt><trkpt lat="31.48140152176848" lon="-6.240237593358875"><ele>2361.0</ele><time>2026-05-04T14:50:23Z</time></trkpt><trkpt lat="31.48129940114152" lon="-6.240148739192748"><ele>2361.0</ele><time>2026-05-04T14:50:24Z</time></trkpt><trkpt lat="31.48121843833012" lon="-6.240021795665873"><ele>2361.0</ele><time>2026-05-04T14:50:25Z</time></trkpt><trkpt lat="31.481149789916483" lon="-6.239891597120267"><ele>2361.0</ele><time>2026-05-04T14:50:26Z</time></trkpt><trkpt lat="31.48108952973563" lon="-6.239765935653998"><ele>2358.2</ele><time>2026-05-04T14:50:27Z</time></trkpt><trkpt lat="31.481030570114118" lon="-6.239642796447739"><ele>2355.3999999999996</ele><time>2026-05-04T14:50:28Z</time></trkpt><trkpt lat="31.48097846851635" lon="-6.239533980520914"><ele>2352.6</ele><time>2026-05-04T14:50:29Z</time></trkpt><trkpt lat="31.480930724394913" lon="-6.239438876667381"><ele>2349.7999999999997</ele><time>2026-05-04T14:50:30Z</time></trkpt><trkpt lat="31.480884984470322" lon="-6.239374822499492"><ele>2347.0</ele><time>2026-05-04T14:50:31Z</time></trkpt><trkpt lat="31.480743498782804" lon="-6.239379806487885"><ele>2347.0</ele><time>2026-05-04T14:50:33Z</time></trkpt><trkpt lat="31.4806654817777" lon="-6.2394518609473995"><ele>2347.0</ele><time>2026-05-04T14:50:34Z</time></trkpt><trkpt lat="31.480590631809076" lon="-6.239561059832909"><ele>2347.0</ele><time>2026-05-04T14:50:35Z</time></trkpt><trkpt lat="31.480520542918466" lon="-6.2396630874471795"><ele>2347.0</ele><time>2026-05-04T14:50:36Z</time></trkpt><trkpt lat="31.48045768800013" lon="-6.239745099385165"><ele>2347.0</ele><time>2026-05-04T14:50:37Z</time></trkpt><trkpt lat="31.480395938714306" lon="-6.239827052588433"><ele>2346.166666666667</ele><time>2026-05-04T14:50:38Z</time></trkpt><trkpt lat="31.480339747427486" lon="-6.239890198401457"><ele>2345.3333333333335</ele><time>2026-05-04T14:50:39Z</time></trkpt><trkpt lat="31.480269535759927" lon="-6.23992527047238"><ele>2344.5</ele><time>2026-05-04T14:50:40Z</time></trkpt><trkpt lat="31.48019190008395" lon="-6.239936479782014"><ele>2343.6666666666665</ele><time>2026-05-04T14:50:41Z</time></trkpt><trkpt lat="31.480115810258265" lon="-6.239962471623792"><ele>2342.833333333333</ele><time>2026-05-04T14:50:42Z</time></trkpt><trkpt lat="31.48000890356944" lon="-6.23994288181769"><ele>2342.0</ele><time>2026-05-04T14:50:43Z</time></trkpt><trkpt lat="31.479895568409436" lon="-6.23988266220542"><ele>2340.5</ele><time>2026-05-04T14:50:44Z</time></trkpt><trkpt lat="31.479781729914865" lon="-6.239798756506973"><ele>2339.0</ele><time>2026-05-04T14:50:45Z</time></trkpt><trkpt lat="31.479674985199306" lon="-6.239673144460518"><ele>2337.5</ele><time>2026-05-04T14:50:46Z</time></trkpt><trkpt lat="31.47960934934896" lon="-6.239507899375053"><ele>2336.0</ele><time>2026-05-04T14:50:47Z</time></trkpt><trkpt lat="31.479556259971673" lon="-6.239342376804884"><ele>2339.333333333333</ele><time>2026-05-04T14:50:48Z</time></trkpt><trkpt lat="31.47950155470104" lon="-6.239169343147641"><ele>2342.6666666666665</ele><time>2026-05-04T14:50:49Z</time></trkpt><trkpt lat="31.479443015966496" lon="-6.238981419910393"><ele>2346.0</ele><time>2026-05-04T14:50:50Z</time></trkpt><trkpt lat="31.479387823248118" lon="-6.238803099663887"><ele>2346.0</ele><time>2026-05-04T14:50:51Z</time></trkpt><trkpt lat="31.47934033786787" lon="-6.238622129362283"><ele>2346.0</ele><time>2026-05-04T14:50:52Z</time></trkpt><trkpt lat="31.47930876221813" lon="-6.238436221486843"><ele>2346.0</ele><time>2026-05-04T14:50:53Z</time></trkpt><trkpt lat="31.479283553361874" lon="-6.238247022181876"><ele>2345.0</ele><time>2026-05-04T14:50:54Z</time></trkpt><trkpt lat="31.47925352580891" lon="-6.238076776202646"><ele>2344.0</ele><time>2026-05-04T14:50:55Z</time></trkpt><trkpt lat="31.479219963709" lon="-6.237915787281064"><ele>2343.0</ele><time>2026-05-04T14:50:56Z</time></trkpt><trkpt lat="31.479188625353107" lon="-6.237766911752166"><ele>2342.0</ele><time>2026-05-04T14:50:57Z</time></trkpt><trkpt lat="31.479159327132837" lon="-6.237626436657333"><ele>2342.0</ele><time>2026-05-04T14:50:58Z</time></trkpt><trkpt lat="31.479114799840442" lon="-6.23752474203589"><ele>2342.0</ele><time>2026-05-04T14:50:59Z</time></trkpt><trkpt lat="31.479071542410804" lon="-6.237410307693121"><ele>2342.0</ele><time>2026-05-04T14:51:00Z</time></trkpt><trkpt lat="31.479032632117377" lon="-6.237305755634141"><ele>2342.0</ele><time>2026-05-04T14:51:01Z</time></trkpt><trkpt lat="31.47899234845784" lon="-6.237197337693471"><ele>2342.0</ele><time>2026-05-04T14:51:02Z</time></trkpt><trkpt lat="31.47894479378068" lon="-6.237095569126333"><ele>2339.25</ele><time>2026-05-04T14:51:03Z</time></trkpt><trkpt lat="31.478878544503846" lon="-6.236977044455789"><ele>2336.5</ele><time>2026-05-04T14:51:04Z</time></trkpt><trkpt lat="31.478811546555136" lon="-6.236843611679475"><ele>2333.75</ele><time>2026-05-04T14:51:05Z</time></trkpt><trkpt lat="31.47875394311666" lon="-6.236695978253307"><ele>2331.0</ele><time>2026-05-04T14:51:06Z</time></trkpt><trkpt lat="31.4787025409048" lon="-6.236554778954331"><ele>2333.75</ele><time>2026-05-04T14:51:07Z</time></trkpt><trkpt lat="31.478642764612342" lon="-6.236405945621179"><ele>2336.5</ele><time>2026-05-04T14:51:08Z</time></trkpt><trkpt lat="31.478583771236615" lon="-6.236259061729659"><ele>2339.25</ele><time>2026-05-04T14:51:09Z</time></trkpt><trkpt lat="31.47851925516838" lon="-6.236157901927714"><ele>2342.0</ele><time>2026-05-04T14:51:10Z</time></trkpt><trkpt lat="31.478432251148707" lon="-6.236045816624895"><ele>2342.0</ele><time>2026-05-04T14:51:11Z</time></trkpt><trkpt lat="31.478346982925796" lon="-6.235934629609261"><ele>2342.0</ele><time>2026-05-04T14:51:12Z</time></trkpt><trkpt lat="31.478261066393188" lon="-6.235847659855572"><ele>2342.0</ele><time>2026-05-04T14:51:13Z</time></trkpt><trkpt lat="31.47815922060816" lon="-6.235749665950391"><ele>2342.0</ele><time>2026-05-04T14:51:14Z</time></trkpt><trkpt lat="31.478053840204858" lon="-6.2356510483002685"><ele>2341.5</ele><time>2026-05-04T14:51:15Z</time></trkpt><trkpt lat="31.477945106991157" lon="-6.235550614460565"><ele>2341.0</ele><time>2026-05-04T14:51:16Z</time></trkpt><trkpt lat="31.477830686894062" lon="-6.235443954866227"><ele>2340.5</ele><time>2026-05-04T14:51:17Z</time></trkpt><trkpt lat="31.477714866815344" lon="-6.235356090523036"><ele>2340.0</ele><time>2026-05-04T14:51:18Z</time></trkpt><trkpt lat="31.477590524204444" lon="-6.235269752516862"><ele>2338.75</ele><time>2026-05-04T14:51:19Z</time></trkpt><trkpt lat="31.47747027166863" lon="-6.235185532534014"><ele>2337.5</ele><time>2026-05-04T14:51:20Z</time></trkpt><trkpt lat="31.4773536817912" lon="-6.23510903133461"><ele>2336.25</ele><time>2026-05-04T14:51:21Z</time></trkpt><trkpt lat="31.477234028328688" lon="-6.235033945380811"><ele>2335.0</ele><time>2026-05-04T14:51:22Z</time></trkpt><trkpt lat="31.47711498412772" lon="-6.234959043114572"><ele>2333.0</ele><time>2026-05-04T14:51:23Z</time></trkpt><trkpt lat="31.477000476185125" lon="-6.234888758222892"><ele>2331.0</ele><time>2026-05-04T14:51:24Z</time></trkpt><trkpt lat="31.476879626527094" lon="-6.234821736950177"><ele>2329.0</ele><time>2026-05-04T14:51:25Z</time></trkpt><trkpt lat="31.47674963779486" lon="-6.234749647237466"><ele>2327.0</ele><time>2026-05-04T14:51:26Z</time></trkpt><trkpt lat="31.476613468272475" lon="-6.234674224945866"><ele>2325.6666666666665</ele><time>2026-05-04T14:51:27Z</time></trkpt><trkpt lat="31.476476514310665" lon="-6.234601531687235"><ele>2324.3333333333335</ele><time>2026-05-04T14:51:28Z</time></trkpt><trkpt lat="31.476336821841528" lon="-6.234527384851431"><ele>2323.0</ele><time>2026-05-04T14:51:29Z</time></trkpt><trkpt lat="31.47619525429699" lon="-6.234452413609388"><ele>2321.666666666667</ele><time>2026-05-04T14:51:30Z</time></trkpt><trkpt lat="31.476041541925763" lon="-6.234366128325206"><ele>2320.3333333333335</ele><time>2026-05-04T14:51:31Z</time></trkpt><trkpt lat="31.475883958271023" lon="-6.2342762191942205"><ele>2319.0</ele><time>2026-05-04T14:51:32Z</time></trkpt><trkpt lat="31.475725135860387" lon="-6.234186848126992"><ele>2319.0</ele><time>2026-05-04T14:51:33Z</time></trkpt><trkpt lat="31.475564921141377" lon="-6.2341034439540115"><ele>2319.0</ele><time>2026-05-04T14:51:34Z</time></trkpt><trkpt lat="31.475399854797477" lon="-6.234017058941475"><ele>2319.0</ele><time>2026-05-04T14:51:35Z</time></trkpt><trkpt lat="31.4752346779316" lon="-6.2339308964984825"><ele>2321.0</ele><time>2026-05-04T14:51:36Z</time></trkpt><trkpt lat="31.475073305540693" lon="-6.233846501472922"><ele>2323.0</ele><time>2026-05-04T14:51:37Z</time></trkpt><trkpt lat="31.474912038997985" lon="-6.233761089979456"><ele>2325.0</ele><time>2026-05-04T14:51:38Z</time></trkpt><trkpt lat="31.474760149362922" lon="-6.2336808290332035"><ele>2325.0</ele><time>2026-05-04T14:51:39Z</time></trkpt><trkpt lat="31.474607883129195" lon="-6.23360055132163"><ele>2325.0</ele><time>2026-05-04T14:51:40Z</time></trkpt><trkpt lat="31.47445494160219" lon="-6.233519917610162"><ele>2325.0</ele><time>2026-05-04T14:51:41Z</time></trkpt><trkpt lat="31.474301563576518" lon="-6.233443870482367"><ele>2323.0</ele><time>2026-05-04T14:51:42Z</time></trkpt><trkpt lat="31.474142840350464" lon="-6.233367234101632"><ele>2321.0</ele><time>2026-05-04T14:51:43Z</time></trkpt><trkpt lat="31.473981643747898" lon="-6.233289403488351"><ele>2319.0</ele><time>2026-05-04T14:51:44Z</time></trkpt><trkpt lat="31.4738210154312" lon="-6.233218919593665"><ele>2317.0</ele><time>2026-05-04T14:51:45Z</time></trkpt><trkpt lat="31.473658264496034" lon="-6.233150881144369"><ele>2315.0</ele><time>2026-05-04T14:51:46Z</time></trkpt><trkpt lat="31.4735010559486" lon="-6.233086120011387"><ele>2313.0</ele><time>2026-05-04T14:51:47Z</time></trkpt><trkpt lat="31.473339928442474" lon="-6.233031204679331"><ele>2316.3333333333335</ele><time>2026-05-04T14:51:48Z</time></trkpt><trkpt lat="31.47316972871576" lon="-6.232973672716592"><ele>2319.666666666667</ele><time>2026-05-04T14:51:49Z</time></trkpt><trkpt lat="31.472996611097248" lon="-6.232910081276541"><ele>2323.0</ele><time>2026-05-04T14:51:50Z</time></trkpt><trkpt lat="31.472836881746353" lon="-6.23284194493385"><ele>2323.0</ele><time>2026-05-04T14:51:51Z</time></trkpt><trkpt lat="31.472696225834046" lon="-6.232784113831483"><ele>2323.0</ele><time>2026-05-04T14:51:52Z</time></trkpt><trkpt lat="31.472568557806174" lon="-6.232730291863832"><ele>2323.0</ele><time>2026-05-04T14:51:53Z</time></trkpt><trkpt lat="31.47246830829249" lon="-6.2326734301731275"><ele>2323.0</ele><time>2026-05-04T14:51:54Z</time></trkpt><trkpt lat="31.472389193899367" lon="-6.232619227281881"><ele>2323.0</ele><time>2026-05-04T14:51:55Z</time></trkpt><trkpt lat="31.472318496601893" lon="-6.232566384289175"><ele>2323.0</ele><time>2026-05-04T14:51:56Z</time></trkpt><trkpt lat="31.47224220881036" lon="-6.2324844895170015"><ele>2323.0</ele><time>2026-05-04T14:51:57Z</time></trkpt><trkpt lat="31.472186317946584" lon="-6.232356116204637"><ele>2323.0</ele><time>2026-05-04T14:51:58Z</time></trkpt><trkpt lat="31.47216805288943" lon="-6.232199215553276"><ele>2323.0</ele><time>2026-05-04T14:51:59Z</time></trkpt><trkpt lat="31.47220543238641" lon="-6.232025745773082"><ele>2323.25</ele><time>2026-05-04T14:52:00Z</time></trkpt><trkpt lat="31.47222625934136" lon="-6.231867271455019"><ele>2323.5</ele><time>2026-05-04T14:52:01Z</time></trkpt><trkpt lat="31.47224036273649" lon="-6.231704214682673"><ele>2323.75</ele><time>2026-05-04T14:52:02Z</time></trkpt><trkpt lat="31.472238078352277" lon="-6.231550871788168"><ele>2324.0</ele><time>2026-05-04T14:52:03Z</time></trkpt><trkpt lat="31.472223822745672" lon="-6.23139604751081"><ele>2323.0</ele><time>2026-05-04T14:52:04Z</time></trkpt><trkpt lat="31.47219313460026" lon="-6.231250700966512"><ele>2322.0</ele><time>2026-05-04T14:52:05Z</time></trkpt><trkpt lat="31.472143818362877" lon="-6.2310984959719535"><ele>2321.0</ele><time>2026-05-04T14:52:06Z</time></trkpt><trkpt lat="31.47209923253435" lon="-6.2309289831244214"><ele>2320.0</ele><time>2026-05-04T14:52:07Z</time></trkpt><trkpt lat="31.472087618759563" lon="-6.230785292635583"><ele>2317.75</ele><time>2026-05-04T14:52:08Z</time></trkpt><trkpt lat="31.472077892225062" lon="-6.230635325818166"><ele>2315.5</ele><time>2026-05-04T14:52:09Z</time></trkpt><trkpt lat="31.472073652453474" lon="-6.23048656019263"><ele>2313.25</ele><time>2026-05-04T14:52:10Z</time></trkpt><trkpt lat="31.472153748771138" lon="-6.230303961990022"><ele>2311.0</ele><time>2026-05-04T14:52:11Z</time></trkpt><trkpt lat="31.472201790041336" lon="-6.23014265809692"><ele>2311.0</ele><time>2026-05-04T14:52:12Z</time></trkpt><trkpt lat="31.472249869402315" lon="-6.229978377031462"><ele>2311.0</ele><time>2026-05-04T14:52:13Z</time></trkpt><trkpt lat="31.472296205339614" lon="-6.229809453630732"><ele>2311.0</ele><time>2026-05-04T14:52:14Z</time></trkpt><trkpt lat="31.472301840536698" lon="-6.229655807641762"><ele>2311.0</ele><time>2026-05-04T14:52:15Z</time></trkpt><trkpt lat="31.47230962420208" lon="-6.229502259302224"><ele>2309.5</ele><time>2026-05-04T14:52:16Z</time></trkpt><trkpt lat="31.47230040707093" lon="-6.2293558276997105"><ele>2308.0</ele><time>2026-05-04T14:52:17Z</time></trkpt><trkpt lat="31.472279834692177" lon="-6.229199353987422"><ele>2306.5</ele><time>2026-05-04T14:52:18Z</time></trkpt><trkpt lat="31.472251266709947" lon="-6.229050531262891"><ele>2305.0</ele><time>2026-05-04T14:52:19Z</time></trkpt><trkpt lat="31.472214497779607" lon="-6.228889725868398"><ele>2305.5</ele><time>2026-05-04T14:52:20Z</time></trkpt><trkpt lat="31.472169429292276" lon="-6.228735204363122"><ele>2306.0</ele><time>2026-05-04T14:52:21Z</time></trkpt><trkpt lat="31.472121014481964" lon="-6.228568997032234"><ele>2306.5</ele><time>2026-05-04T14:52:22Z</time></trkpt><trkpt lat="31.47207296114525" lon="-6.228400246228302"><ele>2307.0</ele><time>2026-05-04T14:52:23Z</time></trkpt><trkpt lat="31.47202505435327" lon="-6.228228642380189"><ele>2306.6666666666665</ele><time>2026-05-04T14:52:24Z</time></trkpt><trkpt lat="31.471983203014318" lon="-6.228055244004322"><ele>2306.333333333333</ele><time>2026-05-04T14:52:25Z</time></trkpt><trkpt lat="31.471943118703223" lon="-6.227876621655938"><ele>2306.0</ele><time>2026-05-04T14:52:26Z</time></trkpt><trkpt lat="31.47189764296294" lon="-6.227695165266545"><ele>2306.0</ele><time>2026-05-04T14:52:27Z</time></trkpt><trkpt lat="31.471847284710204" lon="-6.227507710047213"><ele>2306.0</ele><time>2026-05-04T14:52:28Z</time></trkpt><trkpt lat="31.471788370078386" lon="-6.227324238886686"><ele>2306.0</ele><time>2026-05-04T14:52:29Z</time></trkpt><trkpt lat="31.47173282472103" lon="-6.227133005974315"><ele>2303.333333333333</ele><time>2026-05-04T14:52:30Z</time></trkpt><trkpt lat="31.47167841414514" lon="-6.226942704777984"><ele>2300.6666666666665</ele><time>2026-05-04T14:52:31Z</time></trkpt><trkpt lat="31.47162343224601" lon="-6.226750127478935"><ele>2298.0</ele><time>2026-05-04T14:52:32Z</time></trkpt><trkpt lat="31.47156872192321" lon="-6.226553122624555"><ele>2298.0</ele><time>2026-05-04T14:52:33Z</time></trkpt><trkpt lat="31.471533796115576" lon="-6.2263337657282785"><ele>2298.0</ele><time>2026-05-04T14:52:34Z</time></trkpt><trkpt lat="31.47150238751455" lon="-6.226132849323737"><ele>2298.0</ele><time>2026-05-04T14:52:35Z</time></trkpt><trkpt lat="31.471470565831336" lon="-6.225942665481004"><ele>2298.0</ele><time>2026-05-04T14:52:36Z</time></trkpt><trkpt lat="31.471438791202928" lon="-6.225758429404465"><ele>2298.0</ele><time>2026-05-04T14:52:37Z</time></trkpt><trkpt lat="31.47141077387409" lon="-6.225570880990781"><ele>2298.0</ele><time>2026-05-04T14:52:38Z</time></trkpt><trkpt lat="31.47139736871814" lon="-6.225399802560679"><ele>2298.4</ele><time>2026-05-04T14:52:39Z</time></trkpt><trkpt lat="31.471382812431635" lon="-6.2252607451207655"><ele>2298.8</ele><time>2026-05-04T14:52:40Z</time></trkpt><trkpt lat="31.471357421966648" lon="-6.225156541886778"><ele>2299.2</ele><time>2026-05-04T14:52:41Z</time></trkpt><trkpt lat="31.471304167142968" lon="-6.225056973097921"><ele>2299.6</ele><time>2026-05-04T14:52:42Z</time></trkpt><trkpt lat="31.47122020996326" lon="-6.224975517639801"><ele>2300.0</ele><time>2026-05-04T14:52:43Z</time></trkpt><trkpt lat="31.471112166958857" lon="-6.2249027896946485"><ele>2300.0</ele><time>2026-05-04T14:52:44Z</time></trkpt><trkpt lat="31.47098430342688" lon="-6.224819365312113"><ele>2300.0</ele><time>2026-05-04T14:52:45Z</time></trkpt><trkpt lat="31.47083714256613" lon="-6.224721887037398"><ele>2300.0</ele><time>2026-05-04T14:52:46Z</time></trkpt><trkpt lat="31.470712721792378" lon="-6.224606763984408"><ele>2299.25</ele><time>2026-05-04T14:52:47Z</time></trkpt><trkpt lat="31.47059751814191" lon="-6.224497991707077"><ele>2298.5</ele><time>2026-05-04T14:52:48Z</time></trkpt><trkpt lat="31.470486981430067" lon="-6.224358215082185"><ele>2297.75</ele><time>2026-05-04T14:52:49Z</time></trkpt><trkpt lat="31.470391584695882" lon="-6.224243042485217"><ele>2297.0</ele><time>2026-05-04T14:52:50Z</time></trkpt><trkpt lat="31.47029074476998" lon="-6.224127286147043"><ele>2289.25</ele><time>2026-05-04T14:52:51Z</time></trkpt><trkpt lat="31.470184178198664" lon="-6.223976303375955"><ele>2281.5</ele><time>2026-05-04T14:52:52Z</time></trkpt><trkpt lat="31.470107722682386" lon="-6.223821018299237"><ele>2273.75</ele><time>2026-05-04T14:52:53Z</time></trkpt><trkpt lat="31.47006027696138" lon="-6.223688660232983"><ele>2266.0</ele><time>2026-05-04T14:52:54Z</time></trkpt><trkpt lat="31.469963525424014" lon="-6.223584667013812"><ele>2266.0</ele><time>2026-05-04T14:52:55Z</time></trkpt><trkpt lat="31.469839888677967" lon="-6.223503295545822"><ele>2266.0</ele><time>2026-05-04T14:52:56Z</time></trkpt><trkpt lat="31.469703942322116" lon="-6.223419359498748"><ele>2266.0</ele><time>2026-05-04T14:52:57Z</time></trkpt><trkpt lat="31.469563093850056" lon="-6.223318205460859"><ele>2270.0</ele><time>2026-05-04T14:52:58Z</time></trkpt><trkpt lat="31.46943069036406" lon="-6.22321360344959"><ele>2274.0</ele><time>2026-05-04T14:52:59Z</time></trkpt><trkpt lat="31.469293632434002" lon="-6.223099693863606"><ele>2278.0</ele><time>2026-05-04T14:53:00Z</time></trkpt><trkpt lat="31.469158149206574" lon="-6.222986254651994"><ele>2269.666666666667</ele><time>2026-05-04T14:53:01Z</time></trkpt><trkpt lat="31.469019407925355" lon="-6.222868371945265"><ele>2261.3333333333335</ele><time>2026-05-04T14:53:02Z</time></trkpt><trkpt lat="31.468886072924832" lon="-6.222750083500457"><ele>2253.0</ele><time>2026-05-04T14:53:03Z</time></trkpt><trkpt lat="31.468746896997224" lon="-6.222633668625286"><ele>2253.0</ele><time>2026-05-04T14:53:04Z</time></trkpt><trkpt lat="31.46859221371687" lon="-6.222539598742515"><ele>2253.0</ele><time>2026-05-04T14:53:05Z</time></trkpt><trkpt lat="31.46843202852916" lon="-6.222450881795542"><ele>2253.0</ele><time>2026-05-04T14:53:06Z</time></trkpt><trkpt lat="31.4682690796906" lon="-6.222371979769594"><ele>2243.0</ele><time>2026-05-04T14:53:07Z</time></trkpt><trkpt lat="31.468105458054094" lon="-6.222306864707347"><ele>2233.0</ele><time>2026-05-04T14:53:08Z</time></trkpt><trkpt lat="31.46794127772607" lon="-6.2222588276322375"><ele>2223.0</ele><time>2026-05-04T14:53:09Z</time></trkpt><trkpt lat="31.467779384442753" lon="-6.222227879570935"><ele>2223.0</ele><time>2026-05-04T14:53:10Z</time></trkpt><trkpt lat="31.467620045806584" lon="-6.222202411437893"><ele>2223.0</ele><time>2026-05-04T14:53:11Z</time></trkpt><trkpt lat="31.467464046778943" lon="-6.222178067887386"><ele>2223.0</ele><time>2026-05-04T14:53:12Z</time></trkpt><trkpt lat="31.467314018466126" lon="-6.222151385442984"><ele>2223.0</ele><time>2026-05-04T14:53:13Z</time></trkpt><trkpt lat="31.467164055565426" lon="-6.2221135413883"><ele>2223.0</ele><time>2026-05-04T14:53:14Z</time></trkpt><trkpt lat="31.46701676581829" lon="-6.222071498191384"><ele>2223.0</ele><time>2026-05-04T14:53:15Z</time></trkpt><trkpt lat="31.466872995511434" lon="-6.222035979206728"><ele>2225.3333333333335</ele><time>2026-05-04T14:53:16Z</time></trkpt><trkpt lat="31.466730570863806" lon="-6.221995887636688"><ele>2227.666666666667</ele><time>2026-05-04T14:53:17Z</time></trkpt><trkpt lat="31.46658220832434" lon="-6.221955908527083"><ele>2230.0</ele><time>2026-05-04T14:53:18Z</time></trkpt><trkpt lat="31.466428320190243" lon="-6.221922216335492"><ele>2231.0</ele><time>2026-05-04T14:53:19Z</time></trkpt><trkpt lat="31.466271232629072" lon="-6.221896582631558"><ele>2232.0</ele><time>2026-05-04T14:53:20Z</time></trkpt><trkpt lat="31.4661186099011" lon="-6.221865075713848"><ele>2233.0</ele><time>2026-05-04T14:53:21Z</time></trkpt><trkpt lat="31.465974718919703" lon="-6.221818252044191"><ele>2233.0</ele><time>2026-05-04T14:53:22Z</time></trkpt><trkpt lat="31.465832364575817" lon="-6.221779682812258"><ele>2233.0</ele><time>2026-05-04T14:53:23Z</time></trkpt><trkpt lat="31.46569804536954" lon="-6.221729652346729"><ele>2233.0</ele><time>2026-05-04T14:53:24Z</time></trkpt><trkpt lat="31.465572136562074" lon="-6.221654275465738"><ele>2233.0</ele><time>2026-05-04T14:53:25Z</time></trkpt><trkpt lat="31.465468392514882" lon="-6.22157304869587"><ele>2231.25</ele><time>2026-05-04T14:53:26Z</time></trkpt><trkpt lat="31.46535298669862" lon="-6.2215317884990995"><ele>2229.5</ele><time>2026-05-04T14:53:27Z</time></trkpt><trkpt lat="31.465238763239064" lon="-6.221520502065881"><ele>2227.75</ele><time>2026-05-04T14:53:28Z</time></trkpt><trkpt lat="31.465129724994803" lon="-6.221518321868881"><ele>2226.0</ele><time>2026-05-04T14:53:29Z</time></trkpt><trkpt lat="31.465003933494962" lon="-6.221572323792688"><ele>2226.0</ele><time>2026-05-04T14:53:30Z</time></trkpt><trkpt lat="31.464903241034705" lon="-6.221653581107098"><ele>2226.0</ele><time>2026-05-04T14:53:31Z</time></trkpt><trkpt lat="31.464804971602327" lon="-6.221736632556007"><ele>2226.0</ele><time>2026-05-04T14:53:32Z</time></trkpt><trkpt lat="31.464751291049534" lon="-6.221865149057829"><ele>2226.0</ele><time>2026-05-04T14:53:33Z</time></trkpt><trkpt lat="31.46469393796573" lon="-6.221989957921725"><ele>2226.0</ele><time>2026-05-04T14:53:34Z</time></trkpt><trkpt lat="31.46465572253004" lon="-6.222116813786702"><ele>2226.0</ele><time>2026-05-04T14:53:35Z</time></trkpt><trkpt lat="31.46460647133058" lon="-6.222230045552191"><ele>2226.0</ele><time>2026-05-04T14:53:36Z</time></trkpt><trkpt lat="31.464556017348443" lon="-6.222357255807429"><ele>2226.0</ele><time>2026-05-04T14:53:37Z</time></trkpt><trkpt lat="31.46452290419559" lon="-6.222484111680892"><ele>2223.6666666666665</ele><time>2026-05-04T14:53:38Z</time></trkpt><trkpt lat="31.464490414473087" lon="-6.222593986687699"><ele>2221.3333333333335</ele><time>2026-05-04T14:53:39Z</time></trkpt><trkpt lat="31.464457536583534" lon="-6.222714766406307"><ele>2219.0</ele><time>2026-05-04T14:53:40Z</time></trkpt><trkpt lat="31.464442370947793" lon="-6.222828651003441"><ele>2216.666666666667</ele><time>2026-05-04T14:53:41Z</time></trkpt><trkpt lat="31.46442751744201" lon="-6.222914611338982"><ele>2214.3333333333335</ele><time>2026-05-04T14:53:42Z</time></trkpt><trkpt lat="31.46436671083711" lon="-6.222943675141245"><ele>2212.0</ele><time>2026-05-04T14:53:43Z</time></trkpt><trkpt lat="31.464191319002733" lon="-6.222832588094499"><ele>2212.0</ele><time>2026-05-04T14:53:46Z</time></trkpt><trkpt lat="31.464167417648202" lon="-6.2226955632973935"><ele>2212.0</ele><time>2026-05-04T14:53:47Z</time></trkpt><trkpt lat="31.464162327690445" lon="-6.222589522538716"><ele>2212.0</ele><time>2026-05-04T14:53:48Z</time></trkpt><trkpt lat="31.464157251318074" lon="-6.222480362805753"><ele>2212.0</ele><time>2026-05-04T14:53:49Z</time></trkpt><trkpt lat="31.46416640255498" lon="-6.222360237005265"><ele>2212.0</ele><time>2026-05-04T14:53:50Z</time></trkpt><trkpt lat="31.464169387748406" lon="-6.22224326853613"><ele>2210.0</ele><time>2026-05-04T14:53:51Z</time></trkpt><trkpt lat="31.464165355494842" lon="-6.222111212407574"><ele>2208.0</ele><time>2026-05-04T14:53:52Z</time></trkpt><trkpt lat="31.464163096137554" lon="-6.221980169841537"><ele>2206.0</ele><time>2026-05-04T14:53:53Z</time></trkpt><trkpt lat="31.464161143511323" lon="-6.221849638454179"><ele>2204.0</ele><time>2026-05-04T14:53:54Z</time></trkpt><trkpt lat="31.46416572788659" lon="-6.221706597416768"><ele>2204.0</ele><time>2026-05-04T14:53:55Z</time></trkpt><trkpt lat="31.464177700871087" lon="-6.221582513724323"><ele>2204.0</ele><time>2026-05-04T14:53:56Z</time></trkpt><trkpt lat="31.464188418420854" lon="-6.221469423473187"><ele>2204.0</ele><time>2026-05-04T14:53:57Z</time></trkpt><trkpt lat="31.46419685688532" lon="-6.221358168968514"><ele>2204.0</ele><time>2026-05-04T14:53:58Z</time></trkpt><trkpt lat="31.464203212032697" lon="-6.221260292867853"><ele>2204.0</ele><time>2026-05-04T14:53:59Z</time></trkpt><trkpt lat="31.46420803108977" lon="-6.221182409604453"><ele>2204.0</ele><time>2026-05-04T14:54:00Z</time></trkpt><trkpt lat="31.464214898521877" lon="-6.221083131856942"><ele>2202.5</ele><time>2026-05-04T14:54:02Z</time></trkpt><trkpt lat="31.464220089614383" lon="-6.22100808788038"><ele>2201.0</ele><time>2026-05-04T14:54:04Z</time></trkpt><trkpt lat="31.464258194006938" lon="-6.220923160877526"><ele>2199.5</ele><time>2026-05-04T14:54:06Z</time></trkpt><trkpt lat="31.464311412409906" lon="-6.220872502151844"><ele>2198.0</ele><time>2026-05-04T14:54:33Z</time></trkpt><trkpt lat="31.464360734384684" lon="-6.220919597220661"><ele>2196.5</ele><time>2026-05-04T14:55:21Z</time></trkpt><trkpt lat="31.464456923630276" lon="-6.2208765269364035"><ele>2195.0</ele><time>2026-05-04T14:57:29.999Z</time></trkpt><trkpt lat="31.46451980724698" lon="-6.220831985335045"><ele>2195.0</ele><time>2026-05-04T14:57:30.999Z</time></trkpt><trkpt lat="31.464585609797492" lon="-6.220768626750147"><ele>2195.0</ele><time>2026-05-04T14:57:31.999Z</time></trkpt><trkpt lat="31.464606364466515" lon="-6.220640736556208"><ele>2195.0</ele><time>2026-05-04T14:57:32.999Z</time></trkpt><trkpt lat="31.464703858067235" lon="-6.220635570064089"><ele>2195.0</ele><time>2026-05-04T14:57:33.999Z</time></trkpt><trkpt lat="31.46473958188823" lon="-6.220551996561889"><ele>2195.0</ele><time>2026-05-04T14:57:34.999Z</time></trkpt><trkpt lat="31.46476173576957" lon="-6.220456590648734"><ele>2195.2</ele><time>2026-05-04T14:57:35.999Z</time></trkpt><trkpt lat="31.464783001319983" lon="-6.220358580921924"><ele>2195.4</ele><time>2026-05-04T14:57:36.999Z</time></trkpt><trkpt lat="31.46481652668473" lon="-6.220268603836922"><ele>2195.6</ele><time>2026-05-04T14:57:37.999Z</time></trkpt><trkpt lat="31.464862954492887" lon="-6.220196079315673"><ele>2195.8</ele><time>2026-05-04T14:57:38.999Z</time></trkpt><trkpt lat="31.464872622111073" lon="-6.220069620085325"><ele>2196.0</ele><time>2026-05-04T14:57:39.999Z</time></trkpt><trkpt lat="31.464964923292985" lon="-6.220030390603877"><ele>2196.0</ele><time>2026-05-04T14:57:40.999Z</time></trkpt><trkpt lat="31.465054590303627" lon="-6.220011462905725"><ele>2196.0</ele><time>2026-05-04T14:57:41.999Z</time></trkpt><trkpt lat="31.465123363938567" lon="-6.2199813472907985"><ele>2196.0</ele><time>2026-05-04T14:57:42.999Z</time></trkpt><trkpt lat="31.465225344080665" lon="-6.219897637664768"><ele>2196.0</ele><time>2026-05-04T14:57:44.999Z</time></trkpt><trkpt lat="31.465287058221996" lon="-6.219839972442969"><ele>2196.0</ele><time>2026-05-04T14:57:45.999Z</time></trkpt><trkpt lat="31.465315480444016" lon="-6.219750390899954"><ele>2196.0</ele><time>2026-05-04T14:57:46.999Z</time></trkpt><trkpt lat="31.465377068160123" lon="-6.219654738251908"><ele>2193.5</ele><time>2026-05-04T14:57:47.999Z</time></trkpt><trkpt lat="31.46544303738405" lon="-6.219566961079555"><ele>2191.0</ele><time>2026-05-04T14:57:48.999Z</time></trkpt><trkpt lat="31.465511439811504" lon="-6.219483490226175"><ele>2188.5</ele><time>2026-05-04T14:57:49.999Z</time></trkpt><trkpt lat="31.465559201877124" lon="-6.219427729018414"><ele>2186.0</ele><time>2026-05-04T14:57:50.999Z</time></trkpt><trkpt lat="31.465609993891466" lon="-6.219358896213091"><ele>2183.5</ele><time>2026-05-04T14:57:51.999Z</time></trkpt><trkpt lat="31.465640391589048" lon="-6.219244221702"><ele>2181.0</ele><time>2026-05-04T14:57:53.999Z</time></trkpt><trkpt lat="31.465596600447572" lon="-6.219150004769446"><ele>2181.0</ele><time>2026-05-04T14:57:55.999Z</time></trkpt><trkpt lat="31.465538567951413" lon="-6.219108602686066"><ele>2181.0</ele><time>2026-05-04T14:57:56.999Z</time></trkpt><trkpt lat="31.465463062245338" lon="-6.21911390487096"><ele>2181.0</ele><time>2026-05-04T14:57:57.999Z</time></trkpt><trkpt lat="31.465369496858287" lon="-6.219176901722731"><ele>2181.0</ele><time>2026-05-04T14:57:58.999Z</time></trkpt><trkpt lat="31.465272354418193" lon="-6.219251285296458"><ele>2181.0</ele><time>2026-05-04T14:57:59.999Z</time></trkpt><trkpt lat="31.465184272007473" lon="-6.219311564521341"><ele>2181.0</ele><time>2026-05-04T14:58:00.999Z</time></trkpt><trkpt lat="31.465102043870992" lon="-6.219368922525919"><ele>2181.0</ele><time>2026-05-04T14:58:01.999Z</time></trkpt><trkpt lat="31.46501772535436" lon="-6.2194148975946995"><ele>2181.0</ele><time>2026-05-04T14:58:02.999Z</time></trkpt><trkpt lat="31.46493496454777" lon="-6.219464900851389"><ele>2181.0</ele><time>2026-05-04T14:58:03.999Z</time></trkpt><trkpt lat="31.464859185838556" lon="-6.219504521316198"><ele>2181.0</ele><time>2026-05-04T14:58:04.999Z</time></trkpt><trkpt lat="31.464779209172836" lon="-6.219533798403178"><ele>2181.0</ele><time>2026-05-04T14:58:05.999Z</time></trkpt><trkpt lat="31.464704737701194" lon="-6.2195591127566745"><ele>2177.8</ele><time>2026-05-04T14:58:06.999Z</time></trkpt><trkpt lat="31.46458236220051" lon="-6.219538014081574"><ele>2174.6</ele><time>2026-05-04T14:58:08.999Z</time></trkpt><trkpt lat="31.46452185941504" lon="-6.219511370090754"><ele>2171.4</ele><time>2026-05-04T14:58:09.999Z</time></trkpt><trkpt lat="31.464478845450454" lon="-6.219430827444544"><ele>2168.2</ele><time>2026-05-04T14:58:10.999Z</time></trkpt><trkpt lat="31.4645054486293" lon="-6.219263058117182"><ele>2165.0</ele><time>2026-05-04T14:58:11.999Z</time></trkpt><trkpt lat="31.464571364795773" lon="-6.219128031468929"><ele>2165.0</ele><time>2026-05-04T14:58:12.999Z</time></trkpt><trkpt lat="31.464649933601965" lon="-6.219016043396065"><ele>2165.0</ele><time>2026-05-04T14:58:13.999Z</time></trkpt><trkpt lat="31.464733646962088" lon="-6.218900874449768"><ele>2165.0</ele><time>2026-05-04T14:58:14.999Z</time></trkpt><trkpt lat="31.464815671656414" lon="-6.218798224795981"><ele>2165.0</ele><time>2026-05-04T14:58:15.999Z</time></trkpt><trkpt lat="31.464907643682988" lon="-6.218678948253156"><ele>2165.0</ele><time>2026-05-04T14:58:16.999Z</time></trkpt><trkpt lat="31.464970121570342" lon="-6.218595283563223"><ele>2165.0</ele><time>2026-05-04T14:58:17.999Z</time></trkpt><trkpt lat="31.465019301379208" lon="-6.21851821359409"><ele>2165.0</ele><time>2026-05-04T14:58:18.999Z</time></trkpt><trkpt lat="31.465064192551505" lon="-6.218446772387169"><ele>2165.0</ele><time>2026-05-04T14:58:19.999Z</time></trkpt><trkpt lat="31.465050390171648" lon="-6.218352386725522"><ele>2165.0</ele><time>2026-05-04T14:58:21.999Z</time></trkpt><trkpt lat="31.464999012942197" lon="-6.218287544555542"><ele>2165.0</ele><time>2026-05-04T14:58:23.999Z</time></trkpt><trkpt lat="31.46491745044033" lon="-6.218310756626594"><ele>2165.0</ele><time>2026-05-04T14:58:24.999Z</time></trkpt><trkpt lat="31.464836794672404" lon="-6.218382296858446"><ele>2165.0</ele><time>2026-05-04T14:58:25.999Z</time></trkpt><trkpt lat="31.46476531531002" lon="-6.2184772586060975"><ele>2165.0</ele><time>2026-05-04T14:58:26.999Z</time></trkpt><trkpt lat="31.464711076219757" lon="-6.218563394028498"><ele>2165.0</ele><time>2026-05-04T14:58:27.999Z</time></trkpt><trkpt lat="31.464657003510563" lon="-6.218639363359414"><ele>2165.0</ele><time>2026-05-04T14:58:28.999Z</time></trkpt><trkpt lat="31.46459324283223" lon="-6.218710075694232"><ele>2162.6</ele><time>2026-05-04T14:58:29.999Z</time></trkpt><trkpt lat="31.464513478581477" lon="-6.2187652013841115"><ele>2160.2</ele><time>2026-05-04T14:58:30.999Z</time></trkpt><trkpt lat="31.464420819400722" lon="-6.218801556042086"><ele>2157.8</ele><time>2026-05-04T14:58:31.999Z</time></trkpt><trkpt lat="31.4643264281274" lon="-6.218810580141079"><ele>2155.4</ele><time>2026-05-04T14:58:32.999Z</time></trkpt><trkpt lat="31.464233850400436" lon="-6.218819275844207"><ele>2153.0</ele><time>2026-05-04T14:58:33.999Z</time></trkpt><trkpt lat="31.464144380531536" lon="-6.218822062149581"><ele>2153.0</ele><time>2026-05-04T14:58:34.999Z</time></trkpt><trkpt lat="31.46405788172334" lon="-6.218811525299123"><ele>2153.0</ele><time>2026-05-04T14:58:35.999Z</time></trkpt><trkpt lat="31.46397453121548" lon="-6.2188047540749185"><ele>2153.0</ele><time>2026-05-04T14:58:36.999Z</time></trkpt><trkpt lat="31.463879025437148" lon="-6.218767248207703"><ele>2153.0</ele><time>2026-05-04T14:58:37.999Z</time></trkpt><trkpt lat="31.463801489630217" lon="-6.2186869258300375"><ele>2153.0</ele><time>2026-05-04T14:58:38.999Z</time></trkpt><trkpt lat="31.463747478170788" lon="-6.218585829560786"><ele>2153.0</ele><time>2026-05-04T14:58:39.999Z</time></trkpt><trkpt lat="31.463722325897866" lon="-6.218481502917531"><ele>2153.0</ele><time>2026-05-04T14:58:40.999Z</time></trkpt><trkpt lat="31.46374698037843" lon="-6.2183156343640835"><ele>2153.0</ele><time>2026-05-04T14:58:41.999Z</time></trkpt><trkpt lat="31.463838544521654" lon="-6.218178577547707"><ele>2153.0</ele><time>2026-05-04T14:58:42.999Z</time></trkpt><trkpt lat="31.464044837251592" lon="-6.218164290293445"><ele>2149.2000000000003</ele><time>2026-05-04T14:58:43.999Z</time></trkpt><trkpt lat="31.464153073556158" lon="-6.218144130547868"><ele>2145.4</ele><time>2026-05-04T14:58:44.999Z</time></trkpt><trkpt lat="31.464258662156272" lon="-6.218116115055413"><ele>2141.6000000000004</ele><time>2026-05-04T14:58:45.999Z</time></trkpt><trkpt lat="31.464326568162647" lon="-6.218051793044721"><ele>2137.8</ele><time>2026-05-04T14:58:46.999Z</time></trkpt><trkpt lat="31.464376362144105" lon="-6.2179772128996"><ele>2134.0</ele><time>2026-05-04T14:58:47.999Z</time></trkpt><trkpt lat="31.464411211565405" lon="-6.217878820846344"><ele>2134.0</ele><time>2026-05-04T14:58:48.999Z</time></trkpt><trkpt lat="31.464474077821077" lon="-6.2177670535415"><ele>2134.0</ele><time>2026-05-04T14:58:49.999Z</time></trkpt><trkpt lat="31.464533165372128" lon="-6.217662004260118"><ele>2134.0</ele><time>2026-05-04T14:58:50.999Z</time></trkpt><trkpt lat="31.464582651054087" lon="-6.2175621997980475"><ele>2134.0</ele><time>2026-05-04T14:58:51.999Z</time></trkpt><trkpt lat="31.46463438863317" lon="-6.2174599541688504"><ele>2134.0</ele><time>2026-05-04T14:58:52.999Z</time></trkpt><trkpt lat="31.464680830947117" lon="-6.217360677742011"><ele>2129.666666666667</ele><time>2026-05-04T14:58:53.999Z</time></trkpt><trkpt lat="31.46472659963514" lon="-6.217275406384878"><ele>2125.3333333333335</ele><time>2026-05-04T14:58:54.999Z</time></trkpt><trkpt lat="31.4647668197494" lon="-6.217200472560191"><ele>2121.0</ele><time>2026-05-04T14:58:55.999Z</time></trkpt><trkpt lat="31.464765333605555" lon="-6.21712124740119"><ele>2116.6666666666665</ele><time>2026-05-04T14:58:58.999Z</time></trkpt><trkpt lat="31.464664371582533" lon="-6.217079945050679"><ele>2112.333333333333</ele><time>2026-05-04T14:59:00.999Z</time></trkpt><trkpt lat="31.464573552813405" lon="-6.217135661638377"><ele>2108.0</ele><time>2026-05-04T14:59:01.999Z</time></trkpt><trkpt lat="31.464473240616467" lon="-6.217192993230845"><ele>2108.0</ele><time>2026-05-04T14:59:02.999Z</time></trkpt><trkpt lat="31.46436203005752" lon="-6.217252295287352"><ele>2108.0</ele><time>2026-05-04T14:59:03.999Z</time></trkpt><trkpt lat="31.46425272039155" lon="-6.217311737366012"><ele>2108.0</ele><time>2026-05-04T14:59:04.999Z</time></trkpt><trkpt lat="31.464149186184017" lon="-6.217376282449036"><ele>2108.0</ele><time>2026-05-04T14:59:05.999Z</time></trkpt><trkpt lat="31.46403974647227" lon="-6.217420785481035"><ele>2110.75</ele><time>2026-05-04T14:59:06.999Z</time></trkpt><trkpt lat="31.463921266018563" lon="-6.217427224249363"><ele>2113.5</ele><time>2026-05-04T14:59:07.999Z</time></trkpt><trkpt lat="31.463806931135963" lon="-6.217405717186082"><ele>2116.25</ele><time>2026-05-04T14:59:08.999Z</time></trkpt><trkpt lat="31.463692603886315" lon="-6.21738171849482"><ele>2119.0</ele><time>2026-05-04T14:59:09.999Z</time></trkpt><trkpt lat="31.463580386038004" lon="-6.217389285991752"><ele>2119.0</ele><time>2026-05-04T14:59:10.999Z</time></trkpt><trkpt lat="31.463473576168028" lon="-6.217439212087275"><ele>2119.0</ele><time>2026-05-04T14:59:11.999Z</time></trkpt><trkpt lat="31.463375671169732" lon="-6.217521823239949"><ele>2119.0</ele><time>2026-05-04T14:59:12.999Z</time></trkpt><trkpt lat="31.463282590496487" lon="-6.2176260955953175"><ele>2119.0</ele><time>2026-05-04T14:59:13.999Z</time></trkpt><trkpt lat="31.463193305748682" lon="-6.217728875600898"><ele>2119.0</ele><time>2026-05-04T14:59:14.999Z</time></trkpt><trkpt lat="31.46310338043794" lon="-6.217820335141716"><ele>2119.0</ele><time>2026-05-04T14:59:15.999Z</time></trkpt><trkpt lat="31.463019840983886" lon="-6.217916630543131"><ele>2119.0</ele><time>2026-05-04T14:59:16.999Z</time></trkpt><trkpt lat="31.462942210966784" lon="-6.218025454010325"><ele>2119.0</ele><time>2026-05-04T14:59:17.999Z</time></trkpt><trkpt lat="31.462913952495494" lon="-6.218168006783034"><ele>2115.2</ele><time>2026-05-04T14:59:18.999Z</time></trkpt><trkpt lat="31.46289570294759" lon="-6.218297243200685"><ele>2111.4</ele><time>2026-05-04T14:59:19.999Z</time></trkpt><trkpt lat="31.462878809954304" lon="-6.218424276204769"><ele>2107.6</ele><time>2026-05-04T14:59:20.999Z</time></trkpt><trkpt lat="31.462852444655013" lon="-6.218541931073873"><ele>2103.8</ele><time>2026-05-04T14:59:21.999Z</time></trkpt><trkpt lat="31.462776911212433" lon="-6.218649996394201"><ele>2100.0</ele><time>2026-05-04T14:59:22.999Z</time></trkpt><trkpt lat="31.462679273467142" lon="-6.218739207814291"><ele>2100.0</ele><time>2026-05-04T14:59:23.999Z</time></trkpt><trkpt lat="31.46256325170928" lon="-6.218805900631445"><ele>2100.0</ele><time>2026-05-04T14:59:24.999Z</time></trkpt><trkpt lat="31.462442665321408" lon="-6.218861127100006"><ele>2100.0</ele><time>2026-05-04T14:59:25.999Z</time></trkpt><trkpt lat="31.462320723670587" lon="-6.218919671334853"><ele>2100.0</ele><time>2026-05-04T14:59:26.999Z</time></trkpt><trkpt lat="31.46219561129544" lon="-6.218976639332874"><ele>2100.5</ele><time>2026-05-04T14:59:27.999Z</time></trkpt><trkpt lat="31.46207143283914" lon="-6.219034945788497"><ele>2101.0</ele><time>2026-05-04T14:59:28.999Z</time></trkpt><trkpt lat="31.461963776789283" lon="-6.219109063410452"><ele>2101.5</ele><time>2026-05-04T14:59:29.999Z</time></trkpt><trkpt lat="31.46187324880585" lon="-6.219200479188015"><ele>2102.0</ele><time>2026-05-04T14:59:30.999Z</time></trkpt><trkpt lat="31.461808110036557" lon="-6.219309403925688"><ele>2102.0</ele><time>2026-05-04T14:59:31.999Z</time></trkpt><trkpt lat="31.461752216248676" lon="-6.219419656075114"><ele>2102.0</ele><time>2026-05-04T14:59:32.999Z</time></trkpt><trkpt lat="31.461692160262928" lon="-6.219504682179376"><ele>2102.0</ele><time>2026-05-04T14:59:33.999Z</time></trkpt><trkpt lat="31.4615976792917" lon="-6.2195432120656164"><ele>2102.0</ele><time>2026-05-04T14:59:34.999Z</time></trkpt><trkpt lat="31.461483671284768" lon="-6.2195472888055425"><ele>2102.0</ele><time>2026-05-04T14:59:35.999Z</time></trkpt><trkpt lat="31.46135948516264" lon="-6.21953102496225"><ele>2098.5</ele><time>2026-05-04T14:59:36.999Z</time></trkpt><trkpt lat="31.46122679618314" lon="-6.219492918224544"><ele>2095.0</ele><time>2026-05-04T14:59:37.999Z</time></trkpt><trkpt lat="31.46108590738719" lon="-6.219458155961544"><ele>2091.5</ele><time>2026-05-04T14:59:38.999Z</time></trkpt><trkpt lat="31.46094259468337" lon="-6.219380780890776"><ele>2088.0</ele><time>2026-05-04T14:59:39.999Z</time></trkpt><trkpt lat="31.460809450710787" lon="-6.219292311990943"><ele>2088.0</ele><time>2026-05-04T14:59:40.999Z</time></trkpt><trkpt lat="31.46068128246589" lon="-6.219213481924967"><ele>2088.0</ele><time>2026-05-04T14:59:41.999Z</time></trkpt><trkpt lat="31.460565211224058" lon="-6.219138924582705"><ele>2088.0</ele><time>2026-05-04T14:59:42.999Z</time></trkpt><trkpt lat="31.46045052875077" lon="-6.219084231812814"><ele>2088.0</ele><time>2026-05-04T14:59:43.999Z</time></trkpt><trkpt lat="31.460339055517455" lon="-6.219026084013925"><ele>2088.25</ele><time>2026-05-04T14:59:44.999Z</time></trkpt><trkpt lat="31.460236839620816" lon="-6.218959734993028"><ele>2088.5</ele><time>2026-05-04T14:59:45.999Z</time></trkpt><trkpt lat="31.460123714897136" lon="-6.218841359892684"><ele>2088.75</ele><time>2026-05-04T14:59:46.999Z</time></trkpt><trkpt lat="31.46005024287296" lon="-6.218695854364108"><ele>2089.0</ele><time>2026-05-04T14:59:47.999Z</time></trkpt><trkpt lat="31.459987592099555" lon="-6.218541901728049"><ele>2089.0</ele><time>2026-05-04T14:59:49Z</time></trkpt><trkpt lat="31.45993800678129" lon="-6.218355241541342"><ele>2089.0</ele><time>2026-05-04T14:59:50Z</time></trkpt><trkpt lat="31.4599109304541" lon="-6.2181674756315735"><ele>2089.0</ele><time>2026-05-04T14:59:51Z</time></trkpt><trkpt lat="31.459892237661222" lon="-6.218004442919118"><ele>2089.25</ele><time>2026-05-04T14:59:52Z</time></trkpt><trkpt lat="31.45986275941505" lon="-6.217826288150233"><ele>2089.5</ele><time>2026-05-04T14:59:53Z</time></trkpt><trkpt lat="31.459847796061936" lon="-6.217663115690853"><ele>2089.75</ele><time>2026-05-04T14:59:54Z</time></trkpt><trkpt lat="31.459852717612605" lon="-6.2174903180258685"><ele>2090.0</ele><time>2026-05-04T14:59:55Z</time></trkpt><trkpt lat="31.45991277153206" lon="-6.217324945488571"><ele>2088.0</ele><time>2026-05-04T14:59:56Z</time></trkpt><trkpt lat="31.459939806852287" lon="-6.217199235771732"><ele>2086.0</ele><time>2026-05-04T14:59:57Z</time></trkpt><trkpt lat="31.459962908810496" lon="-6.217091815540354"><ele>2084.0</ele><time>2026-05-04T14:59:58Z</time></trkpt><trkpt lat="31.4599476092725" lon="-6.216969606505748"><ele>2082.0</ele><time>2026-05-04T15:00:00Z</time></trkpt><trkpt lat="31.459868500803342" lon="-6.216880669867337"><ele>2080.0</ele><time>2026-05-04T15:00:02Z</time></trkpt><trkpt lat="31.45979185277157" lon="-6.216890450472953"><ele>2080.0</ele><time>2026-05-04T15:00:03Z</time></trkpt><trkpt lat="31.45968038901267" lon="-6.216891958269823"><ele>2080.0</ele><time>2026-05-04T15:00:04Z</time></trkpt><trkpt lat="31.45954720180389" lon="-6.216893106354989"><ele>2080.0</ele><time>2026-05-04T15:00:05Z</time></trkpt><trkpt lat="31.459425332475007" lon="-6.216911710568495"><ele>2080.0</ele><time>2026-05-04T15:00:06Z</time></trkpt><trkpt lat="31.459308524093228" lon="-6.216924148912576"><ele>2080.6</ele><time>2026-05-04T15:00:07Z</time></trkpt><trkpt lat="31.45919456212885" lon="-6.216930005012384"><ele>2081.2</ele><time>2026-05-04T15:00:08Z</time></trkpt><trkpt lat="31.45908691028526" lon="-6.216918652914556"><ele>2081.8</ele><time>2026-05-04T15:00:09Z</time></trkpt><trkpt lat="31.458994355289665" lon="-6.216912011739152"><ele>2082.4</ele><time>2026-05-04T15:00:10Z</time></trkpt><trkpt lat="31.458894199481602" lon="-6.216847499951193"><ele>2083.0</ele><time>2026-05-04T15:00:11Z</time></trkpt><trkpt lat="31.45881261310226" lon="-6.216754007828105"><ele>2083.2000000000003</ele><time>2026-05-04T15:00:12Z</time></trkpt><trkpt lat="31.458758526376272" lon="-6.216656516499313"><ele>2083.4</ele><time>2026-05-04T15:00:13Z</time></trkpt><trkpt lat="31.45871378987534" lon="-6.216573407403927"><ele>2083.6000000000004</ele><time>2026-05-04T15:00:14Z</time></trkpt><trkpt lat="31.45865930593294" lon="-6.216500566374621"><ele>2083.8</ele><time>2026-05-04T15:00:15Z</time></trkpt><trkpt lat="31.45858550891181" lon="-6.21643723493854"><ele>2084.0</ele><time>2026-05-04T15:00:16Z</time></trkpt><trkpt lat="31.458486684271104" lon="-6.216401954172067"><ele>2084.0</ele><time>2026-05-04T15:00:17Z</time></trkpt><trkpt lat="31.458378451689764" lon="-6.216404972985982"><ele>2084.0</ele><time>2026-05-04T15:00:18Z</time></trkpt><trkpt lat="31.458259080058156" lon="-6.216418202429087"><ele>2084.0</ele><time>2026-05-04T15:00:19Z</time></trkpt><trkpt lat="31.458142561277626" lon="-6.2164219462294295"><ele>2084.0</ele><time>2026-05-04T15:00:20Z</time></trkpt><trkpt lat="31.458023416753694" lon="-6.216423288450147"><ele>2077.0</ele><time>2026-05-04T15:00:21Z</time></trkpt><trkpt lat="31.45789717519021" lon="-6.216445327592393"><ele>2070.0</ele><time>2026-05-04T15:00:22Z</time></trkpt><trkpt lat="31.457773239807995" lon="-6.216403976677864"><ele>2063.0</ele><time>2026-05-04T15:00:23Z</time></trkpt><trkpt lat="31.45764953065614" lon="-6.216338129657205"><ele>2056.0</ele><time>2026-05-04T15:00:24Z</time></trkpt><trkpt lat="31.457545985992965" lon="-6.216270517615053"><ele>2056.0</ele><time>2026-05-04T15:00:25Z</time></trkpt><trkpt lat="31.457451464737055" lon="-6.216190545272099"><ele>2056.0</ele><time>2026-05-04T15:00:26Z</time></trkpt><trkpt lat="31.457384522229212" lon="-6.216118874009793"><ele>2056.0</ele><time>2026-05-04T15:00:27Z</time></trkpt><trkpt lat="31.45731562021543" lon="-6.216013215284538"><ele>2056.0</ele><time>2026-05-04T15:00:28Z</time></trkpt><trkpt lat="31.45729637768742" lon="-6.2158494202012555"><ele>2056.0</ele><time>2026-05-04T15:00:29Z</time></trkpt><trkpt lat="31.45732838921707" lon="-6.215680626978411"><ele>2056.0</ele><time>2026-05-04T15:00:30Z</time></trkpt><trkpt lat="31.457375314899338" lon="-6.215515667332763"><ele>2056.0</ele><time>2026-05-04T15:00:31Z</time></trkpt><trkpt lat="31.457417727949338" lon="-6.215380410920517"><ele>2056.0</ele><time>2026-05-04T15:00:32Z</time></trkpt><trkpt lat="31.457476890871792" lon="-6.2152550648717835"><ele>2054.4</ele><time>2026-05-04T15:00:33Z</time></trkpt><trkpt lat="31.457520260890707" lon="-6.215129375960272"><ele>2052.8</ele><time>2026-05-04T15:00:34Z</time></trkpt><trkpt lat="31.4575242366358" lon="-6.215027559445047"><ele>2051.2000000000003</ele><time>2026-05-04T15:00:35Z</time></trkpt><trkpt lat="31.45751797342068" lon="-6.214908982125636"><ele>2049.6</ele><time>2026-05-04T15:00:36Z</time></trkpt><trkpt lat="31.457486673712562" lon="-6.214805147744445"><ele>2048.0</ele><time>2026-05-04T15:00:37Z</time></trkpt><trkpt lat="31.45745128470809" lon="-6.214680431839266"><ele>2045.5</ele><time>2026-05-04T15:00:38Z</time></trkpt><trkpt lat="31.457411639869704" lon="-6.214550704451404"><ele>2043.0</ele><time>2026-05-04T15:00:39Z</time></trkpt><trkpt lat="31.457371275562085" lon="-6.214416849715575"><ele>2040.5</ele><time>2026-05-04T15:00:40Z</time></trkpt><trkpt lat="31.457337079618487" lon="-6.214255525397482"><ele>2038.0</ele><time>2026-05-04T15:00:41Z</time></trkpt><trkpt lat="31.457324355171085" lon="-6.214106048524243"><ele>2035.0</ele><time>2026-05-04T15:00:42Z</time></trkpt><trkpt lat="31.457319520227728" lon="-6.213953210161053"><ele>2032.0</ele><time>2026-05-04T15:00:43Z</time></trkpt><trkpt lat="31.457346148119925" lon="-6.213778588203446"><ele>2029.0</ele><time>2026-05-04T15:00:44Z</time></trkpt><trkpt lat="31.457387370424122" lon="-6.213643889033674"><ele>2026.0</ele><time>2026-05-04T15:00:45Z</time></trkpt><trkpt lat="31.457435556192888" lon="-6.213496580557237"><ele>2026.0</ele><time>2026-05-04T15:00:46Z</time></trkpt><trkpt lat="31.457492932589012" lon="-6.213348947815431"><ele>2026.0</ele><time>2026-05-04T15:00:47Z</time></trkpt><trkpt lat="31.457548539354278" lon="-6.213204561475989"><ele>2026.0</ele><time>2026-05-04T15:00:48Z</time></trkpt><trkpt lat="31.457612927063757" lon="-6.213045499004214"><ele>2026.0</ele><time>2026-05-04T15:00:49Z</time></trkpt><trkpt lat="31.45767376901757" lon="-6.212900423763743"><ele>2023.1999999999998</ele><time>2026-05-04T15:00:50Z</time></trkpt><trkpt lat="31.45773665836215" lon="-6.212759678745987"><ele>2020.3999999999999</ele><time>2026-05-04T15:00:51Z</time></trkpt><trkpt lat="31.457774153978864" lon="-6.212640495100872"><ele>2017.6</ele><time>2026-05-04T15:00:52Z</time></trkpt><trkpt lat="31.45780790296931" lon="-6.21252317691839"><ele>2014.8</ele><time>2026-05-04T15:00:53Z</time></trkpt><trkpt lat="31.457827686178124" lon="-6.212417659196643"><ele>2012.0</ele><time>2026-05-04T15:00:54Z</time></trkpt><trkpt lat="31.457825220182663" lon="-6.212245073140713"><ele>2012.0</ele><time>2026-05-04T15:00:56Z</time></trkpt><trkpt lat="31.457819989460344" lon="-6.212170810374387"><ele>2011.9999999999998</ele><time>2026-05-04T15:00:57Z</time></trkpt><trkpt lat="31.457783807221187" lon="-6.212089383823615"><ele>2011.9999999999998</ele><time>2026-05-04T15:00:59Z</time></trkpt><trkpt lat="31.457695024755704" lon="-6.212133604351678"><ele>2012.0</ele><time>2026-05-04T15:01:00Z</time></trkpt><trkpt lat="31.4575912943609" lon="-6.212194879681016"><ele>2012.0</ele><time>2026-05-04T15:01:01Z</time></trkpt><trkpt lat="31.457530558507685" lon="-6.212338190894852"><ele>2012.0</ele><time>2026-05-04T15:01:02Z</time></trkpt><trkpt lat="31.457507898865845" lon="-6.212504332817301"><ele>2012.0</ele><time>2026-05-04T15:01:03Z</time></trkpt><trkpt lat="31.457459589919825" lon="-6.212658601342546"><ele>2012.0</ele><time>2026-05-04T15:01:04Z</time></trkpt><trkpt lat="31.457407304263885" lon="-6.21279939682931"><ele>2012.0</ele><time>2026-05-04T15:01:05Z</time></trkpt><trkpt lat="31.45734828794247" lon="-6.212933227615305"><ele>2012.0</ele><time>2026-05-04T15:01:06Z</time></trkpt><trkpt lat="31.45728684534587" lon="-6.213052322180668"><ele>2012.0</ele><time>2026-05-04T15:01:07Z</time></trkpt><trkpt lat="31.457234126609002" lon="-6.213191175580683"><ele>2012.0</ele><time>2026-05-04T15:01:08Z</time></trkpt><trkpt lat="31.457158970151184" lon="-6.213318655077394"><ele>2012.0</ele><time>2026-05-04T15:01:09Z</time></trkpt><trkpt lat="31.457092660089774" lon="-6.213436452712404"><ele>2008.25</ele><time>2026-05-04T15:01:10Z</time></trkpt><trkpt lat="31.457029214897634" lon="-6.213555239488591"><ele>2004.5</ele><time>2026-05-04T15:01:11Z</time></trkpt><trkpt lat="31.456946261893897" lon="-6.213676878902774"><ele>2000.75</ele><time>2026-05-04T15:01:12Z</time></trkpt><trkpt lat="31.456860580700116" lon="-6.21379207364768"><ele>1997.0</ele><time>2026-05-04T15:01:13Z</time></trkpt><trkpt lat="31.456777835798448" lon="-6.213897843680125"><ele>1999.5</ele><time>2026-05-04T15:01:14Z</time></trkpt><trkpt lat="31.45668795149174" lon="-6.214004308520216"><ele>2002.0</ele><time>2026-05-04T15:01:15Z</time></trkpt><trkpt lat="31.456599956829518" lon="-6.2141149828076285"><ele>2004.5</ele><time>2026-05-04T15:01:16Z</time></trkpt><trkpt lat="31.456536639327908" lon="-6.2142351586316735"><ele>2007.0</ele><time>2026-05-04T15:01:17Z</time></trkpt><trkpt lat="31.456492222377626" lon="-6.21437434356286"><ele>2007.0</ele><time>2026-05-04T15:01:18Z</time></trkpt><trkpt lat="31.456461525370425" lon="-6.214520691020222"><ele>2006.9999999999998</ele><time>2026-05-04T15:01:19Z</time></trkpt><trkpt lat="31.45643028770261" lon="-6.214651575365542"><ele>2006.9999999999998</ele><time>2026-05-04T15:01:20Z</time></trkpt><trkpt lat="31.456384564257025" lon="-6.214764363302912"><ele>2007.0</ele><time>2026-05-04T15:01:21Z</time></trkpt><trkpt lat="31.456330979712074" lon="-6.214850521505906"><ele>2007.0</ele><time>2026-05-04T15:01:22Z</time></trkpt><trkpt lat="31.456261780426697" lon="-6.21491540953707"><ele>2003.3333333333333</ele><time>2026-05-04T15:01:23Z</time></trkpt><trkpt lat="31.45618085211901" lon="-6.214948093061213"><ele>1999.6666666666665</ele><time>2026-05-04T15:01:24Z</time></trkpt><trkpt lat="31.456095009009648" lon="-6.214933900650371"><ele>1996.0</ele><time>2026-05-04T15:01:25Z</time></trkpt><trkpt lat="31.45601937459808" lon="-6.214881593112842"><ele>1992.3333333333333</ele><time>2026-05-04T15:01:26Z</time></trkpt><trkpt lat="31.455965632920243" lon="-6.214811725059113"><ele>1988.6666666666665</ele><time>2026-05-04T15:01:27Z</time></trkpt><trkpt lat="31.455899967706305" lon="-6.214721427951772"><ele>1985.0</ele><time>2026-05-04T15:01:28Z</time></trkpt><trkpt lat="31.455889483416982" lon="-6.214544411028577"><ele>1982.0</ele><time>2026-05-04T15:01:29Z</time></trkpt><trkpt lat="31.455964573483225" lon="-6.214370163430622"><ele>1979.0</ele><time>2026-05-04T15:01:30Z</time></trkpt><trkpt lat="31.45602323424175" lon="-6.214248000969793"><ele>1976.0</ele><time>2026-05-04T15:01:31Z</time></trkpt><trkpt lat="31.456089192087376" lon="-6.214131782007852"><ele>1973.0</ele><time>2026-05-04T15:01:32Z</time></trkpt><trkpt lat="31.4561303071663" lon="-6.214008366796608"><ele>1971.2</ele><time>2026-05-04T15:01:33Z</time></trkpt><trkpt lat="31.45613965650356" lon="-6.21390606776159"><ele>1969.4</ele><time>2026-05-04T15:01:34Z</time></trkpt><trkpt lat="31.45612666742668" lon="-6.213796806101825"><ele>1967.6000000000001</ele><time>2026-05-04T15:01:35Z</time></trkpt><trkpt lat="31.45611224980126" lon="-6.21367093349396"><ele>1965.8000000000002</ele><time>2026-05-04T15:01:36Z</time></trkpt><trkpt lat="31.456083248845356" lon="-6.213492982356423"><ele>1964.0</ele><time>2026-05-04T15:01:37Z</time></trkpt><trkpt lat="31.45607922282662" lon="-6.213327478110932"><ele>1964.0</ele><time>2026-05-04T15:01:38Z</time></trkpt><trkpt lat="31.456076382471714" lon="-6.2131635718679865"><ele>1964.0</ele><time>2026-05-04T15:01:39Z</time></trkpt><trkpt lat="31.456088520405054" lon="-6.21299040959941"><ele>1964.0</ele><time>2026-05-04T15:01:40Z</time></trkpt><trkpt lat="31.456097452404506" lon="-6.212841011423774"><ele>1964.0</ele><time>2026-05-04T15:01:41Z</time></trkpt><trkpt lat="31.45610996720393" lon="-6.212688189059814"><ele>1962.75</ele><time>2026-05-04T15:01:42Z</time></trkpt><trkpt lat="31.45613041826518" lon="-6.2125379111769465"><ele>1961.5</ele><time>2026-05-04T15:01:43Z</time></trkpt><trkpt lat="31.456150096864217" lon="-6.212395669471887"><ele>1960.25</ele><time>2026-05-04T15:01:44Z</time></trkpt><trkpt lat="31.456170821906035" lon="-6.212252366765841"><ele>1959.0</ele><time>2026-05-04T15:01:45Z</time></trkpt><trkpt lat="31.456192210550874" lon="-6.212106433238475"><ele>1957.25</ele><time>2026-05-04T15:01:46Z</time></trkpt><trkpt lat="31.456212587210405" lon="-6.211967140796194"><ele>1955.5</ele><time>2026-05-04T15:01:47Z</time></trkpt><trkpt lat="31.456231002234958" lon="-6.211838798375675"><ele>1953.75</ele><time>2026-05-04T15:01:48Z</time></trkpt><trkpt lat="31.456223222791845" lon="-6.211681747080941"><ele>1952.0</ele><time>2026-05-04T15:01:50Z</time></trkpt><trkpt lat="31.45614980886014" lon="-6.211583980625841"><ele>1952.0</ele><time>2026-05-04T15:01:53Z</time></trkpt><trkpt lat="31.45606178160363" lon="-6.211633341543549"><ele>1951.9999999999998</ele><time>2026-05-04T15:01:54Z</time></trkpt><trkpt lat="31.455985031005515" lon="-6.211718660439591"><ele>1951.9999999999998</ele><time>2026-05-04T15:01:55Z</time></trkpt><trkpt lat="31.455911348451302" lon="-6.211827378297962"><ele>1952.0</ele><time>2026-05-04T15:01:56Z</time></trkpt><trkpt lat="31.455839474167497" lon="-6.211950663119534"><ele>1952.0</ele><time>2026-05-04T15:01:57Z</time></trkpt><trkpt lat="31.455776921749585" lon="-6.212078675982428"><ele>1952.0</ele><time>2026-05-04T15:01:58Z</time></trkpt><trkpt lat="31.455732377887035" lon="-6.212202887698952"><ele>1952.0</ele><time>2026-05-04T15:01:59Z</time></trkpt><trkpt lat="31.455678678629468" lon="-6.2123192270755165"><ele>1952.0</ele><time>2026-05-04T15:02:00Z</time></trkpt><trkpt lat="31.455680982963777" lon="-6.2124660618269045"><ele>1952.0</ele><time>2026-05-04T15:02:01Z</time></trkpt><trkpt lat="31.455650423635976" lon="-6.212607194567318"><ele>1953.75</ele><time>2026-05-04T15:02:02Z</time></trkpt><trkpt lat="31.455664041951316" lon="-6.2127645931485285"><ele>1955.5</ele><time>2026-05-04T15:02:03Z</time></trkpt><trkpt lat="31.45567055227797" lon="-6.212918638854826"><ele>1957.25</ele><time>2026-05-04T15:02:04Z</time></trkpt><trkpt lat="31.455645468431005" lon="-6.21306370649222"><ele>1959.0</ele><time>2026-05-04T15:02:05Z</time></trkpt><trkpt lat="31.45560514135305" lon="-6.213214906426538"><ele>1960.25</ele><time>2026-05-04T15:02:06Z</time></trkpt><trkpt lat="31.455573000275166" lon="-6.213376986275412"><ele>1961.5</ele><time>2026-05-04T15:02:07Z</time></trkpt><trkpt lat="31.455519704332595" lon="-6.213528145143205"><ele>1962.75</ele><time>2026-05-04T15:02:08Z</time></trkpt><trkpt lat="31.455467504256575" lon="-6.2136753454442095"><ele>1964.0</ele><time>2026-05-04T15:02:09Z</time></trkpt><trkpt lat="31.455418139351647" lon="-6.213814699868582"><ele>1959.25</ele><time>2026-05-04T15:02:10Z</time></trkpt><trkpt lat="31.455370835618847" lon="-6.2139523358620865"><ele>1954.5</ele><time>2026-05-04T15:02:11Z</time></trkpt><trkpt lat="31.455324618065962" lon="-6.214086102068299"><ele>1949.75</ele><time>2026-05-04T15:02:12Z</time></trkpt><trkpt lat="31.455277569325947" lon="-6.214213922480673"><ele>1945.0</ele><time>2026-05-04T15:02:13Z</time></trkpt><trkpt lat="31.455229518378417" lon="-6.214318802897212"><ele>1945.0</ele><time>2026-05-04T15:02:14Z</time></trkpt><trkpt lat="31.455168245952834" lon="-6.214396800807237"><ele>1945.0</ele><time>2026-05-04T15:02:15Z</time></trkpt><trkpt lat="31.455087941907603" lon="-6.214449357040306"><ele>1945.0</ele><time>2026-05-04T15:02:16Z</time></trkpt><trkpt lat="31.454999654250063" lon="-6.214475044566763"><ele>1945.0</ele><time>2026-05-04T15:02:17Z</time></trkpt><trkpt lat="31.454908819333347" lon="-6.214456088935956"><ele>1945.0</ele><time>2026-05-04T15:02:18Z</time></trkpt><trkpt lat="31.45481981642898" lon="-6.214438781995867"><ele>1945.0</ele><time>2026-05-04T15:02:19Z</time></trkpt><trkpt lat="31.454728063653594" lon="-6.214390537430888"><ele>1945.0</ele><time>2026-05-04T15:02:20Z</time></trkpt><trkpt lat="31.45463772542555" lon="-6.214264465211082"><ele>1945.0</ele><time>2026-05-04T15:02:21Z</time></trkpt><trkpt lat="31.454607689879346" lon="-6.214059474735914"><ele>1945.0</ele><time>2026-05-04T15:02:22Z</time></trkpt><trkpt lat="31.454591314375342" lon="-6.213902819993221"><ele>1940.5</ele><time>2026-05-04T15:02:23Z</time></trkpt><trkpt lat="31.45457692645261" lon="-6.213745280501388"><ele>1936.0</ele><time>2026-05-04T15:02:24Z</time></trkpt><trkpt lat="31.45456390487762" lon="-6.213578016854119"><ele>1931.5</ele><time>2026-05-04T15:02:25Z</time></trkpt><trkpt lat="31.454552371252763" lon="-6.213406099406137"><ele>1927.0</ele><time>2026-05-04T15:02:26Z</time></trkpt><trkpt lat="31.454542091893277" lon="-6.213240591139734"><ele>1925.5</ele><time>2026-05-04T15:02:27Z</time></trkpt><trkpt lat="31.45453184452987" lon="-6.21308086040714"><ele>1924.0</ele><time>2026-05-04T15:02:28Z</time></trkpt><trkpt lat="31.454519459890747" lon="-6.212927951650122"><ele>1922.5</ele><time>2026-05-04T15:02:29Z</time></trkpt><trkpt lat="31.454506870755047" lon="-6.212768960826977"><ele>1921.0</ele><time>2026-05-04T15:02:30Z</time></trkpt><trkpt lat="31.454490067103826" lon="-6.2126424279877845"><ele>1921.0</ele><time>2026-05-04T15:02:31Z</time></trkpt><trkpt lat="31.454463175511776" lon="-6.212500613854157"><ele>1921.0</ele><time>2026-05-04T15:02:32Z</time></trkpt><trkpt lat="31.45442926257755" lon="-6.212376558548295"><ele>1921.0</ele><time>2026-05-04T15:02:33Z</time></trkpt><trkpt lat="31.45438640452907" lon="-6.212253714952563"><ele>1921.0</ele><time>2026-05-04T15:02:34Z</time></trkpt><trkpt lat="31.45432835041566" lon="-6.2121192091049195"><ele>1919.25</ele><time>2026-05-04T15:02:35Z</time></trkpt><trkpt lat="31.454272071060032" lon="-6.211976247248713"><ele>1917.5</ele><time>2026-05-04T15:02:36Z</time></trkpt><trkpt lat="31.454221355408063" lon="-6.211841828122593"><ele>1915.75</ele><time>2026-05-04T15:02:37Z</time></trkpt><trkpt lat="31.454180227525377" lon="-6.211697049369058"><ele>1914.0</ele><time>2026-05-04T15:02:38Z</time></trkpt><trkpt lat="31.45415206204369" lon="-6.211541751551621"><ele>1911.75</ele><time>2026-05-04T15:02:39Z</time></trkpt><trkpt lat="31.45413836813281" lon="-6.211390410321507"><ele>1909.5</ele><time>2026-05-04T15:02:40Z</time></trkpt><trkpt lat="31.454131640205222" lon="-6.211256789809862"><ele>1907.25</ele><time>2026-05-04T15:02:41Z</time></trkpt><trkpt lat="31.454150137304318" lon="-6.211116034426605"><ele>1905.0</ele><time>2026-05-04T15:02:42Z</time></trkpt><trkpt lat="31.454155779073364" lon="-6.211003481054727"><ele>1905.0</ele><time>2026-05-04T15:02:43Z</time></trkpt><trkpt lat="31.454160934459743" lon="-6.210900630604498"><ele>1905.0</ele><time>2026-05-04T15:02:44Z</time></trkpt><trkpt lat="31.454114659378398" lon="-6.210759627027389"><ele>1905.0</ele><time>2026-05-04T15:02:46Z</time></trkpt><trkpt lat="31.454025313819855" lon="-6.210688999356984"><ele>1905.0</ele><time>2026-05-04T15:02:48Z</time></trkpt><trkpt lat="31.453925566524823" lon="-6.210740708168067"><ele>1905.0</ele><time>2026-05-04T15:02:49Z</time></trkpt><trkpt lat="31.45384626017184" lon="-6.2108348653369205"><ele>1904.0</ele><time>2026-05-04T15:02:50Z</time></trkpt><trkpt lat="31.45377997357368" lon="-6.210955318021606"><ele>1903.0</ele><time>2026-05-04T15:02:51Z</time></trkpt><trkpt lat="31.453717291350387" lon="-6.211065976512717"><ele>1902.0</ele><time>2026-05-04T15:02:52Z</time></trkpt><trkpt lat="31.453648458504095" lon="-6.211159044199259"><ele>1901.0</ele><time>2026-05-04T15:02:53Z</time></trkpt><trkpt lat="31.453587036896646" lon="-6.211245811646928"><ele>1900.0</ele><time>2026-05-04T15:02:54Z</time></trkpt><trkpt lat="31.45354006767202" lon="-6.21134642676093"><ele>1900.0000000000002</ele><time>2026-05-04T15:02:55Z</time></trkpt><trkpt lat="31.45348394988402" lon="-6.211415113790582"><ele>1900.0</ele><time>2026-05-04T15:02:56Z</time></trkpt><trkpt lat="31.453425485020656" lon="-6.211461666525337"><ele>1900.0</ele><time>2026-05-04T15:02:57Z</time></trkpt><trkpt lat="31.45335518072278" lon="-6.211467641015352"><ele>1900.0</ele><time>2026-05-04T15:02:58Z</time></trkpt><trkpt lat="31.453281646690346" lon="-6.2114321441465545"><ele>1900.0000000000002</ele><time>2026-05-04T15:02:59Z</time></trkpt><trkpt lat="31.453196744504453" lon="-6.21138483058603"><ele>1900.0</ele><time>2026-05-04T15:03:00Z</time></trkpt><trkpt lat="31.453113648521242" lon="-6.211301468287301"><ele>1900.0</ele><time>2026-05-04T15:03:01Z</time></trkpt><trkpt lat="31.453036748767513" lon="-6.211214327002937"><ele>1900.0</ele><time>2026-05-04T15:03:02Z</time></trkpt><trkpt lat="31.452978847365625" lon="-6.211081110044591"><ele>1900.0</ele><time>2026-05-04T15:03:03Z</time></trkpt><trkpt lat="31.452919191965506" lon="-6.210971590247543"><ele>1900.0</ele><time>2026-05-04T15:03:04Z</time></trkpt><trkpt lat="31.452853897874043" lon="-6.210855338647238"><ele>1896.4</ele><time>2026-05-04T15:03:05Z</time></trkpt><trkpt lat="31.452793510135606" lon="-6.21073689806925"><ele>1892.8</ele><time>2026-05-04T15:03:06Z</time></trkpt><trkpt lat="31.452720817472468" lon="-6.210644336288376"><ele>1889.1999999999998</ele><time>2026-05-04T15:03:07Z</time></trkpt><trkpt lat="31.452643373274338" lon="-6.210536743177767"><ele>1885.6</ele><time>2026-05-04T15:03:08Z</time></trkpt><trkpt lat="31.452582301153953" lon="-6.210442097517438"><ele>1882.0</ele><time>2026-05-04T15:03:09Z</time></trkpt><trkpt lat="31.45254053361048" lon="-6.210321157172632"><ele>1880.3999999999999</ele><time>2026-05-04T15:03:10Z</time></trkpt><trkpt lat="31.452523219809404" lon="-6.210185313880594"><ele>1878.7999999999997</ele><time>2026-05-04T15:03:11Z</time></trkpt><trkpt lat="31.452539107653415" lon="-6.210073734674167"><ele>1877.2</ele><time>2026-05-04T15:03:12Z</time></trkpt><trkpt lat="31.452621554977323" lon="-6.209967819913121"><ele>1875.6</ele><time>2026-05-04T15:03:13Z</time></trkpt><trkpt lat="31.4527298558216" lon="-6.209928186499294"><ele>1874.0</ele><time>2026-05-04T15:03:14Z</time></trkpt><trkpt lat="31.452765719803768" lon="-6.209855360471943"><ele>1874.0</ele><time>2026-05-04T15:03:17Z</time></trkpt><trkpt lat="31.452679693452843" lon="-6.209856519867777"><ele>1874.0</ele><time>2026-05-04T15:03:18Z</time></trkpt><trkpt lat="31.45257344705433" lon="-6.20993304053853"><ele>1874.0</ele><time>2026-05-04T15:03:20Z</time></trkpt><trkpt lat="31.452482774171216" lon="-6.209994086905867"><ele>1874.0</ele><time>2026-05-04T15:03:21Z</time></trkpt><trkpt lat="31.452385288038844" lon="-6.210060472018391"><ele>1874.0</ele><time>2026-05-04T15:03:22Z</time></trkpt><trkpt lat="31.452285471430447" lon="-6.210128914650023"><ele>1874.0</ele><time>2026-05-04T15:03:23Z</time></trkpt><trkpt lat="31.452188346367855" lon="-6.2101849258361135"><ele>1874.0</ele><time>2026-05-04T15:03:24Z</time></trkpt><trkpt lat="31.452087321665847" lon="-6.210224926337197"><ele>1874.0</ele><time>2026-05-04T15:03:25Z</time></trkpt><trkpt lat="31.451982118626066" lon="-6.210248335399488"><ele>1874.0</ele><time>2026-05-04T15:03:26Z</time></trkpt><trkpt lat="31.451877807160216" lon="-6.210261438661934"><ele>1874.0</ele><time>2026-05-04T15:03:27Z</time></trkpt><trkpt lat="31.45178240973729" lon="-6.210285846855635"><ele>1871.8333333333333</ele><time>2026-05-04T15:03:28Z</time></trkpt><trkpt lat="31.45169337118457" lon="-6.210325850264294"><ele>1869.6666666666665</ele><time>2026-05-04T15:03:29Z</time></trkpt><trkpt lat="31.451612419842228" lon="-6.210360779919347"><ele>1867.5</ele><time>2026-05-04T15:03:30Z</time></trkpt><trkpt lat="31.451533851839567" lon="-6.210368268838763"><ele>1865.3333333333335</ele><time>2026-05-04T15:03:31Z</time></trkpt><trkpt lat="31.45144932452898" lon="-6.210343592664524"><ele>1863.1666666666667</ele><time>2026-05-04T15:03:32Z</time></trkpt><trkpt lat="31.451361120673045" lon="-6.210297680356934"><ele>1861.0</ele><time>2026-05-04T15:03:33Z</time></trkpt><trkpt lat="31.451266541115906" lon="-6.210251450536934"><ele>1860.6</ele><time>2026-05-04T15:03:34Z</time></trkpt><trkpt lat="31.451176031345007" lon="-6.210195999115541"><ele>1860.1999999999998</ele><time>2026-05-04T15:03:35Z</time></trkpt><trkpt lat="31.451102443752806" lon="-6.21013160610694"><ele>1859.8000000000002</ele><time>2026-05-04T15:03:36Z</time></trkpt><trkpt lat="31.451036431214682" lon="-6.210073067908203"><ele>1859.4</ele><time>2026-05-04T15:03:37Z</time></trkpt><trkpt lat="31.450997715186656" lon="-6.210013835060255"><ele>1859.0</ele><time>2026-05-04T15:03:38Z</time></trkpt><trkpt lat="31.450955380097287" lon="-6.209882880551196"><ele>1857.5</ele><time>2026-05-04T15:03:39Z</time></trkpt><trkpt lat="31.450934123123446" lon="-6.209773468696447"><ele>1856.0</ele><time>2026-05-04T15:03:40Z</time></trkpt><trkpt lat="31.450901464181594" lon="-6.209664106275787"><ele>1854.5</ele><time>2026-05-04T15:03:41Z</time></trkpt><trkpt lat="31.450832526510375" lon="-6.20952608538459"><ele>1853.0</ele><time>2026-05-04T15:03:43Z</time></trkpt><trkpt lat="31.450726358697533" lon="-6.209440101414284"><ele>1852.9999999999998</ele><time>2026-05-04T15:03:45Z</time></trkpt><trkpt lat="31.450655426089998" lon="-6.209393349903623"><ele>1853.0</ele><time>2026-05-04T15:03:46Z</time></trkpt><trkpt lat="31.45057803628853" lon="-6.209344509779097"><ele>1853.0</ele><time>2026-05-04T15:03:47Z</time></trkpt><trkpt lat="31.4505021511348" lon="-6.20929744715833"><ele>1853.0</ele><time>2026-05-04T15:03:48Z</time></trkpt><trkpt lat="31.450428310485293" lon="-6.209254234399089"><ele>1852.9999999999998</ele><time>2026-05-04T15:03:49Z</time></trkpt><trkpt lat="31.45034709765776" lon="-6.209200993671236"><ele>1853.0</ele><time>2026-05-04T15:03:50Z</time></trkpt><trkpt lat="31.450272699712016" lon="-6.209139418362347"><ele>1851.4</ele><time>2026-05-04T15:03:51Z</time></trkpt><trkpt lat="31.45019990307853" lon="-6.209063105945609"><ele>1849.8000000000002</ele><time>2026-05-04T15:03:52Z</time></trkpt><trkpt lat="31.450139316138554" lon="-6.208948239675082"><ele>1848.2</ele><time>2026-05-04T15:03:53Z</time></trkpt><trkpt lat="31.450103073240935" lon="-6.208826230580601"><ele>1846.6</ele><time>2026-05-04T15:03:54Z</time></trkpt><trkpt lat="31.450090329620615" lon="-6.2086995878421005"><ele>1845.0</ele><time>2026-05-04T15:03:55Z</time></trkpt><trkpt lat="31.450092370289088" lon="-6.208573020210268"><ele>1843.5</ele><time>2026-05-04T15:03:56Z</time></trkpt><trkpt lat="31.450135745444662" lon="-6.208448624840613"><ele>1842.0</ele><time>2026-05-04T15:03:57Z</time></trkpt><trkpt lat="31.450163136681933" lon="-6.208344382704742"><ele>1840.5</ele><time>2026-05-04T15:03:59Z</time></trkpt><trkpt lat="31.45018783732915" lon="-6.208250379576386"><ele>1839.0</ele><time>2026-05-04T15:04:01Z</time></trkpt><trkpt lat="31.450395714182296" lon="-6.208250340322374"><ele>1839.0</ele><time>2026-05-04T15:04:04Z</time></trkpt><trkpt lat="31.45051796390207" lon="-6.208309953644876"><ele>1839.0</ele><time>2026-05-04T15:04:06Z</time></trkpt><trkpt lat="31.45059970552611" lon="-6.208350809864319"><ele>1839.0</ele><time>2026-05-04T15:04:07Z</time></trkpt><trkpt lat="31.450678502324042" lon="-6.208389570895423"><ele>1839.0</ele><time>2026-05-04T15:04:08Z</time></trkpt><trkpt lat="31.450758257237233" lon="-6.208393298454121"><ele>1839.0</ele><time>2026-05-04T15:04:09Z</time></trkpt><trkpt lat="31.4508228460986" lon="-6.208372339516549"><ele>1839.0</ele><time>2026-05-04T15:04:10Z</time></trkpt><trkpt lat="31.450910717935194" lon="-6.208340423433666"><ele>1839.0</ele><time>2026-05-04T15:04:11Z</time></trkpt><trkpt lat="31.451004483388992" lon="-6.208330073666364"><ele>1839.0</ele><time>2026-05-04T15:04:12Z</time></trkpt><trkpt lat="31.451108206798107" lon="-6.208366590663006"><ele>1839.0</ele><time>2026-05-04T15:04:13Z</time></trkpt><trkpt lat="31.451211488634883" lon="-6.208365529031892"><ele>1839.0</ele><time>2026-05-04T15:04:14Z</time></trkpt><trkpt lat="31.451292844853775" lon="-6.208351735887825"><ele>1839.8000000000002</ele><time>2026-05-04T15:04:15Z</time></trkpt><trkpt lat="31.45137205122132" lon="-6.2083279130624955"><ele>1840.6000000000001</ele><time>2026-05-04T15:04:16Z</time></trkpt><trkpt lat="31.451442228486375" lon="-6.208306669466595"><ele>1841.4</ele><time>2026-05-04T15:04:17Z</time></trkpt><trkpt lat="31.451531614291362" lon="-6.208243753168772"><ele>1842.2</ele><time>2026-05-04T15:04:19Z</time></trkpt><trkpt lat="31.451671080517805" lon="-6.208198281222325"><ele>1843.0</ele><time>2026-05-04T15:04:21Z</time></trkpt><trkpt lat="31.451752240157745" lon="-6.2082114194777756"><ele>1843.0</ele><time>2026-05-04T15:04:22Z</time></trkpt><trkpt lat="31.45182408163845" lon="-6.208208265130583"><ele>1843.0000000000002</ele><time>2026-05-04T15:04:23Z</time></trkpt><trkpt lat="31.451930706544328" lon="-6.208203344785995"><ele>1843.0000000000002</ele><time>2026-05-04T15:04:25Z</time></trkpt><trkpt lat="31.452017812846425" lon="-6.208198612057401"><ele>1843.0</ele><time>2026-05-04T15:04:27Z</time></trkpt><trkpt lat="31.452117109950304" lon="-6.208193089288917"><ele>1843.0</ele><time>2026-05-04T15:04:29Z</time></trkpt><trkpt lat="31.452242994757526" lon="-6.208186087750151"><ele>1843.0</ele><time>2026-05-04T15:04:31Z</time></trkpt><trkpt lat="31.452352366140534" lon="-6.208175959313798"><ele>1843.0000000000002</ele><time>2026-05-04T15:04:33Z</time></trkpt><trkpt lat="31.452465420011258" lon="-6.20819287118488"><ele>1843.0000000000002</ele><time>2026-05-04T15:04:35Z</time></trkpt><trkpt lat="31.4525201638553" lon="-6.208230629553523"><ele>1843.0</ele><time>2026-05-04T15:04:36Z</time></trkpt><trkpt lat="31.452641690893923" lon="-6.208254775584524"><ele>1843.0</ele><time>2026-05-04T15:04:38Z</time></trkpt><trkpt lat="31.45270723510696" lon="-6.208261672375633"><ele>1843.0</ele><time>2026-05-04T15:04:39Z</time></trkpt><trkpt lat="31.452812529097606" lon="-6.208188232011926"><ele>1843.0</ele><time>2026-05-04T15:04:41Z</time></trkpt><trkpt lat="31.4529173593027" lon="-6.208155883783733"><ele>1843.0</ele><time>2026-05-04T15:04:43Z</time></trkpt><trkpt lat="31.453028466960266" lon="-6.208138862836294"><ele>1843.0</ele><time>2026-05-04T15:04:45Z</time></trkpt><trkpt lat="31.4531517412765" lon="-6.208140388280812"><ele>1842.6000000000001</ele><time>2026-05-04T15:04:47Z</time></trkpt><trkpt lat="31.45326890474378" lon="-6.208149142289907"><ele>1842.2000000000003</ele><time>2026-05-04T15:04:49Z</time></trkpt><trkpt lat="31.45337095797526" lon="-6.208166957530796"><ele>1841.8</ele><time>2026-05-04T15:04:51Z</time></trkpt><trkpt lat="31.45347606958815" lon="-6.208202331645024"><ele>1841.4</ele><time>2026-05-04T15:04:53Z</time></trkpt><trkpt lat="31.45358288711518" lon="-6.208259220112168"><ele>1841.0</ele><time>2026-05-04T15:04:55Z</time></trkpt><trkpt lat="31.45364505368021" lon="-6.208292776264831"><ele>1841.0</ele><time>2026-05-04T15:04:56Z</time></trkpt><trkpt lat="31.453702459987507" lon="-6.208331037947214"><ele>1841.0</ele><time>2026-05-04T15:04:57Z</time></trkpt><trkpt lat="31.45381138462723" lon="-6.208395773528249"><ele>1841.0</ele><time>2026-05-04T15:04:59Z</time></trkpt><trkpt lat="31.45387549851407" lon="-6.2083955210570565"><ele>1841.0</ele><time>2026-05-04T15:05:00Z</time></trkpt><trkpt lat="31.453998294522936" lon="-6.208380275418771"><ele>1841.0</ele><time>2026-05-04T15:05:02Z</time></trkpt><trkpt lat="31.45407401335234" lon="-6.208371872205164"><ele>1840.9999999999998</ele><time>2026-05-04T15:05:03Z</time></trkpt><trkpt lat="31.45415448077098" lon="-6.2083675311091016"><ele>1841.0</ele><time>2026-05-04T15:05:04Z</time></trkpt><trkpt lat="31.454221546705117" lon="-6.208365576314365"><ele>1841.0</ele><time>2026-05-04T15:05:05Z</time></trkpt><trkpt lat="31.454299092084025" lon="-6.208303173094199"><ele>1841.0</ele><time>2026-05-04T15:05:07Z</time></trkpt><trkpt lat="31.454390317963707" lon="-6.2082269772182945"><ele>1840.9999999999998</ele><time>2026-05-04T15:05:09Z</time></trkpt><trkpt lat="31.454456309788153" lon="-6.208162514207495"><ele>1841.0</ele><time>2026-05-04T15:05:11Z</time></trkpt><trkpt lat="31.454526252077923" lon="-6.208092294012366"><ele>1841.1666666666665</ele><time>2026-05-04T15:05:13Z</time></trkpt><trkpt lat="31.454583903954646" lon="-6.208034668820427"><ele>1841.3333333333333</ele><time>2026-05-04T15:05:15Z</time></trkpt><trkpt lat="31.454648302230595" lon="-6.207970258604945"><ele>1841.5</ele><time>2026-05-04T15:05:17Z</time></trkpt><trkpt lat="31.454702106425195" lon="-6.207873435474915"><ele>1841.6666666666665</ele><time>2026-05-04T15:05:19Z</time></trkpt><trkpt lat="31.45474022164255" lon="-6.207807640027144"><ele>1841.8333333333333</ele><time>2026-05-04T15:05:20Z</time></trkpt><trkpt lat="31.45480308433765" lon="-6.207698719378917"><ele>1842.0</ele><time>2026-05-04T15:05:22Z</time></trkpt><trkpt lat="31.454858736060913" lon="-6.207601688648026"><ele>1842.0</ele><time>2026-05-04T15:05:24Z</time></trkpt><trkpt lat="31.45493761003603" lon="-6.207473025675457"><ele>1841.9999999999998</ele><time>2026-05-04T15:05:26Z</time></trkpt><trkpt lat="31.454984054942084" lon="-6.207405605019023"><ele>1841.9999999999998</ele><time>2026-05-04T15:05:27Z</time></trkpt><trkpt lat="31.45504174665396" lon="-6.207340840615472"><ele>1842.0</ele><time>2026-05-04T15:05:28Z</time></trkpt><trkpt lat="31.455093735206944" lon="-6.207293177662066"><ele>1842.0</ele><time>2026-05-04T15:05:29Z</time></trkpt><trkpt lat="31.455176973319237" lon="-6.207212228374705"><ele>1841.1666666666667</ele><time>2026-05-04T15:05:31Z</time></trkpt><trkpt lat="31.455227489981834" lon="-6.207150374252145"><ele>1840.3333333333335</ele><time>2026-05-04T15:05:32Z</time></trkpt><trkpt lat="31.455301555494383" lon="-6.207098527347652"><ele>1839.5</ele><time>2026-05-04T15:05:34Z</time></trkpt><trkpt lat="31.45538464237339" lon="-6.207072090400547"><ele>1838.6666666666667</ele><time>2026-05-04T15:05:36Z</time></trkpt><trkpt lat="31.455495174727737" lon="-6.207027317102618"><ele>1837.8333333333335</ele><time>2026-05-04T15:05:38Z</time></trkpt><trkpt lat="31.455564219539557" lon="-6.207001218221451"><ele>1837.0</ele><time>2026-05-04T15:05:39Z</time></trkpt><trkpt lat="31.4556303806572" lon="-6.206975956962657"><ele>1837.0000000000002</ele><time>2026-05-04T15:05:40Z</time></trkpt><trkpt lat="31.455693649330293" lon="-6.20694927207619"><ele>1837.0</ele><time>2026-05-04T15:05:41Z</time></trkpt><trkpt lat="31.45575411716796" lon="-6.206920471871268"><ele>1837.0</ele><time>2026-05-04T15:05:42Z</time></trkpt><trkpt lat="31.455869821626077" lon="-6.206865358975159"><ele>1837.0</ele><time>2026-05-04T15:05:44Z</time></trkpt><trkpt lat="31.45593001665354" lon="-6.206836694046028"><ele>1837.0000000000002</ele><time>2026-05-04T15:05:45Z</time></trkpt><trkpt lat="31.456027307621905" lon="-6.206790447362465"><ele>1837.0</ele><time>2026-05-04T15:05:47Z</time></trkpt><trkpt lat="31.456134450845234" lon="-6.20673967410955"><ele>1837.0</ele><time>2026-05-04T15:05:49Z</time></trkpt><trkpt lat="31.456211252327943" lon="-6.206658935749965"><ele>1836.9999999999998</ele><time>2026-05-04T15:05:51Z</time></trkpt><trkpt lat="31.456289992637995" lon="-6.206608619458899"><ele>1836.9999999999998</ele><time>2026-05-04T15:05:53Z</time></trkpt><trkpt lat="31.456376228940265" lon="-6.206555113484323"><ele>1837.0</ele><time>2026-05-04T15:05:55Z</time></trkpt><trkpt lat="31.4564514305004" lon="-6.20650834618554"><ele>1837.0</ele><time>2026-05-04T15:05:57Z</time></trkpt><trkpt lat="31.456532217226428" lon="-6.206457403842262"><ele>1836.8333333333335</ele><time>2026-05-04T15:05:59Z</time></trkpt><trkpt lat="31.45660122266795" lon="-6.206409425253377"><ele>1836.6666666666667</ele><time>2026-05-04T15:06:01Z</time></trkpt><trkpt lat="31.456668909464643" lon="-6.206358388890221"><ele>1836.5</ele><time>2026-05-04T15:06:03Z</time></trkpt><trkpt lat="31.45674049590431" lon="-6.206303033497788"><ele>1836.3333333333335</ele><time>2026-05-04T15:06:05Z</time></trkpt><trkpt lat="31.456825980272324" lon="-6.206231547808593"><ele>1836.1666666666667</ele><time>2026-05-04T15:06:07Z</time></trkpt><trkpt lat="31.456879411873917" lon="-6.206186514322625"><ele>1836.0</ele><time>2026-05-04T15:06:08Z</time></trkpt><trkpt lat="31.4569446461197" lon="-6.206142039582795"><ele>1836.0</ele><time>2026-05-04T15:06:09Z</time></trkpt><trkpt lat="31.457015565406795" lon="-6.206099991461141"><ele>1836.0</ele><time>2026-05-04T15:06:10Z</time></trkpt><trkpt lat="31.457077682457765" lon="-6.206061482744608"><ele>1836.0</ele><time>2026-05-04T15:06:11Z</time></trkpt><trkpt lat="31.457146767504817" lon="-6.206017999551922"><ele>1836.0</ele><time>2026-05-04T15:06:12Z</time></trkpt><trkpt lat="31.45720900115087" lon="-6.2059777974211565"><ele>1836.0</ele><time>2026-05-04T15:06:13Z</time></trkpt><trkpt lat="31.457333782188808" lon="-6.205921316396733"><ele>1836.0</ele><time>2026-05-04T15:06:15Z</time></trkpt><trkpt lat="31.457449665170234" lon="-6.20591645544298"><ele>1837.5</ele><time>2026-05-04T15:06:17Z</time></trkpt><trkpt lat="31.457556491660714" lon="-6.205913127981418"><ele>1839.0</ele><time>2026-05-04T15:06:19Z</time></trkpt><trkpt lat="31.457674805054975" lon="-6.205938297545975"><ele>1840.5</ele><time>2026-05-04T15:06:21Z</time></trkpt><trkpt lat="31.45778983696154" lon="-6.205955527717484"><ele>1842.0</ele><time>2026-05-04T15:06:23Z</time></trkpt><trkpt lat="31.457900812818202" lon="-6.205988048758717"><ele>1842.8333333333333</ele><time>2026-05-04T15:06:25Z</time></trkpt><trkpt lat="31.457982720420766" lon="-6.205997774306835"><ele>1843.6666666666665</ele><time>2026-05-04T15:06:27Z</time></trkpt><trkpt lat="31.458070693665416" lon="-6.205943836458279"><ele>1844.5</ele><time>2026-05-04T15:06:29Z</time></trkpt><trkpt lat="31.458106183374586" lon="-6.205881626917641"><ele>1845.3333333333333</ele><time>2026-05-04T15:06:30Z</time></trkpt><trkpt lat="31.45820347201213" lon="-6.20591528602144"><ele>1846.1666666666665</ele><time>2026-05-04T15:06:31Z</time></trkpt><trkpt lat="31.45826790708772" lon="-6.20591397650259"><ele>1847.0</ele><time>2026-05-04T15:06:32Z</time></trkpt><trkpt lat="31.45834134351856" lon="-6.205928756970926"><ele>1846.9999999999998</ele><time>2026-05-04T15:06:33Z</time></trkpt><trkpt lat="31.45841464583852" lon="-6.205933842990406"><ele>1847.0</ele><time>2026-05-04T15:06:34Z</time></trkpt><trkpt lat="31.458488007696875" lon="-6.205936266895625"><ele>1846.9999999999998</ele><time>2026-05-04T15:06:35Z</time></trkpt><trkpt lat="31.458568757620142" lon="-6.205943590397636"><ele>1846.9999999999998</ele><time>2026-05-04T15:06:36Z</time></trkpt><trkpt lat="31.45863859731288" lon="-6.205953872019128"><ele>1847.0</ele><time>2026-05-04T15:06:37Z</time></trkpt><trkpt lat="31.45869788560752" lon="-6.205922469113933"><ele>1846.9999999999998</ele><time>2026-05-04T15:06:38Z</time></trkpt><trkpt lat="31.45875986147732" lon="-6.205906309436906"><ele>1846.9999999999998</ele><time>2026-05-04T15:06:39Z</time></trkpt><trkpt lat="31.45884325518214" lon="-6.2058017502615135"><ele>1847.4999999999998</ele><time>2026-05-04T15:06:41Z</time></trkpt><trkpt lat="31.458907591108044" lon="-6.20575563830392"><ele>1848.0</ele><time>2026-05-04T15:06:42Z</time></trkpt><trkpt lat="31.458972352269274" lon="-6.20571060491039"><ele>1848.5</ele><time>2026-05-04T15:06:43Z</time></trkpt><trkpt lat="31.459045658384984" lon="-6.205670448812071"><ele>1849.0</ele><time>2026-05-04T15:06:44Z</time></trkpt><trkpt lat="31.459115669156958" lon="-6.205640112973257"><ele>1849.4999999999998</ele><time>2026-05-04T15:06:45Z</time></trkpt><trkpt lat="31.459234015780492" lon="-6.205584116943171"><ele>1850.0</ele><time>2026-05-04T15:06:47Z</time></trkpt><trkpt lat="31.459316980808463" lon="-6.205549660929652"><ele>1850.1666666666665</ele><time>2026-05-04T15:06:48Z</time></trkpt><trkpt lat="31.459379530067185" lon="-6.205523468740663"><ele>1850.3333333333333</ele><time>2026-05-04T15:06:49Z</time></trkpt><trkpt lat="31.459440917357966" lon="-6.205497763463956"><ele>1850.5</ele><time>2026-05-04T15:06:50Z</time></trkpt><trkpt lat="31.459514518043843" lon="-6.205542531337386"><ele>1850.6666666666665</ele><time>2026-05-04T15:06:51Z</time></trkpt><trkpt lat="31.459629946287244" lon="-6.205615216395739"><ele>1850.8333333333333</ele><time>2026-05-04T15:06:53Z</time></trkpt><trkpt lat="31.459683206642268" lon="-6.205660181081262"><ele>1851.0</ele><time>2026-05-04T15:06:54Z</time></trkpt><trkpt lat="31.45964931131473" lon="-6.205801050257483"><ele>1851.0</ele><time>2026-05-04T15:06:56Z</time></trkpt><trkpt lat="31.459678428127425" lon="-6.205920057128942"><ele>1851.0</ele><time>2026-05-04T15:06:58Z</time></trkpt><trkpt lat="31.45974908138664" lon="-6.206003910638986"><ele>1851.0</ele><time>2026-05-04T15:06:59Z</time></trkpt><trkpt lat="31.4598659043424" lon="-6.206063083200506"><ele>1851.0</ele><time>2026-05-04T15:07:01Z</time></trkpt><trkpt lat="31.459935477390044" lon="-6.205987649888344"><ele>1851.0</ele><time>2026-05-04T15:07:03Z</time></trkpt><trkpt lat="31.45992205982196" lon="-6.205874638884809"><ele>1851.0</ele><time>2026-05-04T15:07:05Z</time></trkpt><trkpt lat="31.459961931912908" lon="-6.205806675704666"><ele>1851.0</ele><time>2026-05-04T15:07:06Z</time></trkpt><trkpt lat="31.460022253486837" lon="-6.205740729123034"><ele>1851.0</ele><time>2026-05-04T15:07:07Z</time></trkpt><trkpt lat="31.46007849279591" lon="-6.205688293313953"><ele>1851.0</ele><time>2026-05-04T15:07:08Z</time></trkpt><trkpt lat="31.460127429707736" lon="-6.205640463719357"><ele>1851.0</ele><time>2026-05-04T15:07:09Z</time></trkpt><trkpt lat="31.460212091452053" lon="-6.205631737247034"><ele>1851.0</ele><time>2026-05-04T15:07:10Z</time></trkpt><trkpt lat="31.460281153870152" lon="-6.20569688541567"><ele>1851.0</ele><time>2026-05-04T15:07:11Z</time></trkpt><trkpt lat="31.46040479376029" lon="-6.20574863948409"><ele>1851.0</ele><time>2026-05-04T15:07:13Z</time></trkpt><trkpt lat="31.460468477123207" lon="-6.20577390497952"><ele>1851.0</ele><time>2026-05-04T15:07:14Z</time></trkpt><trkpt lat="31.46053438693054" lon="-6.2057809605642476"><ele>1851.0</ele><time>2026-05-04T15:07:15Z</time></trkpt><trkpt lat="31.46059862933602" lon="-6.2057759440046905"><ele>1851.0</ele><time>2026-05-04T15:07:16Z</time></trkpt><trkpt lat="31.460700641555626" lon="-6.205822891926694"><ele>1851.0</ele><time>2026-05-04T15:07:18Z</time></trkpt><trkpt lat="31.460809989372294" lon="-6.205895159080432"><ele>1850.1999999999998</ele><time>2026-05-04T15:07:20Z</time></trkpt><trkpt lat="31.460919870065336" lon="-6.2059492245431755"><ele>1849.3999999999999</ele><time>2026-05-04T15:07:22Z</time></trkpt><trkpt lat="31.461029253185753" lon="-6.205981989253732"><ele>1848.6</ele><time>2026-05-04T15:07:24Z</time></trkpt><trkpt lat="31.461130550183345" lon="-6.205998199861754"><ele>1847.8</ele><time>2026-05-04T15:07:26Z</time></trkpt><trkpt lat="31.461236585922006" lon="-6.206004512003136"><ele>1847.0</ele><time>2026-05-04T15:07:28Z</time></trkpt><trkpt lat="31.461328636529387" lon="-6.205967225651282"><ele>1846.0</ele><time>2026-05-04T15:07:30Z</time></trkpt><trkpt lat="31.46140955167317" lon="-6.205986962027686"><ele>1844.9999999999998</ele><time>2026-05-04T15:07:32Z</time></trkpt><trkpt lat="31.461480786330224" lon="-6.206076729639126"><ele>1843.9999999999998</ele><time>2026-05-04T15:07:34Z</time></trkpt><trkpt lat="31.461584952794848" lon="-6.206116257675629"><ele>1843.0</ele><time>2026-05-04T15:07:36Z</time></trkpt><trkpt lat="31.46169117844952" lon="-6.20615907503886"><ele>1842.0</ele><time>2026-05-04T15:07:38Z</time></trkpt><trkpt lat="31.461788969844427" lon="-6.2062113799416725"><ele>1842.0</ele><time>2026-05-04T15:07:40Z</time></trkpt><trkpt lat="31.461814158433278" lon="-6.206281534643131"><ele>1841.9999999999998</ele><time>2026-05-04T15:07:41Z</time></trkpt><trkpt lat="31.461917574556683" lon="-6.206338533396351"><ele>1841.9999999999998</ele><time>2026-05-04T15:07:43Z</time></trkpt><trkpt lat="31.461992530971983" lon="-6.206418294851332"><ele>1842.0</ele><time>2026-05-04T15:07:45Z</time></trkpt><trkpt lat="31.462074414369475" lon="-6.206499183424824"><ele>1842.0</ele><time>2026-05-04T15:07:47Z</time></trkpt><trkpt lat="31.462150061875576" lon="-6.206577773062992"><ele>1844.8</ele><time>2026-05-04T15:07:49Z</time></trkpt><trkpt lat="31.462230308861592" lon="-6.206643416376118"><ele>1847.6</ele><time>2026-05-04T15:07:51Z</time></trkpt><trkpt lat="31.462300484166732" lon="-6.206711223623522"><ele>1850.3999999999999</ele><time>2026-05-04T15:07:53Z</time></trkpt><trkpt lat="31.46242808038556" lon="-6.206809484138131"><ele>1853.1999999999998</ele><time>2026-05-04T15:08:09Z</time></trkpt><trkpt lat="31.46248545346376" lon="-6.206847687386098"><ele>1856.0</ele><time>2026-05-04T15:08:10Z</time></trkpt><trkpt lat="31.462530360863635" lon="-6.206916477313063"><ele>1856.0</ele><time>2026-05-04T15:08:11Z</time></trkpt><trkpt lat="31.462584578900643" lon="-6.206955783184341"><ele>1856.0</ele><time>2026-05-04T15:08:12Z</time></trkpt><trkpt lat="31.462648053864452" lon="-6.207001799306323"><ele>1856.0</ele><time>2026-05-04T15:08:13Z</time></trkpt><trkpt lat="31.46274234238976" lon="-6.2070944793536444"><ele>1856.0</ele><time>2026-05-04T15:08:15Z</time></trkpt><trkpt lat="31.46284481492832" lon="-6.207198071952926"><ele>1856.0</ele><time>2026-05-04T15:08:17Z</time></trkpt><trkpt lat="31.462899810972836" lon="-6.207246733476966"><ele>1857.1666666666665</ele><time>2026-05-04T15:08:18Z</time></trkpt><trkpt lat="31.46295594187256" lon="-6.2072984823159665"><ele>1858.3333333333333</ele><time>2026-05-04T15:08:19Z</time></trkpt><trkpt lat="31.46301943924344" lon="-6.2073460922084855"><ele>1859.5</ele><time>2026-05-04T15:08:20Z</time></trkpt><trkpt lat="31.463072812630642" lon="-6.207387802260315"><ele>1860.6666666666665</ele><time>2026-05-04T15:08:21Z</time></trkpt><trkpt lat="31.463133270270003" lon="-6.207434000109569"><ele>1861.8333333333333</ele><time>2026-05-04T15:08:22Z</time></trkpt><trkpt lat="31.463213081386304" lon="-6.207467847787563"><ele>1863.0</ele><time>2026-05-04T15:08:23Z</time></trkpt><trkpt lat="31.463322382939577" lon="-6.2075381788016"><ele>1863.0</ele><time>2026-05-04T15:08:25Z</time></trkpt><trkpt lat="31.463378863273956" lon="-6.207584542042692"><ele>1863.0</ele><time>2026-05-04T15:08:26Z</time></trkpt><trkpt lat="31.46343384268784" lon="-6.207631156747425"><ele>1863.0</ele><time>2026-05-04T15:08:27Z</time></trkpt><trkpt lat="31.463490714802067" lon="-6.207676055756623"><ele>1863.0</ele><time>2026-05-04T15:08:28Z</time></trkpt><trkpt lat="31.463546904479127" lon="-6.207720415834423"><ele>1863.0</ele><time>2026-05-04T15:08:29Z</time></trkpt><trkpt lat="31.463624453015292" lon="-6.20775433627434"><ele>1863.0</ele><time>2026-05-04T15:08:30Z</time></trkpt><trkpt lat="31.463737659438845" lon="-6.207795888142447"><ele>1867.5</ele><time>2026-05-04T15:08:32Z</time></trkpt><trkpt lat="31.463801164018196" lon="-6.207819299543405"><ele>1872.0</ele><time>2026-05-04T15:08:33Z</time></trkpt><trkpt lat="31.463886845909528" lon="-6.2078070181648295"><ele>1876.5</ele><time>2026-05-04T15:08:34Z</time></trkpt><trkpt lat="31.46396626737508" lon="-6.207790327299878"><ele>1881.0</ele><time>2026-05-04T15:08:35Z</time></trkpt><trkpt lat="31.464036896996944" lon="-6.20781685421934"><ele>1885.5</ele><time>2026-05-04T15:08:36Z</time></trkpt><trkpt lat="31.464109721946365" lon="-6.207810867652571"><ele>1890.0</ele><time>2026-05-04T15:08:37Z</time></trkpt><trkpt lat="31.464210994401906" lon="-6.207820204340392"><ele>1890.0</ele><time>2026-05-04T15:08:39Z</time></trkpt><trkpt lat="31.464282428087767" lon="-6.2078102321875726"><ele>1890.0</ele><time>2026-05-04T15:08:41Z</time></trkpt><trkpt lat="31.464360061199788" lon="-6.2078012669237905"><ele>1890.0</ele><time>2026-05-04T15:08:43Z</time></trkpt><trkpt lat="31.464484411380546" lon="-6.207807757034481"><ele>1890.0</ele><time>2026-05-04T15:08:45Z</time></trkpt><trkpt lat="31.46455810787106" lon="-6.2078004058918985"><ele>1890.0</ele><time>2026-05-04T15:08:46Z</time></trkpt><trkpt lat="31.464685494028846" lon="-6.207759855186067"><ele>1893.4</ele><time>2026-05-04T15:08:48Z</time></trkpt><trkpt lat="31.464813842227606" lon="-6.207717315585966"><ele>1896.8</ele><time>2026-05-04T15:08:50Z</time></trkpt><trkpt lat="31.46493302932669" lon="-6.207690573936052"><ele>1900.1999999999998</ele><time>2026-05-04T15:08:52Z</time></trkpt><trkpt lat="31.46503533395" lon="-6.207667988346127"><ele>1903.6</ele><time>2026-05-04T15:08:54Z</time></trkpt><trkpt lat="31.46509903729553" lon="-6.207669261215298"><ele>1907.0</ele><time>2026-05-04T15:08:55Z</time></trkpt><trkpt lat="31.465217269541263" lon="-6.207661921161003"><ele>1907.0</ele><time>2026-05-04T15:08:57Z</time></trkpt><trkpt lat="31.465342879982536" lon="-6.207668251637936"><ele>1907.0</ele><time>2026-05-04T15:08:59Z</time></trkpt><trkpt lat="31.465461311549046" lon="-6.207675382041593"><ele>1907.0</ele><time>2026-05-04T15:09:01Z</time></trkpt><trkpt lat="31.46557684423381" lon="-6.20767432454409"><ele>1907.0</ele><time>2026-05-04T15:09:03Z</time></trkpt><trkpt lat="31.465691337007573" lon="-6.207684110213032"><ele>1909.1999999999998</ele><time>2026-05-04T15:09:05Z</time></trkpt><trkpt lat="31.465798053105164" lon="-6.20768755589886"><ele>1911.3999999999999</ele><time>2026-05-04T15:09:07Z</time></trkpt><trkpt lat="31.465884486640043" lon="-6.207703881186854"><ele>1913.6000000000001</ele><time>2026-05-04T15:09:10Z</time></trkpt><trkpt lat="31.465977225743035" lon="-6.207717956659215"><ele>1915.8000000000002</ele><time>2026-05-04T15:09:12Z</time></trkpt><trkpt lat="31.466079193508403" lon="-6.207747735053692"><ele>1918.0</ele><time>2026-05-04T15:09:14Z</time></trkpt><trkpt lat="31.466175888258196" lon="-6.207757204996124"><ele>1918.0</ele><time>2026-05-04T15:09:16Z</time></trkpt><trkpt lat="31.466267165323885" lon="-6.207793184073118"><ele>1918.0000000000002</ele><time>2026-05-04T15:09:18Z</time></trkpt><trkpt lat="31.46633957052572" lon="-6.207821724346609"><ele>1918.0000000000002</ele><time>2026-05-04T15:09:20Z</time></trkpt><trkpt lat="31.46634506414786" lon="-6.208014529569385"><ele>1918.0</ele><time>2026-05-04T15:09:22Z</time></trkpt><trkpt lat="31.46627629391408" lon="-6.208035546735613"><ele>1918.0</ele><time>2026-05-04T15:10:34Z</time></trkpt><trkpt lat="31.46629996933525" lon="-6.208109080148376"><ele>1918.0</ele><time>2026-05-04T15:10:42.999Z</time></trkpt><trkpt lat="31.466236944338817" lon="-6.208075656640133"><ele>1918.0000000000002</ele><time>2026-05-04T15:11:00.999Z</time></trkpt><trkpt lat="31.46629532038331" lon="-6.208156301999202"><ele>1918.0000000000002</ele><time>2026-05-04T15:11:14.999Z</time></trkpt><trkpt lat="31.46631692017208" lon="-6.208260694518409"><ele>1918.0</ele><time>2026-05-04T15:11:16.999Z</time></trkpt><trkpt lat="31.466328218312338" lon="-6.208387509562389"><ele>1918.0</ele><time>2026-05-04T15:11:18.999Z</time></trkpt><trkpt lat="31.4663720867833" lon="-6.208509727645211"><ele>1918.4</ele><time>2026-05-04T15:11:20.999Z</time></trkpt><trkpt lat="31.466435164843112" lon="-6.208623304567259"><ele>1918.8000000000002</ele><time>2026-05-04T15:11:22.999Z</time></trkpt><trkpt lat="31.46646045657221" lon="-6.208745794314349"><ele>1919.2</ele><time>2026-05-04T15:11:24.999Z</time></trkpt><trkpt lat="31.46647668115498" lon="-6.208876990109663"><ele>1919.6</ele><time>2026-05-04T15:11:26.999Z</time></trkpt><trkpt lat="31.466504663715423" lon="-6.208966495944952"><ele>1920.0</ele><time>2026-05-04T15:11:27.999Z</time></trkpt><trkpt lat="31.466523842872487" lon="-6.209038150956359"><ele>1918.3333333333333</ele><time>2026-05-04T15:11:28.999Z</time></trkpt><trkpt lat="31.466552654744635" lon="-6.209119876965687"><ele>1916.6666666666665</ele><time>2026-05-04T15:11:29.999Z</time></trkpt><trkpt lat="31.4665814314247" lon="-6.20919567410036"><ele>1915.0</ele><time>2026-05-04T15:11:31Z</time></trkpt><trkpt lat="31.46660356992608" lon="-6.209277363443879"><ele>1913.3333333333333</ele><time>2026-05-04T15:11:32Z</time></trkpt><trkpt lat="31.46661200155761" lon="-6.209409366386249"><ele>1911.6666666666665</ele><time>2026-05-04T15:11:34Z</time></trkpt><trkpt lat="31.466647238850783" lon="-6.20947698832171"><ele>1910.0</ele><time>2026-05-04T15:11:35Z</time></trkpt><trkpt lat="31.466690861847898" lon="-6.209531283618178"><ele>1909.9999999999998</ele><time>2026-05-04T15:11:36Z</time></trkpt><trkpt lat="31.466740071585086" lon="-6.209578291236261"><ele>1910.0</ele><time>2026-05-04T15:11:37Z</time></trkpt><trkpt lat="31.466837740203076" lon="-6.20965544900521"><ele>1910.0</ele><time>2026-05-04T15:11:39Z</time></trkpt><trkpt lat="31.46689398003107" lon="-6.2097413664804355"><ele>1910.0</ele><time>2026-05-04T15:11:41Z</time></trkpt><trkpt lat="31.46693733422739" lon="-6.209820482403014"><ele>1909.9999999999998</ele><time>2026-05-04T15:11:43Z</time></trkpt><trkpt lat="31.467014201835685" lon="-6.209837609680392"><ele>1910.0</ele><time>2026-05-04T15:11:45Z</time></trkpt><trkpt lat="31.467101699652936" lon="-6.209834142427662"><ele>1916.8</ele><time>2026-05-04T15:11:47Z</time></trkpt><trkpt lat="31.46720643095957" lon="-6.2098206435030985"><ele>1923.6</ele><time>2026-05-04T15:11:49Z</time></trkpt><trkpt lat="31.467319347902702" lon="-6.209790979114298"><ele>1930.4</ele><time>2026-05-04T15:11:51Z</time></trkpt><trkpt lat="31.467423731314316" lon="-6.209756743918847"><ele>1937.2</ele><time>2026-05-04T15:11:53Z</time></trkpt><trkpt lat="31.4675302757498" lon="-6.209717580667203"><ele>1944.0</ele><time>2026-05-04T15:11:55Z</time></trkpt><trkpt lat="31.467601072762587" lon="-6.209696827085779"><ele>1944.0</ele><time>2026-05-04T15:11:56Z</time></trkpt><trkpt lat="31.467668116452923" lon="-6.209655697405203"><ele>1944.0</ele><time>2026-05-04T15:11:57Z</time></trkpt><trkpt lat="31.46776634024726" lon="-6.2096082872673986"><ele>1944.0</ele><time>2026-05-04T15:11:59Z</time></trkpt><trkpt lat="31.46783638646443" lon="-6.209579722419314"><ele>1944.0</ele><time>2026-05-04T15:12:01Z</time></trkpt><trkpt lat="31.46783658119597" lon="-6.209503803136222"><ele>1944.0</ele><time>2026-05-04T15:12:19Z</time></trkpt><trkpt lat="31.46788268053822" lon="-6.209449442435534"><ele>1944.0</ele><time>2026-05-04T15:12:40Z</time></trkpt><trkpt lat="31.467881743180858" lon="-6.209358972602005"><ele>1944.0</ele><time>2026-05-04T15:12:44Z</time></trkpt><trkpt lat="31.467904445367218" lon="-6.2092868068402485"><ele>1944.0</ele><time>2026-05-04T15:12:50Z</time></trkpt><trkpt lat="31.46807247983758" lon="-6.20925849113049"><ele>1944.0</ele><time>2026-05-04T15:13:08Z</time></trkpt><trkpt lat="31.46802054124407" lon="-6.20920367513041"><ele>1944.0</ele><time>2026-05-04T15:13:26Z</time></trkpt><trkpt lat="31.467944321731714" lon="-6.209187600762608"><ele>1944.0</ele><time>2026-05-04T15:13:33Z</time></trkpt><trkpt lat="31.467920806324404" lon="-6.209116856432228"><ele>1944.0</ele><time>2026-05-04T15:13:37Z</time></trkpt><trkpt lat="31.46788105920558" lon="-6.209189976100935"><ele>1944.0</ele><time>2026-05-04T15:13:41Z</time></trkpt><trkpt lat="31.467820771104886" lon="-6.2092696224594315"><ele>1944.0</ele><time>2026-05-04T15:13:45Z</time></trkpt><trkpt lat="31.46777846167171" lon="-6.209337898068971"><ele>1944.0</ele><time>2026-05-04T15:13:51Z</time></trkpt><trkpt lat="31.467895655584506" lon="-6.209347369506995"><ele>1944.0</ele><time>2026-05-04T15:14:05Z</time></trkpt><trkpt lat="31.468034567371163" lon="-6.2091586846324"><ele>1942.3333333333335</ele><time>2026-05-04T15:14:09Z</time></trkpt><trkpt lat="31.46824588741526" lon="-6.20922512740474"><ele>1940.6666666666667</ele><time>2026-05-04T15:14:12Z</time></trkpt><trkpt lat="31.46847068378641" lon="-6.209175964515752"><ele>1939.0</ele><time>2026-05-04T15:14:14.999Z</time></trkpt><trkpt lat="31.46865296632115" lon="-6.209216086215555"><ele>1939.0000000000002</ele><time>2026-05-04T15:14:16.999Z</time></trkpt><trkpt lat="31.468729764284245" lon="-6.2092461965827805"><ele>1939.0</ele><time>2026-05-04T15:14:17.999Z</time></trkpt><trkpt lat="31.468813240289155" lon="-6.209240435497811"><ele>1939.0</ele><time>2026-05-04T15:14:18.999Z</time></trkpt><trkpt lat="31.468884632359693" lon="-6.209238235945681"><ele>1939.0</ele><time>2026-05-04T15:14:19.999Z</time></trkpt><trkpt lat="31.469020430173114" lon="-6.209264666237144"><ele>1939.0000000000002</ele><time>2026-05-04T15:14:21.999Z</time></trkpt><trkpt lat="31.469096106770763" lon="-6.209265395358127"><ele>1939.0</ele><time>2026-05-04T15:14:22.999Z</time></trkpt><trkpt lat="31.469163129616128" lon="-6.209264725042604"><ele>1940.2</ele><time>2026-05-04T15:14:23.999Z</time></trkpt><trkpt lat="31.469302036389777" lon="-6.209296943393549"><ele>1941.4</ele><time>2026-05-04T15:14:25.999Z</time></trkpt><trkpt lat="31.469381791997563" lon="-6.209315830742472"><ele>1942.6</ele><time>2026-05-04T15:14:26.999Z</time></trkpt><trkpt lat="31.469449868508438" lon="-6.209343246693558"><ele>1943.8</ele><time>2026-05-04T15:14:27.999Z</time></trkpt><trkpt lat="31.46951541287767" lon="-6.209348948793894"><ele>1945.0</ele><time>2026-05-04T15:14:29Z</time></trkpt><trkpt lat="31.469619052172536" lon="-6.209360259543817"><ele>1952.8</ele><time>2026-05-04T15:14:31Z</time></trkpt><trkpt lat="31.469725977865362" lon="-6.209377430201161"><ele>1960.6</ele><time>2026-05-04T15:14:33Z</time></trkpt><trkpt lat="31.469787904617828" lon="-6.209403941135632"><ele>1968.4</ele><time>2026-05-04T15:14:34Z</time></trkpt><trkpt lat="31.46988930077118" lon="-6.209439086337981"><ele>1976.2</ele><time>2026-05-04T15:14:36Z</time></trkpt><trkpt lat="31.469964253732382" lon="-6.209538639623178"><ele>1984.0</ele><time>2026-05-04T15:14:38Z</time></trkpt><trkpt lat="31.47002401771507" lon="-6.209593451355788"><ele>1984.0</ele><time>2026-05-04T15:14:39Z</time></trkpt><trkpt lat="31.470080049410814" lon="-6.209636006144214"><ele>1984.0</ele><time>2026-05-04T15:14:40Z</time></trkpt><trkpt lat="31.47020270001987" lon="-6.209670256741876"><ele>1984.0</ele><time>2026-05-04T15:14:42Z</time></trkpt><trkpt lat="31.470330209110863" lon="-6.2096672168740845"><ele>1984.0</ele><time>2026-05-04T15:14:44Z</time></trkpt><trkpt lat="31.47041475541238" lon="-6.209664252733368"><ele>1984.0</ele><time>2026-05-04T15:14:45Z</time></trkpt><trkpt lat="31.47050027307392" lon="-6.2096681106743645"><ele>1988.5000000000002</ele><time>2026-05-04T15:14:46Z</time></trkpt><trkpt lat="31.4705776465407" lon="-6.209680936761579"><ele>1993.0</ele><time>2026-05-04T15:14:47Z</time></trkpt><trkpt lat="31.470650520439165" lon="-6.209698205664942"><ele>1997.5</ele><time>2026-05-04T15:14:48Z</time></trkpt><trkpt lat="31.47071293094036" lon="-6.209715983548748"><ele>2002.0</ele><time>2026-05-04T15:14:49Z</time></trkpt><trkpt lat="31.470776384185235" lon="-6.209733663445994"><ele>2006.5000000000002</ele><time>2026-05-04T15:14:50Z</time></trkpt><trkpt lat="31.470860242111875" lon="-6.209780224477243"><ele>2011.0</ele><time>2026-05-04T15:14:52Z</time></trkpt><trkpt lat="31.470953959645062" lon="-6.209837489494203"><ele>2011.0000000000002</ele><time>2026-05-04T15:14:54Z</time></trkpt><trkpt lat="31.471022657158922" lon="-6.209856259944938"><ele>2011.0</ele><time>2026-05-04T15:14:55Z</time></trkpt><trkpt lat="31.471100385014694" lon="-6.209864156543813"><ele>2011.0</ele><time>2026-05-04T15:14:56Z</time></trkpt><trkpt lat="31.471189929859875" lon="-6.20986609632687"><ele>2011.0</ele><time>2026-05-04T15:14:57Z</time></trkpt><trkpt lat="31.47128134935895" lon="-6.209862319543295"><ele>2011.0000000000002</ele><time>2026-05-04T15:14:58Z</time></trkpt><trkpt lat="31.47137350310834" lon="-6.2098456733938185"><ele>2011.0</ele><time>2026-05-04T15:14:59Z</time></trkpt><trkpt lat="31.471449893753093" lon="-6.20984476516991"><ele>2011.0000000000002</ele><time>2026-05-04T15:15:00Z</time></trkpt><trkpt lat="31.47152522845788" lon="-6.209846977758191"><ele>2011.0</ele><time>2026-05-04T15:15:01Z</time></trkpt><trkpt lat="31.471593092652036" lon="-6.209857459842289"><ele>2011.0</ele><time>2026-05-04T15:15:02Z</time></trkpt><trkpt lat="31.471669687085704" lon="-6.2098711450681385"><ele>2011.0</ele><time>2026-05-04T15:15:03Z</time></trkpt><trkpt lat="31.47172980218521" lon="-6.209846518330052"><ele>2011.0000000000002</ele><time>2026-05-04T15:15:04Z</time></trkpt><trkpt lat="31.47185259257408" lon="-6.2097952799930445"><ele>2011.0</ele><time>2026-05-04T15:15:06Z</time></trkpt><trkpt lat="31.471912007610538" lon="-6.209761947881452"><ele>1997.1666666666667</ele><time>2026-05-04T15:15:07Z</time></trkpt><trkpt lat="31.471971448878747" lon="-6.209723879304198"><ele>1983.3333333333335</ele><time>2026-05-04T15:15:08Z</time></trkpt><trkpt lat="31.4720966028344" lon="-6.2096901693997735"><ele>1969.5</ele><time>2026-05-04T15:15:10Z</time></trkpt><trkpt lat="31.472163584857093" lon="-6.209688305841905"><ele>1955.6666666666665</ele><time>2026-05-04T15:15:11Z</time></trkpt><trkpt lat="31.472232366434966" lon="-6.2096868875922"><ele>1941.8333333333333</ele><time>2026-05-04T15:15:12Z</time></trkpt><trkpt lat="31.472302145078014" lon="-6.209687860812581"><ele>1928.0</ele><time>2026-05-04T15:15:13Z</time></trkpt><trkpt lat="31.472401028629502" lon="-6.209677934179354"><ele>1928.0</ele><time>2026-05-04T15:15:15Z</time></trkpt><trkpt lat="31.472508634624855" lon="-6.209697159064205"><ele>1928.0000000000002</ele><time>2026-05-04T15:15:17Z</time></trkpt><trkpt lat="31.4726114474436" lon="-6.209738613820569"><ele>1928.0000000000002</ele><time>2026-05-04T15:15:19Z</time></trkpt><trkpt lat="31.47275024251274" lon="-6.209763471454522"><ele>1928.0</ele><time>2026-05-04T15:15:21Z</time></trkpt><trkpt lat="31.472822484659414" lon="-6.209768082006967"><ele>1928.0</ele><time>2026-05-04T15:15:22Z</time></trkpt><trkpt lat="31.472891891663267" lon="-6.209769233871942"><ele>1926.4999999999998</ele><time>2026-05-04T15:15:23Z</time></trkpt><trkpt lat="31.472956464298935" lon="-6.209763874053728"><ele>1925.0</ele><time>2026-05-04T15:15:24Z</time></trkpt><trkpt lat="31.473076047441047" lon="-6.209754965528767"><ele>1923.5</ele><time>2026-05-04T15:15:26Z</time></trkpt><trkpt lat="31.473138973874505" lon="-6.209762225390966"><ele>1922.0</ele><time>2026-05-04T15:15:27Z</time></trkpt><trkpt lat="31.47325713081988" lon="-6.209803412964156"><ele>1920.4999999999998</ele><time>2026-05-04T15:15:29Z</time></trkpt><trkpt lat="31.473319302404693" lon="-6.2098155753825734"><ele>1919.0</ele><time>2026-05-04T15:15:30Z</time></trkpt><trkpt lat="31.473422399513655" lon="-6.2098508927461396"><ele>1918.9999999999998</ele><time>2026-05-04T15:15:32Z</time></trkpt><trkpt lat="31.473506369805005" lon="-6.20991202243757"><ele>1919.0</ele><time>2026-05-04T15:15:34Z</time></trkpt><trkpt lat="31.473550608360927" lon="-6.209973363924479"><ele>1919.0</ele><time>2026-05-04T15:15:39Z</time></trkpt><trkpt lat="31.4734917515361" lon="-6.2099354288701765"><ele>1919.0</ele><time>2026-05-04T15:16:06Z</time></trkpt><trkpt lat="31.47343669667517" lon="-6.209863405292472"><ele>1918.9999999999998</ele><time>2026-05-04T15:16:08Z</time></trkpt><trkpt lat="31.47335147980813" lon="-6.209827908158174"><ele>1919.0</ele><time>2026-05-04T15:16:10Z</time></trkpt><trkpt lat="31.473220727591606" lon="-6.209794441063932"><ele>1920.4999999999998</ele><time>2026-05-04T15:16:12Z</time></trkpt><trkpt lat="31.47315668089088" lon="-6.209780444634867"><ele>1922.0</ele><time>2026-05-04T15:16:13Z</time></trkpt><trkpt lat="31.47309226690862" lon="-6.2097694303589"><ele>1923.5</ele><time>2026-05-04T15:16:14Z</time></trkpt><trkpt lat="31.472975718898258" lon="-6.2097577926947665"><ele>1925.0</ele><time>2026-05-04T15:16:16Z</time></trkpt><trkpt lat="31.47291292963907" lon="-6.209764340987746"><ele>1926.4999999999998</ele><time>2026-05-04T15:16:17Z</time></trkpt><trkpt lat="31.472788410618502" lon="-6.209781094680991"><ele>1928.0</ele><time>2026-05-04T15:16:19Z</time></trkpt><trkpt lat="31.47271558506015" lon="-6.209784808516915"><ele>1928.0</ele><time>2026-05-04T15:16:20Z</time></trkpt><trkpt lat="31.472592539539097" lon="-6.209778004414326"><ele>1928.0000000000002</ele><time>2026-05-04T15:16:22Z</time></trkpt><trkpt lat="31.472486808799506" lon="-6.209727922906122"><ele>1928.0000000000002</ele><time>2026-05-04T15:16:24Z</time></trkpt><trkpt lat="31.472412179006685" lon="-6.209692063643406"><ele>1928.0</ele><time>2026-05-04T15:16:25Z</time></trkpt><trkpt lat="31.472292915210073" lon="-6.209692519475107"><ele>1928.0</ele><time>2026-05-04T15:16:27Z</time></trkpt><trkpt lat="31.472179788112243" lon="-6.209702757573941"><ele>1928.0</ele><time>2026-05-04T15:16:29Z</time></trkpt><trkpt lat="31.4720615145097" lon="-6.209718212884692"><ele>1928.0000000000002</ele><time>2026-05-04T15:16:31Z</time></trkpt><trkpt lat="31.471944305150586" lon="-6.209766031117053"><ele>1928.0000000000002</ele><time>2026-05-04T15:16:33Z</time></trkpt><trkpt lat="31.471890811809015" lon="-6.209812399648029"><ele>1928.0</ele><time>2026-05-04T15:16:34Z</time></trkpt><trkpt lat="31.471834460166775" lon="-6.209852253659012"><ele>1928.0</ele><time>2026-05-04T15:16:35Z</time></trkpt><trkpt lat="31.471734049547297" lon="-6.209901607802656"><ele>1928.0</ele><time>2026-05-04T15:16:37Z</time></trkpt><trkpt lat="31.471638065237887" lon="-6.209923552791211"><ele>1928.0000000000002</ele><time>2026-05-04T15:16:39Z</time></trkpt><trkpt lat="31.471573123483733" lon="-6.209918822873126"><ele>1928.0</ele><time>2026-05-04T15:16:40Z</time></trkpt><trkpt lat="31.47150898020026" lon="-6.209913166468961"><ele>1928.0</ele><time>2026-05-04T15:16:41Z</time></trkpt><trkpt lat="31.471444962444586" lon="-6.209913603806316"><ele>1928.0000000000002</ele><time>2026-05-04T15:16:42Z</time></trkpt><trkpt lat="31.471379072852496" lon="-6.2099246834364035"><ele>1928.0</ele><time>2026-05-04T15:16:43Z</time></trkpt><trkpt lat="31.471304403418433" lon="-6.209939593428525"><ele>1928.0</ele><time>2026-05-04T15:16:44Z</time></trkpt><trkpt lat="31.47123024788381" lon="-6.209956334734412"><ele>1941.8333333333333</ele><time>2026-05-04T15:16:45Z</time></trkpt><trkpt lat="31.471153860083728" lon="-6.209968070776958"><ele>1955.6666666666665</ele><time>2026-05-04T15:16:46Z</time></trkpt><trkpt lat="31.471080401980952" lon="-6.209968569790404"><ele>1969.5</ele><time>2026-05-04T15:16:47Z</time></trkpt><trkpt lat="31.47101227825758" lon="-6.209965664559148"><ele>1983.3333333333335</ele><time>2026-05-04T15:16:48Z</time></trkpt><trkpt lat="31.470951112340323" lon="-6.209937943846935"><ele>1997.1666666666667</ele><time>2026-05-04T15:16:49Z</time></trkpt><trkpt lat="31.47091500964468" lon="-6.209869248727247"><ele>2011.0</ele><time>2026-05-04T15:16:50Z</time></trkpt><trkpt lat="31.4708305889307" lon="-6.2098100767600695"><ele>2011.0</ele><time>2026-05-04T15:16:52Z</time></trkpt><trkpt lat="31.470713957310792" lon="-6.209791018617703"><ele>2011.0</ele><time>2026-05-04T15:16:54Z</time></trkpt><trkpt lat="31.470611676777935" lon="-6.2097610324286086"><ele>2011.0</ele><time>2026-05-04T15:16:56Z</time></trkpt><trkpt lat="31.470503322861383" lon="-6.209743207539743"><ele>2011.0</ele><time>2026-05-04T15:16:58Z</time></trkpt><trkpt lat="31.47037846027165" lon="-6.209731798523509"><ele>2006.5000000000002</ele><time>2026-05-04T15:17:00Z</time></trkpt><trkpt lat="31.47028372425338" lon="-6.2097389843396025"><ele>2002.0</ele><time>2026-05-04T15:17:02Z</time></trkpt><trkpt lat="31.47020252951651" lon="-6.209725724813463"><ele>1997.5</ele><time>2026-05-04T15:17:04Z</time></trkpt><trkpt lat="31.47013665590348" lon="-6.209671014821153"><ele>1993.0</ele><time>2026-05-04T15:17:06Z</time></trkpt><trkpt lat="31.470057474112465" lon="-6.209609587849855"><ele>1988.5000000000002</ele><time>2026-05-04T15:17:08Z</time></trkpt><trkpt lat="31.469974490952534" lon="-6.209568292535504"><ele>1984.0</ele><time>2026-05-04T15:17:10Z</time></trkpt><trkpt lat="31.469915950169824" lon="-6.209539271903974"><ele>1984.0000000000002</ele><time>2026-05-04T15:17:11Z</time></trkpt><trkpt lat="31.469850984611185" lon="-6.209509062720524"><ele>1984.0</ele><time>2026-05-04T15:17:12Z</time></trkpt><trkpt lat="31.4697871290589" lon="-6.209500790802064"><ele>1984.0</ele><time>2026-05-04T15:17:13Z</time></trkpt><trkpt lat="31.469703273624976" lon="-6.209508444085868"><ele>1984.0</ele><time>2026-05-04T15:17:15Z</time></trkpt><trkpt lat="31.46961427813712" lon="-6.2094759284196055"><ele>1984.0000000000002</ele><time>2026-05-04T15:17:17Z</time></trkpt><trkpt lat="31.469498055859766" lon="-6.209451030471233"><ele>1984.0</ele><time>2026-05-04T15:17:19Z</time></trkpt><trkpt lat="31.46942791476693" lon="-6.209428379830475"><ele>1976.2</ele><time>2026-05-04T15:17:21Z</time></trkpt><trkpt lat="31.469351618555017" lon="-6.20939127615174"><ele>1968.4</ele><time>2026-05-04T15:17:29Z</time></trkpt><trkpt lat="31.469280109185515" lon="-6.209383228184708"><ele>1960.6</ele><time>2026-05-04T15:17:48Z</time></trkpt><trkpt lat="31.469168132566214" lon="-6.209362604671231"><ele>1952.8</ele><time>2026-05-04T15:17:51Z</time></trkpt><trkpt lat="31.469048081167728" lon="-6.209367987671279"><ele>1945.0</ele><time>2026-05-04T15:17:53.001Z</time></trkpt><trkpt lat="31.468921736539976" lon="-6.209378062551101"><ele>1945.0</ele><time>2026-05-04T15:17:55.001Z</time></trkpt><trkpt lat="31.468832350051144" lon="-6.209358866219894"><ele>1945.0</ele><time>2026-05-04T15:17:57.001Z</time></trkpt><trkpt lat="31.468716221779594" lon="-6.209343509517006"><ele>1945.0</ele><time>2026-05-04T15:17:59.001Z</time></trkpt><trkpt lat="31.46865277082508" lon="-6.209342173301695"><ele>1945.0</ele><time>2026-05-04T15:18:00.001Z</time></trkpt><trkpt lat="31.468558617919047" lon="-6.209350300082153"><ele>1945.0</ele><time>2026-05-04T15:18:02.001Z</time></trkpt><trkpt lat="31.468473459508367" lon="-6.209369765839823"><ele>1943.5</ele><time>2026-05-04T15:18:04.001Z</time></trkpt><trkpt lat="31.468373191951322" lon="-6.209382720920354"><ele>1942.0</ele><time>2026-05-04T15:18:06.001Z</time></trkpt><trkpt lat="31.468269530697043" lon="-6.20940368178625"><ele>1940.5</ele><time>2026-05-04T15:18:08.001Z</time></trkpt><trkpt lat="31.46816281550717" lon="-6.209420482910607"><ele>1939.0</ele><time>2026-05-04T15:18:10.001Z</time></trkpt><trkpt lat="31.468007584812153" lon="-6.20941898875205"><ele>1940.0</ele><time>2026-05-04T15:18:14.001Z</time></trkpt><trkpt lat="31.467931400842446" lon="-6.209421203349638"><ele>1941.0</ele><time>2026-05-04T15:18:15.001Z</time></trkpt><trkpt lat="31.46781938530043" lon="-6.20947482427068"><ele>1942.0</ele><time>2026-05-04T15:18:17.001Z</time></trkpt><trkpt lat="31.46771994478549" lon="-6.209528571076727"><ele>1943.0</ele><time>2026-05-04T15:18:19.001Z</time></trkpt><trkpt lat="31.46762185708714" lon="-6.20956673035839"><ele>1944.0</ele><time>2026-05-04T15:18:21.001Z</time></trkpt><trkpt lat="31.467527101931225" lon="-6.209603897248481"><ele>1944.0</ele><time>2026-05-04T15:18:23.001Z</time></trkpt><trkpt lat="31.467455103217524" lon="-6.209622357022688"><ele>1944.0</ele><time>2026-05-04T15:18:25.001Z</time></trkpt><trkpt lat="31.46735444201686" lon="-6.2096398423189125"><ele>1944.0</ele><time>2026-05-04T15:18:27.001Z</time></trkpt><trkpt lat="31.467251631549026" lon="-6.209682394491049"><ele>1944.0</ele><time>2026-05-04T15:18:29.001Z</time></trkpt><trkpt lat="31.467152914646505" lon="-6.209709077918786"><ele>1944.0</ele><time>2026-05-04T15:18:31.001Z</time></trkpt><trkpt lat="31.46705886740853" lon="-6.209726559118731"><ele>1937.2</ele><time>2026-05-04T15:18:33.001Z</time></trkpt><trkpt lat="31.46698005490484" lon="-6.209714249261863"><ele>1930.4</ele><time>2026-05-04T15:18:35.001Z</time></trkpt><trkpt lat="31.466907126427287" lon="-6.2096467273587415"><ele>1923.6</ele><time>2026-05-04T15:18:37.001Z</time></trkpt><trkpt lat="31.466827301547315" lon="-6.209566617159561"><ele>1916.8</ele><time>2026-05-04T15:18:39.001Z</time></trkpt><trkpt lat="31.46672958338896" lon="-6.20949801590062"><ele>1910.0</ele><time>2026-05-04T15:18:41.001Z</time></trkpt><trkpt lat="31.46666329483396" lon="-6.209391919872095"><ele>1910.0</ele><time>2026-05-04T15:18:43.001Z</time></trkpt><trkpt lat="31.466637861127545" lon="-6.209281096198361"><ele>1910.0</ele><time>2026-05-04T15:18:45.001Z</time></trkpt><trkpt lat="31.466622709466535" lon="-6.20915909359974"><ele>1910.0</ele><time>2026-05-04T15:18:47.001Z</time></trkpt><trkpt lat="31.466607036908087" lon="-6.209031978476211"><ele>1910.0</ele><time>2026-05-04T15:18:49.001Z</time></trkpt><trkpt lat="31.466572981384118" lon="-6.208911116544533"><ele>1910.0</ele><time>2026-05-04T15:18:51.001Z</time></trkpt><trkpt lat="31.466547308773052" lon="-6.208802578801184"><ele>1912.0</ele><time>2026-05-04T15:18:53.001Z</time></trkpt><trkpt lat="31.46652277341953" lon="-6.208697018733231"><ele>1914.0</ele><time>2026-05-04T15:18:55.001Z</time></trkpt><trkpt lat="31.466507486679877" lon="-6.208576963907775"><ele>1916.0</ele><time>2026-05-04T15:18:57.001Z</time></trkpt><trkpt lat="31.46649067526122" lon="-6.20846356280689"><ele>1918.0</ele><time>2026-05-04T15:18:59.001Z</time></trkpt><trkpt lat="31.466451529658865" lon="-6.20836837315427"><ele>1920.0</ele><time>2026-05-04T15:19:01.001Z</time></trkpt><trkpt lat="31.466422320756575" lon="-6.208273349002944"><ele>1919.6</ele><time>2026-05-04T15:19:03.001Z</time></trkpt><trkpt lat="31.466406859094295" lon="-6.208136793381557"><ele>1919.2</ele><time>2026-05-04T15:19:05.001Z</time></trkpt><trkpt lat="31.466407529768993" lon="-6.208007625540428"><ele>1918.8000000000002</ele><time>2026-05-04T15:19:07.001Z</time></trkpt><trkpt lat="31.466366068932583" lon="-6.2078974482546085"><ele>1918.4</ele><time>2026-05-04T15:19:09.001Z</time></trkpt><trkpt lat="31.46628941086981" lon="-6.20781969782255"><ele>1918.0</ele><time>2026-05-04T15:19:11.001Z</time></trkpt><trkpt lat="31.466192212774878" lon="-6.207804721986904"><ele>1918.0</ele><time>2026-05-04T15:19:13.001Z</time></trkpt><trkpt lat="31.4660809378438" lon="-6.207760860292508"><ele>1918.0000000000002</ele><time>2026-05-04T15:19:15.001Z</time></trkpt><trkpt lat="31.465965495866214" lon="-6.207759359933227"><ele>1918.0000000000002</ele><time>2026-05-04T15:19:17.001Z</time></trkpt><trkpt lat="31.465873931824323" lon="-6.207748674994515"><ele>1918.0</ele><time>2026-05-04T15:19:19.001Z</time></trkpt><trkpt lat="31.46580712467407" lon="-6.20774371915603"><ele>1918.0</ele><time>2026-05-04T15:19:27.001Z</time></trkpt><trkpt lat="31.46573267034159" lon="-6.207737590902029"><ele>1918.0000000000002</ele><time>2026-05-04T15:19:29.001Z</time></trkpt><trkpt lat="31.465646345345352" lon="-6.207730857508812"><ele>1918.0</ele><time>2026-05-04T15:19:31.001Z</time></trkpt><trkpt lat="31.46555458746346" lon="-6.207707651115768"><ele>1918.0</ele><time>2026-05-04T15:19:33.001Z</time></trkpt><trkpt lat="31.46543827535986" lon="-6.207710048499122"><ele>1918.0</ele><time>2026-05-04T15:19:35.001Z</time></trkpt><trkpt lat="31.465372705267274" lon="-6.2077195116406205"><ele>1918.0000000000002</ele><time>2026-05-04T15:19:36.001Z</time></trkpt><trkpt lat="31.465297577182415" lon="-6.20773799796077"><ele>1918.0</ele><time>2026-05-04T15:19:37.001Z</time></trkpt><trkpt lat="31.465173219409124" lon="-6.2077231869956915"><ele>1916.1666666666667</ele><time>2026-05-04T15:19:39.001Z</time></trkpt><trkpt lat="31.465108722079655" lon="-6.20772728417448"><ele>1914.3333333333335</ele><time>2026-05-04T15:19:40.001Z</time></trkpt><trkpt lat="31.465021163809162" lon="-6.207730533919341"><ele>1912.5</ele><time>2026-05-04T15:19:41.001Z</time></trkpt><trkpt lat="31.4649300973114" lon="-6.2077500922114055"><ele>1910.6666666666665</ele><time>2026-05-04T15:19:42.001Z</time></trkpt><trkpt lat="31.46484923143617" lon="-6.2077659725567"><ele>1908.8333333333333</ele><time>2026-05-04T15:19:43.001Z</time></trkpt><trkpt lat="31.464786412464793" lon="-6.207786815317116"><ele>1907.0</ele><time>2026-05-04T15:19:44.001Z</time></trkpt><trkpt lat="31.46472092214023" lon="-6.207808544148226"><ele>1907.0</ele><time>2026-05-04T15:19:45.001Z</time></trkpt><trkpt lat="31.464655811043535" lon="-6.207827828796682"><ele>1907.0000000000002</ele><time>2026-05-04T15:19:46.001Z</time></trkpt><trkpt lat="31.46458242262923" lon="-6.207844926705106"><ele>1907.0</ele><time>2026-05-04T15:19:47.001Z</time></trkpt><trkpt lat="31.464512033360712" lon="-6.207846522649908"><ele>1907.0</ele><time>2026-05-04T15:19:48.001Z</time></trkpt><trkpt lat="31.46444906841186" lon="-6.2078503442594055"><ele>1907.0000000000002</ele><time>2026-05-04T15:19:49.001Z</time></trkpt><trkpt lat="31.464388462447527" lon="-6.2078734754676"><ele>1907.0</ele><time>2026-05-04T15:19:50.001Z</time></trkpt><trkpt lat="31.464305672918176" lon="-6.207866469963274"><ele>1907.0</ele><time>2026-05-04T15:19:52.001Z</time></trkpt><trkpt lat="31.464232998091777" lon="-6.207874825780279"><ele>1903.6</ele><time>2026-05-04T15:19:55.001Z</time></trkpt><trkpt lat="31.464145867295034" lon="-6.207839583587323"><ele>1900.1999999999998</ele><time>2026-05-04T15:19:57.001Z</time></trkpt><trkpt lat="31.464033848599364" lon="-6.207860860371901"><ele>1896.8</ele><time>2026-05-04T15:19:59.001Z</time></trkpt><trkpt lat="31.463921804562236" lon="-6.207862160379914"><ele>1893.4</ele><time>2026-05-04T15:20:01.001Z</time></trkpt><trkpt lat="31.46384830958556" lon="-6.20786219812998"><ele>1890.0</ele><time>2026-05-04T15:20:02.001Z</time></trkpt><trkpt lat="31.463760316896323" lon="-6.207865466353118"><ele>1885.5</ele><time>2026-05-04T15:20:03.001Z</time></trkpt><trkpt lat="31.46365460744379" lon="-6.2078268663755205"><ele>1881.0</ele><time>2026-05-04T15:20:05.001Z</time></trkpt><trkpt lat="31.463586970881536" lon="-6.207799266683247"><ele>1876.5</ele><time>2026-05-04T15:20:06.001Z</time></trkpt><trkpt lat="31.463507896527418" lon="-6.207760110844576"><ele>1872.0</ele><time>2026-05-04T15:20:07.001Z</time></trkpt><trkpt lat="31.46345328735982" lon="-6.207716997713466"><ele>1867.5</ele><time>2026-05-04T15:20:08.001Z</time></trkpt><trkpt lat="31.463395053893887" lon="-6.207671360146999"><ele>1863.0</ele><time>2026-05-04T15:20:09.001Z</time></trkpt><trkpt lat="31.463310971496206" lon="-6.207600216255452"><ele>1863.0</ele><time>2026-05-04T15:20:11.001Z</time></trkpt><trkpt lat="31.463226074008055" lon="-6.207533770639217"><ele>1863.0</ele><time>2026-05-04T15:20:13.001Z</time></trkpt><trkpt lat="31.463116734427096" lon="-6.2074911633814045"><ele>1863.0</ele><time>2026-05-04T15:20:15.001Z</time></trkpt><trkpt lat="31.463019136674617" lon="-6.2074161222821855"><ele>1863.0</ele><time>2026-05-04T15:20:17.001Z</time></trkpt><trkpt lat="31.46290882850481" lon="-6.207329454586043"><ele>1861.6000000000001</ele><time>2026-05-04T15:20:19.001Z</time></trkpt><trkpt lat="31.46282456218649" lon="-6.207253404998908"><ele>1860.2000000000003</ele><time>2026-05-04T15:20:21.001Z</time></trkpt><trkpt lat="31.462746737773212" lon="-6.207198361513929"><ele>1858.8</ele><time>2026-05-04T15:20:22.001Z</time></trkpt><trkpt lat="31.462656167116005" lon="-6.207092240063211"><ele>1857.4</ele><time>2026-05-04T15:20:24.001Z</time></trkpt><trkpt lat="31.462602826216813" lon="-6.207037745390757"><ele>1856.0</ele><time>2026-05-04T15:20:26.001Z</time></trkpt><trkpt lat="31.462537521804524" lon="-6.206990401388945"><ele>1856.0</ele><time>2026-05-04T15:20:27.001Z</time></trkpt><trkpt lat="31.46244168069276" lon="-6.206885759796025"><ele>1856.0</ele><time>2026-05-04T15:20:29.001Z</time></trkpt><trkpt lat="31.46238121228554" lon="-6.20684549491112"><ele>1856.0</ele><time>2026-05-04T15:20:30.001Z</time></trkpt><trkpt lat="31.462322065493627" lon="-6.206801692328785"><ele>1856.0</ele><time>2026-05-04T15:20:31.001Z</time></trkpt><trkpt lat="31.462237849449902" lon="-6.206726426525554"><ele>1856.0</ele><time>2026-05-04T15:20:33.001Z</time></trkpt><trkpt lat="31.462171225796766" lon="-6.206666385810162"><ele>1856.1999999999998</ele><time>2026-05-04T15:20:35.001Z</time></trkpt><trkpt lat="31.46210633128361" lon="-6.2066133010178115"><ele>1856.3999999999999</ele><time>2026-05-04T15:20:37.001Z</time></trkpt><trkpt lat="31.462027864712653" lon="-6.2065296966610175"><ele>1856.6</ele><time>2026-05-04T15:20:39.001Z</time></trkpt><trkpt lat="31.461934895442788" lon="-6.206437856093126"><ele>1856.8</ele><time>2026-05-04T15:20:41.001Z</time></trkpt><trkpt lat="31.461830108631116" lon="-6.206359748498917"><ele>1857.0</ele><time>2026-05-04T15:20:43.001Z</time></trkpt><trkpt lat="31.461764210557664" lon="-6.206281909702563"><ele>1854.5</ele><time>2026-05-04T15:20:44.001Z</time></trkpt><trkpt lat="31.46171202499731" lon="-6.20622718925631"><ele>1852.0</ele><time>2026-05-04T15:20:45.001Z</time></trkpt><trkpt lat="31.461591300500476" lon="-6.206173634371049"><ele>1849.5</ele><time>2026-05-04T15:20:47.001Z</time></trkpt><trkpt lat="31.461527221850023" lon="-6.20614165429112"><ele>1847.0</ele><time>2026-05-04T15:20:48.001Z</time></trkpt><trkpt lat="31.461456367124285" lon="-6.206127946296299"><ele>1844.5</ele><time>2026-05-04T15:20:49.001Z</time></trkpt><trkpt lat="31.46137912982862" lon="-6.206071905471164"><ele>1842.0</ele><time>2026-05-04T15:20:50.001Z</time></trkpt><trkpt lat="31.461289243809233" lon="-6.206028956739196"><ele>1843.0</ele><time>2026-05-04T15:20:53.001Z</time></trkpt><trkpt lat="31.461173234518867" lon="-6.206071809929468"><ele>1843.9999999999998</ele><time>2026-05-04T15:20:55.001Z</time></trkpt><trkpt lat="31.46108847761648" lon="-6.20607274420827"><ele>1844.9999999999998</ele><time>2026-05-04T15:20:56.001Z</time></trkpt><trkpt lat="31.46100389309722" lon="-6.206030242985666"><ele>1846.0</ele><time>2026-05-04T15:20:57.001Z</time></trkpt><trkpt lat="31.460912237044823" lon="-6.2060057327108336"><ele>1847.0</ele><time>2026-05-04T15:20:58.001Z</time></trkpt><trkpt lat="31.460812430172993" lon="-6.205959446660447"><ele>1847.0</ele><time>2026-05-04T15:20:59.001Z</time></trkpt><trkpt lat="31.460716126883835" lon="-6.205901207828084"><ele>1846.9999999999998</ele><time>2026-05-04T15:21:00.001Z</time></trkpt><trkpt lat="31.460655660480963" lon="-6.205863314014279"><ele>1846.9999999999998</ele><time>2026-05-04T15:21:01.001Z</time></trkpt><trkpt lat="31.460587989430422" lon="-6.205833169251792"><ele>1847.0</ele><time>2026-05-04T15:21:02.001Z</time></trkpt><trkpt lat="31.460449684494176" lon="-6.20580585896684"><ele>1847.0</ele><time>2026-05-04T15:21:04.001Z</time></trkpt><trkpt lat="31.460364664221057" lon="-6.2057993887018945"><ele>1847.8</ele><time>2026-05-04T15:21:05.001Z</time></trkpt><trkpt lat="31.460282845496327" lon="-6.2057770980036135"><ele>1848.6</ele><time>2026-05-04T15:21:06.001Z</time></trkpt><trkpt lat="31.460181023883553" lon="-6.20572331163384"><ele>1849.3999999999999</ele><time>2026-05-04T15:21:08.001Z</time></trkpt><trkpt lat="31.460044058183648" lon="-6.205798105654829"><ele>1850.1999999999998</ele><time>2026-05-04T15:21:10.001Z</time></trkpt><trkpt lat="31.45997981962167" lon="-6.20587870126181"><ele>1851.0</ele><time>2026-05-04T15:21:11.001Z</time></trkpt><trkpt lat="31.459939254044063" lon="-6.205949270975913"><ele>1851.0</ele><time>2026-05-04T15:21:12.001Z</time></trkpt><trkpt lat="31.459887373104763" lon="-6.2060275292709015"><ele>1851.0</ele><time>2026-05-04T15:21:14.001Z</time></trkpt><trkpt lat="31.459791011601535" lon="-6.2060678432515815"><ele>1851.0</ele><time>2026-05-04T15:21:16.001Z</time></trkpt><trkpt lat="31.459699570484343" lon="-6.20601456266662"><ele>1851.0</ele><time>2026-05-04T15:21:17.001Z</time></trkpt><trkpt lat="31.4596269205873" lon="-6.205875990717507"><ele>1851.0</ele><time>2026-05-04T15:21:18.001Z</time></trkpt><trkpt lat="31.45959972169783" lon="-6.205725309115694"><ele>1850.8</ele><time>2026-05-04T15:21:19.001Z</time></trkpt><trkpt lat="31.4595798983893" lon="-6.205649816253496"><ele>1850.6</ele><time>2026-05-04T15:21:21.001Z</time></trkpt><trkpt lat="31.45951141903547" lon="-6.20558556315886"><ele>1850.4</ele><time>2026-05-04T15:21:23.001Z</time></trkpt><trkpt lat="31.459385694312022" lon="-6.205563615479037"><ele>1850.2</ele><time>2026-05-04T15:21:25.001Z</time></trkpt><trkpt lat="31.45930697243852" lon="-6.20561488172308"><ele>1850.0</ele><time>2026-05-04T15:21:26.001Z</time></trkpt><trkpt lat="31.459239199137336" lon="-6.205665049033143"><ele>1849.9999999999998</ele><time>2026-05-04T15:21:27.001Z</time></trkpt><trkpt lat="31.45916086730963" lon="-6.205692734534269"><ele>1850.0</ele><time>2026-05-04T15:21:28.001Z</time></trkpt><trkpt lat="31.459069900618445" lon="-6.20572639406857"><ele>1850.0</ele><time>2026-05-04T15:21:29.001Z</time></trkpt><trkpt lat="31.458992445861096" lon="-6.205775133338449"><ele>1850.0</ele><time>2026-05-04T15:21:30.001Z</time></trkpt><trkpt lat="31.458916398432102" lon="-6.205831999254117"><ele>1849.9999999999998</ele><time>2026-05-04T15:21:31.001Z</time></trkpt><trkpt lat="31.458849041744468" lon="-6.205878511715697"><ele>1850.0</ele><time>2026-05-04T15:21:32.001Z</time></trkpt><trkpt lat="31.45878050004222" lon="-6.20592414936049"><ele>1849.4</ele><time>2026-05-04T15:21:33.001Z</time></trkpt><trkpt lat="31.45865895014796" lon="-6.205958973216065"><ele>1848.8</ele><time>2026-05-04T15:21:35.001Z</time></trkpt><trkpt lat="31.45858265087628" lon="-6.205988459431572"><ele>1848.1999999999998</ele><time>2026-05-04T15:21:36.001Z</time></trkpt><trkpt lat="31.458481067491498" lon="-6.205980017863343"><ele>1847.6</ele><time>2026-05-04T15:21:37.001Z</time></trkpt><trkpt lat="31.458401559182033" lon="-6.205969356725344"><ele>1847.0</ele><time>2026-05-04T15:21:38.001Z</time></trkpt><trkpt lat="31.458328256562343" lon="-6.205961956498686"><ele>1846.9999999999998</ele><time>2026-05-04T15:21:39.001Z</time></trkpt><trkpt lat="31.45825688527803" lon="-6.205953559433829"><ele>1847.0</ele><time>2026-05-04T15:21:40.001Z</time></trkpt><trkpt lat="31.45818095861503" lon="-6.205952618477229"><ele>1847.0</ele><time>2026-05-04T15:21:41.001Z</time></trkpt><trkpt lat="31.45807234425823" lon="-6.205978994463232"><ele>1847.0</ele><time>2026-05-04T15:21:43.001Z</time></trkpt><trkpt lat="31.457974942489574" lon="-6.206018854090081"><ele>1846.9999999999998</ele><time>2026-05-04T15:21:45.001Z</time></trkpt><trkpt lat="31.457905658969093" lon="-6.206032853642804"><ele>1847.0</ele><time>2026-05-04T15:21:46.001Z</time></trkpt><trkpt lat="31.457841256722116" lon="-6.206013708428269"><ele>1846.1666666666665</ele><time>2026-05-04T15:21:47.001Z</time></trkpt><trkpt lat="31.457773823916103" lon="-6.205993875360357"><ele>1845.3333333333333</ele><time>2026-05-04T15:21:48.001Z</time></trkpt><trkpt lat="31.457709904599977" lon="-6.205974934780579"><ele>1844.5</ele><time>2026-05-04T15:21:49.001Z</time></trkpt><trkpt lat="31.457646021054597" lon="-6.205961740832719"><ele>1843.6666666666665</ele><time>2026-05-04T15:21:50.001Z</time></trkpt><trkpt lat="31.457516853778284" lon="-6.205953294256532"><ele>1842.8333333333333</ele><time>2026-05-04T15:21:52.001Z</time></trkpt><trkpt lat="31.45744641925064" lon="-6.2059426463488405"><ele>1842.0</ele><time>2026-05-04T15:21:53.001Z</time></trkpt><trkpt lat="31.45737775082402" lon="-6.2059710966739035"><ele>1842.0000000000002</ele><time>2026-05-04T15:21:54.001Z</time></trkpt><trkpt lat="31.457308504072348" lon="-6.206007502659838"><ele>1842.0</ele><time>2026-05-04T15:21:55.001Z</time></trkpt><trkpt lat="31.457237996967148" lon="-6.206044748798709"><ele>1842.0000000000002</ele><time>2026-05-04T15:21:56.001Z</time></trkpt><trkpt lat="31.45717425728009" lon="-6.206079706847385"><ele>1842.0000000000002</ele><time>2026-05-04T15:21:57.001Z</time></trkpt><trkpt lat="31.457109568296175" lon="-6.206111813723938"><ele>1842.0</ele><time>2026-05-04T15:21:58.001Z</time></trkpt><trkpt lat="31.4570476943702" lon="-6.206148316284009"><ele>1842.0000000000002</ele><time>2026-05-04T15:21:59.001Z</time></trkpt><trkpt lat="31.456991235780816" lon="-6.206197265795437"><ele>1842.0000000000002</ele><time>2026-05-04T15:22:00.001Z</time></trkpt><trkpt lat="31.45687576771309" lon="-6.206261604348645"><ele>1842.6666666666667</ele><time>2026-05-04T15:22:02.001Z</time></trkpt><trkpt lat="31.456818983045167" lon="-6.206309464215254"><ele>1843.3333333333335</ele><time>2026-05-04T15:22:03.001Z</time></trkpt><trkpt lat="31.456764899531393" lon="-6.206354402391652"><ele>1844.0</ele><time>2026-05-04T15:22:04.001Z</time></trkpt><trkpt lat="31.45667339859808" lon="-6.20644765158124"><ele>1844.6666666666667</ele><time>2026-05-04T15:22:06.001Z</time></trkpt><trkpt lat="31.456611566043843" lon="-6.206481849859204"><ele>1845.3333333333335</ele><time>2026-05-04T15:22:07.001Z</time></trkpt><trkpt lat="31.45655388231214" lon="-6.206523750320031"><ele>1846.0</ele><time>2026-05-04T15:22:08.001Z</time></trkpt><trkpt lat="31.456496136291307" lon="-6.206565389045968"><ele>1846.0000000000002</ele><time>2026-05-04T15:22:09.001Z</time></trkpt><trkpt lat="31.456439346235165" lon="-6.206601286760149"><ele>1846.0</ele><time>2026-05-04T15:22:10.001Z</time></trkpt><trkpt lat="31.456375438070115" lon="-6.20662057977639"><ele>1846.0</ele><time>2026-05-04T15:22:11.001Z</time></trkpt><trkpt lat="31.45626803658124" lon="-6.206689210944992"><ele>1846.0</ele><time>2026-05-04T15:22:13.001Z</time></trkpt><trkpt lat="31.456182554150516" lon="-6.206764520051802"><ele>1846.0000000000002</ele><time>2026-05-04T15:22:15.001Z</time></trkpt><trkpt lat="31.45610344193713" lon="-6.206809651144558"><ele>1846.0</ele><time>2026-05-04T15:22:17.001Z</time></trkpt><trkpt lat="31.456021053101193" lon="-6.206857776065746"><ele>1844.5000000000002</ele><time>2026-05-04T15:22:19.001Z</time></trkpt><trkpt lat="31.455904619758815" lon="-6.206930400653177"><ele>1843.0</ele><time>2026-05-04T15:22:21.001Z</time></trkpt><trkpt lat="31.455834910089248" lon="-6.206961941038611"><ele>1841.5</ele><time>2026-05-04T15:22:22.001Z</time></trkpt><trkpt lat="31.455771162847437" lon="-6.206978635257708"><ele>1840.0</ele><time>2026-05-04T15:22:23.001Z</time></trkpt><trkpt lat="31.455708483265695" lon="-6.207000493494036"><ele>1838.5000000000002</ele><time>2026-05-04T15:22:24.001Z</time></trkpt><trkpt lat="31.45564516874919" lon="-6.207024892411652"><ele>1837.0</ele><time>2026-05-04T15:22:25.001Z</time></trkpt><trkpt lat="31.455530082374864" lon="-6.2070705720624995"><ele>1836.3333333333335</ele><time>2026-05-04T15:22:27.001Z</time></trkpt><trkpt lat="31.45544597370763" lon="-6.207100979767203"><ele>1835.6666666666667</ele><time>2026-05-04T15:22:29.001Z</time></trkpt><trkpt lat="31.455382921318826" lon="-6.2071318197739025"><ele>1835.0</ele><time>2026-05-04T15:22:31.001Z</time></trkpt><trkpt lat="31.455307095945418" lon="-6.207165233156133"><ele>1834.3333333333335</ele><time>2026-05-04T15:22:33.001Z</time></trkpt><trkpt lat="31.455239958519847" lon="-6.207209836356766"><ele>1833.6666666666667</ele><time>2026-05-04T15:22:34.001Z</time></trkpt><trkpt lat="31.45516291631858" lon="-6.207302112108748"><ele>1833.0</ele><time>2026-05-04T15:22:36.001Z</time></trkpt><trkpt lat="31.45507208389328" lon="-6.2073898716796565"><ele>1834.5</ele><time>2026-05-04T15:22:38.001Z</time></trkpt><trkpt lat="31.455026116706616" lon="-6.207441951752999"><ele>1836.0</ele><time>2026-05-04T15:22:39.001Z</time></trkpt><trkpt lat="31.454984134365954" lon="-6.207498679590969"><ele>1837.5</ele><time>2026-05-04T15:22:40.001Z</time></trkpt><trkpt lat="31.454943399674363" lon="-6.20755888873927"><ele>1839.0</ele><time>2026-05-04T15:22:41.001Z</time></trkpt><trkpt lat="31.45490653753539" lon="-6.207623014560198"><ele>1840.5</ele><time>2026-05-04T15:22:42.001Z</time></trkpt><trkpt lat="31.454840414200515" lon="-6.207738600193039"><ele>1842.0</ele><time>2026-05-04T15:22:44.001Z</time></trkpt><trkpt lat="31.45477262395327" lon="-6.207855962669345"><ele>1842.0</ele><time>2026-05-04T15:22:46.001Z</time></trkpt><trkpt lat="31.45473532800686" lon="-6.207920343832358"><ele>1841.9999999999998</ele><time>2026-05-04T15:22:47.001Z</time></trkpt><trkpt lat="31.454665852275436" lon="-6.208039473002099"><ele>1841.9999999999998</ele><time>2026-05-04T15:22:49.001Z</time></trkpt><trkpt lat="31.454569810716112" lon="-6.2081255790298515"><ele>1842.0</ele><time>2026-05-04T15:22:51.001Z</time></trkpt><trkpt lat="31.45449003747688" lon="-6.208205669253903"><ele>1842.0</ele><time>2026-05-04T15:22:53.001Z</time></trkpt><trkpt lat="31.454433385686077" lon="-6.208284320134392"><ele>1841.8</ele><time>2026-05-04T15:22:55.001Z</time></trkpt><trkpt lat="31.45434104216285" lon="-6.208340756826536"><ele>1841.6</ele><time>2026-05-04T15:22:57.001Z</time></trkpt><trkpt lat="31.45424386706392" lon="-6.208372001083597"><ele>1841.3999999999999</ele><time>2026-05-04T15:22:59.001Z</time></trkpt><trkpt lat="31.454171754147445" lon="-6.208386366975742"><ele>1841.1999999999998</ele><time>2026-05-04T15:23:01.001Z</time></trkpt><trkpt lat="31.454063360642913" lon="-6.2084087894232125"><ele>1841.0</ele><time>2026-05-04T15:23:03.001Z</time></trkpt><trkpt lat="31.45399645750058" lon="-6.20841086730992"><ele>1840.9999999999998</ele><time>2026-05-04T15:23:04.001Z</time></trkpt><trkpt lat="31.453929109839297" lon="-6.208430652523511"><ele>1841.0</ele><time>2026-05-04T15:23:05.001Z</time></trkpt><trkpt lat="31.453859957648906" lon="-6.208432894156091"><ele>1841.0</ele><time>2026-05-04T15:23:06.001Z</time></trkpt><trkpt lat="31.453781599345962" lon="-6.208428346148042"><ele>1841.0</ele><time>2026-05-04T15:23:07.001Z</time></trkpt><trkpt lat="31.45371809587276" lon="-6.208404080662937"><ele>1840.9999999999998</ele><time>2026-05-04T15:23:08.001Z</time></trkpt><trkpt lat="31.453642699913075" lon="-6.208354927862844"><ele>1841.0</ele><time>2026-05-04T15:23:09.001Z</time></trkpt><trkpt lat="31.45354587908595" lon="-6.208291226373632"><ele>1840.9999999999998</ele><time>2026-05-04T15:23:11.001Z</time></trkpt><trkpt lat="31.45345017651475" lon="-6.20823314941982"><ele>1841.0</ele><time>2026-05-04T15:23:13.001Z</time></trkpt><trkpt lat="31.453386623168157" lon="-6.208210436449861"><ele>1841.0</ele><time>2026-05-04T15:23:14.001Z</time></trkpt><trkpt lat="31.45331466525116" lon="-6.208195459211221"><ele>1841.0</ele><time>2026-05-04T15:23:15.001Z</time></trkpt><trkpt lat="31.45324320198052" lon="-6.208184503406802"><ele>1840.9999999999998</ele><time>2026-05-04T15:23:16.001Z</time></trkpt><trkpt lat="31.453179392513775" lon="-6.208180137523288"><ele>1841.0</ele><time>2026-05-04T15:23:17.001Z</time></trkpt><trkpt lat="31.45305222533805" lon="-6.208163879002925"><ele>1841.3333333333333</ele><time>2026-05-04T15:23:19.001Z</time></trkpt><trkpt lat="31.45294158505664" lon="-6.208199726580324"><ele>1841.6666666666665</ele><time>2026-05-04T15:23:21.001Z</time></trkpt><trkpt lat="31.45287966484527" lon="-6.208226695068576"><ele>1842.0</ele><time>2026-05-04T15:23:22.001Z</time></trkpt><trkpt lat="31.45281166893863" lon="-6.208233640297688"><ele>1842.3333333333335</ele><time>2026-05-04T15:23:23.001Z</time></trkpt><trkpt lat="31.45273038437059" lon="-6.208304550116884"><ele>1842.6666666666667</ele><time>2026-05-04T15:23:24.001Z</time></trkpt><trkpt lat="31.45265804613387" lon="-6.208294784526158"><ele>1843.0</ele><time>2026-05-04T15:23:25.001Z</time></trkpt><trkpt lat="31.452540551601178" lon="-6.208269699274947"><ele>1843.0</ele><time>2026-05-04T15:23:27.001Z</time></trkpt><trkpt lat="31.45242732615307" lon="-6.2082263918637315"><ele>1843.0000000000002</ele><time>2026-05-04T15:23:29.001Z</time></trkpt><trkpt lat="31.452321740020604" lon="-6.208217970871109"><ele>1843.0000000000002</ele><time>2026-05-04T15:23:31.001Z</time></trkpt><trkpt lat="31.452193852981154" lon="-6.20822778143204"><ele>1843.0</ele><time>2026-05-04T15:23:33.001Z</time></trkpt><trkpt lat="31.452114850095295" lon="-6.208232175458708"><ele>1843.0</ele><time>2026-05-04T15:23:34.001Z</time></trkpt><trkpt lat="31.452034435177435" lon="-6.208236648046058"><ele>1843.0000000000002</ele><time>2026-05-04T15:23:35.001Z</time></trkpt><trkpt lat="31.45195542910321" lon="-6.2082411506466935"><ele>1843.0</ele><time>2026-05-04T15:23:36.001Z</time></trkpt><trkpt lat="31.451874206958564" lon="-6.208244898747745"><ele>1843.0</ele><time>2026-05-04T15:23:37.001Z</time></trkpt><trkpt lat="31.45180241127231" lon="-6.208248211850652"><ele>1843.0</ele><time>2026-05-04T15:23:38.001Z</time></trkpt><trkpt lat="31.451736284961203" lon="-6.20824324913672"><ele>1843.0000000000002</ele><time>2026-05-04T15:23:39.001Z</time></trkpt><trkpt lat="31.451610925609966" lon="-6.208271643891082"><ele>1843.0</ele><time>2026-05-04T15:23:41.001Z</time></trkpt><trkpt lat="31.451495440547742" lon="-6.20833540091093"><ele>1843.0</ele><time>2026-05-04T15:23:43.001Z</time></trkpt><trkpt lat="31.45138366352326" lon="-6.208389631384277"><ele>1843.0000000000002</ele><time>2026-05-04T15:23:45.001Z</time></trkpt><trkpt lat="31.45131394224157" lon="-6.208405027746144"><ele>1843.0000000000002</ele><time>2026-05-04T15:23:46.001Z</time></trkpt><trkpt lat="31.451220805246535" lon="-6.208412391769433"><ele>1843.0</ele><time>2026-05-04T15:23:47.001Z</time></trkpt><trkpt lat="31.451119920041723" lon="-6.2084193579279106"><ele>1843.0</ele><time>2026-05-04T15:23:48.001Z</time></trkpt><trkpt lat="31.451017543538146" lon="-6.208387265615343"><ele>1842.3333333333335</ele><time>2026-05-04T15:23:49.001Z</time></trkpt><trkpt lat="31.450927498956045" lon="-6.208397204600323"><ele>1841.6666666666667</ele><time>2026-05-04T15:23:50.001Z</time></trkpt><trkpt lat="31.45083204062402" lon="-6.20841195830159"><ele>1841.0</ele><time>2026-05-04T15:23:51.001Z</time></trkpt><trkpt lat="31.4507448233769" lon="-6.208430126337024"><ele>1840.3333333333335</ele><time>2026-05-04T15:23:52.001Z</time></trkpt><trkpt lat="31.45067237063313" lon="-6.208397016737164"><ele>1839.6666666666667</ele><time>2026-05-04T15:23:53.001Z</time></trkpt><trkpt lat="31.4506066152439" lon="-6.208403041962674"><ele>1839.0</ele><time>2026-05-04T15:23:54.001Z</time></trkpt><trkpt lat="31.450539257732142" lon="-6.2083633088702825"><ele>1839.0</ele><time>2026-05-04T15:23:55.001Z</time></trkpt><trkpt lat="31.450437840109263" lon="-6.208311308749244"><ele>1839.0</ele><time>2026-05-04T15:23:57.001Z</time></trkpt><trkpt lat="31.45034495327883" lon="-6.208265092136802"><ele>1839.0</ele><time>2026-05-04T15:23:59.001Z</time></trkpt><trkpt lat="31.45028501027756" lon="-6.208231162913267"><ele>1839.0</ele><time>2026-05-04T15:24:00.001Z</time></trkpt><trkpt lat="31.450220055364277" lon="-6.20818020166569"><ele>1839.0</ele><time>2026-05-04T15:24:01.001Z</time></trkpt><trkpt lat="31.45015602477784" lon="-6.208129965784483"><ele>1839.0</ele><time>2026-05-04T15:24:02.001Z</time></trkpt><trkpt lat="31.450109341036793" lon="-6.208029957514488"><ele>1839.0</ele><time>2026-05-04T15:24:03.001Z</time></trkpt><trkpt lat="31.450047418717453" lon="-6.2079736961519885"><ele>1839.0</ele><time>2026-05-04T15:24:04.001Z</time></trkpt><trkpt lat="31.449974211505687" lon="-6.2079509070156105"><ele>1839.0</ele><time>2026-05-04T15:24:05.001Z</time></trkpt><trkpt lat="31.44988920740276" lon="-6.208001341196384"><ele>1839.0</ele><time>2026-05-04T15:24:06.001Z</time></trkpt><trkpt lat="31.449815096460153" lon="-6.208083548544401"><ele>1839.0</ele><time>2026-05-04T15:24:07.001Z</time></trkpt><trkpt lat="31.4497527135533" lon="-6.208183550274172"><ele>1839.0</ele><time>2026-05-04T15:24:08.001Z</time></trkpt><trkpt lat="31.449710771575806" lon="-6.208317460282404"><ele>1839.0</ele><time>2026-05-04T15:24:09.001Z</time></trkpt><trkpt lat="31.449661637335392" lon="-6.208433076501437"><ele>1839.0</ele><time>2026-05-04T15:24:10.001Z</time></trkpt><trkpt lat="31.449622618979976" lon="-6.208550884061044"><ele>1839.0</ele><time>2026-05-04T15:24:11.001Z</time></trkpt><trkpt lat="31.44960517603706" lon="-6.208662715314617"><ele>1839.0</ele><time>2026-05-04T15:24:12.001Z</time></trkpt><trkpt lat="31.44962924158206" lon="-6.208780502875887"><ele>1839.0</ele><time>2026-05-04T15:24:13.001Z</time></trkpt><trkpt lat="31.44969543624185" lon="-6.208916371067903"><ele>1839.0</ele><time>2026-05-04T15:24:14Z</time></trkpt><trkpt lat="31.4496711503559" lon="-6.2090444469549935"><ele>1839.0</ele><time>2026-05-04T15:24:15Z</time></trkpt><trkpt lat="31.449739585372313" lon="-6.2091640857776165"><ele>1839.0</ele><time>2026-05-04T15:24:16Z</time></trkpt><trkpt lat="31.449804101160034" lon="-6.209278093380589"><ele>1840.5</ele><time>2026-05-04T15:24:17Z</time></trkpt><trkpt lat="31.449867950995728" lon="-6.2093967053189045"><ele>1842.0</ele><time>2026-05-04T15:24:18Z</time></trkpt><trkpt lat="31.44992767420542" lon="-6.209518755662629"><ele>1843.5</ele><time>2026-05-04T15:24:19Z</time></trkpt><trkpt lat="31.44997404295235" lon="-6.209649916697884"><ele>1845.0</ele><time>2026-05-04T15:24:20Z</time></trkpt><trkpt lat="31.44997902184175" lon="-6.209788095365358"><ele>1845.0</ele><time>2026-05-04T15:24:21Z</time></trkpt><trkpt lat="31.44998804910716" lon="-6.209914233002616"><ele>1845.0</ele><time>2026-05-04T15:24:22Z</time></trkpt><trkpt lat="31.44999837272526" lon="-6.210046755230859"><ele>1845.0</ele><time>2026-05-04T15:24:23Z</time></trkpt><trkpt lat="31.450011358988352" lon="-6.210171307417673"><ele>1845.0</ele><time>2026-05-04T15:24:24Z</time></trkpt><trkpt lat="31.4500304262352" lon="-6.210300111288938"><ele>1845.0</ele><time>2026-05-04T15:24:25Z</time></trkpt><trkpt lat="31.450052681334522" lon="-6.210420484238966"><ele>1845.0</ele><time>2026-05-04T15:24:26Z</time></trkpt><trkpt lat="31.45005175017966" lon="-6.210539315134291"><ele>1845.0</ele><time>2026-05-04T15:24:27Z</time></trkpt><trkpt lat="31.450014754579595" lon="-6.210639515326683"><ele>1845.0</ele><time>2026-05-04T15:24:28Z</time></trkpt><trkpt lat="31.449937795814535" lon="-6.210712392536156"><ele>1845.0</ele><time>2026-05-04T15:24:29Z</time></trkpt><trkpt lat="31.449821040049773" lon="-6.210765695180152"><ele>1845.0</ele><time>2026-05-04T15:24:30Z</time></trkpt><trkpt lat="31.44971076587809" lon="-6.210852238444462"><ele>1842.75</ele><time>2026-05-04T15:24:31Z</time></trkpt><trkpt lat="31.449584519678456" lon="-6.210928803945142"><ele>1840.5</ele><time>2026-05-04T15:24:32Z</time></trkpt><trkpt lat="31.449468045217582" lon="-6.21102042729594"><ele>1838.25</ele><time>2026-05-04T15:24:33Z</time></trkpt><trkpt lat="31.44936297465773" lon="-6.211094376260349"><ele>1836.0</ele><time>2026-05-04T15:24:34Z</time></trkpt><trkpt lat="31.449262680724456" lon="-6.21116927912598"><ele>1836.0</ele><time>2026-05-04T15:24:35Z</time></trkpt><trkpt lat="31.449144507103657" lon="-6.211220093868906"><ele>1836.0</ele><time>2026-05-04T15:24:36Z</time></trkpt><trkpt lat="31.449017652401174" lon="-6.211254160171468"><ele>1836.0</ele><time>2026-05-04T15:24:37Z</time></trkpt><trkpt lat="31.448890416708906" lon="-6.211272663020674"><ele>1836.0</ele><time>2026-05-04T15:24:38Z</time></trkpt><trkpt lat="31.448762323033257" lon="-6.211277560335338"><ele>1835.5</ele><time>2026-05-04T15:24:39Z</time></trkpt><trkpt lat="31.448630727900255" lon="-6.211272723765479"><ele>1835.0</ele><time>2026-05-04T15:24:40Z</time></trkpt><trkpt lat="31.44848701295105" lon="-6.211261028363328"><ele>1834.5</ele><time>2026-05-04T15:24:41Z</time></trkpt><trkpt lat="31.448327916914156" lon="-6.2112457121523414"><ele>1834.0</ele><time>2026-05-04T15:24:42Z</time></trkpt><trkpt lat="31.448168759083234" lon="-6.211234167535887"><ele>1834.0</ele><time>2026-05-04T15:24:43Z</time></trkpt><trkpt lat="31.447999344253365" lon="-6.211222245462744"><ele>1834.0</ele><time>2026-05-04T15:24:44.001Z</time></trkpt><trkpt lat="31.44782613834949" lon="-6.211207321257935"><ele>1834.0</ele><time>2026-05-04T15:24:45.001Z</time></trkpt><trkpt lat="31.44765439743184" lon="-6.211199551139872"><ele>1830.0</ele><time>2026-05-04T15:24:46.001Z</time></trkpt><trkpt lat="31.447483414392682" lon="-6.211203990663878"><ele>1826.0</ele><time>2026-05-04T15:24:47.001Z</time></trkpt><trkpt lat="31.44731439957022" lon="-6.211201981910829"><ele>1822.0</ele><time>2026-05-04T15:24:48.001Z</time></trkpt><trkpt lat="31.447144689730262" lon="-6.211192688409634"><ele>1820.3333333333335</ele><time>2026-05-04T15:24:49.001Z</time></trkpt><trkpt lat="31.446982216110047" lon="-6.211181771600376"><ele>1818.6666666666665</ele><time>2026-05-04T15:24:50.001Z</time></trkpt><trkpt lat="31.446835161786748" lon="-6.211200245858669"><ele>1817.0</ele><time>2026-05-04T15:24:51.001Z</time></trkpt><trkpt lat="31.44669794361096" lon="-6.2111594353890585"><ele>1817.0</ele><time>2026-05-04T15:24:52.001Z</time></trkpt><trkpt lat="31.44656645821958" lon="-6.211154522743943"><ele>1817.0</ele><time>2026-05-04T15:24:53.001Z</time></trkpt><trkpt lat="31.446432816924435" lon="-6.211167841921074"><ele>1817.0</ele><time>2026-05-04T15:24:54.001Z</time></trkpt><trkpt lat="31.446290847306997" lon="-6.211197708338112"><ele>1817.0</ele><time>2026-05-04T15:24:55.001Z</time></trkpt><trkpt lat="31.44614427564738" lon="-6.211244998817481"><ele>1814.6666666666665</ele><time>2026-05-04T15:24:56.001Z</time></trkpt><trkpt lat="31.445988295010235" lon="-6.21129353975517"><ele>1812.3333333333335</ele><time>2026-05-04T15:24:57.001Z</time></trkpt><trkpt lat="31.445824523372064" lon="-6.211343662312131"><ele>1810.0</ele><time>2026-05-04T15:24:58.001Z</time></trkpt><trkpt lat="31.445651879019664" lon="-6.211389118703863"><ele>1810.0</ele><time>2026-05-04T15:24:59.001Z</time></trkpt><trkpt lat="31.44547502909575" lon="-6.211407291243945"><ele>1810.0</ele><time>2026-05-04T15:25:00.001Z</time></trkpt><trkpt lat="31.44529007704116" lon="-6.211397348199359"><ele>1810.0</ele><time>2026-05-04T15:25:01.001Z</time></trkpt><trkpt lat="31.44510364805068" lon="-6.211347313699683"><ele>1808.0</ele><time>2026-05-04T15:25:02.001Z</time></trkpt><trkpt lat="31.44491868076685" lon="-6.211285166131792"><ele>1806.0</ele><time>2026-05-04T15:25:03.001Z</time></trkpt><trkpt lat="31.44474311052353" lon="-6.211210145628358"><ele>1804.0</ele><time>2026-05-04T15:25:04.001Z</time></trkpt><trkpt lat="31.44458548705108" lon="-6.211143056613735"><ele>1804.0</ele><time>2026-05-04T15:25:05.001Z</time></trkpt><trkpt lat="31.444435731885957" lon="-6.211097255740065"><ele>1804.0</ele><time>2026-05-04T15:25:06.001Z</time></trkpt><trkpt lat="31.444282017564937" lon="-6.211073178310891"><ele>1804.0</ele><time>2026-05-04T15:25:07.001Z</time></trkpt><trkpt lat="31.444119936186105" lon="-6.21105659399328"><ele>1804.0</ele><time>2026-05-04T15:25:08.001Z</time></trkpt><trkpt lat="31.44395351736962" lon="-6.211028721605669"><ele>1804.0</ele><time>2026-05-04T15:25:09.001Z</time></trkpt><trkpt lat="31.44378123613997" lon="-6.210996948622738"><ele>1804.0</ele><time>2026-05-04T15:25:10.001Z</time></trkpt><trkpt lat="31.443602662578105" lon="-6.210966138188377"><ele>1803.3333333333335</ele><time>2026-05-04T15:25:11.001Z</time></trkpt><trkpt lat="31.44341863003333" lon="-6.210952830689588"><ele>1802.6666666666665</ele><time>2026-05-04T15:25:12.001Z</time></trkpt><trkpt lat="31.44322981119316" lon="-6.21095531608561"><ele>1802.0</ele><time>2026-05-04T15:25:13.001Z</time></trkpt><trkpt lat="31.44304386387123" lon="-6.210961315276538"><ele>1802.3333333333333</ele><time>2026-05-04T15:25:14.001Z</time></trkpt><trkpt lat="31.44285858880457" lon="-6.210975953456631"><ele>1802.6666666666665</ele><time>2026-05-04T15:25:15Z</time></trkpt><trkpt lat="31.442676736969876" lon="-6.210997138640352"><ele>1803.0</ele><time>2026-05-04T15:25:16Z</time></trkpt><trkpt lat="31.44249321108921" lon="-6.211011685873027"><ele>1803.0</ele><time>2026-05-04T15:25:17Z</time></trkpt><trkpt lat="31.442305315636176" lon="-6.211005243236079"><ele>1803.0</ele><time>2026-05-04T15:25:18Z</time></trkpt><trkpt lat="31.442118997847444" lon="-6.210967586920112"><ele>1803.0</ele><time>2026-05-04T15:25:19Z</time></trkpt><trkpt lat="31.441937280472892" lon="-6.210903409242709"><ele>1805.3333333333335</ele><time>2026-05-04T15:25:20Z</time></trkpt><trkpt lat="31.441756033247596" lon="-6.210836377359531"><ele>1807.6666666666667</ele><time>2026-05-04T15:25:21Z</time></trkpt><trkpt lat="31.441573190806572" lon="-6.210768820901313"><ele>1810.0</ele><time>2026-05-04T15:25:22Z</time></trkpt><trkpt lat="31.441392730678455" lon="-6.210713363609261"><ele>1811.3333333333335</ele><time>2026-05-04T15:25:23Z</time></trkpt><trkpt lat="31.441212073643413" lon="-6.210669748734398"><ele>1812.6666666666665</ele><time>2026-05-04T15:25:24Z</time></trkpt><trkpt lat="31.441033144968504" lon="-6.21063789287501"><ele>1814.0</ele><time>2026-05-04T15:25:25Z</time></trkpt><trkpt lat="31.440856301120203" lon="-6.210618213758009"><ele>1809.0</ele><time>2026-05-04T15:25:26Z</time></trkpt><trkpt lat="31.440686122495684" lon="-6.210599682332119"><ele>1804.0</ele><time>2026-05-04T15:25:27Z</time></trkpt><trkpt lat="31.44051789626849" lon="-6.210563318677848"><ele>1799.0</ele><time>2026-05-04T15:25:28Z</time></trkpt><trkpt lat="31.440353188937518" lon="-6.210502207136284"><ele>1799.0</ele><time>2026-05-04T15:25:29Z</time></trkpt><trkpt lat="31.44019170137851" lon="-6.2104283097130635"><ele>1799.0</ele><time>2026-05-04T15:25:30Z</time></trkpt><trkpt lat="31.440031344738347" lon="-6.210352110095067"><ele>1799.0</ele><time>2026-05-04T15:25:31Z</time></trkpt><trkpt lat="31.439876792094527" lon="-6.21027482416928"><ele>1799.0</ele><time>2026-05-04T15:25:32Z</time></trkpt><trkpt lat="31.439721942168795" lon="-6.210199077037164"><ele>1799.0</ele><time>2026-05-04T15:25:33Z</time></trkpt><trkpt lat="31.43955804992773" lon="-6.210129774722052"><ele>1799.0</ele><time>2026-05-04T15:25:34Z</time></trkpt><trkpt lat="31.4393849135707" lon="-6.210070173566655"><ele>1800.3333333333333</ele><time>2026-05-04T15:25:35Z</time></trkpt><trkpt lat="31.439203617381523" lon="-6.210028064711046"><ele>1801.6666666666665</ele><time>2026-05-04T15:25:36Z</time></trkpt><trkpt lat="31.43902390966051" lon="-6.209991965864482"><ele>1803.0</ele><time>2026-05-04T15:25:37Z</time></trkpt><trkpt lat="31.438855286284927" lon="-6.209957093094474"><ele>1804.3333333333335</ele><time>2026-05-04T15:25:38Z</time></trkpt><trkpt lat="31.438695342285985" lon="-6.209922018626784"><ele>1805.6666666666667</ele><time>2026-05-04T15:25:39Z</time></trkpt><trkpt lat="31.43854704471822" lon="-6.209875846491465"><ele>1807.0</ele><time>2026-05-04T15:25:40Z</time></trkpt><trkpt lat="31.438407873741273" lon="-6.209804609903923"><ele>1804.25</ele><time>2026-05-04T15:25:41Z</time></trkpt><trkpt lat="31.43828625459684" lon="-6.209707466942524"><ele>1801.5</ele><time>2026-05-04T15:25:42Z</time></trkpt><trkpt lat="31.43816890753437" lon="-6.209595444160322"><ele>1798.75</ele><time>2026-05-04T15:25:43Z</time></trkpt><trkpt lat="31.438041931095054" lon="-6.209500451853181"><ele>1796.0</ele><time>2026-05-04T15:25:44Z</time></trkpt><trkpt lat="31.437904834174404" lon="-6.209430322035767"><ele>1796.0</ele><time>2026-05-04T15:25:45Z</time></trkpt><trkpt lat="31.437763475110355" lon="-6.209392934134864"><ele>1796.0</ele><time>2026-05-04T15:25:46Z</time></trkpt><trkpt lat="31.43762681056856" lon="-6.209394899515414"><ele>1796.0</ele><time>2026-05-04T15:25:47Z</time></trkpt><trkpt lat="31.437495423791542" lon="-6.20942880781563"><ele>1796.0</ele><time>2026-05-04T15:25:48Z</time></trkpt><trkpt lat="31.437369964730394" lon="-6.209467027082944"><ele>1796.0</ele><time>2026-05-04T15:25:49Z</time></trkpt><trkpt lat="31.43725089308919" lon="-6.209499532701682"><ele>1796.0</ele><time>2026-05-04T15:25:50Z</time></trkpt><trkpt lat="31.43713681097688" lon="-6.209547147825046"><ele>1796.0</ele><time>2026-05-04T15:25:51Z</time></trkpt><trkpt lat="31.437025049838994" lon="-6.2096222101768435"><ele>1796.0</ele><time>2026-05-04T15:25:52Z</time></trkpt><trkpt lat="31.436912586675906" lon="-6.209722216881521"><ele>1797.0</ele><time>2026-05-04T15:25:53Z</time></trkpt><trkpt lat="31.436795968754378" lon="-6.209841852747934"><ele>1798.0</ele><time>2026-05-04T15:25:54Z</time></trkpt><trkpt lat="31.436662384346874" lon="-6.209949261113016"><ele>1799.0</ele><time>2026-05-04T15:25:55Z</time></trkpt><trkpt lat="31.436525784569533" lon="-6.2100770284554265"><ele>1799.0</ele><time>2026-05-04T15:25:56Z</time></trkpt><trkpt lat="31.43640878138929" lon="-6.210226237334967"><ele>1799.0</ele><time>2026-05-04T15:25:57Z</time></trkpt><trkpt lat="31.43630539708612" lon="-6.210361756284168"><ele>1799.0</ele><time>2026-05-04T15:25:58Z</time></trkpt><trkpt lat="31.436194069929726" lon="-6.210488394389739"><ele>1798.3333333333333</ele><time>2026-05-04T15:25:59Z</time></trkpt><trkpt lat="31.436078891676825" lon="-6.210601917093842"><ele>1797.6666666666665</ele><time>2026-05-04T15:26:00Z</time></trkpt><trkpt lat="31.435942841557868" lon="-6.210696143959238"><ele>1797.0</ele><time>2026-05-04T15:26:01Z</time></trkpt><trkpt lat="31.43579096037932" lon="-6.21076820957268"><ele>1797.0</ele><time>2026-05-04T15:26:02Z</time></trkpt><trkpt lat="31.435612381198965" lon="-6.210793972428708"><ele>1797.0</ele><time>2026-05-04T15:26:03Z</time></trkpt><trkpt lat="31.43543071281042" lon="-6.210807013403884"><ele>1797.0</ele><time>2026-05-04T15:26:04Z</time></trkpt><trkpt lat="31.435256885536386" lon="-6.210820982884978"><ele>1797.0</ele><time>2026-05-04T15:26:05Z</time></trkpt><trkpt lat="31.435094436912223" lon="-6.210837283831104"><ele>1797.0</ele><time>2026-05-04T15:26:06Z</time></trkpt><trkpt lat="31.434933395318883" lon="-6.210853246386637"><ele>1797.0</ele><time>2026-05-04T15:26:07Z</time></trkpt><trkpt lat="31.434780144786718" lon="-6.210903645059208"><ele>1794.6666666666665</ele><time>2026-05-04T15:26:08Z</time></trkpt><trkpt lat="31.434615206255966" lon="-6.2109801926957955"><ele>1792.3333333333333</ele><time>2026-05-04T15:26:09Z</time></trkpt><trkpt lat="31.434469208661834" lon="-6.211122118748126"><ele>1790.0</ele><time>2026-05-04T15:26:10Z</time></trkpt><trkpt lat="31.434297518309652" lon="-6.211235659894275"><ele>1790.0</ele><time>2026-05-04T15:26:11Z</time></trkpt><trkpt lat="31.434124221305005" lon="-6.211344084762637"><ele>1790.0</ele><time>2026-05-04T15:26:12Z</time></trkpt><trkpt lat="31.433959157933543" lon="-6.211449848086788"><ele>1790.0</ele><time>2026-05-04T15:26:13Z</time></trkpt><trkpt lat="31.433796010105176" lon="-6.2115357751273494"><ele>1790.0</ele><time>2026-05-04T15:26:14Z</time></trkpt><trkpt lat="31.43364731756304" lon="-6.211634178181151"><ele>1790.0</ele><time>2026-05-04T15:26:15Z</time></trkpt><trkpt lat="31.433499803671253" lon="-6.2117359811054005"><ele>1790.0</ele><time>2026-05-04T15:26:16Z</time></trkpt><trkpt lat="31.433359520319772" lon="-6.211862469389209"><ele>1790.0</ele><time>2026-05-04T15:26:17Z</time></trkpt><trkpt lat="31.4332335899927" lon="-6.212012614664789"><ele>1790.0</ele><time>2026-05-04T15:26:18Z</time></trkpt><trkpt lat="31.433099084953533" lon="-6.212160557414777"><ele>1790.0</ele><time>2026-05-04T15:26:19Z</time></trkpt><trkpt lat="31.432951826705324" lon="-6.212289338177917"><ele>1790.3333333333333</ele><time>2026-05-04T15:26:20Z</time></trkpt><trkpt lat="31.432794809537658" lon="-6.212408729744762"><ele>1790.6666666666665</ele><time>2026-05-04T15:26:21Z</time></trkpt><trkpt lat="31.432648721195715" lon="-6.2125296472838984"><ele>1791.0</ele><time>2026-05-04T15:26:22Z</time></trkpt><trkpt lat="31.432472196121353" lon="-6.212587452649175"><ele>1791.0</ele><time>2026-05-04T15:26:23Z</time></trkpt><trkpt lat="31.43230467850922" lon="-6.212655197475968"><ele>1791.0</ele><time>2026-05-04T15:26:24Z</time></trkpt><trkpt lat="31.43213465402363" lon="-6.212675906344234"><ele>1791.0</ele><time>2026-05-04T15:26:25Z</time></trkpt><trkpt lat="31.431963278133317" lon="-6.212672207725691"><ele>1791.6666666666665</ele><time>2026-05-04T15:26:26Z</time></trkpt><trkpt lat="31.431786943514613" lon="-6.212636645055793"><ele>1792.3333333333333</ele><time>2026-05-04T15:26:27Z</time></trkpt><trkpt lat="31.431602406446043" lon="-6.21258563799495"><ele>1793.0</ele><time>2026-05-04T15:26:28Z</time></trkpt><trkpt lat="31.431418393765043" lon="-6.212530878877403"><ele>1792.3333333333333</ele><time>2026-05-04T15:26:29Z</time></trkpt><trkpt lat="31.431232158386226" lon="-6.212478223535375"><ele>1791.6666666666665</ele><time>2026-05-04T15:26:30Z</time></trkpt><trkpt lat="31.431059533599033" lon="-6.2124255595969995"><ele>1791.0</ele><time>2026-05-04T15:26:31Z</time></trkpt><trkpt lat="31.430892429825064" lon="-6.212376795073672"><ele>1791.0</ele><time>2026-05-04T15:26:32Z</time></trkpt><trkpt lat="31.43072186823078" lon="-6.212325495394484"><ele>1791.0</ele><time>2026-05-04T15:26:33Z</time></trkpt><trkpt lat="31.430548544582884" lon="-6.2122750441760735"><ele>1791.0</ele><time>2026-05-04T15:26:34Z</time></trkpt><trkpt lat="31.430371052357312" lon="-6.212219259221549"><ele>1788.0</ele><time>2026-05-04T15:26:35Z</time></trkpt><trkpt lat="31.43019024111995" lon="-6.212163540231466"><ele>1785.0</ele><time>2026-05-04T15:26:36Z</time></trkpt><trkpt lat="31.430007517897288" lon="-6.2121080454145465"><ele>1782.0</ele><time>2026-05-04T15:26:37Z</time></trkpt><trkpt lat="31.429825621202454" lon="-6.212052879569576"><ele>1782.0</ele><time>2026-05-04T15:26:38Z</time></trkpt><trkpt lat="31.429649522184686" lon="-6.212003218431597"><ele>1782.0</ele><time>2026-05-04T15:26:39Z</time></trkpt><trkpt lat="31.429479121394774" lon="-6.211952564099202"><ele>1782.0</ele><time>2026-05-04T15:26:40Z</time></trkpt><trkpt lat="31.429313182936202" lon="-6.211900951828539"><ele>1783.0</ele><time>2026-05-04T15:26:41Z</time></trkpt><trkpt lat="31.429153838084517" lon="-6.211850258626171"><ele>1784.0</ele><time>2026-05-04T15:26:42Z</time></trkpt><trkpt lat="31.429001071629035" lon="-6.2118042056647385"><ele>1785.0</ele><time>2026-05-04T15:26:43Z</time></trkpt><trkpt lat="31.428855369836814" lon="-6.211761715991799"><ele>1783.75</ele><time>2026-05-04T15:26:44Z</time></trkpt><trkpt lat="31.42871051597528" lon="-6.211721962897315"><ele>1782.5</ele><time>2026-05-04T15:26:45Z</time></trkpt><trkpt lat="31.42856936528273" lon="-6.21168098948379"><ele>1781.25</ele><time>2026-05-04T15:26:46Z</time></trkpt><trkpt lat="31.42843883040102" lon="-6.211641344637273"><ele>1780.0</ele><time>2026-05-04T15:26:47Z</time></trkpt><trkpt lat="31.428317914221324" lon="-6.211607667070421"><ele>1780.0</ele><time>2026-05-04T15:26:48Z</time></trkpt><trkpt lat="31.42820953743932" lon="-6.211575653037486"><ele>1780.0</ele><time>2026-05-04T15:26:49Z</time></trkpt><trkpt lat="31.428114040423104" lon="-6.211547801092386"><ele>1780.0</ele><time>2026-05-04T15:26:50Z</time></trkpt><trkpt lat="31.428040840671844" lon="-6.211513152098901"><ele>1780.0</ele><time>2026-05-04T15:26:51Z</time></trkpt><trkpt lat="31.42798553403328" lon="-6.2114735098354"><ele>1780.0</ele><time>2026-05-04T15:26:52Z</time></trkpt><trkpt lat="31.427894583082356" lon="-6.2114345288132915"><ele>1779.0</ele><time>2026-05-04T15:26:54Z</time></trkpt><trkpt lat="31.427862273286177" lon="-6.211208155425643"><ele>1778.0</ele><time>2026-05-04T15:26:55Z</time></trkpt><trkpt lat="31.427882535607758" lon="-6.2110728922573815"><ele>1777.0</ele><time>2026-05-04T15:26:56Z</time></trkpt><trkpt lat="31.427903224984664" lon="-6.21093692941356"><ele>1776.0</ele><time>2026-05-04T15:26:57Z</time></trkpt><trkpt lat="31.427922859374423" lon="-6.210807899179843"><ele>1776.0</ele><time>2026-05-04T15:26:58Z</time></trkpt><trkpt lat="31.42794177255513" lon="-6.21068360761975"><ele>1776.0</ele><time>2026-05-04T15:26:59Z</time></trkpt><trkpt lat="31.427959647231066" lon="-6.2105661383203845"><ele>1776.0</ele><time>2026-05-04T15:27:00Z</time></trkpt><trkpt lat="31.427975582356286" lon="-6.2104614143087895"><ele>1776.0</ele><time>2026-05-04T15:27:01Z</time></trkpt><trkpt lat="31.42805935145175" lon="-6.210309767282893"><ele>1775.0</ele><time>2026-05-04T15:27:02Z</time></trkpt><trkpt lat="31.428173117613017" lon="-6.210243358831777"><ele>1774.0</ele><time>2026-05-04T15:27:03Z</time></trkpt><trkpt lat="31.42831752291601" lon="-6.210216654458413"><ele>1773.0</ele><time>2026-05-04T15:27:04Z</time></trkpt><trkpt lat="31.42847216099564" lon="-6.210215405811895"><ele>1772.0</ele><time>2026-05-04T15:27:05Z</time></trkpt><trkpt lat="31.428614780808154" lon="-6.210217973841653"><ele>1772.0</ele><time>2026-05-04T15:27:06Z</time></trkpt><trkpt lat="31.42875183304687" lon="-6.210225695882002"><ele>1771.9999999999998</ele><time>2026-05-04T15:27:07Z</time></trkpt><trkpt lat="31.428872776468722" lon="-6.210235830844083"><ele>1771.9999999999998</ele><time>2026-05-04T15:27:08Z</time></trkpt><trkpt lat="31.42896692935381" lon="-6.21024302439041"><ele>1772.0</ele><time>2026-05-04T15:27:09Z</time></trkpt><trkpt lat="31.429057280017375" lon="-6.210249107753435"><ele>1772.0</ele><time>2026-05-04T15:27:10Z</time></trkpt><trkpt lat="31.429100767975633" lon="-6.210179399000479"><ele>1770.75</ele><time>2026-05-04T15:27:11Z</time></trkpt><trkpt lat="31.429133716100882" lon="-6.210107014104256"><ele>1769.5</ele><time>2026-05-04T15:27:12Z</time></trkpt><trkpt lat="31.429178985875684" lon="-6.2100376416132"><ele>1768.25</ele><time>2026-05-04T15:27:13Z</time></trkpt><trkpt lat="31.42928878044231" lon="-6.20986507949031"><ele>1767.0</ele><time>2026-05-04T15:27:14Z</time></trkpt><trkpt lat="31.42936896198977" lon="-6.209738389367944"><ele>1767.0</ele><time>2026-05-04T15:27:15Z</time></trkpt><trkpt lat="31.429447905540307" lon="-6.209608801909007"><ele>1767.0</ele><time>2026-05-04T15:27:16Z</time></trkpt><trkpt lat="31.429541863152128" lon="-6.209454568667685"><ele>1767.0</ele><time>2026-05-04T15:27:17Z</time></trkpt><trkpt lat="31.429629213600048" lon="-6.209311181193653"><ele>1767.0</ele><time>2026-05-04T15:27:18Z</time></trkpt><trkpt lat="31.429705648700594" lon="-6.209185711415341"><ele>1768.0</ele><time>2026-05-04T15:27:19Z</time></trkpt><trkpt lat="31.42979739868042" lon="-6.209063975140526"><ele>1769.0</ele><time>2026-05-04T15:27:20Z</time></trkpt><trkpt lat="31.42989558419602" lon="-6.208974087721868"><ele>1770.0</ele><time>2026-05-04T15:27:21Z</time></trkpt><trkpt lat="31.43002047962162" lon="-6.208941925894402"><ele>1771.0</ele><time>2026-05-04T15:27:22Z</time></trkpt><trkpt lat="31.43014537698411" lon="-6.208941362754635"><ele>1769.75</ele><time>2026-05-04T15:27:23Z</time></trkpt><trkpt lat="31.430300567774957" lon="-6.208935213786151"><ele>1768.5</ele><time>2026-05-04T15:27:24Z</time></trkpt><trkpt lat="31.430442923595475" lon="-6.208932061711714"><ele>1767.25</ele><time>2026-05-04T15:27:25Z</time></trkpt><trkpt lat="31.43057992358367" lon="-6.208926347668242"><ele>1766.0</ele><time>2026-05-04T15:27:26Z</time></trkpt><trkpt lat="31.430711804845867" lon="-6.208917628846469"><ele>1766.0</ele><time>2026-05-04T15:27:27Z</time></trkpt><trkpt lat="31.43083257694379" lon="-6.2088847392930075"><ele>1766.0</ele><time>2026-05-04T15:27:28Z</time></trkpt><trkpt lat="31.430941946717805" lon="-6.2088654146668825"><ele>1766.0</ele><time>2026-05-04T15:27:29Z</time></trkpt><trkpt lat="31.431032267729872" lon="-6.208810552224797"><ele>1766.0</ele><time>2026-05-04T15:27:30Z</time></trkpt><trkpt lat="31.431080090287658" lon="-6.208748321274823"><ele>1766.0</ele><time>2026-05-04T15:27:31Z</time></trkpt><trkpt lat="31.431054419395295" lon="-6.208655601040594"><ele>1766.0</ele><time>2026-05-04T15:27:32Z</time></trkpt><trkpt lat="31.43100159788086" lon="-6.208517348867896"><ele>1766.0</ele><time>2026-05-04T15:27:34Z</time></trkpt><trkpt lat="31.430973510597102" lon="-6.208365988663058"><ele>1766.0</ele><time>2026-05-04T15:27:35Z</time></trkpt><trkpt lat="31.43094846177782" lon="-6.208202820706331"><ele>1766.0</ele><time>2026-05-04T15:27:36Z</time></trkpt><trkpt lat="31.43092970477277" lon="-6.208048554371212"><ele>1766.0</ele><time>2026-05-04T15:27:37Z</time></trkpt><trkpt lat="31.430919151689327" lon="-6.207894113139529"><ele>1766.0</ele><time>2026-05-04T15:27:38Z</time></trkpt><trkpt lat="31.43093134918462" lon="-6.2077516203064995"><ele>1766.0</ele><time>2026-05-04T15:27:39Z</time></trkpt><trkpt lat="31.43097461543626" lon="-6.207613337491483"><ele>1766.0</ele><time>2026-05-04T15:27:40Z</time></trkpt><trkpt lat="31.431047080026577" lon="-6.207489382787527"><ele>1766.0</ele><time>2026-05-04T15:27:41Z</time></trkpt><trkpt lat="31.431192426305234" lon="-6.207385531382046"><ele>1766.0</ele><time>2026-05-04T15:27:42Z</time></trkpt><trkpt lat="31.431314443350367" lon="-6.2072989824241755"><ele>1766.0</ele><time>2026-05-04T15:27:43Z</time></trkpt><trkpt lat="31.431426462389236" lon="-6.207207819093318"><ele>1766.0</ele><time>2026-05-04T15:27:44Z</time></trkpt><trkpt lat="31.431528552284707" lon="-6.207118971769457"><ele>1766.25</ele><time>2026-05-04T15:27:45Z</time></trkpt><trkpt lat="31.431578147502183" lon="-6.207017114318458"><ele>1766.5</ele><time>2026-05-04T15:27:46Z</time></trkpt><trkpt lat="31.43163551945069" lon="-6.2068898456376"><ele>1766.75</ele><time>2026-05-04T15:27:47Z</time></trkpt><trkpt lat="31.43168781479068" lon="-6.206749015227017"><ele>1767.0</ele><time>2026-05-04T15:27:48Z</time></trkpt><trkpt lat="31.43173045747652" lon="-6.206617037156439"><ele>1767.75</ele><time>2026-05-04T15:27:49Z</time></trkpt><trkpt lat="31.431774740069958" lon="-6.206469617874367"><ele>1768.5</ele><time>2026-05-04T15:27:50Z</time></trkpt><trkpt lat="31.431822378948112" lon="-6.2063128098782085"><ele>1769.25</ele><time>2026-05-04T15:27:51Z</time></trkpt><trkpt lat="31.43187298038915" lon="-6.206157213172699"><ele>1770.0</ele><time>2026-05-04T15:27:52Z</time></trkpt><trkpt lat="31.431917738692622" lon="-6.206015262823281"><ele>1770.0</ele><time>2026-05-04T15:27:53Z</time></trkpt><trkpt lat="31.43196213531485" lon="-6.205855592224264"><ele>1770.0</ele><time>2026-05-04T15:27:54Z</time></trkpt><trkpt lat="31.431995152338356" lon="-6.205707775976947"><ele>1770.0</ele><time>2026-05-04T15:27:55Z</time></trkpt><trkpt lat="31.43202588389688" lon="-6.205553527144821"><ele>1770.0</ele><time>2026-05-04T15:27:56Z</time></trkpt><trkpt lat="31.432053469018552" lon="-6.205399759584369"><ele>1770.0</ele><time>2026-05-04T15:27:57Z</time></trkpt><trkpt lat="31.432079952055936" lon="-6.205245269981838"><ele>1770.0</ele><time>2026-05-04T15:27:58Z</time></trkpt><trkpt lat="31.43209332449519" lon="-6.205115408108601"><ele>1770.0</ele><time>2026-05-04T15:27:59Z</time></trkpt><trkpt lat="31.432105059028814" lon="-6.204990969349873"><ele>1770.0</ele><time>2026-05-04T15:28:00Z</time></trkpt><trkpt lat="31.432041535871097" lon="-6.204885277702252"><ele>1772.0</ele><time>2026-05-04T15:28:02Z</time></trkpt><trkpt lat="31.431961742184082" lon="-6.204827444713976"><ele>1774.0</ele><time>2026-05-04T15:28:03Z</time></trkpt><trkpt lat="31.43184597056525" lon="-6.204785225806058"><ele>1776.0</ele><time>2026-05-04T15:28:04Z</time></trkpt><trkpt lat="31.431715474790142" lon="-6.204734155365951"><ele>1778.0</ele><time>2026-05-04T15:28:05Z</time></trkpt><trkpt lat="31.431564432880034" lon="-6.204715491250654"><ele>1778.0</ele><time>2026-05-04T15:28:06Z</time></trkpt><trkpt lat="31.43140809318561" lon="-6.2046649936755705"><ele>1778.0</ele><time>2026-05-04T15:28:07Z</time></trkpt><trkpt lat="31.431258877203387" lon="-6.2046142912704445"><ele>1778.0</ele><time>2026-05-04T15:28:08Z</time></trkpt><trkpt lat="31.43111767295896" lon="-6.204557447618853"><ele>1777.25</ele><time>2026-05-04T15:28:09Z</time></trkpt><trkpt lat="31.430997242310212" lon="-6.204502024789928"><ele>1776.5</ele><time>2026-05-04T15:28:10Z</time></trkpt><trkpt lat="31.43088192752115" lon="-6.204449067572592"><ele>1775.75</ele><time>2026-05-04T15:28:11Z</time></trkpt><trkpt lat="31.430778469562668" lon="-6.204375507745395"><ele>1775.0</ele><time>2026-05-04T15:28:12Z</time></trkpt><trkpt lat="31.430687907659586" lon="-6.204279653662512"><ele>1775.0</ele><time>2026-05-04T15:28:13Z</time></trkpt><trkpt lat="31.4306082071037" lon="-6.204168250610751"><ele>1775.0</ele><time>2026-05-04T15:28:14Z</time></trkpt><trkpt lat="31.430517714404104" lon="-6.204040911983497"><ele>1775.0</ele><time>2026-05-04T15:28:15Z</time></trkpt><trkpt lat="31.430444302127334" lon="-6.203939781419981"><ele>1775.0</ele><time>2026-05-04T15:28:16Z</time></trkpt><trkpt lat="31.43036400495792" lon="-6.2038224190299465"><ele>1774.75</ele><time>2026-05-04T15:28:17Z</time></trkpt><trkpt lat="31.43025830880428" lon="-6.203758526924142"><ele>1774.5</ele><time>2026-05-04T15:28:18Z</time></trkpt><trkpt lat="31.430143867097918" lon="-6.203668323046531"><ele>1774.25</ele><time>2026-05-04T15:28:19Z</time></trkpt><trkpt lat="31.430031660159575" lon="-6.203581717345839"><ele>1774.0</ele><time>2026-05-04T15:28:20Z</time></trkpt><trkpt lat="31.429923603857453" lon="-6.2034979910812025"><ele>1774.0</ele><time>2026-05-04T15:28:21Z</time></trkpt><trkpt lat="31.42981522024438" lon="-6.203414148029327"><ele>1774.0</ele><time>2026-05-04T15:28:22Z</time></trkpt><trkpt lat="31.429707215379754" lon="-6.203332713553714"><ele>1774.0</ele><time>2026-05-04T15:28:23Z</time></trkpt><trkpt lat="31.42960854765082" lon="-6.203258319197229"><ele>1774.0</ele><time>2026-05-04T15:28:24Z</time></trkpt><trkpt lat="31.429525355085126" lon="-6.203195592927237"><ele>1774.0000000000002</ele><time>2026-05-04T15:28:25Z</time></trkpt><trkpt lat="31.42944846306686" lon="-6.203137617193072"><ele>1774.0</ele><time>2026-05-04T15:28:26Z</time></trkpt><trkpt lat="31.429382736440356" lon="-6.203088060096747"><ele>1774.0</ele><time>2026-05-04T15:28:27Z</time></trkpt><trkpt lat="31.429324177894987" lon="-6.203043907488235"><ele>1774.0</ele><time>2026-05-04T15:28:28Z</time></trkpt><trkpt lat="31.429268086420283" lon="-6.20300029822944"><ele>1774.0000000000002</ele><time>2026-05-04T15:28:29Z</time></trkpt><trkpt lat="31.429210035065225" lon="-6.202954527546343"><ele>1774.0</ele><time>2026-05-04T15:28:30Z</time></trkpt><trkpt lat="31.429147990634505" lon="-6.202905608559719"><ele>1774.0</ele><time>2026-05-04T15:28:31Z</time></trkpt><trkpt lat="31.429079455333433" lon="-6.2028455877557125"><ele>1774.0</ele><time>2026-05-04T15:28:32Z</time></trkpt><trkpt lat="31.42901796122959" lon="-6.202784941436464"><ele>1774.0</ele><time>2026-05-04T15:28:33Z</time></trkpt><trkpt lat="31.428962768888287" lon="-6.202713400009106"><ele>1774.0</ele><time>2026-05-04T15:28:34Z</time></trkpt><trkpt lat="31.4289210362788" lon="-6.202617326846185"><ele>1774.0</ele><time>2026-05-04T15:28:35Z</time></trkpt><trkpt lat="31.428918464260956" lon="-6.202480257199263"><ele>1774.0</ele><time>2026-05-04T15:28:36Z</time></trkpt><trkpt lat="31.428955978555905" lon="-6.202354820841548"><ele>1774.0</ele><time>2026-05-04T15:28:37Z</time></trkpt><trkpt lat="31.42907424688758" lon="-6.202239685801514"><ele>1774.0</ele><time>2026-05-04T15:28:38Z</time></trkpt><trkpt lat="31.4291638732338" lon="-6.202168087878516"><ele>1774.0</ele><time>2026-05-04T15:28:39Z</time></trkpt><trkpt lat="31.429250867276604" lon="-6.202106201734666"><ele>1773.6</ele><time>2026-05-04T15:28:40Z</time></trkpt><trkpt lat="31.42935370681923" lon="-6.202059815927073"><ele>1773.2</ele><time>2026-05-04T15:28:41Z</time></trkpt><trkpt lat="31.42943932454649" lon="-6.202018352074274"><ele>1772.7999999999997</ele><time>2026-05-04T15:28:42Z</time></trkpt><trkpt lat="31.42952308432272" lon="-6.20197727550899"><ele>1772.3999999999999</ele><time>2026-05-04T15:28:43Z</time></trkpt><trkpt lat="31.429609326387165" lon="-6.2019308475681"><ele>1772.0</ele><time>2026-05-04T15:28:44Z</time></trkpt><trkpt lat="31.429687306773793" lon="-6.201888867330461"><ele>1771.9999999999998</ele><time>2026-05-04T15:28:45Z</time></trkpt><trkpt lat="31.429755058507038" lon="-6.2018487791433"><ele>1772.0</ele><time>2026-05-04T15:28:46Z</time></trkpt><trkpt lat="31.429828071877974" lon="-6.201803642801931"><ele>1772.0</ele><time>2026-05-04T15:28:47Z</time></trkpt><trkpt lat="31.429906951036244" lon="-6.201754880940078"><ele>1772.0</ele><time>2026-05-04T15:28:48Z</time></trkpt><trkpt lat="31.429970585500165" lon="-6.201686988236114"><ele>1771.9999999999998</ele><time>2026-05-04T15:28:49Z</time></trkpt><trkpt lat="31.43001826096564" lon="-6.20158328486321"><ele>1772.0</ele><time>2026-05-04T15:28:50Z</time></trkpt><trkpt lat="31.43009123809323" lon="-6.2015037478426605"><ele>1771.0</ele><time>2026-05-04T15:28:51Z</time></trkpt><trkpt lat="31.430172635874964" lon="-6.201425125499498"><ele>1769.9999999999998</ele><time>2026-05-04T15:28:52Z</time></trkpt><trkpt lat="31.430248703680057" lon="-6.201356665917296"><ele>1768.9999999999998</ele><time>2026-05-04T15:28:53Z</time></trkpt><trkpt lat="31.430363054732222" lon="-6.20132001376699"><ele>1768.0</ele><time>2026-05-04T15:28:54Z</time></trkpt><trkpt lat="31.430465666657057" lon="-6.201292249309672"><ele>1767.0</ele><time>2026-05-04T15:28:55Z</time></trkpt><trkpt lat="31.430564261752938" lon="-6.201249400297809"><ele>1765.8333333333333</ele><time>2026-05-04T15:28:56Z</time></trkpt><trkpt lat="31.430645882313648" lon="-6.201198095118779"><ele>1764.6666666666665</ele><time>2026-05-04T15:28:57Z</time></trkpt><trkpt lat="31.430723189301357" lon="-6.201133581166484"><ele>1763.5</ele><time>2026-05-04T15:28:58Z</time></trkpt><trkpt lat="31.430780987707" lon="-6.201057855163871"><ele>1762.3333333333333</ele><time>2026-05-04T15:28:59Z</time></trkpt><trkpt lat="31.430806113007073" lon="-6.200976489461821"><ele>1761.1666666666665</ele><time>2026-05-04T15:29:00Z</time></trkpt><trkpt lat="31.430823604860183" lon="-6.200892351596346"><ele>1760.0</ele><time>2026-05-04T15:29:01Z</time></trkpt><trkpt lat="31.43083536167775" lon="-6.200789490078111"><ele>1761.75</ele><time>2026-05-04T15:29:02Z</time></trkpt><trkpt lat="31.430841219677426" lon="-6.20065911056192"><ele>1763.5</ele><time>2026-05-04T15:29:03Z</time></trkpt><trkpt lat="31.43084041945229" lon="-6.200506580665541"><ele>1765.25</ele><time>2026-05-04T15:29:04Z</time></trkpt><trkpt lat="31.430840419454377" lon="-6.200341472403547"><ele>1767.0</ele><time>2026-05-04T15:29:05Z</time></trkpt><trkpt lat="31.430840419454782" lon="-6.200194941984245"><ele>1767.0</ele><time>2026-05-04T15:29:06Z</time></trkpt><trkpt lat="31.430842974400925" lon="-6.200050785887466"><ele>1767.0</ele><time>2026-05-04T15:29:07Z</time></trkpt><trkpt lat="31.430846236095686" lon="-6.199910038309379"><ele>1767.0</ele><time>2026-05-04T15:29:08Z</time></trkpt><trkpt lat="31.43088558033963" lon="-6.199749339782503"><ele>1767.0</ele><time>2026-05-04T15:29:09Z</time></trkpt><trkpt lat="31.430944796970127" lon="-6.199609409651749"><ele>1767.25</ele><time>2026-05-04T15:29:10Z</time></trkpt><trkpt lat="31.431014232748648" lon="-6.199485628098483"><ele>1767.5</ele><time>2026-05-04T15:29:11Z</time></trkpt><trkpt lat="31.43107347388234" lon="-6.199368467245667"><ele>1767.75</ele><time>2026-05-04T15:29:12Z</time></trkpt><trkpt lat="31.431141683034078" lon="-6.1992412887842105"><ele>1768.0</ele><time>2026-05-04T15:29:13Z</time></trkpt><trkpt lat="31.4312155607874" lon="-6.19911229277787"><ele>1768.0</ele><time>2026-05-04T15:29:14Z</time></trkpt><trkpt lat="31.43129469302654" lon="-6.198974246056817"><ele>1768.0</ele><time>2026-05-04T15:29:15Z</time></trkpt><trkpt lat="31.431374564619354" lon="-6.19883520365653"><ele>1768.0</ele><time>2026-05-04T15:29:16Z</time></trkpt><trkpt lat="31.43146084500511" lon="-6.198685004604536"><ele>1768.0</ele><time>2026-05-04T15:29:17Z</time></trkpt><trkpt lat="31.431553219346092" lon="-6.19852464250136"><ele>1768.0</ele><time>2026-05-04T15:29:18Z</time></trkpt><trkpt lat="31.43166497635624" lon="-6.198351386348247"><ele>1768.0</ele><time>2026-05-04T15:29:19Z</time></trkpt><trkpt lat="31.431780299132527" lon="-6.198180157931766"><ele>1768.0</ele><time>2026-05-04T15:29:20Z</time></trkpt><trkpt lat="31.43189519752265" lon="-6.198009479318287"><ele>1768.6666666666667</ele><time>2026-05-04T15:29:21Z</time></trkpt><trkpt lat="31.432016509238718" lon="-6.197830200081988"><ele>1769.3333333333335</ele><time>2026-05-04T15:29:22Z</time></trkpt><trkpt lat="31.432141506062983" lon="-6.197645476027437"><ele>1770.0</ele><time>2026-05-04T15:29:23Z</time></trkpt><trkpt lat="31.432226161349554" lon="-6.1974211053397035"><ele>1770.6666666666665</ele><time>2026-05-04T15:29:24Z</time></trkpt><trkpt lat="31.4323443373356" lon="-6.197225380931744"><ele>1771.3333333333333</ele><time>2026-05-04T15:29:25Z</time></trkpt><trkpt lat="31.432462353537403" lon="-6.19702992120646"><ele>1772.0</ele><time>2026-05-04T15:29:26Z</time></trkpt><trkpt lat="31.432578218277794" lon="-6.196838024714976"><ele>1772.0</ele><time>2026-05-04T15:29:27Z</time></trkpt><trkpt lat="31.432695631763544" lon="-6.196650743261115"><ele>1772.0</ele><time>2026-05-04T15:29:28Z</time></trkpt><trkpt lat="31.43280811835691" lon="-6.196471405865787"><ele>1772.0</ele><time>2026-05-04T15:29:29Z</time></trkpt><trkpt lat="31.43291716365966" lon="-6.1962974966930195"><ele>1772.0</ele><time>2026-05-04T15:29:30Z</time></trkpt><trkpt lat="31.43302607931973" lon="-6.196123999717968"><ele>1772.0</ele><time>2026-05-04T15:29:31Z</time></trkpt><trkpt lat="31.4331289499141" lon="-6.195959496386372"><ele>1772.0</ele><time>2026-05-04T15:29:32Z</time></trkpt><trkpt lat="31.43322901209803" lon="-6.195799728575529"><ele>1772.6666666666665</ele><time>2026-05-04T15:29:33Z</time></trkpt><trkpt lat="31.433327187416833" lon="-6.195642853744345"><ele>1773.3333333333335</ele><time>2026-05-04T15:29:34Z</time></trkpt><trkpt lat="31.433421979109532" lon="-6.1954913731910715"><ele>1774.0</ele><time>2026-05-04T15:29:35Z</time></trkpt><trkpt lat="31.433517343008717" lon="-6.195338978239422"><ele>1774.0</ele><time>2026-05-04T15:29:36Z</time></trkpt><trkpt lat="31.4336101856765" lon="-6.1951901882972225"><ele>1774.0</ele><time>2026-05-04T15:29:37Z</time></trkpt><trkpt lat="31.43370326013896" lon="-6.195041671817927"><ele>1774.0</ele><time>2026-05-04T15:29:38Z</time></trkpt><trkpt lat="31.433797942045175" lon="-6.194889806984905"><ele>1774.6666666666667</ele><time>2026-05-04T15:29:39Z</time></trkpt><trkpt lat="31.433895744391425" lon="-6.194732723767118"><ele>1775.3333333333335</ele><time>2026-05-04T15:29:40Z</time></trkpt><trkpt lat="31.433994043717927" lon="-6.194575501545569"><ele>1776.0</ele><time>2026-05-04T15:29:41Z</time></trkpt><trkpt lat="31.434091925340077" lon="-6.194418971436194"><ele>1776.0</ele><time>2026-05-04T15:29:42Z</time></trkpt><trkpt lat="31.43419084099815" lon="-6.194260787720762"><ele>1776.0</ele><time>2026-05-04T15:29:43Z</time></trkpt><trkpt lat="31.434291719464486" lon="-6.194099301588019"><ele>1776.0</ele><time>2026-05-04T15:29:44Z</time></trkpt><trkpt lat="31.434390331352684" lon="-6.193936247418674"><ele>1775.6666666666665</ele><time>2026-05-04T15:29:45Z</time></trkpt><trkpt lat="31.434490038613813" lon="-6.193771599755924"><ele>1775.3333333333333</ele><time>2026-05-04T15:29:46Z</time></trkpt><trkpt lat="31.434590458563367" lon="-6.193604881000808"><ele>1775.0</ele><time>2026-05-04T15:29:47Z</time></trkpt><trkpt lat="31.43469029020725" lon="-6.193438106799028"><ele>1776.3333333333333</ele><time>2026-05-04T15:29:48Z</time></trkpt><trkpt lat="31.43478964537383" lon="-6.193272088142512"><ele>1777.6666666666665</ele><time>2026-05-04T15:29:49Z</time></trkpt><trkpt lat="31.434889269907302" lon="-6.193103277123005"><ele>1779.0</ele><time>2026-05-04T15:29:50Z</time></trkpt><trkpt lat="31.434989354747973" lon="-6.192933422281852"><ele>1779.0</ele><time>2026-05-04T15:29:51Z</time></trkpt><trkpt lat="31.43508856170547" lon="-6.192764330777795"><ele>1779.0</ele><time>2026-05-04T15:29:52Z</time></trkpt><trkpt lat="31.4351873872347" lon="-6.192594845382788"><ele>1779.0</ele><time>2026-05-04T15:29:53Z</time></trkpt><trkpt lat="31.43528716144275" lon="-6.192425929887205"><ele>1780.6666666666665</ele><time>2026-05-04T15:29:54Z</time></trkpt><trkpt lat="31.435387863019177" lon="-6.192255751701526"><ele>1782.3333333333333</ele><time>2026-05-04T15:29:55Z</time></trkpt><trkpt lat="31.4354889433383" lon="-6.192088263534527"><ele>1784.0</ele><time>2026-05-04T15:29:56Z</time></trkpt><trkpt lat="31.435590665649986" lon="-6.19191971146721"><ele>1784.0</ele><time>2026-05-04T15:29:57Z</time></trkpt><trkpt lat="31.435690330347693" lon="-6.191754568930239"><ele>1784.0</ele><time>2026-05-04T15:29:58Z</time></trkpt><trkpt lat="31.43579096955563" lon="-6.191587811872654"><ele>1784.0</ele><time>2026-05-04T15:29:59Z</time></trkpt><trkpt lat="31.43589214122339" lon="-6.191419982494165"><ele>1785.3333333333333</ele><time>2026-05-04T15:30:00Z</time></trkpt><trkpt lat="31.435991891998764" lon="-6.191254024140313"><ele>1786.6666666666665</ele><time>2026-05-04T15:30:01Z</time></trkpt><trkpt lat="31.436102351744314" lon="-6.191085512611851"><ele>1788.0</ele><time>2026-05-04T15:30:02Z</time></trkpt><trkpt lat="31.43621137985688" lon="-6.1909286887973165"><ele>1789.0</ele><time>2026-05-04T15:30:03Z</time></trkpt><trkpt lat="31.436323212936227" lon="-6.19076799067369"><ele>1790.0</ele><time>2026-05-04T15:30:04Z</time></trkpt><trkpt lat="31.436433413421774" lon="-6.19061000153614"><ele>1791.0</ele><time>2026-05-04T15:30:05Z</time></trkpt><trkpt lat="31.43654357497805" lon="-6.190452068250425"><ele>1791.6666666666665</ele><time>2026-05-04T15:30:06Z</time></trkpt><trkpt lat="31.436657123901206" lon="-6.190289278530329"><ele>1792.3333333333333</ele><time>2026-05-04T15:30:07Z</time></trkpt><trkpt lat="31.436767538551678" lon="-6.190130982480137"><ele>1793.0</ele><time>2026-05-04T15:30:08Z</time></trkpt><trkpt lat="31.436867093731962" lon="-6.189974087571661"><ele>1793.0</ele><time>2026-05-04T15:30:09Z</time></trkpt><trkpt lat="31.436968082891063" lon="-6.189813882382181"><ele>1793.0</ele><time>2026-05-04T15:30:10Z</time></trkpt><trkpt lat="31.43707235114396" lon="-6.189648473428221"><ele>1793.0</ele><time>2026-05-04T15:30:11Z</time></trkpt><trkpt lat="31.437181246950985" lon="-6.189475615143809"><ele>1792.6666666666665</ele><time>2026-05-04T15:30:12Z</time></trkpt><trkpt lat="31.437291745605183" lon="-6.1893010098907695"><ele>1792.3333333333335</ele><time>2026-05-04T15:30:13Z</time></trkpt><trkpt lat="31.437422675833545" lon="-6.189130746827587"><ele>1792.0</ele><time>2026-05-04T15:30:14Z</time></trkpt><trkpt lat="31.437551681918258" lon="-6.188966511583919"><ele>1793.0</ele><time>2026-05-04T15:30:15Z</time></trkpt><trkpt lat="31.437682377716428" lon="-6.188800125098876"><ele>1794.0</ele><time>2026-05-04T15:30:16Z</time></trkpt><trkpt lat="31.437814911898442" lon="-6.188631222189544"><ele>1795.0</ele><time>2026-05-04T15:30:17Z</time></trkpt><trkpt lat="31.437945843934155" lon="-6.188463642457978"><ele>1795.0</ele><time>2026-05-04T15:30:18Z</time></trkpt><trkpt lat="31.438076491992398" lon="-6.188296006524273"><ele>1795.0</ele><time>2026-05-04T15:30:19Z</time></trkpt><trkpt lat="31.438209007208915" lon="-6.18812572000721"><ele>1795.0</ele><time>2026-05-04T15:30:20Z</time></trkpt><trkpt lat="31.438340367647747" lon="-6.18795777125642"><ele>1794.3333333333335</ele><time>2026-05-04T15:30:21Z</time></trkpt><trkpt lat="31.43848113057084" lon="-6.187794479739272"><ele>1793.6666666666665</ele><time>2026-05-04T15:30:22Z</time></trkpt><trkpt lat="31.438618796972197" lon="-6.187636623729642"><ele>1793.0</ele><time>2026-05-04T15:30:23Z</time></trkpt><trkpt lat="31.43875299282938" lon="-6.187481639605938"><ele>1797.0</ele><time>2026-05-04T15:30:24Z</time></trkpt><trkpt lat="31.438888048138026" lon="-6.187325531781021"><ele>1801.0</ele><time>2026-05-04T15:30:25Z</time></trkpt><trkpt lat="31.43901886396897" lon="-6.1871728283180385"><ele>1805.0</ele><time>2026-05-04T15:30:26Z</time></trkpt><trkpt lat="31.439141044686124" lon="-6.187019864227824"><ele>1805.0</ele><time>2026-05-04T15:30:27Z</time></trkpt><trkpt lat="31.439257770241518" lon="-6.186873262729883"><ele>1805.0</ele><time>2026-05-04T15:30:28Z</time></trkpt><trkpt lat="31.439370041809813" lon="-6.186732406136049"><ele>1805.0</ele><time>2026-05-04T15:30:29Z</time></trkpt><trkpt lat="31.439482807755617" lon="-6.186592704029219"><ele>1805.6666666666665</ele><time>2026-05-04T15:30:30Z</time></trkpt><trkpt lat="31.439601670295406" lon="-6.18646261014395"><ele>1806.3333333333335</ele><time>2026-05-04T15:30:31Z</time></trkpt><trkpt lat="31.43971749488954" lon="-6.186335706128879"><ele>1807.0</ele><time>2026-05-04T15:30:32Z</time></trkpt><trkpt lat="31.439843568170907" lon="-6.186206717236941"><ele>1807.0</ele><time>2026-05-04T15:30:33Z</time></trkpt><trkpt lat="31.43996440545732" lon="-6.186090140700126"><ele>1807.0</ele><time>2026-05-04T15:30:34Z</time></trkpt><trkpt lat="31.440072814056773" lon="-6.18595134030444"><ele>1807.0</ele><time>2026-05-04T15:30:35Z</time></trkpt><trkpt lat="31.440182116162347" lon="-6.185812845847053"><ele>1807.0</ele><time>2026-05-04T15:30:36Z</time></trkpt><trkpt lat="31.4403090282877" lon="-6.1856800193512145"><ele>1807.0</ele><time>2026-05-04T15:30:37Z</time></trkpt><trkpt lat="31.44043836881595" lon="-6.185560493081811"><ele>1807.0</ele><time>2026-05-04T15:30:38Z</time></trkpt><trkpt lat="31.440561162912935" lon="-6.185426199855683"><ele>1809.3333333333335</ele><time>2026-05-04T15:30:39Z</time></trkpt><trkpt lat="31.440681772942103" lon="-6.18529474760578"><ele>1811.6666666666665</ele><time>2026-05-04T15:30:40Z</time></trkpt><trkpt lat="31.440815704992858" lon="-6.185171596108854"><ele>1814.0</ele><time>2026-05-04T15:30:41Z</time></trkpt><trkpt lat="31.44093845390871" lon="-6.185039782344104"><ele>1814.0</ele><time>2026-05-04T15:30:42Z</time></trkpt><trkpt lat="31.441060417119665" lon="-6.18490707781796"><ele>1814.0</ele><time>2026-05-04T15:30:43Z</time></trkpt><trkpt lat="31.441175220627787" lon="-6.184760471828513"><ele>1814.0</ele><time>2026-05-04T15:30:44Z</time></trkpt><trkpt lat="31.441290006197033" lon="-6.184611023939554"><ele>1813.6666666666665</ele><time>2026-05-04T15:30:45Z</time></trkpt><trkpt lat="31.441397632402584" lon="-6.184443989307406"><ele>1813.3333333333335</ele><time>2026-05-04T15:30:46Z</time></trkpt><trkpt lat="31.44150104037422" lon="-6.184265037289925"><ele>1813.0</ele><time>2026-05-04T15:30:47Z</time></trkpt><trkpt lat="31.44161407654115" lon="-6.184071580419823"><ele>1816.3333333333335</ele><time>2026-05-04T15:30:48Z</time></trkpt><trkpt lat="31.4417407421381" lon="-6.183896362998191"><ele>1819.6666666666665</ele><time>2026-05-04T15:30:49Z</time></trkpt><trkpt lat="31.44189352872542" lon="-6.183747145210248"><ele>1823.0</ele><time>2026-05-04T15:30:50Z</time></trkpt><trkpt lat="31.44202830968463" lon="-6.183587282549552"><ele>1823.0</ele><time>2026-05-04T15:30:51Z</time></trkpt><trkpt lat="31.442164565117817" lon="-6.183438972876267"><ele>1823.0</ele><time>2026-05-04T15:30:52Z</time></trkpt><trkpt lat="31.44226674257588" lon="-6.183245539520618"><ele>1823.0</ele><time>2026-05-04T15:30:53Z</time></trkpt><trkpt lat="31.44236780112916" lon="-6.183046836486134"><ele>1823.0</ele><time>2026-05-04T15:30:54Z</time></trkpt><trkpt lat="31.442465298689626" lon="-6.182831874895815"><ele>1823.0</ele><time>2026-05-04T15:30:55Z</time></trkpt><trkpt lat="31.442564941934908" lon="-6.182622403839301"><ele>1823.0</ele><time>2026-05-04T15:30:56Z</time></trkpt><trkpt lat="31.442664791682635" lon="-6.18241868305856"><ele>1825.0</ele><time>2026-05-04T15:30:57Z</time></trkpt><trkpt lat="31.44274752042655" lon="-6.182234930403622"><ele>1827.0</ele><time>2026-05-04T15:30:58Z</time></trkpt><trkpt lat="31.442815158368646" lon="-6.182039972183629"><ele>1829.0</ele><time>2026-05-04T15:30:59Z</time></trkpt><trkpt lat="31.442847941023537" lon="-6.181833089665769"><ele>1829.0</ele><time>2026-05-04T15:31:00Z</time></trkpt><trkpt lat="31.442887036334806" lon="-6.181611217884996"><ele>1829.0</ele><time>2026-05-04T15:31:01Z</time></trkpt><trkpt lat="31.44292549928402" lon="-6.181399546907835"><ele>1829.0</ele><time>2026-05-04T15:31:01.999Z</time></trkpt><trkpt lat="31.442965257388902" lon="-6.181200248385605"><ele>1829.0</ele><time>2026-05-04T15:31:02.999Z</time></trkpt><trkpt lat="31.442999716303287" lon="-6.181053872856739"><ele>1829.0</ele><time>2026-05-04T15:31:03.999Z</time></trkpt><trkpt lat="31.443014187918465" lon="-6.180931697595104"><ele>1829.0</ele><time>2026-05-04T15:31:04.999Z</time></trkpt><trkpt lat="31.442987174602642" lon="-6.180853119532255"><ele>1829.0</ele><time>2026-05-04T15:31:05.999Z</time></trkpt><trkpt lat="31.4429532335642" lon="-6.180753075695466"><ele>1829.0</ele><time>2026-05-04T15:31:06.999Z</time></trkpt><trkpt lat="31.442870577809774" lon="-6.1806138201984"><ele>1828.6666666666665</ele><time>2026-05-04T15:31:07.999Z</time></trkpt><trkpt lat="31.44278281978437" lon="-6.1804478487227925"><ele>1828.3333333333335</ele><time>2026-05-04T15:31:08.999Z</time></trkpt><trkpt lat="31.442686918540833" lon="-6.180270280413676"><ele>1828.0</ele><time>2026-05-04T15:31:09.999Z</time></trkpt><trkpt lat="31.442593914412026" lon="-6.180098329608886"><ele>1828.0</ele><time>2026-05-04T15:31:10.999Z</time></trkpt><trkpt lat="31.442505494589607" lon="-6.179936048306152"><ele>1828.0</ele><time>2026-05-04T15:31:11.999Z</time></trkpt><trkpt lat="31.442417100961222" lon="-6.179774599844554"><ele>1828.0</ele><time>2026-05-04T15:31:12.999Z</time></trkpt><trkpt lat="31.442331164248614" lon="-6.1796166563422945"><ele>1827.75</ele><time>2026-05-04T15:31:13.999Z</time></trkpt><trkpt lat="31.442237307923822" lon="-6.179476309122077"><ele>1827.5</ele><time>2026-05-04T15:31:14.999Z</time></trkpt><trkpt lat="31.442131381096562" lon="-6.179366979220557"><ele>1827.25</ele><time>2026-05-04T15:31:15.999Z</time></trkpt><trkpt lat="31.442017417803346" lon="-6.179261401866002"><ele>1827.0</ele><time>2026-05-04T15:31:16.999Z</time></trkpt><trkpt lat="31.44189896964633" lon="-6.179162125558242"><ele>1826.25</ele><time>2026-05-04T15:31:17.999Z</time></trkpt><trkpt lat="31.4417871171417" lon="-6.179046795458097"><ele>1825.5</ele><time>2026-05-04T15:31:18.999Z</time></trkpt><trkpt lat="31.441695973079515" lon="-6.178914626761551"><ele>1824.75</ele><time>2026-05-04T15:31:19.999Z</time></trkpt><trkpt lat="31.44163207230948" lon="-6.178771607164249"><ele>1824.0</ele><time>2026-05-04T15:31:20.999Z</time></trkpt><trkpt lat="31.44162990369069" lon="-6.178616259345042"><ele>1821.6666666666665</ele><time>2026-05-04T15:31:21.999Z</time></trkpt><trkpt lat="31.441648962874574" lon="-6.178455061496406"><ele>1819.3333333333333</ele><time>2026-05-04T15:31:22.999Z</time></trkpt><trkpt lat="31.441699809768533" lon="-6.178277034961984"><ele>1817.0</ele><time>2026-05-04T15:31:23.999Z</time></trkpt><trkpt lat="31.441754616598352" lon="-6.178083495238417"><ele>1817.0</ele><time>2026-05-04T15:31:24.999Z</time></trkpt><trkpt lat="31.441805296718382" lon="-6.177872867056564"><ele>1817.0</ele><time>2026-05-04T15:31:25.999Z</time></trkpt><trkpt lat="31.441858181360338" lon="-6.177645385721488"><ele>1817.0</ele><time>2026-05-04T15:31:26.999Z</time></trkpt><trkpt lat="31.441911384651323" lon="-6.177423422402586"><ele>1817.3333333333333</ele><time>2026-05-04T15:31:27.999Z</time></trkpt><trkpt lat="31.44196990845807" lon="-6.177187913602705"><ele>1817.6666666666665</ele><time>2026-05-04T15:31:28.999Z</time></trkpt><trkpt lat="31.442021963755344" lon="-6.176954655866371"><ele>1818.0</ele><time>2026-05-04T15:31:29.999Z</time></trkpt><trkpt lat="31.442066459819692" lon="-6.176725370264507"><ele>1818.0</ele><time>2026-05-04T15:31:30.999Z</time></trkpt><trkpt lat="31.44207179959242" lon="-6.176492598971614"><ele>1818.0</ele><time>2026-05-04T15:31:31.999Z</time></trkpt><trkpt lat="31.442078319606217" lon="-6.176261399720279"><ele>1818.0</ele><time>2026-05-04T15:31:32.999Z</time></trkpt><trkpt lat="31.442078319605216" lon="-6.176021862442543"><ele>1818.0</ele><time>2026-05-04T15:31:33.999Z</time></trkpt><trkpt lat="31.442079023093623" lon="-6.1757798766602"><ele>1818.0</ele><time>2026-05-04T15:31:34.999Z</time></trkpt><trkpt lat="31.442083270676232" lon="-6.175546363923754"><ele>1818.0</ele><time>2026-05-04T15:31:35.999Z</time></trkpt><trkpt lat="31.44208294693799" lon="-6.175323735851354"><ele>1817.0</ele><time>2026-05-04T15:31:36.999Z</time></trkpt><trkpt lat="31.442077284119133" lon="-6.175095878324398"><ele>1816.0</ele><time>2026-05-04T15:31:37.999Z</time></trkpt><trkpt lat="31.44206980282734" lon="-6.174867130517387"><ele>1815.0</ele><time>2026-05-04T15:31:38.999Z</time></trkpt><trkpt lat="31.442059436167373" lon="-6.174642056575752"><ele>1813.6666666666665</ele><time>2026-05-04T15:31:39.999Z</time></trkpt><trkpt lat="31.442054308950603" lon="-6.1744284833585965"><ele>1812.3333333333333</ele><time>2026-05-04T15:31:40.999Z</time></trkpt><trkpt lat="31.44206047610885" lon="-6.17421253965378"><ele>1811.0</ele><time>2026-05-04T15:31:41.999Z</time></trkpt><trkpt lat="31.442083406094913" lon="-6.174027845352226"><ele>1808.3333333333333</ele><time>2026-05-04T15:31:42.999Z</time></trkpt><trkpt lat="31.442149167583082" lon="-6.173784523675146"><ele>1805.6666666666665</ele><time>2026-05-04T15:31:43.999Z</time></trkpt><trkpt lat="31.442229279122373" lon="-6.173543323516749"><ele>1803.0</ele><time>2026-05-04T15:31:44.999Z</time></trkpt><trkpt lat="31.4422942900918" lon="-6.173320798283969"><ele>1803.3333333333335</ele><time>2026-05-04T15:31:45.999Z</time></trkpt><trkpt lat="31.442345497690685" lon="-6.173098174663711"><ele>1803.6666666666667</ele><time>2026-05-04T15:31:46.999Z</time></trkpt><trkpt lat="31.442364829110268" lon="-6.172877705680744"><ele>1804.0</ele><time>2026-05-04T15:31:47.999Z</time></trkpt><trkpt lat="31.442347064353168" lon="-6.172664029745489"><ele>1804.0</ele><time>2026-05-04T15:31:48.999Z</time></trkpt><trkpt lat="31.442313304364465" lon="-6.172440192681905"><ele>1804.0</ele><time>2026-05-04T15:31:49.999Z</time></trkpt><trkpt lat="31.442275003076197" lon="-6.172210454631215"><ele>1804.0</ele><time>2026-05-04T15:31:50.999Z</time></trkpt><trkpt lat="31.442234640888998" lon="-6.171969024104164"><ele>1804.3333333333335</ele><time>2026-05-04T15:31:51.999Z</time></trkpt><trkpt lat="31.442194682457497" lon="-6.17172607309997"><ele>1804.6666666666665</ele><time>2026-05-04T15:31:52.999Z</time></trkpt><trkpt lat="31.44215854005391" lon="-6.171484381020333"><ele>1805.0</ele><time>2026-05-04T15:31:53.999Z</time></trkpt><trkpt lat="31.442124120021603" lon="-6.17125116932839"><ele>1800.0</ele><time>2026-05-04T15:31:54.999Z</time></trkpt><trkpt lat="31.442095915532043" lon="-6.171003930802781"><ele>1795.0</ele><time>2026-05-04T15:31:55.999Z</time></trkpt><trkpt lat="31.442082653376353" lon="-6.17076899141621"><ele>1790.0</ele><time>2026-05-04T15:31:56.999Z</time></trkpt><trkpt lat="31.442073405009356" lon="-6.170520652466381"><ele>1790.0</ele><time>2026-05-04T15:31:57.999Z</time></trkpt><trkpt lat="31.442071898726287" lon="-6.170279059829928"><ele>1790.0</ele><time>2026-05-04T15:31:58.999Z</time></trkpt><trkpt lat="31.442079445600765" lon="-6.170039871985007"><ele>1790.0</ele><time>2026-05-04T15:31:59.999Z</time></trkpt><trkpt lat="31.442096101288115" lon="-6.1698098738517295"><ele>1790.0</ele><time>2026-05-04T15:32:00.999Z</time></trkpt><trkpt lat="31.44211611196388" lon="-6.1695877394654035"><ele>1790.0</ele><time>2026-05-04T15:32:01.999Z</time></trkpt><trkpt lat="31.442137911044405" lon="-6.169370860973614"><ele>1790.0</ele><time>2026-05-04T15:32:02.999Z</time></trkpt><trkpt lat="31.442159633330327" lon="-6.169171541084174"><ele>1788.5</ele><time>2026-05-04T15:32:03.999Z</time></trkpt><trkpt lat="31.442179245070122" lon="-6.1689880965466015"><ele>1787.0</ele><time>2026-05-04T15:32:04.999Z</time></trkpt><trkpt lat="31.442206939417638" lon="-6.16881581939498"><ele>1785.5</ele><time>2026-05-04T15:32:05.999Z</time></trkpt><trkpt lat="31.44223165381076" lon="-6.168658531398754"><ele>1784.0</ele><time>2026-05-04T15:32:06.999Z</time></trkpt><trkpt lat="31.442255134000522" lon="-6.168507716388617"><ele>1784.0</ele><time>2026-05-04T15:32:07.999Z</time></trkpt><trkpt lat="31.442283433155303" lon="-6.168369110600914"><ele>1784.0</ele><time>2026-05-04T15:32:08.999Z</time></trkpt><trkpt lat="31.442311614501946" lon="-6.168236365430269"><ele>1784.0</ele><time>2026-05-04T15:32:09.999Z</time></trkpt><trkpt lat="31.442339382477517" lon="-6.16810411525807"><ele>1784.0</ele><time>2026-05-04T15:32:10.999Z</time></trkpt><trkpt lat="31.442351722368876" lon="-6.167991647861169"><ele>1784.5</ele><time>2026-05-04T15:32:11.999Z</time></trkpt><trkpt lat="31.44235720058213" lon="-6.16787350780112"><ele>1785.0</ele><time>2026-05-04T15:32:12.999Z</time></trkpt><trkpt lat="31.442297232109713" lon="-6.1677561990222705"><ele>1785.5</ele><time>2026-05-04T15:32:13.999Z</time></trkpt><trkpt lat="31.44223408501972" lon="-6.167605949997409"><ele>1786.0</ele><time>2026-05-04T15:32:14.999Z</time></trkpt><trkpt lat="31.44216699715447" lon="-6.167445900450543"><ele>1785.0</ele><time>2026-05-04T15:32:15.999Z</time></trkpt><trkpt lat="31.442094780458806" lon="-6.167262077547891"><ele>1784.0</ele><time>2026-05-04T15:32:16.999Z</time></trkpt><trkpt lat="31.442025908335623" lon="-6.167084846595461"><ele>1783.0</ele><time>2026-05-04T15:32:17.999Z</time></trkpt><trkpt lat="31.4419575286079" lon="-6.166901724255084"><ele>1783.0</ele><time>2026-05-04T15:32:18.999Z</time></trkpt><trkpt lat="31.44189180306113" lon="-6.166704735438604"><ele>1783.0</ele><time>2026-05-04T15:32:19.999Z</time></trkpt><trkpt lat="31.441836630211522" lon="-6.166506808133055"><ele>1783.0</ele><time>2026-05-04T15:32:20.999Z</time></trkpt><trkpt lat="31.441793419050395" lon="-6.166317212347608"><ele>1783.25</ele><time>2026-05-04T15:32:21.999Z</time></trkpt><trkpt lat="31.441775978013826" lon="-6.166137343718887"><ele>1783.5</ele><time>2026-05-04T15:32:22.999Z</time></trkpt><trkpt lat="31.441770009164195" lon="-6.165981889615404"><ele>1783.75</ele><time>2026-05-04T15:32:23.999Z</time></trkpt><trkpt lat="31.441797292151943" lon="-6.165804067013537"><ele>1784.0</ele><time>2026-05-04T15:32:24.999Z</time></trkpt><trkpt lat="31.4418197002239" lon="-6.165621451604529"><ele>1783.0</ele><time>2026-05-04T15:32:25.999Z</time></trkpt><trkpt lat="31.441839278232937" lon="-6.165428798144223"><ele>1782.0</ele><time>2026-05-04T15:32:26.999Z</time></trkpt><trkpt lat="31.441859324024158" lon="-6.165229871520481"><ele>1781.0</ele><time>2026-05-04T15:32:27.999Z</time></trkpt><trkpt lat="31.44187815043013" lon="-6.165036176305163"><ele>1780.0</ele><time>2026-05-04T15:32:28.999Z</time></trkpt><trkpt lat="31.44189469349112" lon="-6.16485421594871"><ele>1779.0</ele><time>2026-05-04T15:32:29.999Z</time></trkpt><trkpt lat="31.441910745126023" lon="-6.1646790015730835"><ele>1778.0</ele><time>2026-05-04T15:32:30.999Z</time></trkpt><trkpt lat="31.44192656503119" lon="-6.164507220410251"><ele>1778.0</ele><time>2026-05-04T15:32:31.999Z</time></trkpt><trkpt lat="31.441941570851665" lon="-6.1643333948562935"><ele>1778.0</ele><time>2026-05-04T15:32:32.999Z</time></trkpt><trkpt lat="31.441956936714725" lon="-6.164172682727119"><ele>1778.0</ele><time>2026-05-04T15:32:33.999Z</time></trkpt><trkpt lat="31.44195949724022" lon="-6.163993536362375"><ele>1778.0</ele><time>2026-05-04T15:32:34.999Z</time></trkpt><trkpt lat="31.44196302976807" lon="-6.163794651192122"><ele>1780.3333333333333</ele><time>2026-05-04T15:32:35.999Z</time></trkpt><trkpt lat="31.441967006716084" lon="-6.1636037000393555"><ele>1782.6666666666665</ele><time>2026-05-04T15:32:36.999Z</time></trkpt><trkpt lat="31.441968519517665" lon="-6.163417368363227"><ele>1785.0</ele><time>2026-05-04T15:32:37.999Z</time></trkpt><trkpt lat="31.441968519520188" lon="-6.163236036276314"><ele>1787.6666666666665</ele><time>2026-05-04T15:32:38.999Z</time></trkpt><trkpt lat="31.441968519525904" lon="-6.1630575789400375"><ele>1790.3333333333333</ele><time>2026-05-04T15:32:39.999Z</time></trkpt><trkpt lat="31.441968519531255" lon="-6.162875120129802"><ele>1793.0</ele><time>2026-05-04T15:32:40.999Z</time></trkpt><trkpt lat="31.441956009279885" lon="-6.162691950046746"><ele>1793.0</ele><time>2026-05-04T15:32:41.999Z</time></trkpt><trkpt lat="31.44194017085765" lon="-6.16250762556028"><ele>1793.0</ele><time>2026-05-04T15:32:42.999Z</time></trkpt><trkpt lat="31.441914247842053" lon="-6.1623250897195145"><ele>1793.0</ele><time>2026-05-04T15:32:43.999Z</time></trkpt><trkpt lat="31.441887735081277" lon="-6.162143199675713"><ele>1793.0</ele><time>2026-05-04T15:32:44.999Z</time></trkpt><trkpt lat="31.441847416153426" lon="-6.161978360013414"><ele>1793.0</ele><time>2026-05-04T15:32:45.999Z</time></trkpt><trkpt lat="31.441794469460678" lon="-6.161811910124156"><ele>1793.0</ele><time>2026-05-04T15:32:46.999Z</time></trkpt><trkpt lat="31.441732850562214" lon="-6.1616376662503765"><ele>1793.5</ele><time>2026-05-04T15:32:47.999Z</time></trkpt><trkpt lat="31.441667639831135" lon="-6.161470245048165"><ele>1794.0</ele><time>2026-05-04T15:32:48.999Z</time></trkpt><trkpt lat="31.441601170557348" lon="-6.161320018311648"><ele>1794.5</ele><time>2026-05-04T15:32:49.999Z</time></trkpt><trkpt lat="31.441527400523977" lon="-6.161179092899888"><ele>1795.0</ele><time>2026-05-04T15:32:50.999Z</time></trkpt><trkpt lat="31.441455400072943" lon="-6.161058287386969"><ele>1795.0</ele><time>2026-05-04T15:32:51.999Z</time></trkpt><trkpt lat="31.441384698096538" lon="-6.1609478513972995"><ele>1795.0</ele><time>2026-05-04T15:32:52.999Z</time></trkpt><trkpt lat="31.44132327619575" lon="-6.160851565979349"><ele>1795.0</ele><time>2026-05-04T15:32:53.999Z</time></trkpt><trkpt lat="31.441267387429544" lon="-6.160763159860681"><ele>1795.0</ele><time>2026-05-04T15:32:54.999Z</time></trkpt><trkpt lat="31.441220412228375" lon="-6.1606874231332585"><ele>1795.0</ele><time>2026-05-04T15:32:55.999Z</time></trkpt><trkpt lat="31.441175381864273" lon="-6.160613493931898"><ele>1791.0</ele><time>2026-05-04T15:32:56.999Z</time></trkpt><trkpt lat="31.441155918687524" lon="-6.160526127184535"><ele>1787.0</ele><time>2026-05-04T15:32:57.999Z</time></trkpt><trkpt lat="31.441165985726382" lon="-6.160416555534874"><ele>1783.0</ele><time>2026-05-04T15:32:58.999Z</time></trkpt><trkpt lat="31.441176523676877" lon="-6.160332297396206"><ele>1779.0</ele><time>2026-05-04T15:32:59.999Z</time></trkpt><trkpt lat="31.44120006495971" lon="-6.1602090129660585"><ele>1775.0</ele><time>2026-05-04T15:33:00.999Z</time></trkpt><trkpt lat="31.441226397942344" lon="-6.160089714678633"><ele>1775.0</ele><time>2026-05-04T15:33:01.999Z</time></trkpt><trkpt lat="31.44124140538848" lon="-6.159981233381894"><ele>1775.0</ele><time>2026-05-04T15:33:02.999Z</time></trkpt><trkpt lat="31.441239282101858" lon="-6.1598512512340635"><ele>1775.0</ele><time>2026-05-04T15:33:03.999Z</time></trkpt><trkpt lat="31.441214954740065" lon="-6.159765324650279"><ele>1775.0</ele><time>2026-05-04T15:33:04.999Z</time></trkpt><trkpt lat="31.441172129613427" lon="-6.159690700565607"><ele>1775.0</ele><time>2026-05-04T15:33:05.999Z</time></trkpt><trkpt lat="31.4411220800775" lon="-6.1595887903183115"><ele>1774.3333333333333</ele><time>2026-05-04T15:33:06.999Z</time></trkpt><trkpt lat="31.441075403293755" lon="-6.159493680533734"><ele>1773.6666666666665</ele><time>2026-05-04T15:33:07.998Z</time></trkpt><trkpt lat="31.44102687213174" lon="-6.159408666556744"><ele>1773.0</ele><time>2026-05-04T15:33:08.998Z</time></trkpt><trkpt lat="31.440983848498853" lon="-6.159333300482931"><ele>1772.3333333333335</ele><time>2026-05-04T15:33:09.998Z</time></trkpt><trkpt lat="31.440947102976708" lon="-6.159268931958253"><ele>1771.6666666666667</ele><time>2026-05-04T15:33:10.998Z</time></trkpt><trkpt lat="31.440880950650982" lon="-6.1591530504751075"><ele>1771.0</ele><time>2026-05-04T15:33:12.998Z</time></trkpt><trkpt lat="31.440827679881284" lon="-6.159065324709051"><ele>1770.75</ele><time>2026-05-04T15:33:14.998Z</time></trkpt><trkpt lat="31.440748181311026" lon="-6.1589336229412766"><ele>1770.5</ele><time>2026-05-04T15:33:16.998Z</time></trkpt><trkpt lat="31.440688253435955" lon="-6.158831167845026"><ele>1770.25</ele><time>2026-05-04T15:33:17.998Z</time></trkpt><trkpt lat="31.44062694161943" lon="-6.158719122388544"><ele>1770.0</ele><time>2026-05-04T15:33:18.998Z</time></trkpt><trkpt lat="31.44056976000241" lon="-6.1585924127697576"><ele>1770.0</ele><time>2026-05-04T15:33:19.998Z</time></trkpt><trkpt lat="31.440518472095324" lon="-6.158471325217728"><ele>1770.0</ele><time>2026-05-04T15:33:20.998Z</time></trkpt><trkpt lat="31.44046718453801" lon="-6.158355823459229"><ele>1770.0</ele><time>2026-05-04T15:33:21.998Z</time></trkpt><trkpt lat="31.44041445546382" lon="-6.158237221440357"><ele>1770.0</ele><time>2026-05-04T15:33:22.998Z</time></trkpt><trkpt lat="31.44036138082461" lon="-6.158148660074103"><ele>1770.0</ele><time>2026-05-04T15:33:23.998Z</time></trkpt><trkpt lat="31.44029841625947" lon="-6.158064143130423"><ele>1767.0</ele><time>2026-05-04T15:33:24.999Z</time></trkpt><trkpt lat="31.440225309807417" lon="-6.158002976539393"><ele>1764.0</ele><time>2026-05-04T15:33:25.999Z</time></trkpt><trkpt lat="31.440121401134387" lon="-6.157932528723062"><ele>1761.0</ele><time>2026-05-04T15:33:26.999Z</time></trkpt><trkpt lat="31.44001046249041" lon="-6.157866371049466"><ele>1758.0</ele><time>2026-05-04T15:33:27.999Z</time></trkpt><trkpt lat="31.439875192854146" lon="-6.157799771225039"><ele>1758.0</ele><time>2026-05-04T15:33:28.999Z</time></trkpt><trkpt lat="31.439732808256185" lon="-6.157728327614734"><ele>1758.0</ele><time>2026-05-04T15:33:29.999Z</time></trkpt><trkpt lat="31.43959334395376" lon="-6.15765663210995"><ele>1758.0</ele><time>2026-05-04T15:33:30.999Z</time></trkpt><trkpt lat="31.4394647998586" lon="-6.15759051246881"><ele>1758.0</ele><time>2026-05-04T15:33:31.999Z</time></trkpt><trkpt lat="31.439342950790714" lon="-6.157528378432358"><ele>1759.0</ele><time>2026-05-04T15:33:32.999Z</time></trkpt><trkpt lat="31.4392176675583" lon="-6.157459915348867"><ele>1760.0</ele><time>2026-05-04T15:33:33.999Z</time></trkpt><trkpt lat="31.439093926300313" lon="-6.157384638156594"><ele>1761.0</ele><time>2026-05-04T15:33:34.999Z</time></trkpt><trkpt lat="31.438964100749146" lon="-6.157305755324091"><ele>1762.0</ele><time>2026-05-04T15:33:35.999Z</time></trkpt><trkpt lat="31.438837446026554" lon="-6.157201727797926"><ele>1764.25</ele><time>2026-05-04T15:33:36.999Z</time></trkpt><trkpt lat="31.43871733325231" lon="-6.157106374350007"><ele>1766.5</ele><time>2026-05-04T15:33:37.999Z</time></trkpt><trkpt lat="31.438608589627403" lon="-6.15701384879476"><ele>1768.75</ele><time>2026-05-04T15:33:38.999Z</time></trkpt><trkpt lat="31.438507989718676" lon="-6.156920226955004"><ele>1771.0</ele><time>2026-05-04T15:33:39.999Z</time></trkpt><trkpt lat="31.43843748827336" lon="-6.156770744448256"><ele>1771.0</ele><time>2026-05-04T15:33:40.999Z</time></trkpt><trkpt lat="31.438404715214674" lon="-6.156608343188233"><ele>1771.0</ele><time>2026-05-04T15:33:41.999Z</time></trkpt><trkpt lat="31.4383718209021" lon="-6.156446980065731"><ele>1771.0</ele><time>2026-05-04T15:33:42.999Z</time></trkpt><trkpt lat="31.43834606826386" lon="-6.156277033667933"><ele>1771.0</ele><time>2026-05-04T15:33:43.999Z</time></trkpt><trkpt lat="31.43829947160635" lon="-6.156116607986945"><ele>1768.5</ele><time>2026-05-04T15:33:44.999Z</time></trkpt><trkpt lat="31.43826345655148" lon="-6.155961234859908"><ele>1766.0</ele><time>2026-05-04T15:33:45.999Z</time></trkpt><trkpt lat="31.438222283331232" lon="-6.155826398724286"><ele>1763.5</ele><time>2026-05-04T15:33:46.999Z</time></trkpt><trkpt lat="31.438177618345435" lon="-6.155687979592129"><ele>1761.0</ele><time>2026-05-04T15:33:47.999Z</time></trkpt><trkpt lat="31.438087525943523" lon="-6.155577584898175"><ele>1762.25</ele><time>2026-05-04T15:33:48.999Z</time></trkpt><trkpt lat="31.43800178597196" lon="-6.155436234746916"><ele>1763.5</ele><time>2026-05-04T15:33:49.999Z</time></trkpt><trkpt lat="31.437920049721548" lon="-6.155305330895037"><ele>1764.75</ele><time>2026-05-04T15:33:50.999Z</time></trkpt><trkpt lat="31.437834291548107" lon="-6.15518763497914"><ele>1766.0</ele><time>2026-05-04T15:33:51.999Z</time></trkpt><trkpt lat="31.43774534750142" lon="-6.155113300396347"><ele>1766.0</ele><time>2026-05-04T15:33:52.999Z</time></trkpt><trkpt lat="31.437642976129133" lon="-6.15507014012025"><ele>1766.0</ele><time>2026-05-04T15:33:53.999Z</time></trkpt><trkpt lat="31.437518842741596" lon="-6.155008460982955"><ele>1766.0</ele><time>2026-05-04T15:33:54.999Z</time></trkpt><trkpt lat="31.437393219297274" lon="-6.154907300645422"><ele>1766.0</ele><time>2026-05-04T15:33:55.999Z</time></trkpt><trkpt lat="31.43728666371573" lon="-6.154775812187805"><ele>1766.75</ele><time>2026-05-04T15:33:56.999Z</time></trkpt><trkpt lat="31.437178454654997" lon="-6.154669833422882"><ele>1767.5</ele><time>2026-05-04T15:33:57.999Z</time></trkpt><trkpt lat="31.437092967507866" lon="-6.154570424391526"><ele>1768.25</ele><time>2026-05-04T15:33:58.999Z</time></trkpt><trkpt lat="31.437022451811913" lon="-6.1544882217603245"><ele>1769.0</ele><time>2026-05-04T15:33:59.999Z</time></trkpt><trkpt lat="31.436957998331675" lon="-6.15441295039104"><ele>1769.0</ele><time>2026-05-04T15:34:00.999Z</time></trkpt><trkpt lat="31.436882594966203" lon="-6.154427853067114"><ele>1769.0</ele><time>2026-05-04T15:34:01.999Z</time></trkpt><trkpt lat="31.436792068600866" lon="-6.154411416034946"><ele>1769.0</ele><time>2026-05-04T15:34:02.999Z</time></trkpt><trkpt lat="31.436696190732484" lon="-6.154439261744478"><ele>1769.0</ele><time>2026-05-04T15:34:03.999Z</time></trkpt><trkpt lat="31.436583925193563" lon="-6.154455054497259"><ele>1769.0</ele><time>2026-05-04T15:34:04.999Z</time></trkpt><trkpt lat="31.43646999890679" lon="-6.154447516686486"><ele>1769.0</ele><time>2026-05-04T15:34:05.999Z</time></trkpt><trkpt lat="31.436372277553822" lon="-6.154445062232391"><ele>1769.0</ele><time>2026-05-04T15:34:06.999Z</time></trkpt><trkpt lat="31.436275465523927" lon="-6.154286210990355"><ele>1769.0</ele><time>2026-05-04T15:34:07.999Z</time></trkpt><trkpt lat="31.436179656013486" lon="-6.154207783855336"><ele>1769.0</ele><time>2026-05-04T15:34:08.999Z</time></trkpt><trkpt lat="31.4360740656592" lon="-6.1541192285061195"><ele>1769.6</ele><time>2026-05-04T15:34:09.999Z</time></trkpt><trkpt lat="31.435966514590255" lon="-6.154028964021644"><ele>1770.2</ele><time>2026-05-04T15:34:10.999Z</time></trkpt><trkpt lat="31.435879340631104" lon="-6.1539563038568685"><ele>1770.7999999999997</ele><time>2026-05-04T15:34:11.999Z</time></trkpt><trkpt lat="31.435800397630427" lon="-6.153910185118779"><ele>1771.3999999999999</ele><time>2026-05-04T15:34:12.999Z</time></trkpt><trkpt lat="31.43572357971663" lon="-6.15386669036431"><ele>1772.0</ele><time>2026-05-04T15:34:13.999Z</time></trkpt><trkpt lat="31.435648189551166" lon="-6.153914998037057"><ele>1772.0</ele><time>2026-05-04T15:34:14.999Z</time></trkpt><trkpt lat="31.435590686007192" lon="-6.153990566770298"><ele>1771.9999999999998</ele><time>2026-05-04T15:34:15.999Z</time></trkpt><trkpt lat="31.435526126099393" lon="-6.154069044372014"><ele>1771.9999999999998</ele><time>2026-05-04T15:34:16.999Z</time></trkpt><trkpt lat="31.435451018284063" lon="-6.154154163177739"><ele>1772.0</ele><time>2026-05-04T15:34:17.999Z</time></trkpt><trkpt lat="31.43538776371344" lon="-6.154225380806258"><ele>1772.0</ele><time>2026-05-04T15:34:18.999Z</time></trkpt><trkpt lat="31.435279878577102" lon="-6.154210975023382"><ele>1773.8</ele><time>2026-05-04T15:34:19.999Z</time></trkpt><trkpt lat="31.43521369466832" lon="-6.154239835968831"><ele>1775.6</ele><time>2026-05-04T15:34:20.999Z</time></trkpt><trkpt lat="31.43513477845349" lon="-6.154121087560379"><ele>1777.3999999999999</ele><time>2026-05-04T15:34:21.999Z</time></trkpt><trkpt lat="31.435070278740078" lon="-6.1540333240679415"><ele>1779.1999999999998</ele><time>2026-05-04T15:34:22.999Z</time></trkpt><trkpt lat="31.434998057516843" lon="-6.153930224740239"><ele>1781.0</ele><time>2026-05-04T15:34:23.999Z</time></trkpt><trkpt lat="31.434932841800148" lon="-6.153830504921994"><ele>1781.0</ele><time>2026-05-04T15:34:24.999Z</time></trkpt><trkpt lat="31.43487580494511" lon="-6.1537433919724505"><ele>1781.0</ele><time>2026-05-04T15:34:25.999Z</time></trkpt><trkpt lat="31.434812058728813" lon="-6.153761693765361"><ele>1781.0</ele><time>2026-05-04T15:34:26.999Z</time></trkpt><trkpt lat="31.43471104491231" lon="-6.153740507778969"><ele>1781.0</ele><time>2026-05-04T15:34:27.999Z</time></trkpt><trkpt lat="31.43462669616234" lon="-6.153748896984331"><ele>1781.0</ele><time>2026-05-04T15:34:28.999Z</time></trkpt><trkpt lat="31.43451770869613" lon="-6.153768579643279"><ele>1780.6</ele><time>2026-05-04T15:34:29.999Z</time></trkpt><trkpt lat="31.434461986616903" lon="-6.1538092989812965"><ele>1780.1999999999998</ele><time>2026-05-04T15:34:30.999Z</time></trkpt><trkpt lat="31.43438865700006" lon="-6.153895229386984"><ele>1779.8000000000002</ele><time>2026-05-04T15:34:31.999Z</time></trkpt><trkpt lat="31.4343326442634" lon="-6.154006744620093"><ele>1779.4</ele><time>2026-05-04T15:34:32.999Z</time></trkpt><trkpt lat="31.43429120939138" lon="-6.154148099543807"><ele>1779.0</ele><time>2026-05-04T15:34:33.999Z</time></trkpt><trkpt lat="31.434255798504676" lon="-6.154287002728755"><ele>1783.8000000000002</ele><time>2026-05-04T15:34:34.999Z</time></trkpt><trkpt lat="31.434228333350504" lon="-6.1544024666934725"><ele>1788.6000000000001</ele><time>2026-05-04T15:34:35.999Z</time></trkpt><trkpt lat="31.434167605837338" lon="-6.154504425257695"><ele>1793.4</ele><time>2026-05-04T15:34:36.999Z</time></trkpt><trkpt lat="31.434114167361543" lon="-6.154579032571268"><ele>1798.2</ele><time>2026-05-04T15:34:37.999Z</time></trkpt><trkpt lat="31.43399915222746" lon="-6.1545824634692545"><ele>1803.0</ele><time>2026-05-04T15:34:38.999Z</time></trkpt><trkpt lat="31.433897010210192" lon="-6.15457674989887"><ele>1804.5</ele><time>2026-05-04T15:34:39.999Z</time></trkpt><trkpt lat="31.433795873417267" lon="-6.154560804715729"><ele>1806.0</ele><time>2026-05-04T15:34:40.999Z</time></trkpt><trkpt lat="31.433694190485806" lon="-6.1544814509987384"><ele>1807.5</ele><time>2026-05-04T15:34:41.999Z</time></trkpt><trkpt lat="31.43357402328479" lon="-6.154436540243983"><ele>1809.0</ele><time>2026-05-04T15:34:42.999Z</time></trkpt><trkpt lat="31.433451085068583" lon="-6.154376554831893"><ele>1809.0</ele><time>2026-05-04T15:34:43.999Z</time></trkpt><trkpt lat="31.433330092160443" lon="-6.15431771762654"><ele>1809.0</ele><time>2026-05-04T15:34:44.999Z</time></trkpt><trkpt lat="31.43319640943035" lon="-6.1542529779327"><ele>1809.0</ele><time>2026-05-04T15:34:45.999Z</time></trkpt><trkpt lat="31.433058154935914" lon="-6.154185944953192"><ele>1809.0</ele><time>2026-05-04T15:34:46.999Z</time></trkpt><trkpt lat="31.43291965886315" lon="-6.154118713807416"><ele>1809.0</ele><time>2026-05-04T15:34:47.999Z</time></trkpt><trkpt lat="31.432780882648125" lon="-6.1540510746421155"><ele>1809.0</ele><time>2026-05-04T15:34:48.999Z</time></trkpt><trkpt lat="31.43266631824602" lon="-6.153921016024095"><ele>1809.0</ele><time>2026-05-04T15:34:49.999Z</time></trkpt><trkpt lat="31.432539601890994" lon="-6.153821310090482"><ele>1809.0</ele><time>2026-05-04T15:34:50.999Z</time></trkpt><trkpt lat="31.43242368611926" lon="-6.153706845716936"><ele>1809.0</ele><time>2026-05-04T15:34:51.999Z</time></trkpt><trkpt lat="31.432314174577098" lon="-6.153580288870254"><ele>1809.0</ele><time>2026-05-04T15:34:52.999Z</time></trkpt><trkpt lat="31.43221276037711" lon="-6.153458845517795"><ele>1806.25</ele><time>2026-05-04T15:34:53.999Z</time></trkpt><trkpt lat="31.432114619680288" lon="-6.153342152354902"><ele>1803.5</ele><time>2026-05-04T15:34:54.999Z</time></trkpt><trkpt lat="31.43201531938192" lon="-6.153223408742401"><ele>1800.75</ele><time>2026-05-04T15:34:55.999Z</time></trkpt><trkpt lat="31.431901350137455" lon="-6.1531455226093525"><ele>1798.0</ele><time>2026-05-04T15:34:56.999Z</time></trkpt><trkpt lat="31.431778178906228" lon="-6.153042949979543"><ele>1798.0</ele><time>2026-05-04T15:34:57.999Z</time></trkpt><trkpt lat="31.431657935324782" lon="-6.152944701094508"><ele>1798.0000000000002</ele><time>2026-05-04T15:34:58.999Z</time></trkpt><trkpt lat="31.43154961015743" lon="-6.152921061372166"><ele>1798.0000000000002</ele><time>2026-05-04T15:34:59.999Z</time></trkpt><trkpt lat="31.43144015009384" lon="-6.152891378719613"><ele>1798.0</ele><time>2026-05-04T15:35:00.999Z</time></trkpt><trkpt lat="31.431369881480418" lon="-6.152917994699553"><ele>1798.0</ele><time>2026-05-04T15:35:01.999Z</time></trkpt><trkpt lat="31.431273412947156" lon="-6.152929647879218"><ele>1798.8000000000002</ele><time>2026-05-04T15:35:02.999Z</time></trkpt><trkpt lat="31.431212358077484" lon="-6.152996789136894"><ele>1799.6000000000001</ele><time>2026-05-04T15:35:03.999Z</time></trkpt><trkpt lat="31.4311262924811" lon="-6.153071061791215"><ele>1800.3999999999999</ele><time>2026-05-04T15:35:04.999Z</time></trkpt><trkpt lat="31.431049720061868" lon="-6.153143297197253"><ele>1801.1999999999998</ele><time>2026-05-04T15:35:05.999Z</time></trkpt><trkpt lat="31.430977345572625" lon="-6.153210489545643"><ele>1802.0</ele><time>2026-05-04T15:35:06.999Z</time></trkpt><trkpt lat="31.43091286334784" lon="-6.153272438896418"><ele>1802.0</ele><time>2026-05-04T15:35:07.999Z</time></trkpt><trkpt lat="31.43078214471277" lon="-6.153249039426507"><ele>1802.0</ele><time>2026-05-04T15:35:08.999Z</time></trkpt><trkpt lat="31.43069010145438" lon="-6.153234970240001"><ele>1802.0</ele><time>2026-05-04T15:35:09.999Z</time></trkpt><trkpt lat="31.430603934254194" lon="-6.153135078545021"><ele>1802.0</ele><time>2026-05-04T15:35:10.999Z</time></trkpt><trkpt lat="31.4305121877311" lon="-6.153027401055873"><ele>1803.5</ele><time>2026-05-04T15:35:11.999Z</time></trkpt><trkpt lat="31.43042947314486" lon="-6.152914330053104"><ele>1805.0</ele><time>2026-05-04T15:35:12.999Z</time></trkpt><trkpt lat="31.430332679139273" lon="-6.152810191224143"><ele>1806.5</ele><time>2026-05-04T15:35:13.998Z</time></trkpt><trkpt lat="31.430238323798854" lon="-6.152701235332412"><ele>1808.0</ele><time>2026-05-04T15:35:14.998Z</time></trkpt><trkpt lat="31.430141379887964" lon="-6.152607022910308"><ele>1808.0</ele><time>2026-05-04T15:35:15.998Z</time></trkpt><trkpt lat="31.430037871600685" lon="-6.1525163072762625"><ele>1808.0</ele><time>2026-05-04T15:35:16.998Z</time></trkpt><trkpt lat="31.429933822831003" lon="-6.1524251206984"><ele>1808.0</ele><time>2026-05-04T15:35:17.998Z</time></trkpt><trkpt lat="31.429840984822867" lon="-6.1522868773439665"><ele>1808.0</ele><time>2026-05-04T15:35:18.998Z</time></trkpt><trkpt lat="31.42972233041035" lon="-6.15212175519964"><ele>1807.75</ele><time>2026-05-04T15:35:19.998Z</time></trkpt><trkpt lat="31.429638656369256" lon="-6.152006467457842"><ele>1807.5</ele><time>2026-05-04T15:35:20.998Z</time></trkpt><trkpt lat="31.42955669718323" lon="-6.151892928785465"><ele>1807.25</ele><time>2026-05-04T15:35:21.998Z</time></trkpt><trkpt lat="31.42948091908807" lon="-6.151766406927622"><ele>1807.0</ele><time>2026-05-04T15:35:22.998Z</time></trkpt><trkpt lat="31.42941736182402" lon="-6.15162425550505"><ele>1798.5</ele><time>2026-05-04T15:35:23.998Z</time></trkpt><trkpt lat="31.429368215323965" lon="-6.1514756076879245"><ele>1790.0</ele><time>2026-05-04T15:35:24.998Z</time></trkpt><trkpt lat="31.429335416722893" lon="-6.151329905555074"><ele>1781.5</ele><time>2026-05-04T15:35:25.998Z</time></trkpt><trkpt lat="31.429236806426424" lon="-6.15126180429286"><ele>1773.0</ele><time>2026-05-04T15:35:26.998Z</time></trkpt><trkpt lat="31.42916926977224" lon="-6.1511732487765896"><ele>1773.0</ele><time>2026-05-04T15:35:27.998Z</time></trkpt><trkpt lat="31.429088531936237" lon="-6.151155821793582"><ele>1773.0000000000002</ele><time>2026-05-04T15:35:28.998Z</time></trkpt><trkpt lat="31.428989724297804" lon="-6.151100805165592"><ele>1773.0000000000002</ele><time>2026-05-04T15:35:29.998Z</time></trkpt><trkpt lat="31.42888371218272" lon="-6.151041455045894"><ele>1773.0</ele><time>2026-05-04T15:35:30.998Z</time></trkpt><trkpt lat="31.42878038890993" lon="-6.151012345845322"><ele>1773.0</ele><time>2026-05-04T15:35:31.998Z</time></trkpt><trkpt lat="31.428663673525584" lon="-6.1509810164355425"><ele>1778.0</ele><time>2026-05-04T15:35:32.998Z</time></trkpt><trkpt lat="31.42854844030661" lon="-6.150951006678761"><ele>1783.0</ele><time>2026-05-04T15:35:33.998Z</time></trkpt><trkpt lat="31.428432763089138" lon="-6.150920159070059"><ele>1788.0</ele><time>2026-05-04T15:35:34.998Z</time></trkpt><trkpt lat="31.428348133308056" lon="-6.150793848212037"><ele>1793.0</ele><time>2026-05-04T15:35:35.998Z</time></trkpt><trkpt lat="31.428251141454446" lon="-6.150698569525212"><ele>1784.5</ele><time>2026-05-04T15:35:36.998Z</time></trkpt><trkpt lat="31.428136200372517" lon="-6.15064517711404"><ele>1776.0</ele><time>2026-05-04T15:35:37.998Z</time></trkpt><trkpt lat="31.42802574379223" lon="-6.150583628680565"><ele>1767.5</ele><time>2026-05-04T15:35:38.998Z</time></trkpt><trkpt lat="31.427917600434704" lon="-6.150523341330621"><ele>1759.0</ele><time>2026-05-04T15:35:39.999Z</time></trkpt><trkpt lat="31.42781448867175" lon="-6.150467053234956"><ele>1759.0</ele><time>2026-05-04T15:35:40.999Z</time></trkpt><trkpt lat="31.427679220551976" lon="-6.15046720211871"><ele>1759.0</ele><time>2026-05-04T15:35:42.999Z</time></trkpt><trkpt lat="31.42760558900067" lon="-6.150461226094893"><ele>1759.0</ele><time>2026-05-04T15:35:43.999Z</time></trkpt><trkpt lat="31.427595314736973" lon="-6.150549786457126"><ele>1759.0</ele><time>2026-05-04T15:35:44.999Z</time></trkpt><trkpt lat="31.427509910427652" lon="-6.150608571870056"><ele>1759.0</ele><time>2026-05-04T15:35:45.999Z</time></trkpt><trkpt lat="31.427430138532426" lon="-6.150663654142226"><ele>1759.0</ele><time>2026-05-04T15:35:46.999Z</time></trkpt><trkpt lat="31.42734892406158" lon="-6.150719919760912"><ele>1759.0</ele><time>2026-05-04T15:35:47.999Z</time></trkpt><trkpt lat="31.427157499610146" lon="-6.150586342791816"><ele>1759.0</ele><time>2026-05-04T15:35:48.999Z</time></trkpt><trkpt lat="31.427035751629724" lon="-6.150546203278789"><ele>1759.0</ele><time>2026-05-04T15:35:49.999Z</time></trkpt><trkpt lat="31.426941817707444" lon="-6.150432047388497"><ele>1759.0</ele><time>2026-05-04T15:35:50.999Z</time></trkpt><trkpt lat="31.426855221631183" lon="-6.150349359591863"><ele>1759.0</ele><time>2026-05-04T15:35:51.999Z</time></trkpt><trkpt lat="31.426781745451287" lon="-6.150271405823306"><ele>1759.0</ele><time>2026-05-04T15:35:52.999Z</time></trkpt><trkpt lat="31.42669476490147" lon="-6.150206581497121"><ele>1759.0</ele><time>2026-05-04T15:35:53.999Z</time></trkpt><trkpt lat="31.426601040393145" lon="-6.150215490789115"><ele>1759.0</ele><time>2026-05-04T15:35:54.999Z</time></trkpt><trkpt lat="31.426494593467684" lon="-6.15017164424394"><ele>1759.0</ele><time>2026-05-04T15:35:55.999Z</time></trkpt><trkpt lat="31.426402649829893" lon="-6.150112214586378"><ele>1759.0</ele><time>2026-05-04T15:35:56.999Z</time></trkpt><trkpt lat="31.426311280872813" lon="-6.150054297119823"><ele>1759.0</ele><time>2026-05-04T15:35:57.999Z</time></trkpt><trkpt lat="31.426216692863928" lon="-6.149973148289645"><ele>1759.0</ele><time>2026-05-04T15:35:58.999Z</time></trkpt><trkpt lat="31.426130688898564" lon="-6.1498978147145325"><ele>1759.0</ele><time>2026-05-04T15:35:59.999Z</time></trkpt><trkpt lat="31.4260554224784" lon="-6.14983164181854"><ele>1758.4</ele><time>2026-05-04T15:36:00.999Z</time></trkpt><trkpt lat="31.42598916923856" lon="-6.149773392013104"><ele>1757.8000000000002</ele><time>2026-05-04T15:36:01.999Z</time></trkpt><trkpt lat="31.42592898338726" lon="-6.14983413862367"><ele>1757.1999999999998</ele><time>2026-05-04T15:36:02.999Z</time></trkpt><trkpt lat="31.425790255160205" lon="-6.14989411966104"><ele>1756.6</ele><time>2026-05-04T15:36:04.999Z</time></trkpt><trkpt lat="31.425762691551824" lon="-6.149972827814324"><ele>1756.0</ele><time>2026-05-04T15:36:05.999Z</time></trkpt><trkpt lat="31.42569289896298" lon="-6.150049513884123"><ele>1756.0000000000002</ele><time>2026-05-04T15:36:06.999Z</time></trkpt><trkpt lat="31.425629001705843" lon="-6.1501197222769495"><ele>1756.0</ele><time>2026-05-04T15:36:07.999Z</time></trkpt><trkpt lat="31.425570869512207" lon="-6.150183596314908"><ele>1756.0</ele><time>2026-05-04T15:36:08.999Z</time></trkpt><trkpt lat="31.425514801857258" lon="-6.15024508600155"><ele>1756.0</ele><time>2026-05-04T15:36:09.999Z</time></trkpt><trkpt lat="31.425421140772663" lon="-6.150288644690066"><ele>1756.0000000000002</ele><time>2026-05-04T15:36:10.999Z</time></trkpt><trkpt lat="31.42535472171846" lon="-6.150318885344494"><ele>1756.0</ele><time>2026-05-04T15:36:11.999Z</time></trkpt><trkpt lat="31.425255494599053" lon="-6.150211321104575"><ele>1756.8</ele><time>2026-05-04T15:36:12.999Z</time></trkpt><trkpt lat="31.425199369547418" lon="-6.150144199756911"><ele>1757.6</ele><time>2026-05-04T15:36:13.999Z</time></trkpt><trkpt lat="31.425165673532213" lon="-6.150039630255396"><ele>1758.4</ele><time>2026-05-04T15:36:14.999Z</time></trkpt><trkpt lat="31.425161100840363" lon="-6.1499094181846194"><ele>1759.2</ele><time>2026-05-04T15:36:15.999Z</time></trkpt><trkpt lat="31.425162223164346" lon="-6.149764167155406"><ele>1760.0</ele><time>2026-05-04T15:36:16.999Z</time></trkpt><trkpt lat="31.425149178140448" lon="-6.149621238174869"><ele>1754.75</ele><time>2026-05-04T15:36:17.999Z</time></trkpt><trkpt lat="31.42512962194776" lon="-6.149480739191544"><ele>1749.5</ele><time>2026-05-04T15:36:18.999Z</time></trkpt><trkpt lat="31.425093840146932" lon="-6.149340819876881"><ele>1744.25</ele><time>2026-05-04T15:36:19.999Z</time></trkpt><trkpt lat="31.425015351310996" lon="-6.149224250025729"><ele>1739.0</ele><time>2026-05-04T15:36:20.999Z</time></trkpt><trkpt lat="31.424949115140087" lon="-6.149090558474017"><ele>1735.0</ele><time>2026-05-04T15:36:21.999Z</time></trkpt><trkpt lat="31.424868102146572" lon="-6.148972089023492"><ele>1731.0</ele><time>2026-05-04T15:36:22.999Z</time></trkpt><trkpt lat="31.424767934005487" lon="-6.148881639083365"><ele>1727.0</ele><time>2026-05-04T15:36:23.999Z</time></trkpt><trkpt lat="31.42468843737564" lon="-6.148797618524656"><ele>1723.0</ele><time>2026-05-04T15:36:24.999Z</time></trkpt><trkpt lat="31.4245898419648" lon="-6.14878359897084"><ele>1722.4</ele><time>2026-05-04T15:36:25.999Z</time></trkpt><trkpt lat="31.424486024971774" lon="-6.148734960721625"><ele>1721.8000000000002</ele><time>2026-05-04T15:36:26.999Z</time></trkpt><trkpt lat="31.42440595077594" lon="-6.148761686467586"><ele>1721.2</ele><time>2026-05-04T15:36:27.999Z</time></trkpt><trkpt lat="31.424293390354453" lon="-6.148770153473523"><ele>1720.6</ele><time>2026-05-04T15:36:28.999Z</time></trkpt><trkpt lat="31.42419290928208" lon="-6.148806791873791"><ele>1720.0</ele><time>2026-05-04T15:36:29.999Z</time></trkpt><trkpt lat="31.424067553849465" lon="-6.14884636508283"><ele>1720.0</ele><time>2026-05-04T15:36:30.999Z</time></trkpt><trkpt lat="31.42394053794908" lon="-6.148885550179393"><ele>1720.0</ele><time>2026-05-04T15:36:31.999Z</time></trkpt><trkpt lat="31.423814912251427" lon="-6.148924969051212"><ele>1720.0</ele><time>2026-05-04T15:36:32.999Z</time></trkpt><trkpt lat="31.423651483921656" lon="-6.1489321975900255"><ele>1720.0</ele><time>2026-05-04T15:36:33.999Z</time></trkpt><trkpt lat="31.42351515895736" lon="-6.14891813341746"><ele>1718.5</ele><time>2026-05-04T15:36:34.999Z</time></trkpt><trkpt lat="31.423370688194176" lon="-6.148903086172777"><ele>1717.0</ele><time>2026-05-04T15:36:35.999Z</time></trkpt><trkpt lat="31.423225355653425" lon="-6.148887941500106"><ele>1715.5</ele><time>2026-05-04T15:36:36.999Z</time></trkpt><trkpt lat="31.42307753943627" lon="-6.14887259756663"><ele>1714.0</ele><time>2026-05-04T15:36:37.999Z</time></trkpt><trkpt lat="31.422932069247523" lon="-6.1488585396740545"><ele>1712.75</ele><time>2026-05-04T15:36:38.999Z</time></trkpt><trkpt lat="31.42278458849945" lon="-6.148850096127549"><ele>1711.5</ele><time>2026-05-04T15:36:39.999Z</time></trkpt><trkpt lat="31.422641203714313" lon="-6.148841982340909"><ele>1710.25</ele><time>2026-05-04T15:36:40.999Z</time></trkpt><trkpt lat="31.422499783933247" lon="-6.148832058599026"><ele>1709.0</ele><time>2026-05-04T15:36:41.999Z</time></trkpt><trkpt lat="31.42235212370259" lon="-6.148746639611157"><ele>1709.0</ele><time>2026-05-04T15:36:42.999Z</time></trkpt><trkpt lat="31.42221192091092" lon="-6.148678802756593"><ele>1709.0</ele><time>2026-05-04T15:36:43.999Z</time></trkpt><trkpt lat="31.422064482517825" lon="-6.148606112413722"><ele>1709.0</ele><time>2026-05-04T15:36:44.999Z</time></trkpt><trkpt lat="31.42192491750128" lon="-6.148538154454919"><ele>1709.25</ele><time>2026-05-04T15:36:45.999Z</time></trkpt><trkpt lat="31.42178763578322" lon="-6.148471248130498"><ele>1709.5</ele><time>2026-05-04T15:36:46.999Z</time></trkpt><trkpt lat="31.42165345344809" lon="-6.148406140279483"><ele>1709.75</ele><time>2026-05-04T15:36:47.999Z</time></trkpt><trkpt lat="31.42152197340833" lon="-6.148342040143139"><ele>1710.0</ele><time>2026-05-04T15:36:48.999Z</time></trkpt><trkpt lat="31.421399768982173" lon="-6.148220984367197"><ele>1708.25</ele><time>2026-05-04T15:36:49.999Z</time></trkpt><trkpt lat="31.421293968797396" lon="-6.1481203472654125"><ele>1706.5</ele><time>2026-05-04T15:36:50.999Z</time></trkpt><trkpt lat="31.42118727913927" lon="-6.148019478543412"><ele>1704.75</ele><time>2026-05-04T15:36:51.999Z</time></trkpt><trkpt lat="31.421107320263353" lon="-6.147880951135144"><ele>1703.0</ele><time>2026-05-04T15:36:52.999Z</time></trkpt><trkpt lat="31.421038918856006" lon="-6.147738852542346"><ele>1703.0</ele><time>2026-05-04T15:36:53.999Z</time></trkpt><trkpt lat="31.420987529485277" lon="-6.147588635724305"><ele>1703.0</ele><time>2026-05-04T15:36:54.999Z</time></trkpt><trkpt lat="31.420913815724063" lon="-6.1474620346313325"><ele>1703.0</ele><time>2026-05-04T15:36:55.999Z</time></trkpt><trkpt lat="31.420848404466238" lon="-6.147337191794058"><ele>1703.0</ele><time>2026-05-04T15:36:56.999Z</time></trkpt><trkpt lat="31.42078733157252" lon="-6.147219161439129"><ele>1701.2</ele><time>2026-05-04T15:36:57.999Z</time></trkpt><trkpt lat="31.420735564286616" lon="-6.147117886382995"><ele>1699.4</ele><time>2026-05-04T15:36:58.999Z</time></trkpt><trkpt lat="31.420639837319705" lon="-6.147138450406413"><ele>1697.6000000000001</ele><time>2026-05-04T15:36:59.999Z</time></trkpt><trkpt lat="31.420554081000997" lon="-6.147087218115831"><ele>1695.8000000000002</ele><time>2026-05-04T15:37:00.999Z</time></trkpt><trkpt lat="31.420452743672765" lon="-6.147089806872829"><ele>1694.0</ele><time>2026-05-04T15:37:01.999Z</time></trkpt><trkpt lat="31.420303954407967" lon="-6.14705899528327"><ele>1693.75</ele><time>2026-05-04T15:37:02.999Z</time></trkpt><trkpt lat="31.420151531284798" lon="-6.147027451420435"><ele>1693.5</ele><time>2026-05-04T15:37:03.999Z</time></trkpt><trkpt lat="31.420002743692226" lon="-6.146997241935884"><ele>1693.25</ele><time>2026-05-04T15:37:04.999Z</time></trkpt><trkpt lat="31.41986658921764" lon="-6.146968905840359"><ele>1693.0</ele><time>2026-05-04T15:37:05.999Z</time></trkpt><trkpt lat="31.419733152042397" lon="-6.146941108640159"><ele>1694.3333333333335</ele><time>2026-05-04T15:37:06.999Z</time></trkpt><trkpt lat="31.419595538215038" lon="-6.1468519591797754"><ele>1695.6666666666665</ele><time>2026-05-04T15:37:07.999Z</time></trkpt><trkpt lat="31.419461469570255" lon="-6.146771077912848"><ele>1697.0</ele><time>2026-05-04T15:37:08.999Z</time></trkpt><trkpt lat="31.419323605892817" lon="-6.14668890840737"><ele>1697.0</ele><time>2026-05-04T15:37:09.999Z</time></trkpt><trkpt lat="31.419179651192767" lon="-6.146601888336757"><ele>1697.0</ele><time>2026-05-04T15:37:10.999Z</time></trkpt><trkpt lat="31.419043970358075" lon="-6.146503246234921"><ele>1697.0</ele><time>2026-05-04T15:37:11.999Z</time></trkpt><trkpt lat="31.418909140395407" lon="-6.146427977972177"><ele>1695.75</ele><time>2026-05-04T15:37:12.999Z</time></trkpt><trkpt lat="31.418782844966575" lon="-6.146363784603246"><ele>1694.5</ele><time>2026-05-04T15:37:13.999Z</time></trkpt><trkpt lat="31.41867063571119" lon="-6.146294693625146"><ele>1693.25</ele><time>2026-05-04T15:37:14.999Z</time></trkpt><trkpt lat="31.4185455980205" lon="-6.146304481553729"><ele>1692.0</ele><time>2026-05-04T15:37:15.999Z</time></trkpt><trkpt lat="31.41840745983312" lon="-6.146274896026006"><ele>1692.0</ele><time>2026-05-04T15:37:16.999Z</time></trkpt><trkpt lat="31.418270720074126" lon="-6.146303904548344"><ele>1692.0</ele><time>2026-05-04T15:37:17.999Z</time></trkpt><trkpt lat="31.418126749563527" lon="-6.146331156583086"><ele>1692.0</ele><time>2026-05-04T15:37:18.999Z</time></trkpt><trkpt lat="31.417971806813277" lon="-6.146366815035314"><ele>1692.0</ele><time>2026-05-04T15:37:19.998Z</time></trkpt><trkpt lat="31.41784061483948" lon="-6.1464322416248915"><ele>1691.25</ele><time>2026-05-04T15:37:20.998Z</time></trkpt><trkpt lat="31.417710842437454" lon="-6.146500430764834"><ele>1690.5</ele><time>2026-05-04T15:37:21.998Z</time></trkpt><trkpt lat="31.417608292256524" lon="-6.146575093663107"><ele>1689.75</ele><time>2026-05-04T15:37:22.998Z</time></trkpt><trkpt lat="31.417501537985935" lon="-6.146681591485061"><ele>1689.0</ele><time>2026-05-04T15:37:23.998Z</time></trkpt><trkpt lat="31.41739384092653" lon="-6.146789096476475"><ele>1690.0</ele><time>2026-05-04T15:37:24.998Z</time></trkpt><trkpt lat="31.417284246277575" lon="-6.146898518157039"><ele>1691.0</ele><time>2026-05-04T15:37:25.998Z</time></trkpt><trkpt lat="31.417176930941135" lon="-6.147005694501419"><ele>1692.0</ele><time>2026-05-04T15:37:26.998Z</time></trkpt><trkpt lat="31.417072125409852" lon="-6.1471101810674345"><ele>1693.0</ele><time>2026-05-04T15:37:27.998Z</time></trkpt><trkpt lat="31.4169650141281" lon="-6.147216501643102"><ele>1693.0</ele><time>2026-05-04T15:37:28.998Z</time></trkpt><trkpt lat="31.416854046696418" lon="-6.147326489273834"><ele>1693.0</ele><time>2026-05-04T15:37:29.998Z</time></trkpt><trkpt lat="31.41672137046337" lon="-6.1474334214700095"><ele>1693.0</ele><time>2026-05-04T15:37:30.998Z</time></trkpt><trkpt lat="31.416568416367266" lon="-6.1475001857937075"><ele>1697.0</ele><time>2026-05-04T15:37:31.998Z</time></trkpt><trkpt lat="31.416412911941528" lon="-6.147559965268941"><ele>1701.0</ele><time>2026-05-04T15:37:32.998Z</time></trkpt><trkpt lat="31.41626217459069" lon="-6.147625288863122"><ele>1705.0</ele><time>2026-05-04T15:37:33.998Z</time></trkpt><trkpt lat="31.416110703582415" lon="-6.147691349014798"><ele>1705.0</ele><time>2026-05-04T15:37:34.998Z</time></trkpt><trkpt lat="31.41595330501129" lon="-6.147749459263067"><ele>1705.0</ele><time>2026-05-04T15:37:35.998Z</time></trkpt><trkpt lat="31.415801853692937" lon="-6.147796589479503"><ele>1705.0</ele><time>2026-05-04T15:37:36.998Z</time></trkpt><trkpt lat="31.41565051390367" lon="-6.147842908328656"><ele>1705.0</ele><time>2026-05-04T15:37:37.998Z</time></trkpt><trkpt lat="31.41549706343065" lon="-6.147881556964989"><ele>1705.0</ele><time>2026-05-04T15:37:38.999Z</time></trkpt><trkpt lat="31.415336083973692" lon="-6.147917389877734"><ele>1705.0</ele><time>2026-05-04T15:37:39.999Z</time></trkpt><trkpt lat="31.415168420557986" lon="-6.147938722991667"><ele>1705.3333333333335</ele><time>2026-05-04T15:37:40.999Z</time></trkpt><trkpt lat="31.415007684411897" lon="-6.147936654629959"><ele>1705.6666666666665</ele><time>2026-05-04T15:37:41.999Z</time></trkpt><trkpt lat="31.41485535691408" lon="-6.147906597461183"><ele>1706.0</ele><time>2026-05-04T15:37:42.999Z</time></trkpt><trkpt lat="31.41471214788118" lon="-6.147854410043773"><ele>1706.0</ele><time>2026-05-04T15:37:43.999Z</time></trkpt><trkpt lat="31.414575599008526" lon="-6.147782051194136"><ele>1706.0</ele><time>2026-05-04T15:37:44.999Z</time></trkpt><trkpt lat="31.414447691261884" lon="-6.147701216199871"><ele>1706.0</ele><time>2026-05-04T15:37:45.999Z</time></trkpt><trkpt lat="31.414321783510168" lon="-6.147618213302095"><ele>1706.0</ele><time>2026-05-04T15:37:46.999Z</time></trkpt><trkpt lat="31.41419559099511" lon="-6.147534674743274"><ele>1706.0</ele><time>2026-05-04T15:37:47.999Z</time></trkpt><trkpt lat="31.41407317847728" lon="-6.147458292656121"><ele>1706.0</ele><time>2026-05-04T15:37:48.999Z</time></trkpt><trkpt lat="31.413944425861846" lon="-6.14738562365113"><ele>1706.0</ele><time>2026-05-04T15:37:49.999Z</time></trkpt><trkpt lat="31.413814759410254" lon="-6.14731243901781"><ele>1706.0</ele><time>2026-05-04T15:37:50.999Z</time></trkpt><trkpt lat="31.41368719040773" lon="-6.147249050281124"><ele>1702.0</ele><time>2026-05-04T15:37:51.999Z</time></trkpt><trkpt lat="31.41355449177995" lon="-6.147183216652154"><ele>1698.0</ele><time>2026-05-04T15:37:52.999Z</time></trkpt><trkpt lat="31.41342226776315" lon="-6.1471209763825865"><ele>1694.0</ele><time>2026-05-04T15:37:53.999Z</time></trkpt><trkpt lat="31.41329144347538" lon="-6.147061023241163"><ele>1690.0</ele><time>2026-05-04T15:37:54.999Z</time></trkpt><trkpt lat="31.413157161873386" lon="-6.1469984018055595"><ele>1690.0</ele><time>2026-05-04T15:37:55.999Z</time></trkpt><trkpt lat="31.413031811398426" lon="-6.146962664146009"><ele>1690.0</ele><time>2026-05-04T15:37:56.999Z</time></trkpt><trkpt lat="31.41289410516984" lon="-6.146950774876854"><ele>1690.0</ele><time>2026-05-04T15:37:57.999Z</time></trkpt><trkpt lat="31.412758968084255" lon="-6.146961775143944"><ele>1690.0</ele><time>2026-05-04T15:37:58.999Z</time></trkpt><trkpt lat="31.412620194700445" lon="-6.146997319612165"><ele>1688.5</ele><time>2026-05-04T15:37:59.999Z</time></trkpt><trkpt lat="31.412482204523748" lon="-6.147051907738939"><ele>1687.0</ele><time>2026-05-04T15:38:00.999Z</time></trkpt><trkpt lat="31.412345648992943" lon="-6.147118246812637"><ele>1685.5</ele><time>2026-05-04T15:38:01.999Z</time></trkpt><trkpt lat="31.412213641309346" lon="-6.1471911883291686"><ele>1684.0</ele><time>2026-05-04T15:38:02.999Z</time></trkpt><trkpt lat="31.412094340932775" lon="-6.147257836568664"><ele>1683.0</ele><time>2026-05-04T15:38:03.999Z</time></trkpt><trkpt lat="31.41198038325033" lon="-6.147321500092164"><ele>1682.0</ele><time>2026-05-04T15:38:04.999Z</time></trkpt><trkpt lat="31.41186690945808" lon="-6.14738489326557"><ele>1681.0</ele><time>2026-05-04T15:38:05.999Z</time></trkpt><trkpt lat="31.411770000045596" lon="-6.147465278385856"><ele>1680.0</ele><time>2026-05-04T15:38:06.999Z</time></trkpt><trkpt lat="31.41168267559248" lon="-6.147523354124227"><ele>1681.6</ele><time>2026-05-04T15:38:07.999Z</time></trkpt><trkpt lat="31.411588066253575" lon="-6.1475859230905066"><ele>1683.2</ele><time>2026-05-04T15:38:08.999Z</time></trkpt><trkpt lat="31.411488336290986" lon="-6.147647229670766"><ele>1684.8000000000002</ele><time>2026-05-04T15:38:09.999Z</time></trkpt><trkpt lat="31.41139085631279" lon="-6.1477003073817995"><ele>1686.4</ele><time>2026-05-04T15:38:10.999Z</time></trkpt><trkpt lat="31.4112860052867" lon="-6.147765308919705"><ele>1688.0</ele><time>2026-05-04T15:38:11.999Z</time></trkpt><trkpt lat="31.411189670530344" lon="-6.147794619504242"><ele>1688.0</ele><time>2026-05-04T15:38:12.999Z</time></trkpt><trkpt lat="31.411078530643003" lon="-6.1478086190979875"><ele>1688.0</ele><time>2026-05-04T15:38:13.999Z</time></trkpt><trkpt lat="31.410975687866937" lon="-6.147774900639518"><ele>1688.0</ele><time>2026-05-04T15:38:14.999Z</time></trkpt><trkpt lat="31.410865482246685" lon="-6.14771581736658"><ele>1688.0</ele><time>2026-05-04T15:38:15.999Z</time></trkpt><trkpt lat="31.410745535386607" lon="-6.147668526216477"><ele>1688.0</ele><time>2026-05-04T15:38:16.999Z</time></trkpt><trkpt lat="31.41062208848351" lon="-6.147608226097372"><ele>1688.0</ele><time>2026-05-04T15:38:17.999Z</time></trkpt><trkpt lat="31.41050341234209" lon="-6.147550241054804"><ele>1688.0</ele><time>2026-05-04T15:38:18.999Z</time></trkpt><trkpt lat="31.410382114966872" lon="-6.147489720066274"><ele>1688.0</ele><time>2026-05-04T15:38:19.999Z</time></trkpt><trkpt lat="31.410258252154573" lon="-6.1474647919097665"><ele>1686.75</ele><time>2026-05-04T15:38:20.999Z</time></trkpt><trkpt lat="31.41013700294062" lon="-6.147461615598012"><ele>1685.5</ele><time>2026-05-04T15:38:21.999Z</time></trkpt><trkpt lat="31.410006749148298" lon="-6.147470460896297"><ele>1684.25</ele><time>2026-05-04T15:38:22.999Z</time></trkpt><trkpt lat="31.40987232101653" lon="-6.147481080915409"><ele>1683.0</ele><time>2026-05-04T15:38:23.999Z</time></trkpt><trkpt lat="31.409740412133257" lon="-6.147485762755634"><ele>1682.5</ele><time>2026-05-04T15:38:24.999Z</time></trkpt><trkpt lat="31.40960683042331" lon="-6.14749010242684"><ele>1682.0</ele><time>2026-05-04T15:38:25.999Z</time></trkpt><trkpt lat="31.409478405920737" lon="-6.14748594669267"><ele>1681.5</ele><time>2026-05-04T15:38:26.999Z</time></trkpt><trkpt lat="31.409347524943136" lon="-6.147472410901983"><ele>1681.0</ele><time>2026-05-04T15:38:27.999Z</time></trkpt><trkpt lat="31.409213757514596" lon="-6.147452364190786"><ele>1681.0</ele><time>2026-05-04T15:38:28.999Z</time></trkpt><trkpt lat="31.409087546080393" lon="-6.14742863092137"><ele>1681.0</ele><time>2026-05-04T15:38:29.999Z</time></trkpt><trkpt lat="31.408953410476165" lon="-6.14740328688794"><ele>1681.0</ele><time>2026-05-04T15:38:30.999Z</time></trkpt><trkpt lat="31.408825417235665" lon="-6.147378008186302"><ele>1681.0</ele><time>2026-05-04T15:38:31.999Z</time></trkpt><trkpt lat="31.40869376862939" lon="-6.147343527970574"><ele>1674.75</ele><time>2026-05-04T15:38:33Z</time></trkpt><trkpt lat="31.408556962850064" lon="-6.14733783336104"><ele>1668.5</ele><time>2026-05-04T15:38:34Z</time></trkpt><trkpt lat="31.408422878064638" lon="-6.147332788988747"><ele>1662.25</ele><time>2026-05-04T15:38:35Z</time></trkpt><trkpt lat="31.408285196064497" lon="-6.147318186611917"><ele>1656.0</ele><time>2026-05-04T15:38:36Z</time></trkpt><trkpt lat="31.408147589906932" lon="-6.147296157835659"><ele>1656.0</ele><time>2026-05-04T15:38:37Z</time></trkpt><trkpt lat="31.408026515103288" lon="-6.147230294261247"><ele>1656.0</ele><time>2026-05-04T15:38:38Z</time></trkpt><trkpt lat="31.40792699214856" lon="-6.147123958336106"><ele>1656.0</ele><time>2026-05-04T15:38:39Z</time></trkpt><trkpt lat="31.407840676041065" lon="-6.147015255098778"><ele>1656.0</ele><time>2026-05-04T15:38:40Z</time></trkpt><trkpt lat="31.407770435796305" lon="-6.146915245173783"><ele>1656.8</ele><time>2026-05-04T15:38:41Z</time></trkpt><trkpt lat="31.407699829804713" lon="-6.1468154054896695"><ele>1657.6</ele><time>2026-05-04T15:38:42Z</time></trkpt><trkpt lat="31.407629512885816" lon="-6.146718658619724"><ele>1658.4</ele><time>2026-05-04T15:38:43Z</time></trkpt><trkpt lat="31.407560373029373" lon="-6.146644642404796"><ele>1659.2</ele><time>2026-05-04T15:38:44Z</time></trkpt><trkpt lat="31.40746625117279" lon="-6.146619510158974"><ele>1660.0</ele><time>2026-05-04T15:38:45Z</time></trkpt><trkpt lat="31.407377597711836" lon="-6.146635365438096"><ele>1660.0</ele><time>2026-05-04T15:38:46Z</time></trkpt><trkpt lat="31.407279077621695" lon="-6.146632216275056"><ele>1660.0</ele><time>2026-05-04T15:38:47Z</time></trkpt><trkpt lat="31.4071803433242" lon="-6.146618292464782"><ele>1660.0</ele><time>2026-05-04T15:38:48Z</time></trkpt><trkpt lat="31.407081456043365" lon="-6.146569353895532"><ele>1660.0</ele><time>2026-05-04T15:38:49Z</time></trkpt><trkpt lat="31.40699000981432" lon="-6.146505810242705"><ele>1660.0</ele><time>2026-05-04T15:38:50Z</time></trkpt><trkpt lat="31.40691476913898" lon="-6.146444961059977"><ele>1658.6</ele><time>2026-05-04T15:38:51Z</time></trkpt><trkpt lat="31.40684748927763" lon="-6.146350631117553"><ele>1657.2</ele><time>2026-05-04T15:38:52Z</time></trkpt><trkpt lat="31.406803264203543" lon="-6.1462272203727375"><ele>1655.8000000000002</ele><time>2026-05-04T15:38:53Z</time></trkpt><trkpt lat="31.40678590752861" lon="-6.146105509836015"><ele>1654.4</ele><time>2026-05-04T15:38:54Z</time></trkpt><trkpt lat="31.406786125307843" lon="-6.145981949154876"><ele>1653.0</ele><time>2026-05-04T15:38:55Z</time></trkpt><trkpt lat="31.406784123457214" lon="-6.145898538103466"><ele>1653.0</ele><time>2026-05-04T15:38:56Z</time></trkpt><trkpt lat="31.40676356285392" lon="-6.145812102097349"><ele>1653.0</ele><time>2026-05-04T15:38:58Z</time></trkpt><trkpt lat="31.406716731067412" lon="-6.145743518522828"><ele>1653.0</ele><time>2026-05-04T15:39:00Z</time></trkpt><trkpt lat="31.406588080379144" lon="-6.145821738800638"><ele>1653.0</ele><time>2026-05-04T15:39:02Z</time></trkpt><trkpt lat="31.40652470456452" lon="-6.145920148388109"><ele>1653.0</ele><time>2026-05-04T15:39:03Z</time></trkpt><trkpt lat="31.406464707582177" lon="-6.146012485404349"><ele>1653.0</ele><time>2026-05-04T15:39:04Z</time></trkpt><trkpt lat="31.40639271829157" lon="-6.146155096338389"><ele>1653.0</ele><time>2026-05-04T15:39:05Z</time></trkpt><trkpt lat="31.406337558414577" lon="-6.146281930184631"><ele>1653.0</ele><time>2026-05-04T15:39:06Z</time></trkpt><trkpt lat="31.406271187003817" lon="-6.146376527230545"><ele>1653.0</ele><time>2026-05-04T15:39:07Z</time></trkpt><trkpt lat="31.40619881456474" lon="-6.14651350556503"><ele>1652.0</ele><time>2026-05-04T15:39:08Z</time></trkpt><trkpt lat="31.40612800286145" lon="-6.146647612356165"><ele>1651.0</ele><time>2026-05-04T15:39:09Z</time></trkpt><trkpt lat="31.406025481594774" lon="-6.14677552153398"><ele>1650.0</ele><time>2026-05-04T15:39:10Z</time></trkpt><trkpt lat="31.40593400435391" lon="-6.146906551878531"><ele>1649.0</ele><time>2026-05-04T15:39:11Z</time></trkpt><trkpt lat="31.405844624481077" lon="-6.14702847824688"><ele>1649.0</ele><time>2026-05-04T15:39:12Z</time></trkpt><trkpt lat="31.405754119418848" lon="-6.147137683568347"><ele>1649.0</ele><time>2026-05-04T15:39:13Z</time></trkpt><trkpt lat="31.405660435014852" lon="-6.147234421758346"><ele>1649.0</ele><time>2026-05-04T15:39:14Z</time></trkpt><trkpt lat="31.40556389053253" lon="-6.147338155691104"><ele>1649.0</ele><time>2026-05-04T15:39:15Z</time></trkpt><trkpt lat="31.405413026397483" lon="-6.147378619393736"><ele>1651.0</ele><time>2026-05-04T15:39:16Z</time></trkpt><trkpt lat="31.40528510778846" lon="-6.147425182546503"><ele>1653.0</ele><time>2026-05-04T15:39:17Z</time></trkpt><trkpt lat="31.40515727515741" lon="-6.147469206806031"><ele>1655.0</ele><time>2026-05-04T15:39:18Z</time></trkpt><trkpt lat="31.405032160462188" lon="-6.147521105804326"><ele>1657.0</ele><time>2026-05-04T15:39:19Z</time></trkpt><trkpt lat="31.404924443272968" lon="-6.147560767648654"><ele>1657.0</ele><time>2026-05-04T15:39:20Z</time></trkpt><trkpt lat="31.404809040062574" lon="-6.147590153881073"><ele>1657.0</ele><time>2026-05-04T15:39:21Z</time></trkpt><trkpt lat="31.40470065928003" lon="-6.147591327627222"><ele>1657.0</ele><time>2026-05-04T15:39:22Z</time></trkpt><trkpt lat="31.404605691806598" lon="-6.1475847781726305"><ele>1657.0</ele><time>2026-05-04T15:39:23Z</time></trkpt><trkpt lat="31.40452633518051" lon="-6.147565646978788"><ele>1657.0</ele><time>2026-05-04T15:39:24Z</time></trkpt><trkpt lat="31.404442479113058" lon="-6.147519751913632"><ele>1654.8</ele><time>2026-05-04T15:39:25Z</time></trkpt><trkpt lat="31.404361891010407" lon="-6.147474794525694"><ele>1652.6</ele><time>2026-05-04T15:39:25.999Z</time></trkpt><trkpt lat="31.404288300717862" lon="-6.147394945775541"><ele>1650.3999999999999</ele><time>2026-05-04T15:39:26.999Z</time></trkpt><trkpt lat="31.404208087929227" lon="-6.147305659762602"><ele>1648.1999999999998</ele><time>2026-05-04T15:39:27.999Z</time></trkpt><trkpt lat="31.404121540380327" lon="-6.147231888092364"><ele>1646.0</ele><time>2026-05-04T15:39:28.999Z</time></trkpt><trkpt lat="31.404027833016162" lon="-6.147169340178094"><ele>1643.6</ele><time>2026-05-04T15:39:29.999Z</time></trkpt><trkpt lat="31.40393219834789" lon="-6.147126548336341"><ele>1641.1999999999998</ele><time>2026-05-04T15:39:30.999Z</time></trkpt><trkpt lat="31.403832706062598" lon="-6.147101853625098"><ele>1638.8000000000002</ele><time>2026-05-04T15:39:31.999Z</time></trkpt><trkpt lat="31.40374144441735" lon="-6.147078682619753"><ele>1636.4</ele><time>2026-05-04T15:39:32.999Z</time></trkpt><trkpt lat="31.403645106573475" lon="-6.147053023900342"><ele>1634.0</ele><time>2026-05-04T15:39:33.999Z</time></trkpt><trkpt lat="31.403519245676353" lon="-6.146994090416128"><ele>1633.75</ele><time>2026-05-04T15:39:35.999Z</time></trkpt><trkpt lat="31.403442667105512" lon="-6.146907981470201"><ele>1633.5</ele><time>2026-05-04T15:39:36.999Z</time></trkpt><trkpt lat="31.40339789152666" lon="-6.14677001629997"><ele>1633.25</ele><time>2026-05-04T15:39:37.999Z</time></trkpt><trkpt lat="31.403352265027312" lon="-6.146645014176069"><ele>1633.0</ele><time>2026-05-04T15:39:38.999Z</time></trkpt><trkpt lat="31.4033311770572" lon="-6.146483101610778"><ele>1634.4</ele><time>2026-05-04T15:39:39.999Z</time></trkpt><trkpt lat="31.403308736794436" lon="-6.146357291261392"><ele>1635.8000000000002</ele><time>2026-05-04T15:39:40.999Z</time></trkpt><trkpt lat="31.403281248006735" lon="-6.146258872956596"><ele>1637.2</ele><time>2026-05-04T15:39:41.999Z</time></trkpt><trkpt lat="31.403237678540208" lon="-6.146176068226745"><ele>1638.6</ele><time>2026-05-04T15:39:42.999Z</time></trkpt><trkpt lat="31.403174015743748" lon="-6.146071345172106"><ele>1640.0</ele><time>2026-05-04T15:39:43.999Z</time></trkpt><trkpt lat="31.403086489235648" lon="-6.146029421221575"><ele>1637.5</ele><time>2026-05-04T15:39:44.999Z</time></trkpt><trkpt lat="31.402994050147427" lon="-6.145958476279734"><ele>1635.0</ele><time>2026-05-04T15:39:45.999Z</time></trkpt><trkpt lat="31.40288725447168" lon="-6.145881939376243"><ele>1632.5</ele><time>2026-05-04T15:39:46.999Z</time></trkpt><trkpt lat="31.402786876167642" lon="-6.145811925502572"><ele>1630.0</ele><time>2026-05-04T15:39:47.999Z</time></trkpt><trkpt lat="31.4026927253126" lon="-6.145746567054153"><ele>1631.0</ele><time>2026-05-04T15:39:48.999Z</time></trkpt><trkpt lat="31.402602657538104" lon="-6.145684042972687"><ele>1632.0</ele><time>2026-05-04T15:39:49.999Z</time></trkpt><trkpt lat="31.402508076407184" lon="-6.145618386377029"><ele>1633.0</ele><time>2026-05-04T15:39:50.999Z</time></trkpt><trkpt lat="31.40240069201196" lon="-6.145567503105812"><ele>1634.0</ele><time>2026-05-04T15:39:51.999Z</time></trkpt><trkpt lat="31.402272289002724" lon="-6.145499283284641"><ele>1634.25</ele><time>2026-05-04T15:39:52.999Z</time></trkpt><trkpt lat="31.402141157709895" lon="-6.145434112597751"><ele>1634.5</ele><time>2026-05-04T15:39:53.999Z</time></trkpt><trkpt lat="31.402009245420135" lon="-6.145368532274943"><ele>1634.75</ele><time>2026-05-04T15:39:54.999Z</time></trkpt><trkpt lat="31.4018823578072" lon="-6.145295350445453"><ele>1635.0</ele><time>2026-05-04T15:39:55.999Z</time></trkpt><trkpt lat="31.40175877118392" lon="-6.1452096968748595"><ele>1635.0</ele><time>2026-05-04T15:39:56.999Z</time></trkpt><trkpt lat="31.40164215229768" lon="-6.145121603796877"><ele>1635.0</ele><time>2026-05-04T15:39:57.999Z</time></trkpt><trkpt lat="31.40151957534933" lon="-6.145030316476176"><ele>1635.0</ele><time>2026-05-04T15:39:58.999Z</time></trkpt><trkpt lat="31.40140128639411" lon="-6.144942048443963"><ele>1635.0</ele><time>2026-05-04T15:39:59.999Z</time></trkpt><trkpt lat="31.401287086665956" lon="-6.144857987139096"><ele>1636.75</ele><time>2026-05-04T15:40:00.999Z</time></trkpt><trkpt lat="31.40116396603088" lon="-6.144768103966802"><ele>1638.5</ele><time>2026-05-04T15:40:01.999Z</time></trkpt><trkpt lat="31.401043800041037" lon="-6.144680617708259"><ele>1640.25</ele><time>2026-05-04T15:40:02.999Z</time></trkpt><trkpt lat="31.400941185207138" lon="-6.144613742763619"><ele>1642.0</ele><time>2026-05-04T15:40:04Z</time></trkpt><trkpt lat="31.400839342824614" lon="-6.14458679482044"><ele>1642.0</ele><time>2026-05-04T15:40:05Z</time></trkpt><trkpt lat="31.40071394377176" lon="-6.144586653853846"><ele>1642.0</ele><time>2026-05-04T15:40:06Z</time></trkpt><trkpt lat="31.40057538373381" lon="-6.144616822824486"><ele>1642.0</ele><time>2026-05-04T15:40:07Z</time></trkpt><trkpt lat="31.40044182337416" lon="-6.144653539366667"><ele>1642.0</ele><time>2026-05-04T15:40:08Z</time></trkpt><trkpt lat="31.400321620099316" lon="-6.144696099498638"><ele>1640.5</ele><time>2026-05-04T15:40:09Z</time></trkpt><trkpt lat="31.400219556897923" lon="-6.144759188341011"><ele>1639.0</ele><time>2026-05-04T15:40:10Z</time></trkpt><trkpt lat="31.400117729242535" lon="-6.144830693161219"><ele>1637.5</ele><time>2026-05-04T15:40:11Z</time></trkpt><trkpt lat="31.40001680731992" lon="-6.144893901253626"><ele>1636.0</ele><time>2026-05-04T15:40:12Z</time></trkpt><trkpt lat="31.39991115449899" lon="-6.144905629998904"><ele>1633.8</ele><time>2026-05-04T15:40:13Z</time></trkpt><trkpt lat="31.399795446309476" lon="-6.144906303670646"><ele>1631.6</ele><time>2026-05-04T15:40:14Z</time></trkpt><trkpt lat="31.399706439860736" lon="-6.144902936682515"><ele>1629.4</ele><time>2026-05-04T15:40:15Z</time></trkpt><trkpt lat="31.39961095354023" lon="-6.144863976839751"><ele>1627.2</ele><time>2026-05-04T15:40:16Z</time></trkpt><trkpt lat="31.399536616665" lon="-6.144798014573151"><ele>1625.0</ele><time>2026-05-04T15:40:17Z</time></trkpt><trkpt lat="31.399485305347316" lon="-6.144712748071857"><ele>1623.5</ele><time>2026-05-04T15:40:18Z</time></trkpt><trkpt lat="31.399521385027032" lon="-6.144536146640286"><ele>1622.0</ele><time>2026-05-04T15:40:19Z</time></trkpt><trkpt lat="31.399571051942342" lon="-6.144426447466217"><ele>1620.5</ele><time>2026-05-04T15:40:20Z</time></trkpt><trkpt lat="31.399660027264492" lon="-6.14432267208977"><ele>1619.0</ele><time>2026-05-04T15:40:21Z</time></trkpt><trkpt lat="31.399727114528268" lon="-6.144214554376637"><ele>1622.25</ele><time>2026-05-04T15:40:22Z</time></trkpt><trkpt lat="31.399796060648185" lon="-6.144103941735764"><ele>1625.5</ele><time>2026-05-04T15:40:23Z</time></trkpt><trkpt lat="31.399869630275408" lon="-6.143986272914894"><ele>1628.75</ele><time>2026-05-04T15:40:24Z</time></trkpt><trkpt lat="31.39996221291934" lon="-6.143868519019893"><ele>1632.0</ele><time>2026-05-04T15:40:25Z</time></trkpt><trkpt lat="31.400035195958743" lon="-6.143743003384082"><ele>1632.0</ele><time>2026-05-04T15:40:26Z</time></trkpt><trkpt lat="31.400103814256706" lon="-6.143628946573854"><ele>1632.0</ele><time>2026-05-04T15:40:27Z</time></trkpt><trkpt lat="31.400154999435202" lon="-6.143505064503899"><ele>1632.0</ele><time>2026-05-04T15:40:28Z</time></trkpt><trkpt lat="31.400212549013684" lon="-6.143381892957398"><ele>1632.0</ele><time>2026-05-04T15:40:29Z</time></trkpt><trkpt lat="31.400253149405643" lon="-6.143260645105305"><ele>1629.8</ele><time>2026-05-04T15:40:30Z</time></trkpt><trkpt lat="31.40028283339194" lon="-6.143141821356743"><ele>1627.6</ele><time>2026-05-04T15:40:31Z</time></trkpt><trkpt lat="31.400299738792473" lon="-6.143016085911071"><ele>1625.3999999999999</ele><time>2026-05-04T15:40:32Z</time></trkpt><trkpt lat="31.400314608823898" lon="-6.142882008843656"><ele>1623.1999999999998</ele><time>2026-05-04T15:40:33Z</time></trkpt><trkpt lat="31.400301964684658" lon="-6.142764223591357"><ele>1621.0</ele><time>2026-05-04T15:40:34Z</time></trkpt><trkpt lat="31.400271965107823" lon="-6.142670136314563"><ele>1621.0000000000002</ele><time>2026-05-04T15:40:35Z</time></trkpt><trkpt lat="31.400237121108038" lon="-6.142590824643031"><ele>1621.0</ele><time>2026-05-04T15:40:36Z</time></trkpt><trkpt lat="31.400198781573984" lon="-6.142528473538351"><ele>1621.0</ele><time>2026-05-04T15:40:37Z</time></trkpt><trkpt lat="31.400159966498585" lon="-6.142454496240758"><ele>1621.0</ele><time>2026-05-04T15:40:38Z</time></trkpt><trkpt lat="31.400107106340446" lon="-6.142411429956362"><ele>1621.0000000000002</ele><time>2026-05-04T15:40:39Z</time></trkpt><trkpt lat="31.400043335619884" lon="-6.142358409423831"><ele>1621.0</ele><time>2026-05-04T15:40:40Z</time></trkpt><trkpt lat="31.39996910213844" lon="-6.142290772778274"><ele>1619.0</ele><time>2026-05-04T15:40:41Z</time></trkpt><trkpt lat="31.399892881494033" lon="-6.142221443288601"><ele>1617.0</ele><time>2026-05-04T15:40:42Z</time></trkpt><trkpt lat="31.399808613473372" lon="-6.142140647881503"><ele>1615.0</ele><time>2026-05-04T15:40:43Z</time></trkpt><trkpt lat="31.39972612840196" lon="-6.1420551308672096"><ele>1613.0</ele><time>2026-05-04T15:40:44Z</time></trkpt><trkpt lat="31.399643718380958" lon="-6.141969691626554"><ele>1611.0</ele><time>2026-05-04T15:40:45Z</time></trkpt><trkpt lat="31.399563169187974" lon="-6.141886181641923"><ele>1611.0</ele><time>2026-05-04T15:40:46Z</time></trkpt><trkpt lat="31.399480835733897" lon="-6.141795970664063"><ele>1611.0</ele><time>2026-05-04T15:40:47Z</time></trkpt><trkpt lat="31.399405850188163" lon="-6.141709430869917"><ele>1611.0</ele><time>2026-05-04T15:40:48Z</time></trkpt><trkpt lat="31.399330826823892" lon="-6.141619052120649"><ele>1611.0</ele><time>2026-05-04T15:40:49Z</time></trkpt><trkpt lat="31.39926186544325" lon="-6.141530864723869"><ele>1611.0</ele><time>2026-05-04T15:40:50Z</time></trkpt><trkpt lat="31.399191313997658" lon="-6.141434087164351"><ele>1615.8</ele><time>2026-05-04T15:40:51Z</time></trkpt><trkpt lat="31.399126160163085" lon="-6.141341090637706"><ele>1620.6</ele><time>2026-05-04T15:40:52Z</time></trkpt><trkpt lat="31.39906650017427" lon="-6.141258314275471"><ele>1625.4</ele><time>2026-05-04T15:40:53Z</time></trkpt><trkpt lat="31.399000134339392" lon="-6.141168240559491"><ele>1630.2</ele><time>2026-05-04T15:40:54Z</time></trkpt><trkpt lat="31.39893264521536" lon="-6.141076674838325"><ele>1635.0</ele><time>2026-05-04T15:40:55Z</time></trkpt><trkpt lat="31.398864376520937" lon="-6.140977994578582"><ele>1630.0</ele><time>2026-05-04T15:40:56Z</time></trkpt><trkpt lat="31.398800570120287" lon="-6.140885764647452"><ele>1625.0</ele><time>2026-05-04T15:40:57Z</time></trkpt><trkpt lat="31.39874576651351" lon="-6.140801475380257"><ele>1620.0</ele><time>2026-05-04T15:40:58Z</time></trkpt><trkpt lat="31.398691842530035" lon="-6.140706072475477"><ele>1615.0</ele><time>2026-05-04T15:40:59Z</time></trkpt><trkpt lat="31.398648188193356" lon="-6.14061555179547"><ele>1610.0</ele><time>2026-05-04T15:41:00Z</time></trkpt><trkpt lat="31.39859977814882" lon="-6.1405047813487075"><ele>1610.0</ele><time>2026-05-04T15:41:01Z</time></trkpt><trkpt lat="31.39855714904675" lon="-6.1403995260186175"><ele>1610.0</ele><time>2026-05-04T15:41:02Z</time></trkpt><trkpt lat="31.39852252881003" lon="-6.1402702612414535"><ele>1610.0</ele><time>2026-05-04T15:41:03Z</time></trkpt><trkpt lat="31.398493987033067" lon="-6.140161763201057"><ele>1610.0</ele><time>2026-05-04T15:41:04Z</time></trkpt><trkpt lat="31.39846668561287" lon="-6.140062753843623"><ele>1610.0</ele><time>2026-05-04T15:41:05Z</time></trkpt><trkpt lat="31.398439765523626" lon="-6.139967085010262"><ele>1611.8333333333333</ele><time>2026-05-04T15:41:06Z</time></trkpt><trkpt lat="31.398413080061818" lon="-6.139872329562909"><ele>1613.6666666666665</ele><time>2026-05-04T15:41:07Z</time></trkpt><trkpt lat="31.398388377277563" lon="-6.139785459672854"><ele>1615.5</ele><time>2026-05-04T15:41:08Z</time></trkpt><trkpt lat="31.39836438890446" lon="-6.139701144888113"><ele>1617.3333333333335</ele><time>2026-05-04T15:41:09Z</time></trkpt><trkpt lat="31.398341948565225" lon="-6.139622701727008"><ele>1619.1666666666667</ele><time>2026-05-04T15:41:10Z</time></trkpt><trkpt lat="31.39832030001082" lon="-6.139548208857212"><ele>1621.0</ele><time>2026-05-04T15:41:11Z</time></trkpt><trkpt lat="31.39827720082668" lon="-6.139424791604771"><ele>1621.0000000000002</ele><time>2026-05-04T15:41:13Z</time></trkpt><trkpt lat="31.398236862850368" lon="-6.139323544005534"><ele>1621.0</ele><time>2026-05-04T15:41:15Z</time></trkpt><trkpt lat="31.398197366924485" lon="-6.139227909242604"><ele>1621.0</ele><time>2026-05-04T15:41:17Z</time></trkpt><trkpt lat="31.39815225681552" lon="-6.139133049843739"><ele>1621.0</ele><time>2026-05-04T15:41:19Z</time></trkpt><trkpt lat="31.398104603645706" lon="-6.139064749062481"><ele>1621.0000000000002</ele><time>2026-05-04T15:41:21Z</time></trkpt><trkpt lat="31.39803769550942" lon="-6.138989930676989"><ele>1621.0</ele><time>2026-05-04T15:41:23Z</time></trkpt><trkpt lat="31.39794264674856" lon="-6.138910530768296"><ele>1619.6</ele><time>2026-05-04T15:41:25Z</time></trkpt><trkpt lat="31.397829698788488" lon="-6.138825034072293"><ele>1618.1999999999998</ele><time>2026-05-04T15:41:27Z</time></trkpt><trkpt lat="31.397762339140623" lon="-6.138757241533806"><ele>1616.8000000000002</ele><time>2026-05-04T15:41:28.001Z</time></trkpt><trkpt lat="31.397694111271875" lon="-6.138678940481562"><ele>1615.4</ele><time>2026-05-04T15:41:29.001Z</time></trkpt><trkpt lat="31.39763252572824" lon="-6.138599683019261"><ele>1614.0</ele><time>2026-05-04T15:41:30.001Z</time></trkpt><trkpt lat="31.39756670573225" lon="-6.138508216660243"><ele>1614.0</ele><time>2026-05-04T15:41:31.001Z</time></trkpt><trkpt lat="31.39750920893133" lon="-6.138425182257434"><ele>1614.0</ele><time>2026-05-04T15:41:31.999Z</time></trkpt><trkpt lat="31.39745214371791" lon="-6.138315406885549"><ele>1614.0</ele><time>2026-05-04T15:41:32.999Z</time></trkpt><trkpt lat="31.397412156096323" lon="-6.138235852688613"><ele>1614.0</ele><time>2026-05-04T15:41:33.999Z</time></trkpt><trkpt lat="31.39737085088312" lon="-6.138159945021553"><ele>1614.0</ele><time>2026-05-04T15:41:34.999Z</time></trkpt><trkpt lat="31.397300107119925" lon="-6.138097759126675"><ele>1614.0</ele><time>2026-05-04T15:41:36.999Z</time></trkpt><trkpt lat="31.397168767966598" lon="-6.138067421772343"><ele>1612.4</ele><time>2026-05-04T15:41:38.999Z</time></trkpt><trkpt lat="31.39710601478229" lon="-6.138056379209505"><ele>1610.8000000000002</ele><time>2026-05-04T15:41:39.999Z</time></trkpt><trkpt lat="31.397027494920945" lon="-6.13801375721482"><ele>1609.1999999999998</ele><time>2026-05-04T15:41:40.999Z</time></trkpt><trkpt lat="31.396954030681176" lon="-6.137935608197341"><ele>1607.6</ele><time>2026-05-04T15:41:41.999Z</time></trkpt><trkpt lat="31.396893771381116" lon="-6.137806032503202"><ele>1606.0</ele><time>2026-05-04T15:41:42.999Z</time></trkpt><trkpt lat="31.396851743008618" lon="-6.137706123503902"><ele>1606.0000000000002</ele><time>2026-05-04T15:41:43.999Z</time></trkpt><trkpt lat="31.396811903828507" lon="-6.137613579772695"><ele>1606.0</ele><time>2026-05-04T15:41:44.999Z</time></trkpt><trkpt lat="31.396773937235366" lon="-6.137519102906189"><ele>1606.0</ele><time>2026-05-04T15:41:45.999Z</time></trkpt><trkpt lat="31.39674004770817" lon="-6.137430031313771"><ele>1606.0</ele><time>2026-05-04T15:41:46.999Z</time></trkpt><trkpt lat="31.39670921258911" lon="-6.137350176788663"><ele>1606.0000000000002</ele><time>2026-05-04T15:41:47.999Z</time></trkpt><trkpt lat="31.396682410717247" lon="-6.13728206153533"><ele>1606.0</ele><time>2026-05-04T15:41:48.999Z</time></trkpt><trkpt lat="31.396625203589327" lon="-6.137185740875777"><ele>1605.5</ele><time>2026-05-04T15:41:50.999Z</time></trkpt><trkpt lat="31.396649519367983" lon="-6.1369930564569275"><ele>1605.0</ele><time>2026-05-04T15:41:52.999Z</time></trkpt><trkpt lat="31.396762981989255" lon="-6.13693475551437"><ele>1604.5</ele><time>2026-05-04T15:41:53.999Z</time></trkpt><trkpt lat="31.39685532203928" lon="-6.136855438558535"><ele>1604.0</ele><time>2026-05-04T15:41:55.999Z</time></trkpt><trkpt lat="31.396835825086228" lon="-6.136766625996161"><ele>1604.0</ele><time>2026-05-04T15:41:58Z</time></trkpt><trkpt lat="31.39678008939048" lon="-6.136712484089468"><ele>1604.0</ele><time>2026-05-04T15:42:00Z</time></trkpt><trkpt lat="31.396651636461662" lon="-6.13660065408416"><ele>1604.0</ele><time>2026-05-04T15:42:02Z</time></trkpt><trkpt lat="31.396564839470134" lon="-6.136525785503736"><ele>1604.0</ele><time>2026-05-04T15:42:03Z</time></trkpt><trkpt lat="31.3964718488045" lon="-6.136445586880831"><ele>1603.2</ele><time>2026-05-04T15:42:04Z</time></trkpt><trkpt lat="31.396390312450382" lon="-6.136378813289174"><ele>1602.4</ele><time>2026-05-04T15:42:05Z</time></trkpt><trkpt lat="31.396310343263476" lon="-6.136314543003584"><ele>1601.6</ele><time>2026-05-04T15:42:06Z</time></trkpt><trkpt lat="31.39623424657308" lon="-6.136222285052825"><ele>1600.8</ele><time>2026-05-04T15:42:07Z</time></trkpt><trkpt lat="31.39617384134904" lon="-6.136128220397238"><ele>1600.0</ele><time>2026-05-04T15:42:08Z</time></trkpt><trkpt lat="31.39611529432407" lon="-6.136008943851992"><ele>1600.0</ele><time>2026-05-04T15:42:09Z</time></trkpt><trkpt lat="31.39605866993676" lon="-6.135864808684023"><ele>1600.0</ele><time>2026-05-04T15:42:10Z</time></trkpt><trkpt lat="31.39601297294767" lon="-6.135719964731913"><ele>1600.0</ele><time>2026-05-04T15:42:11Z</time></trkpt><trkpt lat="31.3959633024154" lon="-6.1355649800063965"><ele>1600.0</ele><time>2026-05-04T15:42:12Z</time></trkpt><trkpt lat="31.39593436583072" lon="-6.135417024827001"><ele>1601.8</ele><time>2026-05-04T15:42:13Z</time></trkpt><trkpt lat="31.395908369887305" lon="-6.135284105285774"><ele>1603.6</ele><time>2026-05-04T15:42:14Z</time></trkpt><trkpt lat="31.395882900381647" lon="-6.135164215753591"><ele>1605.4</ele><time>2026-05-04T15:42:15Z</time></trkpt><trkpt lat="31.3958563803085" lon="-6.135042269800514"><ele>1607.2</ele><time>2026-05-04T15:42:16Z</time></trkpt><trkpt lat="31.39584423321867" lon="-6.134904275847925"><ele>1609.0</ele><time>2026-05-04T15:42:17Z</time></trkpt><trkpt lat="31.395833944333596" lon="-6.134787618791744"><ele>1607.8333333333335</ele><time>2026-05-04T15:42:18Z</time></trkpt><trkpt lat="31.395815928257065" lon="-6.1346898629733575"><ele>1606.6666666666667</ele><time>2026-05-04T15:42:19Z</time></trkpt><trkpt lat="31.39579742735795" lon="-6.134589145133349"><ele>1605.5</ele><time>2026-05-04T15:42:20Z</time></trkpt><trkpt lat="31.395781910468106" lon="-6.134504672550767"><ele>1604.3333333333335</ele><time>2026-05-04T15:42:21Z</time></trkpt><trkpt lat="31.395714079114335" lon="-6.1343845577829414"><ele>1603.1666666666667</ele><time>2026-05-04T15:42:23Z</time></trkpt><trkpt lat="31.395656285019278" lon="-6.134341885918859"><ele>1602.0</ele><time>2026-05-04T15:42:24Z</time></trkpt><trkpt lat="31.395493080880932" lon="-6.134270898676037"><ele>1602.0</ele><time>2026-05-04T15:42:26Z</time></trkpt><trkpt lat="31.39539784720574" lon="-6.13419299956035"><ele>1602.0</ele><time>2026-05-04T15:42:27Z</time></trkpt><trkpt lat="31.395302254176773" lon="-6.134125702125798"><ele>1602.0</ele><time>2026-05-04T15:42:28Z</time></trkpt><trkpt lat="31.39521770829983" lon="-6.134054070693548"><ele>1602.0</ele><time>2026-05-04T15:42:29Z</time></trkpt><trkpt lat="31.395145528218908" lon="-6.134002606205488"><ele>1602.0</ele><time>2026-05-04T15:42:30Z</time></trkpt><trkpt lat="31.395071927406974" lon="-6.13396552190986"><ele>1602.0</ele><time>2026-05-04T15:42:31Z</time></trkpt><trkpt lat="31.394999252766123" lon="-6.1339432960196865"><ele>1602.0</ele><time>2026-05-04T15:42:32Z</time></trkpt><trkpt lat="31.394919090839352" lon="-6.133926234152364"><ele>1602.0</ele><time>2026-05-04T15:42:33Z</time></trkpt><trkpt lat="31.394835789122705" lon="-6.1339292091245134"><ele>1602.0</ele><time>2026-05-04T15:42:34Z</time></trkpt><trkpt lat="31.394756757797612" lon="-6.133989905075117"><ele>1602.0</ele><time>2026-05-04T15:42:35Z</time></trkpt><trkpt lat="31.39468130848683" lon="-6.134038100378625"><ele>1602.0</ele><time>2026-05-04T15:42:36Z</time></trkpt><trkpt lat="31.39459883811346" lon="-6.134041579677917"><ele>1602.0</ele><time>2026-05-04T15:42:37Z</time></trkpt><trkpt lat="31.39451013649819" lon="-6.134042139982701"><ele>1602.0</ele><time>2026-05-04T15:42:38Z</time></trkpt><trkpt lat="31.394432708756938" lon="-6.134010765175284"><ele>1602.0</ele><time>2026-05-04T15:42:39Z</time></trkpt><trkpt lat="31.394359163404022" lon="-6.133941398513065"><ele>1602.0</ele><time>2026-05-04T15:42:40Z</time></trkpt><trkpt lat="31.39430280093641" lon="-6.133851058372999"><ele>1602.0</ele><time>2026-05-04T15:42:41Z</time></trkpt><trkpt lat="31.394268102236776" lon="-6.133757297999825"><ele>1602.0</ele><time>2026-05-04T15:42:42Z</time></trkpt><trkpt lat="31.394249237305697" lon="-6.1336831160346446"><ele>1602.0</ele><time>2026-05-04T15:42:43Z</time></trkpt><trkpt lat="31.394205548865116" lon="-6.133592148156193"><ele>1602.0</ele><time>2026-05-04T15:42:45Z</time></trkpt><trkpt lat="31.394116733839972" lon="-6.133534356670905"><ele>1602.0</ele><time>2026-05-04T15:42:47Z</time></trkpt><trkpt lat="31.394046591782" lon="-6.133525919690078"><ele>1602.0</ele><time>2026-05-04T15:42:48Z</time></trkpt><trkpt lat="31.393983052747025" lon="-6.133536869145775"><ele>1602.0</ele><time>2026-05-04T15:42:49Z</time></trkpt><trkpt lat="31.39390727711333" lon="-6.1335472187199676"><ele>1602.0</ele><time>2026-05-04T15:42:50Z</time></trkpt><trkpt lat="31.393826812794295" lon="-6.133513437105968"><ele>1599.6666666666667</ele><time>2026-05-04T15:42:51Z</time></trkpt><trkpt lat="31.393760866589037" lon="-6.133408520793356"><ele>1597.3333333333335</ele><time>2026-05-04T15:42:52Z</time></trkpt><trkpt lat="31.39374262139733" lon="-6.1332917750348885"><ele>1595.0</ele><time>2026-05-04T15:42:53Z</time></trkpt><trkpt lat="31.393734497720608" lon="-6.133210666334743"><ele>1592.6666666666667</ele><time>2026-05-04T15:42:54Z</time></trkpt><trkpt lat="31.393716223677668" lon="-6.133126337520351"><ele>1590.3333333333335</ele><time>2026-05-04T15:42:55Z</time></trkpt><trkpt lat="31.393696620994643" lon="-6.13305407375812"><ele>1588.0</ele><time>2026-05-04T15:42:56Z</time></trkpt><trkpt lat="31.393677032260722" lon="-6.1329826699161485"><ele>1593.5000000000002</ele><time>2026-05-04T15:42:57Z</time></trkpt><trkpt lat="31.39362017721806" lon="-6.132908303223762"><ele>1599.0</ele><time>2026-05-04T15:42:59Z</time></trkpt><trkpt lat="31.393557757105125" lon="-6.132882996256549"><ele>1604.5</ele><time>2026-05-04T15:43:01Z</time></trkpt><trkpt lat="31.39347676922428" lon="-6.1329226227688"><ele>1610.0</ele><time>2026-05-04T15:43:03Z</time></trkpt><trkpt lat="31.393396678068935" lon="-6.132948589502121"><ele>1615.5000000000002</ele><time>2026-05-04T15:43:04Z</time></trkpt><trkpt lat="31.393318120273513" lon="-6.132991946676075"><ele>1621.0</ele><time>2026-05-04T15:43:05Z</time></trkpt><trkpt lat="31.39323153770277" lon="-6.133011684512518"><ele>1621.0</ele><time>2026-05-04T15:43:06Z</time></trkpt><trkpt lat="31.393129657980623" lon="-6.1330521236456"><ele>1621.0</ele><time>2026-05-04T15:43:07Z</time></trkpt><trkpt lat="31.393025613228335" lon="-6.133043754050334"><ele>1621.0</ele><time>2026-05-04T15:43:08Z</time></trkpt><trkpt lat="31.39293167517216" lon="-6.13301807801851"><ele>1621.0</ele><time>2026-05-04T15:43:09Z</time></trkpt><trkpt lat="31.392831577835025" lon="-6.133007023431185"><ele>1621.0</ele><time>2026-05-04T15:43:10.001Z</time></trkpt><trkpt lat="31.392734632876806" lon="-6.132983727888399"><ele>1621.3333333333335</ele><time>2026-05-04T15:43:11.001Z</time></trkpt><trkpt lat="31.39264299068826" lon="-6.132968820407642"><ele>1621.6666666666667</ele><time>2026-05-04T15:43:12.001Z</time></trkpt><trkpt lat="31.39255766030306" lon="-6.132957590297824"><ele>1622.0</ele><time>2026-05-04T15:43:13.001Z</time></trkpt><trkpt lat="31.39247250594594" lon="-6.132940750989936"><ele>1622.3333333333335</ele><time>2026-05-04T15:43:14.001Z</time></trkpt><trkpt lat="31.392396704686046" lon="-6.132921631130671"><ele>1622.6666666666667</ele><time>2026-05-04T15:43:15.001Z</time></trkpt><trkpt lat="31.39232241515124" lon="-6.132909895458229"><ele>1623.0</ele><time>2026-05-04T15:43:16.001Z</time></trkpt><trkpt lat="31.39225504194201" lon="-6.132894507891641"><ele>1623.0</ele><time>2026-05-04T15:43:17.001Z</time></trkpt><trkpt lat="31.392191419599747" lon="-6.1328880790258715"><ele>1623.0</ele><time>2026-05-04T15:43:18.001Z</time></trkpt><trkpt lat="31.392068959770196" lon="-6.132847831776045"><ele>1623.0</ele><time>2026-05-04T15:43:20.001Z</time></trkpt><trkpt lat="31.392001677630983" lon="-6.132822460005361"><ele>1623.0</ele><time>2026-05-04T15:43:21.001Z</time></trkpt><trkpt lat="31.3919343556145" lon="-6.132802969315614"><ele>1623.0</ele><time>2026-05-04T15:43:22.001Z</time></trkpt><trkpt lat="31.391873411804315" lon="-6.132772760336463"><ele>1623.0</ele><time>2026-05-04T15:43:23.001Z</time></trkpt><trkpt lat="31.39181234656775" lon="-6.132744315770471"><ele>1619.8333333333333</ele><time>2026-05-04T15:43:24.001Z</time></trkpt><trkpt lat="31.391747783324234" lon="-6.132718295888654"><ele>1616.6666666666665</ele><time>2026-05-04T15:43:25.001Z</time></trkpt><trkpt lat="31.39167557987085" lon="-6.1327035968542525"><ele>1613.5</ele><time>2026-05-04T15:43:26.001Z</time></trkpt><trkpt lat="31.39159075337235" lon="-6.132663349635129"><ele>1610.3333333333333</ele><time>2026-05-04T15:43:27.001Z</time></trkpt><trkpt lat="31.391504398906275" lon="-6.13263014763999"><ele>1607.1666666666665</ele><time>2026-05-04T15:43:28.001Z</time></trkpt><trkpt lat="31.391427468362313" lon="-6.132594091227965"><ele>1604.0</ele><time>2026-05-04T15:43:29.001Z</time></trkpt><trkpt lat="31.3913674559512" lon="-6.13256087415953"><ele>1603.0</ele><time>2026-05-04T15:43:30.001Z</time></trkpt><trkpt lat="31.39124232880273" lon="-6.132509972692439"><ele>1602.0</ele><time>2026-05-04T15:43:32.001Z</time></trkpt><trkpt lat="31.391180859782896" lon="-6.132470188028326"><ele>1601.0</ele><time>2026-05-04T15:43:33.001Z</time></trkpt><trkpt lat="31.39109412895638" lon="-6.132372465318855"><ele>1600.0</ele><time>2026-05-04T15:43:35.001Z</time></trkpt><trkpt lat="31.391023068188243" lon="-6.1322919349255685"><ele>1599.0</ele><time>2026-05-04T15:43:37.001Z</time></trkpt><trkpt lat="31.39096662227165" lon="-6.132234608934054"><ele>1598.9999999999998</ele><time>2026-05-04T15:43:38.999Z</time></trkpt><trkpt lat="31.39091062631346" lon="-6.132191763661524"><ele>1599.0</ele><time>2026-05-04T15:43:41.999Z</time></trkpt><trkpt lat="31.390981537809196" lon="-6.132115334443961"><ele>1599.0</ele><time>2026-05-04T15:47:28.001Z</time></trkpt><trkpt lat="31.390954616009616" lon="-6.132046352839696"><ele>1599.0</ele><time>2026-05-04T15:48:38.001Z</time></trkpt><trkpt lat="31.39089586220589" lon="-6.13208459260639"><ele>1599.0</ele><time>2026-05-04T16:04:58Z</time></trkpt><trkpt lat="31.390914238794558" lon="-6.1321665148967694"><ele>1598.9999999999998</ele><time>2026-05-04T16:05:08Z</time></trkpt><trkpt lat="31.39088185615307" lon="-6.132231596654145"><ele>1599.0</ele><time>2026-05-04T16:05:19Z</time></trkpt><trkpt lat="31.390897886912708" lon="-6.132154383558775"><ele>1599.0</ele><time>2026-05-04T16:05:27Z</time></trkpt><trkpt lat="31.3909296497895" lon="-6.132089016291875"><ele>1599.0</ele><time>2026-05-04T16:06:06Z</time></trkpt><trkpt lat="31.390782206467318" lon="-6.132014460253714"><ele>1599.0</ele><time>2026-05-04T16:07:11Z</time></trkpt><trkpt lat="31.390695780963338" lon="-6.131984677119181"><ele>1599.0</ele><time>2026-05-04T16:07:13Z</time></trkpt><trkpt lat="31.39062931664584" lon="-6.131968481134846"><ele>1599.0</ele><time>2026-05-04T16:07:15Z</time></trkpt><trkpt lat="31.39056485298834" lon="-6.1319059166571215"><ele>1599.0</ele><time>2026-05-04T16:07:18Z</time></trkpt><trkpt lat="31.390576996700453" lon="-6.131816497571955"><ele>1599.0</ele><time>2026-05-04T16:07:21Z</time></trkpt><trkpt lat="31.390624614048395" lon="-6.131737961231521"><ele>1599.0</ele><time>2026-05-04T16:07:25Z</time></trkpt><trkpt lat="31.390661812268636" lon="-6.131665412891044"><ele>1599.0</ele><time>2026-05-04T16:07:27Z</time></trkpt><trkpt lat="31.3906630775697" lon="-6.131565211559276"><ele>1599.0</ele><time>2026-05-04T16:07:29Z</time></trkpt><trkpt lat="31.39056223801856" lon="-6.131445896845359"><ele>1598.4</ele><time>2026-05-04T16:07:31Z</time></trkpt><trkpt lat="31.39047618691719" lon="-6.131379031058859"><ele>1597.8000000000002</ele><time>2026-05-04T16:07:32Z</time></trkpt><trkpt lat="31.390403338892572" lon="-6.131328658690229"><ele>1597.1999999999998</ele><time>2026-05-04T16:07:33Z</time></trkpt><trkpt lat="31.390323151357595" lon="-6.131324967319212"><ele>1596.6</ele><time>2026-05-04T16:07:34Z</time></trkpt><trkpt lat="31.3902481803408" lon="-6.131232694418483"><ele>1596.0</ele><time>2026-05-04T16:07:35Z</time></trkpt><trkpt lat="31.390197232029124" lon="-6.131152211571683"><ele>1596.0</ele><time>2026-05-04T16:07:36Z</time></trkpt><trkpt lat="31.390153722269304" lon="-6.131085188459782"><ele>1596.0</ele><time>2026-05-04T16:07:37Z</time></trkpt><trkpt lat="31.390106383214405" lon="-6.131013435453138"><ele>1596.0</ele><time>2026-05-04T16:07:38Z</time></trkpt><trkpt lat="31.390065694226212" lon="-6.130949263696755"><ele>1596.0</ele><time>2026-05-04T16:07:39Z</time></trkpt><trkpt lat="31.39002347076028" lon="-6.130882445827967"><ele>1596.0</ele><time>2026-05-04T16:07:40Z</time></trkpt><trkpt lat="31.389981347422257" lon="-6.1308151615552475"><ele>1596.0</ele><time>2026-05-04T16:07:41Z</time></trkpt><trkpt lat="31.389941024739855" lon="-6.130750516432167"><ele>1596.0</ele><time>2026-05-04T16:07:42Z</time></trkpt><trkpt lat="31.389878044344325" lon="-6.130660490155783"><ele>1595.8333333333333</ele><time>2026-05-04T16:07:44Z</time></trkpt><trkpt lat="31.389806796016927" lon="-6.1305696286213"><ele>1595.6666666666665</ele><time>2026-05-04T16:07:46Z</time></trkpt><trkpt lat="31.389739560362333" lon="-6.130508439922161"><ele>1595.5</ele><time>2026-05-04T16:07:48Z</time></trkpt><trkpt lat="31.389663979098877" lon="-6.130472768668407"><ele>1595.3333333333333</ele><time>2026-05-04T16:07:50Z</time></trkpt><trkpt lat="31.38957055956299" lon="-6.1304803313854315"><ele>1595.1666666666665</ele><time>2026-05-04T16:07:52Z</time></trkpt><trkpt lat="31.38950593755212" lon="-6.130513958757714"><ele>1595.0</ele><time>2026-05-04T16:07:53Z</time></trkpt><trkpt lat="31.389383647971602" lon="-6.130530536633315"><ele>1592.4</ele><time>2026-05-04T16:07:55Z</time></trkpt><trkpt lat="31.389297357251117" lon="-6.13051714431969"><ele>1589.8</ele><time>2026-05-04T16:07:57Z</time></trkpt><trkpt lat="31.38923215120007" lon="-6.13051108928622"><ele>1587.1999999999998</ele><time>2026-05-04T16:07:58Z</time></trkpt><trkpt lat="31.38916483072049" lon="-6.130431619553624"><ele>1584.6</ele><time>2026-05-04T16:07:59Z</time></trkpt><trkpt lat="31.389154573361235" lon="-6.13032839759548"><ele>1582.0</ele><time>2026-05-04T16:08:00Z</time></trkpt><trkpt lat="31.389202891854463" lon="-6.1301957677991155"><ele>1582.0</ele><time>2026-05-04T16:08:01Z</time></trkpt><trkpt lat="31.38925298114904" lon="-6.130061631992853"><ele>1582.0</ele><time>2026-05-04T16:08:03Z</time></trkpt><trkpt lat="31.389287840647757" lon="-6.129937704834765"><ele>1582.0</ele><time>2026-05-04T16:08:05Z</time></trkpt><trkpt lat="31.38930996138977" lon="-6.129806297406597"><ele>1582.0</ele><time>2026-05-04T16:08:07Z</time></trkpt><trkpt lat="31.3893183512243" lon="-6.129673225171111"><ele>1582.1666666666667</ele><time>2026-05-04T16:08:09Z</time></trkpt><trkpt lat="31.38930803062731" lon="-6.129597995342646"><ele>1582.3333333333335</ele><time>2026-05-04T16:08:11Z</time></trkpt><trkpt lat="31.389247817177456" lon="-6.129535346800969"><ele>1582.5</ele><time>2026-05-04T16:08:15Z</time></trkpt><trkpt lat="31.389165812255523" lon="-6.129485517206514"><ele>1582.6666666666665</ele><time>2026-05-04T16:08:17Z</time></trkpt><trkpt lat="31.38904679425314" lon="-6.129423836298408"><ele>1582.8333333333333</ele><time>2026-05-04T16:08:19Z</time></trkpt><trkpt lat="31.38898240048431" lon="-6.129392050846234"><ele>1583.0</ele><time>2026-05-04T16:08:20Z</time></trkpt><trkpt lat="31.388915100454494" lon="-6.129358884562491"><ele>1583.0</ele><time>2026-05-04T16:08:21Z</time></trkpt><trkpt lat="31.388848930144754" lon="-6.129326168631529"><ele>1583.0</ele><time>2026-05-04T16:08:22Z</time></trkpt><trkpt lat="31.38878036947851" lon="-6.129292270852638"><ele>1583.0</ele><time>2026-05-04T16:08:23Z</time></trkpt><trkpt lat="31.388672769585515" lon="-6.129236874604981"><ele>1583.0</ele><time>2026-05-04T16:08:25Z</time></trkpt><trkpt lat="31.388555343855007" lon="-6.1291735628888375"><ele>1583.0</ele><time>2026-05-04T16:08:27Z</time></trkpt><trkpt lat="31.38849078858273" lon="-6.129138652681542"><ele>1582.9999999999998</ele><time>2026-05-04T16:08:28Z</time></trkpt><trkpt lat="31.388424804237385" lon="-6.129102969659375"><ele>1583.0</ele><time>2026-05-04T16:08:29Z</time></trkpt><trkpt lat="31.388363865978267" lon="-6.129070015467434"><ele>1583.0</ele><time>2026-05-04T16:08:30Z</time></trkpt><trkpt lat="31.388267698899398" lon="-6.129037334447185"><ele>1583.0</ele><time>2026-05-04T16:08:32Z</time></trkpt><trkpt lat="31.388186475436626" lon="-6.129094771954561"><ele>1582.9999999999998</ele><time>2026-05-04T16:08:34Z</time></trkpt><trkpt lat="31.38816663876107" lon="-6.129168225915705"><ele>1583.0</ele><time>2026-05-04T16:08:35Z</time></trkpt><trkpt lat="31.388130714823358" lon="-6.129314716928579"><ele>1583.2</ele><time>2026-05-04T16:08:37Z</time></trkpt><trkpt lat="31.388125384978814" lon="-6.129397165980229"><ele>1583.4</ele><time>2026-05-04T16:08:38Z</time></trkpt><trkpt lat="31.388118709159" lon="-6.129520813835203"><ele>1583.6000000000001</ele><time>2026-05-04T16:08:40Z</time></trkpt><trkpt lat="31.388114830192777" lon="-6.129630507951081"><ele>1583.8000000000002</ele><time>2026-05-04T16:08:42Z</time></trkpt><trkpt lat="31.3880872015403" lon="-6.129704145711469"><ele>1584.0</ele><time>2026-05-04T16:08:43Z</time></trkpt><trkpt lat="31.387990651475736" lon="-6.129824881785834"><ele>1583.5</ele><time>2026-05-04T16:08:45Z</time></trkpt><trkpt lat="31.38791035622838" lon="-6.129906340032903"><ele>1583.0</ele><time>2026-05-04T16:08:46Z</time></trkpt><trkpt lat="31.38783306759311" lon="-6.130016335430972"><ele>1582.5</ele><time>2026-05-04T16:08:47Z</time></trkpt><trkpt lat="31.387739582931964" lon="-6.130119258253966"><ele>1582.0</ele><time>2026-05-04T16:08:48Z</time></trkpt><trkpt lat="31.387636798394404" lon="-6.130224151296875"><ele>1582.0</ele><time>2026-05-04T16:08:49Z</time></trkpt><trkpt lat="31.387536449457595" lon="-6.130316973307083"><ele>1582.0</ele><time>2026-05-04T16:08:50Z</time></trkpt><trkpt lat="31.387441287211107" lon="-6.130391202039636"><ele>1582.0</ele><time>2026-05-04T16:08:51Z</time></trkpt><trkpt lat="31.387344838358402" lon="-6.130443270644493"><ele>1582.0</ele><time>2026-05-04T16:08:52Z</time></trkpt><trkpt lat="31.387265046905416" lon="-6.130477596114968"><ele>1582.0</ele><time>2026-05-04T16:08:53Z</time></trkpt><trkpt lat="31.387200897203996" lon="-6.1304880011779925"><ele>1583.1999999999998</ele><time>2026-05-04T16:08:54Z</time></trkpt><trkpt lat="31.387081192903313" lon="-6.130500633133309"><ele>1584.4</ele><time>2026-05-04T16:08:56Z</time></trkpt><trkpt lat="31.38700425083155" lon="-6.130484190683997"><ele>1585.6</ele><time>2026-05-04T16:08:57Z</time></trkpt><trkpt lat="31.386918402482518" lon="-6.130445222060762"><ele>1586.8000000000002</ele><time>2026-05-04T16:08:58Z</time></trkpt><trkpt lat="31.386826458385492" lon="-6.13039162884929"><ele>1588.0</ele><time>2026-05-04T16:08:59Z</time></trkpt><trkpt lat="31.38673306405392" lon="-6.130326793325602"><ele>1588.0</ele><time>2026-05-04T16:09:00Z</time></trkpt><trkpt lat="31.386633630657357" lon="-6.130249143634151"><ele>1588.0</ele><time>2026-05-04T16:09:01Z</time></trkpt><trkpt lat="31.386533885502725" lon="-6.1301704715498255"><ele>1588.0</ele><time>2026-05-04T16:09:02Z</time></trkpt><trkpt lat="31.386445893196186" lon="-6.130103872127237"><ele>1588.0</ele><time>2026-05-04T16:09:03Z</time></trkpt><trkpt lat="31.386368675894257" lon="-6.13004793733486"><ele>1588.0</ele><time>2026-05-04T16:09:04Z</time></trkpt><trkpt lat="31.38630342754546" lon="-6.1300006726297465"><ele>1589.6000000000001</ele><time>2026-05-04T16:09:05Z</time></trkpt><trkpt lat="31.38624422638951" lon="-6.129957757972383"><ele>1591.2</ele><time>2026-05-04T16:09:06Z</time></trkpt><trkpt lat="31.38615635179996" lon="-6.129907017943289"><ele>1592.8</ele><time>2026-05-04T16:09:09Z</time></trkpt><trkpt lat="31.386097606751548" lon="-6.130059773206307"><ele>1594.4</ele><time>2026-05-04T16:09:11Z</time></trkpt><trkpt lat="31.386045804842247" lon="-6.130174635677097"><ele>1596.0</ele><time>2026-05-04T16:09:12Z</time></trkpt><trkpt lat="31.385992306841054" lon="-6.1302799655683184"><ele>1596.0</ele><time>2026-05-04T16:09:13Z</time></trkpt><trkpt lat="31.385931913134424" lon="-6.130367959926121"><ele>1596.0</ele><time>2026-05-04T16:09:14Z</time></trkpt><trkpt lat="31.3858501127422" lon="-6.130445608128787"><ele>1596.0</ele><time>2026-05-04T16:09:15Z</time></trkpt><trkpt lat="31.385750632409938" lon="-6.13049509408904"><ele>1596.0</ele><time>2026-05-04T16:09:16Z</time></trkpt><trkpt lat="31.385640239820592" lon="-6.130515304073508"><ele>1596.0</ele><time>2026-05-04T16:09:17Z</time></trkpt><trkpt lat="31.385538324266708" lon="-6.130536867431498"><ele>1595.8</ele><time>2026-05-04T16:09:18Z</time></trkpt><trkpt lat="31.38545659645223" lon="-6.1305797251030825"><ele>1595.6</ele><time>2026-05-04T16:09:19Z</time></trkpt><trkpt lat="31.385410832033937" lon="-6.130658938064828"><ele>1595.4</ele><time>2026-05-04T16:09:20Z</time></trkpt><trkpt lat="31.385376494827813" lon="-6.1307503635427665"><ele>1595.2</ele><time>2026-05-04T16:09:21Z</time></trkpt><trkpt lat="31.385335580124213" lon="-6.130841085576414"><ele>1595.0</ele><time>2026-05-04T16:09:22Z</time></trkpt><trkpt lat="31.385263207486936" lon="-6.130968663909078"><ele>1595.0</ele><time>2026-05-04T16:09:23Z</time></trkpt><trkpt lat="31.385160984544427" lon="-6.131084827011242"><ele>1595.0</ele><time>2026-05-04T16:09:24Z</time></trkpt><trkpt lat="31.385059121745424" lon="-6.131199660487299"><ele>1595.0</ele><time>2026-05-04T16:09:25Z</time></trkpt><trkpt lat="31.384954068885794" lon="-6.131327255261757"><ele>1595.0</ele><time>2026-05-04T16:09:26Z</time></trkpt><trkpt lat="31.384869165636754" lon="-6.1314363964409475"><ele>1595.0</ele><time>2026-05-04T16:09:27Z</time></trkpt><trkpt lat="31.384791124211922" lon="-6.131535969145615"><ele>1595.0</ele><time>2026-05-04T16:09:28Z</time></trkpt><trkpt lat="31.384731265102968" lon="-6.131610111103611"><ele>1595.0</ele><time>2026-05-04T16:09:29Z</time></trkpt><trkpt lat="31.384642529288207" lon="-6.131670248151966"><ele>1595.0</ele><time>2026-05-04T16:09:30Z</time></trkpt><trkpt lat="31.38458971603778" lon="-6.13178001975762"><ele>1595.0</ele><time>2026-05-04T16:09:31Z</time></trkpt><trkpt lat="31.384513230861394" lon="-6.131896384514649"><ele>1596.0</ele><time>2026-05-04T16:09:32Z</time></trkpt><trkpt lat="31.384413309230332" lon="-6.132016719779002"><ele>1597.0</ele><time>2026-05-04T16:09:33Z</time></trkpt><trkpt lat="31.384308668170572" lon="-6.132137482186191"><ele>1598.0</ele><time>2026-05-04T16:09:34Z</time></trkpt><trkpt lat="31.384189445374414" lon="-6.132238405374741"><ele>1599.0</ele><time>2026-05-04T16:09:35Z</time></trkpt><trkpt lat="31.3840813891428" lon="-6.132374828007065"><ele>1595.6666666666665</ele><time>2026-05-04T16:09:36Z</time></trkpt><trkpt lat="31.38398621355514" lon="-6.132526228612432"><ele>1592.3333333333333</ele><time>2026-05-04T16:09:37Z</time></trkpt><trkpt lat="31.383878450280086" lon="-6.132694305601506"><ele>1589.0</ele><time>2026-05-04T16:09:38Z</time></trkpt><trkpt lat="31.38377704404216" lon="-6.132865550319173"><ele>1591.0</ele><time>2026-05-04T16:09:39Z</time></trkpt><trkpt lat="31.38369238910586" lon="-6.133048557666658"><ele>1593.0</ele><time>2026-05-04T16:09:40Z</time></trkpt><trkpt lat="31.383587535851348" lon="-6.133218534265059"><ele>1595.0</ele><time>2026-05-04T16:09:41Z</time></trkpt><trkpt lat="31.38349668100791" lon="-6.133392580550275"><ele>1595.0</ele><time>2026-05-04T16:09:42Z</time></trkpt><trkpt lat="31.38342719631337" lon="-6.133575871662382"><ele>1595.0</ele><time>2026-05-04T16:09:43Z</time></trkpt><trkpt lat="31.38336473718789" lon="-6.133757707592146"><ele>1595.0</ele><time>2026-05-04T16:09:44Z</time></trkpt><trkpt lat="31.383304626223968" lon="-6.133933909455001"><ele>1593.6666666666665</ele><time>2026-05-04T16:09:45Z</time></trkpt><trkpt lat="31.38324646174475" lon="-6.134105704668212"><ele>1592.3333333333335</ele><time>2026-05-04T16:09:46Z</time></trkpt><trkpt lat="31.383184785063897" lon="-6.134290078530213"><ele>1591.0</ele><time>2026-05-04T16:09:47Z</time></trkpt><trkpt lat="31.383107322842452" lon="-6.134470505720169"><ele>1591.0</ele><time>2026-05-04T16:09:48Z</time></trkpt><trkpt lat="31.383044328807852" lon="-6.134671986989725"><ele>1591.0</ele><time>2026-05-04T16:09:49Z</time></trkpt><trkpt lat="31.382978140533478" lon="-6.134861522251129"><ele>1591.0</ele><time>2026-05-04T16:09:50Z</time></trkpt><trkpt lat="31.38290960461414" lon="-6.1350372447179025"><ele>1598.0</ele><time>2026-05-04T16:09:51Z</time></trkpt><trkpt lat="31.38285663247304" lon="-6.135206230167259"><ele>1605.0</ele><time>2026-05-04T16:09:52Z</time></trkpt><trkpt lat="31.382790610013934" lon="-6.135350017632208"><ele>1612.0</ele><time>2026-05-04T16:09:53Z</time></trkpt><trkpt lat="31.38274637104113" lon="-6.135489866361252"><ele>1619.0</ele><time>2026-05-04T16:09:54Z</time></trkpt><trkpt lat="31.382679103544827" lon="-6.135615047747892"><ele>1614.5</ele><time>2026-05-04T16:09:55Z</time></trkpt><trkpt lat="31.382616674026796" lon="-6.1357221923985685"><ele>1610.0</ele><time>2026-05-04T16:09:56Z</time></trkpt><trkpt lat="31.38257263774536" lon="-6.135827958981741"><ele>1605.5</ele><time>2026-05-04T16:09:57Z</time></trkpt><trkpt lat="31.38258512166626" lon="-6.135972781501434"><ele>1601.0</ele><time>2026-05-04T16:09:58Z</time></trkpt><trkpt lat="31.38257937797114" lon="-6.13611525468425"><ele>1601.0</ele><time>2026-05-04T16:09:59Z</time></trkpt><trkpt lat="31.382552912805046" lon="-6.136243442066885"><ele>1601.0</ele><time>2026-05-04T16:10:00Z</time></trkpt><trkpt lat="31.382504658347752" lon="-6.136370307905606"><ele>1601.0</ele><time>2026-05-04T16:10:01Z</time></trkpt><trkpt lat="31.38243721018893" lon="-6.136482887845947"><ele>1601.0</ele><time>2026-05-04T16:10:02Z</time></trkpt><trkpt lat="31.38238821239617" lon="-6.13657780781407"><ele>1601.0</ele><time>2026-05-04T16:10:03Z</time></trkpt><trkpt lat="31.382372974050046" lon="-6.1366854383120115"><ele>1599.1999999999998</ele><time>2026-05-04T16:10:04Z</time></trkpt><trkpt lat="31.38241706508856" lon="-6.136800586966199"><ele>1597.3999999999999</ele><time>2026-05-04T16:10:05Z</time></trkpt><trkpt lat="31.38245828685401" lon="-6.13690847862531"><ele>1595.6</ele><time>2026-05-04T16:10:06Z</time></trkpt><trkpt lat="31.382459443199" lon="-6.137024251747191"><ele>1593.8</ele><time>2026-05-04T16:10:07Z</time></trkpt><trkpt lat="31.382434243961495" lon="-6.137147488779818"><ele>1592.0</ele><time>2026-05-04T16:10:08Z</time></trkpt><trkpt lat="31.38240863775438" lon="-6.137284321732858"><ele>1590.5</ele><time>2026-05-04T16:10:09Z</time></trkpt><trkpt lat="31.382391854275433" lon="-6.137437189387845"><ele>1589.0</ele><time>2026-05-04T16:10:10Z</time></trkpt><trkpt lat="31.382374497213423" lon="-6.137598396133317"><ele>1587.5</ele><time>2026-05-04T16:10:11Z</time></trkpt><trkpt lat="31.382350828614218" lon="-6.137765807309064"><ele>1586.0</ele><time>2026-05-04T16:10:12Z</time></trkpt><trkpt lat="31.382331396259584" lon="-6.13793465533825"><ele>1586.0</ele><time>2026-05-04T16:10:13Z</time></trkpt><trkpt lat="31.382312883623687" lon="-6.138095080779441"><ele>1586.0</ele><time>2026-05-04T16:10:14Z</time></trkpt><trkpt lat="31.382289822605482" lon="-6.138238841364786"><ele>1586.0</ele><time>2026-05-04T16:10:15Z</time></trkpt><trkpt lat="31.382276539901905" lon="-6.138383861610161"><ele>1586.0</ele><time>2026-05-04T16:10:16Z</time></trkpt><trkpt lat="31.38230827119519" lon="-6.1385369155711"><ele>1585.3333333333333</ele><time>2026-05-04T16:10:17Z</time></trkpt><trkpt lat="31.382377726753987" lon="-6.138688873950832"><ele>1584.6666666666665</ele><time>2026-05-04T16:10:18Z</time></trkpt><trkpt lat="31.382440333560062" lon="-6.138847880458151"><ele>1584.0</ele><time>2026-05-04T16:10:19Z</time></trkpt><trkpt lat="31.382487095909575" lon="-6.139023764667049"><ele>1587.3333333333335</ele><time>2026-05-04T16:10:20Z</time></trkpt><trkpt lat="31.382524126732815" lon="-6.139211010922018"><ele>1590.6666666666667</ele><time>2026-05-04T16:10:21Z</time></trkpt><trkpt lat="31.382558311218695" lon="-6.139396400285143"><ele>1594.0</ele><time>2026-05-04T16:10:22Z</time></trkpt><trkpt lat="31.38258638150266" lon="-6.139568288990203"><ele>1594.0</ele><time>2026-05-04T16:10:23Z</time></trkpt><trkpt lat="31.382610598328082" lon="-6.139729570420135"><ele>1594.0</ele><time>2026-05-04T16:10:24Z</time></trkpt><trkpt lat="31.38263210229977" lon="-6.13988748438048"><ele>1594.0</ele><time>2026-05-04T16:10:25Z</time></trkpt><trkpt lat="31.38265598439685" lon="-6.140036981482328"><ele>1594.0</ele><time>2026-05-04T16:10:26Z</time></trkpt><trkpt lat="31.38267370813529" lon="-6.140162283138543"><ele>1596.0000000000002</ele><time>2026-05-04T16:10:27Z</time></trkpt><trkpt lat="31.38268805744291" lon="-6.1402669058411705"><ele>1598.0</ele><time>2026-05-04T16:10:28Z</time></trkpt><trkpt lat="31.38270058416051" lon="-6.140364483985817"><ele>1600.0</ele><time>2026-05-04T16:10:29Z</time></trkpt><trkpt lat="31.382705620726266" lon="-6.140454635441819"><ele>1602.0</ele><time>2026-05-04T16:10:30Z</time></trkpt><trkpt lat="31.382694363941393" lon="-6.140539232218287"><ele>1604.0000000000002</ele><time>2026-05-04T16:10:31Z</time></trkpt><trkpt lat="31.382667727155912" lon="-6.140619298318409"><ele>1606.0</ele><time>2026-05-04T16:10:32Z</time></trkpt><trkpt lat="31.382629849555933" lon="-6.140713183010873"><ele>1604.0</ele><time>2026-05-04T16:10:33Z</time></trkpt><trkpt lat="31.38258559728836" lon="-6.140827122310019"><ele>1602.0</ele><time>2026-05-04T16:10:34Z</time></trkpt><trkpt lat="31.382521224078054" lon="-6.140963318379024"><ele>1600.0</ele><time>2026-05-04T16:10:35Z</time></trkpt><trkpt lat="31.38244273982581" lon="-6.141100197993239"><ele>1598.0</ele><time>2026-05-04T16:10:36Z</time></trkpt><trkpt lat="31.382362247112976" lon="-6.141225252411201"><ele>1598.0</ele><time>2026-05-04T16:10:37Z</time></trkpt><trkpt lat="31.382288404358818" lon="-6.141336897823924"><ele>1598.0</ele><time>2026-05-04T16:10:38Z</time></trkpt><trkpt lat="31.3822158233497" lon="-6.141437282321807"><ele>1598.0</ele><time>2026-05-04T16:10:39Z</time></trkpt><trkpt lat="31.382140364839273" lon="-6.141532777110944"><ele>1598.0</ele><time>2026-05-04T16:10:40Z</time></trkpt><trkpt lat="31.382080789617447" lon="-6.141624182719528"><ele>1598.0</ele><time>2026-05-04T16:10:41Z</time></trkpt><trkpt lat="31.382015771335475" lon="-6.141703008329689"><ele>1599.25</ele><time>2026-05-04T16:10:42Z</time></trkpt><trkpt lat="31.38194869227294" lon="-6.141782509441095"><ele>1600.5</ele><time>2026-05-04T16:10:43Z</time></trkpt><trkpt lat="31.381873753197333" lon="-6.141871326128785"><ele>1601.75</ele><time>2026-05-04T16:10:44Z</time></trkpt><trkpt lat="31.381791299597904" lon="-6.141968523611091"><ele>1603.0</ele><time>2026-05-04T16:10:45Z</time></trkpt><trkpt lat="31.38169865138888" lon="-6.142076283325939"><ele>1603.0</ele><time>2026-05-04T16:10:46Z</time></trkpt><trkpt lat="31.381596218788356" lon="-6.142185264996084"><ele>1603.0</ele><time>2026-05-04T16:10:47Z</time></trkpt><trkpt lat="31.381490328463105" lon="-6.1422974017427645"><ele>1603.0</ele><time>2026-05-04T16:10:48Z</time></trkpt><trkpt lat="31.381389953389213" lon="-6.142398431092927"><ele>1603.0</ele><time>2026-05-04T16:10:49Z</time></trkpt><trkpt lat="31.38129460212011" lon="-6.142495196893223"><ele>1603.2</ele><time>2026-05-04T16:10:50Z</time></trkpt><trkpt lat="31.38121757065639" lon="-6.142586860980343"><ele>1603.4</ele><time>2026-05-04T16:10:51Z</time></trkpt><trkpt lat="31.381167669472006" lon="-6.142682156861513"><ele>1603.6000000000001</ele><time>2026-05-04T16:10:52Z</time></trkpt><trkpt lat="31.38111873990883" lon="-6.142785873484327"><ele>1603.8000000000002</ele><time>2026-05-04T16:10:53Z</time></trkpt><trkpt lat="31.38105114488702" lon="-6.142891735585949"><ele>1604.0</ele><time>2026-05-04T16:10:54Z</time></trkpt><trkpt lat="31.380961706255057" lon="-6.1430050274259935"><ele>1604.0</ele><time>2026-05-04T16:10:55Z</time></trkpt><trkpt lat="31.380856313629913" lon="-6.14311994308726"><ele>1604.0</ele><time>2026-05-04T16:10:56Z</time></trkpt><trkpt lat="31.38075251033825" lon="-6.143243644798668"><ele>1604.0</ele><time>2026-05-04T16:10:57Z</time></trkpt><trkpt lat="31.38065624617535" lon="-6.143369794400472"><ele>1604.0</ele><time>2026-05-04T16:10:58Z</time></trkpt><trkpt lat="31.380570606741472" lon="-6.143492463023752"><ele>1605.8000000000002</ele><time>2026-05-04T16:10:59Z</time></trkpt><trkpt lat="31.38051009204729" lon="-6.143613093345819"><ele>1607.6000000000001</ele><time>2026-05-04T16:11:00Z</time></trkpt><trkpt lat="31.380451305823012" lon="-6.1437072253450165"><ele>1609.4</ele><time>2026-05-04T16:11:01Z</time></trkpt><trkpt lat="31.380415722107113" lon="-6.14379164208305"><ele>1611.2</ele><time>2026-05-04T16:11:02Z</time></trkpt><trkpt lat="31.380377532908287" lon="-6.14386874041937"><ele>1613.0</ele><time>2026-05-04T16:11:03Z</time></trkpt><trkpt lat="31.38032553663089" lon="-6.1439449784725255"><ele>1613.0</ele><time>2026-05-04T16:11:04Z</time></trkpt><trkpt lat="31.380272040029297" lon="-6.1440373178641146"><ele>1613.0</ele><time>2026-05-04T16:11:05Z</time></trkpt><trkpt lat="31.38019428928649" lon="-6.144127898524677"><ele>1613.0</ele><time>2026-05-04T16:11:06Z</time></trkpt><trkpt lat="31.380105873383418" lon="-6.144212798786888"><ele>1613.0</ele><time>2026-05-04T16:11:07Z</time></trkpt><trkpt lat="31.380018698061487" lon="-6.144291922917788"><ele>1613.0</ele><time>2026-05-04T16:11:08Z</time></trkpt><trkpt lat="31.3799254781449" lon="-6.144381455764014"><ele>1611.75</ele><time>2026-05-04T16:11:09Z</time></trkpt><trkpt lat="31.379840022521254" lon="-6.144483473879322"><ele>1610.5</ele><time>2026-05-04T16:11:10Z</time></trkpt><trkpt lat="31.379770196211364" lon="-6.144611008153415"><ele>1609.25</ele><time>2026-05-04T16:11:11Z</time></trkpt><trkpt lat="31.379680835415027" lon="-6.144745455672744"><ele>1608.0</ele><time>2026-05-04T16:11:12Z</time></trkpt><trkpt lat="31.379603897107568" lon="-6.1448842220969375"><ele>1608.0</ele><time>2026-05-04T16:11:13Z</time></trkpt><trkpt lat="31.379534492625286" lon="-6.145009933313085"><ele>1608.0</ele><time>2026-05-04T16:11:14Z</time></trkpt><trkpt lat="31.3794866388642" lon="-6.1451376942726865"><ele>1608.0</ele><time>2026-05-04T16:11:15Z</time></trkpt><trkpt lat="31.37943967632325" lon="-6.145260792980939"><ele>1608.0</ele><time>2026-05-04T16:11:16Z</time></trkpt><trkpt lat="31.37939649555716" lon="-6.145376099233589"><ele>1608.0</ele><time>2026-05-04T16:11:17Z</time></trkpt><trkpt lat="31.37933545096063" lon="-6.145485656710441"><ele>1608.0</ele><time>2026-05-04T16:11:18Z</time></trkpt><trkpt lat="31.37927283364302" lon="-6.1455959992999185"><ele>1608.0</ele><time>2026-05-04T16:11:19Z</time></trkpt><trkpt lat="31.379237338640547" lon="-6.1457337254418505"><ele>1608.0</ele><time>2026-05-04T16:11:20Z</time></trkpt><trkpt lat="31.37919541310051" lon="-6.145863607942075"><ele>1600.75</ele><time>2026-05-04T16:11:21Z</time></trkpt><trkpt lat="31.379154654631492" lon="-6.145993262970861"><ele>1593.5</ele><time>2026-05-04T16:11:22Z</time></trkpt><trkpt lat="31.37912626244307" lon="-6.146117192168485"><ele>1586.25</ele><time>2026-05-04T16:11:23Z</time></trkpt><trkpt lat="31.37911782824383" lon="-6.146245828760954"><ele>1579.0</ele><time>2026-05-04T16:11:24Z</time></trkpt><trkpt lat="31.379153745694758" lon="-6.1463867984982725"><ele>1579.0</ele><time>2026-05-04T16:11:25Z</time></trkpt><trkpt lat="31.379208120248972" lon="-6.146534216316278"><ele>1579.0</ele><time>2026-05-04T16:11:26Z</time></trkpt><trkpt lat="31.379247884818902" lon="-6.146695345683595"><ele>1579.0</ele><time>2026-05-04T16:11:27Z</time></trkpt><trkpt lat="31.37927401266215" lon="-6.146862310535741"><ele>1579.0</ele><time>2026-05-04T16:11:28Z</time></trkpt><trkpt lat="31.379292990181398" lon="-6.1470318115481275"><ele>1579.5</ele><time>2026-05-04T16:11:29Z</time></trkpt><trkpt lat="31.379296845247385" lon="-6.14719839047772"><ele>1580.0</ele><time>2026-05-04T16:11:30Z</time></trkpt><trkpt lat="31.379285843805054" lon="-6.147355631992597"><ele>1580.5</ele><time>2026-05-04T16:11:31Z</time></trkpt><trkpt lat="31.379279324494306" lon="-6.147508129354292"><ele>1581.0</ele><time>2026-05-04T16:11:32Z</time></trkpt><trkpt lat="31.37927782809331" lon="-6.147656080245574"><ele>1582.25</ele><time>2026-05-04T16:11:33Z</time></trkpt><trkpt lat="31.379282908062063" lon="-6.14779900647845"><ele>1583.5</ele><time>2026-05-04T16:11:34Z</time></trkpt><trkpt lat="31.379292702075468" lon="-6.147939774998771"><ele>1584.75</ele><time>2026-05-04T16:11:35Z</time></trkpt><trkpt lat="31.37930420018299" lon="-6.148083236206076"><ele>1586.0</ele><time>2026-05-04T16:11:36Z</time></trkpt><trkpt lat="31.37931760963064" lon="-6.1482290057651285"><ele>1588.0</ele><time>2026-05-04T16:11:37Z</time></trkpt><trkpt lat="31.379337238095403" lon="-6.1483729241263"><ele>1590.0</ele><time>2026-05-04T16:11:38Z</time></trkpt><trkpt lat="31.379364859707884" lon="-6.148507904961231"><ele>1592.0</ele><time>2026-05-04T16:11:39Z</time></trkpt><trkpt lat="31.379401257063396" lon="-6.148638909704665"><ele>1594.0</ele><time>2026-05-04T16:11:40Z</time></trkpt><trkpt lat="31.379439029088473" lon="-6.1487745217022765"><ele>1594.0</ele><time>2026-05-04T16:11:41Z</time></trkpt><trkpt lat="31.379471557905944" lon="-6.148918614958462"><ele>1594.0</ele><time>2026-05-04T16:11:42Z</time></trkpt><trkpt lat="31.379489175122654" lon="-6.1490731307129645"><ele>1594.0</ele><time>2026-05-04T16:11:43Z</time></trkpt><trkpt lat="31.379486097269126" lon="-6.1492450392792115"><ele>1594.0</ele><time>2026-05-04T16:11:44Z</time></trkpt><trkpt lat="31.379469966326454" lon="-6.149422167847585"><ele>1593.0</ele><time>2026-05-04T16:11:45Z</time></trkpt><trkpt lat="31.37944087388516" lon="-6.149578914188214"><ele>1592.0</ele><time>2026-05-04T16:11:46Z</time></trkpt><trkpt lat="31.379409967243017" lon="-6.149718047104158"><ele>1591.0</ele><time>2026-05-04T16:11:47Z</time></trkpt><trkpt lat="31.379370405178154" lon="-6.1498568216308795"><ele>1590.0</ele><time>2026-05-04T16:11:48Z</time></trkpt><trkpt lat="31.379315932783296" lon="-6.149985379068496"><ele>1589.0</ele><time>2026-05-04T16:11:49Z</time></trkpt><trkpt lat="31.37925755956914" lon="-6.150106371269018"><ele>1588.0</ele><time>2026-05-04T16:11:50Z</time></trkpt><trkpt lat="31.379198461371878" lon="-6.150223839319583"><ele>1587.0</ele><time>2026-05-04T16:11:51Z</time></trkpt><trkpt lat="31.379139170676726" lon="-6.1503432704351715"><ele>1586.0</ele><time>2026-05-04T16:11:52Z</time></trkpt><trkpt lat="31.379075702899947" lon="-6.150467312354689"><ele>1586.0</ele><time>2026-05-04T16:11:53Z</time></trkpt><trkpt lat="31.37900732560915" lon="-6.150593483510113"><ele>1586.0</ele><time>2026-05-04T16:11:54Z</time></trkpt><trkpt lat="31.378935904670588" lon="-6.150729056080136"><ele>1586.0</ele><time>2026-05-04T16:11:55Z</time></trkpt><trkpt lat="31.378861562790703" lon="-6.150874827118143"><ele>1586.0</ele><time>2026-05-04T16:11:56Z</time></trkpt><trkpt lat="31.378786162617146" lon="-6.151031617904357"><ele>1586.25</ele><time>2026-05-04T16:11:57Z</time></trkpt><trkpt lat="31.378715596103728" lon="-6.151188296569207"><ele>1586.5</ele><time>2026-05-04T16:11:58Z</time></trkpt><trkpt lat="31.378653366280915" lon="-6.151335318731597"><ele>1586.75</ele><time>2026-05-04T16:11:59Z</time></trkpt><trkpt lat="31.37859617210072" lon="-6.151479678519847"><ele>1587.0</ele><time>2026-05-04T16:12:00Z</time></trkpt><trkpt lat="31.378555578279418" lon="-6.151628391395787"><ele>1586.0</ele><time>2026-05-04T16:12:01Z</time></trkpt><trkpt lat="31.378523229117" lon="-6.151777384676963"><ele>1585.0</ele><time>2026-05-04T16:12:02Z</time></trkpt><trkpt lat="31.37847868965273" lon="-6.151909594013381"><ele>1584.0</ele><time>2026-05-04T16:12:03Z</time></trkpt><trkpt lat="31.37842460560351" lon="-6.1520316038314835"><ele>1583.0</ele><time>2026-05-04T16:12:04Z</time></trkpt><trkpt lat="31.378370512794653" lon="-6.152142834535519"><ele>1582.9999999999998</ele><time>2026-05-04T16:12:05Z</time></trkpt><trkpt lat="31.378319604178042" lon="-6.152249106384908"><ele>1583.0</ele><time>2026-05-04T16:12:06Z</time></trkpt><trkpt lat="31.378273908190327" lon="-6.152346021580143"><ele>1583.0</ele><time>2026-05-04T16:12:07Z</time></trkpt><trkpt lat="31.378231259599115" lon="-6.152435310108759"><ele>1583.0</ele><time>2026-05-04T16:12:08Z</time></trkpt><trkpt lat="31.378187973786268" lon="-6.152516854143498"><ele>1582.9999999999998</ele><time>2026-05-04T16:12:09Z</time></trkpt><trkpt lat="31.37814128298361" lon="-6.152592219870454"><ele>1583.0</ele><time>2026-05-04T16:12:10Z</time></trkpt><trkpt lat="31.37808886247488" lon="-6.152662963268835"><ele>1581.0</ele><time>2026-05-04T16:12:11Z</time></trkpt><trkpt lat="31.378037094286356" lon="-6.152725373657801"><ele>1579.0</ele><time>2026-05-04T16:12:12Z</time></trkpt><trkpt lat="31.377964750142706" lon="-6.152831020911099"><ele>1577.0</ele><time>2026-05-04T16:12:14Z</time></trkpt><trkpt lat="31.377891638717127" lon="-6.152888535915271"><ele>1575.0</ele><time>2026-05-04T16:12:16Z</time></trkpt><trkpt lat="31.377843787617284" lon="-6.152942239037408"><ele>1573.0</ele><time>2026-05-04T16:12:19Z</time></trkpt><trkpt lat="31.377743875702492" lon="-6.153067170364113"><ele>1573.6000000000001</ele><time>2026-05-04T16:12:53Z</time></trkpt><trkpt lat="31.377631794012537" lon="-6.153116676987637"><ele>1574.2</ele><time>2026-05-04T16:12:54Z</time></trkpt><trkpt lat="31.377500681961482" lon="-6.153135152833576"><ele>1574.8</ele><time>2026-05-04T16:12:55Z</time></trkpt><trkpt lat="31.37743064060617" lon="-6.153153577061017"><ele>1575.4</ele><time>2026-05-04T16:12:56Z</time></trkpt><trkpt lat="31.377364901279904" lon="-6.153185576169311"><ele>1576.0</ele><time>2026-05-04T16:12:57Z</time></trkpt><trkpt lat="31.377309074959257" lon="-6.153252687813338"><ele>1576.0</ele><time>2026-05-04T16:12:58Z</time></trkpt><trkpt lat="31.377246473246977" lon="-6.1533726041841375"><ele>1576.0</ele><time>2026-05-04T16:12:59Z</time></trkpt><trkpt lat="31.37717942480469" lon="-6.15352249274337"><ele>1576.0</ele><time>2026-05-04T16:12:59.999Z</time></trkpt><trkpt lat="31.377110798586312" lon="-6.153682127148976"><ele>1576.0</ele><time>2026-05-04T16:13:00.999Z</time></trkpt><trkpt lat="31.377028505597323" lon="-6.153850208165605"><ele>1578.0</ele><time>2026-05-04T16:13:01.999Z</time></trkpt><trkpt lat="31.37694512819287" lon="-6.153997464637437"><ele>1580.0</ele><time>2026-05-04T16:13:02.999Z</time></trkpt><trkpt lat="31.37686159831063" lon="-6.154139075449089"><ele>1582.0</ele><time>2026-05-04T16:13:03.999Z</time></trkpt><trkpt lat="31.37677115923987" lon="-6.154267187998646"><ele>1584.0</ele><time>2026-05-04T16:13:04.999Z</time></trkpt><trkpt lat="31.376673431396444" lon="-6.154377127633414"><ele>1584.0</ele><time>2026-05-04T16:13:05.999Z</time></trkpt><trkpt lat="31.376569659895203" lon="-6.154470407042791"><ele>1584.0</ele><time>2026-05-04T16:13:06.999Z</time></trkpt><trkpt lat="31.37646345498046" lon="-6.154553935229808"><ele>1584.0</ele><time>2026-05-04T16:13:07.999Z</time></trkpt><trkpt lat="31.376339386394033" lon="-6.1546287742532115"><ele>1584.0</ele><time>2026-05-04T16:13:08.999Z</time></trkpt><trkpt lat="31.37622117968925" lon="-6.154693383430939"><ele>1581.25</ele><time>2026-05-04T16:13:09.999Z</time></trkpt><trkpt lat="31.376115720305016" lon="-6.1547664984787644"><ele>1578.5</ele><time>2026-05-04T16:13:10.999Z</time></trkpt><trkpt lat="31.376017005319866" lon="-6.154870414675879"><ele>1575.75</ele><time>2026-05-04T16:13:11.999Z</time></trkpt><trkpt lat="31.375925955158795" lon="-6.15502946157706"><ele>1573.0</ele><time>2026-05-04T16:13:12.999Z</time></trkpt><trkpt lat="31.375843141658027" lon="-6.155203395132492"><ele>1573.0</ele><time>2026-05-04T16:13:13.999Z</time></trkpt><trkpt lat="31.375751610889022" lon="-6.1553633864717225"><ele>1573.0</ele><time>2026-05-04T16:13:14.999Z</time></trkpt><trkpt lat="31.375643195717792" lon="-6.1555324668396185"><ele>1573.0</ele><time>2026-05-04T16:13:15.999Z</time></trkpt><trkpt lat="31.375550643954426" lon="-6.155703975335798"><ele>1577.0</ele><time>2026-05-04T16:13:16.999Z</time></trkpt><trkpt lat="31.375456718987355" lon="-6.155865935386658"><ele>1581.0</ele><time>2026-05-04T16:13:17.999Z</time></trkpt><trkpt lat="31.37533474541086" lon="-6.155977343432006"><ele>1585.0</ele><time>2026-05-04T16:13:18.999Z</time></trkpt><trkpt lat="31.375256058160463" lon="-6.1561289036846345"><ele>1585.0</ele><time>2026-05-04T16:13:19.999Z</time></trkpt><trkpt lat="31.37517117223767" lon="-6.156272228506936"><ele>1585.0</ele><time>2026-05-04T16:13:20.999Z</time></trkpt><trkpt lat="31.37509584532067" lon="-6.156406664144433"><ele>1585.0</ele><time>2026-05-04T16:13:21.999Z</time></trkpt><trkpt lat="31.375022106164707" lon="-6.1565449823757605"><ele>1585.0</ele><time>2026-05-04T16:13:22.999Z</time></trkpt><trkpt lat="31.374955515574072" lon="-6.156673603096144"><ele>1579.5</ele><time>2026-05-04T16:13:23.999Z</time></trkpt><trkpt lat="31.37489313953459" lon="-6.156799178981388"><ele>1574.0</ele><time>2026-05-04T16:13:24.999Z</time></trkpt><trkpt lat="31.374824283691826" lon="-6.156912699977997"><ele>1568.5</ele><time>2026-05-04T16:13:25.999Z</time></trkpt><trkpt lat="31.374775189336464" lon="-6.1570287369213235"><ele>1563.0</ele><time>2026-05-04T16:13:26.999Z</time></trkpt><trkpt lat="31.374727285101482" lon="-6.157143297115413"><ele>1573.25</ele><time>2026-05-04T16:13:27.999Z</time></trkpt><trkpt lat="31.37468000429141" lon="-6.157273679284375"><ele>1583.5</ele><time>2026-05-04T16:13:28.999Z</time></trkpt><trkpt lat="31.37462900257017" lon="-6.157418184223192"><ele>1593.75</ele><time>2026-05-04T16:13:29.999Z</time></trkpt><trkpt lat="31.3745999803222" lon="-6.15757133415798"><ele>1604.0</ele><time>2026-05-04T16:13:30.999Z</time></trkpt><trkpt lat="31.37457436546377" lon="-6.1576999513139015"><ele>1604.0</ele><time>2026-05-04T16:13:31.999Z</time></trkpt><trkpt lat="31.374550576980827" lon="-6.157817083946844"><ele>1604.0</ele><time>2026-05-04T16:13:32.999Z</time></trkpt><trkpt lat="31.37451197290781" lon="-6.157926533452649"><ele>1604.0</ele><time>2026-05-04T16:13:34Z</time></trkpt><trkpt lat="31.374457950692875" lon="-6.158049630487526"><ele>1604.0</ele><time>2026-05-04T16:13:35Z</time></trkpt><trkpt lat="31.374408048008686" lon="-6.158188074971962"><ele>1597.5</ele><time>2026-05-04T16:13:36Z</time></trkpt><trkpt lat="31.37433557368473" lon="-6.158307501144358"><ele>1591.0</ele><time>2026-05-04T16:13:37Z</time></trkpt><trkpt lat="31.374265478277117" lon="-6.158428396617764"><ele>1584.5</ele><time>2026-05-04T16:13:38Z</time></trkpt><trkpt lat="31.3741980399624" lon="-6.158539876481093"><ele>1578.0</ele><time>2026-05-04T16:13:39Z</time></trkpt><trkpt lat="31.374156769010632" lon="-6.158647223159394"><ele>1578.0</ele><time>2026-05-04T16:13:40Z</time></trkpt><trkpt lat="31.37415793537088" lon="-6.1587703872914945"><ele>1578.0</ele><time>2026-05-04T16:13:41Z</time></trkpt><trkpt lat="31.374144244013024" lon="-6.1589373372270275"><ele>1578.0</ele><time>2026-05-04T16:13:42Z</time></trkpt><trkpt lat="31.374114604996198" lon="-6.159101846900105"><ele>1578.0</ele><time>2026-05-04T16:13:43Z</time></trkpt><trkpt lat="31.374069449944017" lon="-6.159257694223735"><ele>1574.6666666666665</ele><time>2026-05-04T16:13:44Z</time></trkpt><trkpt lat="31.374031601888372" lon="-6.159424728087926"><ele>1571.3333333333333</ele><time>2026-05-04T16:13:45Z</time></trkpt><trkpt lat="31.37397722252485" lon="-6.1595905007370915"><ele>1568.0</ele><time>2026-05-04T16:13:46Z</time></trkpt><trkpt lat="31.37391197939643" lon="-6.159769791555302"><ele>1564.0</ele><time>2026-05-04T16:13:47Z</time></trkpt><trkpt lat="31.373887780207625" lon="-6.159978308913859"><ele>1560.0</ele><time>2026-05-04T16:13:48Z</time></trkpt><trkpt lat="31.37382748714439" lon="-6.160178864959108"><ele>1556.0</ele><time>2026-05-04T16:13:49Z</time></trkpt><trkpt lat="31.373768224487673" lon="-6.160379241632728"><ele>1565.6666666666665</ele><time>2026-05-04T16:13:50Z</time></trkpt><trkpt lat="31.37371557677608" lon="-6.160575494494397"><ele>1575.3333333333335</ele><time>2026-05-04T16:13:51Z</time></trkpt><trkpt lat="31.373665680637746" lon="-6.160767975666933"><ele>1585.0</ele><time>2026-05-04T16:13:52Z</time></trkpt><trkpt lat="31.37362715118277" lon="-6.160960005614078"><ele>1585.0</ele><time>2026-05-04T16:13:53Z</time></trkpt><trkpt lat="31.37358983760939" lon="-6.161148980809006"><ele>1585.0</ele><time>2026-05-04T16:13:54Z</time></trkpt><trkpt lat="31.373528121430894" lon="-6.161336869207198"><ele>1585.0</ele><time>2026-05-04T16:13:55Z</time></trkpt><trkpt lat="31.373494188803644" lon="-6.161533276672755"><ele>1581.6666666666667</ele><time>2026-05-04T16:13:56Z</time></trkpt><trkpt lat="31.37345099461574" lon="-6.161714112755772"><ele>1578.3333333333335</ele><time>2026-05-04T16:13:57Z</time></trkpt><trkpt lat="31.37341185154604" lon="-6.16188579187711"><ele>1575.0</ele><time>2026-05-04T16:13:58Z</time></trkpt><trkpt lat="31.37337208371483" lon="-6.16206070786831"><ele>1575.0</ele><time>2026-05-04T16:13:59Z</time></trkpt><trkpt lat="31.37333148896513" lon="-6.162238884314145"><ele>1575.0</ele><time>2026-05-04T16:14:00Z</time></trkpt><trkpt lat="31.373289835003966" lon="-6.162411497734503"><ele>1575.0</ele><time>2026-05-04T16:14:01Z</time></trkpt><trkpt lat="31.37324156446099" lon="-6.162566996415514"><ele>1572.75</ele><time>2026-05-04T16:14:02Z</time></trkpt><trkpt lat="31.37318017613901" lon="-6.1626994537417605"><ele>1570.5</ele><time>2026-05-04T16:14:03Z</time></trkpt><trkpt lat="31.373149948696827" lon="-6.16283170446131"><ele>1568.25</ele><time>2026-05-04T16:14:04Z</time></trkpt><trkpt lat="31.37307336551967" lon="-6.162945252445521"><ele>1566.0</ele><time>2026-05-04T16:14:05Z</time></trkpt><trkpt lat="31.3729969031118" lon="-6.1630418587005185"><ele>1569.5</ele><time>2026-05-04T16:14:06Z</time></trkpt><trkpt lat="31.372924469885927" lon="-6.163133419773823"><ele>1573.0</ele><time>2026-05-04T16:14:07Z</time></trkpt><trkpt lat="31.372854801989654" lon="-6.163237557385258"><ele>1576.5</ele><time>2026-05-04T16:14:08Z</time></trkpt><trkpt lat="31.3727932011526" lon="-6.163353906728195"><ele>1580.0</ele><time>2026-05-04T16:14:09Z</time></trkpt><trkpt lat="31.372756232571607" lon="-6.163480899997227"><ele>1580.0</ele><time>2026-05-04T16:14:10Z</time></trkpt><trkpt lat="31.372721931511602" lon="-6.163621128296934"><ele>1580.0</ele><time>2026-05-04T16:14:11Z</time></trkpt><trkpt lat="31.37272464240149" lon="-6.163777741184037"><ele>1580.0</ele><time>2026-05-04T16:14:12Z</time></trkpt><trkpt lat="31.372722371353323" lon="-6.1639446151831265"><ele>1580.0</ele><time>2026-05-04T16:14:13Z</time></trkpt><trkpt lat="31.372717418707538" lon="-6.164115243901253"><ele>1581.75</ele><time>2026-05-04T16:14:14Z</time></trkpt><trkpt lat="31.37271203002228" lon="-6.164289791641804"><ele>1583.5</ele><time>2026-05-04T16:14:15Z</time></trkpt><trkpt lat="31.372706354373932" lon="-6.1644585180250315"><ele>1585.25</ele><time>2026-05-04T16:14:16Z</time></trkpt><trkpt lat="31.372692721688033" lon="-6.164609618918861"><ele>1587.0</ele><time>2026-05-04T16:14:17Z</time></trkpt><trkpt lat="31.372665053656675" lon="-6.16475689707606"><ele>1587.25</ele><time>2026-05-04T16:14:18Z</time></trkpt><trkpt lat="31.37264362132786" lon="-6.164907042370971"><ele>1587.5</ele><time>2026-05-04T16:14:19Z</time></trkpt><trkpt lat="31.372599642565056" lon="-6.1650595442813545"><ele>1587.75</ele><time>2026-05-04T16:14:20Z</time></trkpt><trkpt lat="31.372541647697947" lon="-6.165206036116431"><ele>1588.0</ele><time>2026-05-04T16:14:21Z</time></trkpt><trkpt lat="31.37246497231682" lon="-6.165354253567747"><ele>1588.0</ele><time>2026-05-04T16:14:22Z</time></trkpt><trkpt lat="31.372365182871242" lon="-6.165493434782216"><ele>1588.0</ele><time>2026-05-04T16:14:23Z</time></trkpt><trkpt lat="31.37224286225375" lon="-6.1656256722689164"><ele>1588.0</ele><time>2026-05-04T16:14:24Z</time></trkpt><trkpt lat="31.372129016333616" lon="-6.16575389983517"><ele>1587.3333333333335</ele><time>2026-05-04T16:14:25Z</time></trkpt><trkpt lat="31.372021694536077" lon="-6.165893941525679"><ele>1586.6666666666665</ele><time>2026-05-04T16:14:26Z</time></trkpt><trkpt lat="31.371920197509535" lon="-6.16603996599864"><ele>1586.0</ele><time>2026-05-04T16:14:27Z</time></trkpt><trkpt lat="31.37182797812723" lon="-6.166199916067988"><ele>1586.0</ele><time>2026-05-04T16:14:28Z</time></trkpt><trkpt lat="31.371742855386422" lon="-6.166375090229082"><ele>1586.0</ele><time>2026-05-04T16:14:29Z</time></trkpt><trkpt lat="31.37166016210181" lon="-6.166556777278731"><ele>1586.0</ele><time>2026-05-04T16:14:30Z</time></trkpt><trkpt lat="31.37159437819205" lon="-6.1667458907718835"><ele>1583.6666666666665</ele><time>2026-05-04T16:14:31Z</time></trkpt><trkpt lat="31.37151667588066" lon="-6.166923471496792"><ele>1581.3333333333335</ele><time>2026-05-04T16:14:32Z</time></trkpt><trkpt lat="31.37143339739897" lon="-6.167091944906252"><ele>1579.0</ele><time>2026-05-04T16:14:33Z</time></trkpt><trkpt lat="31.371353368117923" lon="-6.167251200814882"><ele>1584.0</ele><time>2026-05-04T16:14:34Z</time></trkpt><trkpt lat="31.371276909904083" lon="-6.1674072630668695"><ele>1589.0</ele><time>2026-05-04T16:14:35Z</time></trkpt><trkpt lat="31.371205338016704" lon="-6.167560952111751"><ele>1594.0</ele><time>2026-05-04T16:14:36Z</time></trkpt><trkpt lat="31.371135619895657" lon="-6.167707831433325"><ele>1599.0</ele><time>2026-05-04T16:14:37Z</time></trkpt><trkpt lat="31.371068337930744" lon="-6.167851871698637"><ele>1599.0</ele><time>2026-05-04T16:14:38Z</time></trkpt><trkpt lat="31.37100467395522" lon="-6.167988431963897"><ele>1599.0</ele><time>2026-05-04T16:14:39Z</time></trkpt><trkpt lat="31.370941813338256" lon="-6.168125834658309"><ele>1599.0</ele><time>2026-05-04T16:14:40Z</time></trkpt><trkpt lat="31.370875562974117" lon="-6.168272697845074"><ele>1599.0</ele><time>2026-05-04T16:14:41Z</time></trkpt><trkpt lat="31.37081121218108" lon="-6.168417110076258"><ele>1593.0</ele><time>2026-05-04T16:14:42Z</time></trkpt><trkpt lat="31.370747936243355" lon="-6.1685572934579085"><ele>1587.0</ele><time>2026-05-04T16:14:43Z</time></trkpt><trkpt lat="31.37068755813838" lon="-6.168693535984318"><ele>1581.0</ele><time>2026-05-04T16:14:44Z</time></trkpt><trkpt lat="31.37062747738971" lon="-6.168826386954818"><ele>1575.0</ele><time>2026-05-04T16:14:45Z</time></trkpt><trkpt lat="31.370570503015237" lon="-6.16895633084104"><ele>1581.0</ele><time>2026-05-04T16:14:46Z</time></trkpt><trkpt lat="31.37051486056576" lon="-6.169087784615831"><ele>1587.0</ele><time>2026-05-04T16:14:47Z</time></trkpt><trkpt lat="31.370458696710223" lon="-6.169220093176585"><ele>1593.0</ele><time>2026-05-04T16:14:48Z</time></trkpt><trkpt lat="31.37040099411495" lon="-6.1693509863440665"><ele>1599.0</ele><time>2026-05-04T16:14:49Z</time></trkpt><trkpt lat="31.370338305990103" lon="-6.169484437999531"><ele>1599.0</ele><time>2026-05-04T16:14:50Z</time></trkpt><trkpt lat="31.370274236722477" lon="-6.1696018146244604"><ele>1599.0</ele><time>2026-05-04T16:14:51Z</time></trkpt><trkpt lat="31.37020425375542" lon="-6.1697051733442505"><ele>1599.0</ele><time>2026-05-04T16:14:52Z</time></trkpt><trkpt lat="31.370141873764556" lon="-6.169780656301053"><ele>1599.0</ele><time>2026-05-04T16:14:53Z</time></trkpt><trkpt lat="31.370088605981785" lon="-6.169840869736181"><ele>1599.0</ele><time>2026-05-04T16:14:54Z</time></trkpt><trkpt lat="31.370036650729915" lon="-6.169889947336042"><ele>1595.6</ele><time>2026-05-04T16:14:55Z</time></trkpt><trkpt lat="31.36997096471872" lon="-6.169950261371355"><ele>1592.2</ele><time>2026-05-04T16:14:57Z</time></trkpt><trkpt lat="31.36989929828042" lon="-6.170015888741866"><ele>1588.8</ele><time>2026-05-04T16:15:01Z</time></trkpt><trkpt lat="31.369839578016435" lon="-6.170070851929816"><ele>1585.3999999999999</ele><time>2026-05-04T16:15:03Z</time></trkpt><trkpt lat="31.369776735485537" lon="-6.170129234674346"><ele>1582.0</ele><time>2026-05-04T16:15:50Z</time></trkpt><trkpt lat="31.36965923769371" lon="-6.170238393964189"><ele>1582.0</ele><time>2026-05-04T16:15:52Z</time></trkpt><trkpt lat="31.369568684007373" lon="-6.170323112903535"><ele>1582.0</ele><time>2026-05-04T16:15:53Z</time></trkpt><trkpt lat="31.36947405640656" lon="-6.170411280660241"><ele>1582.0</ele><time>2026-05-04T16:15:54Z</time></trkpt><trkpt lat="31.369350575258217" lon="-6.170512211552819"><ele>1582.0</ele><time>2026-05-04T16:15:55Z</time></trkpt><trkpt lat="31.369210526846715" lon="-6.170609622521334"><ele>1572.6666666666667</ele><time>2026-05-04T16:15:56Z</time></trkpt><trkpt lat="31.369063873073994" lon="-6.170710787125261"><ele>1563.3333333333335</ele><time>2026-05-04T16:15:57Z</time></trkpt><trkpt lat="31.368920862148713" lon="-6.170815265369966"><ele>1554.0</ele><time>2026-05-04T16:15:58Z</time></trkpt><trkpt lat="31.368785210959246" lon="-6.170914291140923"><ele>1554.0</ele><time>2026-05-04T16:15:59Z</time></trkpt><trkpt lat="31.368657877206772" lon="-6.171007179180469"><ele>1554.0</ele><time>2026-05-04T16:16:00Z</time></trkpt><trkpt lat="31.368533143573327" lon="-6.1710945502226435"><ele>1554.0</ele><time>2026-05-04T16:16:01Z</time></trkpt><trkpt lat="31.368413945513133" lon="-6.171177225443451"><ele>1554.0</ele><time>2026-05-04T16:16:02Z</time></trkpt><trkpt lat="31.3682903332673" lon="-6.1712474869819305"><ele>1554.0</ele><time>2026-05-04T16:16:03Z</time></trkpt><trkpt lat="31.368159943122624" lon="-6.1713214656986715"><ele>1554.0</ele><time>2026-05-04T16:16:04Z</time></trkpt><trkpt lat="31.368006983046858" lon="-6.171387959003368"><ele>1554.0</ele><time>2026-05-04T16:16:05Z</time></trkpt><trkpt lat="31.36784844295385" lon="-6.171458010230936"><ele>1551.25</ele><time>2026-05-04T16:16:06Z</time></trkpt><trkpt lat="31.36770508650509" lon="-6.171521937054723"><ele>1548.5</ele><time>2026-05-04T16:16:07Z</time></trkpt><trkpt lat="31.36757989540834" lon="-6.171575989419499"><ele>1545.75</ele><time>2026-05-04T16:16:08Z</time></trkpt><trkpt lat="31.367454060021256" lon="-6.171624617485957"><ele>1543.0</ele><time>2026-05-04T16:16:09Z</time></trkpt><trkpt lat="31.367319812296625" lon="-6.1716693942332"><ele>1544.5</ele><time>2026-05-04T16:16:10Z</time></trkpt><trkpt lat="31.367176359392726" lon="-6.171713529865063"><ele>1546.0</ele><time>2026-05-04T16:16:11Z</time></trkpt><trkpt lat="31.367062237710922" lon="-6.17176117080186"><ele>1547.5</ele><time>2026-05-04T16:16:12Z</time></trkpt><trkpt lat="31.366938532763655" lon="-6.171817926525812"><ele>1549.0</ele><time>2026-05-04T16:16:13Z</time></trkpt><trkpt lat="31.366834417313044" lon="-6.1718418093005"><ele>1549.0</ele><time>2026-05-04T16:16:14Z</time></trkpt><trkpt lat="31.366724142701283" lon="-6.171842872610221"><ele>1549.0</ele><time>2026-05-04T16:16:15Z</time></trkpt><trkpt lat="31.366598391803866" lon="-6.1717837422509225"><ele>1549.0</ele><time>2026-05-04T16:16:16Z</time></trkpt><trkpt lat="31.36647823073779" lon="-6.171722580029917"><ele>1549.0</ele><time>2026-05-04T16:16:17Z</time></trkpt><trkpt lat="31.36636540745927" lon="-6.171662325911082"><ele>1548.0</ele><time>2026-05-04T16:16:18Z</time></trkpt><trkpt lat="31.36626975811409" lon="-6.171600908444238"><ele>1547.0</ele><time>2026-05-04T16:16:19Z</time></trkpt><trkpt lat="31.36614053577811" lon="-6.17152490458942"><ele>1546.0</ele><time>2026-05-04T16:16:20Z</time></trkpt><trkpt lat="31.366007332860132" lon="-6.1714738618581295"><ele>1545.0</ele><time>2026-05-04T16:16:21Z</time></trkpt><trkpt lat="31.365897131366616" lon="-6.17141002646203"><ele>1549.0</ele><time>2026-05-04T16:16:22Z</time></trkpt><trkpt lat="31.365760965951008" lon="-6.171399580232766"><ele>1553.0</ele><time>2026-05-04T16:16:23Z</time></trkpt><trkpt lat="31.36562905874086" lon="-6.1713906594702275"><ele>1557.0</ele><time>2026-05-04T16:16:24Z</time></trkpt><trkpt lat="31.3655024454611" lon="-6.171387073853003"><ele>1561.0</ele><time>2026-05-04T16:16:25Z</time></trkpt><trkpt lat="31.36538445211958" lon="-6.171393313707363"><ele>1561.0</ele><time>2026-05-04T16:16:26Z</time></trkpt><trkpt lat="31.365250346532964" lon="-6.171396881796277"><ele>1561.0</ele><time>2026-05-04T16:16:27Z</time></trkpt><trkpt lat="31.36511461929979" lon="-6.171368265240508"><ele>1561.0</ele><time>2026-05-04T16:16:28Z</time></trkpt><trkpt lat="31.36497491487406" lon="-6.171324717460575"><ele>1561.0</ele><time>2026-05-04T16:16:29Z</time></trkpt><trkpt lat="31.364838808236723" lon="-6.171249246719627"><ele>1561.0</ele><time>2026-05-04T16:16:30Z</time></trkpt><trkpt lat="31.36471221996703" lon="-6.171189626045557"><ele>1561.0</ele><time>2026-05-04T16:16:31Z</time></trkpt><trkpt lat="31.364589624850165" lon="-6.171130747569702"><ele>1561.0</ele><time>2026-05-04T16:16:32Z</time></trkpt><trkpt lat="31.364477519683053" lon="-6.171088343082191"><ele>1561.0</ele><time>2026-05-04T16:16:33Z</time></trkpt><trkpt lat="31.36439240356845" lon="-6.171064014909558"><ele>1562.25</ele><time>2026-05-04T16:16:34Z</time></trkpt><trkpt lat="31.36430490032429" lon="-6.171059827829751"><ele>1563.5</ele><time>2026-05-04T16:16:35Z</time></trkpt><trkpt lat="31.36416165544175" lon="-6.171081524113371"><ele>1564.75</ele><time>2026-05-04T16:16:36Z</time></trkpt><trkpt lat="31.364050850663165" lon="-6.171104926718638"><ele>1566.0</ele><time>2026-05-04T16:16:37Z</time></trkpt><trkpt lat="31.363934900507935" lon="-6.171139557438998"><ele>1566.0</ele><time>2026-05-04T16:16:38Z</time></trkpt><trkpt lat="31.363816265809714" lon="-6.171184117557874"><ele>1566.0</ele><time>2026-05-04T16:16:39Z</time></trkpt><trkpt lat="31.363699830654447" lon="-6.171230500331801"><ele>1566.0</ele><time>2026-05-04T16:16:40Z</time></trkpt><trkpt lat="31.363582839249975" lon="-6.171286135821849"><ele>1566.0</ele><time>2026-05-04T16:16:41Z</time></trkpt><trkpt lat="31.36346039205172" lon="-6.171339144012533"><ele>1566.0</ele><time>2026-05-04T16:16:42Z</time></trkpt><trkpt lat="31.363338355929148" lon="-6.171378597465382"><ele>1566.0</ele><time>2026-05-04T16:16:43Z</time></trkpt><trkpt lat="31.36321029170535" lon="-6.171407866332786"><ele>1566.0</ele><time>2026-05-04T16:16:44Z</time></trkpt><trkpt lat="31.36306404459776" lon="-6.171419416305885"><ele>1566.0</ele><time>2026-05-04T16:16:45Z</time></trkpt><trkpt lat="31.36292637183683" lon="-6.1714224841910825"><ele>1566.0</ele><time>2026-05-04T16:16:46Z</time></trkpt><trkpt lat="31.36280276952787" lon="-6.171414268546963"><ele>1566.0</ele><time>2026-05-04T16:16:47Z</time></trkpt><trkpt lat="31.36267384984343" lon="-6.1713947409891965"><ele>1566.0</ele><time>2026-05-04T16:16:48Z</time></trkpt><trkpt lat="31.36253669773421" lon="-6.171361180985868"><ele>1566.0</ele><time>2026-05-04T16:16:49Z</time></trkpt><trkpt lat="31.362390707623486" lon="-6.171311048828405"><ele>1566.0</ele><time>2026-05-04T16:16:50Z</time></trkpt><trkpt lat="31.362232976414106" lon="-6.171242657896816"><ele>1566.0</ele><time>2026-05-04T16:16:51Z</time></trkpt><trkpt lat="31.362082233301" lon="-6.1711465325525925"><ele>1566.0</ele><time>2026-05-04T16:16:52Z</time></trkpt><trkpt lat="31.36192864385313" lon="-6.171058391343782"><ele>1561.0</ele><time>2026-05-04T16:16:53Z</time></trkpt><trkpt lat="31.361770555818428" lon="-6.170950458030871"><ele>1556.0</ele><time>2026-05-04T16:16:54Z</time></trkpt><trkpt lat="31.361609720251433" lon="-6.17085230687931"><ele>1551.0</ele><time>2026-05-04T16:16:55Z</time></trkpt><trkpt lat="31.361451463920204" lon="-6.170780794532516"><ele>1546.6666666666665</ele><time>2026-05-04T16:16:56Z</time></trkpt><trkpt lat="31.361286968640304" lon="-6.170708340224985"><ele>1542.3333333333333</ele><time>2026-05-04T16:16:57Z</time></trkpt><trkpt lat="31.361136920616218" lon="-6.170622542054717"><ele>1538.0</ele><time>2026-05-04T16:16:58Z</time></trkpt><trkpt lat="31.361014683270792" lon="-6.170539179699985"><ele>1544.5</ele><time>2026-05-04T16:16:59Z</time></trkpt><trkpt lat="31.36090028290748" lon="-6.170461665158707"><ele>1551.0</ele><time>2026-05-04T16:17:00Z</time></trkpt><trkpt lat="31.360801278173593" lon="-6.17037956177961"><ele>1557.5</ele><time>2026-05-04T16:17:01Z</time></trkpt><trkpt lat="31.360713329204067" lon="-6.170274293885229"><ele>1564.0</ele><time>2026-05-04T16:17:02Z</time></trkpt><trkpt lat="31.36063814442085" lon="-6.170148490651828"><ele>1564.0</ele><time>2026-05-04T16:17:03Z</time></trkpt><trkpt lat="31.360574441244434" lon="-6.170009286879506"><ele>1564.0</ele><time>2026-05-04T16:17:04Z</time></trkpt><trkpt lat="31.360518006870514" lon="-6.169882507503543"><ele>1564.0</ele><time>2026-05-04T16:17:05Z</time></trkpt><trkpt lat="31.360453528429204" lon="-6.169740307217432"><ele>1564.0</ele><time>2026-05-04T16:17:06Z</time></trkpt><trkpt lat="31.360391433101764" lon="-6.169601798863661"><ele>1563.0</ele><time>2026-05-04T16:17:07Z</time></trkpt><trkpt lat="31.360318759198186" lon="-6.169455453259749"><ele>1562.0</ele><time>2026-05-04T16:17:08Z</time></trkpt><trkpt lat="31.36024169803512" lon="-6.169310174605271"><ele>1561.0</ele><time>2026-05-04T16:17:09Z</time></trkpt><trkpt lat="31.360166694447912" lon="-6.1691658898393325"><ele>1560.0</ele><time>2026-05-04T16:17:10Z</time></trkpt><trkpt lat="31.360093801081252" lon="-6.16901926338073"><ele>1565.5</ele><time>2026-05-04T16:17:11Z</time></trkpt><trkpt lat="31.360031857348734" lon="-6.168899141536834"><ele>1571.0</ele><time>2026-05-04T16:17:11.999Z</time></trkpt><trkpt lat="31.35997871989186" lon="-6.168771966565877"><ele>1576.5</ele><time>2026-05-04T16:17:12.999Z</time></trkpt><trkpt lat="31.35993835532127" lon="-6.1686384380063055"><ele>1582.0</ele><time>2026-05-04T16:17:13.999Z</time></trkpt><trkpt lat="31.35989733606215" lon="-6.168489882066968"><ele>1582.0</ele><time>2026-05-04T16:17:14.999Z</time></trkpt><trkpt lat="31.35987673625929" lon="-6.168321331515831"><ele>1582.0</ele><time>2026-05-04T16:17:15.999Z</time></trkpt><trkpt lat="31.35985596331745" lon="-6.168152301359083"><ele>1582.0</ele><time>2026-05-04T16:17:16.999Z</time></trkpt><trkpt lat="31.359830020662447" lon="-6.167979328711908"><ele>1582.0</ele><time>2026-05-04T16:17:17.999Z</time></trkpt><trkpt lat="31.35979583788256" lon="-6.167823186690457"><ele>1579.8</ele><time>2026-05-04T16:17:18.999Z</time></trkpt><trkpt lat="31.35974512156148" lon="-6.167693335468691"><ele>1577.6</ele><time>2026-05-04T16:17:19.999Z</time></trkpt><trkpt lat="31.35968034526544" lon="-6.167573513157698"><ele>1575.3999999999999</ele><time>2026-05-04T16:17:20.999Z</time></trkpt><trkpt lat="31.35960994069724" lon="-6.1674662496429065"><ele>1573.1999999999998</ele><time>2026-05-04T16:17:21.999Z</time></trkpt><trkpt lat="31.359567474048472" lon="-6.167388549803633"><ele>1571.0</ele><time>2026-05-04T16:17:22.999Z</time></trkpt><trkpt lat="31.359545000435663" lon="-6.167263324048468"><ele>1576.5</ele><time>2026-05-04T16:17:23.999Z</time></trkpt><trkpt lat="31.35957301417224" lon="-6.167132712218834"><ele>1582.0</ele><time>2026-05-04T16:17:24.999Z</time></trkpt><trkpt lat="31.35965460759094" lon="-6.167000377465331"><ele>1587.5</ele><time>2026-05-04T16:17:25.999Z</time></trkpt><trkpt lat="31.35974698984114" lon="-6.166878483953891"><ele>1593.0</ele><time>2026-05-04T16:17:26.999Z</time></trkpt><trkpt lat="31.359840729398485" lon="-6.166737956869182"><ele>1594.5</ele><time>2026-05-04T16:17:27.999Z</time></trkpt><trkpt lat="31.359913767746875" lon="-6.166613286860087"><ele>1596.0</ele><time>2026-05-04T16:17:28.999Z</time></trkpt><trkpt lat="31.359919593137896" lon="-6.166508393334746"><ele>1597.5</ele><time>2026-05-04T16:17:29.999Z</time></trkpt><trkpt lat="31.35987842343967" lon="-6.1664519766109835"><ele>1599.0</ele><time>2026-05-04T16:17:30.999Z</time></trkpt><trkpt lat="31.359835062120503" lon="-6.166384789085419"><ele>1600.5</ele><time>2026-05-04T16:17:31.999Z</time></trkpt><trkpt lat="31.359779434223412" lon="-6.166330155958213"><ele>1602.0</ele><time>2026-05-04T16:17:32.999Z</time></trkpt><trkpt lat="31.3597014936764" lon="-6.166285931216081"><ele>1602.5</ele><time>2026-05-04T16:17:33.999Z</time></trkpt><trkpt lat="31.35959364659597" lon="-6.166270727754391"><ele>1603.0</ele><time>2026-05-04T16:17:34.999Z</time></trkpt><trkpt lat="31.359467168027514" lon="-6.166229833015731"><ele>1603.5</ele><time>2026-05-04T16:17:35.999Z</time></trkpt><trkpt lat="31.359342796701995" lon="-6.166173646435392"><ele>1604.0</ele><time>2026-05-04T16:17:36.999Z</time></trkpt><trkpt lat="31.35922457170524" lon="-6.166096141360258"><ele>1604.0</ele><time>2026-05-04T16:17:37.999Z</time></trkpt><trkpt lat="31.35914449137337" lon="-6.165998774594154"><ele>1604.0</ele><time>2026-05-04T16:17:38.999Z</time></trkpt><trkpt lat="31.359102278832193" lon="-6.165850980636841"><ele>1604.0</ele><time>2026-05-04T16:17:39.999Z</time></trkpt><trkpt lat="31.359092571121533" lon="-6.165692506329473"><ele>1604.0</ele><time>2026-05-04T16:17:40.999Z</time></trkpt><trkpt lat="31.359087184759495" lon="-6.165531143007202"><ele>1603.6666666666665</ele><time>2026-05-04T16:17:41.999Z</time></trkpt><trkpt lat="31.359079575385618" lon="-6.16535060855567"><ele>1603.3333333333335</ele><time>2026-05-04T16:17:42.999Z</time></trkpt><trkpt lat="31.359186162723915" lon="-6.165153733085875"><ele>1603.0</ele><time>2026-05-04T16:17:43.999Z</time></trkpt><trkpt lat="31.359183881988013" lon="-6.164950527832587"><ele>1603.6666666666667</ele><time>2026-05-04T16:17:45Z</time></trkpt><trkpt lat="31.35917550000779" lon="-6.1647385350051955"><ele>1604.3333333333335</ele><time>2026-05-04T16:17:46Z</time></trkpt><trkpt lat="31.359177564064993" lon="-6.164539337831634"><ele>1605.0</ele><time>2026-05-04T16:17:47Z</time></trkpt><trkpt lat="31.35903717566915" lon="-6.164380048454512"><ele>1605.0</ele><time>2026-05-04T16:17:48Z</time></trkpt><trkpt lat="31.35901590710025" lon="-6.164223233281557"><ele>1605.0</ele><time>2026-05-04T16:17:49Z</time></trkpt><trkpt lat="31.358981873420717" lon="-6.164071032534267"><ele>1605.0</ele><time>2026-05-04T16:17:50Z</time></trkpt><trkpt lat="31.35894880932141" lon="-6.16391181554393"><ele>1605.0</ele><time>2026-05-04T16:17:51Z</time></trkpt><trkpt lat="31.358898933494714" lon="-6.163820993277553"><ele>1607.0</ele><time>2026-05-04T16:17:52Z</time></trkpt><trkpt lat="31.358852839501456" lon="-6.163758503628585"><ele>1609.0</ele><time>2026-05-04T16:17:53Z</time></trkpt><trkpt lat="31.358716183328273" lon="-6.163706173558739"><ele>1611.0</ele><time>2026-05-04T16:17:55Z</time></trkpt><trkpt lat="31.358632694260447" lon="-6.163717039390272"><ele>1613.0</ele><time>2026-05-04T16:17:56Z</time></trkpt><trkpt lat="31.358385535073946" lon="-6.163738702126832"><ele>1613.0</ele><time>2026-05-04T16:17:57Z</time></trkpt><trkpt lat="31.35822225500147" lon="-6.163713717291998"><ele>1613.0</ele><time>2026-05-04T16:17:58Z</time></trkpt><trkpt lat="31.358076595258954" lon="-6.163655385446144"><ele>1613.0</ele><time>2026-05-04T16:17:59Z</time></trkpt><trkpt lat="31.357951028536633" lon="-6.163612675972129"><ele>1613.0</ele><time>2026-05-04T16:18:00Z</time></trkpt><trkpt lat="31.357836301287353" lon="-6.163594738744417"><ele>1614.75</ele><time>2026-05-04T16:18:01Z</time></trkpt><trkpt lat="31.357709378538157" lon="-6.163608148135995"><ele>1616.5</ele><time>2026-05-04T16:18:02Z</time></trkpt><trkpt lat="31.35756980316572" lon="-6.163669590786761"><ele>1618.25</ele><time>2026-05-04T16:18:03Z</time></trkpt><trkpt lat="31.357441932151332" lon="-6.163722359198243"><ele>1620.0</ele><time>2026-05-04T16:18:04Z</time></trkpt><trkpt lat="31.357267511380613" lon="-6.163792631656612"><ele>1620.25</ele><time>2026-05-04T16:18:05Z</time></trkpt><trkpt lat="31.35710842938848" lon="-6.163835622995878"><ele>1620.5</ele><time>2026-05-04T16:18:06Z</time></trkpt><trkpt lat="31.356970808976442" lon="-6.163892573040414"><ele>1620.75</ele><time>2026-05-04T16:18:07Z</time></trkpt><trkpt lat="31.35684407515815" lon="-6.163939626623586"><ele>1621.0</ele><time>2026-05-04T16:18:08Z</time></trkpt><trkpt lat="31.356724303032973" lon="-6.163999211737753"><ele>1621.0</ele><time>2026-05-04T16:18:09Z</time></trkpt><trkpt lat="31.356601130966624" lon="-6.16402196145399"><ele>1621.0</ele><time>2026-05-04T16:18:10Z</time></trkpt><trkpt lat="31.35648205926446" lon="-6.164027130946696"><ele>1621.0</ele><time>2026-05-04T16:18:11Z</time></trkpt><trkpt lat="31.35635041168837" lon="-6.163998962538696"><ele>1621.0</ele><time>2026-05-04T16:18:12Z</time></trkpt><trkpt lat="31.35620603912977" lon="-6.163925786846668"><ele>1615.6666666666667</ele><time>2026-05-04T16:18:13Z</time></trkpt><trkpt lat="31.35607180551924" lon="-6.163794046179282"><ele>1610.3333333333335</ele><time>2026-05-04T16:18:14Z</time></trkpt><trkpt lat="31.3559579743864" lon="-6.163674541422377"><ele>1605.0</ele><time>2026-05-04T16:18:15Z</time></trkpt><trkpt lat="31.355859198151123" lon="-6.163557696334004"><ele>1605.0</ele><time>2026-05-04T16:18:16Z</time></trkpt><trkpt lat="31.35576332309761" lon="-6.163409888947896"><ele>1605.0</ele><time>2026-05-04T16:18:17Z</time></trkpt><trkpt lat="31.355693818759907" lon="-6.163279113025073"><ele>1605.0</ele><time>2026-05-04T16:18:18Z</time></trkpt><trkpt lat="31.355641329858848" lon="-6.163143878885368"><ele>1605.0</ele><time>2026-05-04T16:18:19Z</time></trkpt><trkpt lat="31.35560598159914" lon="-6.162992233912982"><ele>1603.8</ele><time>2026-05-04T16:18:20Z</time></trkpt><trkpt lat="31.35561732410431" lon="-6.16281809516679"><ele>1602.6</ele><time>2026-05-04T16:18:21Z</time></trkpt><trkpt lat="31.355635146480097" lon="-6.16269456470638"><ele>1601.4</ele><time>2026-05-04T16:18:22Z</time></trkpt><trkpt lat="31.355651586131668" lon="-6.162599358164282"><ele>1600.2</ele><time>2026-05-04T16:18:23Z</time></trkpt><trkpt lat="31.355693629144422" lon="-6.162484291837123"><ele>1599.0</ele><time>2026-05-04T16:18:24Z</time></trkpt><trkpt lat="31.355740337610467" lon="-6.162377929373051"><ele>1596.2</ele><time>2026-05-04T16:18:25Z</time></trkpt><trkpt lat="31.355796746855916" lon="-6.162271861394136"><ele>1593.4</ele><time>2026-05-04T16:18:26Z</time></trkpt><trkpt lat="31.355849283737225" lon="-6.162175482403442"><ele>1590.6</ele><time>2026-05-04T16:18:27Z</time></trkpt><trkpt lat="31.355896636048715" lon="-6.162077119707715"><ele>1587.8</ele><time>2026-05-04T16:18:28Z</time></trkpt><trkpt lat="31.35594618985474" lon="-6.161971013950493"><ele>1585.0</ele><time>2026-05-04T16:18:29Z</time></trkpt><trkpt lat="31.356001655100748" lon="-6.1618614818633874"><ele>1585.0</ele><time>2026-05-04T16:18:30Z</time></trkpt><trkpt lat="31.35605508898771" lon="-6.161758768714484"><ele>1585.0</ele><time>2026-05-04T16:18:31Z</time></trkpt><trkpt lat="31.356108855828513" lon="-6.161654520468943"><ele>1585.0</ele><time>2026-05-04T16:18:32Z</time></trkpt><trkpt lat="31.356161379888896" lon="-6.16155160314128"><ele>1585.0</ele><time>2026-05-04T16:18:33Z</time></trkpt><trkpt lat="31.356202471138918" lon="-6.161454473917088"><ele>1585.0</ele><time>2026-05-04T16:18:34Z</time></trkpt><trkpt lat="31.356216169505792" lon="-6.1613735560112595"><ele>1586.8</ele><time>2026-05-04T16:18:35Z</time></trkpt><trkpt lat="31.35617395506347" lon="-6.161271478216242"><ele>1588.6</ele><time>2026-05-04T16:18:37Z</time></trkpt><trkpt lat="31.356119507275153" lon="-6.161225864847539"><ele>1590.4</ele><time>2026-05-04T16:18:38Z</time></trkpt><trkpt lat="31.35604027677282" lon="-6.161189343397585"><ele>1592.2</ele><time>2026-05-04T16:18:39Z</time></trkpt><trkpt lat="31.355928161938163" lon="-6.161187332496883"><ele>1594.0</ele><time>2026-05-04T16:18:40Z</time></trkpt><trkpt lat="31.35580143751412" lon="-6.16120675140278"><ele>1594.0</ele><time>2026-05-04T16:18:41Z</time></trkpt><trkpt lat="31.35565896107391" lon="-6.161233834765339"><ele>1594.0</ele><time>2026-05-04T16:18:42Z</time></trkpt><trkpt lat="31.35550091533166" lon="-6.161273220150472"><ele>1594.0</ele><time>2026-05-04T16:18:43Z</time></trkpt><trkpt lat="31.355348979953956" lon="-6.16131191523954"><ele>1594.25</ele><time>2026-05-04T16:18:44Z</time></trkpt><trkpt lat="31.355202349225653" lon="-6.161332071101973"><ele>1594.5</ele><time>2026-05-04T16:18:45Z</time></trkpt><trkpt lat="31.35506274000326" lon="-6.161362682354568"><ele>1594.75</ele><time>2026-05-04T16:18:46Z</time></trkpt><trkpt lat="31.354925213894667" lon="-6.1614002309904805"><ele>1595.0</ele><time>2026-05-04T16:18:47Z</time></trkpt><trkpt lat="31.35478305692005" lon="-6.1614124855542505"><ele>1590.75</ele><time>2026-05-04T16:18:48Z</time></trkpt><trkpt lat="31.35464351319719" lon="-6.161419553970628"><ele>1586.5</ele><time>2026-05-04T16:18:49Z</time></trkpt><trkpt lat="31.354517477107407" lon="-6.161420590326018"><ele>1582.25</ele><time>2026-05-04T16:18:50Z</time></trkpt><trkpt lat="31.354402212545853" lon="-6.161414920618725"><ele>1578.0</ele><time>2026-05-04T16:18:51Z</time></trkpt><trkpt lat="31.35427931861465" lon="-6.161394753228082"><ele>1578.0</ele><time>2026-05-04T16:18:52Z</time></trkpt><trkpt lat="31.354123367279005" lon="-6.161297473616338"><ele>1578.0</ele><time>2026-05-04T16:18:53Z</time></trkpt><trkpt lat="31.353993092906656" lon="-6.161173519634094"><ele>1578.0</ele><time>2026-05-04T16:18:54Z</time></trkpt><trkpt lat="31.353884530691484" lon="-6.16105642942731"><ele>1575.5</ele><time>2026-05-04T16:18:55Z</time></trkpt><trkpt lat="31.353779418455378" lon="-6.160943817797378"><ele>1573.0</ele><time>2026-05-04T16:18:56Z</time></trkpt><trkpt lat="31.353679839394147" lon="-6.1608205087020345"><ele>1570.5</ele><time>2026-05-04T16:18:57Z</time></trkpt><trkpt lat="31.353589736569056" lon="-6.160707476532657"><ele>1568.0</ele><time>2026-05-04T16:18:58Z</time></trkpt><trkpt lat="31.35349969537955" lon="-6.160592864317112"><ele>1568.0</ele><time>2026-05-04T16:18:59Z</time></trkpt><trkpt lat="31.353396152970543" lon="-6.160515981556352"><ele>1568.0</ele><time>2026-05-04T16:19:00Z</time></trkpt><trkpt lat="31.35327748130261" lon="-6.16042887963147"><ele>1568.0</ele><time>2026-05-04T16:19:01Z</time></trkpt><trkpt lat="31.35314979500452" lon="-6.160363082250151"><ele>1568.0</ele><time>2026-05-04T16:19:02Z</time></trkpt><trkpt lat="31.353010536452214" lon="-6.160339001309065"><ele>1570.75</ele><time>2026-05-04T16:19:03Z</time></trkpt><trkpt lat="31.352844170630846" lon="-6.160326343901295"><ele>1573.5</ele><time>2026-05-04T16:19:04Z</time></trkpt><trkpt lat="31.352697189496133" lon="-6.160331513701566"><ele>1576.25</ele><time>2026-05-04T16:19:05Z</time></trkpt><trkpt lat="31.3525641591738" lon="-6.160336640109969"><ele>1579.0</ele><time>2026-05-04T16:19:06Z</time></trkpt><trkpt lat="31.35243653176745" lon="-6.160333538001955"><ele>1579.0</ele><time>2026-05-04T16:19:07Z</time></trkpt><trkpt lat="31.35227034391114" lon="-6.160275317423829"><ele>1579.0</ele><time>2026-05-04T16:19:08Z</time></trkpt><trkpt lat="31.35210982027791" lon="-6.1601941683427475"><ele>1579.0</ele><time>2026-05-04T16:19:09Z</time></trkpt><trkpt lat="31.351941435263598" lon="-6.160085874847601"><ele>1577.6666666666667</ele><time>2026-05-04T16:19:10Z</time></trkpt><trkpt lat="31.351792119326777" lon="-6.159967237129092"><ele>1576.3333333333335</ele><time>2026-05-04T16:19:11Z</time></trkpt><trkpt lat="31.351643862534072" lon="-6.15984937760645"><ele>1575.0</ele><time>2026-05-04T16:19:12Z</time></trkpt><trkpt lat="31.351501636688678" lon="-6.159761614367175"><ele>1576.0</ele><time>2026-05-04T16:19:13Z</time></trkpt><trkpt lat="31.351348145883073" lon="-6.159685185445256"><ele>1577.0</ele><time>2026-05-04T16:19:14Z</time></trkpt><trkpt lat="31.351206506965397" lon="-6.159614256007791"><ele>1578.0</ele><time>2026-05-04T16:19:15Z</time></trkpt><trkpt lat="31.3510701673324" lon="-6.159541640794114"><ele>1578.0</ele><time>2026-05-04T16:19:16Z</time></trkpt><trkpt lat="31.350927971365124" lon="-6.159455503641213"><ele>1578.0</ele><time>2026-05-04T16:19:17Z</time></trkpt><trkpt lat="31.35079886202268" lon="-6.159356343394228"><ele>1578.0</ele><time>2026-05-04T16:19:17.999Z</time></trkpt><trkpt lat="31.350680276603967" lon="-6.15925053331731"><ele>1578.0</ele><time>2026-05-04T16:19:18.999Z</time></trkpt><trkpt lat="31.35058160869181" lon="-6.159139364717827"><ele>1578.0</ele><time>2026-05-04T16:19:19.999Z</time></trkpt><trkpt lat="31.350499278188074" lon="-6.15904246104024"><ele>1578.0</ele><time>2026-05-04T16:19:20.999Z</time></trkpt><trkpt lat="31.350437876264802" lon="-6.158870661092936"><ele>1578.0</ele><time>2026-05-04T16:19:21.999Z</time></trkpt><trkpt lat="31.35041823922838" lon="-6.158711692365495"><ele>1578.0</ele><time>2026-05-04T16:19:22.999Z</time></trkpt><trkpt lat="31.350426949732064" lon="-6.158545243605338"><ele>1578.0</ele><time>2026-05-04T16:19:23.999Z</time></trkpt><trkpt lat="31.350473892948987" lon="-6.158359154456715"><ele>1578.0</ele><time>2026-05-04T16:19:24.999Z</time></trkpt><trkpt lat="31.350513173376402" lon="-6.158207281586061"><ele>1578.0</ele><time>2026-05-04T16:19:25.999Z</time></trkpt><trkpt lat="31.35054780081865" lon="-6.158071125039548"><ele>1578.5</ele><time>2026-05-04T16:19:26.999Z</time></trkpt><trkpt lat="31.350579387835097" lon="-6.157937627829047"><ele>1579.0</ele><time>2026-05-04T16:19:27.999Z</time></trkpt><trkpt lat="31.35061095192893" lon="-6.157803551639291"><ele>1579.5</ele><time>2026-05-04T16:19:28.999Z</time></trkpt><trkpt lat="31.35063980029921" lon="-6.157665694400944"><ele>1580.0</ele><time>2026-05-04T16:19:29.999Z</time></trkpt><trkpt lat="31.350660455253493" lon="-6.157542379860021"><ele>1580.0</ele><time>2026-05-04T16:19:30.999Z</time></trkpt><trkpt lat="31.350671793848655" lon="-6.157426176853139"><ele>1580.0</ele><time>2026-05-04T16:19:31.999Z</time></trkpt><trkpt lat="31.35067015035463" lon="-6.1573356771172"><ele>1580.0</ele><time>2026-05-04T16:19:32.999Z</time></trkpt><trkpt lat="31.350782768053705" lon="-6.157217772678772"><ele>1580.0</ele><time>2026-05-04T16:19:33.999Z</time></trkpt><trkpt lat="31.350751353069533" lon="-6.1571125315015465"><ele>1580.0</ele><time>2026-05-04T16:19:34.999Z</time></trkpt><trkpt lat="31.350699571575024" lon="-6.157022299838954"><ele>1580.0</ele><time>2026-05-04T16:19:35.999Z</time></trkpt><trkpt lat="31.35062877436146" lon="-6.156943595934214"><ele>1580.0</ele><time>2026-05-04T16:19:36.999Z</time></trkpt><trkpt lat="31.350487182563302" lon="-6.156955092307737"><ele>1580.0</ele><time>2026-05-04T16:19:37.999Z</time></trkpt><trkpt lat="31.35042067247355" lon="-6.156904915252909"><ele>1580.0</ele><time>2026-05-04T16:19:38.999Z</time></trkpt><trkpt lat="31.35034631170028" lon="-6.156882856211423"><ele>1580.0</ele><time>2026-05-04T16:19:39.999Z</time></trkpt><trkpt lat="31.350251337087034" lon="-6.156863016518145"><ele>1578.8</ele><time>2026-05-04T16:19:40.999Z</time></trkpt><trkpt lat="31.350153540160672" lon="-6.15686700515264"><ele>1577.6</ele><time>2026-05-04T16:19:41.999Z</time></trkpt><trkpt lat="31.350061569545982" lon="-6.156933755375642"><ele>1576.4</ele><time>2026-05-04T16:19:43Z</time></trkpt><trkpt lat="31.349981624993788" lon="-6.1570094649917895"><ele>1575.2</ele><time>2026-05-04T16:19:44Z</time></trkpt><trkpt lat="31.349899503740925" lon="-6.157082821265458"><ele>1574.0</ele><time>2026-05-04T16:19:45Z</time></trkpt><trkpt lat="31.349819906638633" lon="-6.157152674763227"><ele>1574.0</ele><time>2026-05-04T16:19:46Z</time></trkpt><trkpt lat="31.349742409814127" lon="-6.15722151253818"><ele>1574.0</ele><time>2026-05-04T16:19:47Z</time></trkpt><trkpt lat="31.349675592835066" lon="-6.157288404438624"><ele>1574.0</ele><time>2026-05-04T16:19:48Z</time></trkpt><trkpt lat="31.349625168494153" lon="-6.15733713364733"><ele>1574.0</ele><time>2026-05-04T16:19:49Z</time></trkpt><trkpt lat="31.34952877852445" lon="-6.1574107961918605"><ele>1574.0</ele><time>2026-05-04T16:19:51Z</time></trkpt><trkpt lat="31.349427994572235" lon="-6.157512671253132"><ele>1572.8333333333333</ele><time>2026-05-04T16:19:53Z</time></trkpt><trkpt lat="31.349391935619025" lon="-6.157584308550693"><ele>1571.6666666666665</ele><time>2026-05-04T16:19:54Z</time></trkpt><trkpt lat="31.3493556827939" lon="-6.1576564887845775"><ele>1570.5</ele><time>2026-05-04T16:19:55Z</time></trkpt><trkpt lat="31.34931972994695" lon="-6.157721973119398"><ele>1569.3333333333335</ele><time>2026-05-04T16:19:56Z</time></trkpt><trkpt lat="31.3492817999216" lon="-6.157788417428061"><ele>1568.1666666666667</ele><time>2026-05-04T16:19:57Z</time></trkpt><trkpt lat="31.34922971341871" lon="-6.1578965729265125"><ele>1567.0</ele><time>2026-05-04T16:19:59Z</time></trkpt><trkpt lat="31.349189007114536" lon="-6.1579846487996655"><ele>1567.0000000000002</ele><time>2026-05-04T16:20:01Z</time></trkpt><trkpt lat="31.34913947358942" lon="-6.158072519390802"><ele>1567.0</ele><time>2026-05-04T16:20:03Z</time></trkpt><trkpt lat="31.349096808817393" lon="-6.158134512829837"><ele>1567.0</ele><time>2026-05-04T16:20:06Z</time></trkpt><trkpt lat="31.3490213333416" lon="-6.1581903592831475"><ele>1567.0</ele><time>2026-05-04T16:20:09Z</time></trkpt><trkpt lat="31.34896884886581" lon="-6.15823829918749"><ele>1567.0000000000002</ele><time>2026-05-04T16:20:11Z</time></trkpt><trkpt lat="31.348923762820853" lon="-6.158331637104721"><ele>1567.0</ele><time>2026-05-04T16:20:12Z</time></trkpt><trkpt lat="31.348787549753293" lon="-6.158355823804179"><ele>1565.8</ele><time>2026-05-04T16:20:14Z</time></trkpt><trkpt lat="31.34870269168814" lon="-6.158370891437636"><ele>1564.6</ele><time>2026-05-04T16:20:15Z</time></trkpt><trkpt lat="31.34863148868112" lon="-6.158383534432699"><ele>1563.3999999999999</ele><time>2026-05-04T16:20:16Z</time></trkpt><trkpt lat="31.34855077581402" lon="-6.158397866028347"><ele>1562.1999999999998</ele><time>2026-05-04T16:20:17Z</time></trkpt><trkpt lat="31.34846933202808" lon="-6.158412327409783"><ele>1561.0</ele><time>2026-05-04T16:20:18Z</time></trkpt><trkpt lat="31.348337631190642" lon="-6.158420048245912"><ele>1561.0</ele><time>2026-05-04T16:20:20Z</time></trkpt><trkpt lat="31.348282433033376" lon="-6.158518833273062"><ele>1561.0</ele><time>2026-05-04T16:20:21Z</time></trkpt><trkpt lat="31.348208979570884" lon="-6.158636487751542"><ele>1561.0</ele><time>2026-05-04T16:20:22Z</time></trkpt><trkpt lat="31.348110643692053" lon="-6.158772289524477"><ele>1561.0</ele><time>2026-05-04T16:20:23Z</time></trkpt><trkpt lat="31.347998141133285" lon="-6.15891903153975"><ele>1562.0</ele><time>2026-05-04T16:20:24Z</time></trkpt><trkpt lat="31.34788476623194" lon="-6.159080097003807"><ele>1563.0</ele><time>2026-05-04T16:20:25Z</time></trkpt><trkpt lat="31.34776676164948" lon="-6.159252116314582"><ele>1564.0</ele><time>2026-05-04T16:20:26Z</time></trkpt><trkpt lat="31.347647388130618" lon="-6.159423398698418"><ele>1564.0</ele><time>2026-05-04T16:20:27Z</time></trkpt><trkpt lat="31.347515796965897" lon="-6.1596003332319995"><ele>1564.0</ele><time>2026-05-04T16:20:28Z</time></trkpt><trkpt lat="31.347389110968155" lon="-6.159782556317469"><ele>1564.0</ele><time>2026-05-04T16:20:29Z</time></trkpt><trkpt lat="31.34727288168853" lon="-6.159949734687494"><ele>1567.3333333333335</ele><time>2026-05-04T16:20:30Z</time></trkpt><trkpt lat="31.347165865114246" lon="-6.160105920251034"><ele>1570.6666666666665</ele><time>2026-05-04T16:20:31Z</time></trkpt><trkpt lat="31.347062875023443" lon="-6.160254477598737"><ele>1574.0</ele><time>2026-05-04T16:20:32Z</time></trkpt><trkpt lat="31.346961362784146" lon="-6.160400540342649"><ele>1574.0</ele><time>2026-05-04T16:20:33Z</time></trkpt><trkpt lat="31.34687079987154" lon="-6.160534999212065"><ele>1574.0</ele><time>2026-05-04T16:20:34Z</time></trkpt><trkpt lat="31.346789454377443" lon="-6.160658018249492"><ele>1574.0</ele><time>2026-05-04T16:20:35Z</time></trkpt><trkpt lat="31.3467143297601" lon="-6.160771713838776"><ele>1574.0</ele><time>2026-05-04T16:20:36Z</time></trkpt><trkpt lat="31.346631732661095" lon="-6.160865838566685"><ele>1574.0</ele><time>2026-05-04T16:20:37Z</time></trkpt><trkpt lat="31.346536165629537" lon="-6.160927738733941"><ele>1574.0</ele><time>2026-05-04T16:20:38Z</time></trkpt><trkpt lat="31.34642685702355" lon="-6.160946628095662"><ele>1574.0</ele><time>2026-05-04T16:20:39Z</time></trkpt><trkpt lat="31.346303695897905" lon="-6.160948886351141"><ele>1574.0</ele><time>2026-05-04T16:20:40Z</time></trkpt><trkpt lat="31.346162697086363" lon="-6.160937626763183"><ele>1574.0</ele><time>2026-05-04T16:20:41Z</time></trkpt><trkpt lat="31.346013269090086" lon="-6.160909981557313"><ele>1574.0</ele><time>2026-05-04T16:20:42Z</time></trkpt><trkpt lat="31.345854613815753" lon="-6.160879826164609"><ele>1574.0</ele><time>2026-05-04T16:20:43Z</time></trkpt><trkpt lat="31.345697467358846" lon="-6.160849958495204"><ele>1574.0</ele><time>2026-05-04T16:20:44Z</time></trkpt><trkpt lat="31.345549499721436" lon="-6.1608218354466056"><ele>1574.0</ele><time>2026-05-04T16:20:45Z</time></trkpt><trkpt lat="31.345414354475917" lon="-6.160797824730524"><ele>1574.0</ele><time>2026-05-04T16:20:46Z</time></trkpt><trkpt lat="31.34528169716197" lon="-6.160788557283165"><ele>1574.0</ele><time>2026-05-04T16:20:47Z</time></trkpt><trkpt lat="31.3451630407676" lon="-6.16085153731579"><ele>1571.0</ele><time>2026-05-04T16:20:48Z</time></trkpt><trkpt lat="31.34504902497311" lon="-6.160952232388461"><ele>1568.0</ele><time>2026-05-04T16:20:49Z</time></trkpt><trkpt lat="31.344930458752337" lon="-6.161077708848414"><ele>1565.0</ele><time>2026-05-04T16:20:50Z</time></trkpt><trkpt lat="31.34480634772416" lon="-6.161211645987864"><ele>1569.0</ele><time>2026-05-04T16:20:51Z</time></trkpt><trkpt lat="31.344676489744646" lon="-6.161338759656078"><ele>1573.0</ele><time>2026-05-04T16:20:52Z</time></trkpt><trkpt lat="31.344542326220136" lon="-6.161455261002124"><ele>1577.0</ele><time>2026-05-04T16:20:53Z</time></trkpt><trkpt lat="31.344405249989247" lon="-6.16155603823065"><ele>1577.0</ele><time>2026-05-04T16:20:54Z</time></trkpt><trkpt lat="31.344271585489626" lon="-6.161676434551075"><ele>1577.0</ele><time>2026-05-04T16:20:55Z</time></trkpt><trkpt lat="31.344149029211987" lon="-6.161822478370248"><ele>1577.0</ele><time>2026-05-04T16:20:56Z</time></trkpt><trkpt lat="31.344022862842777" lon="-6.161965687574907"><ele>1577.0</ele><time>2026-05-04T16:20:57Z</time></trkpt><trkpt lat="31.343886876701088" lon="-6.1621022095377"><ele>1577.0</ele><time>2026-05-04T16:20:58Z</time></trkpt><trkpt lat="31.34375715556463" lon="-6.162240538758426"><ele>1577.0</ele><time>2026-05-04T16:20:59Z</time></trkpt><trkpt lat="31.34362556777871" lon="-6.16237308964847"><ele>1580.0</ele><time>2026-05-04T16:21:00Z</time></trkpt><trkpt lat="31.343491055932187" lon="-6.16249739312485"><ele>1583.0</ele><time>2026-05-04T16:21:01Z</time></trkpt><trkpt lat="31.34335762714033" lon="-6.162617816035575"><ele>1586.0</ele><time>2026-05-04T16:21:02Z</time></trkpt><trkpt lat="31.343240231375255" lon="-6.1627509577308945"><ele>1586.0</ele><time>2026-05-04T16:21:03Z</time></trkpt><trkpt lat="31.343143353671536" lon="-6.162885072973663"><ele>1586.0</ele><time>2026-05-04T16:21:04Z</time></trkpt><trkpt lat="31.343059632392468" lon="-6.1630086433433755"><ele>1586.0</ele><time>2026-05-04T16:21:05Z</time></trkpt><trkpt lat="31.342995767633166" lon="-6.163125402146659"><ele>1586.0</ele><time>2026-05-04T16:21:06.001Z</time></trkpt><trkpt lat="31.34294989691444" lon="-6.163245491087775"><ele>1585.6</ele><time>2026-05-04T16:21:07.001Z</time></trkpt><trkpt lat="31.34297333643554" lon="-6.1634019114623655"><ele>1585.1999999999998</ele><time>2026-05-04T16:21:08.001Z</time></trkpt><trkpt lat="31.342957871451542" lon="-6.163530488152398"><ele>1584.8000000000002</ele><time>2026-05-04T16:21:09.001Z</time></trkpt><trkpt lat="31.342946337400157" lon="-6.16363135619085"><ele>1584.4</ele><time>2026-05-04T16:21:10.001Z</time></trkpt><trkpt lat="31.34286217767528" lon="-6.163721715160082"><ele>1584.0</ele><time>2026-05-04T16:21:12.001Z</time></trkpt><trkpt lat="31.342774526123232" lon="-6.16373540503351"><ele>1584.0</ele><time>2026-05-04T16:21:13.001Z</time></trkpt><trkpt lat="31.342675671754595" lon="-6.163762350618765"><ele>1584.0</ele><time>2026-05-04T16:21:14.001Z</time></trkpt><trkpt lat="31.34258402919211" lon="-6.163814596206161"><ele>1584.0</ele><time>2026-05-04T16:21:15.001Z</time></trkpt><trkpt lat="31.342508245844876" lon="-6.163912393389949"><ele>1584.0</ele><time>2026-05-04T16:21:16.001Z</time></trkpt><trkpt lat="31.342456995291556" lon="-6.164043412836193"><ele>1584.0</ele><time>2026-05-04T16:21:17.001Z</time></trkpt><trkpt lat="31.342429627202783" lon="-6.164185933626522"><ele>1582.75</ele><time>2026-05-04T16:21:18.001Z</time></trkpt><trkpt lat="31.342423820074377" lon="-6.164321015113472"><ele>1581.5</ele><time>2026-05-04T16:21:19.001Z</time></trkpt><trkpt lat="31.342401295121157" lon="-6.164443287624496"><ele>1580.25</ele><time>2026-05-04T16:21:20.001Z</time></trkpt><trkpt lat="31.342345482124102" lon="-6.16456492880835"><ele>1579.0</ele><time>2026-05-04T16:21:21.001Z</time></trkpt><trkpt lat="31.342266764147478" lon="-6.164692441852907"><ele>1577.25</ele><time>2026-05-04T16:21:22.001Z</time></trkpt><trkpt lat="31.342180868318678" lon="-6.164824370841112"><ele>1575.5</ele><time>2026-05-04T16:21:23.001Z</time></trkpt><trkpt lat="31.342092098619638" lon="-6.164959681173142"><ele>1573.75</ele><time>2026-05-04T16:21:24Z</time></trkpt><trkpt lat="31.34199790364248" lon="-6.165078480288145"><ele>1572.0</ele><time>2026-05-04T16:21:25Z</time></trkpt><trkpt lat="31.341893891117756" lon="-6.165167814120675"><ele>1572.0</ele><time>2026-05-04T16:21:26Z</time></trkpt><trkpt lat="31.34178093937968" lon="-6.165227758487869"><ele>1572.0</ele><time>2026-05-04T16:21:27Z</time></trkpt><trkpt lat="31.341667190965094" lon="-6.165276511974626"><ele>1572.0</ele><time>2026-05-04T16:21:28Z</time></trkpt><trkpt lat="31.341564323047397" lon="-6.165324846635496"><ele>1572.0</ele><time>2026-05-04T16:21:29Z</time></trkpt><trkpt lat="31.34145896839926" lon="-6.165371788178746"><ele>1572.6</ele><time>2026-05-04T16:21:30Z</time></trkpt><trkpt lat="31.34136213155188" lon="-6.165418829566245"><ele>1573.1999999999998</ele><time>2026-05-04T16:21:31Z</time></trkpt><trkpt lat="31.34128161454657" lon="-6.165489772949047"><ele>1573.8</ele><time>2026-05-04T16:21:32Z</time></trkpt><trkpt lat="31.341220972581766" lon="-6.16558746033744"><ele>1574.4</ele><time>2026-05-04T16:21:33Z</time></trkpt><trkpt lat="31.341157562216186" lon="-6.1657001839713255"><ele>1575.0</ele><time>2026-05-04T16:21:34Z</time></trkpt><trkpt lat="31.341093926695603" lon="-6.165825030449827"><ele>1575.0</ele><time>2026-05-04T16:21:35Z</time></trkpt><trkpt lat="31.34102884570408" lon="-6.165956516092588"><ele>1575.0</ele><time>2026-05-04T16:21:36Z</time></trkpt><trkpt lat="31.340965151835224" lon="-6.166084016628991"><ele>1575.0</ele><time>2026-05-04T16:21:37Z</time></trkpt><trkpt lat="31.34090134695786" lon="-6.1662090623882735"><ele>1575.0</ele><time>2026-05-04T16:21:38Z</time></trkpt><trkpt lat="31.34084276754853" lon="-6.16633604034592"><ele>1575.0</ele><time>2026-05-04T16:21:39Z</time></trkpt><trkpt lat="31.340817679771092" lon="-6.166484090767693"><ele>1575.0</ele><time>2026-05-04T16:21:40Z</time></trkpt><trkpt lat="31.340798638030556" lon="-6.16661645927997"><ele>1575.0</ele><time>2026-05-04T16:21:41Z</time></trkpt><trkpt lat="31.340783206566893" lon="-6.166755290161707"><ele>1575.0</ele><time>2026-05-04T16:21:42Z</time></trkpt><trkpt lat="31.34078219753123" lon="-6.1668896440384415"><ele>1572.4</ele><time>2026-05-04T16:21:43Z</time></trkpt><trkpt lat="31.340805551158216" lon="-6.167013723136082"><ele>1569.8</ele><time>2026-05-04T16:21:44Z</time></trkpt><trkpt lat="31.34090091107361" lon="-6.167098129642497"><ele>1567.1999999999998</ele><time>2026-05-04T16:21:45Z</time></trkpt><trkpt lat="31.340984580430565" lon="-6.167172772112152"><ele>1564.6</ele><time>2026-05-04T16:21:46Z</time></trkpt><trkpt lat="31.341052425212723" lon="-6.167281675737033"><ele>1562.0</ele><time>2026-05-04T16:21:47Z</time></trkpt><trkpt lat="31.341104359682756" lon="-6.167421578513081"><ele>1559.5</ele><time>2026-05-04T16:21:48Z</time></trkpt><trkpt lat="31.341161098602043" lon="-6.167562464463408"><ele>1557.0</ele><time>2026-05-04T16:21:49Z</time></trkpt><trkpt lat="31.341203380341" lon="-6.167698552981377"><ele>1554.5</ele><time>2026-05-04T16:21:50Z</time></trkpt><trkpt lat="31.34124841200257" lon="-6.167837896701384"><ele>1552.0</ele><time>2026-05-04T16:21:51Z</time></trkpt><trkpt lat="31.341298559095677" lon="-6.167974467479879"><ele>1552.0</ele><time>2026-05-04T16:21:52Z</time></trkpt><trkpt lat="31.341345699117145" lon="-6.168110336495323"><ele>1552.0</ele><time>2026-05-04T16:21:53Z</time></trkpt><trkpt lat="31.34138788833258" lon="-6.168237997134262"><ele>1552.0</ele><time>2026-05-04T16:21:54Z</time></trkpt><trkpt lat="31.34142012664783" lon="-6.168342457389622"><ele>1552.0</ele><time>2026-05-04T16:21:55Z</time></trkpt><trkpt lat="31.341448372348587" lon="-6.168435608148308"><ele>1552.0</ele><time>2026-05-04T16:21:56Z</time></trkpt><trkpt lat="31.341470665468883" lon="-6.168519034712067"><ele>1551.8333333333335</ele><time>2026-05-04T16:21:57Z</time></trkpt><trkpt lat="31.341475079398446" lon="-6.1685966076523036"><ele>1551.6666666666667</ele><time>2026-05-04T16:21:58Z</time></trkpt><trkpt lat="31.34146198985174" lon="-6.168676713241632"><ele>1551.5</ele><time>2026-05-04T16:21:59Z</time></trkpt><trkpt lat="31.34143577267823" lon="-6.168770358027169"><ele>1551.3333333333335</ele><time>2026-05-04T16:22:00Z</time></trkpt><trkpt lat="31.34140452797496" lon="-6.168886521654284"><ele>1551.1666666666667</ele><time>2026-05-04T16:22:01Z</time></trkpt><trkpt lat="31.341359382310895" lon="-6.169018203870955"><ele>1551.0</ele><time>2026-05-04T16:22:02Z</time></trkpt><trkpt lat="31.341320450009245" lon="-6.169151023641949"><ele>1551.0</ele><time>2026-05-04T16:22:03Z</time></trkpt><trkpt lat="31.341279378010835" lon="-6.16928721146036"><ele>1551.0</ele><time>2026-05-04T16:22:04Z</time></trkpt><trkpt lat="31.341245389376567" lon="-6.169420835877187"><ele>1551.0</ele><time>2026-05-04T16:22:05Z</time></trkpt><trkpt lat="31.341213536540693" lon="-6.169549330058217"><ele>1551.0</ele><time>2026-05-04T16:22:06Z</time></trkpt><trkpt lat="31.34117974245457" lon="-6.169673714281584"><ele>1551.0</ele><time>2026-05-04T16:22:07Z</time></trkpt><trkpt lat="31.341148193804568" lon="-6.169799230311624"><ele>1551.0</ele><time>2026-05-04T16:22:08Z</time></trkpt><trkpt lat="31.34106613381401" lon="-6.169873868557509"><ele>1551.0</ele><time>2026-05-04T16:22:09Z</time></trkpt><trkpt lat="31.341031413217934" lon="-6.169996968072255"><ele>1551.0</ele><time>2026-05-04T16:22:10Z</time></trkpt><trkpt lat="31.3410080095033" lon="-6.170110271713802"><ele>1551.0</ele><time>2026-05-04T16:22:11Z</time></trkpt><trkpt lat="31.340986242270652" lon="-6.170208733309014"><ele>1549.6666666666667</ele><time>2026-05-04T16:22:12Z</time></trkpt><trkpt lat="31.340967065886293" lon="-6.1702977507951315"><ele>1548.3333333333335</ele><time>2026-05-04T16:22:13Z</time></trkpt><trkpt lat="31.34093916661402" lon="-6.170377294198119"><ele>1547.0</ele><time>2026-05-04T16:22:14Z</time></trkpt><trkpt lat="31.340896429369312" lon="-6.170454563070075"><ele>1545.6666666666667</ele><time>2026-05-04T16:22:15Z</time></trkpt><trkpt lat="31.34082466593155" lon="-6.170508259631714"><ele>1544.3333333333335</ele><time>2026-05-04T16:22:16Z</time></trkpt><trkpt lat="31.340746983941813" lon="-6.1705412111073725"><ele>1543.0</ele><time>2026-05-04T16:22:17Z</time></trkpt><trkpt lat="31.340681846824637" lon="-6.170564550075241"><ele>1543.0</ele><time>2026-05-04T16:22:18Z</time></trkpt><trkpt lat="31.34060014214643" lon="-6.170616618230605"><ele>1543.0</ele><time>2026-05-04T16:22:20Z</time></trkpt><trkpt lat="31.34051562888433" lon="-6.170641716316716"><ele>1543.0</ele><time>2026-05-04T16:22:22Z</time></trkpt><trkpt lat="31.340412706678894" lon="-6.1706479462808295"><ele>1543.0</ele><time>2026-05-04T16:22:24Z</time></trkpt><trkpt lat="31.340318234742146" lon="-6.1706369543002735"><ele>1543.0</ele><time>2026-05-04T16:22:26Z</time></trkpt><trkpt lat="31.340232989586493" lon="-6.170630721712176"><ele>1543.0</ele><time>2026-05-04T16:22:28Z</time></trkpt><trkpt lat="31.340153234387465" lon="-6.170640779530016"><ele>1543.0</ele><time>2026-05-04T16:22:30Z</time></trkpt><trkpt lat="31.340047469067127" lon="-6.170695016894418"><ele>1543.0</ele><time>2026-05-04T16:22:32Z</time></trkpt><trkpt lat="31.339973096283938" lon="-6.170734115901857"><ele>1543.0</ele><time>2026-05-04T16:22:33Z</time></trkpt><trkpt lat="31.339871272840742" lon="-6.170783265045649"><ele>1543.0</ele><time>2026-05-04T16:22:34Z</time></trkpt><trkpt lat="31.339753980526996" lon="-6.170819840656481"><ele>1541.2</ele><time>2026-05-04T16:22:35Z</time></trkpt><trkpt lat="31.339645016502462" lon="-6.170835594031336"><ele>1539.4</ele><time>2026-05-04T16:22:36Z</time></trkpt><trkpt lat="31.33955388991977" lon="-6.1708437808360665"><ele>1537.6000000000001</ele><time>2026-05-04T16:22:37Z</time></trkpt><trkpt lat="31.339458954155152" lon="-6.170831099496647"><ele>1535.8000000000002</ele><time>2026-05-04T16:22:38Z</time></trkpt><trkpt lat="31.339356156122488" lon="-6.170795180554327"><ele>1534.0</ele><time>2026-05-04T16:22:39Z</time></trkpt><trkpt lat="31.339244020563306" lon="-6.170758262066477"><ele>1534.0</ele><time>2026-05-04T16:22:40Z</time></trkpt><trkpt lat="31.33914309261818" lon="-6.1707230415536065"><ele>1534.0</ele><time>2026-05-04T16:22:41Z</time></trkpt><trkpt lat="31.33906893047782" lon="-6.170710903753599"><ele>1534.0</ele><time>2026-05-04T16:22:42Z</time></trkpt><trkpt lat="31.33900264753545" lon="-6.170700881001489"><ele>1534.0</ele><time>2026-05-04T16:22:43Z</time></trkpt><trkpt lat="31.3388899487631" lon="-6.170692935637013"><ele>1534.0</ele><time>2026-05-04T16:22:45Z</time></trkpt><trkpt lat="31.338746639773007" lon="-6.170731197226433"><ele>1535.0</ele><time>2026-05-04T16:22:47Z</time></trkpt><trkpt lat="31.33867666636423" lon="-6.170772484541793"><ele>1536.0</ele><time>2026-05-04T16:22:48Z</time></trkpt><trkpt lat="31.338591568577574" lon="-6.170821360282446"><ele>1537.0</ele><time>2026-05-04T16:22:49Z</time></trkpt><trkpt lat="31.338502311202042" lon="-6.170870430880864"><ele>1538.0</ele><time>2026-05-04T16:22:50Z</time></trkpt><trkpt lat="31.33840482839949" lon="-6.170908290557864"><ele>1539.0</ele><time>2026-05-04T16:22:51Z</time></trkpt><trkpt lat="31.3382922687597" lon="-6.170961664386677"><ele>1539.0</ele><time>2026-05-04T16:22:52Z</time></trkpt><trkpt lat="31.338197888015358" lon="-6.171016719269226"><ele>1539.0</ele><time>2026-05-04T16:22:53.001Z</time></trkpt><trkpt lat="31.33811267728627" lon="-6.171078454983142"><ele>1539.0</ele><time>2026-05-04T16:22:54.001Z</time></trkpt><trkpt lat="31.338041367623738" lon="-6.171134097905841"><ele>1539.0</ele><time>2026-05-04T16:22:55.001Z</time></trkpt><trkpt lat="31.337975904073087" lon="-6.1711733660056876"><ele>1539.0</ele><time>2026-05-04T16:22:56.001Z</time></trkpt><trkpt lat="31.33787077085259" lon="-6.171255515258099"><ele>1538.25</ele><time>2026-05-04T16:22:58.001Z</time></trkpt><trkpt lat="31.33775873267589" lon="-6.171343178510599"><ele>1537.5</ele><time>2026-05-04T16:23:00.001Z</time></trkpt><trkpt lat="31.33766889615518" lon="-6.171413112252313"><ele>1536.75</ele><time>2026-05-04T16:23:01.001Z</time></trkpt><trkpt lat="31.33757743846023" lon="-6.171487883617245"><ele>1536.0</ele><time>2026-05-04T16:23:02.001Z</time></trkpt><trkpt lat="31.337487904330537" lon="-6.1715666145369905"><ele>1536.0</ele><time>2026-05-04T16:23:03.001Z</time></trkpt><trkpt lat="31.337393765183464" lon="-6.171642489420733"><ele>1536.0</ele><time>2026-05-04T16:23:04.001Z</time></trkpt><trkpt lat="31.337298118340687" lon="-6.171714676624576"><ele>1536.0</ele><time>2026-05-04T16:23:05.001Z</time></trkpt><trkpt lat="31.33719707524833" lon="-6.171800563801812"><ele>1536.0</ele><time>2026-05-04T16:23:06.001Z</time></trkpt><trkpt lat="31.337091930615202" lon="-6.171890004471433"><ele>1536.5</ele><time>2026-05-04T16:23:07.001Z</time></trkpt><trkpt lat="31.33697595015755" lon="-6.171985538171704"><ele>1537.0</ele><time>2026-05-04T16:23:08.001Z</time></trkpt><trkpt lat="31.336861766431635" lon="-6.172064824620576"><ele>1537.5</ele><time>2026-05-04T16:23:09.001Z</time></trkpt><trkpt lat="31.336747646242667" lon="-6.172139440722813"><ele>1538.0</ele><time>2026-05-04T16:23:10.001Z</time></trkpt><trkpt lat="31.33663948550264" lon="-6.1722118555941075"><ele>1538.0</ele><time>2026-05-04T16:23:11.001Z</time></trkpt><trkpt lat="31.336532835955566" lon="-6.172290964081894"><ele>1538.0</ele><time>2026-05-04T16:23:12.001Z</time></trkpt><trkpt lat="31.33642309338188" lon="-6.172372249359014"><ele>1538.0</ele><time>2026-05-04T16:23:13.001Z</time></trkpt><trkpt lat="31.33631481959644" lon="-6.17245068900339"><ele>1538.0</ele><time>2026-05-04T16:23:14.001Z</time></trkpt><trkpt lat="31.336221766944025" lon="-6.172532107894152"><ele>1538.0</ele><time>2026-05-04T16:23:15.001Z</time></trkpt><trkpt lat="31.336144972098115" lon="-6.172629853451788"><ele>1538.0</ele><time>2026-05-04T16:23:16.001Z</time></trkpt><trkpt lat="31.336076003233615" lon="-6.172753133604466"><ele>1538.0</ele><time>2026-05-04T16:23:17.001Z</time></trkpt><trkpt lat="31.33603029979705" lon="-6.172883505755733"><ele>1538.0</ele><time>2026-05-04T16:23:18.001Z</time></trkpt><trkpt lat="31.336000991652035" lon="-6.173011986859674"><ele>1538.0</ele><time>2026-05-04T16:23:19.001Z</time></trkpt><trkpt lat="31.335969071170478" lon="-6.17313087142884"><ele>1538.0</ele><time>2026-05-04T16:23:20.001Z</time></trkpt><trkpt lat="31.33592875388642" lon="-6.173240077275393"><ele>1538.0</ele><time>2026-05-04T16:23:21.001Z</time></trkpt><trkpt lat="31.33583783829026" lon="-6.173419359167419"><ele>1538.0</ele><time>2026-05-04T16:23:23.001Z</time></trkpt><trkpt lat="31.335770841256263" lon="-6.1735465526431135"><ele>1538.5</ele><time>2026-05-04T16:23:24.001Z</time></trkpt><trkpt lat="31.335707531682043" lon="-6.1736913864167855"><ele>1539.0</ele><time>2026-05-04T16:23:25.001Z</time></trkpt><trkpt lat="31.335640827772856" lon="-6.173843386715952"><ele>1539.5</ele><time>2026-05-04T16:23:26.001Z</time></trkpt><trkpt lat="31.335567045230956" lon="-6.173995904308059"><ele>1540.0</ele><time>2026-05-04T16:23:27.001Z</time></trkpt><trkpt lat="31.335495417282083" lon="-6.174156256736758"><ele>1540.0</ele><time>2026-05-04T16:23:28.001Z</time></trkpt><trkpt lat="31.33543175516573" lon="-6.174323380005628"><ele>1540.0</ele><time>2026-05-04T16:23:29.001Z</time></trkpt><trkpt lat="31.3353746246669" lon="-6.174493398073738"><ele>1540.0</ele><time>2026-05-04T16:23:30Z</time></trkpt><trkpt lat="31.335324224652215" lon="-6.174655303306344"><ele>1540.0</ele><time>2026-05-04T16:23:31Z</time></trkpt><trkpt lat="31.335292846255165" lon="-6.174807494358473"><ele>1540.0</ele><time>2026-05-04T16:23:32Z</time></trkpt><trkpt lat="31.335256750384385" lon="-6.17495666335286"><ele>1540.0</ele><time>2026-05-04T16:23:33Z</time></trkpt><trkpt lat="31.33520202174581" lon="-6.175106008439396"><ele>1540.0</ele><time>2026-05-04T16:23:34Z</time></trkpt><trkpt lat="31.335130312713435" lon="-6.1752583549411195"><ele>1538.6666666666667</ele><time>2026-05-04T16:23:35Z</time></trkpt><trkpt lat="31.33505139644524" lon="-6.175410352859281"><ele>1537.3333333333335</ele><time>2026-05-04T16:23:36Z</time></trkpt><trkpt lat="31.33496882346941" lon="-6.175565341391474"><ele>1536.0</ele><time>2026-05-04T16:23:37Z</time></trkpt><trkpt lat="31.3348804985025" lon="-6.175722223891354"><ele>1533.6666666666667</ele><time>2026-05-04T16:23:38Z</time></trkpt><trkpt lat="31.334789773243035" lon="-6.175876959749209"><ele>1531.3333333333335</ele><time>2026-05-04T16:23:39Z</time></trkpt><trkpt lat="31.334702149256326" lon="-6.176020857538392"><ele>1529.0</ele><time>2026-05-04T16:23:40Z</time></trkpt><trkpt lat="31.334620055668836" lon="-6.1761551072247105"><ele>1530.0</ele><time>2026-05-04T16:23:41Z</time></trkpt><trkpt lat="31.334541791497553" lon="-6.176293296405183"><ele>1531.0</ele><time>2026-05-04T16:23:42Z</time></trkpt><trkpt lat="31.33447314645562" lon="-6.176441725694799"><ele>1532.0</ele><time>2026-05-04T16:23:43Z</time></trkpt><trkpt lat="31.334407121238577" lon="-6.176601984926555"><ele>1533.0</ele><time>2026-05-04T16:23:44Z</time></trkpt><trkpt lat="31.334345764126237" lon="-6.1767458033352485"><ele>1533.0</ele><time>2026-05-04T16:23:45Z</time></trkpt><trkpt lat="31.334288678359346" lon="-6.1768930409355205"><ele>1533.0</ele><time>2026-05-04T16:23:46Z</time></trkpt><trkpt lat="31.33424048590591" lon="-6.177049279198206"><ele>1533.0</ele><time>2026-05-04T16:23:47Z</time></trkpt><trkpt lat="31.334194492229212" lon="-6.1772088202831705"><ele>1533.0</ele><time>2026-05-04T16:23:48Z</time></trkpt><trkpt lat="31.33414419121486" lon="-6.177365099519609"><ele>1531.75</ele><time>2026-05-04T16:23:49Z</time></trkpt><trkpt lat="31.334092357144332" lon="-6.1775248883086284"><ele>1530.5</ele><time>2026-05-04T16:23:50Z</time></trkpt><trkpt lat="31.334050940878214" lon="-6.177675039462394"><ele>1529.25</ele><time>2026-05-04T16:23:51Z</time></trkpt><trkpt lat="31.334006701266905" lon="-6.177821307973763"><ele>1528.0</ele><time>2026-05-04T16:23:52Z</time></trkpt><trkpt lat="31.33396861562684" lon="-6.177977804093791"><ele>1528.0</ele><time>2026-05-04T16:23:53Z</time></trkpt><trkpt lat="31.333930508854948" lon="-6.178140589127614"><ele>1528.0</ele><time>2026-05-04T16:23:54Z</time></trkpt><trkpt lat="31.333885863418992" lon="-6.178306584842832"><ele>1528.0</ele><time>2026-05-04T16:23:55Z</time></trkpt><trkpt lat="31.33384394002008" lon="-6.1784710222577734"><ele>1528.0</ele><time>2026-05-04T16:23:56Z</time></trkpt><trkpt lat="31.33380367501794" lon="-6.178630958239053"><ele>1533.5</ele><time>2026-05-04T16:23:57Z</time></trkpt><trkpt lat="31.333764418045284" lon="-6.178778873759687"><ele>1539.0</ele><time>2026-05-04T16:23:58Z</time></trkpt><trkpt lat="31.33372703918331" lon="-6.178921104613152"><ele>1544.5</ele><time>2026-05-04T16:23:59Z</time></trkpt><trkpt lat="31.333693943411735" lon="-6.17906012533981"><ele>1550.0</ele><time>2026-05-04T16:24:00Z</time></trkpt><trkpt lat="31.333674843689465" lon="-6.1791942401437625"><ele>1550.0</ele><time>2026-05-04T16:24:01Z</time></trkpt><trkpt lat="31.333652766341228" lon="-6.179317314979533"><ele>1550.0</ele><time>2026-05-04T16:24:02Z</time></trkpt><trkpt lat="31.333628949180163" lon="-6.179431130797657"><ele>1550.0</ele><time>2026-05-04T16:24:03Z</time></trkpt><trkpt lat="31.333608861534216" lon="-6.179533194616948"><ele>1550.0</ele><time>2026-05-04T16:24:04Z</time></trkpt><trkpt lat="31.333587327556053" lon="-6.179631978554399"><ele>1550.0</ele><time>2026-05-04T16:24:05Z</time></trkpt><trkpt lat="31.333561877833493" lon="-6.179735844201176"><ele>1550.0</ele><time>2026-05-04T16:24:06Z</time></trkpt><trkpt lat="31.33352364154359" lon="-6.179848110085461"><ele>1550.0</ele><time>2026-05-04T16:24:07Z</time></trkpt><trkpt lat="31.333480540453888" lon="-6.179969833815641"><ele>1550.0</ele><time>2026-05-04T16:24:08Z</time></trkpt><trkpt lat="31.333403567059023" lon="-6.180079445410228"><ele>1550.0</ele><time>2026-05-04T16:24:09Z</time></trkpt><trkpt lat="31.33332802412356" lon="-6.180172879258122"><ele>1550.0</ele><time>2026-05-04T16:24:10Z</time></trkpt><trkpt lat="31.333254575163636" lon="-6.180256109475185"><ele>1551.0</ele><time>2026-05-04T16:24:11Z</time></trkpt><trkpt lat="31.333192827998648" lon="-6.180337120970814"><ele>1552.0</ele><time>2026-05-04T16:24:12Z</time></trkpt><trkpt lat="31.33314043588386" lon="-6.180429174546352"><ele>1553.0</ele><time>2026-05-04T16:24:13Z</time></trkpt><trkpt lat="31.333089483629873" lon="-6.180541503322739"><ele>1554.0</ele><time>2026-05-04T16:24:14Z</time></trkpt><trkpt lat="31.333041239077623" lon="-6.180658060222829"><ele>1555.0</ele><time>2026-05-04T16:24:15Z</time></trkpt><trkpt lat="31.332991901568615" lon="-6.180774564309652"><ele>1555.0</ele><time>2026-05-04T16:24:16Z</time></trkpt><trkpt lat="31.332941788489975" lon="-6.180887970925249"><ele>1555.0</ele><time>2026-05-04T16:24:17Z</time></trkpt><trkpt lat="31.33287984609234" lon="-6.180986690097102"><ele>1555.0</ele><time>2026-05-04T16:24:18Z</time></trkpt><trkpt lat="31.332837910367783" lon="-6.1810995228278784"><ele>1555.0</ele><time>2026-05-04T16:24:19Z</time></trkpt><trkpt lat="31.332798237076382" lon="-6.181217959345111"><ele>1555.0</ele><time>2026-05-04T16:24:20Z</time></trkpt><trkpt lat="31.332753690345736" lon="-6.181338694130594"><ele>1555.0</ele><time>2026-05-04T16:24:21Z</time></trkpt><trkpt lat="31.332718781084417" lon="-6.181466652071744"><ele>1555.0</ele><time>2026-05-04T16:24:22Z</time></trkpt><trkpt lat="31.332690111083217" lon="-6.181590976895511"><ele>1555.0</ele><time>2026-05-04T16:24:23Z</time></trkpt><trkpt lat="31.332669081069124" lon="-6.181709312427497"><ele>1555.0</ele><time>2026-05-04T16:24:24Z</time></trkpt><trkpt lat="31.332668460639177" lon="-6.181824906352075"><ele>1555.0</ele><time>2026-05-04T16:24:25Z</time></trkpt><trkpt lat="31.332672042545322" lon="-6.181937659677879"><ele>1549.6</ele><time>2026-05-04T16:24:26Z</time></trkpt><trkpt lat="31.332668274412242" lon="-6.182054003431676"><ele>1544.2</ele><time>2026-05-04T16:24:27Z</time></trkpt><trkpt lat="31.332659018068536" lon="-6.1821814275384055"><ele>1538.8000000000002</ele><time>2026-05-04T16:24:28Z</time></trkpt><trkpt lat="31.33264925321836" lon="-6.182319989667122"><ele>1533.4</ele><time>2026-05-04T16:24:29Z</time></trkpt><trkpt lat="31.332628113356712" lon="-6.182460367184279"><ele>1528.0</ele><time>2026-05-04T16:24:30Z</time></trkpt><trkpt lat="31.33259922819048" lon="-6.18259192339405"><ele>1525.8000000000002</ele><time>2026-05-04T16:24:31Z</time></trkpt><trkpt lat="31.332567361671632" lon="-6.182711691373804"><ele>1523.6</ele><time>2026-05-04T16:24:32Z</time></trkpt><trkpt lat="31.332533121606453" lon="-6.1828250207483535"><ele>1521.4</ele><time>2026-05-04T16:24:33Z</time></trkpt><trkpt lat="31.33249685220271" lon="-6.1829321092418335"><ele>1519.1999999999998</ele><time>2026-05-04T16:24:34Z</time></trkpt><trkpt lat="31.33246176436995" lon="-6.183029744103491"><ele>1517.0</ele><time>2026-05-04T16:24:35Z</time></trkpt><trkpt lat="31.33242120672736" lon="-6.183116876677227"><ele>1516.3333333333335</ele><time>2026-05-04T16:24:36Z</time></trkpt><trkpt lat="31.33237816345397" lon="-6.183197140985534"><ele>1515.6666666666667</ele><time>2026-05-04T16:24:37Z</time></trkpt><trkpt lat="31.332334524952753" lon="-6.183265985054033"><ele>1515.0</ele><time>2026-05-04T16:24:38Z</time></trkpt><trkpt lat="31.332268119494923" lon="-6.183345248486117"><ele>1514.3333333333333</ele><time>2026-05-04T16:24:40Z</time></trkpt><trkpt lat="31.33221826975091" lon="-6.1834221285242466"><ele>1513.6666666666665</ele><time>2026-05-04T16:24:43Z</time></trkpt><trkpt lat="31.33215302989698" lon="-6.1834535365351915"><ele>1513.0</ele><time>2026-05-04T16:24:48.001Z</time></trkpt><trkpt lat="31.33208279112381" lon="-6.18346578401508"><ele>1513.0</ele><time>2026-05-04T16:25:36Z</time></trkpt><trkpt lat="31.332020163912798" lon="-6.183505380619109"><ele>1513.0</ele><time>2026-05-04T16:25:37Z</time></trkpt><trkpt lat="31.33193887637342" lon="-6.183518377132841"><ele>1513.0</ele><time>2026-05-04T16:25:38Z</time></trkpt><trkpt lat="31.331835456224844" lon="-6.183525334804241"><ele>1513.0</ele><time>2026-05-04T16:25:39Z</time></trkpt><trkpt lat="31.33171315098311" lon="-6.183509926435839"><ele>1513.0</ele><time>2026-05-04T16:25:40Z</time></trkpt><trkpt lat="31.331583048857564" lon="-6.183460589608255"><ele>1513.0</ele><time>2026-05-04T16:25:41Z</time></trkpt><trkpt lat="31.331472605537826" lon="-6.183402753601506"><ele>1513.0</ele><time>2026-05-04T16:25:42Z</time></trkpt><trkpt lat="31.33138200329746" lon="-6.183341037185651"><ele>1513.0</ele><time>2026-05-04T16:25:43Z</time></trkpt><trkpt lat="31.331300551414945" lon="-6.183283132781906"><ele>1513.0</ele><time>2026-05-04T16:25:44Z</time></trkpt><trkpt lat="31.331212099442386" lon="-6.183213066791465"><ele>1513.0</ele><time>2026-05-04T16:25:46Z</time></trkpt><trkpt lat="31.331155328377793" lon="-6.183141575882988"><ele>1513.0</ele><time>2026-05-04T16:25:47Z</time></trkpt><trkpt lat="31.331101173889294" lon="-6.182980155629693"><ele>1513.0</ele><time>2026-05-04T16:25:49Z</time></trkpt><trkpt lat="31.33103727226618" lon="-6.182891290447302"><ele>1513.0</ele><time>2026-05-04T16:25:50Z</time></trkpt><trkpt lat="31.330978599179502" lon="-6.18276820747969"><ele>1513.0</ele><time>2026-05-04T16:25:51Z</time></trkpt><trkpt lat="31.330907752242723" lon="-6.182650718042768"><ele>1513.0</ele><time>2026-05-04T16:25:52Z</time></trkpt><trkpt lat="31.33082056716258" lon="-6.182500794405773"><ele>1513.0</ele><time>2026-05-04T16:25:53Z</time></trkpt><trkpt lat="31.330762466162476" lon="-6.18235683247257"><ele>1513.0</ele><time>2026-05-04T16:25:54Z</time></trkpt><trkpt lat="31.33070020429457" lon="-6.182195829503733"><ele>1513.0</ele><time>2026-05-04T16:25:55Z</time></trkpt><trkpt lat="31.330639224988076" lon="-6.1820211599770625"><ele>1513.0</ele><time>2026-05-04T16:25:56Z</time></trkpt><trkpt lat="31.330579520166452" lon="-6.181847035671539"><ele>1513.0</ele><time>2026-05-04T16:25:57Z</time></trkpt><trkpt lat="31.33052945210601" lon="-6.181700303336922"><ele>1513.0</ele><time>2026-05-04T16:25:58Z</time></trkpt><trkpt lat="31.33050765808535" lon="-6.181536540936161"><ele>1513.0</ele><time>2026-05-04T16:25:59Z</time></trkpt><trkpt lat="31.33049520971522" lon="-6.181381712231733"><ele>1513.0</ele><time>2026-05-04T16:26:00Z</time></trkpt><trkpt lat="31.330505516936487" lon="-6.181215220472191"><ele>1513.0</ele><time>2026-05-04T16:26:01Z</time></trkpt><trkpt lat="31.330519170899322" lon="-6.181043789813314"><ele>1513.0</ele><time>2026-05-04T16:26:02Z</time></trkpt><trkpt lat="31.33054518792869" lon="-6.180875734642816"><ele>1513.0</ele><time>2026-05-04T16:26:03Z</time></trkpt><trkpt lat="31.330566267074133" lon="-6.180691629061699"><ele>1522.0</ele><time>2026-05-04T16:26:04Z</time></trkpt><trkpt lat="31.33058842392616" lon="-6.180492686063111"><ele>1531.0</ele><time>2026-05-04T16:26:05Z</time></trkpt><trkpt lat="31.330609558037718" lon="-6.180294929560747"><ele>1540.0</ele><time>2026-05-04T16:26:06Z</time></trkpt><trkpt lat="31.33063490306926" lon="-6.1800872548541825"><ele>1540.0</ele><time>2026-05-04T16:26:07Z</time></trkpt><trkpt lat="31.33066626691851" lon="-6.1799087367957695"><ele>1540.0</ele><time>2026-05-04T16:26:08Z</time></trkpt><trkpt lat="31.330709222401445" lon="-6.17973653110363"><ele>1540.0</ele><time>2026-05-04T16:26:09Z</time></trkpt><trkpt lat="31.330741961578738" lon="-6.1795764332771315"><ele>1541.0</ele><time>2026-05-04T16:26:10Z</time></trkpt><trkpt lat="31.330770953724127" lon="-6.179416903163865"><ele>1542.0</ele><time>2026-05-04T16:26:11Z</time></trkpt><trkpt lat="31.33078328227078" lon="-6.179260038818277"><ele>1543.0</ele><time>2026-05-04T16:26:12Z</time></trkpt><trkpt lat="31.33077888491654" lon="-6.179101909562641"><ele>1544.0</ele><time>2026-05-04T16:26:13Z</time></trkpt><trkpt lat="31.33077050843181" lon="-6.178932590176591"><ele>1546.0</ele><time>2026-05-04T16:26:14Z</time></trkpt><trkpt lat="31.330745011494297" lon="-6.17876232007886"><ele>1548.0</ele><time>2026-05-04T16:26:15Z</time></trkpt><trkpt lat="31.330698376685678" lon="-6.178618149968901"><ele>1550.0</ele><time>2026-05-04T16:26:16Z</time></trkpt><trkpt lat="31.330647278721656" lon="-6.178456603379654"><ele>1552.0</ele><time>2026-05-04T16:26:17Z</time></trkpt><trkpt lat="31.330593512338385" lon="-6.178310197990354"><ele>1552.5</ele><time>2026-05-04T16:26:18Z</time></trkpt><trkpt lat="31.330538593066617" lon="-6.178175368413837"><ele>1553.0</ele><time>2026-05-04T16:26:19Z</time></trkpt><trkpt lat="31.330493739244137" lon="-6.178036318568001"><ele>1553.5</ele><time>2026-05-04T16:26:20Z</time></trkpt><trkpt lat="31.330471752891548" lon="-6.177884382944413"><ele>1554.0</ele><time>2026-05-04T16:26:21Z</time></trkpt><trkpt lat="31.330471710101772" lon="-6.177732106816089"><ele>1554.0</ele><time>2026-05-04T16:26:22Z</time></trkpt><trkpt lat="31.330476473821932" lon="-6.177608159854925"><ele>1554.0</ele><time>2026-05-04T16:26:23Z</time></trkpt><trkpt lat="31.330485961238637" lon="-6.177493008955941"><ele>1554.0</ele><time>2026-05-04T16:26:24Z</time></trkpt><trkpt lat="31.330494688785727" lon="-6.177415226607762"><ele>1554.0</ele><time>2026-05-04T16:26:25Z</time></trkpt><trkpt lat="31.330500509862624" lon="-6.177340349741101"><ele>1554.0</ele><time>2026-05-04T16:26:26Z</time></trkpt><trkpt lat="31.330505892598847" lon="-6.177246270101636"><ele>1554.0</ele><time>2026-05-04T16:26:27Z</time></trkpt><trkpt lat="31.330480460332957" lon="-6.177165163211286"><ele>1557.0</ele><time>2026-05-04T16:26:28Z</time></trkpt><trkpt lat="31.330436292165935" lon="-6.177101318510276"><ele>1560.0</ele><time>2026-05-04T16:26:29Z</time></trkpt><trkpt lat="31.33037958389021" lon="-6.17702054800044"><ele>1563.0</ele><time>2026-05-04T16:26:30Z</time></trkpt><trkpt lat="31.3303128269007" lon="-6.176910592090857"><ele>1566.0</ele><time>2026-05-04T16:26:31Z</time></trkpt><trkpt lat="31.33024176925743" lon="-6.17678781069055"><ele>1569.0</ele><time>2026-05-04T16:26:32Z</time></trkpt><trkpt lat="31.330169028659668" lon="-6.176648532976853"><ele>1568.25</ele><time>2026-05-04T16:26:33Z</time></trkpt><trkpt lat="31.33010293458336" lon="-6.176493758508531"><ele>1567.5</ele><time>2026-05-04T16:26:34Z</time></trkpt><trkpt lat="31.330060709616752" lon="-6.176355246014885"><ele>1566.75</ele><time>2026-05-04T16:26:35Z</time></trkpt><trkpt lat="31.33002297443339" lon="-6.17622593670026"><ele>1566.0</ele><time>2026-05-04T16:26:36Z</time></trkpt><trkpt lat="31.329984263171408" lon="-6.176084826025154"><ele>1566.0</ele><time>2026-05-04T16:26:37Z</time></trkpt><trkpt lat="31.329948814756566" lon="-6.175936688493502"><ele>1566.0</ele><time>2026-05-04T16:26:38Z</time></trkpt><trkpt lat="31.329918438662606" lon="-6.175795520314621"><ele>1566.0</ele><time>2026-05-04T16:26:39Z</time></trkpt><trkpt lat="31.329888441020792" lon="-6.175650999261583"><ele>1566.0</ele><time>2026-05-04T16:26:40Z</time></trkpt><trkpt lat="31.32985686857428" lon="-6.175521234885813"><ele>1566.0</ele><time>2026-05-04T16:26:41Z</time></trkpt><trkpt lat="31.32981183841987" lon="-6.175385780535282"><ele>1566.0</ele><time>2026-05-04T16:26:42Z</time></trkpt><trkpt lat="31.329763514328167" lon="-6.175245635828107"><ele>1566.0</ele><time>2026-05-04T16:26:43Z</time></trkpt><trkpt lat="31.329714996734904" lon="-6.17510938926265"><ele>1566.0</ele><time>2026-05-04T16:26:44Z</time></trkpt><trkpt lat="31.329668602986768" lon="-6.174980995822646"><ele>1562.5</ele><time>2026-05-04T16:26:45Z</time></trkpt><trkpt lat="31.329625461170156" lon="-6.174861162295242"><ele>1559.0</ele><time>2026-05-04T16:26:46Z</time></trkpt><trkpt lat="31.329581645182856" lon="-6.17473905446002"><ele>1555.5</ele><time>2026-05-04T16:26:47Z</time></trkpt><trkpt lat="31.329539853689315" lon="-6.1746124935058635"><ele>1552.0</ele><time>2026-05-04T16:26:48Z</time></trkpt><trkpt lat="31.329499827649247" lon="-6.174488503150523"><ele>1552.0</ele><time>2026-05-04T16:26:49Z</time></trkpt><trkpt lat="31.329457183486127" lon="-6.174364310311654"><ele>1552.0</ele><time>2026-05-04T16:26:50Z</time></trkpt><trkpt lat="31.329409601976096" lon="-6.174229962154844"><ele>1552.0</ele><time>2026-05-04T16:26:51Z</time></trkpt><trkpt lat="31.329352806178417" lon="-6.1741160836634466"><ele>1552.0</ele><time>2026-05-04T16:26:52Z</time></trkpt><trkpt lat="31.32928680209199" lon="-6.17401217633387"><ele>1553.0</ele><time>2026-05-04T16:26:53Z</time></trkpt><trkpt lat="31.329214215362427" lon="-6.173890502646804"><ele>1554.0</ele><time>2026-05-04T16:26:54Z</time></trkpt><trkpt lat="31.329140804473376" lon="-6.173758024661692"><ele>1555.0</ele><time>2026-05-04T16:26:55Z</time></trkpt><trkpt lat="31.329075247912588" lon="-6.173625500250118"><ele>1556.0</ele><time>2026-05-04T16:26:56Z</time></trkpt><trkpt lat="31.32901891337908" lon="-6.173492206811052"><ele>1556.0</ele><time>2026-05-04T16:26:57Z</time></trkpt><trkpt lat="31.328970558912207" lon="-6.17335185362107"><ele>1556.0</ele><time>2026-05-04T16:26:58Z</time></trkpt><trkpt lat="31.328930126827668" lon="-6.173200500164056"><ele>1556.0</ele><time>2026-05-04T16:26:59Z</time></trkpt><trkpt lat="31.328893866580664" lon="-6.173040226489005"><ele>1556.0</ele><time>2026-05-04T16:27:00Z</time></trkpt><trkpt lat="31.32886155343068" lon="-6.1728550914175875"><ele>1555.6666666666665</ele><time>2026-05-04T16:27:01Z</time></trkpt><trkpt lat="31.328829840689693" lon="-6.172664887665063"><ele>1555.3333333333335</ele><time>2026-05-04T16:27:02.001Z</time></trkpt><trkpt lat="31.32879890067655" lon="-6.172440381012842"><ele>1555.0</ele><time>2026-05-04T16:27:03.001Z</time></trkpt><trkpt lat="31.328771375871906" lon="-6.172228435997763"><ele>1553.0</ele><time>2026-05-04T16:27:04.001Z</time></trkpt><trkpt lat="31.328745278507554" lon="-6.172031263814424"><ele>1551.0</ele><time>2026-05-04T16:27:05.001Z</time></trkpt><trkpt lat="31.328719351023548" lon="-6.171832843904909"><ele>1549.0</ele><time>2026-05-04T16:27:06.001Z</time></trkpt><trkpt lat="31.3286955141002" lon="-6.171650599275301"><ele>1547.0</ele><time>2026-05-04T16:27:07.001Z</time></trkpt><trkpt lat="31.328673795906912" lon="-6.1714845534662155"><ele>1545.0</ele><time>2026-05-04T16:27:08.001Z</time></trkpt><trkpt lat="31.32865213274727" lon="-6.1713190331465135"><ele>1543.0</ele><time>2026-05-04T16:27:09.001Z</time></trkpt><trkpt lat="31.32862742214143" lon="-6.171181988625451"><ele>1541.0</ele><time>2026-05-04T16:27:10.001Z</time></trkpt><trkpt lat="31.32858979333814" lon="-6.171077378306689"><ele>1540.9999999999998</ele><time>2026-05-04T16:27:11.001Z</time></trkpt><trkpt lat="31.328541765100148" lon="-6.171011980612492"><ele>1541.0</ele><time>2026-05-04T16:27:12.001Z</time></trkpt><trkpt lat="31.32848297397487" lon="-6.1709525423685205"><ele>1541.0</ele><time>2026-05-04T16:27:13.001Z</time></trkpt><trkpt lat="31.328414024430185" lon="-6.170924699851939"><ele>1541.0</ele><time>2026-05-04T16:27:14.001Z</time></trkpt><trkpt lat="31.328324176204788" lon="-6.170923598420744"><ele>1540.9999999999998</ele><time>2026-05-04T16:27:15.001Z</time></trkpt><trkpt lat="31.328200307683858" lon="-6.170895877188066"><ele>1541.0</ele><time>2026-05-04T16:27:16.001Z</time></trkpt><trkpt lat="31.328084281363886" lon="-6.1708589231633795"><ele>1540.6</ele><time>2026-05-04T16:27:17.001Z</time></trkpt><trkpt lat="31.32797775678757" lon="-6.170821104180229"><ele>1540.1999999999998</ele><time>2026-05-04T16:27:18.001Z</time></trkpt><trkpt lat="31.327884478379406" lon="-6.170796876016245"><ele>1539.8000000000002</ele><time>2026-05-04T16:27:19.001Z</time></trkpt><trkpt lat="31.327790577338586" lon="-6.17077472318503"><ele>1539.4</ele><time>2026-05-04T16:27:20.001Z</time></trkpt><trkpt lat="31.327701927911804" lon="-6.170760546957227"><ele>1539.0</ele><time>2026-05-04T16:27:21.001Z</time></trkpt><trkpt lat="31.327605431996794" lon="-6.1707463259557755"><ele>1539.0</ele><time>2026-05-04T16:27:22.001Z</time></trkpt><trkpt lat="31.32750982873322" lon="-6.17073223651503"><ele>1539.0</ele><time>2026-05-04T16:27:23.001Z</time></trkpt><trkpt lat="31.327410546527656" lon="-6.170717604927867"><ele>1539.0</ele><time>2026-05-04T16:27:24.001Z</time></trkpt><trkpt lat="31.32730386328864" lon="-6.170702179953267"><ele>1539.0</ele><time>2026-05-04T16:27:25.001Z</time></trkpt><trkpt lat="31.32719932123858" lon="-6.170687107581468"><ele>1539.0</ele><time>2026-05-04T16:27:26.001Z</time></trkpt><trkpt lat="31.32708888985279" lon="-6.170670787619326"><ele>1537.5</ele><time>2026-05-04T16:27:27.001Z</time></trkpt><trkpt lat="31.326961821389503" lon="-6.170650668714742"><ele>1536.0</ele><time>2026-05-04T16:27:28.001Z</time></trkpt><trkpt lat="31.32684026428421" lon="-6.170618694603589"><ele>1534.5</ele><time>2026-05-04T16:27:29.001Z</time></trkpt><trkpt lat="31.32667411329746" lon="-6.170524327223137"><ele>1533.0</ele><time>2026-05-04T16:27:30.001Z</time></trkpt><trkpt lat="31.326585094817606" lon="-6.170424733749113"><ele>1533.0</ele><time>2026-05-04T16:27:31.001Z</time></trkpt><trkpt lat="31.3265107310165" lon="-6.17034355761883"><ele>1533.0</ele><time>2026-05-04T16:27:32.001Z</time></trkpt><trkpt lat="31.326450010603352" lon="-6.170177968834759"><ele>1533.0</ele><time>2026-05-04T16:27:33.001Z</time></trkpt><trkpt lat="31.326392907298086" lon="-6.170062258583734"><ele>1533.0</ele><time>2026-05-04T16:27:34.001Z</time></trkpt><trkpt lat="31.326330430184214" lon="-6.169934777305026"><ele>1534.6666666666665</ele><time>2026-05-04T16:27:35.001Z</time></trkpt><trkpt lat="31.32626968298884" lon="-6.169775799397326"><ele>1536.3333333333333</ele><time>2026-05-04T16:27:36.001Z</time></trkpt><trkpt lat="31.3262136682059" lon="-6.169597334135107"><ele>1538.0</ele><time>2026-05-04T16:27:37.001Z</time></trkpt><trkpt lat="31.326165680349302" lon="-6.169428419009281"><ele>1538.0</ele><time>2026-05-04T16:27:38.001Z</time></trkpt><trkpt lat="31.326127701173007" lon="-6.169279540223387"><ele>1538.0</ele><time>2026-05-04T16:27:39.001Z</time></trkpt><trkpt lat="31.32609327330893" lon="-6.169138728718965"><ele>1538.0</ele><time>2026-05-04T16:27:40.001Z</time></trkpt><trkpt lat="31.32606069759549" lon="-6.168996384764972"><ele>1538.0</ele><time>2026-05-04T16:27:41.001Z</time></trkpt><trkpt lat="31.326032335408925" lon="-6.168868623347042"><ele>1537.9999999999998</ele><time>2026-05-04T16:27:42Z</time></trkpt><trkpt lat="31.326006175043165" lon="-6.168763157412507"><ele>1538.0</ele><time>2026-05-04T16:27:43Z</time></trkpt><trkpt lat="31.325978474787068" lon="-6.16865451278823"><ele>1538.0</ele><time>2026-05-04T16:27:44Z</time></trkpt><trkpt lat="31.325942578928014" lon="-6.168585666967719"><ele>1538.0</ele><time>2026-05-04T16:27:45Z</time></trkpt><trkpt lat="31.325853208778422" lon="-6.16852967579983"><ele>1537.9999999999998</ele><time>2026-05-04T16:27:47Z</time></trkpt><trkpt lat="31.325782005024983" lon="-6.168515502077454"><ele>1538.0</ele><time>2026-05-04T16:27:48Z</time></trkpt><trkpt lat="31.325683371073094" lon="-6.168534931547338"><ele>1540.75</ele><time>2026-05-04T16:27:49Z</time></trkpt><trkpt lat="31.325561345421054" lon="-6.168576359406677"><ele>1543.5</ele><time>2026-05-04T16:27:50Z</time></trkpt><trkpt lat="31.325430160061256" lon="-6.1686565855637525"><ele>1546.25</ele><time>2026-05-04T16:27:51Z</time></trkpt><trkpt lat="31.325303116777338" lon="-6.168762817378975"><ele>1549.0</ele><time>2026-05-04T16:27:52Z</time></trkpt><trkpt lat="31.325179901952197" lon="-6.168860547686706"><ele>1549.0</ele><time>2026-05-04T16:27:53Z</time></trkpt><trkpt lat="31.3250595703263" lon="-6.168951221961932"><ele>1549.0</ele><time>2026-05-04T16:27:54Z</time></trkpt><trkpt lat="31.324963290579298" lon="-6.1690760767445"><ele>1549.0</ele><time>2026-05-04T16:27:55Z</time></trkpt><trkpt lat="31.324877811467545" lon="-6.169207823604618"><ele>1549.0</ele><time>2026-05-04T16:27:56Z</time></trkpt><trkpt lat="31.32480325477704" lon="-6.169328511859118"><ele>1549.0</ele><time>2026-05-04T16:27:57Z</time></trkpt><trkpt lat="31.324738421918624" lon="-6.169427365657276"><ele>1549.0</ele><time>2026-05-04T16:27:58Z</time></trkpt><trkpt lat="31.324668814546246" lon="-6.169508020192225"><ele>1549.0</ele><time>2026-05-04T16:27:59Z</time></trkpt><trkpt lat="31.32460457513066" lon="-6.169592815403543"><ele>1549.0</ele><time>2026-05-04T16:28:00Z</time></trkpt><trkpt lat="31.324529272796095" lon="-6.16967288278376"><ele>1549.0</ele><time>2026-05-04T16:28:01Z</time></trkpt><trkpt lat="31.324441265914636" lon="-6.169735941814641"><ele>1551.5</ele><time>2026-05-04T16:28:02Z</time></trkpt><trkpt lat="31.32435652870669" lon="-6.169773314508795"><ele>1554.0</ele><time>2026-05-04T16:28:03Z</time></trkpt><trkpt lat="31.324218356913676" lon="-6.169798007382617"><ele>1556.5</ele><time>2026-05-04T16:28:04Z</time></trkpt><trkpt lat="31.32407949348008" lon="-6.169811166388012"><ele>1559.0</ele><time>2026-05-04T16:28:05Z</time></trkpt><trkpt lat="31.32392994623838" lon="-6.1698248382649625"><ele>1559.0</ele><time>2026-05-04T16:28:06Z</time></trkpt><trkpt lat="31.32379425679106" lon="-6.169837243235557"><ele>1559.0</ele><time>2026-05-04T16:28:07Z</time></trkpt><trkpt lat="31.32366577674675" lon="-6.169851297493618"><ele>1559.0</ele><time>2026-05-04T16:28:08Z</time></trkpt><trkpt lat="31.323537385222227" lon="-6.1698657925547336"><ele>1559.0</ele><time>2026-05-04T16:28:09Z</time></trkpt><trkpt lat="31.323410698711072" lon="-6.169880182333972"><ele>1559.0</ele><time>2026-05-04T16:28:10Z</time></trkpt><trkpt lat="31.323287114433146" lon="-6.169890786055259"><ele>1559.0</ele><time>2026-05-04T16:28:11Z</time></trkpt><trkpt lat="31.32316846237638" lon="-6.1699006349705146"><ele>1559.0</ele><time>2026-05-04T16:28:12Z</time></trkpt><trkpt lat="31.32306397432969" lon="-6.169909326550625"><ele>1559.0</ele><time>2026-05-04T16:28:13Z</time></trkpt><trkpt lat="31.322951409353582" lon="-6.169918741073107"><ele>1558.75</ele><time>2026-05-04T16:28:14Z</time></trkpt><trkpt lat="31.322830193518552" lon="-6.1699280145287005"><ele>1558.5</ele><time>2026-05-04T16:28:15Z</time></trkpt><trkpt lat="31.32270022739413" lon="-6.169937288582098"><ele>1558.25</ele><time>2026-05-04T16:28:16Z</time></trkpt><trkpt lat="31.3225670900388" lon="-6.169948053200775"><ele>1558.0</ele><time>2026-05-04T16:28:17Z</time></trkpt><trkpt lat="31.322437024847588" lon="-6.16996240845338"><ele>1558.0</ele><time>2026-05-04T16:28:18Z</time></trkpt><trkpt lat="31.322307162933843" lon="-6.169980680348662"><ele>1558.0</ele><time>2026-05-04T16:28:19Z</time></trkpt><trkpt lat="31.322169188053874" lon="-6.170017459964439"><ele>1558.0</ele><time>2026-05-04T16:28:20Z</time></trkpt><trkpt lat="31.322028696592362" lon="-6.17006344883137"><ele>1558.0</ele><time>2026-05-04T16:28:21Z</time></trkpt><trkpt lat="31.32188737647701" lon="-6.170115899841331"><ele>1557.3333333333335</ele><time>2026-05-04T16:28:22Z</time></trkpt><trkpt lat="31.321727524942073" lon="-6.170152393754754"><ele>1556.6666666666665</ele><time>2026-05-04T16:28:23Z</time></trkpt><trkpt lat="31.321558355412492" lon="-6.1701567439666025"><ele>1556.0</ele><time>2026-05-04T16:28:24Z</time></trkpt><trkpt lat="31.32138740896628" lon="-6.170156164987582"><ele>1555.0</ele><time>2026-05-04T16:28:25Z</time></trkpt><trkpt lat="31.32123111913897" lon="-6.170147564022618"><ele>1554.0</ele><time>2026-05-04T16:28:26Z</time></trkpt><trkpt lat="31.321086335602654" lon="-6.170160472022436"><ele>1553.0</ele><time>2026-05-04T16:28:27Z</time></trkpt><trkpt lat="31.32094492869858" lon="-6.170193299798576"><ele>1552.0</ele><time>2026-05-04T16:28:28Z</time></trkpt><trkpt lat="31.32082220829305" lon="-6.170281202883014"><ele>1552.0</ele><time>2026-05-04T16:28:29Z</time></trkpt><trkpt lat="31.320702048623136" lon="-6.170375223491076"><ele>1552.0</ele><time>2026-05-04T16:28:30Z</time></trkpt><trkpt lat="31.320589726762286" lon="-6.170462536842541"><ele>1552.0</ele><time>2026-05-04T16:28:31Z</time></trkpt><trkpt lat="31.320475809104586" lon="-6.170540626560967"><ele>1552.0</ele><time>2026-05-04T16:28:32Z</time></trkpt><trkpt lat="31.320366561656957" lon="-6.170596852733542"><ele>1550.5</ele><time>2026-05-04T16:28:33Z</time></trkpt><trkpt lat="31.32026258450679" lon="-6.170640773618223"><ele>1549.0</ele><time>2026-05-04T16:28:34Z</time></trkpt><trkpt lat="31.32016297989677" lon="-6.170697668949391"><ele>1547.5</ele><time>2026-05-04T16:28:35Z</time></trkpt><trkpt lat="31.32002795661906" lon="-6.170734534127724"><ele>1546.0</ele><time>2026-05-04T16:28:36Z</time></trkpt><trkpt lat="31.31988622545331" lon="-6.170737921685919"><ele>1546.0</ele><time>2026-05-04T16:28:37Z</time></trkpt><trkpt lat="31.319753610237157" lon="-6.170749837588636"><ele>1546.0</ele><time>2026-05-04T16:28:38Z</time></trkpt><trkpt lat="31.319606819009977" lon="-6.170775162830794"><ele>1546.0</ele><time>2026-05-04T16:28:39Z</time></trkpt><trkpt lat="31.319453839708498" lon="-6.170836580335268"><ele>1546.0</ele><time>2026-05-04T16:28:40Z</time></trkpt><trkpt lat="31.319292062771478" lon="-6.170907418151234"><ele>1545.3333333333335</ele><time>2026-05-04T16:28:41Z</time></trkpt><trkpt lat="31.319137938403586" lon="-6.170979152387516"><ele>1544.6666666666665</ele><time>2026-05-04T16:28:42Z</time></trkpt><trkpt lat="31.31898966536756" lon="-6.171045144477476"><ele>1544.0</ele><time>2026-05-04T16:28:43Z</time></trkpt><trkpt lat="31.318849444955237" lon="-6.171107606433892"><ele>1545.0</ele><time>2026-05-04T16:28:44Z</time></trkpt><trkpt lat="31.318706454280083" lon="-6.171157230153319"><ele>1546.0</ele><time>2026-05-04T16:28:45Z</time></trkpt><trkpt lat="31.318589648476998" lon="-6.171211814639822"><ele>1547.0</ele><time>2026-05-04T16:28:46Z</time></trkpt><trkpt lat="31.318481688580356" lon="-6.171272877521813"><ele>1548.0</ele><time>2026-05-04T16:28:47Z</time></trkpt><trkpt lat="31.318380401330028" lon="-6.17134569624374"><ele>1548.0</ele><time>2026-05-04T16:28:48Z</time></trkpt><trkpt lat="31.318305240743538" lon="-6.171474904024004"><ele>1548.0</ele><time>2026-05-04T16:28:49Z</time></trkpt><trkpt lat="31.318239185484803" lon="-6.171605509953097"><ele>1548.0</ele><time>2026-05-04T16:28:50Z</time></trkpt><trkpt lat="31.318166642633464" lon="-6.171695530856922"><ele>1548.0</ele><time>2026-05-04T16:28:51Z</time></trkpt><trkpt lat="31.31808452386047" lon="-6.17178204619851"><ele>1546.0</ele><time>2026-05-04T16:28:52Z</time></trkpt><trkpt lat="31.31795079201243" lon="-6.171849986381021"><ele>1544.0</ele><time>2026-05-04T16:28:53Z</time></trkpt><trkpt lat="31.317803655273444" lon="-6.1718887497380495"><ele>1542.0</ele><time>2026-05-04T16:28:54Z</time></trkpt><trkpt lat="31.31768819314558" lon="-6.1719197978190055"><ele>1540.0</ele><time>2026-05-04T16:28:55Z</time></trkpt><trkpt lat="31.317562700780993" lon="-6.171956527523111"><ele>1540.0</ele><time>2026-05-04T16:28:56Z</time></trkpt><trkpt lat="31.31744059651661" lon="-6.171999985638983"><ele>1540.0</ele><time>2026-05-04T16:28:57Z</time></trkpt><trkpt lat="31.31733767251702" lon="-6.172038601555817"><ele>1540.0</ele><time>2026-05-04T16:28:58Z</time></trkpt><trkpt lat="31.31725787757816" lon="-6.172066127696577"><ele>1540.0</ele><time>2026-05-04T16:28:59Z</time></trkpt><trkpt lat="31.3171849442049" lon="-6.172087214124211"><ele>1540.0</ele><time>2026-05-04T16:29:00Z</time></trkpt><trkpt lat="31.31707312243782" lon="-6.1720503577442445"><ele>1537.8333333333335</ele><time>2026-05-04T16:29:01Z</time></trkpt><trkpt lat="31.316979206943305" lon="-6.1719650447445815"><ele>1535.6666666666667</ele><time>2026-05-04T16:29:02Z</time></trkpt><trkpt lat="31.316900011562243" lon="-6.171885634960611"><ele>1533.5</ele><time>2026-05-04T16:29:03Z</time></trkpt><trkpt lat="31.31683903584449" lon="-6.171844074473902"><ele>1531.3333333333335</ele><time>2026-05-04T16:29:04Z</time></trkpt><trkpt lat="31.316773987566425" lon="-6.17182600566962"><ele>1529.1666666666667</ele><time>2026-05-04T16:29:05Z</time></trkpt><trkpt lat="31.316694175204326" lon="-6.171831387738758"><ele>1527.0</ele><time>2026-05-04T16:29:06Z</time></trkpt><trkpt lat="31.316594046617663" lon="-6.171850436731698"><ele>1527.0</ele><time>2026-05-04T16:29:07Z</time></trkpt><trkpt lat="31.316495948699647" lon="-6.171882322607875"><ele>1527.0</ele><time>2026-05-04T16:29:08Z</time></trkpt><trkpt lat="31.316406346810325" lon="-6.171911823418875"><ele>1527.0</ele><time>2026-05-04T16:29:09Z</time></trkpt><trkpt lat="31.316330025115054" lon="-6.17192333108465"><ele>1527.0</ele><time>2026-05-04T16:29:10Z</time></trkpt><trkpt lat="31.31626638589458" lon="-6.17192038609099"><ele>1527.0</ele><time>2026-05-04T16:29:11Z</time></trkpt><trkpt lat="31.3161879200607" lon="-6.171893277817682"><ele>1527.0</ele><time>2026-05-04T16:29:12Z</time></trkpt><trkpt lat="31.316109942001994" lon="-6.171778346764373"><ele>1526.8333333333333</ele><time>2026-05-04T16:29:13Z</time></trkpt><trkpt lat="31.316072379749023" lon="-6.171664322089648"><ele>1526.6666666666667</ele><time>2026-05-04T16:29:14Z</time></trkpt><trkpt lat="31.316003659988233" lon="-6.17159840757923"><ele>1526.5</ele><time>2026-05-04T16:29:15Z</time></trkpt><trkpt lat="31.315935421953068" lon="-6.171562234636134"><ele>1526.3333333333335</ele><time>2026-05-04T16:29:16Z</time></trkpt><trkpt lat="31.315857519970965" lon="-6.171545376548574"><ele>1526.1666666666667</ele><time>2026-05-04T16:29:17Z</time></trkpt><trkpt lat="31.315766729880206" lon="-6.1715381672687295"><ele>1526.0</ele><time>2026-05-04T16:29:18Z</time></trkpt><trkpt lat="31.315626635871677" lon="-6.171522809058954"><ele>1524.75</ele><time>2026-05-04T16:29:19Z</time></trkpt><trkpt lat="31.315486521275197" lon="-6.171486053036692"><ele>1523.5</ele><time>2026-05-04T16:29:20.001Z</time></trkpt><trkpt lat="31.31537893114929" lon="-6.17146023476818"><ele>1522.25</ele><time>2026-05-04T16:29:21.001Z</time></trkpt><trkpt lat="31.315276966959246" lon="-6.171444398938523"><ele>1521.0</ele><time>2026-05-04T16:29:22.001Z</time></trkpt><trkpt lat="31.315176736974063" lon="-6.171424707573253"><ele>1521.0</ele><time>2026-05-04T16:29:23.001Z</time></trkpt><trkpt lat="31.315071502985766" lon="-6.171382896687457"><ele>1521.0</ele><time>2026-05-04T16:29:24.001Z</time></trkpt><trkpt lat="31.314946372005714" lon="-6.171264958579806"><ele>1521.0</ele><time>2026-05-04T16:29:25.001Z</time></trkpt><trkpt lat="31.314850396483475" lon="-6.1711672935060005"><ele>1521.0</ele><time>2026-05-04T16:29:26.001Z</time></trkpt><trkpt lat="31.314760115703603" lon="-6.171080685934807"><ele>1519.4</ele><time>2026-05-04T16:29:27.001Z</time></trkpt><trkpt lat="31.31466062561257" lon="-6.17102297875159"><ele>1517.8</ele><time>2026-05-04T16:29:28.001Z</time></trkpt><trkpt lat="31.314554694152353" lon="-6.171006148955296"><ele>1516.2</ele><time>2026-05-04T16:29:29.001Z</time></trkpt><trkpt lat="31.31444141128223" lon="-6.1710160422077225"><ele>1514.6000000000001</ele><time>2026-05-04T16:29:30.001Z</time></trkpt><trkpt lat="31.314328940660868" lon="-6.171016939401531"><ele>1513.0</ele><time>2026-05-04T16:29:31.001Z</time></trkpt><trkpt lat="31.314212227999327" lon="-6.171018830734674"><ele>1513.0</ele><time>2026-05-04T16:29:32.001Z</time></trkpt><trkpt lat="31.31408670405893" lon="-6.17101078456334"><ele>1513.0</ele><time>2026-05-04T16:29:33.001Z</time></trkpt><trkpt lat="31.313968045883115" lon="-6.170962227172393"><ele>1513.0</ele><time>2026-05-04T16:29:34.001Z</time></trkpt><trkpt lat="31.313852746972486" lon="-6.170866958249709"><ele>1513.0</ele><time>2026-05-04T16:29:35.001Z</time></trkpt><trkpt lat="31.3137476263506" lon="-6.170761796573055"><ele>1512.0</ele><time>2026-05-04T16:29:36.001Z</time></trkpt><trkpt lat="31.31364382854804" lon="-6.170646462987351"><ele>1511.0</ele><time>2026-05-04T16:29:37.001Z</time></trkpt><trkpt lat="31.31352769394112" lon="-6.170497570354868"><ele>1510.0</ele><time>2026-05-04T16:29:38.001Z</time></trkpt><trkpt lat="31.313435983870992" lon="-6.1704045447964475"><ele>1509.0</ele><time>2026-05-04T16:29:39.001Z</time></trkpt><trkpt lat="31.313317731135022" lon="-6.170331628987884"><ele>1509.0</ele><time>2026-05-04T16:29:40.001Z</time></trkpt><trkpt lat="31.313170904863743" lon="-6.1702899274691045"><ele>1509.0</ele><time>2026-05-04T16:29:41.001Z</time></trkpt><trkpt lat="31.312988144760062" lon="-6.170224923022087"><ele>1509.0</ele><time>2026-05-04T16:29:42.001Z</time></trkpt><trkpt lat="31.312820796569465" lon="-6.170169547630239"><ele>1507.3333333333333</ele><time>2026-05-04T16:29:43.001Z</time></trkpt><trkpt lat="31.312661795938805" lon="-6.170120248691589"><ele>1505.6666666666665</ele><time>2026-05-04T16:29:44.001Z</time></trkpt><trkpt lat="31.312514595081534" lon="-6.170074800042953"><ele>1504.0</ele><time>2026-05-04T16:29:45.001Z</time></trkpt><trkpt lat="31.312367187352443" lon="-6.170026460133766"><ele>1503.75</ele><time>2026-05-04T16:29:46.001Z</time></trkpt><trkpt lat="31.312228906389837" lon="-6.16997894187594"><ele>1503.5</ele><time>2026-05-04T16:29:47.001Z</time></trkpt><trkpt lat="31.31209679122219" lon="-6.1699338484758846"><ele>1503.25</ele><time>2026-05-04T16:29:48Z</time></trkpt><trkpt lat="31.311971602977476" lon="-6.169891402609333"><ele>1503.0</ele><time>2026-05-04T16:29:49Z</time></trkpt><trkpt lat="31.311835209974507" lon="-6.169832914200462"><ele>1503.0</ele><time>2026-05-04T16:29:50Z</time></trkpt><trkpt lat="31.311704208100085" lon="-6.1697741878561905"><ele>1503.0</ele><time>2026-05-04T16:29:51Z</time></trkpt><trkpt lat="31.311568247876423" lon="-6.1696975072933125"><ele>1503.0</ele><time>2026-05-04T16:29:52Z</time></trkpt><trkpt lat="31.31144572218765" lon="-6.169621741885936"><ele>1503.0</ele><time>2026-05-04T16:29:53Z</time></trkpt><trkpt lat="31.31133257326668" lon="-6.169550457452358"><ele>1499.6000000000001</ele><time>2026-05-04T16:29:54Z</time></trkpt><trkpt lat="31.311227668165763" lon="-6.169482081407091"><ele>1496.2</ele><time>2026-05-04T16:29:55Z</time></trkpt><trkpt lat="31.311131336109344" lon="-6.169432294929919"><ele>1492.8</ele><time>2026-05-04T16:29:56Z</time></trkpt><trkpt lat="31.31106637412984" lon="-6.169382286382373"><ele>1489.4</ele><time>2026-05-04T16:29:57Z</time></trkpt><trkpt lat="31.310995345937982" lon="-6.169294338636664"><ele>1486.0</ele><time>2026-05-04T16:29:58Z</time></trkpt><trkpt lat="31.310952635240064" lon="-6.169177838580621"><ele>1486.0</ele><time>2026-05-04T16:29:59Z</time></trkpt><trkpt lat="31.310952260168715" lon="-6.169037584329405"><ele>1486.0</ele><time>2026-05-04T16:30:00Z</time></trkpt><trkpt lat="31.310961251962187" lon="-6.1689018972897065"><ele>1486.0</ele><time>2026-05-04T16:30:01Z</time></trkpt><trkpt lat="31.310987897377156" lon="-6.168754436720833"><ele>1486.0</ele><time>2026-05-04T16:30:02Z</time></trkpt><trkpt lat="31.311042669765005" lon="-6.168591345148414"><ele>1485.75</ele><time>2026-05-04T16:30:03Z</time></trkpt><trkpt lat="31.311096899125335" lon="-6.168442723135578"><ele>1485.5</ele><time>2026-05-04T16:30:04Z</time></trkpt><trkpt lat="31.31116936100152" lon="-6.1682777982410135"><ele>1485.25</ele><time>2026-05-04T16:30:05Z</time></trkpt><trkpt lat="31.311239693004875" lon="-6.168134519050561"><ele>1485.0</ele><time>2026-05-04T16:30:06Z</time></trkpt><trkpt lat="31.311304177798064" lon="-6.168002795249884"><ele>1484.5</ele><time>2026-05-04T16:30:07Z</time></trkpt><trkpt lat="31.3113649652457" lon="-6.167878624559629"><ele>1484.0</ele><time>2026-05-04T16:30:08Z</time></trkpt><trkpt lat="31.311451577473377" lon="-6.167768499824356"><ele>1483.5</ele><time>2026-05-04T16:30:09Z</time></trkpt><trkpt lat="31.311534157463417" lon="-6.167662492312357"><ele>1483.0</ele><time>2026-05-04T16:30:10Z</time></trkpt><trkpt lat="31.31162002748822" lon="-6.167553011245306"><ele>1483.5</ele><time>2026-05-04T16:30:11Z</time></trkpt><trkpt lat="31.311705150997977" lon="-6.167448639238033"><ele>1484.0</ele><time>2026-05-04T16:30:12Z</time></trkpt><trkpt lat="31.31180678505168" lon="-6.167354671183089"><ele>1484.5</ele><time>2026-05-04T16:30:13Z</time></trkpt><trkpt lat="31.31189623655006" lon="-6.167276437490048"><ele>1485.0</ele><time>2026-05-04T16:30:14Z</time></trkpt><trkpt lat="31.311983471351407" lon="-6.167198080883794"><ele>1485.0</ele><time>2026-05-04T16:30:15Z</time></trkpt><trkpt lat="31.312071083137834" lon="-6.167119071072177"><ele>1485.0</ele><time>2026-05-04T16:30:16Z</time></trkpt><trkpt lat="31.312151718918024" lon="-6.167031552256885"><ele>1485.0</ele><time>2026-05-04T16:30:17Z</time></trkpt><trkpt lat="31.3122316262733" lon="-6.166944594881252"><ele>1485.0</ele><time>2026-05-04T16:30:18Z</time></trkpt><trkpt lat="31.312287659277743" lon="-6.166840311348033"><ele>1485.0</ele><time>2026-05-04T16:30:19Z</time></trkpt><trkpt lat="31.31249095522829" lon="-6.166541484590004"><ele>1485.0</ele><time>2026-05-04T16:30:23Z</time></trkpt><trkpt lat="31.31254301107304" lon="-6.166463661132405"><ele>1485.0</ele><time>2026-05-04T16:30:25Z</time></trkpt><trkpt lat="31.31259308475339" lon="-6.166388200307363"><ele>1485.0</ele><time>2026-05-04T16:30:26Z</time></trkpt><trkpt lat="31.312640131147962" lon="-6.166317301592423"><ele>1485.0</ele><time>2026-05-04T16:30:27Z</time></trkpt><trkpt lat="31.312682509239128" lon="-6.166253437984334"><ele>1485.0</ele><time>2026-05-04T16:30:28Z</time></trkpt><trkpt lat="31.312728039831004" lon="-6.166184823564643"><ele>1485.0</ele><time>2026-05-04T16:30:29Z</time></trkpt><trkpt lat="31.312778955097592" lon="-6.166108135614833"><ele>1485.0</ele><time>2026-05-04T16:30:30Z</time></trkpt><trkpt lat="31.312835617226696" lon="-6.166022830638848"><ele>1485.0</ele><time>2026-05-04T16:30:31Z</time></trkpt><trkpt lat="31.31289598785416" lon="-6.165931864938351"><ele>1485.0</ele><time>2026-05-04T16:30:32Z</time></trkpt><trkpt lat="31.31296434534532" lon="-6.16585779233445"><ele>1485.0</ele><time>2026-05-04T16:30:33Z</time></trkpt><trkpt lat="31.31301629123756" lon="-6.165752560839377"><ele>1485.0</ele><time>2026-05-04T16:30:34Z</time></trkpt><trkpt lat="31.313087260325503" lon="-6.165669215326328"><ele>1487.6</ele><time>2026-05-04T16:30:35Z</time></trkpt><trkpt lat="31.313135954897064" lon="-6.165590760556857"><ele>1490.2</ele><time>2026-05-04T16:30:36Z</time></trkpt><trkpt lat="31.313192798870308" lon="-6.1654970850236275"><ele>1492.8000000000002</ele><time>2026-05-04T16:30:37Z</time></trkpt><trkpt lat="31.313254225818717" lon="-6.165387280866374"><ele>1495.4</ele><time>2026-05-04T16:30:38Z</time></trkpt><trkpt lat="31.313308360124626" lon="-6.165267774610885"><ele>1498.0</ele><time>2026-05-04T16:30:39Z</time></trkpt><trkpt lat="31.31335117882942" lon="-6.165147299086786"><ele>1498.0</ele><time>2026-05-04T16:30:40Z</time></trkpt><trkpt lat="31.313353929500952" lon="-6.165010490766564"><ele>1498.0</ele><time>2026-05-04T16:30:41Z</time></trkpt><trkpt lat="31.31336864458647" lon="-6.1648665987930835"><ele>1498.0</ele><time>2026-05-04T16:30:42Z</time></trkpt><trkpt lat="31.313389827611648" lon="-6.164712837364701"><ele>1498.0</ele><time>2026-05-04T16:30:43Z</time></trkpt><trkpt lat="31.31342500055447" lon="-6.1645702876091635"><ele>1497.0</ele><time>2026-05-04T16:30:44Z</time></trkpt><trkpt lat="31.313448289222997" lon="-6.164433729625858"><ele>1496.0</ele><time>2026-05-04T16:30:45Z</time></trkpt><trkpt lat="31.313443187902806" lon="-6.164289186529244"><ele>1495.0</ele><time>2026-05-04T16:30:46Z</time></trkpt><trkpt lat="31.31344273676856" lon="-6.164140512448839"><ele>1494.0</ele><time>2026-05-04T16:30:47Z</time></trkpt><trkpt lat="31.313419974274563" lon="-6.16398426320509"><ele>1493.75</ele><time>2026-05-04T16:30:48Z</time></trkpt><trkpt lat="31.313377217474468" lon="-6.163828467573504"><ele>1493.5</ele><time>2026-05-04T16:30:49Z</time></trkpt><trkpt lat="31.313337058529257" lon="-6.163685670845657"><ele>1493.25</ele><time>2026-05-04T16:30:50Z</time></trkpt><trkpt lat="31.313299183628377" lon="-6.163556767197977"><ele>1493.0</ele><time>2026-05-04T16:30:51Z</time></trkpt><trkpt lat="31.313294914928818" lon="-6.163457367523187"><ele>1493.0</ele><time>2026-05-04T16:30:52Z</time></trkpt><trkpt lat="31.313276062332513" lon="-6.163349802311196"><ele>1493.0</ele><time>2026-05-04T16:30:54Z</time></trkpt><trkpt lat="31.313275306969985" lon="-6.163270414451691"><ele>1493.0</ele><time>2026-05-04T16:30:55Z</time></trkpt><trkpt lat="31.313284460291147" lon="-6.1631751973508475"><ele>1493.0</ele><time>2026-05-04T16:30:56Z</time></trkpt><trkpt lat="31.31330300185551" lon="-6.163077629040486"><ele>1493.0</ele><time>2026-05-04T16:30:57Z</time></trkpt><trkpt lat="31.313327216884982" lon="-6.162979254405191"><ele>1493.0</ele><time>2026-05-04T16:30:58Z</time></trkpt><trkpt lat="31.313335562818118" lon="-6.162872152155916"><ele>1493.0</ele><time>2026-05-04T16:30:59Z</time></trkpt><trkpt lat="31.313353349593868" lon="-6.162765947788136"><ele>1493.0</ele><time>2026-05-04T16:31:00Z</time></trkpt><trkpt lat="31.31337067935516" lon="-6.16266159422611"><ele>1493.0</ele><time>2026-05-04T16:31:01Z</time></trkpt><trkpt lat="31.313396579305135" lon="-6.162551993835433"><ele>1493.0</ele><time>2026-05-04T16:31:02Z</time></trkpt><trkpt lat="31.313399677957594" lon="-6.1624441142215245"><ele>1493.0</ele><time>2026-05-04T16:31:03Z</time></trkpt><trkpt lat="31.313406753893076" lon="-6.162341104370051"><ele>1493.1666666666667</ele><time>2026-05-04T16:31:04Z</time></trkpt><trkpt lat="31.313415213901795" lon="-6.162236866651311"><ele>1493.3333333333335</ele><time>2026-05-04T16:31:05Z</time></trkpt><trkpt lat="31.31342324187976" lon="-6.1621321199946175"><ele>1493.5</ele><time>2026-05-04T16:31:06Z</time></trkpt><trkpt lat="31.313427572319092" lon="-6.162027384540997"><ele>1493.6666666666667</ele><time>2026-05-04T16:31:07Z</time></trkpt><trkpt lat="31.313433608228927" lon="-6.161923348876053"><ele>1493.8333333333333</ele><time>2026-05-04T16:31:08Z</time></trkpt><trkpt lat="31.313441632588393" lon="-6.161825537550032"><ele>1494.0</ele><time>2026-05-04T16:31:09Z</time></trkpt><trkpt lat="31.31345312206424" lon="-6.161730959427667"><ele>1494.0</ele><time>2026-05-04T16:31:10Z</time></trkpt><trkpt lat="31.313441514572357" lon="-6.161637596123626"><ele>1494.0</ele><time>2026-05-04T16:31:11Z</time></trkpt><trkpt lat="31.313445810346085" lon="-6.161544256443208"><ele>1494.0</ele><time>2026-05-04T16:31:12Z</time></trkpt><trkpt lat="31.31344987398686" lon="-6.161448721102159"><ele>1494.0</ele><time>2026-05-04T16:31:13Z</time></trkpt><trkpt lat="31.313446207997448" lon="-6.161361829024025"><ele>1494.0</ele><time>2026-05-04T16:31:14Z</time></trkpt><trkpt lat="31.313435983739417" lon="-6.16126787877906"><ele>1494.0</ele><time>2026-05-04T16:31:15Z</time></trkpt><trkpt lat="31.3134180474617" lon="-6.161180164051072"><ele>1493.6666666666667</ele><time>2026-05-04T16:31:16Z</time></trkpt><trkpt lat="31.313400342403366" lon="-6.161086372764552"><ele>1493.3333333333333</ele><time>2026-05-04T16:31:17Z</time></trkpt><trkpt lat="31.313371421310226" lon="-6.160999192715372"><ele>1493.0</ele><time>2026-05-04T16:31:18Z</time></trkpt><trkpt lat="31.313340604900972" lon="-6.160902058942754"><ele>1492.6666666666665</ele><time>2026-05-04T16:31:19Z</time></trkpt><trkpt lat="31.313299316592634" lon="-6.160807886635014"><ele>1492.3333333333333</ele><time>2026-05-04T16:31:20Z</time></trkpt><trkpt lat="31.313264063898366" lon="-6.160703352062133"><ele>1492.0</ele><time>2026-05-04T16:31:21Z</time></trkpt><trkpt lat="31.31321520313642" lon="-6.160606579902164"><ele>1492.1999999999998</ele><time>2026-05-04T16:31:22Z</time></trkpt><trkpt lat="31.313161209978762" lon="-6.160510257248838"><ele>1492.4</ele><time>2026-05-04T16:31:23Z</time></trkpt><trkpt lat="31.31307997714949" lon="-6.160437064891078"><ele>1492.6</ele><time>2026-05-04T16:31:24Z</time></trkpt><trkpt lat="31.313006982513993" lon="-6.160352143064725"><ele>1492.8000000000002</ele><time>2026-05-04T16:31:25Z</time></trkpt><trkpt lat="31.312942696537114" lon="-6.1602790734424"><ele>1493.0</ele><time>2026-05-04T16:31:26Z</time></trkpt><trkpt lat="31.31287610120384" lon="-6.160203315111282"><ele>1493.0</ele><time>2026-05-04T16:31:27Z</time></trkpt><trkpt lat="31.312801974225888" lon="-6.160117632399883"><ele>1493.0</ele><time>2026-05-04T16:31:28Z</time></trkpt><trkpt lat="31.31272562250582" lon="-6.160036204252949"><ele>1493.0</ele><time>2026-05-04T16:31:29Z</time></trkpt><trkpt lat="31.312653841892686" lon="-6.15996213419506"><ele>1493.0</ele><time>2026-05-04T16:31:30Z</time></trkpt><trkpt lat="31.31258970383951" lon="-6.159893796947676"><ele>1493.0</ele><time>2026-05-04T16:31:31Z</time></trkpt><trkpt lat="31.3125228043287" lon="-6.159822091059041"><ele>1495.4</ele><time>2026-05-04T16:31:32.001Z</time></trkpt><trkpt lat="31.31246096383072" lon="-6.159732955298499"><ele>1497.8000000000002</ele><time>2026-05-04T16:31:33.001Z</time></trkpt><trkpt lat="31.312403013260326" lon="-6.159634249963098"><ele>1500.2</ele><time>2026-05-04T16:31:34.001Z</time></trkpt><trkpt lat="31.312352597850495" lon="-6.159523164193902"><ele>1502.6</ele><time>2026-05-04T16:31:35.001Z</time></trkpt><trkpt lat="31.312307524838584" lon="-6.159410169999044"><ele>1505.0</ele><time>2026-05-04T16:31:36.001Z</time></trkpt><trkpt lat="31.31226217867277" lon="-6.1592948048501945"><ele>1502.4</ele><time>2026-05-04T16:31:37.001Z</time></trkpt><trkpt lat="31.312217651230075" lon="-6.159179352313042"><ele>1499.8</ele><time>2026-05-04T16:31:38.001Z</time></trkpt><trkpt lat="31.312180333211018" lon="-6.159065520571037"><ele>1497.1999999999998</ele><time>2026-05-04T16:31:39.001Z</time></trkpt><trkpt lat="31.312152037363173" lon="-6.158950889211105"><ele>1494.6</ele><time>2026-05-04T16:31:40.001Z</time></trkpt><trkpt lat="31.312146833539312" lon="-6.158840698628455"><ele>1492.0</ele><time>2026-05-04T16:31:41.001Z</time></trkpt><trkpt lat="31.312142238668958" lon="-6.158723846634507"><ele>1492.0</ele><time>2026-05-04T16:31:42.001Z</time></trkpt><trkpt lat="31.312146261873856" lon="-6.158593531080309"><ele>1492.0</ele><time>2026-05-04T16:31:43.001Z</time></trkpt><trkpt lat="31.312146990264775" lon="-6.158457512481377"><ele>1492.0</ele><time>2026-05-04T16:31:44.001Z</time></trkpt><trkpt lat="31.312154349625136" lon="-6.158322598196905"><ele>1492.0</ele><time>2026-05-04T16:31:45.001Z</time></trkpt><trkpt lat="31.312159489444063" lon="-6.158188382890579"><ele>1493.8</ele><time>2026-05-04T16:31:46.001Z</time></trkpt><trkpt lat="31.312142051465997" lon="-6.158064085877442"><ele>1495.6</ele><time>2026-05-04T16:31:47.001Z</time></trkpt><trkpt lat="31.312109234622024" lon="-6.157949942735218"><ele>1497.3999999999999</ele><time>2026-05-04T16:31:48.001Z</time></trkpt><trkpt lat="31.312063725447842" lon="-6.157858651126368"><ele>1499.1999999999998</ele><time>2026-05-04T16:31:49.001Z</time></trkpt><trkpt lat="31.31200370237324" lon="-6.157785923428039"><ele>1501.0</ele><time>2026-05-04T16:31:50.001Z</time></trkpt><trkpt lat="31.311942974915663" lon="-6.157687884847462"><ele>1501.0</ele><time>2026-05-04T16:31:51.001Z</time></trkpt><trkpt lat="31.31187993795353" lon="-6.157604974635429"><ele>1501.0</ele><time>2026-05-04T16:31:52.001Z</time></trkpt><trkpt lat="31.311823906249757" lon="-6.157531672349255"><ele>1501.0</ele><time>2026-05-04T16:31:53.001Z</time></trkpt><trkpt lat="31.311770290134316" lon="-6.15746601537844"><ele>1501.0</ele><time>2026-05-04T16:31:53.999Z</time></trkpt><trkpt lat="31.31171741910838" lon="-6.157401311320386"><ele>1501.0</ele><time>2026-05-04T16:31:54.999Z</time></trkpt><trkpt lat="31.311659433194162" lon="-6.157330239085923"><ele>1501.0</ele><time>2026-05-04T16:31:55.999Z</time></trkpt><trkpt lat="31.31159478464646" lon="-6.157261652909005"><ele>1500.5</ele><time>2026-05-04T16:31:56.999Z</time></trkpt><trkpt lat="31.311532106466366" lon="-6.1571951572224295"><ele>1500.0</ele><time>2026-05-04T16:31:57.999Z</time></trkpt><trkpt lat="31.31146988429636" lon="-6.157144499730038"><ele>1499.5</ele><time>2026-05-04T16:31:58.999Z</time></trkpt><trkpt lat="31.311409964631157" lon="-6.157094399150967"><ele>1499.0</ele><time>2026-05-04T16:31:59.999Z</time></trkpt><trkpt lat="31.31135652538988" lon="-6.157049735540622"><ele>1498.5</ele><time>2026-05-04T16:32:00.999Z</time></trkpt><trkpt lat="31.311289033563618" lon="-6.157015100425726"><ele>1498.0</ele><time>2026-05-04T16:32:01.999Z</time></trkpt><trkpt lat="31.311217895361" lon="-6.156972955005112"><ele>1498.0</ele><time>2026-05-04T16:32:02.999Z</time></trkpt><trkpt lat="31.311147326664123" lon="-6.156934848201809"><ele>1498.0</ele><time>2026-05-04T16:32:04Z</time></trkpt><trkpt lat="31.311073634540165" lon="-6.1568998560042765"><ele>1498.0</ele><time>2026-05-04T16:32:05Z</time></trkpt><trkpt lat="31.31100041925192" lon="-6.156864766386581"><ele>1498.0</ele><time>2026-05-04T16:32:06Z</time></trkpt><trkpt lat="31.310928916781833" lon="-6.156830343690917"><ele>1498.0</ele><time>2026-05-04T16:32:07Z</time></trkpt><trkpt lat="31.310857277896666" lon="-6.15679585531935"><ele>1498.0</ele><time>2026-05-04T16:32:08Z</time></trkpt><trkpt lat="31.31078455436753" lon="-6.156757284315411"><ele>1498.0</ele><time>2026-05-04T16:32:09Z</time></trkpt><trkpt lat="31.310708417730684" lon="-6.156710787108142"><ele>1498.0</ele><time>2026-05-04T16:32:10Z</time></trkpt><trkpt lat="31.310620051970005" lon="-6.156657018246436"><ele>1498.0</ele><time>2026-05-04T16:32:11Z</time></trkpt><trkpt lat="31.310532358833587" lon="-6.156597338683945"><ele>1498.0</ele><time>2026-05-04T16:32:12Z</time></trkpt><trkpt lat="31.310444140628704" lon="-6.156531014766905"><ele>1498.0</ele><time>2026-05-04T16:32:13Z</time></trkpt><trkpt lat="31.310350133284583" lon="-6.156462855264145"><ele>1496.8000000000002</ele><time>2026-05-04T16:32:14Z</time></trkpt><trkpt lat="31.31024531072414" lon="-6.156403945234"><ele>1495.6</ele><time>2026-05-04T16:32:15Z</time></trkpt><trkpt lat="31.310145639065006" lon="-6.156348928315014"><ele>1494.4</ele><time>2026-05-04T16:32:16Z</time></trkpt><trkpt lat="31.31005464264996" lon="-6.156307273155173"><ele>1493.1999999999998</ele><time>2026-05-04T16:32:17Z</time></trkpt><trkpt lat="31.30995631317259" lon="-6.156265901545236"><ele>1492.0</ele><time>2026-05-04T16:32:18Z</time></trkpt><trkpt lat="31.309850671701053" lon="-6.156226264279595"><ele>1492.0</ele><time>2026-05-04T16:32:19Z</time></trkpt><trkpt lat="31.309746379104027" lon="-6.156194696778221"><ele>1492.0</ele><time>2026-05-04T16:32:20Z</time></trkpt><trkpt lat="31.30963488171217" lon="-6.156160883150259"><ele>1492.0</ele><time>2026-05-04T16:32:21Z</time></trkpt><trkpt lat="31.30952542383334" lon="-6.156136612007026"><ele>1492.0</ele><time>2026-05-04T16:32:22Z</time></trkpt><trkpt lat="31.309413076875124" lon="-6.156116396593883"><ele>1492.0</ele><time>2026-05-04T16:32:23Z</time></trkpt><trkpt lat="31.3092996633994" lon="-6.156098026341605"><ele>1494.0</ele><time>2026-05-04T16:32:24Z</time></trkpt><trkpt lat="31.309190055931747" lon="-6.156094518804136"><ele>1496.0</ele><time>2026-05-04T16:32:25Z</time></trkpt><trkpt lat="31.3090777916202" lon="-6.156096442922286"><ele>1498.0</ele><time>2026-05-04T16:32:26Z</time></trkpt><trkpt lat="31.308961540980295" lon="-6.156103361839328"><ele>1500.0</ele><time>2026-05-04T16:32:27Z</time></trkpt><trkpt lat="31.30883217797091" lon="-6.156111216410159"><ele>1500.0</ele><time>2026-05-04T16:32:28Z</time></trkpt><trkpt lat="31.308707030668273" lon="-6.15611882076645"><ele>1500.0</ele><time>2026-05-04T16:32:29Z</time></trkpt><trkpt lat="31.30858020884756" lon="-6.156126912808059"><ele>1500.0</ele><time>2026-05-04T16:32:30Z</time></trkpt><trkpt lat="31.308450392175466" lon="-6.1561351959446045"><ele>1500.0</ele><time>2026-05-04T16:32:31Z</time></trkpt><trkpt lat="31.308330142163236" lon="-6.1561465609463415"><ele>1500.0</ele><time>2026-05-04T16:32:32Z</time></trkpt><trkpt lat="31.308203490093035" lon="-6.156158817876405"><ele>1500.0</ele><time>2026-05-04T16:32:33Z</time></trkpt><trkpt lat="31.308078421692947" lon="-6.156171350281275"><ele>1500.0</ele><time>2026-05-04T16:32:34.001Z</time></trkpt><trkpt lat="31.30795992540454" lon="-6.156183652840587"><ele>1500.0</ele><time>2026-05-04T16:32:35.001Z</time></trkpt><trkpt lat="31.307846042816458" lon="-6.156190506449731"><ele>1498.6</ele><time>2026-05-04T16:32:36.001Z</time></trkpt><trkpt lat="31.307742976842842" lon="-6.156196903932923"><ele>1497.2</ele><time>2026-05-04T16:32:37.001Z</time></trkpt><trkpt lat="31.30764971220331" lon="-6.1562026930006715"><ele>1495.8000000000002</ele><time>2026-05-04T16:32:38.001Z</time></trkpt><trkpt lat="31.30754839379301" lon="-6.156208981978528"><ele>1494.4</ele><time>2026-05-04T16:32:39.001Z</time></trkpt><trkpt lat="31.307441365544143" lon="-6.156215625392883"><ele>1493.0</ele><time>2026-05-04T16:32:40.001Z</time></trkpt><trkpt lat="31.3073325252983" lon="-6.156222381263948"><ele>1492.0</ele><time>2026-05-04T16:32:41.001Z</time></trkpt><trkpt lat="31.307219676590552" lon="-6.15622659133612"><ele>1491.0</ele><time>2026-05-04T16:32:42.001Z</time></trkpt><trkpt lat="31.30711890892237" lon="-6.156229965964949"><ele>1490.0</ele><time>2026-05-04T16:32:43.001Z</time></trkpt><trkpt lat="31.30702116121614" lon="-6.156236141316606"><ele>1489.0</ele><time>2026-05-04T16:32:44.001Z</time></trkpt><trkpt lat="31.30691633451616" lon="-6.156245212497243"><ele>1488.0</ele><time>2026-05-04T16:32:45.001Z</time></trkpt><trkpt lat="31.30680813685799" lon="-6.156254575380734"><ele>1488.0</ele><time>2026-05-04T16:32:46.001Z</time></trkpt><trkpt lat="31.306703238623765" lon="-6.1562664868389785"><ele>1488.0</ele><time>2026-05-04T16:32:47.001Z</time></trkpt><trkpt lat="31.306603957972076" lon="-6.156278544180991"><ele>1488.0</ele><time>2026-05-04T16:32:48.001Z</time></trkpt><trkpt lat="31.306510935054938" lon="-6.156289841489596"><ele>1488.0</ele><time>2026-05-04T16:32:49.001Z</time></trkpt><trkpt lat="31.30641617591062" lon="-6.15632395361763"><ele>1488.0</ele><time>2026-05-04T16:32:50.001Z</time></trkpt><trkpt lat="31.306313431385853" lon="-6.156343843937668"><ele>1490.0</ele><time>2026-05-04T16:32:51.001Z</time></trkpt><trkpt lat="31.306205307167694" lon="-6.156358642791996"><ele>1492.0</ele><time>2026-05-04T16:32:52.001Z</time></trkpt><trkpt lat="31.306076331189317" lon="-6.156354482392499"><ele>1494.0</ele><time>2026-05-04T16:32:53.001Z</time></trkpt><trkpt lat="31.305927519494208" lon="-6.15633481407263"><ele>1496.0</ele><time>2026-05-04T16:32:54.001Z</time></trkpt><trkpt lat="31.305774853503365" lon="-6.1563007122326"><ele>1496.0</ele><time>2026-05-04T16:32:55.001Z</time></trkpt><trkpt lat="31.305627379355293" lon="-6.156263375862297"><ele>1496.0</ele><time>2026-05-04T16:32:56.001Z</time></trkpt><trkpt lat="31.30549168733723" lon="-6.1562255198698335"><ele>1496.0</ele><time>2026-05-04T16:32:57.001Z</time></trkpt><trkpt lat="31.305377056370794" lon="-6.156193090837348"><ele>1496.0</ele><time>2026-05-04T16:32:58.001Z</time></trkpt><trkpt lat="31.30528706479292" lon="-6.156167913506248"><ele>1496.1999999999998</ele><time>2026-05-04T16:32:59.001Z</time></trkpt><trkpt lat="31.30520688234867" lon="-6.156148943705046"><ele>1496.3999999999999</ele><time>2026-05-04T16:33:00.001Z</time></trkpt><trkpt lat="31.305112017666357" lon="-6.156129957306865"><ele>1496.6</ele><time>2026-05-04T16:33:01.001Z</time></trkpt><trkpt lat="31.30500012484616" lon="-6.156116235450235"><ele>1496.8</ele><time>2026-05-04T16:33:02.001Z</time></trkpt><trkpt lat="31.30488349513672" lon="-6.156106707975568"><ele>1497.0</ele><time>2026-05-04T16:33:03.001Z</time></trkpt><trkpt lat="31.30475355781207" lon="-6.1561133280925695"><ele>1496.0</ele><time>2026-05-04T16:33:04.001Z</time></trkpt><trkpt lat="31.304628106605335" lon="-6.156121612097477"><ele>1495.0</ele><time>2026-05-04T16:33:05.001Z</time></trkpt><trkpt lat="31.30449630946995" lon="-6.156132091531465"><ele>1494.0</ele><time>2026-05-04T16:33:06.001Z</time></trkpt><trkpt lat="31.304361884773407" lon="-6.156142361644702"><ele>1493.0</ele><time>2026-05-04T16:33:07.001Z</time></trkpt><trkpt lat="31.30422733567039" lon="-6.156151932838817"><ele>1493.0</ele><time>2026-05-04T16:33:08.001Z</time></trkpt><trkpt lat="31.30409246520059" lon="-6.156155182682668"><ele>1493.0</ele><time>2026-05-04T16:33:09.001Z</time></trkpt><trkpt lat="31.303962954809744" lon="-6.156158221140552"><ele>1493.0</ele><time>2026-05-04T16:33:10.001Z</time></trkpt><trkpt lat="31.303836483926574" lon="-6.156163740873576"><ele>1493.0</ele><time>2026-05-04T16:33:11.001Z</time></trkpt><trkpt lat="31.303709263404915" lon="-6.156157950318553"><ele>1490.5</ele><time>2026-05-04T16:33:12.001Z</time></trkpt><trkpt lat="31.303582388759082" lon="-6.156199178902749"><ele>1488.0</ele><time>2026-05-04T16:33:13.001Z</time></trkpt><trkpt lat="31.303454716958306" lon="-6.1562562690390426"><ele>1485.5</ele><time>2026-05-04T16:33:14.001Z</time></trkpt><trkpt lat="31.30333700655242" lon="-6.156322271098719"><ele>1483.0</ele><time>2026-05-04T16:33:15.001Z</time></trkpt><trkpt lat="31.30323182124165" lon="-6.15639402100157"><ele>1483.0</ele><time>2026-05-04T16:33:16.001Z</time></trkpt><trkpt lat="31.303138052800264" lon="-6.156472154795405"><ele>1483.0</ele><time>2026-05-04T16:33:17.001Z</time></trkpt><trkpt lat="31.303051043314976" lon="-6.15655093534743"><ele>1483.0</ele><time>2026-05-04T16:33:18.001Z</time></trkpt><trkpt lat="31.30296765080531" lon="-6.156626713152888"><ele>1483.0</ele><time>2026-05-04T16:33:19.001Z</time></trkpt><trkpt lat="31.302890641816013" lon="-6.156700809522097"><ele>1483.0</ele><time>2026-05-04T16:33:20.001Z</time></trkpt><trkpt lat="31.30282525503172" lon="-6.156780567264406"><ele>1482.8000000000002</ele><time>2026-05-04T16:33:21.001Z</time></trkpt><trkpt lat="31.30276654091782" lon="-6.156855068670063"><ele>1482.6</ele><time>2026-05-04T16:33:22.001Z</time></trkpt><trkpt lat="31.302699771145996" lon="-6.156912011965975"><ele>1482.4</ele><time>2026-05-04T16:33:23.001Z</time></trkpt><trkpt lat="31.302633130370523" lon="-6.156984858565323"><ele>1482.1999999999998</ele><time>2026-05-04T16:33:24.001Z</time></trkpt><trkpt lat="31.30253872982622" lon="-6.15702028612785"><ele>1482.0</ele><time>2026-05-04T16:33:25.001Z</time></trkpt><trkpt lat="31.3024310876595" lon="-6.157022251450369"><ele>1482.0</ele><time>2026-05-04T16:33:26.001Z</time></trkpt><trkpt lat="31.30233052289012" lon="-6.15699314670001"><ele>1482.0</ele><time>2026-05-04T16:33:27.001Z</time></trkpt><trkpt lat="31.30224785162357" lon="-6.156893815461357"><ele>1482.0</ele><time>2026-05-04T16:33:28.001Z</time></trkpt><trkpt lat="31.302147901702543" lon="-6.156831317629101"><ele>1482.0</ele><time>2026-05-04T16:33:29.001Z</time></trkpt><trkpt lat="31.302053771460354" lon="-6.156746244154672"><ele>1482.6</ele><time>2026-05-04T16:33:30.001Z</time></trkpt><trkpt lat="31.301961074962282" lon="-6.156663119251082"><ele>1483.1999999999998</ele><time>2026-05-04T16:33:31.001Z</time></trkpt><trkpt lat="31.301871024421025" lon="-6.156584194907614"><ele>1483.8</ele><time>2026-05-04T16:33:32.001Z</time></trkpt><trkpt lat="31.301784250644502" lon="-6.156511543721952"><ele>1484.4</ele><time>2026-05-04T16:33:33.001Z</time></trkpt><trkpt lat="31.30170131184824" lon="-6.156442103332443"><ele>1485.0</ele><time>2026-05-04T16:33:34.001Z</time></trkpt><trkpt lat="31.301618414250555" lon="-6.1563726974771855"><ele>1485.0</ele><time>2026-05-04T16:33:35.001Z</time></trkpt><trkpt lat="31.301537921727896" lon="-6.156304899726947"><ele>1485.0</ele><time>2026-05-04T16:33:36.001Z</time></trkpt><trkpt lat="31.301457988348677" lon="-6.156237628702656"><ele>1485.0</ele><time>2026-05-04T16:33:37.001Z</time></trkpt><trkpt lat="31.301380909081434" lon="-6.156173317825774"><ele>1485.0</ele><time>2026-05-04T16:33:38.001Z</time></trkpt><trkpt lat="31.301308654205297" lon="-6.156113032210633"><ele>1485.0</ele><time>2026-05-04T16:33:39.001Z</time></trkpt><trkpt lat="31.3012454545518" lon="-6.1560533149992445"><ele>1485.0</ele><time>2026-05-04T16:33:40.001Z</time></trkpt><trkpt lat="31.3011811303619" lon="-6.155994126031281"><ele>1485.0</ele><time>2026-05-04T16:33:41.001Z</time></trkpt><trkpt lat="31.30111605586636" lon="-6.1559342466562645"><ele>1485.0</ele><time>2026-05-04T16:33:42.001Z</time></trkpt><trkpt lat="31.30105051694673" lon="-6.15587393993337"><ele>1485.0</ele><time>2026-05-04T16:33:43.001Z</time></trkpt><trkpt lat="31.30099293815911" lon="-6.155799181862046"><ele>1485.0</ele><time>2026-05-04T16:33:44.001Z</time></trkpt><trkpt lat="31.300924327174044" lon="-6.1557361521958995"><ele>1485.0</ele><time>2026-05-04T16:33:45.001Z</time></trkpt><trkpt lat="31.300853649108408" lon="-6.1556755077750775"><ele>1485.0</ele><time>2026-05-04T16:33:46.001Z</time></trkpt><trkpt lat="31.300785790284667" lon="-6.155614846848809"><ele>1485.0</ele><time>2026-05-04T16:33:47.001Z</time></trkpt><trkpt lat="31.300724504483195" lon="-6.155560375727796"><ele>1485.0</ele><time>2026-05-04T16:33:48.001Z</time></trkpt><trkpt lat="31.300668298131214" lon="-6.155509598616365"><ele>1485.0</ele><time>2026-05-04T16:33:49.001Z</time></trkpt><trkpt lat="31.300615464496993" lon="-6.155461963629885"><ele>1485.0</ele><time>2026-05-04T16:33:50.001Z</time></trkpt><trkpt lat="31.300519284549154" lon="-6.155369871733218"><ele>1485.0</ele><time>2026-05-04T16:33:52.001Z</time></trkpt><trkpt lat="31.30046172379686" lon="-6.1553225893198"><ele>1485.0</ele><time>2026-05-04T16:33:53.001Z</time></trkpt><trkpt lat="31.30040923868635" lon="-6.15527254462978"><ele>1485.0</ele><time>2026-05-04T16:33:54.001Z</time></trkpt><trkpt lat="31.30032152156631" lon="-6.155198607838869"><ele>1485.0</ele><time>2026-05-04T16:33:56.001Z</time></trkpt><trkpt lat="31.300247141640085" lon="-6.155216304695921"><ele>1485.0</ele><time>2026-05-04T16:33:58.001Z</time></trkpt><trkpt lat="31.300202159120122" lon="-6.155299890413067"><ele>1485.0</ele><time>2026-05-04T16:34:00Z</time></trkpt><trkpt lat="31.300180256216233" lon="-6.155448317092183"><ele>1485.0</ele><time>2026-05-04T16:34:02Z</time></trkpt><trkpt lat="31.300167325845702" lon="-6.155534564690206"><ele>1485.0</ele><time>2026-05-04T16:34:03Z</time></trkpt><trkpt lat="31.300143194275556" lon="-6.1556242814298106"><ele>1485.0</ele><time>2026-05-04T16:34:04Z</time></trkpt><trkpt lat="31.30013954805108" lon="-6.155719846956393"><ele>1485.0</ele><time>2026-05-04T16:34:05Z</time></trkpt><trkpt lat="31.300123889380657" lon="-6.15581290737934"><ele>1485.0</ele><time>2026-05-04T16:34:06Z</time></trkpt><trkpt lat="31.300093075926252" lon="-6.15589828167328"><ele>1485.0</ele><time>2026-05-04T16:34:07Z</time></trkpt><trkpt lat="31.300076360115455" lon="-6.1559925521971355"><ele>1485.6666666666667</ele><time>2026-05-04T16:34:08Z</time></trkpt><trkpt lat="31.300058897044124" lon="-6.156088521934375"><ele>1486.3333333333333</ele><time>2026-05-04T16:34:09Z</time></trkpt><trkpt lat="31.300036715895057" lon="-6.156184879094987"><ele>1487.0</ele><time>2026-05-04T16:34:10Z</time></trkpt><trkpt lat="31.300023854789675" lon="-6.15627662439026"><ele>1487.6666666666665</ele><time>2026-05-04T16:34:11Z</time></trkpt><trkpt lat="31.30001061267498" lon="-6.1563572799663575"><ele>1488.3333333333333</ele><time>2026-05-04T16:34:12Z</time></trkpt><trkpt lat="31.2999942689782" lon="-6.156436315302239"><ele>1489.0</ele><time>2026-05-04T16:34:13Z</time></trkpt><trkpt lat="31.29997842869635" lon="-6.156513361686112"><ele>1488.5</ele><time>2026-05-04T16:34:14Z</time></trkpt><trkpt lat="31.299963479836578" lon="-6.156585383043176"><ele>1488.0</ele><time>2026-05-04T16:34:15Z</time></trkpt><trkpt lat="31.299942210955383" lon="-6.156693666339127"><ele>1487.5</ele><time>2026-05-04T16:34:17Z</time></trkpt><trkpt lat="31.299954174390603" lon="-6.156771040208013"><ele>1487.0</ele><time>2026-05-04T16:34:21Z</time></trkpt><trkpt lat="31.300014735589148" lon="-6.156872322842415"><ele>1486.5</ele><time>2026-05-04T16:34:23Z</time></trkpt><trkpt lat="31.300083658076602" lon="-6.156982093424335"><ele>1486.0</ele><time>2026-05-04T16:34:25Z</time></trkpt><trkpt lat="31.300125962198653" lon="-6.15710973376916"><ele>1486.0</ele><time>2026-05-04T16:34:27Z</time></trkpt><trkpt lat="31.30016039928639" lon="-6.157239208679355"><ele>1486.0</ele><time>2026-05-04T16:34:29Z</time></trkpt><trkpt lat="31.300191479873213" lon="-6.1573710921791776"><ele>1486.0</ele><time>2026-05-04T16:34:31Z</time></trkpt><trkpt lat="31.300233023769977" lon="-6.157493492645727"><ele>1486.0</ele><time>2026-05-04T16:34:33Z</time></trkpt><trkpt lat="31.300266114811816" lon="-6.157562679894061"><ele>1486.0</ele><time>2026-05-04T16:34:35Z</time></trkpt><trkpt lat="31.30031959958738" lon="-6.157603441148959"><ele>1485.8333333333333</ele><time>2026-05-04T16:34:39.001Z</time></trkpt><trkpt lat="31.300381075734077" lon="-6.157570974450555"><ele>1485.6666666666665</ele><time>2026-05-04T16:34:40.001Z</time></trkpt><trkpt lat="31.300478923673587" lon="-6.157511252379499"><ele>1485.5</ele><time>2026-05-04T16:34:42.001Z</time></trkpt><trkpt lat="31.30054015811901" lon="-6.157478025268823"><ele>1485.3333333333333</ele><time>2026-05-04T16:34:43.001Z</time></trkpt><trkpt lat="31.30059770458083" lon="-6.157447796023387"><ele>1485.1666666666667</ele><time>2026-05-04T16:34:44.001Z</time></trkpt><trkpt lat="31.300687336339994" lon="-6.157389327049752"><ele>1485.0</ele><time>2026-05-04T16:34:46.001Z</time></trkpt><trkpt lat="31.30077587166868" lon="-6.157363532447379"><ele>1485.0</ele><time>2026-05-04T16:34:48.001Z</time></trkpt><trkpt lat="31.300869579621704" lon="-6.157397464195267"><ele>1485.0</ele><time>2026-05-04T16:34:50.001Z</time></trkpt><trkpt lat="31.300970688618822" lon="-6.157457909049349"><ele>1485.0</ele><time>2026-05-04T16:34:52.001Z</time></trkpt><trkpt lat="31.301070910116344" lon="-6.157491473573158"><ele>1485.0</ele><time>2026-05-04T16:34:54.001Z</time></trkpt><trkpt lat="31.301158381566047" lon="-6.157509075847014"><ele>1485.0</ele><time>2026-05-04T16:34:56.001Z</time></trkpt><trkpt lat="31.301226117235085" lon="-6.157516279307856"><ele>1485.0</ele><time>2026-05-04T16:34:58.001Z</time></trkpt><trkpt lat="31.301307486892142" lon="-6.157529677207856"><ele>1485.0</ele><time>2026-05-04T16:35:01.001Z</time></trkpt><trkpt lat="31.301368054484527" lon="-6.157552582893998"><ele>1485.0</ele><time>2026-05-04T16:35:04.001Z</time></trkpt><trkpt lat="31.301406554663036" lon="-6.1577493210556185"><ele>1485.0</ele><time>2026-05-04T16:35:07.001Z</time></trkpt><trkpt lat="31.301436941288273" lon="-6.157819958356878"><ele>1485.0</ele><time>2026-05-04T16:35:15.001Z</time></trkpt><trkpt lat="31.30149502544545" lon="-6.157886213197361"><ele>1484.5714285714287</ele><time>2026-05-04T16:35:28.001Z</time></trkpt><trkpt lat="31.301521907527146" lon="-6.1579926609535045"><ele>1484.1428571428573</ele><time>2026-05-04T16:37:33.001Z</time></trkpt><trkpt lat="31.301499392419608" lon="-6.158066279460091"><ele>1483.7142857142858</ele><time>2026-05-04T16:37:36.001Z</time></trkpt><trkpt lat="31.30143187150722" lon="-6.158072188430855"><ele>1483.2857142857142</ele><time>2026-05-04T16:37:40.001Z</time></trkpt><trkpt lat="31.301485270654123" lon="-6.158030816782702"><ele>1482.857142857143</ele><time>2026-05-04T16:42:25.001Z</time></trkpt><trkpt lat="31.30151113254016" lon="-6.1579512883645355"><ele>1482.4285714285713</ele><time>2026-05-04T16:42:31.001Z</time></trkpt><trkpt lat="31.30148953935398" lon="-6.157872179981624"><ele>1482.0</ele><time>2026-05-04T16:42:36.001Z</time></trkpt><trkpt lat="31.301444504787924" lon="-6.157819954768228"><ele>1482.0</ele><time>2026-05-04T16:42:41.001Z</time></trkpt><trkpt lat="31.30138050929419" lon="-6.157831883182292"><ele>1482.0</ele><time>2026-05-04T16:42:51.001Z</time></trkpt><trkpt lat="31.30135497525374" lon="-6.157900502528014"><ele>1482.0</ele><time>2026-05-04T16:43:02.001Z</time></trkpt><trkpt lat="31.30138763815847" lon="-6.157984071879113"><ele>1482.0</ele><time>2026-05-04T16:43:34.001Z</time></trkpt><trkpt lat="31.301483918398933" lon="-6.158018738176567"><ele>1482.0</ele><time>2026-05-04T16:45:26.024Z</time></trkpt><trkpt lat="31.30153274825129" lon="-6.158095883372826"><ele>1482.0</ele><time>2026-05-04T16:45:38.023Z</time></trkpt><trkpt lat="31.301286487027127" lon="-6.157869910267444"><ele>1482.0</ele><time>2026-05-04T16:46:01.014Z</time></trkpt><trkpt lat="31.301304205383722" lon="-6.157957365230122"><ele>1482.0</ele><time>2026-05-04T16:46:04.018Z</time></trkpt><trkpt lat="31.301361118361555" lon="-6.157989292097603"><ele>1482.0</ele><time>2026-05-04T16:46:22.001Z</time></trkpt><trkpt lat="31.30141695157917" lon="-6.158033486783584"><ele>1482.0</ele><time>2026-05-04T16:47:10.001Z</time></trkpt><trkpt lat="31.301352584238074" lon="-6.158008372472175"><ele>1482.0</ele><time>2026-05-04T16:49:50Z</time></trkpt><trkpt lat="31.301379688918292" lon="-6.158093635510075"><ele>1482.0</ele><time>2026-05-04T16:50:20.001Z</time></trkpt><trkpt lat="31.301415621123045" lon="-6.158016754305886"><ele>1482.0</ele><time>2026-05-04T16:50:26.999Z</time></trkpt><trkpt lat="31.30138603986197" lon="-6.157918011048615"><ele>1485.0</ele><time>2026-05-04T16:50:33.071Z</time></trkpt><trkpt lat="31.3014235238776" lon="-6.158014230937209"><ele>1482.0</ele><time>2026-05-04T16:53:54Z</time></trkpt></trkseg></trk></gpx>